<?xml version="1.0" encoding="UTF-8"?>
<gpx xmlns="http://www.topografix.com/GPX/1/1" xmlns:xsi="http://www.w3.org/2001/XMLSchema-instance" version="1.1" xsi:schemaLocation="http://www.topografix.com/GPX/1/1 http://www.topografix.com/GPX/1/1/gpx.xsd">
  <metadata>
    <name>Smith Mountain Lake Ultra Triathlon - 1 lap</name>
  </metadata>
  <trk>
    <name>Smith Mountain Lake Ultra Triathlon - 1 lap</name>
    <trkseg>
      <trkpt lat="37.095482" lon="-79.609853">
        <ele>253.764453</ele>
        <time>2025-04-04T09:34:30.000Z</time>
      </trkpt>
      <trkpt lat="37.09552" lon="-79.609822">
        <ele>253.764439</ele>
        <time>2025-04-04T09:34:31.000Z</time>
      </trkpt>
      <trkpt lat="37.095605" lon="-79.609824">
        <ele>253.76444</ele>
        <time>2025-04-04T09:34:32.000Z</time>
      </trkpt>
      <trkpt lat="37.095605" lon="-79.609782">
        <ele>253.764456</ele>
        <time>2025-04-04T09:34:32.000Z</time>
      </trkpt>
      <trkpt lat="37.095676" lon="-79.609698">
        <ele>253.764446</ele>
        <time>2025-04-04T09:34:33.000Z</time>
      </trkpt>
      <trkpt lat="37.096012" lon="-79.609489">
        <ele>253.764441</ele>
        <time>2025-04-04T09:34:37.000Z</time>
      </trkpt>
      <trkpt lat="37.096149" lon="-79.609412">
        <ele>253.764445</ele>
        <time>2025-04-04T09:34:39.000Z</time>
      </trkpt>
      <trkpt lat="37.096416" lon="-79.609227">
        <ele>253.57702</ele>
        <time>2025-04-04T09:34:42.000Z</time>
      </trkpt>
      <trkpt lat="37.096675" lon="-79.609038">
        <ele>253.258519</ele>
        <time>2025-04-04T09:34:45.000Z</time>
      </trkpt>
      <trkpt lat="37.096698" lon="-79.609001">
        <ele>253.21639</ele>
        <time>2025-04-04T09:34:45.000Z</time>
      </trkpt>
      <trkpt lat="37.096869" lon="-79.608862">
        <ele>253.001836</ele>
        <time>2025-04-04T09:34:47.000Z</time>
      </trkpt>
      <trkpt lat="37.097033" lon="-79.608612">
        <ele>252.738543</ele>
        <time>2025-04-04T09:34:50.000Z</time>
      </trkpt>
      <trkpt lat="37.097109" lon="-79.608392">
        <ele>252.523543</ele>
        <time>2025-04-04T09:34:52.000Z</time>
      </trkpt>
      <trkpt lat="37.097203" lon="-79.607914">
        <ele>252.109436</ele>
        <time>2025-04-04T09:34:56.000Z</time>
      </trkpt>
      <trkpt lat="37.097335" lon="-79.605479">
        <ele>251.212169</ele>
        <time>2025-04-04T09:35:18.000Z</time>
      </trkpt>
      <trkpt lat="37.097317" lon="-79.605117">
        <ele>251.532111</ele>
        <time>2025-04-04T09:35:21.000Z</time>
      </trkpt>
      <trkpt lat="37.097231" lon="-79.604778">
        <ele>252.028124</ele>
        <time>2025-04-04T09:35:24.000Z</time>
      </trkpt>
      <trkpt lat="37.09707" lon="-79.60444">
        <ele>252.580942</ele>
        <time>2025-04-04T09:35:27.000Z</time>
      </trkpt>
      <trkpt lat="37.096963" lon="-79.604252">
        <ele>252.90286</ele>
        <time>2025-04-04T09:35:29.000Z</time>
      </trkpt>
      <trkpt lat="37.096062" lon="-79.603126">
        <ele>255.079629</ele>
        <time>2025-04-04T09:35:43.000Z</time>
      </trkpt>
      <trkpt lat="37.095883" lon="-79.602935">
        <ele>255.472649</ele>
        <time>2025-04-04T09:35:46.000Z</time>
      </trkpt>
      <trkpt lat="37.094929" lon="-79.602211">
        <ele>257.255538</ele>
        <time>2025-04-04T09:35:58.000Z</time>
      </trkpt>
      <trkpt lat="37.09462" lon="-79.601891">
        <ele>258.144153</ele>
        <time>2025-04-04T09:36:02.000Z</time>
      </trkpt>
      <trkpt lat="37.094393" lon="-79.601487">
        <ele>259.02572</ele>
        <time>2025-04-04T09:36:06.000Z</time>
      </trkpt>
      <trkpt lat="37.094097" lon="-79.600664">
        <ele>260.614497</ele>
        <time>2025-04-04T09:36:14.000Z</time>
      </trkpt>
      <trkpt lat="37.093989" lon="-79.60039">
        <ele>261.168872</ele>
        <time>2025-04-04T09:36:17.000Z</time>
      </trkpt>
      <trkpt lat="37.093361" lon="-79.598661">
        <ele>266.773455</ele>
        <time>2025-04-04T09:36:34.000Z</time>
      </trkpt>
      <trkpt lat="37.092194" lon="-79.595282">
        <ele>273.86512</ele>
        <time>2025-04-04T09:37:07.000Z</time>
      </trkpt>
      <trkpt lat="37.091526" lon="-79.593434">
        <ele>276.61776</ele>
        <time>2025-04-04T09:37:25.000Z</time>
      </trkpt>
      <trkpt lat="37.091416" lon="-79.593145">
        <ele>276.889135</ele>
        <time>2025-04-04T09:37:28.000Z</time>
      </trkpt>
      <trkpt lat="37.091096" lon="-79.593647">
        <ele>277.430219</ele>
        <time>2025-04-04T09:37:34.000Z</time>
      </trkpt>
      <trkpt lat="37.090173" lon="-79.595306">
        <ele>276.958578</ele>
        <time>2025-04-04T09:37:52.000Z</time>
      </trkpt>
      <trkpt lat="37.089824" lon="-79.595928">
        <ele>276.432607</ele>
        <time>2025-04-04T09:37:59.000Z</time>
      </trkpt>
      <trkpt lat="37.089749" lon="-79.596071">
        <ele>275.954355</ele>
        <time>2025-04-04T09:38:01.000Z</time>
      </trkpt>
      <trkpt lat="37.089561" lon="-79.596373">
        <ele>274.895165</ele>
        <time>2025-04-04T09:38:04.000Z</time>
      </trkpt>
      <trkpt lat="37.089132" lon="-79.597137">
        <ele>272.287662</ele>
        <time>2025-04-04T09:38:12.000Z</time>
      </trkpt>
      <trkpt lat="37.088604" lon="-79.597889">
        <ele>269.551819</ele>
        <time>2025-04-04T09:38:21.000Z</time>
      </trkpt>
      <trkpt lat="37.088272" lon="-79.598217">
        <ele>268.24191</ele>
        <time>2025-04-04T09:38:26.000Z</time>
      </trkpt>
      <trkpt lat="37.08776" lon="-79.598611">
        <ele>266.390504</ele>
        <time>2025-04-04T09:38:33.000Z</time>
      </trkpt>
      <trkpt lat="37.087303" lon="-79.598921">
        <ele>264.68686</ele>
        <time>2025-04-04T09:38:39.000Z</time>
      </trkpt>
      <trkpt lat="37.08698" lon="-79.599249">
        <ele>263.89404</ele>
        <time>2025-04-04T09:38:44.000Z</time>
      </trkpt>
      <trkpt lat="37.08691" lon="-79.599363">
        <ele>263.691878</ele>
        <time>2025-04-04T09:38:45.000Z</time>
      </trkpt>
      <trkpt lat="37.086751" lon="-79.599717">
        <ele>263.13728</ele>
        <time>2025-04-04T09:38:49.000Z</time>
      </trkpt>
      <trkpt lat="37.086005" lon="-79.602021">
        <ele>260.16584</ele>
        <time>2025-04-04T09:39:11.000Z</time>
      </trkpt>
      <trkpt lat="37.085833" lon="-79.602459">
        <ele>259.700803</ele>
        <time>2025-04-04T09:39:15.000Z</time>
      </trkpt>
      <trkpt lat="37.085664" lon="-79.602717">
        <ele>259.385281</ele>
        <time>2025-04-04T09:39:18.000Z</time>
      </trkpt>
      <trkpt lat="37.085435" lon="-79.602964">
        <ele>259.251173</ele>
        <time>2025-04-04T09:39:21.000Z</time>
      </trkpt>
      <trkpt lat="37.085193" lon="-79.60317">
        <ele>259.344375</ele>
        <time>2025-04-04T09:39:24.000Z</time>
      </trkpt>
      <trkpt lat="37.083918" lon="-79.603633">
        <ele>259.759092</ele>
        <time>2025-04-04T09:39:39.000Z</time>
      </trkpt>
      <trkpt lat="37.083614" lon="-79.603823">
        <ele>259.564751</ele>
        <time>2025-04-04T09:39:43.000Z</time>
      </trkpt>
      <trkpt lat="37.083364" lon="-79.604104">
        <ele>259.357186</ele>
        <time>2025-04-04T09:39:47.000Z</time>
      </trkpt>
      <trkpt lat="37.083193" lon="-79.604431">
        <ele>259.164804</ele>
        <time>2025-04-04T09:39:50.000Z</time>
      </trkpt>
      <trkpt lat="37.083108" lon="-79.604698">
        <ele>259.017369</ele>
        <time>2025-04-04T09:39:53.000Z</time>
      </trkpt>
      <trkpt lat="37.082972" lon="-79.60662">
        <ele>258.729051</ele>
        <time>2025-04-04T09:40:10.000Z</time>
      </trkpt>
      <trkpt lat="37.082877" lon="-79.606957">
        <ele>258.758273</ele>
        <time>2025-04-04T09:40:13.000Z</time>
      </trkpt>
      <trkpt lat="37.082805" lon="-79.607146">
        <ele>258.775835</ele>
        <time>2025-04-04T09:40:15.000Z</time>
      </trkpt>
      <trkpt lat="37.082604" lon="-79.607483">
        <ele>258.810184</ele>
        <time>2025-04-04T09:40:19.000Z</time>
      </trkpt>
      <trkpt lat="37.082439" lon="-79.607633">
        <ele>258.519663</ele>
        <time>2025-04-04T09:40:21.000Z</time>
      </trkpt>
      <trkpt lat="37.08215" lon="-79.607796">
        <ele>257.683889</ele>
        <time>2025-04-04T09:40:25.000Z</time>
      </trkpt>
      <trkpt lat="37.081582" lon="-79.608034">
        <ele>256.178348</ele>
        <time>2025-04-04T09:40:32.000Z</time>
      </trkpt>
      <trkpt lat="37.081306" lon="-79.60821">
        <ele>255.390747</ele>
        <time>2025-04-04T09:40:35.000Z</time>
      </trkpt>
      <trkpt lat="37.080932" lon="-79.60852">
        <ele>254.256327</ele>
        <time>2025-04-04T09:40:40.000Z</time>
      </trkpt>
      <trkpt lat="37.080359" lon="-79.609072">
        <ele>251.354334</ele>
        <time>2025-04-04T09:40:48.000Z</time>
      </trkpt>
      <trkpt lat="37.080152" lon="-79.609336">
        <ele>250.159832</ele>
        <time>2025-04-04T09:40:51.000Z</time>
      </trkpt>
      <trkpt lat="37.080089" lon="-79.609439">
        <ele>249.792371</ele>
        <time>2025-04-04T09:40:52.000Z</time>
      </trkpt>
      <trkpt lat="37.080029" lon="-79.609651">
        <ele>249.068377</ele>
        <time>2025-04-04T09:40:54.000Z</time>
      </trkpt>
      <trkpt lat="37.080021" lon="-79.60983">
        <ele>248.487174</ele>
        <time>2025-04-04T09:40:56.000Z</time>
      </trkpt>
      <trkpt lat="37.080057" lon="-79.610278">
        <ele>247.082748</ele>
        <time>2025-04-04T09:41:00.000Z</time>
      </trkpt>
      <trkpt lat="37.080019" lon="-79.610446">
        <ele>247.025905</ele>
        <time>2025-04-04T09:41:02.000Z</time>
      </trkpt>
      <trkpt lat="37.079986" lon="-79.610518">
        <ele>246.99948</ele>
        <time>2025-04-04T09:41:03.000Z</time>
      </trkpt>
      <trkpt lat="37.079734" lon="-79.610777">
        <ele>246.868126</ele>
        <time>2025-04-04T09:41:07.000Z</time>
      </trkpt>
      <trkpt lat="37.079643" lon="-79.610892">
        <ele>246.81483</ele>
        <time>2025-04-04T09:41:08.000Z</time>
      </trkpt>
      <trkpt lat="37.07953" lon="-79.611193">
        <ele>246.710814</ele>
        <time>2025-04-04T09:41:11.000Z</time>
      </trkpt>
      <trkpt lat="37.079443" lon="-79.611523">
        <ele>246.599271</ele>
        <time>2025-04-04T09:41:14.000Z</time>
      </trkpt>
      <trkpt lat="37.079352" lon="-79.6117">
        <ele>246.53656</ele>
        <time>2025-04-04T09:41:16.000Z</time>
      </trkpt>
      <trkpt lat="37.079168" lon="-79.611844">
        <ele>246.44565</ele>
        <time>2025-04-04T09:41:18.000Z</time>
      </trkpt>
      <trkpt lat="37.078773" lon="-79.61198">
        <ele>246.664003</ele>
        <time>2025-04-04T09:41:23.000Z</time>
      </trkpt>
      <trkpt lat="37.078653" lon="-79.612049">
        <ele>246.85828</ele>
        <time>2025-04-04T09:41:24.000Z</time>
      </trkpt>
      <trkpt lat="37.078582" lon="-79.612155">
        <ele>247.01347</ele>
        <time>2025-04-04T09:41:25.000Z</time>
      </trkpt>
      <trkpt lat="37.078525" lon="-79.612261">
        <ele>247.167577</ele>
        <time>2025-04-04T09:41:26.000Z</time>
      </trkpt>
      <trkpt lat="37.078476" lon="-79.612442">
        <ele>247.396607</ele>
        <time>2025-04-04T09:41:28.000Z</time>
      </trkpt>
      <trkpt lat="37.078477" lon="-79.612632">
        <ele>247.62674</ele>
        <time>2025-04-04T09:41:30.000Z</time>
      </trkpt>
      <trkpt lat="37.078577" lon="-79.613031">
        <ele>248.130411</ele>
        <time>2025-04-04T09:41:34.000Z</time>
      </trkpt>
      <trkpt lat="37.078692" lon="-79.613356">
        <ele>248.559576</ele>
        <time>2025-04-04T09:41:37.000Z</time>
      </trkpt>
      <trkpt lat="37.078826" lon="-79.613711">
        <ele>249.018178</ele>
        <time>2025-04-04T09:41:40.000Z</time>
      </trkpt>
      <trkpt lat="37.079067" lon="-79.614109">
        <ele>249.206659</ele>
        <time>2025-04-04T09:41:44.000Z</time>
      </trkpt>
      <trkpt lat="37.079211" lon="-79.614465">
        <ele>249.329315</ele>
        <time>2025-04-04T09:41:48.000Z</time>
      </trkpt>
      <trkpt lat="37.079289" lon="-79.614826">
        <ele>249.45024</ele>
        <time>2025-04-04T09:41:51.000Z</time>
      </trkpt>
      <trkpt lat="37.079301" lon="-79.615079">
        <ele>249.529671</ele>
        <time>2025-04-04T09:41:53.000Z</time>
      </trkpt>
      <trkpt lat="37.0793" lon="-79.615242">
        <ele>249.583372</ele>
        <time>2025-04-04T09:41:54.000Z</time>
      </trkpt>
      <trkpt lat="37.07925" lon="-79.615403">
        <ele>249.636346</ele>
        <time>2025-04-04T09:41:56.000Z</time>
      </trkpt>
      <trkpt lat="37.07923" lon="-79.615441">
        <ele>249.656075</ele>
        <time>2025-04-04T09:41:56.000Z</time>
      </trkpt>
      <trkpt lat="37.07926" lon="-79.615392">
        <ele>249.675826</ele>
        <time>2025-04-04T09:41:57.000Z</time>
      </trkpt>
      <trkpt lat="37.079287" lon="-79.615248">
        <ele>249.728805</ele>
        <time>2025-04-04T09:41:58.000Z</time>
      </trkpt>
      <trkpt lat="37.0793" lon="-79.61508">
        <ele>249.752624</ele>
        <time>2025-04-04T09:41:59.000Z</time>
      </trkpt>
      <trkpt lat="37.079288" lon="-79.614822">
        <ele>249.583212</ele>
        <time>2025-04-04T09:42:01.000Z</time>
      </trkpt>
      <trkpt lat="37.07921" lon="-79.614458">
        <ele>249.325301</ele>
        <time>2025-04-04T09:42:04.000Z</time>
      </trkpt>
      <trkpt lat="37.079077" lon="-79.614119">
        <ele>249.063654</ele>
        <time>2025-04-04T09:42:07.000Z</time>
      </trkpt>
      <trkpt lat="37.078823" lon="-79.613711">
        <ele>248.715101</ele>
        <time>2025-04-04T09:42:12.000Z</time>
      </trkpt>
      <trkpt lat="37.078689" lon="-79.613356">
        <ele>248.452921</ele>
        <time>2025-04-04T09:42:15.000Z</time>
      </trkpt>
      <trkpt lat="37.078575" lon="-79.613023">
        <ele>248.19521</ele>
        <time>2025-04-04T09:42:18.000Z</time>
      </trkpt>
      <trkpt lat="37.078479" lon="-79.612619">
        <ele>247.782786</ele>
        <time>2025-04-04T09:42:22.000Z</time>
      </trkpt>
      <trkpt lat="37.078473" lon="-79.612432">
        <ele>247.594345</ele>
        <time>2025-04-04T09:42:24.000Z</time>
      </trkpt>
      <trkpt lat="37.078519" lon="-79.612249">
        <ele>247.4068</ele>
        <time>2025-04-04T09:42:26.000Z</time>
      </trkpt>
      <trkpt lat="37.078592" lon="-79.612156">
        <ele>247.28062</ele>
        <time>2025-04-04T09:42:27.000Z</time>
      </trkpt>
      <trkpt lat="37.078666" lon="-79.612053">
        <ele>247.153551</ele>
        <time>2025-04-04T09:42:28.000Z</time>
      </trkpt>
      <trkpt lat="37.078782" lon="-79.611979">
        <ele>246.994476</ele>
        <time>2025-04-04T09:42:29.000Z</time>
      </trkpt>
      <trkpt lat="37.079176" lon="-79.611851">
        <ele>246.498142</ele>
        <time>2025-04-04T09:42:34.000Z</time>
      </trkpt>
      <trkpt lat="37.079354" lon="-79.611688">
        <ele>246.218021</ele>
        <time>2025-04-04T09:42:36.000Z</time>
      </trkpt>
      <trkpt lat="37.079448" lon="-79.611527">
        <ele>246.046851</ele>
        <time>2025-04-04T09:42:38.000Z</time>
      </trkpt>
      <trkpt lat="37.079539" lon="-79.611192">
        <ele>246.4489</ele>
        <time>2025-04-04T09:42:41.000Z</time>
      </trkpt>
      <trkpt lat="37.079642" lon="-79.610894">
        <ele>246.823846</ele>
        <time>2025-04-04T09:42:44.000Z</time>
      </trkpt>
      <trkpt lat="37.079742" lon="-79.610768">
        <ele>247.015914</ele>
        <time>2025-04-04T09:42:46.000Z</time>
      </trkpt>
      <trkpt lat="37.079985" lon="-79.610514">
        <ele>247.489333</ele>
        <time>2025-04-04T09:42:50.000Z</time>
      </trkpt>
      <trkpt lat="37.080029" lon="-79.610445">
        <ele>247.584639</ele>
        <time>2025-04-04T09:42:51.000Z</time>
      </trkpt>
      <trkpt lat="37.080052" lon="-79.610284">
        <ele>247.775639</ele>
        <time>2025-04-04T09:42:52.000Z</time>
      </trkpt>
      <trkpt lat="37.080025" lon="-79.609841">
        <ele>248.279011</ele>
        <time>2025-04-04T09:42:56.000Z</time>
      </trkpt>
      <trkpt lat="37.080038" lon="-79.609655">
        <ele>248.48731</ele>
        <time>2025-04-04T09:42:58.000Z</time>
      </trkpt>
      <trkpt lat="37.080092" lon="-79.609442">
        <ele>249.055083</ele>
        <time>2025-04-04T09:43:00.000Z</time>
      </trkpt>
      <trkpt lat="37.080137" lon="-79.609348">
        <ele>249.481989</ele>
        <time>2025-04-04T09:43:01.000Z</time>
      </trkpt>
      <trkpt lat="37.080362" lon="-79.609071">
        <ele>250.869759</ele>
        <time>2025-04-04T09:43:05.000Z</time>
      </trkpt>
      <trkpt lat="37.080932" lon="-79.608518">
        <ele>254.241276</ele>
        <time>2025-04-04T09:43:13.000Z</time>
      </trkpt>
      <trkpt lat="37.081299" lon="-79.6082">
        <ele>256.314641</ele>
        <time>2025-04-04T09:43:18.000Z</time>
      </trkpt>
      <trkpt lat="37.081582" lon="-79.608017">
        <ele>257.104575</ele>
        <time>2025-04-04T09:43:22.000Z</time>
      </trkpt>
      <trkpt lat="37.082136" lon="-79.607794">
        <ele>257.621483</ele>
        <time>2025-04-04T09:43:28.000Z</time>
      </trkpt>
      <trkpt lat="37.082451" lon="-79.607633">
        <ele>257.908437</ele>
        <time>2025-04-04T09:43:32.000Z</time>
      </trkpt>
      <trkpt lat="37.082608" lon="-79.607474">
        <ele>258.092465</ele>
        <time>2025-04-04T09:43:34.000Z</time>
      </trkpt>
      <trkpt lat="37.08282" lon="-79.607137">
        <ele>258.381312</ele>
        <time>2025-04-04T09:43:38.000Z</time>
      </trkpt>
      <trkpt lat="37.082877" lon="-79.606953">
        <ele>258.523117</ele>
        <time>2025-04-04T09:43:40.000Z</time>
      </trkpt>
      <trkpt lat="37.082972" lon="-79.606619">
        <ele>258.620529</ele>
        <time>2025-04-04T09:43:43.000Z</time>
      </trkpt>
      <trkpt lat="37.083113" lon="-79.604692">
        <ele>259.146661</ele>
        <time>2025-04-04T09:44:00.000Z</time>
      </trkpt>
      <trkpt lat="37.083192" lon="-79.604428">
        <ele>259.211059</ele>
        <time>2025-04-04T09:44:03.000Z</time>
      </trkpt>
      <trkpt lat="37.083365" lon="-79.604117">
        <ele>259.295098</ele>
        <time>2025-04-04T09:44:06.000Z</time>
      </trkpt>
      <trkpt lat="37.083607" lon="-79.603822">
        <ele>259.385776</ele>
        <time>2025-04-04T09:44:10.000Z</time>
      </trkpt>
      <trkpt lat="37.083923" lon="-79.603627">
        <ele>259.47988</ele>
        <time>2025-04-04T09:44:14.000Z</time>
      </trkpt>
      <trkpt lat="37.085193" lon="-79.603164">
        <ele>259.568605</ele>
        <time>2025-04-04T09:44:29.000Z</time>
      </trkpt>
      <trkpt lat="37.085435" lon="-79.602967">
        <ele>259.543055</ele>
        <time>2025-04-04T09:44:32.000Z</time>
      </trkpt>
      <trkpt lat="37.085665" lon="-79.602714">
        <ele>259.516799</ele>
        <time>2025-04-04T09:44:35.000Z</time>
      </trkpt>
      <trkpt lat="37.085826" lon="-79.602451">
        <ele>259.494066</ele>
        <time>2025-04-04T09:44:38.000Z</time>
      </trkpt>
      <trkpt lat="37.086004" lon="-79.602024">
        <ele>259.853016</ele>
        <time>2025-04-04T09:44:42.000Z</time>
      </trkpt>
      <trkpt lat="37.086756" lon="-79.599705">
        <ele>263.24434</ele>
        <time>2025-04-04T09:45:04.000Z</time>
      </trkpt>
      <trkpt lat="37.086908" lon="-79.599377">
        <ele>263.828855</ele>
        <time>2025-04-04T09:45:07.000Z</time>
      </trkpt>
      <trkpt lat="37.086965" lon="-79.599255">
        <ele>264.041911</ele>
        <time>2025-04-04T09:45:08.000Z</time>
      </trkpt>
      <trkpt lat="37.087303" lon="-79.598934">
        <ele>264.830705</ele>
        <time>2025-04-04T09:45:13.000Z</time>
      </trkpt>
      <trkpt lat="37.087767" lon="-79.598593">
        <ele>265.859755</ele>
        <time>2025-04-04T09:45:19.000Z</time>
      </trkpt>
      <trkpt lat="37.088274" lon="-79.598222">
        <ele>268.076717</ele>
        <time>2025-04-04T09:45:26.000Z</time>
      </trkpt>
      <trkpt lat="37.088586" lon="-79.597887">
        <ele>269.656085</ele>
        <time>2025-04-04T09:45:31.000Z</time>
      </trkpt>
      <trkpt lat="37.089126" lon="-79.597129">
        <ele>272.698027</ele>
        <time>2025-04-04T09:45:40.000Z</time>
      </trkpt>
      <trkpt lat="37.08957" lon="-79.596381">
        <ele>274.646642</ele>
        <time>2025-04-04T09:45:48.000Z</time>
      </trkpt>
      <trkpt lat="37.089749" lon="-79.596065">
        <ele>275.438191</ele>
        <time>2025-04-04T09:45:51.000Z</time>
      </trkpt>
      <trkpt lat="37.089812" lon="-79.595923">
        <ele>275.795596</ele>
        <time>2025-04-04T09:45:52.000Z</time>
      </trkpt>
      <trkpt lat="37.090174" lon="-79.595292">
        <ele>277.390065</ele>
        <time>2025-04-04T09:45:59.000Z</time>
      </trkpt>
      <trkpt lat="37.0911" lon="-79.593644">
        <ele>277.626449</ele>
        <time>2025-04-04T09:46:17.000Z</time>
      </trkpt>
      <trkpt lat="37.091416" lon="-79.593144">
        <ele>277.12581</ele>
        <time>2025-04-04T09:46:23.000Z</time>
      </trkpt>
      <trkpt lat="37.091525" lon="-79.59343">
        <ele>276.711375</ele>
        <time>2025-04-04T09:46:26.000Z</time>
      </trkpt>
      <trkpt lat="37.092186" lon="-79.595279">
        <ele>273.878351</ele>
        <time>2025-04-04T09:46:44.000Z</time>
      </trkpt>
      <trkpt lat="37.093356" lon="-79.59866">
        <ele>266.755757</ele>
        <time>2025-04-04T09:47:17.000Z</time>
      </trkpt>
      <trkpt lat="37.093988" lon="-79.600386">
        <ele>261.489645</ele>
        <time>2025-04-04T09:47:34.000Z</time>
      </trkpt>
      <trkpt lat="37.094093" lon="-79.600671">
        <ele>260.574382</ele>
        <time>2025-04-04T09:47:37.000Z</time>
      </trkpt>
      <trkpt lat="37.094385" lon="-79.601482">
        <ele>258.75976</ele>
        <time>2025-04-04T09:47:45.000Z</time>
      </trkpt>
      <trkpt lat="37.094629" lon="-79.601902">
        <ele>258.069674</ele>
        <time>2025-04-04T09:47:50.000Z</time>
      </trkpt>
      <trkpt lat="37.094932" lon="-79.602212">
        <ele>257.371627</ele>
        <time>2025-04-04T09:47:54.000Z</time>
      </trkpt>
      <trkpt lat="37.095869" lon="-79.602945">
        <ele>255.44909</ele>
        <time>2025-04-04T09:48:06.000Z</time>
      </trkpt>
      <trkpt lat="37.096065" lon="-79.603138">
        <ele>255.024779</ele>
        <time>2025-04-04T09:48:09.000Z</time>
      </trkpt>
      <trkpt lat="37.09696" lon="-79.604266">
        <ele>252.934713</ele>
        <time>2025-04-04T09:48:23.000Z</time>
      </trkpt>
      <trkpt lat="37.097078" lon="-79.604433">
        <ele>252.705005</ele>
        <time>2025-04-04T09:48:25.000Z</time>
      </trkpt>
      <trkpt lat="37.097219" lon="-79.604785">
        <ele>252.310559</ele>
        <time>2025-04-04T09:48:28.000Z</time>
      </trkpt>
      <trkpt lat="37.097319" lon="-79.605104">
        <ele>251.956656</ele>
        <time>2025-04-04T09:48:31.000Z</time>
      </trkpt>
      <trkpt lat="37.097353" lon="-79.605481">
        <ele>251.58212</ele>
        <time>2025-04-04T09:48:34.000Z</time>
      </trkpt>
      <trkpt lat="37.097216" lon="-79.607923">
        <ele>252.216627</ele>
        <time>2025-04-04T09:48:56.000Z</time>
      </trkpt>
      <trkpt lat="37.097113" lon="-79.608383">
        <ele>252.551767</ele>
        <time>2025-04-04T09:49:00.000Z</time>
      </trkpt>
      <trkpt lat="37.097016" lon="-79.608627">
        <ele>252.73873</ele>
        <time>2025-04-04T09:49:02.000Z</time>
      </trkpt>
      <trkpt lat="37.096858" lon="-79.608858">
        <ele>252.967699</ele>
        <time>2025-04-04T09:49:05.000Z</time>
      </trkpt>
      <trkpt lat="37.096712" lon="-79.609018">
        <ele>253.154285</ele>
        <time>2025-04-04T09:49:07.000Z</time>
      </trkpt>
      <trkpt lat="37.096665" lon="-79.609038">
        <ele>253.190905</ele>
        <time>2025-04-04T09:49:08.000Z</time>
      </trkpt>
      <trkpt lat="37.096412" lon="-79.609212">
        <ele>253.467884</ele>
        <time>2025-04-04T09:49:11.000Z</time>
      </trkpt>
      <trkpt lat="37.096154" lon="-79.609403">
        <ele>253.75199</ele>
        <time>2025-04-04T09:49:14.000Z</time>
      </trkpt>
      <trkpt lat="37.096" lon="-79.609496">
        <ele>253.898891</ele>
        <time>2025-04-04T09:49:16.000Z</time>
      </trkpt>
      <trkpt lat="37.095786" lon="-79.60986">
        <ele>254.173211</ele>
        <time>2025-04-04T09:49:20.000Z</time>
      </trkpt>
      <trkpt lat="37.095732" lon="-79.609932">
        <ele>254.173216</ele>
        <time>2025-04-04T09:49:21.000Z</time>
      </trkpt>
      <trkpt lat="37.095676" lon="-79.609932">
        <ele>254.173217</ele>
        <time>2025-04-04T09:49:22.000Z</time>
      </trkpt>
      <trkpt lat="37.095632" lon="-79.610053">
        <ele>254.173216</ele>
        <time>2025-04-04T09:49:23.000Z</time>
      </trkpt>
      <trkpt lat="37.09558" lon="-79.610087">
        <ele>254.173212</ele>
        <time>2025-04-04T09:49:24.000Z</time>
      </trkpt>
      <trkpt lat="37.095085" lon="-79.610383">
        <ele>254.173216</ele>
        <time>2025-04-04T09:49:30.000Z</time>
      </trkpt>
      <trkpt lat="37.09508" lon="-79.610377">
        <ele>254.173204</ele>
        <time>2025-04-04T09:49:30.000Z</time>
      </trkpt>
      <trkpt lat="37.095036" lon="-79.610379">
        <ele>254.173214</ele>
        <time>2025-04-04T09:49:30.000Z</time>
      </trkpt>
      <trkpt lat="37.094981" lon="-79.61034">
        <ele>254.173204</ele>
        <time>2025-04-04T09:49:31.000Z</time>
      </trkpt>
      <trkpt lat="37.094913" lon="-79.610184">
        <ele>254.173219</ele>
        <time>2025-04-04T09:49:33.000Z</time>
      </trkpt>
      <trkpt lat="37.095455" lon="-79.609863">
        <ele>254.173206</ele>
        <time>2025-04-04T09:49:40.000Z</time>
      </trkpt>
      <trkpt lat="37.095495" lon="-79.609851">
        <ele>253.764442</ele>
        <time>2025-04-04T09:49:40.000Z</time>
      </trkpt>
      <trkpt lat="37.095529" lon="-79.609835">
        <ele>253.764444</ele>
        <time>2025-04-04T09:49:40.000Z</time>
      </trkpt>
      <trkpt lat="37.095597" lon="-79.609826">
        <ele>253.764441</ele>
        <time>2025-04-04T09:49:41.000Z</time>
      </trkpt>
      <trkpt lat="37.095615" lon="-79.609767">
        <ele>253.76444</ele>
        <time>2025-04-04T09:49:42.000Z</time>
      </trkpt>
      <trkpt lat="37.095689" lon="-79.609693">
        <ele>253.764447</ele>
        <time>2025-04-04T09:49:43.000Z</time>
      </trkpt>
      <trkpt lat="37.09601" lon="-79.60949">
        <ele>253.76445</ele>
        <time>2025-04-04T09:49:47.000Z</time>
      </trkpt>
      <trkpt lat="37.096145" lon="-79.609408">
        <ele>253.764452</ele>
        <time>2025-04-04T09:49:49.000Z</time>
      </trkpt>
      <trkpt lat="37.096414" lon="-79.609228">
        <ele>253.577016</ele>
        <time>2025-04-04T09:49:52.000Z</time>
      </trkpt>
      <trkpt lat="37.096678" lon="-79.60903">
        <ele>253.258509</ele>
        <time>2025-04-04T09:49:55.000Z</time>
      </trkpt>
      <trkpt lat="37.096701" lon="-79.609011">
        <ele>253.216379</ele>
        <time>2025-04-04T09:49:55.000Z</time>
      </trkpt>
      <trkpt lat="37.096859" lon="-79.608849">
        <ele>253.001846</ele>
        <time>2025-04-04T09:49:57.000Z</time>
      </trkpt>
      <trkpt lat="37.097024" lon="-79.608611">
        <ele>252.73853</ele>
        <time>2025-04-04T09:50:00.000Z</time>
      </trkpt>
      <trkpt lat="37.097112" lon="-79.608394">
        <ele>252.523547</ele>
        <time>2025-04-04T09:50:02.000Z</time>
      </trkpt>
      <trkpt lat="37.097209" lon="-79.607914">
        <ele>252.109418</ele>
        <time>2025-04-04T09:50:06.000Z</time>
      </trkpt>
      <trkpt lat="37.097337" lon="-79.605483">
        <ele>251.212166</ele>
        <time>2025-04-04T09:50:28.000Z</time>
      </trkpt>
      <trkpt lat="37.097306" lon="-79.605109">
        <ele>251.532121</ele>
        <time>2025-04-04T09:50:31.000Z</time>
      </trkpt>
      <trkpt lat="37.097232" lon="-79.604771">
        <ele>252.028116</ele>
        <time>2025-04-04T09:50:34.000Z</time>
      </trkpt>
      <trkpt lat="37.097082" lon="-79.604444">
        <ele>252.580939</ele>
        <time>2025-04-04T09:50:37.000Z</time>
      </trkpt>
      <trkpt lat="37.09697" lon="-79.604257">
        <ele>252.902862</ele>
        <time>2025-04-04T09:50:39.000Z</time>
      </trkpt>
      <trkpt lat="37.096067" lon="-79.603134">
        <ele>255.079635</ele>
        <time>2025-04-04T09:50:53.000Z</time>
      </trkpt>
      <trkpt lat="37.095881" lon="-79.60294">
        <ele>255.472649</ele>
        <time>2025-04-04T09:50:56.000Z</time>
      </trkpt>
      <trkpt lat="37.094928" lon="-79.602214">
        <ele>257.255532</ele>
        <time>2025-04-04T09:51:08.000Z</time>
      </trkpt>
      <trkpt lat="37.094619" lon="-79.601896">
        <ele>258.144151</ele>
        <time>2025-04-04T09:51:12.000Z</time>
      </trkpt>
      <trkpt lat="37.094382" lon="-79.601494">
        <ele>259.025719</ele>
        <time>2025-04-04T09:51:16.000Z</time>
      </trkpt>
      <trkpt lat="37.094098" lon="-79.600678">
        <ele>260.61451</ele>
        <time>2025-04-04T09:51:24.000Z</time>
      </trkpt>
      <trkpt lat="37.093992" lon="-79.600388">
        <ele>261.168884</ele>
        <time>2025-04-04T09:51:27.000Z</time>
      </trkpt>
      <trkpt lat="37.093365" lon="-79.598657">
        <ele>266.773463</ele>
        <time>2025-04-04T09:51:44.000Z</time>
      </trkpt>
      <trkpt lat="37.092177" lon="-79.595269">
        <ele>273.865119</ele>
        <time>2025-04-04T09:52:17.000Z</time>
      </trkpt>
      <trkpt lat="37.091518" lon="-79.593427">
        <ele>276.617766</ele>
        <time>2025-04-04T09:52:35.000Z</time>
      </trkpt>
      <trkpt lat="37.091411" lon="-79.593153">
        <ele>276.889126</ele>
        <time>2025-04-04T09:52:38.000Z</time>
      </trkpt>
      <trkpt lat="37.091105" lon="-79.593649">
        <ele>277.430219</ele>
        <time>2025-04-04T09:52:44.000Z</time>
      </trkpt>
      <trkpt lat="37.090175" lon="-79.595298">
        <ele>276.958586</ele>
        <time>2025-04-04T09:53:02.000Z</time>
      </trkpt>
      <trkpt lat="37.089824" lon="-79.595934">
        <ele>276.432595</ele>
        <time>2025-04-04T09:53:09.000Z</time>
      </trkpt>
      <trkpt lat="37.089744" lon="-79.596067">
        <ele>275.954347</ele>
        <time>2025-04-04T09:53:10.000Z</time>
      </trkpt>
      <trkpt lat="37.089562" lon="-79.596375">
        <ele>274.895163</ele>
        <time>2025-04-04T09:53:13.000Z</time>
      </trkpt>
      <trkpt lat="37.08913" lon="-79.597138">
        <ele>272.287659</ele>
        <time>2025-04-04T09:53:21.000Z</time>
      </trkpt>
      <trkpt lat="37.08859" lon="-79.597888">
        <ele>269.551804</ele>
        <time>2025-04-04T09:53:30.000Z</time>
      </trkpt>
      <trkpt lat="37.088271" lon="-79.598212">
        <ele>268.241925</ele>
        <time>2025-04-04T09:53:35.000Z</time>
      </trkpt>
      <trkpt lat="37.087761" lon="-79.598602">
        <ele>266.390516</ele>
        <time>2025-04-04T09:53:42.000Z</time>
      </trkpt>
      <trkpt lat="37.087286" lon="-79.598921">
        <ele>264.686857</ele>
        <time>2025-04-04T09:53:48.000Z</time>
      </trkpt>
      <trkpt lat="37.08697" lon="-79.599252">
        <ele>263.894041</ele>
        <time>2025-04-04T09:53:53.000Z</time>
      </trkpt>
      <trkpt lat="37.086905" lon="-79.599367">
        <ele>263.691888</ele>
        <time>2025-04-04T09:53:54.000Z</time>
      </trkpt>
      <trkpt lat="37.086759" lon="-79.599711">
        <ele>263.13728</ele>
        <time>2025-04-04T09:53:57.000Z</time>
      </trkpt>
      <trkpt lat="37.086003" lon="-79.602012">
        <ele>260.16584</ele>
        <time>2025-04-04T09:54:19.000Z</time>
      </trkpt>
      <trkpt lat="37.085828" lon="-79.602451">
        <ele>259.700798</ele>
        <time>2025-04-04T09:54:23.000Z</time>
      </trkpt>
      <trkpt lat="37.085662" lon="-79.602719">
        <ele>259.385277</ele>
        <time>2025-04-04T09:54:26.000Z</time>
      </trkpt>
      <trkpt lat="37.085437" lon="-79.602978">
        <ele>259.251185</ele>
        <time>2025-04-04T09:54:29.000Z</time>
      </trkpt>
      <trkpt lat="37.085178" lon="-79.603171">
        <ele>259.344368</ele>
        <time>2025-04-04T09:54:32.000Z</time>
      </trkpt>
      <trkpt lat="37.083915" lon="-79.603634">
        <ele>259.759095</ele>
        <time>2025-04-04T09:54:47.000Z</time>
      </trkpt>
      <trkpt lat="37.083611" lon="-79.603819">
        <ele>259.564763</ele>
        <time>2025-04-04T09:54:51.000Z</time>
      </trkpt>
      <trkpt lat="37.083368" lon="-79.604107">
        <ele>259.35718</ele>
        <time>2025-04-04T09:54:55.000Z</time>
      </trkpt>
      <trkpt lat="37.083198" lon="-79.604424">
        <ele>259.164797</ele>
        <time>2025-04-04T09:54:58.000Z</time>
      </trkpt>
      <trkpt lat="37.083117" lon="-79.604708">
        <ele>259.017366</ele>
        <time>2025-04-04T09:55:01.000Z</time>
      </trkpt>
      <trkpt lat="37.08296" lon="-79.606616">
        <ele>258.729054</ele>
        <time>2025-04-04T09:55:18.000Z</time>
      </trkpt>
      <trkpt lat="37.082879" lon="-79.60696">
        <ele>258.758286</ele>
        <time>2025-04-04T09:55:21.000Z</time>
      </trkpt>
      <trkpt lat="37.082808" lon="-79.607142">
        <ele>258.775837</ele>
        <time>2025-04-04T09:55:23.000Z</time>
      </trkpt>
      <trkpt lat="37.082613" lon="-79.607471">
        <ele>258.810193</ele>
        <time>2025-04-04T09:55:27.000Z</time>
      </trkpt>
      <trkpt lat="37.082451" lon="-79.607639">
        <ele>258.519651</ele>
        <time>2025-04-04T09:55:29.000Z</time>
      </trkpt>
      <trkpt lat="37.082145" lon="-79.607806">
        <ele>257.683874</ele>
        <time>2025-04-04T09:55:33.000Z</time>
      </trkpt>
      <trkpt lat="37.081583" lon="-79.608034">
        <ele>256.178355</ele>
        <time>2025-04-04T09:55:40.000Z</time>
      </trkpt>
      <trkpt lat="37.081294" lon="-79.608209">
        <ele>255.390745</ele>
        <time>2025-04-04T09:55:44.000Z</time>
      </trkpt>
      <trkpt lat="37.080938" lon="-79.608517">
        <ele>254.25633</ele>
        <time>2025-04-04T09:55:49.000Z</time>
      </trkpt>
      <trkpt lat="37.080347" lon="-79.609077">
        <ele>251.35434</ele>
        <time>2025-04-04T09:55:57.000Z</time>
      </trkpt>
      <trkpt lat="37.080147" lon="-79.609337">
        <ele>250.159836</ele>
        <time>2025-04-04T09:56:00.000Z</time>
      </trkpt>
      <trkpt lat="37.080089" lon="-79.609441">
        <ele>249.792374</ele>
        <time>2025-04-04T09:56:01.000Z</time>
      </trkpt>
      <trkpt lat="37.080035" lon="-79.60965">
        <ele>249.068385</ele>
        <time>2025-04-04T09:56:03.000Z</time>
      </trkpt>
      <trkpt lat="37.080031" lon="-79.609834">
        <ele>248.487178</ele>
        <time>2025-04-04T09:56:05.000Z</time>
      </trkpt>
      <trkpt lat="37.080059" lon="-79.610272">
        <ele>247.08274</ele>
        <time>2025-04-04T09:56:09.000Z</time>
      </trkpt>
      <trkpt lat="37.080019" lon="-79.610441">
        <ele>247.025905</ele>
        <time>2025-04-04T09:56:11.000Z</time>
      </trkpt>
      <trkpt lat="37.079982" lon="-79.610517">
        <ele>246.999468</ele>
        <time>2025-04-04T09:56:12.000Z</time>
      </trkpt>
      <trkpt lat="37.079739" lon="-79.610776">
        <ele>246.868127</ele>
        <time>2025-04-04T09:56:16.000Z</time>
      </trkpt>
      <trkpt lat="37.079653" lon="-79.610889">
        <ele>246.814846</ele>
        <time>2025-04-04T09:56:17.000Z</time>
      </trkpt>
      <trkpt lat="37.07954" lon="-79.611188">
        <ele>246.71082</ele>
        <time>2025-04-04T09:56:20.000Z</time>
      </trkpt>
      <trkpt lat="37.079459" lon="-79.611532">
        <ele>246.599266</ele>
        <time>2025-04-04T09:56:23.000Z</time>
      </trkpt>
      <trkpt lat="37.079364" lon="-79.61169">
        <ele>246.536542</ele>
        <time>2025-04-04T09:56:25.000Z</time>
      </trkpt>
      <trkpt lat="37.079174" lon="-79.61185">
        <ele>246.445653</ele>
        <time>2025-04-04T09:56:28.000Z</time>
      </trkpt>
      <trkpt lat="37.07877" lon="-79.611988">
        <ele>246.664017</ele>
        <time>2025-04-04T09:56:33.000Z</time>
      </trkpt>
      <trkpt lat="37.078659" lon="-79.612062">
        <ele>246.858289</ele>
        <time>2025-04-04T09:56:34.000Z</time>
      </trkpt>
      <trkpt lat="37.078577" lon="-79.612145">
        <ele>247.013464</ele>
        <time>2025-04-04T09:56:35.000Z</time>
      </trkpt>
      <trkpt lat="37.078529" lon="-79.612248">
        <ele>247.16757</ele>
        <time>2025-04-04T09:56:36.000Z</time>
      </trkpt>
      <trkpt lat="37.078475" lon="-79.612436">
        <ele>247.396611</ele>
        <time>2025-04-04T09:56:38.000Z</time>
      </trkpt>
      <trkpt lat="37.07847" lon="-79.612627">
        <ele>247.626729</ele>
        <time>2025-04-04T09:56:40.000Z</time>
      </trkpt>
      <trkpt lat="37.078587" lon="-79.613026">
        <ele>248.130407</ele>
        <time>2025-04-04T09:56:44.000Z</time>
      </trkpt>
      <trkpt lat="37.078683" lon="-79.613363">
        <ele>248.559581</ele>
        <time>2025-04-04T09:56:47.000Z</time>
      </trkpt>
      <trkpt lat="37.078828" lon="-79.613704">
        <ele>249.018175</ele>
        <time>2025-04-04T09:56:50.000Z</time>
      </trkpt>
      <trkpt lat="37.079079" lon="-79.614106">
        <ele>249.206655</ele>
        <time>2025-04-04T09:56:55.000Z</time>
      </trkpt>
      <trkpt lat="37.079218" lon="-79.61446">
        <ele>249.329322</ele>
        <time>2025-04-04T09:56:59.000Z</time>
      </trkpt>
      <trkpt lat="37.079289" lon="-79.614825">
        <ele>249.450242</ele>
        <time>2025-04-04T09:57:02.000Z</time>
      </trkpt>
      <trkpt lat="37.079296" lon="-79.615073">
        <ele>249.529663</ele>
        <time>2025-04-04T09:57:04.000Z</time>
      </trkpt>
      <trkpt lat="37.079293" lon="-79.615247">
        <ele>249.583365</ele>
        <time>2025-04-04T09:57:06.000Z</time>
      </trkpt>
      <trkpt lat="37.079256" lon="-79.615401">
        <ele>249.636353</ele>
        <time>2025-04-04T09:57:07.000Z</time>
      </trkpt>
      <trkpt lat="37.079212" lon="-79.615452">
        <ele>249.65608</ele>
        <time>2025-04-04T09:57:08.000Z</time>
      </trkpt>
      <trkpt lat="37.079245" lon="-79.6154">
        <ele>249.675813</ele>
        <time>2025-04-04T09:57:09.000Z</time>
      </trkpt>
      <trkpt lat="37.079285" lon="-79.615243">
        <ele>249.728802</ele>
        <time>2025-04-04T09:57:10.000Z</time>
      </trkpt>
      <trkpt lat="37.079285" lon="-79.615077">
        <ele>249.752632</ele>
        <time>2025-04-04T09:57:11.000Z</time>
      </trkpt>
      <trkpt lat="37.079275" lon="-79.614828">
        <ele>249.5832</ele>
        <time>2025-04-04T09:57:13.000Z</time>
      </trkpt>
      <trkpt lat="37.079208" lon="-79.614452">
        <ele>249.325308</ele>
        <time>2025-04-04T09:57:16.000Z</time>
      </trkpt>
      <trkpt lat="37.079077" lon="-79.614116">
        <ele>249.063665</ele>
        <time>2025-04-04T09:57:19.000Z</time>
      </trkpt>
      <trkpt lat="37.078821" lon="-79.613714">
        <ele>248.715105</ele>
        <time>2025-04-04T09:57:24.000Z</time>
      </trkpt>
      <trkpt lat="37.078692" lon="-79.613372">
        <ele>248.452922</ele>
        <time>2025-04-04T09:57:27.000Z</time>
      </trkpt>
      <trkpt lat="37.078577" lon="-79.613028">
        <ele>248.195204</ele>
        <time>2025-04-04T09:57:30.000Z</time>
      </trkpt>
      <trkpt lat="37.078482" lon="-79.612629">
        <ele>247.782788</ele>
        <time>2025-04-04T09:57:34.000Z</time>
      </trkpt>
      <trkpt lat="37.078471" lon="-79.61244">
        <ele>247.594343</ele>
        <time>2025-04-04T09:57:36.000Z</time>
      </trkpt>
      <trkpt lat="37.078525" lon="-79.612244">
        <ele>247.406804</ele>
        <time>2025-04-04T09:57:38.000Z</time>
      </trkpt>
      <trkpt lat="37.078583" lon="-79.612153">
        <ele>247.280618</ele>
        <time>2025-04-04T09:57:39.000Z</time>
      </trkpt>
      <trkpt lat="37.078658" lon="-79.612049">
        <ele>247.153551</ele>
        <time>2025-04-04T09:57:40.000Z</time>
      </trkpt>
      <trkpt lat="37.078784" lon="-79.611995">
        <ele>246.994476</ele>
        <time>2025-04-04T09:57:41.000Z</time>
      </trkpt>
      <trkpt lat="37.079163" lon="-79.611851">
        <ele>246.498142</ele>
        <time>2025-04-04T09:57:45.000Z</time>
      </trkpt>
      <trkpt lat="37.079364" lon="-79.611693">
        <ele>246.218032</ele>
        <time>2025-04-04T09:57:48.000Z</time>
      </trkpt>
      <trkpt lat="37.079452" lon="-79.61154">
        <ele>246.046845</ele>
        <time>2025-04-04T09:57:50.000Z</time>
      </trkpt>
      <trkpt lat="37.079532" lon="-79.611195">
        <ele>246.448914</ele>
        <time>2025-04-04T09:57:53.000Z</time>
      </trkpt>
      <trkpt lat="37.079638" lon="-79.610902">
        <ele>246.823837</ele>
        <time>2025-04-04T09:57:56.000Z</time>
      </trkpt>
      <trkpt lat="37.079736" lon="-79.610778">
        <ele>247.015913</ele>
        <time>2025-04-04T09:57:58.000Z</time>
      </trkpt>
      <trkpt lat="37.079992" lon="-79.610518">
        <ele>247.489324</ele>
        <time>2025-04-04T09:58:02.000Z</time>
      </trkpt>
      <trkpt lat="37.080026" lon="-79.610445">
        <ele>247.584629</ele>
        <time>2025-04-04T09:58:03.000Z</time>
      </trkpt>
      <trkpt lat="37.080065" lon="-79.610267">
        <ele>247.775639</ele>
        <time>2025-04-04T09:58:05.000Z</time>
      </trkpt>
      <trkpt lat="37.080016" lon="-79.609844">
        <ele>248.279011</ele>
        <time>2025-04-04T09:58:09.000Z</time>
      </trkpt>
      <trkpt lat="37.080026" lon="-79.609657">
        <ele>248.487311</ele>
        <time>2025-04-04T09:58:11.000Z</time>
      </trkpt>
      <trkpt lat="37.080098" lon="-79.609436">
        <ele>249.055077</ele>
        <time>2025-04-04T09:58:13.000Z</time>
      </trkpt>
      <trkpt lat="37.08015" lon="-79.609353">
        <ele>249.481983</ele>
        <time>2025-04-04T09:58:14.000Z</time>
      </trkpt>
      <trkpt lat="37.080354" lon="-79.609082">
        <ele>250.86975</ele>
        <time>2025-04-04T09:58:17.000Z</time>
      </trkpt>
      <trkpt lat="37.080939" lon="-79.608526">
        <ele>254.241265</ele>
        <time>2025-04-04T09:58:25.000Z</time>
      </trkpt>
      <trkpt lat="37.081292" lon="-79.608196">
        <ele>256.314652</ele>
        <time>2025-04-04T09:58:30.000Z</time>
      </trkpt>
      <trkpt lat="37.081581" lon="-79.608028">
        <ele>257.104566</ele>
        <time>2025-04-04T09:58:34.000Z</time>
      </trkpt>
      <trkpt lat="37.082144" lon="-79.607802">
        <ele>257.62148</ele>
        <time>2025-04-04T09:58:41.000Z</time>
      </trkpt>
      <trkpt lat="37.082441" lon="-79.607642">
        <ele>257.908446</ele>
        <time>2025-04-04T09:58:45.000Z</time>
      </trkpt>
      <trkpt lat="37.082606" lon="-79.607475">
        <ele>258.092462</ele>
        <time>2025-04-04T09:58:47.000Z</time>
      </trkpt>
      <trkpt lat="37.082811" lon="-79.607149">
        <ele>258.381308</ele>
        <time>2025-04-04T09:58:51.000Z</time>
      </trkpt>
      <trkpt lat="37.082881" lon="-79.606943">
        <ele>258.523104</ele>
        <time>2025-04-04T09:58:53.000Z</time>
      </trkpt>
      <trkpt lat="37.082961" lon="-79.60661">
        <ele>258.620541</ele>
        <time>2025-04-04T09:58:56.000Z</time>
      </trkpt>
      <trkpt lat="37.083115" lon="-79.604696">
        <ele>259.146665</ele>
        <time>2025-04-04T09:59:13.000Z</time>
      </trkpt>
      <trkpt lat="37.08319" lon="-79.604426">
        <ele>259.211073</ele>
        <time>2025-04-04T09:59:16.000Z</time>
      </trkpt>
      <trkpt lat="37.083365" lon="-79.604107">
        <ele>259.295111</ele>
        <time>2025-04-04T09:59:19.000Z</time>
      </trkpt>
      <trkpt lat="37.083603" lon="-79.60383">
        <ele>259.385777</ele>
        <time>2025-04-04T09:59:23.000Z</time>
      </trkpt>
      <trkpt lat="37.08391" lon="-79.603635">
        <ele>259.47988</ele>
        <time>2025-04-04T09:59:27.000Z</time>
      </trkpt>
      <trkpt lat="37.085191" lon="-79.603175">
        <ele>259.568608</ele>
        <time>2025-04-04T09:59:42.000Z</time>
      </trkpt>
      <trkpt lat="37.085448" lon="-79.602981">
        <ele>259.543053</ele>
        <time>2025-04-04T09:59:45.000Z</time>
      </trkpt>
      <trkpt lat="37.085674" lon="-79.602709">
        <ele>259.516799</ele>
        <time>2025-04-04T09:59:48.000Z</time>
      </trkpt>
      <trkpt lat="37.085836" lon="-79.602444">
        <ele>259.494055</ele>
        <time>2025-04-04T09:59:51.000Z</time>
      </trkpt>
      <trkpt lat="37.086014" lon="-79.602018">
        <ele>259.853021</ele>
        <time>2025-04-04T09:59:55.000Z</time>
      </trkpt>
      <trkpt lat="37.086764" lon="-79.599706">
        <ele>263.244345</ele>
        <time>2025-04-04T10:00:17.000Z</time>
      </trkpt>
      <trkpt lat="37.086905" lon="-79.599366">
        <ele>263.828861</ele>
        <time>2025-04-04T10:00:20.000Z</time>
      </trkpt>
      <trkpt lat="37.086962" lon="-79.599263">
        <ele>264.041911</ele>
        <time>2025-04-04T10:00:21.000Z</time>
      </trkpt>
      <trkpt lat="37.087289" lon="-79.598934">
        <ele>264.830697</ele>
        <time>2025-04-04T10:00:26.000Z</time>
      </trkpt>
      <trkpt lat="37.08776" lon="-79.598593">
        <ele>265.859763</ele>
        <time>2025-04-04T10:00:32.000Z</time>
      </trkpt>
      <trkpt lat="37.088263" lon="-79.598211">
        <ele>268.076724</ele>
        <time>2025-04-04T10:00:39.000Z</time>
      </trkpt>
      <trkpt lat="37.088592" lon="-79.597888">
        <ele>269.656082</ele>
        <time>2025-04-04T10:00:44.000Z</time>
      </trkpt>
      <trkpt lat="37.089121" lon="-79.597137">
        <ele>272.698029</ele>
        <time>2025-04-04T10:00:53.000Z</time>
      </trkpt>
      <trkpt lat="37.089573" lon="-79.596368">
        <ele>274.646652</ele>
        <time>2025-04-04T10:01:01.000Z</time>
      </trkpt>
      <trkpt lat="37.089747" lon="-79.596074">
        <ele>275.438191</ele>
        <time>2025-04-04T10:01:04.000Z</time>
      </trkpt>
      <trkpt lat="37.089819" lon="-79.595933">
        <ele>275.795593</ele>
        <time>2025-04-04T10:01:05.000Z</time>
      </trkpt>
      <trkpt lat="37.090168" lon="-79.595307">
        <ele>277.390056</ele>
        <time>2025-04-04T10:01:12.000Z</time>
      </trkpt>
      <trkpt lat="37.091108" lon="-79.593637">
        <ele>277.626462</ele>
        <time>2025-04-04T10:01:30.000Z</time>
      </trkpt>
      <trkpt lat="37.091423" lon="-79.593139">
        <ele>277.125809</ele>
        <time>2025-04-04T10:01:36.000Z</time>
      </trkpt>
      <trkpt lat="37.091519" lon="-79.593441">
        <ele>276.711373</ele>
        <time>2025-04-04T10:01:39.000Z</time>
      </trkpt>
      <trkpt lat="37.092178" lon="-79.595274">
        <ele>273.878353</ele>
        <time>2025-04-04T10:01:57.000Z</time>
      </trkpt>
      <trkpt lat="37.093353" lon="-79.598665">
        <ele>266.755753</ele>
        <time>2025-04-04T10:02:30.000Z</time>
      </trkpt>
      <trkpt lat="37.094003" lon="-79.600386">
        <ele>261.489634</ele>
        <time>2025-04-04T10:02:47.000Z</time>
      </trkpt>
      <trkpt lat="37.09409" lon="-79.600672">
        <ele>260.57439</ele>
        <time>2025-04-04T10:02:50.000Z</time>
      </trkpt>
      <trkpt lat="37.094391" lon="-79.60148">
        <ele>258.759773</ele>
        <time>2025-04-04T10:02:58.000Z</time>
      </trkpt>
      <trkpt lat="37.094628" lon="-79.601892">
        <ele>258.069672</ele>
        <time>2025-04-04T10:03:03.000Z</time>
      </trkpt>
      <trkpt lat="37.094936" lon="-79.602209">
        <ele>257.371638</ele>
        <time>2025-04-04T10:03:07.000Z</time>
      </trkpt>
      <trkpt lat="37.095874" lon="-79.602937">
        <ele>255.449084</ele>
        <time>2025-04-04T10:03:19.000Z</time>
      </trkpt>
      <trkpt lat="37.096076" lon="-79.603134">
        <ele>255.024777</ele>
        <time>2025-04-04T10:03:22.000Z</time>
      </trkpt>
      <trkpt lat="37.096959" lon="-79.604254">
        <ele>252.934711</ele>
        <time>2025-04-04T10:03:36.000Z</time>
      </trkpt>
      <trkpt lat="37.097076" lon="-79.604436">
        <ele>252.705008</ele>
        <time>2025-04-04T10:03:38.000Z</time>
      </trkpt>
      <trkpt lat="37.097231" lon="-79.604775">
        <ele>252.310556</ele>
        <time>2025-04-04T10:03:41.000Z</time>
      </trkpt>
      <trkpt lat="37.097312" lon="-79.60512">
        <ele>251.956659</ele>
        <time>2025-04-04T10:03:44.000Z</time>
      </trkpt>
      <trkpt lat="37.09734" lon="-79.605489">
        <ele>251.582116</ele>
        <time>2025-04-04T10:03:47.000Z</time>
      </trkpt>
      <trkpt lat="37.097211" lon="-79.607922">
        <ele>252.216617</ele>
        <time>2025-04-04T10:04:09.000Z</time>
      </trkpt>
      <trkpt lat="37.097119" lon="-79.608401">
        <ele>252.551765</ele>
        <time>2025-04-04T10:04:13.000Z</time>
      </trkpt>
      <trkpt lat="37.097033" lon="-79.608611">
        <ele>252.738732</ele>
        <time>2025-04-04T10:04:15.000Z</time>
      </trkpt>
      <trkpt lat="37.096857" lon="-79.608865">
        <ele>252.96771</ele>
        <time>2025-04-04T10:04:18.000Z</time>
      </trkpt>
      <trkpt lat="37.096703" lon="-79.609009">
        <ele>253.154277</ele>
        <time>2025-04-04T10:04:20.000Z</time>
      </trkpt>
      <trkpt lat="37.096664" lon="-79.609038">
        <ele>253.19091</ele>
        <time>2025-04-04T10:04:21.000Z</time>
      </trkpt>
      <trkpt lat="37.096414" lon="-79.609214">
        <ele>253.467894</ele>
        <time>2025-04-04T10:04:24.000Z</time>
      </trkpt>
      <trkpt lat="37.096154" lon="-79.609395">
        <ele>253.75198</ele>
        <time>2025-04-04T10:04:27.000Z</time>
      </trkpt>
      <trkpt lat="37.096004" lon="-79.609499">
        <ele>253.898893</ele>
        <time>2025-04-04T10:04:29.000Z</time>
      </trkpt>
      <trkpt lat="37.095785" lon="-79.609873">
        <ele>254.173215</ele>
        <time>2025-04-04T10:04:33.000Z</time>
      </trkpt>
      <trkpt lat="37.095733" lon="-79.609915">
        <ele>254.17322</ele>
        <time>2025-04-04T10:04:34.000Z</time>
      </trkpt>
      <trkpt lat="37.095666" lon="-79.609944">
        <ele>254.173209</ele>
        <time>2025-04-04T10:04:35.000Z</time>
      </trkpt>
      <trkpt lat="37.095621" lon="-79.61006">
        <ele>254.173216</ele>
        <time>2025-04-04T10:04:36.000Z</time>
      </trkpt>
      <trkpt lat="37.095595" lon="-79.610097">
        <ele>254.173207</ele>
        <time>2025-04-04T10:04:36.000Z</time>
      </trkpt>
      <trkpt lat="37.095086" lon="-79.610369">
        <ele>254.173205</ele>
        <time>2025-04-04T10:04:42.000Z</time>
      </trkpt>
      <trkpt lat="37.095076" lon="-79.610382">
        <ele>254.173219</ele>
        <time>2025-04-04T10:04:42.000Z</time>
      </trkpt>
      <trkpt lat="37.095036" lon="-79.610376">
        <ele>254.173213</ele>
        <time>2025-04-04T10:04:42.000Z</time>
      </trkpt>
      <trkpt lat="37.094975" lon="-79.610338">
        <ele>254.173216</ele>
        <time>2025-04-04T10:04:43.000Z</time>
      </trkpt>
      <trkpt lat="37.094907" lon="-79.610186">
        <ele>254.17321</ele>
        <time>2025-04-04T10:04:45.000Z</time>
      </trkpt>
      <trkpt lat="37.095446" lon="-79.60987">
        <ele>254.173215</ele>
        <time>2025-04-04T10:04:52.000Z</time>
      </trkpt>
      <trkpt lat="37.095491" lon="-79.609852">
        <ele>253.76444</ele>
        <time>2025-04-04T10:04:53.000Z</time>
      </trkpt>
      <trkpt lat="37.095513" lon="-79.609835">
        <ele>253.764444</ele>
        <time>2025-04-04T10:04:53.000Z</time>
      </trkpt>
      <trkpt lat="37.095607" lon="-79.609824">
        <ele>253.764446</ele>
        <time>2025-04-04T10:04:54.000Z</time>
      </trkpt>
      <trkpt lat="37.095611" lon="-79.609773">
        <ele>253.764444</ele>
        <time>2025-04-04T10:04:54.000Z</time>
      </trkpt>
      <trkpt lat="37.095675" lon="-79.609703">
        <ele>253.764443</ele>
        <time>2025-04-04T10:04:55.000Z</time>
      </trkpt>
      <trkpt lat="37.096003" lon="-79.609501">
        <ele>253.76445</ele>
        <time>2025-04-04T10:04:59.000Z</time>
      </trkpt>
      <trkpt lat="37.096147" lon="-79.609399">
        <ele>253.764456</ele>
        <time>2025-04-04T10:05:01.000Z</time>
      </trkpt>
      <trkpt lat="37.096413" lon="-79.609216">
        <ele>253.577004</ele>
        <time>2025-04-04T10:05:04.000Z</time>
      </trkpt>
      <trkpt lat="37.096667" lon="-79.60904">
        <ele>253.258519</ele>
        <time>2025-04-04T10:05:07.000Z</time>
      </trkpt>
      <trkpt lat="37.096715" lon="-79.609006">
        <ele>253.216392</ele>
        <time>2025-04-04T10:05:08.000Z</time>
      </trkpt>
      <trkpt lat="37.096871" lon="-79.608857">
        <ele>253.001851</ele>
        <time>2025-04-04T10:05:10.000Z</time>
      </trkpt>
      <trkpt lat="37.097019" lon="-79.608629">
        <ele>252.738537</ele>
        <time>2025-04-04T10:05:13.000Z</time>
      </trkpt>
      <trkpt lat="37.097106" lon="-79.608399">
        <ele>252.523548</ele>
        <time>2025-04-04T10:05:15.000Z</time>
      </trkpt>
      <trkpt lat="37.097218" lon="-79.607931">
        <ele>252.109427</ele>
        <time>2025-04-04T10:05:19.000Z</time>
      </trkpt>
      <trkpt lat="37.097341" lon="-79.605484">
        <ele>251.212169</ele>
        <time>2025-04-04T10:05:41.000Z</time>
      </trkpt>
      <trkpt lat="37.097319" lon="-79.605102">
        <ele>251.53211</ele>
        <time>2025-04-04T10:05:44.000Z</time>
      </trkpt>
      <trkpt lat="37.097227" lon="-79.604779">
        <ele>252.028126</ele>
        <time>2025-04-04T10:05:47.000Z</time>
      </trkpt>
      <trkpt lat="37.097069" lon="-79.604429">
        <ele>252.580927</ele>
        <time>2025-04-04T10:05:51.000Z</time>
      </trkpt>
      <trkpt lat="37.096965" lon="-79.604254">
        <ele>252.902873</ele>
        <time>2025-04-04T10:05:53.000Z</time>
      </trkpt>
      <trkpt lat="37.096063" lon="-79.60313">
        <ele>255.079629</ele>
        <time>2025-04-04T10:06:07.000Z</time>
      </trkpt>
      <trkpt lat="37.095887" lon="-79.602934">
        <ele>255.472661</ele>
        <time>2025-04-04T10:06:10.000Z</time>
      </trkpt>
      <trkpt lat="37.094938" lon="-79.602219">
        <ele>257.255536</ele>
        <time>2025-04-04T10:06:22.000Z</time>
      </trkpt>
      <trkpt lat="37.094624" lon="-79.601897">
        <ele>258.144144</ele>
        <time>2025-04-04T10:06:27.000Z</time>
      </trkpt>
      <trkpt lat="37.094388" lon="-79.601495">
        <ele>259.025726</ele>
        <time>2025-04-04T10:06:31.000Z</time>
      </trkpt>
      <trkpt lat="37.094085" lon="-79.600664">
        <ele>260.614505</ele>
        <time>2025-04-04T10:06:39.000Z</time>
      </trkpt>
      <trkpt lat="37.093987" lon="-79.600375">
        <ele>261.168871</ele>
        <time>2025-04-04T10:06:42.000Z</time>
      </trkpt>
      <trkpt lat="37.093361" lon="-79.598664">
        <ele>266.773471</ele>
        <time>2025-04-04T10:06:59.000Z</time>
      </trkpt>
      <trkpt lat="37.09218" lon="-79.595266">
        <ele>273.865114</ele>
        <time>2025-04-04T10:07:32.000Z</time>
      </trkpt>
      <trkpt lat="37.091515" lon="-79.593434">
        <ele>276.617763</ele>
        <time>2025-04-04T10:07:50.000Z</time>
      </trkpt>
      <trkpt lat="37.091409" lon="-79.593144">
        <ele>276.889133</ele>
        <time>2025-04-04T10:07:53.000Z</time>
      </trkpt>
      <trkpt lat="37.091109" lon="-79.593634">
        <ele>277.430229</ele>
        <time>2025-04-04T10:07:58.000Z</time>
      </trkpt>
      <trkpt lat="37.090182" lon="-79.595303">
        <ele>276.958576</ele>
        <time>2025-04-04T10:08:16.000Z</time>
      </trkpt>
      <trkpt lat="37.089827" lon="-79.595932">
        <ele>276.432609</ele>
        <time>2025-04-04T10:08:23.000Z</time>
      </trkpt>
      <trkpt lat="37.089735" lon="-79.596072">
        <ele>275.954344</ele>
        <time>2025-04-04T10:08:25.000Z</time>
      </trkpt>
      <trkpt lat="37.089569" lon="-79.596365">
        <ele>274.895171</ele>
        <time>2025-04-04T10:08:28.000Z</time>
      </trkpt>
      <trkpt lat="37.089132" lon="-79.597125">
        <ele>272.287661</ele>
        <time>2025-04-04T10:08:36.000Z</time>
      </trkpt>
      <trkpt lat="37.088602" lon="-79.597887">
        <ele>269.551817</ele>
        <time>2025-04-04T10:08:45.000Z</time>
      </trkpt>
      <trkpt lat="37.088267" lon="-79.598222">
        <ele>268.241914</ele>
        <time>2025-04-04T10:08:50.000Z</time>
      </trkpt>
      <trkpt lat="37.087776" lon="-79.598598">
        <ele>266.390516</ele>
        <time>2025-04-04T10:08:56.000Z</time>
      </trkpt>
      <trkpt lat="37.087294" lon="-79.598925">
        <ele>264.686862</ele>
        <time>2025-04-04T10:09:02.000Z</time>
      </trkpt>
      <trkpt lat="37.08698" lon="-79.599251">
        <ele>263.894037</ele>
        <time>2025-04-04T10:09:07.000Z</time>
      </trkpt>
      <trkpt lat="37.086911" lon="-79.599373">
        <ele>263.691875</ele>
        <time>2025-04-04T10:09:08.000Z</time>
      </trkpt>
      <trkpt lat="37.086752" lon="-79.599715">
        <ele>263.137284</ele>
        <time>2025-04-04T10:09:12.000Z</time>
      </trkpt>
      <trkpt lat="37.086011" lon="-79.602026">
        <ele>260.165837</ele>
        <time>2025-04-04T10:09:34.000Z</time>
      </trkpt>
      <trkpt lat="37.085833" lon="-79.602441">
        <ele>259.700794</ele>
        <time>2025-04-04T10:09:38.000Z</time>
      </trkpt>
      <trkpt lat="37.085671" lon="-79.602704">
        <ele>259.385283</ele>
        <time>2025-04-04T10:09:41.000Z</time>
      </trkpt>
      <trkpt lat="37.085441" lon="-79.602981">
        <ele>259.251169</ele>
        <time>2025-04-04T10:09:45.000Z</time>
      </trkpt>
      <trkpt lat="37.085178" lon="-79.603169">
        <ele>259.344376</ele>
        <time>2025-04-04T10:09:48.000Z</time>
      </trkpt>
      <trkpt lat="37.083922" lon="-79.603639">
        <ele>259.759099</ele>
        <time>2025-04-04T10:10:03.000Z</time>
      </trkpt>
      <trkpt lat="37.083615" lon="-79.603833">
        <ele>259.56476</ele>
        <time>2025-04-04T10:10:07.000Z</time>
      </trkpt>
      <trkpt lat="37.083375" lon="-79.604121">
        <ele>259.357173</ele>
        <time>2025-04-04T10:10:11.000Z</time>
      </trkpt>
      <trkpt lat="37.083203" lon="-79.604428">
        <ele>259.164801</ele>
        <time>2025-04-04T10:10:14.000Z</time>
      </trkpt>
      <trkpt lat="37.083112" lon="-79.604695">
        <ele>259.01736</ele>
        <time>2025-04-04T10:10:17.000Z</time>
      </trkpt>
      <trkpt lat="37.082959" lon="-79.606618">
        <ele>258.729053</ele>
        <time>2025-04-04T10:10:34.000Z</time>
      </trkpt>
      <trkpt lat="37.082884" lon="-79.60696">
        <ele>258.75828</ele>
        <time>2025-04-04T10:10:37.000Z</time>
      </trkpt>
      <trkpt lat="37.082814" lon="-79.607147">
        <ele>258.775842</ele>
        <time>2025-04-04T10:10:39.000Z</time>
      </trkpt>
      <trkpt lat="37.082608" lon="-79.607467">
        <ele>258.810191</ele>
        <time>2025-04-04T10:10:43.000Z</time>
      </trkpt>
      <trkpt lat="37.08245" lon="-79.607644">
        <ele>258.519649</ele>
        <time>2025-04-04T10:10:45.000Z</time>
      </trkpt>
      <trkpt lat="37.082138" lon="-79.607796">
        <ele>257.683884</ele>
        <time>2025-04-04T10:10:49.000Z</time>
      </trkpt>
      <trkpt lat="37.081583" lon="-79.608032">
        <ele>256.178355</ele>
        <time>2025-04-04T10:10:56.000Z</time>
      </trkpt>
      <trkpt lat="37.081308" lon="-79.608197">
        <ele>255.390756</ele>
        <time>2025-04-04T10:10:59.000Z</time>
      </trkpt>
      <trkpt lat="37.08094" lon="-79.608524">
        <ele>254.256327</ele>
        <time>2025-04-04T10:11:04.000Z</time>
      </trkpt>
      <trkpt lat="37.080365" lon="-79.609084">
        <ele>251.354348</ele>
        <time>2025-04-04T10:11:12.000Z</time>
      </trkpt>
      <trkpt lat="37.080152" lon="-79.609339">
        <ele>250.159841</ele>
        <time>2025-04-04T10:11:15.000Z</time>
      </trkpt>
      <trkpt lat="37.080097" lon="-79.609432">
        <ele>249.792373</ele>
        <time>2025-04-04T10:11:16.000Z</time>
      </trkpt>
      <trkpt lat="37.080034" lon="-79.609658">
        <ele>249.068378</ele>
        <time>2025-04-04T10:11:18.000Z</time>
      </trkpt>
      <trkpt lat="37.080027" lon="-79.609844">
        <ele>248.487181</ele>
        <time>2025-04-04T10:11:20.000Z</time>
      </trkpt>
      <trkpt lat="37.08006" lon="-79.610277">
        <ele>247.082747</ele>
        <time>2025-04-04T10:11:24.000Z</time>
      </trkpt>
      <trkpt lat="37.080026" lon="-79.610439">
        <ele>247.025915</ele>
        <time>2025-04-04T10:11:25.000Z</time>
      </trkpt>
      <trkpt lat="37.079982" lon="-79.610511">
        <ele>246.999473</ele>
        <time>2025-04-04T10:11:26.000Z</time>
      </trkpt>
      <trkpt lat="37.079726" lon="-79.610766">
        <ele>246.86812</ele>
        <time>2025-04-04T10:11:30.000Z</time>
      </trkpt>
      <trkpt lat="37.079652" lon="-79.610906">
        <ele>246.814845</ele>
        <time>2025-04-04T10:11:31.000Z</time>
      </trkpt>
      <trkpt lat="37.079536" lon="-79.61119">
        <ele>246.710813</ele>
        <time>2025-04-04T10:11:34.000Z</time>
      </trkpt>
      <trkpt lat="37.079461" lon="-79.611534">
        <ele>246.599262</ele>
        <time>2025-04-04T10:11:37.000Z</time>
      </trkpt>
      <trkpt lat="37.079359" lon="-79.611694">
        <ele>246.536545</ele>
        <time>2025-04-04T10:11:39.000Z</time>
      </trkpt>
      <trkpt lat="37.079161" lon="-79.611856">
        <ele>246.445662</ele>
        <time>2025-04-04T10:11:42.000Z</time>
      </trkpt>
      <trkpt lat="37.07878" lon="-79.611977">
        <ele>246.664007</ele>
        <time>2025-04-04T10:11:46.000Z</time>
      </trkpt>
      <trkpt lat="37.078668" lon="-79.612064">
        <ele>246.85828</ele>
        <time>2025-04-04T10:11:47.000Z</time>
      </trkpt>
      <trkpt lat="37.078585" lon="-79.612139">
        <ele>247.013464</ele>
        <time>2025-04-04T10:11:48.000Z</time>
      </trkpt>
      <trkpt lat="37.078527" lon="-79.612252">
        <ele>247.167576</ele>
        <time>2025-04-04T10:11:49.000Z</time>
      </trkpt>
      <trkpt lat="37.078478" lon="-79.612439">
        <ele>247.39661</ele>
        <time>2025-04-04T10:11:51.000Z</time>
      </trkpt>
      <trkpt lat="37.078479" lon="-79.612623">
        <ele>247.626728</ele>
        <time>2025-04-04T10:11:53.000Z</time>
      </trkpt>
      <trkpt lat="37.078585" lon="-79.613036">
        <ele>248.130414</ele>
        <time>2025-04-04T10:11:57.000Z</time>
      </trkpt>
      <trkpt lat="37.078689" lon="-79.613357">
        <ele>248.559576</ele>
        <time>2025-04-04T10:12:00.000Z</time>
      </trkpt>
      <trkpt lat="37.078829" lon="-79.613704">
        <ele>249.018177</ele>
        <time>2025-04-04T10:12:03.000Z</time>
      </trkpt>
      <trkpt lat="37.079063" lon="-79.614112">
        <ele>249.206661</ele>
        <time>2025-04-04T10:12:07.000Z</time>
      </trkpt>
      <trkpt lat="37.079217" lon="-79.614457">
        <ele>249.329318</ele>
        <time>2025-04-04T10:12:11.000Z</time>
      </trkpt>
      <trkpt lat="37.079277" lon="-79.614817">
        <ele>249.450231</ele>
        <time>2025-04-04T10:12:14.000Z</time>
      </trkpt>
      <trkpt lat="37.079289" lon="-79.615068">
        <ele>249.529665</ele>
        <time>2025-04-04T10:12:16.000Z</time>
      </trkpt>
      <trkpt lat="37.079295" lon="-79.615233">
        <ele>249.583358</ele>
        <time>2025-04-04T10:12:17.000Z</time>
      </trkpt>
      <trkpt lat="37.079248" lon="-79.615401">
        <ele>249.636336</ele>
        <time>2025-04-04T10:12:19.000Z</time>
      </trkpt>
      <trkpt lat="37.079217" lon="-79.61544">
        <ele>249.656076</ele>
        <time>2025-04-04T10:12:19.000Z</time>
      </trkpt>
      <trkpt lat="37.079245" lon="-79.615403">
        <ele>249.675826</ele>
        <time>2025-04-04T10:12:19.000Z</time>
      </trkpt>
      <trkpt lat="37.079285" lon="-79.615238">
        <ele>249.72879</ele>
        <time>2025-04-04T10:12:21.000Z</time>
      </trkpt>
      <trkpt lat="37.079302" lon="-79.615069">
        <ele>249.752622</ele>
        <time>2025-04-04T10:12:23.000Z</time>
      </trkpt>
      <trkpt lat="37.07928" lon="-79.614818">
        <ele>249.583194</ele>
        <time>2025-04-04T10:12:25.000Z</time>
      </trkpt>
      <trkpt lat="37.079203" lon="-79.614448">
        <ele>249.325309</ele>
        <time>2025-04-04T10:12:28.000Z</time>
      </trkpt>
      <trkpt lat="37.079073" lon="-79.614123">
        <ele>249.063662</ele>
        <time>2025-04-04T10:12:31.000Z</time>
      </trkpt>
      <trkpt lat="37.078821" lon="-79.613706">
        <ele>248.715111</ele>
        <time>2025-04-04T10:12:36.000Z</time>
      </trkpt>
      <trkpt lat="37.078682" lon="-79.613355">
        <ele>248.452918</ele>
        <time>2025-04-04T10:12:39.000Z</time>
      </trkpt>
      <trkpt lat="37.07858" lon="-79.613039">
        <ele>248.19522</ele>
        <time>2025-04-04T10:12:42.000Z</time>
      </trkpt>
      <trkpt lat="37.078485" lon="-79.612621">
        <ele>247.782795</ele>
        <time>2025-04-04T10:12:46.000Z</time>
      </trkpt>
      <trkpt lat="37.078476" lon="-79.612428">
        <ele>247.594344</ele>
        <time>2025-04-04T10:12:48.000Z</time>
      </trkpt>
      <trkpt lat="37.078527" lon="-79.612261">
        <ele>247.406816</ele>
        <time>2025-04-04T10:12:50.000Z</time>
      </trkpt>
      <trkpt lat="37.078581" lon="-79.612142">
        <ele>247.280617</ele>
        <time>2025-04-04T10:12:51.000Z</time>
      </trkpt>
      <trkpt lat="37.078653" lon="-79.61206">
        <ele>247.153544</ele>
        <time>2025-04-04T10:12:52.000Z</time>
      </trkpt>
      <trkpt lat="37.07878" lon="-79.611995">
        <ele>246.994468</ele>
        <time>2025-04-04T10:12:54.000Z</time>
      </trkpt>
      <trkpt lat="37.07916" lon="-79.611855">
        <ele>246.49815</ele>
        <time>2025-04-04T10:12:58.000Z</time>
      </trkpt>
      <trkpt lat="37.079356" lon="-79.611688">
        <ele>246.218024</ele>
        <time>2025-04-04T10:13:01.000Z</time>
      </trkpt>
      <trkpt lat="37.079444" lon="-79.611522">
        <ele>246.046837</ele>
        <time>2025-04-04T10:13:03.000Z</time>
      </trkpt>
      <trkpt lat="37.07953" lon="-79.611191">
        <ele>246.448907</ele>
        <time>2025-04-04T10:13:06.000Z</time>
      </trkpt>
      <trkpt lat="37.079646" lon="-79.61089">
        <ele>246.823836</ele>
        <time>2025-04-04T10:13:09.000Z</time>
      </trkpt>
      <trkpt lat="37.079735" lon="-79.610771">
        <ele>247.015912</ele>
        <time>2025-04-04T10:13:10.000Z</time>
      </trkpt>
      <trkpt lat="37.079982" lon="-79.610515">
        <ele>247.489336</ele>
        <time>2025-04-04T10:13:14.000Z</time>
      </trkpt>
      <trkpt lat="37.080017" lon="-79.61044">
        <ele>247.584631</ele>
        <time>2025-04-04T10:13:15.000Z</time>
      </trkpt>
      <trkpt lat="37.08006" lon="-79.610275">
        <ele>247.775646</ele>
        <time>2025-04-04T10:13:17.000Z</time>
      </trkpt>
      <trkpt lat="37.080032" lon="-79.609837">
        <ele>248.279002</ele>
        <time>2025-04-04T10:13:21.000Z</time>
      </trkpt>
      <trkpt lat="37.08003" lon="-79.609655">
        <ele>248.487305</ele>
        <time>2025-04-04T10:13:23.000Z</time>
      </trkpt>
      <trkpt lat="37.080101" lon="-79.609449">
        <ele>249.055075</ele>
        <time>2025-04-04T10:13:25.000Z</time>
      </trkpt>
      <trkpt lat="37.080147" lon="-79.60934">
        <ele>249.481982</ele>
        <time>2025-04-04T10:13:26.000Z</time>
      </trkpt>
      <trkpt lat="37.080349" lon="-79.609082">
        <ele>250.869757</ele>
        <time>2025-04-04T10:13:29.000Z</time>
      </trkpt>
      <trkpt lat="37.080937" lon="-79.608518">
        <ele>254.241265</ele>
        <time>2025-04-04T10:13:37.000Z</time>
      </trkpt>
      <trkpt lat="37.081308" lon="-79.608197">
        <ele>256.314639</ele>
        <time>2025-04-04T10:13:42.000Z</time>
      </trkpt>
      <trkpt lat="37.081572" lon="-79.608033">
        <ele>257.104574</ele>
        <time>2025-04-04T10:13:45.000Z</time>
      </trkpt>
      <trkpt lat="37.082146" lon="-79.607806">
        <ele>257.621491</ele>
        <time>2025-04-04T10:13:52.000Z</time>
      </trkpt>
      <trkpt lat="37.08245" lon="-79.607637">
        <ele>257.908453</ele>
        <time>2025-04-04T10:13:56.000Z</time>
      </trkpt>
      <trkpt lat="37.082611" lon="-79.607481">
        <ele>258.092461</ele>
        <time>2025-04-04T10:13:58.000Z</time>
      </trkpt>
      <trkpt lat="37.082809" lon="-79.607135">
        <ele>258.3813</ele>
        <time>2025-04-04T10:14:02.000Z</time>
      </trkpt>
      <trkpt lat="37.082876" lon="-79.606949">
        <ele>258.523114</ele>
        <time>2025-04-04T10:14:04.000Z</time>
      </trkpt>
      <trkpt lat="37.082971" lon="-79.606611">
        <ele>258.62054</ele>
        <time>2025-04-04T10:14:07.000Z</time>
      </trkpt>
      <trkpt lat="37.083114" lon="-79.604701">
        <ele>259.146664</ele>
        <time>2025-04-04T10:14:24.000Z</time>
      </trkpt>
      <trkpt lat="37.083192" lon="-79.604436">
        <ele>259.211062</ele>
        <time>2025-04-04T10:14:27.000Z</time>
      </trkpt>
      <trkpt lat="37.083363" lon="-79.604116">
        <ele>259.295111</ele>
        <time>2025-04-04T10:14:30.000Z</time>
      </trkpt>
      <trkpt lat="37.08361" lon="-79.603826">
        <ele>259.38578</ele>
        <time>2025-04-04T10:14:34.000Z</time>
      </trkpt>
      <trkpt lat="37.083908" lon="-79.603629">
        <ele>259.479896</ele>
        <time>2025-04-04T10:14:38.000Z</time>
      </trkpt>
      <trkpt lat="37.085196" lon="-79.603172">
        <ele>259.568613</ele>
        <time>2025-04-04T10:14:53.000Z</time>
      </trkpt>
      <trkpt lat="37.085438" lon="-79.602978">
        <ele>259.543048</ele>
        <time>2025-04-04T10:14:56.000Z</time>
      </trkpt>
      <trkpt lat="37.085659" lon="-79.602703">
        <ele>259.516809</ele>
        <time>2025-04-04T10:14:59.000Z</time>
      </trkpt>
      <trkpt lat="37.08583" lon="-79.602445">
        <ele>259.494052</ele>
        <time>2025-04-04T10:15:02.000Z</time>
      </trkpt>
      <trkpt lat="37.086006" lon="-79.60201">
        <ele>259.853016</ele>
        <time>2025-04-04T10:15:06.000Z</time>
      </trkpt>
      <trkpt lat="37.086761" lon="-79.599721">
        <ele>263.244342</ele>
        <time>2025-04-04T10:15:28.000Z</time>
      </trkpt>
      <trkpt lat="37.086895" lon="-79.59937">
        <ele>263.828846</ele>
        <time>2025-04-04T10:15:31.000Z</time>
      </trkpt>
      <trkpt lat="37.086971" lon="-79.599255">
        <ele>264.041916</ele>
        <time>2025-04-04T10:15:32.000Z</time>
      </trkpt>
      <trkpt lat="37.087288" lon="-79.598937">
        <ele>264.83071</ele>
        <time>2025-04-04T10:15:37.000Z</time>
      </trkpt>
      <trkpt lat="37.08776" lon="-79.598598">
        <ele>265.859765</ele>
        <time>2025-04-04T10:15:43.000Z</time>
      </trkpt>
      <trkpt lat="37.088275" lon="-79.598217">
        <ele>268.076717</ele>
        <time>2025-04-04T10:15:50.000Z</time>
      </trkpt>
      <trkpt lat="37.088604" lon="-79.597883">
        <ele>269.656087</ele>
        <time>2025-04-04T10:15:55.000Z</time>
      </trkpt>
      <trkpt lat="37.089128" lon="-79.597136">
        <ele>272.698026</ele>
        <time>2025-04-04T10:16:04.000Z</time>
      </trkpt>
      <trkpt lat="37.089566" lon="-79.596371">
        <ele>274.646644</ele>
        <time>2025-04-04T10:16:12.000Z</time>
      </trkpt>
      <trkpt lat="37.089741" lon="-79.596062">
        <ele>275.438186</ele>
        <time>2025-04-04T10:16:15.000Z</time>
      </trkpt>
      <trkpt lat="37.089818" lon="-79.595921">
        <ele>275.795587</ele>
        <time>2025-04-04T10:16:17.000Z</time>
      </trkpt>
      <trkpt lat="37.090167" lon="-79.595304">
        <ele>277.390062</ele>
        <time>2025-04-04T10:16:24.000Z</time>
      </trkpt>
      <trkpt lat="37.091098" lon="-79.593636">
        <ele>277.626456</ele>
        <time>2025-04-04T10:16:42.000Z</time>
      </trkpt>
      <trkpt lat="37.091419" lon="-79.593153">
        <ele>277.125797</ele>
        <time>2025-04-04T10:16:48.000Z</time>
      </trkpt>
      <trkpt lat="37.091515" lon="-79.593427">
        <ele>276.711363</ele>
        <time>2025-04-04T10:16:51.000Z</time>
      </trkpt>
      <trkpt lat="37.092194" lon="-79.595279">
        <ele>273.878347</ele>
        <time>2025-04-04T10:17:09.000Z</time>
      </trkpt>
      <trkpt lat="37.093354" lon="-79.598669">
        <ele>266.755765</ele>
        <time>2025-04-04T10:17:42.000Z</time>
      </trkpt>
      <trkpt lat="37.093988" lon="-79.600375">
        <ele>261.489637</ele>
        <time>2025-04-04T10:17:59.000Z</time>
      </trkpt>
      <trkpt lat="37.094086" lon="-79.600679">
        <ele>260.574391</ele>
        <time>2025-04-04T10:18:02.000Z</time>
      </trkpt>
      <trkpt lat="37.094384" lon="-79.60149">
        <ele>258.759772</ele>
        <time>2025-04-04T10:18:10.000Z</time>
      </trkpt>
      <trkpt lat="37.094628" lon="-79.601901">
        <ele>258.069673</ele>
        <time>2025-04-04T10:18:15.000Z</time>
      </trkpt>
      <trkpt lat="37.094944" lon="-79.602206">
        <ele>257.371632</ele>
        <time>2025-04-04T10:18:19.000Z</time>
      </trkpt>
      <trkpt lat="37.09587" lon="-79.60294">
        <ele>255.449083</ele>
        <time>2025-04-04T10:18:31.000Z</time>
      </trkpt>
      <trkpt lat="37.096072" lon="-79.603126">
        <ele>255.02478</ele>
        <time>2025-04-04T10:18:34.000Z</time>
      </trkpt>
      <trkpt lat="37.096964" lon="-79.604249">
        <ele>252.934703</ele>
        <time>2025-04-04T10:18:48.000Z</time>
      </trkpt>
      <trkpt lat="37.097072" lon="-79.604437">
        <ele>252.704995</ele>
        <time>2025-04-04T10:18:50.000Z</time>
      </trkpt>
      <trkpt lat="37.097219" lon="-79.604781">
        <ele>252.310568</ele>
        <time>2025-04-04T10:18:53.000Z</time>
      </trkpt>
      <trkpt lat="37.097318" lon="-79.605108">
        <ele>251.956667</ele>
        <time>2025-04-04T10:18:56.000Z</time>
      </trkpt>
      <trkpt lat="37.097348" lon="-79.60548">
        <ele>251.582121</ele>
        <time>2025-04-04T10:18:59.000Z</time>
      </trkpt>
      <trkpt lat="37.09721" lon="-79.607916">
        <ele>252.216623</ele>
        <time>2025-04-04T10:19:21.000Z</time>
      </trkpt>
      <trkpt lat="37.097112" lon="-79.608396">
        <ele>252.551762</ele>
        <time>2025-04-04T10:19:25.000Z</time>
      </trkpt>
      <trkpt lat="37.097026" lon="-79.608621">
        <ele>252.738724</ele>
        <time>2025-04-04T10:19:27.000Z</time>
      </trkpt>
      <trkpt lat="37.096866" lon="-79.60885">
        <ele>252.967698</ele>
        <time>2025-04-04T10:19:30.000Z</time>
      </trkpt>
      <trkpt lat="37.0967" lon="-79.609012">
        <ele>253.154273</ele>
        <time>2025-04-04T10:19:32.000Z</time>
      </trkpt>
      <trkpt lat="37.096675" lon="-79.609029">
        <ele>253.190919</ele>
        <time>2025-04-04T10:19:32.000Z</time>
      </trkpt>
      <trkpt lat="37.096414" lon="-79.609216">
        <ele>253.467895</ele>
        <time>2025-04-04T10:19:35.000Z</time>
      </trkpt>
      <trkpt lat="37.096144" lon="-79.60941">
        <ele>253.751982</ele>
        <time>2025-04-04T10:19:38.000Z</time>
      </trkpt>
      <trkpt lat="37.096013" lon="-79.609493">
        <ele>253.898892</ele>
        <time>2025-04-04T10:19:40.000Z</time>
      </trkpt>
      <trkpt lat="37.095792" lon="-79.609862">
        <ele>254.173214</ele>
        <time>2025-04-04T10:19:44.000Z</time>
      </trkpt>
      <trkpt lat="37.095729" lon="-79.609929">
        <ele>254.173203</ele>
        <time>2025-04-04T10:19:45.000Z</time>
      </trkpt>
      <trkpt lat="37.095684" lon="-79.609941">
        <ele>254.173209</ele>
        <time>2025-04-04T10:19:46.000Z</time>
      </trkpt>
      <trkpt lat="37.095626" lon="-79.610048">
        <ele>254.173221</ele>
        <time>2025-04-04T10:19:47.000Z</time>
      </trkpt>
      <trkpt lat="37.095578" lon="-79.610093">
        <ele>254.173205</ele>
        <time>2025-04-04T10:19:48.000Z</time>
      </trkpt>
      <trkpt lat="37.095075" lon="-79.610377">
        <ele>254.173221</ele>
        <time>2025-04-04T10:19:54.000Z</time>
      </trkpt>
      <trkpt lat="37.095075" lon="-79.610375">
        <ele>254.173204</ele>
        <time>2025-04-04T10:19:54.000Z</time>
      </trkpt>
      <trkpt lat="37.095044" lon="-79.610383">
        <ele>254.173221</ele>
        <time>2025-04-04T10:19:54.000Z</time>
      </trkpt>
      <trkpt lat="37.094979" lon="-79.610331">
        <ele>254.173207</ele>
        <time>2025-04-04T10:19:55.000Z</time>
      </trkpt>
      <trkpt lat="37.094908" lon="-79.61019">
        <ele>254.173216</ele>
        <time>2025-04-04T10:19:56.000Z</time>
      </trkpt>
      <trkpt lat="37.095448" lon="-79.609869">
        <ele>254.173209</ele>
        <time>2025-04-04T10:20:03.000Z</time>
      </trkpt>
      <trkpt lat="37.095496" lon="-79.609844">
        <ele>253.764441</ele>
        <time>2025-04-04T10:20:04.000Z</time>
      </trkpt>
      <trkpt lat="37.095525" lon="-79.609827">
        <ele>253.764446</ele>
        <time>2025-04-04T10:20:04.000Z</time>
      </trkpt>
      <trkpt lat="37.0956" lon="-79.609818">
        <ele>253.764448</ele>
        <time>2025-04-04T10:20:05.000Z</time>
      </trkpt>
      <trkpt lat="37.095621" lon="-79.609782">
        <ele>253.764442</ele>
        <time>2025-04-04T10:20:05.000Z</time>
      </trkpt>
      <trkpt lat="37.095687" lon="-79.609704">
        <ele>253.764444</ele>
        <time>2025-04-04T10:20:06.000Z</time>
      </trkpt>
      <trkpt lat="37.095997" lon="-79.609492">
        <ele>253.764457</ele>
        <time>2025-04-04T10:20:10.000Z</time>
      </trkpt>
      <trkpt lat="37.096147" lon="-79.609412">
        <ele>253.764447</ele>
        <time>2025-04-04T10:20:12.000Z</time>
      </trkpt>
      <trkpt lat="37.096416" lon="-79.609218">
        <ele>253.577019</ele>
        <time>2025-04-04T10:20:15.000Z</time>
      </trkpt>
      <trkpt lat="37.096674" lon="-79.609033">
        <ele>253.258504</ele>
        <time>2025-04-04T10:20:18.000Z</time>
      </trkpt>
      <trkpt lat="37.096715" lon="-79.609">
        <ele>253.216392</ele>
        <time>2025-04-04T10:20:19.000Z</time>
      </trkpt>
      <trkpt lat="37.096863" lon="-79.608856">
        <ele>253.00185</ele>
        <time>2025-04-04T10:20:21.000Z</time>
      </trkpt>
      <trkpt lat="37.097023" lon="-79.608625">
        <ele>252.738532</ele>
        <time>2025-04-04T10:20:24.000Z</time>
      </trkpt>
      <trkpt lat="37.097117" lon="-79.6084">
        <ele>252.523541</ele>
        <time>2025-04-04T10:20:26.000Z</time>
      </trkpt>
      <trkpt lat="37.097215" lon="-79.607917">
        <ele>252.109421</ele>
        <time>2025-04-04T10:20:30.000Z</time>
      </trkpt>
      <trkpt lat="37.097344" lon="-79.605477">
        <ele>251.212158</ele>
        <time>2025-04-04T10:20:52.000Z</time>
      </trkpt>
      <trkpt lat="37.097317" lon="-79.605111">
        <ele>251.532109</ele>
        <time>2025-04-04T10:20:55.000Z</time>
      </trkpt>
      <trkpt lat="37.097237" lon="-79.604778">
        <ele>252.028119</ele>
        <time>2025-04-04T10:20:58.000Z</time>
      </trkpt>
      <trkpt lat="37.097067" lon="-79.604438">
        <ele>252.580939</ele>
        <time>2025-04-04T10:21:02.000Z</time>
      </trkpt>
      <trkpt lat="37.096962" lon="-79.604265">
        <ele>252.902867</ele>
        <time>2025-04-04T10:21:04.000Z</time>
      </trkpt>
      <trkpt lat="37.096062" lon="-79.603123">
        <ele>255.079641</ele>
        <time>2025-04-04T10:21:18.000Z</time>
      </trkpt>
      <trkpt lat="37.095881" lon="-79.602934">
        <ele>255.472664</ele>
        <time>2025-04-04T10:21:21.000Z</time>
      </trkpt>
      <trkpt lat="37.094944" lon="-79.602206">
        <ele>257.255546</ele>
        <time>2025-04-04T10:21:33.000Z</time>
      </trkpt>
      <trkpt lat="37.09462" lon="-79.601898">
        <ele>258.144139</ele>
        <time>2025-04-04T10:21:38.000Z</time>
      </trkpt>
      <trkpt lat="37.094383" lon="-79.60149">
        <ele>259.025722</ele>
        <time>2025-04-04T10:21:42.000Z</time>
      </trkpt>
      <trkpt lat="37.094089" lon="-79.600671">
        <ele>260.61451</ele>
        <time>2025-04-04T10:21:50.000Z</time>
      </trkpt>
      <trkpt lat="37.09399" lon="-79.600382">
        <ele>261.168876</ele>
        <time>2025-04-04T10:21:53.000Z</time>
      </trkpt>
      <trkpt lat="37.093366" lon="-79.598658">
        <ele>266.773464</ele>
        <time>2025-04-04T10:22:10.000Z</time>
      </trkpt>
      <trkpt lat="37.092178" lon="-79.595266">
        <ele>273.865114</ele>
        <time>2025-04-04T10:22:43.000Z</time>
      </trkpt>
      <trkpt lat="37.09151" lon="-79.593438">
        <ele>276.617772</ele>
        <time>2025-04-04T10:23:01.000Z</time>
      </trkpt>
      <trkpt lat="37.091423" lon="-79.593148">
        <ele>276.889138</ele>
        <time>2025-04-04T10:23:04.000Z</time>
      </trkpt>
      <trkpt lat="37.091106" lon="-79.593645">
        <ele>277.430225</ele>
        <time>2025-04-04T10:23:10.000Z</time>
      </trkpt>
      <trkpt lat="37.090173" lon="-79.595291">
        <ele>276.958569</ele>
        <time>2025-04-04T10:23:28.000Z</time>
      </trkpt>
      <trkpt lat="37.089816" lon="-79.595922">
        <ele>276.432594</ele>
        <time>2025-04-04T10:23:35.000Z</time>
      </trkpt>
      <trkpt lat="37.089741" lon="-79.596056">
        <ele>275.954343</ele>
        <time>2025-04-04T10:23:36.000Z</time>
      </trkpt>
      <trkpt lat="37.089568" lon="-79.596376">
        <ele>274.89516</ele>
        <time>2025-04-04T10:23:39.000Z</time>
      </trkpt>
      <trkpt lat="37.089132" lon="-79.597136">
        <ele>272.287662</ele>
        <time>2025-04-04T10:23:47.000Z</time>
      </trkpt>
      <trkpt lat="37.088604" lon="-79.597892">
        <ele>269.55182</ele>
        <time>2025-04-04T10:23:56.000Z</time>
      </trkpt>
      <trkpt lat="37.088271" lon="-79.598218">
        <ele>268.241927</ele>
        <time>2025-04-04T10:24:01.000Z</time>
      </trkpt>
      <trkpt lat="37.087775" lon="-79.598608">
        <ele>266.390505</ele>
        <time>2025-04-04T10:24:08.000Z</time>
      </trkpt>
      <trkpt lat="37.087298" lon="-79.598929">
        <ele>264.68686</ele>
        <time>2025-04-04T10:24:14.000Z</time>
      </trkpt>
      <trkpt lat="37.086964" lon="-79.599265">
        <ele>263.894046</ele>
        <time>2025-04-04T10:24:19.000Z</time>
      </trkpt>
      <trkpt lat="37.086908" lon="-79.599361">
        <ele>263.69188</ele>
        <time>2025-04-04T10:24:20.000Z</time>
      </trkpt>
      <trkpt lat="37.086769" lon="-79.599703">
        <ele>263.137273</ele>
        <time>2025-04-04T10:24:23.000Z</time>
      </trkpt>
      <trkpt lat="37.086003" lon="-79.602009">
        <ele>260.165843</ele>
        <time>2025-04-04T10:24:45.000Z</time>
      </trkpt>
      <trkpt lat="37.085824" lon="-79.602453">
        <ele>259.700796</ele>
        <time>2025-04-04T10:24:49.000Z</time>
      </trkpt>
      <trkpt lat="37.085671" lon="-79.602719">
        <ele>259.385273</ele>
        <time>2025-04-04T10:24:52.000Z</time>
      </trkpt>
      <trkpt lat="37.085444" lon="-79.602979">
        <ele>259.251168</ele>
        <time>2025-04-04T10:24:55.000Z</time>
      </trkpt>
      <trkpt lat="37.085195" lon="-79.603162">
        <ele>259.344369</ele>
        <time>2025-04-04T10:24:58.000Z</time>
      </trkpt>
      <trkpt lat="37.083908" lon="-79.603634">
        <ele>259.759091</ele>
        <time>2025-04-04T10:25:13.000Z</time>
      </trkpt>
      <trkpt lat="37.083611" lon="-79.603827">
        <ele>259.564756</ele>
        <time>2025-04-04T10:25:17.000Z</time>
      </trkpt>
      <trkpt lat="37.083372" lon="-79.604113">
        <ele>259.357178</ele>
        <time>2025-04-04T10:25:21.000Z</time>
      </trkpt>
      <trkpt lat="37.0832" lon="-79.60442">
        <ele>259.164798</ele>
        <time>2025-04-04T10:25:24.000Z</time>
      </trkpt>
      <trkpt lat="37.083115" lon="-79.604698">
        <ele>259.017365</ele>
        <time>2025-04-04T10:25:27.000Z</time>
      </trkpt>
      <trkpt lat="37.08296" lon="-79.606605">
        <ele>258.729052</ele>
        <time>2025-04-04T10:25:44.000Z</time>
      </trkpt>
      <trkpt lat="37.082886" lon="-79.606946">
        <ele>258.758282</ele>
        <time>2025-04-04T10:25:47.000Z</time>
      </trkpt>
      <trkpt lat="37.082808" lon="-79.607149">
        <ele>258.775851</ele>
        <time>2025-04-04T10:25:49.000Z</time>
      </trkpt>
      <trkpt lat="37.082607" lon="-79.607481">
        <ele>258.810197</ele>
        <time>2025-04-04T10:25:53.000Z</time>
      </trkpt>
      <trkpt lat="37.08244" lon="-79.607633">
        <ele>258.519651</ele>
        <time>2025-04-04T10:25:55.000Z</time>
      </trkpt>
      <trkpt lat="37.082143" lon="-79.607807">
        <ele>257.683892</ele>
        <time>2025-04-04T10:25:59.000Z</time>
      </trkpt>
      <trkpt lat="37.081577" lon="-79.608026">
        <ele>256.178356</ele>
        <time>2025-04-04T10:26:06.000Z</time>
      </trkpt>
      <trkpt lat="37.081299" lon="-79.608195">
        <ele>255.39075</ele>
        <time>2025-04-04T10:26:09.000Z</time>
      </trkpt>
      <trkpt lat="37.080922" lon="-79.608529">
        <ele>254.256329</ele>
        <time>2025-04-04T10:26:14.000Z</time>
      </trkpt>
      <trkpt lat="37.080347" lon="-79.60907">
        <ele>251.354346</ele>
        <time>2025-04-04T10:26:22.000Z</time>
      </trkpt>
      <trkpt lat="37.080155" lon="-79.609338">
        <ele>250.159835</ele>
        <time>2025-04-04T10:26:25.000Z</time>
      </trkpt>
      <trkpt lat="37.080092" lon="-79.609442">
        <ele>249.792384</ele>
        <time>2025-04-04T10:26:26.000Z</time>
      </trkpt>
      <trkpt lat="37.080036" lon="-79.60966">
        <ele>249.06839</ele>
        <time>2025-04-04T10:26:28.000Z</time>
      </trkpt>
      <trkpt lat="37.080015" lon="-79.609831">
        <ele>248.487177</ele>
        <time>2025-04-04T10:26:30.000Z</time>
      </trkpt>
      <trkpt lat="37.080049" lon="-79.610279">
        <ele>247.082737</ele>
        <time>2025-04-04T10:26:34.000Z</time>
      </trkpt>
      <trkpt lat="37.080033" lon="-79.610442">
        <ele>247.025917</ele>
        <time>2025-04-04T10:26:35.000Z</time>
      </trkpt>
      <trkpt lat="37.079988" lon="-79.610515">
        <ele>246.999474</ele>
        <time>2025-04-04T10:26:36.000Z</time>
      </trkpt>
      <trkpt lat="37.079742" lon="-79.61077">
        <ele>246.868133</ele>
        <time>2025-04-04T10:26:40.000Z</time>
      </trkpt>
      <trkpt lat="37.079654" lon="-79.610904">
        <ele>246.81484</ele>
        <time>2025-04-04T10:26:42.000Z</time>
      </trkpt>
      <trkpt lat="37.079537" lon="-79.611198">
        <ele>246.710815</ele>
        <time>2025-04-04T10:26:45.000Z</time>
      </trkpt>
      <trkpt lat="37.07945" lon="-79.611533">
        <ele>246.599265</ele>
        <time>2025-04-04T10:26:48.000Z</time>
      </trkpt>
      <trkpt lat="37.079368" lon="-79.611689">
        <ele>246.536542</ele>
        <time>2025-04-04T10:26:50.000Z</time>
      </trkpt>
      <trkpt lat="37.07916" lon="-79.611851">
        <ele>246.445655</ele>
        <time>2025-04-04T10:26:53.000Z</time>
      </trkpt>
      <trkpt lat="37.07877" lon="-79.611995">
        <ele>246.664011</ele>
        <time>2025-04-04T10:26:58.000Z</time>
      </trkpt>
      <trkpt lat="37.078666" lon="-79.612053">
        <ele>246.858278</ele>
        <time>2025-04-04T10:26:59.000Z</time>
      </trkpt>
      <trkpt lat="37.078588" lon="-79.612139">
        <ele>247.013467</ele>
        <time>2025-04-04T10:27:00.000Z</time>
      </trkpt>
      <trkpt lat="37.078519" lon="-79.612244">
        <ele>247.167571</ele>
        <time>2025-04-04T10:27:01.000Z</time>
      </trkpt>
      <trkpt lat="37.07848" lon="-79.61243">
        <ele>247.396606</ele>
        <time>2025-04-04T10:27:03.000Z</time>
      </trkpt>
      <trkpt lat="37.078486" lon="-79.612635">
        <ele>247.62674</ele>
        <time>2025-04-04T10:27:05.000Z</time>
      </trkpt>
      <trkpt lat="37.078581" lon="-79.61304">
        <ele>248.130402</ele>
        <time>2025-04-04T10:27:09.000Z</time>
      </trkpt>
      <trkpt lat="37.078697" lon="-79.613362">
        <ele>248.559587</ele>
        <time>2025-04-04T10:27:12.000Z</time>
      </trkpt>
      <trkpt lat="37.078825" lon="-79.613703">
        <ele>249.018176</ele>
        <time>2025-04-04T10:27:15.000Z</time>
      </trkpt>
      <trkpt lat="37.079069" lon="-79.614107">
        <ele>249.206658</ele>
        <time>2025-04-04T10:27:19.000Z</time>
      </trkpt>
      <trkpt lat="37.079218" lon="-79.614451">
        <ele>249.329319</ele>
        <time>2025-04-04T10:27:22.000Z</time>
      </trkpt>
      <trkpt lat="37.079287" lon="-79.614832">
        <ele>249.450232</ele>
        <time>2025-04-04T10:27:25.000Z</time>
      </trkpt>
      <trkpt lat="37.079293" lon="-79.615077">
        <ele>249.529661</ele>
        <time>2025-04-04T10:27:27.000Z</time>
      </trkpt>
      <trkpt lat="37.079291" lon="-79.615247">
        <ele>249.583371</ele>
        <time>2025-04-04T10:27:29.000Z</time>
      </trkpt>
      <trkpt lat="37.079246" lon="-79.61539">
        <ele>249.636342</ele>
        <time>2025-04-04T10:27:30.000Z</time>
      </trkpt>
      <trkpt lat="37.07922" lon="-79.61544">
        <ele>249.656088</ele>
        <time>2025-04-04T10:27:31.000Z</time>
      </trkpt>
      <trkpt lat="37.079258" lon="-79.615407">
        <ele>249.675817</ele>
        <time>2025-04-04T10:27:32.000Z</time>
      </trkpt>
      <trkpt lat="37.079298" lon="-79.615248">
        <ele>249.728799</ele>
        <time>2025-04-04T10:27:33.000Z</time>
      </trkpt>
      <trkpt lat="37.079288" lon="-79.615074">
        <ele>249.752619</ele>
        <time>2025-04-04T10:27:35.000Z</time>
      </trkpt>
      <trkpt lat="37.079282" lon="-79.61482">
        <ele>249.58321</ele>
        <time>2025-04-04T10:27:37.000Z</time>
      </trkpt>
      <trkpt lat="37.079204" lon="-79.614454">
        <ele>249.325307</ele>
        <time>2025-04-04T10:27:40.000Z</time>
      </trkpt>
      <trkpt lat="37.079073" lon="-79.614116">
        <ele>249.063665</ele>
        <time>2025-04-04T10:27:43.000Z</time>
      </trkpt>
      <trkpt lat="37.078821" lon="-79.613711">
        <ele>248.715102</ele>
        <time>2025-04-04T10:27:48.000Z</time>
      </trkpt>
      <trkpt lat="37.078682" lon="-79.613362">
        <ele>248.452918</ele>
        <time>2025-04-04T10:27:51.000Z</time>
      </trkpt>
      <trkpt lat="37.07857" lon="-79.613036">
        <ele>248.19522</ele>
        <time>2025-04-04T10:27:54.000Z</time>
      </trkpt>
      <trkpt lat="37.078475" lon="-79.612622">
        <ele>247.782781</ele>
        <time>2025-04-04T10:27:58.000Z</time>
      </trkpt>
      <trkpt lat="37.078472" lon="-79.612435">
        <ele>247.594341</ele>
        <time>2025-04-04T10:28:00.000Z</time>
      </trkpt>
      <trkpt lat="37.078533" lon="-79.612247">
        <ele>247.406799</ele>
        <time>2025-04-04T10:28:02.000Z</time>
      </trkpt>
      <trkpt lat="37.078578" lon="-79.612152">
        <ele>247.280616</ele>
        <time>2025-04-04T10:28:03.000Z</time>
      </trkpt>
      <trkpt lat="37.07866" lon="-79.612056">
        <ele>247.153545</ele>
        <time>2025-04-04T10:28:04.000Z</time>
      </trkpt>
      <trkpt lat="37.078773" lon="-79.611983">
        <ele>246.994479</ele>
        <time>2025-04-04T10:28:05.000Z</time>
      </trkpt>
      <trkpt lat="37.079173" lon="-79.611852">
        <ele>246.498152</ele>
        <time>2025-04-04T10:28:10.000Z</time>
      </trkpt>
      <trkpt lat="37.079366" lon="-79.611683">
        <ele>246.218029</ele>
        <time>2025-04-04T10:28:13.000Z</time>
      </trkpt>
      <trkpt lat="37.079444" lon="-79.611537">
        <ele>246.046849</ele>
        <time>2025-04-04T10:28:15.000Z</time>
      </trkpt>
      <trkpt lat="37.079528" lon="-79.611203">
        <ele>246.448901</ele>
        <time>2025-04-04T10:28:18.000Z</time>
      </trkpt>
      <trkpt lat="37.079638" lon="-79.610888">
        <ele>246.823844</ele>
        <time>2025-04-04T10:28:21.000Z</time>
      </trkpt>
      <trkpt lat="37.079739" lon="-79.610778">
        <ele>247.015915</ele>
        <time>2025-04-04T10:28:22.000Z</time>
      </trkpt>
      <trkpt lat="37.079993" lon="-79.610518">
        <ele>247.489334</ele>
        <time>2025-04-04T10:28:26.000Z</time>
      </trkpt>
      <trkpt lat="37.08003" lon="-79.610439">
        <ele>247.584629</ele>
        <time>2025-04-04T10:28:27.000Z</time>
      </trkpt>
      <trkpt lat="37.080047" lon="-79.610266">
        <ele>247.775633</ele>
        <time>2025-04-04T10:28:29.000Z</time>
      </trkpt>
      <trkpt lat="37.080029" lon="-79.609828">
        <ele>248.279008</ele>
        <time>2025-04-04T10:28:33.000Z</time>
      </trkpt>
      <trkpt lat="37.080034" lon="-79.609647">
        <ele>248.487313</ele>
        <time>2025-04-04T10:28:35.000Z</time>
      </trkpt>
      <trkpt lat="37.080102" lon="-79.609431">
        <ele>249.05508</ele>
        <time>2025-04-04T10:28:37.000Z</time>
      </trkpt>
      <trkpt lat="37.08014" lon="-79.609342">
        <ele>249.481977</ele>
        <time>2025-04-04T10:28:38.000Z</time>
      </trkpt>
      <trkpt lat="37.080356" lon="-79.609073">
        <ele>250.869755</ele>
        <time>2025-04-04T10:28:41.000Z</time>
      </trkpt>
      <trkpt lat="37.080927" lon="-79.608521">
        <ele>254.241261</ele>
        <time>2025-04-04T10:28:49.000Z</time>
      </trkpt>
      <trkpt lat="37.081291" lon="-79.608196">
        <ele>256.314646</ele>
        <time>2025-04-04T10:28:54.000Z</time>
      </trkpt>
      <trkpt lat="37.081572" lon="-79.608026">
        <ele>257.104577</ele>
        <time>2025-04-04T10:28:57.000Z</time>
      </trkpt>
      <trkpt lat="37.082149" lon="-79.607799">
        <ele>257.621481</ele>
        <time>2025-04-04T10:29:04.000Z</time>
      </trkpt>
      <trkpt lat="37.082444" lon="-79.607641">
        <ele>257.908436</ele>
        <time>2025-04-04T10:29:08.000Z</time>
      </trkpt>
      <trkpt lat="37.082621" lon="-79.607468">
        <ele>258.092474</ele>
        <time>2025-04-04T10:29:10.000Z</time>
      </trkpt>
      <trkpt lat="37.082807" lon="-79.607152">
        <ele>258.381308</ele>
        <time>2025-04-04T10:29:13.000Z</time>
      </trkpt>
      <trkpt lat="37.08289" lon="-79.606955">
        <ele>258.523117</ele>
        <time>2025-04-04T10:29:15.000Z</time>
      </trkpt>
      <trkpt lat="37.082957" lon="-79.606612">
        <ele>258.620531</ele>
        <time>2025-04-04T10:29:18.000Z</time>
      </trkpt>
      <trkpt lat="37.083107" lon="-79.604697">
        <ele>259.146662</ele>
        <time>2025-04-04T10:29:35.000Z</time>
      </trkpt>
      <trkpt lat="37.083188" lon="-79.604419">
        <ele>259.211061</ele>
        <time>2025-04-04T10:29:38.000Z</time>
      </trkpt>
      <trkpt lat="37.083364" lon="-79.604108">
        <ele>259.295111</ele>
        <time>2025-04-04T10:29:41.000Z</time>
      </trkpt>
      <trkpt lat="37.083618" lon="-79.603825">
        <ele>259.385782</ele>
        <time>2025-04-04T10:29:45.000Z</time>
      </trkpt>
      <trkpt lat="37.083919" lon="-79.603636">
        <ele>259.47989</ele>
        <time>2025-04-04T10:29:49.000Z</time>
      </trkpt>
      <trkpt lat="37.085194" lon="-79.603171">
        <ele>259.568603</ele>
        <time>2025-04-04T10:30:04.000Z</time>
      </trkpt>
      <trkpt lat="37.085446" lon="-79.602978">
        <ele>259.543042</ele>
        <time>2025-04-04T10:30:07.000Z</time>
      </trkpt>
      <trkpt lat="37.085667" lon="-79.602715">
        <ele>259.516797</ele>
        <time>2025-04-04T10:30:10.000Z</time>
      </trkpt>
      <trkpt lat="37.085819" lon="-79.602442">
        <ele>259.494059</ele>
        <time>2025-04-04T10:30:13.000Z</time>
      </trkpt>
      <trkpt lat="37.086003" lon="-79.60202">
        <ele>259.853022</ele>
        <time>2025-04-04T10:30:17.000Z</time>
      </trkpt>
      <trkpt lat="37.086751" lon="-79.599706">
        <ele>263.244345</ele>
        <time>2025-04-04T10:30:39.000Z</time>
      </trkpt>
      <trkpt lat="37.086899" lon="-79.599363">
        <ele>263.828857</ele>
        <time>2025-04-04T10:30:42.000Z</time>
      </trkpt>
      <trkpt lat="37.086968" lon="-79.599256">
        <ele>264.041916</ele>
        <time>2025-04-04T10:30:43.000Z</time>
      </trkpt>
      <trkpt lat="37.087293" lon="-79.598925">
        <ele>264.830703</ele>
        <time>2025-04-04T10:30:48.000Z</time>
      </trkpt>
      <trkpt lat="37.08776" lon="-79.598608">
        <ele>265.859771</ele>
        <time>2025-04-04T10:30:54.000Z</time>
      </trkpt>
      <trkpt lat="37.088276" lon="-79.598219">
        <ele>268.076721</ele>
        <time>2025-04-04T10:31:01.000Z</time>
      </trkpt>
      <trkpt lat="37.088594" lon="-79.597886">
        <ele>269.65609</ele>
        <time>2025-04-04T10:31:06.000Z</time>
      </trkpt>
      <trkpt lat="37.089137" lon="-79.597124">
        <ele>272.698027</ele>
        <time>2025-04-04T10:31:15.000Z</time>
      </trkpt>
      <trkpt lat="37.089571" lon="-79.596382">
        <ele>274.646641</ele>
        <time>2025-04-04T10:31:23.000Z</time>
      </trkpt>
      <trkpt lat="37.08974" lon="-79.59606">
        <ele>275.438188</ele>
        <time>2025-04-04T10:31:26.000Z</time>
      </trkpt>
      <trkpt lat="37.089825" lon="-79.595935">
        <ele>275.795581</ele>
        <time>2025-04-04T10:31:27.000Z</time>
      </trkpt>
      <trkpt lat="37.090168" lon="-79.595291">
        <ele>277.390065</ele>
        <time>2025-04-04T10:31:34.000Z</time>
      </trkpt>
      <trkpt lat="37.091101" lon="-79.593648">
        <ele>277.626445</ele>
        <time>2025-04-04T10:31:52.000Z</time>
      </trkpt>
      <trkpt lat="37.091406" lon="-79.593148">
        <ele>277.125804</ele>
        <time>2025-04-04T10:31:58.000Z</time>
      </trkpt>
      <trkpt lat="37.091511" lon="-79.593427">
        <ele>276.711374</ele>
        <time>2025-04-04T10:32:01.000Z</time>
      </trkpt>
      <trkpt lat="37.092191" lon="-79.59528">
        <ele>273.878347</ele>
        <time>2025-04-04T10:32:19.000Z</time>
      </trkpt>
      <trkpt lat="37.093361" lon="-79.598656">
        <ele>266.755762</ele>
        <time>2025-04-04T10:32:52.000Z</time>
      </trkpt>
      <trkpt lat="37.094003" lon="-79.600378">
        <ele>261.48964</ele>
        <time>2025-04-04T10:33:09.000Z</time>
      </trkpt>
      <trkpt lat="37.094087" lon="-79.600667">
        <ele>260.574384</ele>
        <time>2025-04-04T10:33:12.000Z</time>
      </trkpt>
      <trkpt lat="37.094394" lon="-79.601488">
        <ele>258.759756</ele>
        <time>2025-04-04T10:33:20.000Z</time>
      </trkpt>
      <trkpt lat="37.09463" lon="-79.601888">
        <ele>258.069669</ele>
        <time>2025-04-04T10:33:24.000Z</time>
      </trkpt>
      <trkpt lat="37.094926" lon="-79.60221">
        <ele>257.371639</ele>
        <time>2025-04-04T10:33:28.000Z</time>
      </trkpt>
      <trkpt lat="37.095879" lon="-79.602937">
        <ele>255.449086</ele>
        <time>2025-04-04T10:33:40.000Z</time>
      </trkpt>
      <trkpt lat="37.096062" lon="-79.603122">
        <ele>255.024769</ele>
        <time>2025-04-04T10:33:43.000Z</time>
      </trkpt>
      <trkpt lat="37.096956" lon="-79.604261">
        <ele>252.934701</ele>
        <time>2025-04-04T10:33:57.000Z</time>
      </trkpt>
      <trkpt lat="37.097066" lon="-79.604431">
        <ele>252.705011</ele>
        <time>2025-04-04T10:33:59.000Z</time>
      </trkpt>
      <trkpt lat="37.097224" lon="-79.604775">
        <ele>252.310553</ele>
        <time>2025-04-04T10:34:03.000Z</time>
      </trkpt>
      <trkpt lat="37.097305" lon="-79.605105">
        <ele>251.956657</ele>
        <time>2025-04-04T10:34:06.000Z</time>
      </trkpt>
      <trkpt lat="37.097351" lon="-79.605488">
        <ele>251.582108</ele>
        <time>2025-04-04T10:34:09.000Z</time>
      </trkpt>
      <trkpt lat="37.097212" lon="-79.607924">
        <ele>252.216615</ele>
        <time>2025-04-04T10:34:31.000Z</time>
      </trkpt>
      <trkpt lat="37.097114" lon="-79.608401">
        <ele>252.551761</ele>
        <time>2025-04-04T10:34:35.000Z</time>
      </trkpt>
      <trkpt lat="37.097019" lon="-79.608611">
        <ele>252.738729</ele>
        <time>2025-04-04T10:34:37.000Z</time>
      </trkpt>
      <trkpt lat="37.096872" lon="-79.608856">
        <ele>252.967698</ele>
        <time>2025-04-04T10:34:40.000Z</time>
      </trkpt>
      <trkpt lat="37.09671" lon="-79.609013">
        <ele>253.154286</ele>
        <time>2025-04-04T10:34:42.000Z</time>
      </trkpt>
      <trkpt lat="37.096668" lon="-79.609031">
        <ele>253.190921</ele>
        <time>2025-04-04T10:34:42.000Z</time>
      </trkpt>
      <trkpt lat="37.096416" lon="-79.609226">
        <ele>253.4679</ele>
        <time>2025-04-04T10:34:45.000Z</time>
      </trkpt>
      <trkpt lat="37.096151" lon="-79.609402">
        <ele>253.751978</ele>
        <time>2025-04-04T10:34:48.000Z</time>
      </trkpt>
      <trkpt lat="37.096005" lon="-79.609491">
        <ele>253.898897</ele>
        <time>2025-04-04T10:34:50.000Z</time>
      </trkpt>
      <trkpt lat="37.095782" lon="-79.609867">
        <ele>254.173212</ele>
        <time>2025-04-04T10:34:54.000Z</time>
      </trkpt>
      <trkpt lat="37.095728" lon="-79.60992">
        <ele>254.17322</ele>
        <time>2025-04-04T10:34:55.000Z</time>
      </trkpt>
      <trkpt lat="37.095679" lon="-79.609943">
        <ele>254.173207</ele>
        <time>2025-04-04T10:34:56.000Z</time>
      </trkpt>
      <trkpt lat="37.095624" lon="-79.610055">
        <ele>254.173204</ele>
        <time>2025-04-04T10:34:57.000Z</time>
      </trkpt>
      <trkpt lat="37.095585" lon="-79.610089">
        <ele>254.173216</ele>
        <time>2025-04-04T10:34:58.000Z</time>
      </trkpt>
      <trkpt lat="37.095087" lon="-79.610377">
        <ele>254.17322</ele>
        <time>2025-04-04T10:35:04.000Z</time>
      </trkpt>
      <trkpt lat="37.095064" lon="-79.610379">
        <ele>254.17322</ele>
        <time>2025-04-04T10:35:04.000Z</time>
      </trkpt>
      <trkpt lat="37.095036" lon="-79.610382">
        <ele>254.173212</ele>
        <time>2025-04-04T10:35:04.000Z</time>
      </trkpt>
      <trkpt lat="37.094975" lon="-79.610331">
        <ele>254.173203</ele>
        <time>2025-04-04T10:35:05.000Z</time>
      </trkpt>
      <trkpt lat="37.094904" lon="-79.610191">
        <ele>254.173203</ele>
        <time>2025-04-04T10:35:06.000Z</time>
      </trkpt>
      <trkpt lat="37.09545" lon="-79.609864">
        <ele>254.17322</ele>
        <time>2025-04-04T10:35:13.000Z</time>
      </trkpt>
      <trkpt lat="37.095483" lon="-79.609853">
        <ele>253.764456</ele>
        <time>2025-04-04T10:35:13.000Z</time>
      </trkpt>
      <trkpt lat="37.095528" lon="-79.609829">
        <ele>253.76444</ele>
        <time>2025-04-04T10:35:14.000Z</time>
      </trkpt>
      <trkpt lat="37.095599" lon="-79.609828">
        <ele>253.764442</ele>
        <time>2025-04-04T10:35:15.000Z</time>
      </trkpt>
      <trkpt lat="37.095608" lon="-79.609782">
        <ele>253.764446</ele>
        <time>2025-04-04T10:35:15.000Z</time>
      </trkpt>
      <trkpt lat="37.095689" lon="-79.609701">
        <ele>253.764454</ele>
        <time>2025-04-04T10:35:16.000Z</time>
      </trkpt>
      <trkpt lat="37.096007" lon="-79.609492">
        <ele>253.764454</ele>
        <time>2025-04-04T10:35:20.000Z</time>
      </trkpt>
      <trkpt lat="37.096149" lon="-79.60941">
        <ele>253.764451</ele>
        <time>2025-04-04T10:35:22.000Z</time>
      </trkpt>
      <trkpt lat="37.096422" lon="-79.609222">
        <ele>253.577019</ele>
        <time>2025-04-04T10:35:25.000Z</time>
      </trkpt>
      <trkpt lat="37.096666" lon="-79.609028">
        <ele>253.258519</ele>
        <time>2025-04-04T10:35:28.000Z</time>
      </trkpt>
      <trkpt lat="37.096709" lon="-79.609014">
        <ele>253.216389</ele>
        <time>2025-04-04T10:35:28.000Z</time>
      </trkpt>
      <trkpt lat="37.096866" lon="-79.608854">
        <ele>253.001838</ele>
        <time>2025-04-04T10:35:30.000Z</time>
      </trkpt>
      <trkpt lat="37.097017" lon="-79.608629">
        <ele>252.738526</ele>
        <time>2025-04-04T10:35:33.000Z</time>
      </trkpt>
      <trkpt lat="37.097114" lon="-79.608387">
        <ele>252.523543</ele>
        <time>2025-04-04T10:35:35.000Z</time>
      </trkpt>
      <trkpt lat="37.097218" lon="-79.607923">
        <ele>252.109433</ele>
        <time>2025-04-04T10:35:39.000Z</time>
      </trkpt>
      <trkpt lat="37.097335" lon="-79.605489">
        <ele>251.212162</ele>
        <time>2025-04-04T10:36:01.000Z</time>
      </trkpt>
      <trkpt lat="37.097312" lon="-79.605115">
        <ele>251.532123</ele>
        <time>2025-04-04T10:36:04.000Z</time>
      </trkpt>
      <trkpt lat="37.097227" lon="-79.604775">
        <ele>252.028125</ele>
        <time>2025-04-04T10:36:07.000Z</time>
      </trkpt>
      <trkpt lat="37.097078" lon="-79.604443">
        <ele>252.580934</ele>
        <time>2025-04-04T10:36:10.000Z</time>
      </trkpt>
      <trkpt lat="37.096958" lon="-79.604263">
        <ele>252.902865</ele>
        <time>2025-04-04T10:36:12.000Z</time>
      </trkpt>
      <trkpt lat="37.09607" lon="-79.603134">
        <ele>255.079635</ele>
        <time>2025-04-04T10:36:26.000Z</time>
      </trkpt>
      <trkpt lat="37.095883" lon="-79.602938">
        <ele>255.47265</ele>
        <time>2025-04-04T10:36:29.000Z</time>
      </trkpt>
      <trkpt lat="37.094926" lon="-79.602203">
        <ele>257.255534</ele>
        <time>2025-04-04T10:36:41.000Z</time>
      </trkpt>
      <trkpt lat="37.094628" lon="-79.601886">
        <ele>258.144149</ele>
        <time>2025-04-04T10:36:45.000Z</time>
      </trkpt>
      <trkpt lat="37.09439" lon="-79.60148">
        <ele>259.025732</ele>
        <time>2025-04-04T10:36:49.000Z</time>
      </trkpt>
      <trkpt lat="37.094102" lon="-79.600671">
        <ele>260.614506</ele>
        <time>2025-04-04T10:36:57.000Z</time>
      </trkpt>
      <trkpt lat="37.094001" lon="-79.600374">
        <ele>261.168884</ele>
        <time>2025-04-04T10:37:00.000Z</time>
      </trkpt>
      <trkpt lat="37.093361" lon="-79.598674">
        <ele>266.773472</ele>
        <time>2025-04-04T10:37:17.000Z</time>
      </trkpt>
      <trkpt lat="37.092183" lon="-79.595268">
        <ele>273.865121</ele>
        <time>2025-04-04T10:37:50.000Z</time>
      </trkpt>
      <trkpt lat="37.091514" lon="-79.59343">
        <ele>276.617763</ele>
        <time>2025-04-04T10:38:08.000Z</time>
      </trkpt>
      <trkpt lat="37.091414" lon="-79.593153">
        <ele>276.889129</ele>
        <time>2025-04-04T10:38:11.000Z</time>
      </trkpt>
      <trkpt lat="37.091095" lon="-79.593642">
        <ele>277.430227</ele>
        <time>2025-04-04T10:38:17.000Z</time>
      </trkpt>
      <trkpt lat="37.090171" lon="-79.595291">
        <ele>276.958582</ele>
        <time>2025-04-04T10:38:35.000Z</time>
      </trkpt>
      <trkpt lat="37.089818" lon="-79.595923">
        <ele>276.432596</ele>
        <time>2025-04-04T10:38:42.000Z</time>
      </trkpt>
      <trkpt lat="37.089745" lon="-79.596063">
        <ele>275.954347</ele>
        <time>2025-04-04T10:38:43.000Z</time>
      </trkpt>
      <trkpt lat="37.08957" lon="-79.59637">
        <ele>274.895157</ele>
        <time>2025-04-04T10:38:46.000Z</time>
      </trkpt>
      <trkpt lat="37.089136" lon="-79.597135">
        <ele>272.287654</ele>
        <time>2025-04-04T10:38:54.000Z</time>
      </trkpt>
      <trkpt lat="37.088602" lon="-79.597881">
        <ele>269.551809</ele>
        <time>2025-04-04T10:39:03.000Z</time>
      </trkpt>
      <trkpt lat="37.088277" lon="-79.598214">
        <ele>268.241918</ele>
        <time>2025-04-04T10:39:08.000Z</time>
      </trkpt>
      <trkpt lat="37.08776" lon="-79.598606">
        <ele>266.390504</ele>
        <time>2025-04-04T10:39:15.000Z</time>
      </trkpt>
      <trkpt lat="37.0873" lon="-79.598937">
        <ele>264.686862</ele>
        <time>2025-04-04T10:39:21.000Z</time>
      </trkpt>
      <trkpt lat="37.086979" lon="-79.599265">
        <ele>263.89404</ele>
        <time>2025-04-04T10:39:26.000Z</time>
      </trkpt>
      <trkpt lat="37.086906" lon="-79.599361">
        <ele>263.691886</ele>
        <time>2025-04-04T10:39:27.000Z</time>
      </trkpt>
      <trkpt lat="37.086764" lon="-79.599706">
        <ele>263.137275</ele>
        <time>2025-04-04T10:39:30.000Z</time>
      </trkpt>
      <trkpt lat="37.086005" lon="-79.602009">
        <ele>260.165851</ele>
        <time>2025-04-04T10:39:52.000Z</time>
      </trkpt>
      <trkpt lat="37.085825" lon="-79.602451">
        <ele>259.700806</ele>
        <time>2025-04-04T10:39:56.000Z</time>
      </trkpt>
      <trkpt lat="37.085659" lon="-79.602713">
        <ele>259.385285</ele>
        <time>2025-04-04T10:39:59.000Z</time>
      </trkpt>
      <trkpt lat="37.085447" lon="-79.602973">
        <ele>259.251169</ele>
        <time>2025-04-04T10:40:02.000Z</time>
      </trkpt>
      <trkpt lat="37.085184" lon="-79.603161">
        <ele>259.344365</ele>
        <time>2025-04-04T10:40:05.000Z</time>
      </trkpt>
      <trkpt lat="37.083923" lon="-79.60363">
        <ele>259.759101</ele>
        <time>2025-04-04T10:40:20.000Z</time>
      </trkpt>
      <trkpt lat="37.083614" lon="-79.603827">
        <ele>259.56475</ele>
        <time>2025-04-04T10:40:24.000Z</time>
      </trkpt>
      <trkpt lat="37.083371" lon="-79.604113">
        <ele>259.35718</ele>
        <time>2025-04-04T10:40:28.000Z</time>
      </trkpt>
      <trkpt lat="37.083197" lon="-79.604418">
        <ele>259.164804</ele>
        <time>2025-04-04T10:40:31.000Z</time>
      </trkpt>
      <trkpt lat="37.083115" lon="-79.604696">
        <ele>259.017362</ele>
        <time>2025-04-04T10:40:34.000Z</time>
      </trkpt>
      <trkpt lat="37.082973" lon="-79.606614">
        <ele>258.729044</ele>
        <time>2025-04-04T10:40:51.000Z</time>
      </trkpt>
      <trkpt lat="37.082876" lon="-79.606946">
        <ele>258.758286</ele>
        <time>2025-04-04T10:40:54.000Z</time>
      </trkpt>
      <trkpt lat="37.082807" lon="-79.607139">
        <ele>258.775845</ele>
        <time>2025-04-04T10:40:56.000Z</time>
      </trkpt>
      <trkpt lat="37.082622" lon="-79.607484">
        <ele>258.81019</ele>
        <time>2025-04-04T10:41:00.000Z</time>
      </trkpt>
      <trkpt lat="37.082454" lon="-79.60763">
        <ele>258.519663</ele>
        <time>2025-04-04T10:41:02.000Z</time>
      </trkpt>
      <trkpt lat="37.08215" lon="-79.607808">
        <ele>257.683879</ele>
        <time>2025-04-04T10:41:06.000Z</time>
      </trkpt>
      <trkpt lat="37.081576" lon="-79.608032">
        <ele>256.178356</ele>
        <time>2025-04-04T10:41:13.000Z</time>
      </trkpt>
      <trkpt lat="37.081308" lon="-79.608207">
        <ele>255.39074</ele>
        <time>2025-04-04T10:41:16.000Z</time>
      </trkpt>
      <trkpt lat="37.080925" lon="-79.608525">
        <ele>254.256319</ele>
        <time>2025-04-04T10:41:21.000Z</time>
      </trkpt>
      <trkpt lat="37.080355" lon="-79.60908">
        <ele>251.354333</ele>
        <time>2025-04-04T10:41:29.000Z</time>
      </trkpt>
      <trkpt lat="37.080153" lon="-79.609349">
        <ele>250.159824</ele>
        <time>2025-04-04T10:41:32.000Z</time>
      </trkpt>
      <trkpt lat="37.08009" lon="-79.609443">
        <ele>249.79238</ele>
        <time>2025-04-04T10:41:33.000Z</time>
      </trkpt>
      <trkpt lat="37.080025" lon="-79.609653">
        <ele>249.068393</ele>
        <time>2025-04-04T10:41:35.000Z</time>
      </trkpt>
      <trkpt lat="37.080018" lon="-79.60983">
        <ele>248.487179</ele>
        <time>2025-04-04T10:41:37.000Z</time>
      </trkpt>
      <trkpt lat="37.080051" lon="-79.610269">
        <ele>247.082736</ele>
        <time>2025-04-04T10:41:41.000Z</time>
      </trkpt>
      <trkpt lat="37.080028" lon="-79.610441">
        <ele>247.025921</ele>
        <time>2025-04-04T10:41:43.000Z</time>
      </trkpt>
      <trkpt lat="37.079994" lon="-79.610517">
        <ele>246.999472</ele>
        <time>2025-04-04T10:41:44.000Z</time>
      </trkpt>
      <trkpt lat="37.079728" lon="-79.610765">
        <ele>246.868119</ele>
        <time>2025-04-04T10:41:48.000Z</time>
      </trkpt>
      <trkpt lat="37.079653" lon="-79.610889">
        <ele>246.814846</ele>
        <time>2025-04-04T10:41:49.000Z</time>
      </trkpt>
      <trkpt lat="37.079542" lon="-79.611194">
        <ele>246.710811</ele>
        <time>2025-04-04T10:41:52.000Z</time>
      </trkpt>
      <trkpt lat="37.079456" lon="-79.611539">
        <ele>246.599275</ele>
        <time>2025-04-04T10:41:55.000Z</time>
      </trkpt>
      <trkpt lat="37.07936" lon="-79.611695">
        <ele>246.536546</ele>
        <time>2025-04-04T10:41:57.000Z</time>
      </trkpt>
      <trkpt lat="37.079171" lon="-79.611847">
        <ele>246.445662</ele>
        <time>2025-04-04T10:41:59.000Z</time>
      </trkpt>
      <trkpt lat="37.078782" lon="-79.611989">
        <ele>246.664004</ele>
        <time>2025-04-04T10:42:04.000Z</time>
      </trkpt>
      <trkpt lat="37.078669" lon="-79.612052">
        <ele>246.858277</ele>
        <time>2025-04-04T10:42:05.000Z</time>
      </trkpt>
      <trkpt lat="37.078594" lon="-79.612139">
        <ele>247.013471</ele>
        <time>2025-04-04T10:42:06.000Z</time>
      </trkpt>
      <trkpt lat="37.078524" lon="-79.612252">
        <ele>247.167571</ele>
        <time>2025-04-04T10:42:07.000Z</time>
      </trkpt>
      <trkpt lat="37.078469" lon="-79.612444">
        <ele>247.396602</ele>
        <time>2025-04-04T10:42:09.000Z</time>
      </trkpt>
      <trkpt lat="37.07847" lon="-79.612626">
        <ele>247.626733</ele>
        <time>2025-04-04T10:42:11.000Z</time>
      </trkpt>
      <trkpt lat="37.078575" lon="-79.613031">
        <ele>248.130407</ele>
        <time>2025-04-04T10:42:15.000Z</time>
      </trkpt>
      <trkpt lat="37.078684" lon="-79.613363">
        <ele>248.559577</ele>
        <time>2025-04-04T10:42:18.000Z</time>
      </trkpt>
      <trkpt lat="37.078818" lon="-79.613716">
        <ele>249.018177</ele>
        <time>2025-04-04T10:42:21.000Z</time>
      </trkpt>
      <trkpt lat="37.079074" lon="-79.614124">
        <ele>249.206645</ele>
        <time>2025-04-04T10:42:26.000Z</time>
      </trkpt>
      <trkpt lat="37.079206" lon="-79.614449">
        <ele>249.329318</ele>
        <time>2025-04-04T10:42:29.000Z</time>
      </trkpt>
      <trkpt lat="37.079273" lon="-79.614826">
        <ele>249.450241</ele>
        <time>2025-04-04T10:42:32.000Z</time>
      </trkpt>
      <trkpt lat="37.079301" lon="-79.615068">
        <ele>249.529671</ele>
        <time>2025-04-04T10:42:34.000Z</time>
      </trkpt>
      <trkpt lat="37.07929" lon="-79.615238">
        <ele>249.583372</ele>
        <time>2025-04-04T10:42:36.000Z</time>
      </trkpt>
      <trkpt lat="37.07926" lon="-79.615392">
        <ele>249.636346</ele>
        <time>2025-04-04T10:42:37.000Z</time>
      </trkpt>
      <trkpt lat="37.07923" lon="-79.615442">
        <ele>249.656089</ele>
        <time>2025-04-04T10:42:38.000Z</time>
      </trkpt>
      <trkpt lat="37.07925" lon="-79.615392">
        <ele>249.675826</ele>
        <time>2025-04-04T10:42:38.000Z</time>
      </trkpt>
      <trkpt lat="37.079292" lon="-79.615239">
        <ele>249.728801</ele>
        <time>2025-04-04T10:42:39.000Z</time>
      </trkpt>
      <trkpt lat="37.0793" lon="-79.61508">
        <ele>249.752628</ele>
        <time>2025-04-04T10:42:40.000Z</time>
      </trkpt>
      <trkpt lat="37.079289" lon="-79.614824">
        <ele>249.583202</ele>
        <time>2025-04-04T10:42:42.000Z</time>
      </trkpt>
      <trkpt lat="37.07921" lon="-79.614451">
        <ele>249.325314</ele>
        <time>2025-04-04T10:42:45.000Z</time>
      </trkpt>
      <trkpt lat="37.079064" lon="-79.614123">
        <ele>249.063667</ele>
        <time>2025-04-04T10:42:48.000Z</time>
      </trkpt>
      <trkpt lat="37.078826" lon="-79.613712">
        <ele>248.715107</ele>
        <time>2025-04-04T10:42:53.000Z</time>
      </trkpt>
      <trkpt lat="37.078692" lon="-79.613357">
        <ele>248.452915</ele>
        <time>2025-04-04T10:42:56.000Z</time>
      </trkpt>
      <trkpt lat="37.078576" lon="-79.613033">
        <ele>248.195215</ele>
        <time>2025-04-04T10:42:59.000Z</time>
      </trkpt>
      <trkpt lat="37.078476" lon="-79.612622">
        <ele>247.782793</ele>
        <time>2025-04-04T10:43:03.000Z</time>
      </trkpt>
      <trkpt lat="37.078485" lon="-79.612436">
        <ele>247.594343</ele>
        <time>2025-04-04T10:43:05.000Z</time>
      </trkpt>
      <trkpt lat="37.078527" lon="-79.612248">
        <ele>247.406806</ele>
        <time>2025-04-04T10:43:07.000Z</time>
      </trkpt>
      <trkpt lat="37.078592" lon="-79.612145">
        <ele>247.28061</ele>
        <time>2025-04-04T10:43:08.000Z</time>
      </trkpt>
      <trkpt lat="37.078652" lon="-79.612064">
        <ele>247.15355</ele>
        <time>2025-04-04T10:43:09.000Z</time>
      </trkpt>
      <trkpt lat="37.078771" lon="-79.61199">
        <ele>246.994477</ele>
        <time>2025-04-04T10:43:10.000Z</time>
      </trkpt>
      <trkpt lat="37.079174" lon="-79.611858">
        <ele>246.498153</ele>
        <time>2025-04-04T10:43:15.000Z</time>
      </trkpt>
      <trkpt lat="37.079355" lon="-79.611688">
        <ele>246.21802</ele>
        <time>2025-04-04T10:43:18.000Z</time>
      </trkpt>
      <trkpt lat="37.079458" lon="-79.611522">
        <ele>246.046848</ele>
        <time>2025-04-04T10:43:20.000Z</time>
      </trkpt>
      <trkpt lat="37.079545" lon="-79.611196">
        <ele>246.4489</ele>
        <time>2025-04-04T10:43:23.000Z</time>
      </trkpt>
      <trkpt lat="37.07965" lon="-79.610896">
        <ele>246.823837</ele>
        <time>2025-04-04T10:43:26.000Z</time>
      </trkpt>
      <trkpt lat="37.079731" lon="-79.610776">
        <ele>247.015907</ele>
        <time>2025-04-04T10:43:27.000Z</time>
      </trkpt>
      <trkpt lat="37.079994" lon="-79.610511">
        <ele>247.489321</ele>
        <time>2025-04-04T10:43:31.000Z</time>
      </trkpt>
      <trkpt lat="37.080032" lon="-79.610447">
        <ele>247.584637</ele>
        <time>2025-04-04T10:43:32.000Z</time>
      </trkpt>
      <trkpt lat="37.080064" lon="-79.610272">
        <ele>247.775641</ele>
        <time>2025-04-04T10:43:34.000Z</time>
      </trkpt>
      <trkpt lat="37.080033" lon="-79.609831">
        <ele>248.278996</ele>
        <time>2025-04-04T10:43:38.000Z</time>
      </trkpt>
      <trkpt lat="37.080028" lon="-79.609653">
        <ele>248.487323</ele>
        <time>2025-04-04T10:43:40.000Z</time>
      </trkpt>
      <trkpt lat="37.080097" lon="-79.609447">
        <ele>249.055076</ele>
        <time>2025-04-04T10:43:42.000Z</time>
      </trkpt>
      <trkpt lat="37.080152" lon="-79.609344">
        <ele>249.481987</ele>
        <time>2025-04-04T10:43:43.000Z</time>
      </trkpt>
      <trkpt lat="37.080351" lon="-79.609077">
        <ele>250.869755</ele>
        <time>2025-04-04T10:43:46.000Z</time>
      </trkpt>
      <trkpt lat="37.080939" lon="-79.608518">
        <ele>254.241266</ele>
        <time>2025-04-04T10:43:54.000Z</time>
      </trkpt>
      <trkpt lat="37.081301" lon="-79.608204">
        <ele>256.314647</ele>
        <time>2025-04-04T10:43:59.000Z</time>
      </trkpt>
      <trkpt lat="37.081572" lon="-79.608019">
        <ele>257.104578</ele>
        <time>2025-04-04T10:44:02.000Z</time>
      </trkpt>
      <trkpt lat="37.082149" lon="-79.607811">
        <ele>257.621481</ele>
        <time>2025-04-04T10:44:09.000Z</time>
      </trkpt>
      <trkpt lat="37.082454" lon="-79.607636">
        <ele>257.90845</ele>
        <time>2025-04-04T10:44:13.000Z</time>
      </trkpt>
      <trkpt lat="37.082615" lon="-79.607484">
        <ele>258.092469</ele>
        <time>2025-04-04T10:44:15.000Z</time>
      </trkpt>
      <trkpt lat="37.082811" lon="-79.607135">
        <ele>258.381313</ele>
        <time>2025-04-04T10:44:19.000Z</time>
      </trkpt>
      <trkpt lat="37.082893" lon="-79.606954">
        <ele>258.523118</ele>
        <time>2025-04-04T10:44:21.000Z</time>
      </trkpt>
      <trkpt lat="37.082962" lon="-79.606604">
        <ele>258.620534</ele>
        <time>2025-04-04T10:44:24.000Z</time>
      </trkpt>
      <trkpt lat="37.083109" lon="-79.604703">
        <ele>259.146658</ele>
        <time>2025-04-04T10:44:41.000Z</time>
      </trkpt>
      <trkpt lat="37.08319" lon="-79.604433">
        <ele>259.211062</ele>
        <time>2025-04-04T10:44:44.000Z</time>
      </trkpt>
      <trkpt lat="37.083379" lon="-79.604121">
        <ele>259.295102</ele>
        <time>2025-04-04T10:44:47.000Z</time>
      </trkpt>
      <trkpt lat="37.083611" lon="-79.603835">
        <ele>259.385769</ele>
        <time>2025-04-04T10:44:51.000Z</time>
      </trkpt>
      <trkpt lat="37.083906" lon="-79.603635">
        <ele>259.479885</ele>
        <time>2025-04-04T10:44:55.000Z</time>
      </trkpt>
      <trkpt lat="37.085194" lon="-79.603172">
        <ele>259.568617</ele>
        <time>2025-04-04T10:45:10.000Z</time>
      </trkpt>
      <trkpt lat="37.085433" lon="-79.602977">
        <ele>259.543055</ele>
        <time>2025-04-04T10:45:13.000Z</time>
      </trkpt>
      <trkpt lat="37.085669" lon="-79.602709">
        <ele>259.516806</ele>
        <time>2025-04-04T10:45:17.000Z</time>
      </trkpt>
      <trkpt lat="37.085831" lon="-79.602444">
        <ele>259.494061</ele>
        <time>2025-04-04T10:45:20.000Z</time>
      </trkpt>
      <trkpt lat="37.086007" lon="-79.602023">
        <ele>259.853014</ele>
        <time>2025-04-04T10:45:24.000Z</time>
      </trkpt>
      <trkpt lat="37.086756" lon="-79.59971">
        <ele>263.244349</ele>
        <time>2025-04-04T10:45:46.000Z</time>
      </trkpt>
      <trkpt lat="37.086896" lon="-79.599363">
        <ele>263.828854</ele>
        <time>2025-04-04T10:45:49.000Z</time>
      </trkpt>
      <trkpt lat="37.08698" lon="-79.599267">
        <ele>264.041923</ele>
        <time>2025-04-04T10:45:50.000Z</time>
      </trkpt>
      <trkpt lat="37.087299" lon="-79.598922">
        <ele>264.830712</ele>
        <time>2025-04-04T10:45:55.000Z</time>
      </trkpt>
      <trkpt lat="37.087772" lon="-79.598594">
        <ele>265.85977</ele>
        <time>2025-04-04T10:46:01.000Z</time>
      </trkpt>
      <trkpt lat="37.088265" lon="-79.598213">
        <ele>268.076727</ele>
        <time>2025-04-04T10:46:07.000Z</time>
      </trkpt>
      <trkpt lat="37.088596" lon="-79.597881">
        <ele>269.656087</ele>
        <time>2025-04-04T10:46:12.000Z</time>
      </trkpt>
      <trkpt lat="37.089135" lon="-79.597128">
        <ele>272.698023</ele>
        <time>2025-04-04T10:46:21.000Z</time>
      </trkpt>
      <trkpt lat="37.089561" lon="-79.596378">
        <ele>274.646646</ele>
        <time>2025-04-04T10:46:29.000Z</time>
      </trkpt>
      <trkpt lat="37.089748" lon="-79.596056">
        <ele>275.438188</ele>
        <time>2025-04-04T10:46:33.000Z</time>
      </trkpt>
      <trkpt lat="37.089824" lon="-79.595932">
        <ele>275.795584</ele>
        <time>2025-04-04T10:46:34.000Z</time>
      </trkpt>
      <trkpt lat="37.090168" lon="-79.595298">
        <ele>277.390066</ele>
        <time>2025-04-04T10:46:41.000Z</time>
      </trkpt>
      <trkpt lat="37.0911" lon="-79.593643">
        <ele>277.626452</ele>
        <time>2025-04-04T10:46:59.000Z</time>
      </trkpt>
      <trkpt lat="37.091406" lon="-79.59314">
        <ele>277.125809</ele>
        <time>2025-04-04T10:47:05.000Z</time>
      </trkpt>
      <trkpt lat="37.091515" lon="-79.593431">
        <ele>276.711376</ele>
        <time>2025-04-04T10:47:08.000Z</time>
      </trkpt>
      <trkpt lat="37.092186" lon="-79.595278">
        <ele>273.878353</ele>
        <time>2025-04-04T10:47:26.000Z</time>
      </trkpt>
      <trkpt lat="37.093367" lon="-79.598669">
        <ele>266.755753</ele>
        <time>2025-04-04T10:47:59.000Z</time>
      </trkpt>
      <trkpt lat="37.093987" lon="-79.600382">
        <ele>261.489639</ele>
        <time>2025-04-04T10:48:16.000Z</time>
      </trkpt>
      <trkpt lat="37.0941" lon="-79.600677">
        <ele>260.574386</ele>
        <time>2025-04-04T10:48:19.000Z</time>
      </trkpt>
      <trkpt lat="37.094398" lon="-79.601483">
        <ele>258.75976</ele>
        <time>2025-04-04T10:48:27.000Z</time>
      </trkpt>
      <trkpt lat="37.094622" lon="-79.601894">
        <ele>258.069671</ele>
        <time>2025-04-04T10:48:31.000Z</time>
      </trkpt>
      <trkpt lat="37.09494" lon="-79.602207">
        <ele>257.371635</ele>
        <time>2025-04-04T10:48:35.000Z</time>
      </trkpt>
      <trkpt lat="37.095881" lon="-79.602944">
        <ele>255.449081</ele>
        <time>2025-04-04T10:48:47.000Z</time>
      </trkpt>
      <trkpt lat="37.096067" lon="-79.603136">
        <ele>255.024777</ele>
        <time>2025-04-04T10:48:50.000Z</time>
      </trkpt>
      <trkpt lat="37.096972" lon="-79.604254">
        <ele>252.934698</ele>
        <time>2025-04-04T10:49:04.000Z</time>
      </trkpt>
      <trkpt lat="37.097072" lon="-79.604441">
        <ele>252.705002</ele>
        <time>2025-04-04T10:49:06.000Z</time>
      </trkpt>
      <trkpt lat="37.097228" lon="-79.604779">
        <ele>252.310567</ele>
        <time>2025-04-04T10:49:09.000Z</time>
      </trkpt>
      <trkpt lat="37.097318" lon="-79.60512">
        <ele>251.956668</ele>
        <time>2025-04-04T10:49:12.000Z</time>
      </trkpt>
      <trkpt lat="37.097352" lon="-79.605487">
        <ele>251.582118</ele>
        <time>2025-04-04T10:49:15.000Z</time>
      </trkpt>
      <trkpt lat="37.097212" lon="-79.60792">
        <ele>252.216623</ele>
        <time>2025-04-04T10:49:37.000Z</time>
      </trkpt>
      <trkpt lat="37.097112" lon="-79.608392">
        <ele>252.55176</ele>
        <time>2025-04-04T10:49:41.000Z</time>
      </trkpt>
      <trkpt lat="37.097018" lon="-79.608622">
        <ele>252.738719</ele>
        <time>2025-04-04T10:49:43.000Z</time>
      </trkpt>
      <trkpt lat="37.096863" lon="-79.608852">
        <ele>252.967699</ele>
        <time>2025-04-04T10:49:46.000Z</time>
      </trkpt>
      <trkpt lat="37.096698" lon="-79.609009">
        <ele>253.154285</ele>
        <time>2025-04-04T10:49:48.000Z</time>
      </trkpt>
      <trkpt lat="37.096676" lon="-79.609034">
        <ele>253.190909</ele>
        <time>2025-04-04T10:49:48.000Z</time>
      </trkpt>
      <trkpt lat="37.096412" lon="-79.609226">
        <ele>253.467899</ele>
        <time>2025-04-04T10:49:51.000Z</time>
      </trkpt>
      <trkpt lat="37.096146" lon="-79.609404">
        <ele>253.751994</ele>
        <time>2025-04-04T10:49:54.000Z</time>
      </trkpt>
      <trkpt lat="37.096001" lon="-79.6095">
        <ele>253.898892</ele>
        <time>2025-04-04T10:49:56.000Z</time>
      </trkpt>
      <trkpt lat="37.095796" lon="-79.609872">
        <ele>254.173218</ele>
        <time>2025-04-04T10:50:00.000Z</time>
      </trkpt>
      <trkpt lat="37.09573" lon="-79.609915">
        <ele>254.173215</ele>
        <time>2025-04-04T10:50:01.000Z</time>
      </trkpt>
      <trkpt lat="37.095682" lon="-79.609941">
        <ele>254.173209</ele>
        <time>2025-04-04T10:50:02.000Z</time>
      </trkpt>
      <trkpt lat="37.09562" lon="-79.610049">
        <ele>254.173206</ele>
        <time>2025-04-04T10:50:03.000Z</time>
      </trkpt>
      <trkpt lat="37.095578" lon="-79.61009">
        <ele>254.17322</ele>
        <time>2025-04-04T10:50:04.000Z</time>
      </trkpt>
      <trkpt lat="37.095084" lon="-79.61038">
        <ele>254.17321</ele>
        <time>2025-04-04T10:50:10.000Z</time>
      </trkpt>
      <trkpt lat="37.095075" lon="-79.610381">
        <ele>254.173218</ele>
        <time>2025-04-04T10:50:10.000Z</time>
      </trkpt>
      <trkpt lat="37.095037" lon="-79.610392">
        <ele>254.173216</ele>
        <time>2025-04-04T10:50:10.000Z</time>
      </trkpt>
      <trkpt lat="37.094981" lon="-79.610333">
        <ele>254.173213</ele>
        <time>2025-04-04T10:50:11.000Z</time>
      </trkpt>
      <trkpt lat="37.094917" lon="-79.610194">
        <ele>254.173206</ele>
        <time>2025-04-04T10:50:12.000Z</time>
      </trkpt>
      <trkpt lat="37.095449" lon="-79.609872">
        <ele>254.173204</ele>
        <time>2025-04-04T10:50:19.000Z</time>
      </trkpt>
      <trkpt lat="37.095495" lon="-79.609843">
        <ele>253.76444</ele>
        <time>2025-04-04T10:50:20.000Z</time>
      </trkpt>
      <trkpt lat="37.095531" lon="-79.609832">
        <ele>253.76444</ele>
        <time>2025-04-04T10:50:20.000Z</time>
      </trkpt>
      <trkpt lat="37.095594" lon="-79.609815">
        <ele>253.764441</ele>
        <time>2025-04-04T10:50:21.000Z</time>
      </trkpt>
      <trkpt lat="37.095615" lon="-79.609774">
        <ele>253.764451</ele>
        <time>2025-04-04T10:50:21.000Z</time>
      </trkpt>
      <trkpt lat="37.09569" lon="-79.60969">
        <ele>253.764448</ele>
        <time>2025-04-04T10:50:22.000Z</time>
      </trkpt>
      <trkpt lat="37.095997" lon="-79.609502">
        <ele>253.764447</ele>
        <time>2025-04-04T10:50:26.000Z</time>
      </trkpt>
      <trkpt lat="37.096139" lon="-79.609401">
        <ele>253.764444</ele>
        <time>2025-04-04T10:50:28.000Z</time>
      </trkpt>
      <trkpt lat="37.09641" lon="-79.609213">
        <ele>253.577005</ele>
        <time>2025-04-04T10:50:31.000Z</time>
      </trkpt>
      <trkpt lat="37.096672" lon="-79.609038">
        <ele>253.258511</ele>
        <time>2025-04-04T10:50:34.000Z</time>
      </trkpt>
      <trkpt lat="37.096706" lon="-79.609018">
        <ele>253.216389</ele>
        <time>2025-04-04T10:50:34.000Z</time>
      </trkpt>
      <trkpt lat="37.096874" lon="-79.608858">
        <ele>253.001842</ele>
        <time>2025-04-04T10:50:36.000Z</time>
      </trkpt>
      <trkpt lat="37.097021" lon="-79.608613">
        <ele>252.738538</ele>
        <time>2025-04-04T10:50:39.000Z</time>
      </trkpt>
      <trkpt lat="37.097118" lon="-79.608388">
        <ele>252.523548</ele>
        <time>2025-04-04T10:50:41.000Z</time>
      </trkpt>
      <trkpt lat="37.097212" lon="-79.607925">
        <ele>252.109422</ele>
        <time>2025-04-04T10:50:45.000Z</time>
      </trkpt>
      <trkpt lat="37.097335" lon="-79.60548">
        <ele>251.212155</ele>
        <time>2025-04-04T10:51:07.000Z</time>
      </trkpt>
      <trkpt lat="37.09731" lon="-79.60511">
        <ele>251.53212</ele>
        <time>2025-04-04T10:51:10.000Z</time>
      </trkpt>
      <trkpt lat="37.097221" lon="-79.604776">
        <ele>252.028124</ele>
        <time>2025-04-04T10:51:13.000Z</time>
      </trkpt>
      <trkpt lat="37.097066" lon="-79.604433">
        <ele>252.580933</ele>
        <time>2025-04-04T10:51:16.000Z</time>
      </trkpt>
      <trkpt lat="37.09697" lon="-79.604251">
        <ele>252.902871</ele>
        <time>2025-04-04T10:51:18.000Z</time>
      </trkpt>
      <trkpt lat="37.096075" lon="-79.60314">
        <ele>255.079635</ele>
        <time>2025-04-04T10:51:32.000Z</time>
      </trkpt>
      <trkpt lat="37.095885" lon="-79.602931">
        <ele>255.472648</ele>
        <time>2025-04-04T10:51:35.000Z</time>
      </trkpt>
      <trkpt lat="37.094926" lon="-79.602204">
        <ele>257.255533</ele>
        <time>2025-04-04T10:51:47.000Z</time>
      </trkpt>
      <trkpt lat="37.094621" lon="-79.6019">
        <ele>258.144146</ele>
        <time>2025-04-04T10:51:51.000Z</time>
      </trkpt>
      <trkpt lat="37.0944" lon="-79.601498">
        <ele>259.025726</ele>
        <time>2025-04-04T10:51:55.000Z</time>
      </trkpt>
      <trkpt lat="37.094088" lon="-79.600668">
        <ele>260.6145</ele>
        <time>2025-04-04T10:52:03.000Z</time>
      </trkpt>
      <trkpt lat="37.093986" lon="-79.600382">
        <ele>261.168881</ele>
        <time>2025-04-04T10:52:06.000Z</time>
      </trkpt>
      <trkpt lat="37.093356" lon="-79.598669">
        <ele>266.773459</ele>
        <time>2025-04-04T10:52:23.000Z</time>
      </trkpt>
      <trkpt lat="37.092183" lon="-79.59527">
        <ele>273.865116</ele>
        <time>2025-04-04T10:52:56.000Z</time>
      </trkpt>
      <trkpt lat="37.091511" lon="-79.593442">
        <ele>276.617772</ele>
        <time>2025-04-04T10:53:14.000Z</time>
      </trkpt>
      <trkpt lat="37.09141" lon="-79.593154">
        <ele>276.889133</ele>
        <time>2025-04-04T10:53:17.000Z</time>
      </trkpt>
      <trkpt lat="37.0911" lon="-79.593638">
        <ele>277.430218</ele>
        <time>2025-04-04T10:53:23.000Z</time>
      </trkpt>
      <trkpt lat="37.090168" lon="-79.595298">
        <ele>276.958587</ele>
        <time>2025-04-04T10:53:41.000Z</time>
      </trkpt>
      <trkpt lat="37.089826" lon="-79.595933">
        <ele>276.432595</ele>
        <time>2025-04-04T10:53:48.000Z</time>
      </trkpt>
      <trkpt lat="37.089739" lon="-79.596057">
        <ele>275.954343</ele>
        <time>2025-04-04T10:53:49.000Z</time>
      </trkpt>
      <trkpt lat="37.089565" lon="-79.596367">
        <ele>274.895157</ele>
        <time>2025-04-04T10:53:52.000Z</time>
      </trkpt>
      <trkpt lat="37.089135" lon="-79.597122">
        <ele>272.28766</ele>
        <time>2025-04-04T10:54:00.000Z</time>
      </trkpt>
      <trkpt lat="37.088595" lon="-79.59788">
        <ele>269.55181</ele>
        <time>2025-04-04T10:54:09.000Z</time>
      </trkpt>
      <trkpt lat="37.088265" lon="-79.598211">
        <ele>268.241915</ele>
        <time>2025-04-04T10:54:14.000Z</time>
      </trkpt>
      <trkpt lat="37.08777" lon="-79.598598">
        <ele>266.390509</ele>
        <time>2025-04-04T10:54:20.000Z</time>
      </trkpt>
      <trkpt lat="37.087297" lon="-79.598938">
        <ele>264.686864</ele>
        <time>2025-04-04T10:54:26.000Z</time>
      </trkpt>
      <trkpt lat="37.08698" lon="-79.599256">
        <ele>263.894033</ele>
        <time>2025-04-04T10:54:31.000Z</time>
      </trkpt>
      <trkpt lat="37.086903" lon="-79.599361">
        <ele>263.691887</ele>
        <time>2025-04-04T10:54:32.000Z</time>
      </trkpt>
      <trkpt lat="37.086757" lon="-79.599708">
        <ele>263.137285</ele>
        <time>2025-04-04T10:54:35.000Z</time>
      </trkpt>
      <trkpt lat="37.086008" lon="-79.602024">
        <ele>260.165844</ele>
        <time>2025-04-04T10:54:57.000Z</time>
      </trkpt>
      <trkpt lat="37.085829" lon="-79.602447">
        <ele>259.700806</ele>
        <time>2025-04-04T10:55:01.000Z</time>
      </trkpt>
      <trkpt lat="37.085663" lon="-79.602717">
        <ele>259.385287</ele>
        <time>2025-04-04T10:55:04.000Z</time>
      </trkpt>
      <trkpt lat="37.085449" lon="-79.60298">
        <ele>259.251183</ele>
        <time>2025-04-04T10:55:07.000Z</time>
      </trkpt>
      <trkpt lat="37.085185" lon="-79.603173">
        <ele>259.344373</ele>
        <time>2025-04-04T10:55:10.000Z</time>
      </trkpt>
      <trkpt lat="37.083909" lon="-79.603643">
        <ele>259.759093</ele>
        <time>2025-04-04T10:55:25.000Z</time>
      </trkpt>
      <trkpt lat="37.083609" lon="-79.603818">
        <ele>259.564751</ele>
        <time>2025-04-04T10:55:29.000Z</time>
      </trkpt>
      <trkpt lat="37.083362" lon="-79.604111">
        <ele>259.357185</ele>
        <time>2025-04-04T10:55:33.000Z</time>
      </trkpt>
      <trkpt lat="37.083188" lon="-79.604436">
        <ele>259.164793</ele>
        <time>2025-04-04T10:55:36.000Z</time>
      </trkpt>
      <trkpt lat="37.083118" lon="-79.604693">
        <ele>259.017369</ele>
        <time>2025-04-04T10:55:38.000Z</time>
      </trkpt>
      <trkpt lat="37.082958" lon="-79.606616">
        <ele>258.729039</ele>
        <time>2025-04-04T10:55:55.000Z</time>
      </trkpt>
      <trkpt lat="37.082876" lon="-79.606943">
        <ele>258.758285</ele>
        <time>2025-04-04T10:55:58.000Z</time>
      </trkpt>
      <trkpt lat="37.082813" lon="-79.607135">
        <ele>258.775841</ele>
        <time>2025-04-04T10:56:00.000Z</time>
      </trkpt>
      <trkpt lat="37.082616" lon="-79.607471">
        <ele>258.810191</ele>
        <time>2025-04-04T10:56:04.000Z</time>
      </trkpt>
      <trkpt lat="37.082441" lon="-79.607637">
        <ele>258.51966</ele>
        <time>2025-04-04T10:56:06.000Z</time>
      </trkpt>
      <trkpt lat="37.082151" lon="-79.607799">
        <ele>257.68389</ele>
        <time>2025-04-04T10:56:10.000Z</time>
      </trkpt>
      <trkpt lat="37.08158" lon="-79.608024">
        <ele>256.178355</ele>
        <time>2025-04-04T10:56:17.000Z</time>
      </trkpt>
      <trkpt lat="37.081308" lon="-79.608195">
        <ele>255.390754</ele>
        <time>2025-04-04T10:56:20.000Z</time>
      </trkpt>
      <trkpt lat="37.08094" lon="-79.608517">
        <ele>254.25632</ele>
        <time>2025-04-04T10:56:25.000Z</time>
      </trkpt>
      <trkpt lat="37.080347" lon="-79.609081">
        <ele>251.354333</ele>
        <time>2025-04-04T10:56:33.000Z</time>
      </trkpt>
      <trkpt lat="37.080154" lon="-79.60935">
        <ele>250.159823</ele>
        <time>2025-04-04T10:56:36.000Z</time>
      </trkpt>
      <trkpt lat="37.080093" lon="-79.609442">
        <ele>249.792386</ele>
        <time>2025-04-04T10:56:37.000Z</time>
      </trkpt>
      <trkpt lat="37.080027" lon="-79.609663">
        <ele>249.068395</ele>
        <time>2025-04-04T10:56:39.000Z</time>
      </trkpt>
      <trkpt lat="37.080032" lon="-79.609838">
        <ele>248.487173</ele>
        <time>2025-04-04T10:56:41.000Z</time>
      </trkpt>
      <trkpt lat="37.080062" lon="-79.610284">
        <ele>247.082746</ele>
        <time>2025-04-04T10:56:45.000Z</time>
      </trkpt>
      <trkpt lat="37.080017" lon="-79.610429">
        <ele>247.025912</ele>
        <time>2025-04-04T10:56:46.000Z</time>
      </trkpt>
      <trkpt lat="37.08" lon="-79.610506">
        <ele>246.999466</ele>
        <time>2025-04-04T10:56:47.000Z</time>
      </trkpt>
      <trkpt lat="37.079725" lon="-79.610768">
        <ele>246.868125</ele>
        <time>2025-04-04T10:56:51.000Z</time>
      </trkpt>
      <trkpt lat="37.079652" lon="-79.610899">
        <ele>246.814847</ele>
        <time>2025-04-04T10:56:52.000Z</time>
      </trkpt>
      <trkpt lat="37.079545" lon="-79.611193">
        <ele>246.710815</ele>
        <time>2025-04-04T10:56:55.000Z</time>
      </trkpt>
      <trkpt lat="37.079448" lon="-79.611536">
        <ele>246.59926</ele>
        <time>2025-04-04T10:56:58.000Z</time>
      </trkpt>
      <trkpt lat="37.079367" lon="-79.611695">
        <ele>246.536542</ele>
        <time>2025-04-04T10:57:00.000Z</time>
      </trkpt>
      <trkpt lat="37.07917" lon="-79.611851">
        <ele>246.445666</ele>
        <time>2025-04-04T10:57:03.000Z</time>
      </trkpt>
      <trkpt lat="37.078781" lon="-79.611991">
        <ele>246.664013</ele>
        <time>2025-04-04T10:57:08.000Z</time>
      </trkpt>
      <trkpt lat="37.078657" lon="-79.612057">
        <ele>246.858291</ele>
        <time>2025-04-04T10:57:09.000Z</time>
      </trkpt>
      <trkpt lat="37.078585" lon="-79.612144">
        <ele>247.013455</ele>
        <time>2025-04-04T10:57:10.000Z</time>
      </trkpt>
      <trkpt lat="37.078522" lon="-79.612256">
        <ele>247.167579</ele>
        <time>2025-04-04T10:57:11.000Z</time>
      </trkpt>
      <trkpt lat="37.078476" lon="-79.612433">
        <ele>247.396603</ele>
        <time>2025-04-04T10:57:13.000Z</time>
      </trkpt>
      <trkpt lat="37.07847" lon="-79.612635">
        <ele>247.626728</ele>
        <time>2025-04-04T10:57:15.000Z</time>
      </trkpt>
      <trkpt lat="37.078575" lon="-79.613032">
        <ele>248.130404</ele>
        <time>2025-04-04T10:57:19.000Z</time>
      </trkpt>
      <trkpt lat="37.078694" lon="-79.613366">
        <ele>248.559575</ele>
        <time>2025-04-04T10:57:22.000Z</time>
      </trkpt>
      <trkpt lat="37.078817" lon="-79.613707">
        <ele>249.018189</ele>
        <time>2025-04-04T10:57:25.000Z</time>
      </trkpt>
      <trkpt lat="37.079069" lon="-79.614112">
        <ele>249.20665</ele>
        <time>2025-04-04T10:57:30.000Z</time>
      </trkpt>
      <trkpt lat="37.079202" lon="-79.614463">
        <ele>249.329319</ele>
        <time>2025-04-04T10:57:33.000Z</time>
      </trkpt>
      <trkpt lat="37.079272" lon="-79.614816">
        <ele>249.450234</ele>
        <time>2025-04-04T10:57:36.000Z</time>
      </trkpt>
      <trkpt lat="37.079284" lon="-79.61508">
        <ele>249.529672</ele>
        <time>2025-04-04T10:57:38.000Z</time>
      </trkpt>
      <trkpt lat="37.079287" lon="-79.615244">
        <ele>249.583373</ele>
        <time>2025-04-04T10:57:39.000Z</time>
      </trkpt>
      <trkpt lat="37.079258" lon="-79.615402">
        <ele>249.636348</ele>
        <time>2025-04-04T10:57:40.000Z</time>
      </trkpt>
      <trkpt lat="37.07923" lon="-79.615449">
        <ele>249.656091</ele>
        <time>2025-04-04T10:57:41.000Z</time>
      </trkpt>
      <trkpt lat="37.079248" lon="-79.615393">
        <ele>249.675819</ele>
        <time>2025-04-04T10:57:42.000Z</time>
      </trkpt>
      <trkpt lat="37.079286" lon="-79.615239">
        <ele>249.728794</ele>
        <time>2025-04-04T10:57:43.000Z</time>
      </trkpt>
      <trkpt lat="37.07929" lon="-79.615076">
        <ele>249.752621</ele>
        <time>2025-04-04T10:57:44.000Z</time>
      </trkpt>
      <trkpt lat="37.079284" lon="-79.614821">
        <ele>249.583212</ele>
        <time>2025-04-04T10:57:46.000Z</time>
      </trkpt>
      <trkpt lat="37.079211" lon="-79.614453">
        <ele>249.325305</ele>
        <time>2025-04-04T10:57:49.000Z</time>
      </trkpt>
      <trkpt lat="37.079076" lon="-79.614123">
        <ele>249.063663</ele>
        <time>2025-04-04T10:57:52.000Z</time>
      </trkpt>
      <trkpt lat="37.078819" lon="-79.613718">
        <ele>248.715111</ele>
        <time>2025-04-04T10:57:57.000Z</time>
      </trkpt>
      <trkpt lat="37.078682" lon="-79.613367">
        <ele>248.452915</ele>
        <time>2025-04-04T10:58:00.000Z</time>
      </trkpt>
      <trkpt lat="37.078586" lon="-79.61303">
        <ele>248.195213</ele>
        <time>2025-04-04T10:58:03.000Z</time>
      </trkpt>
      <trkpt lat="37.078478" lon="-79.612622">
        <ele>247.782788</ele>
        <time>2025-04-04T10:58:07.000Z</time>
      </trkpt>
      <trkpt lat="37.078476" lon="-79.61244">
        <ele>247.594354</ele>
        <time>2025-04-04T10:58:09.000Z</time>
      </trkpt>
      <trkpt lat="37.078523" lon="-79.612255">
        <ele>247.406806</ele>
        <time>2025-04-04T10:58:11.000Z</time>
      </trkpt>
      <trkpt lat="37.078584" lon="-79.61214">
        <ele>247.280609</ele>
        <time>2025-04-04T10:58:12.000Z</time>
      </trkpt>
      <trkpt lat="37.078655" lon="-79.612065">
        <ele>247.153556</ele>
        <time>2025-04-04T10:58:13.000Z</time>
      </trkpt>
      <trkpt lat="37.078769" lon="-79.611991">
        <ele>246.994465</ele>
        <time>2025-04-04T10:58:14.000Z</time>
      </trkpt>
      <trkpt lat="37.079164" lon="-79.61186">
        <ele>246.498139</ele>
        <time>2025-04-04T10:58:19.000Z</time>
      </trkpt>
      <trkpt lat="37.079362" lon="-79.611688">
        <ele>246.218018</ele>
        <time>2025-04-04T10:58:22.000Z</time>
      </trkpt>
      <trkpt lat="37.079443" lon="-79.611534">
        <ele>246.046844</ele>
        <time>2025-04-04T10:58:24.000Z</time>
      </trkpt>
      <trkpt lat="37.079538" lon="-79.611189">
        <ele>246.448914</ele>
        <time>2025-04-04T10:58:27.000Z</time>
      </trkpt>
      <trkpt lat="37.079649" lon="-79.610906">
        <ele>246.823846</ele>
        <time>2025-04-04T10:58:30.000Z</time>
      </trkpt>
      <trkpt lat="37.079737" lon="-79.610779">
        <ele>247.015907</ele>
        <time>2025-04-04T10:58:31.000Z</time>
      </trkpt>
      <trkpt lat="37.079998" lon="-79.610505">
        <ele>247.489336</ele>
        <time>2025-04-04T10:58:35.000Z</time>
      </trkpt>
      <trkpt lat="37.080023" lon="-79.61044">
        <ele>247.584621</ele>
        <time>2025-04-04T10:58:36.000Z</time>
      </trkpt>
      <trkpt lat="37.080062" lon="-79.610281">
        <ele>247.775647</ele>
        <time>2025-04-04T10:58:37.000Z</time>
      </trkpt>
      <trkpt lat="37.080031" lon="-79.609842">
        <ele>248.279003</ele>
        <time>2025-04-04T10:58:41.000Z</time>
      </trkpt>
      <trkpt lat="37.080036" lon="-79.609662">
        <ele>248.487314</ele>
        <time>2025-04-04T10:58:43.000Z</time>
      </trkpt>
      <trkpt lat="37.080089" lon="-79.609435">
        <ele>249.055076</ele>
        <time>2025-04-04T10:58:45.000Z</time>
      </trkpt>
      <trkpt lat="37.080144" lon="-79.609349">
        <ele>249.481979</ele>
        <time>2025-04-04T10:58:46.000Z</time>
      </trkpt>
      <trkpt lat="37.080356" lon="-79.609071">
        <ele>250.869758</ele>
        <time>2025-04-04T10:58:49.000Z</time>
      </trkpt>
      <trkpt lat="37.080935" lon="-79.608529">
        <ele>254.241274</ele>
        <time>2025-04-04T10:58:57.000Z</time>
      </trkpt>
      <trkpt lat="37.081309" lon="-79.608207">
        <ele>256.314635</ele>
        <time>2025-04-04T10:59:02.000Z</time>
      </trkpt>
      <trkpt lat="37.081571" lon="-79.608018">
        <ele>257.104569</ele>
        <time>2025-04-04T10:59:05.000Z</time>
      </trkpt>
      <trkpt lat="37.082149" lon="-79.607802">
        <ele>257.621493</ele>
        <time>2025-04-04T10:59:12.000Z</time>
      </trkpt>
      <trkpt lat="37.082451" lon="-79.607632">
        <ele>257.908437</ele>
        <time>2025-04-04T10:59:16.000Z</time>
      </trkpt>
      <trkpt lat="37.082604" lon="-79.607484">
        <ele>258.092471</ele>
        <time>2025-04-04T10:59:18.000Z</time>
      </trkpt>
      <trkpt lat="37.082821" lon="-79.607147">
        <ele>258.381307</ele>
        <time>2025-04-04T10:59:22.000Z</time>
      </trkpt>
      <trkpt lat="37.082882" lon="-79.606954">
        <ele>258.523111</ele>
        <time>2025-04-04T10:59:24.000Z</time>
      </trkpt>
      <trkpt lat="37.082964" lon="-79.606605">
        <ele>258.620544</ele>
        <time>2025-04-04T10:59:27.000Z</time>
      </trkpt>
      <trkpt lat="37.083107" lon="-79.604696">
        <ele>259.146667</ele>
        <time>2025-04-04T10:59:44.000Z</time>
      </trkpt>
      <trkpt lat="37.083187" lon="-79.604435">
        <ele>259.211058</ele>
        <time>2025-04-04T10:59:46.000Z</time>
      </trkpt>
      <trkpt lat="37.083379" lon="-79.60412">
        <ele>259.295098</ele>
        <time>2025-04-04T10:59:50.000Z</time>
      </trkpt>
      <trkpt lat="37.083603" lon="-79.603818">
        <ele>259.385772</ele>
        <time>2025-04-04T10:59:54.000Z</time>
      </trkpt>
      <trkpt lat="37.083914" lon="-79.603629">
        <ele>259.479882</ele>
        <time>2025-04-04T10:59:58.000Z</time>
      </trkpt>
      <trkpt lat="37.085189" lon="-79.603173">
        <ele>259.568618</ele>
        <time>2025-04-04T11:00:13.000Z</time>
      </trkpt>
      <trkpt lat="37.085438" lon="-79.602979">
        <ele>259.543049</ele>
        <time>2025-04-04T11:00:16.000Z</time>
      </trkpt>
      <trkpt lat="37.085661" lon="-79.602718">
        <ele>259.51681</ele>
        <time>2025-04-04T11:00:19.000Z</time>
      </trkpt>
      <trkpt lat="37.08582" lon="-79.602451">
        <ele>259.494062</ele>
        <time>2025-04-04T11:00:22.000Z</time>
      </trkpt>
      <trkpt lat="37.086016" lon="-79.602022">
        <ele>259.853028</ele>
        <time>2025-04-04T11:00:26.000Z</time>
      </trkpt>
      <trkpt lat="37.086751" lon="-79.599705">
        <ele>263.244351</ele>
        <time>2025-04-04T11:00:48.000Z</time>
      </trkpt>
      <trkpt lat="37.086895" lon="-79.599373">
        <ele>263.828851</ele>
        <time>2025-04-04T11:00:51.000Z</time>
      </trkpt>
      <trkpt lat="37.08698" lon="-79.599261">
        <ele>264.041914</ele>
        <time>2025-04-04T11:00:52.000Z</time>
      </trkpt>
      <trkpt lat="37.087303" lon="-79.598925">
        <ele>264.83071</ele>
        <time>2025-04-04T11:00:57.000Z</time>
      </trkpt>
      <trkpt lat="37.087772" lon="-79.598605">
        <ele>265.859764</ele>
        <time>2025-04-04T11:01:03.000Z</time>
      </trkpt>
      <trkpt lat="37.088262" lon="-79.598209">
        <ele>268.076719</ele>
        <time>2025-04-04T11:01:09.000Z</time>
      </trkpt>
      <trkpt lat="37.088589" lon="-79.597879">
        <ele>269.656097</ele>
        <time>2025-04-04T11:01:14.000Z</time>
      </trkpt>
      <trkpt lat="37.08913" lon="-79.59714">
        <ele>272.698025</ele>
        <time>2025-04-04T11:01:23.000Z</time>
      </trkpt>
      <trkpt lat="37.089568" lon="-79.596375">
        <ele>274.646643</ele>
        <time>2025-04-04T11:01:31.000Z</time>
      </trkpt>
      <trkpt lat="37.089737" lon="-79.596067">
        <ele>275.438177</ele>
        <time>2025-04-04T11:01:34.000Z</time>
      </trkpt>
      <trkpt lat="37.089826" lon="-79.595918">
        <ele>275.795581</ele>
        <time>2025-04-04T11:01:36.000Z</time>
      </trkpt>
      <trkpt lat="37.09018" lon="-79.595292">
        <ele>277.390066</ele>
        <time>2025-04-04T11:01:43.000Z</time>
      </trkpt>
      <trkpt lat="37.091107" lon="-79.593648">
        <ele>277.62645</ele>
        <time>2025-04-04T11:02:01.000Z</time>
      </trkpt>
      <trkpt lat="37.091408" lon="-79.593142">
        <ele>277.125799</ele>
        <time>2025-04-04T11:02:07.000Z</time>
      </trkpt>
      <trkpt lat="37.091513" lon="-79.593444">
        <ele>276.711364</ele>
        <time>2025-04-04T11:02:10.000Z</time>
      </trkpt>
      <trkpt lat="37.092185" lon="-79.595269">
        <ele>273.878349</ele>
        <time>2025-04-04T11:02:28.000Z</time>
      </trkpt>
      <trkpt lat="37.093365" lon="-79.598664">
        <ele>266.75576</ele>
        <time>2025-04-04T11:03:01.000Z</time>
      </trkpt>
      <trkpt lat="37.093988" lon="-79.600378">
        <ele>261.489634</ele>
        <time>2025-04-04T11:03:18.000Z</time>
      </trkpt>
      <trkpt lat="37.094103" lon="-79.600666">
        <ele>260.574395</ele>
        <time>2025-04-04T11:03:21.000Z</time>
      </trkpt>
      <trkpt lat="37.094395" lon="-79.601489">
        <ele>258.759768</ele>
        <time>2025-04-04T11:03:29.000Z</time>
      </trkpt>
      <trkpt lat="37.094623" lon="-79.60189">
        <ele>258.069675</ele>
        <time>2025-04-04T11:03:33.000Z</time>
      </trkpt>
      <trkpt lat="37.094944" lon="-79.602209">
        <ele>257.371625</ele>
        <time>2025-04-04T11:03:38.000Z</time>
      </trkpt>
      <trkpt lat="37.09587" lon="-79.602944">
        <ele>255.449081</ele>
        <time>2025-04-04T11:03:50.000Z</time>
      </trkpt>
      <trkpt lat="37.096073" lon="-79.603129">
        <ele>255.024772</ele>
        <time>2025-04-04T11:03:53.000Z</time>
      </trkpt>
      <trkpt lat="37.096967" lon="-79.604249">
        <ele>252.934708</ele>
        <time>2025-04-04T11:04:07.000Z</time>
      </trkpt>
      <trkpt lat="37.097078" lon="-79.604432">
        <ele>252.70501</ele>
        <time>2025-04-04T11:04:09.000Z</time>
      </trkpt>
      <trkpt lat="37.09722" lon="-79.60478">
        <ele>252.310561</ele>
        <time>2025-04-04T11:04:12.000Z</time>
      </trkpt>
      <trkpt lat="37.097322" lon="-79.605118">
        <ele>251.95666</ele>
        <time>2025-04-04T11:04:15.000Z</time>
      </trkpt>
      <trkpt lat="37.097337" lon="-79.605479">
        <ele>251.582114</ele>
        <time>2025-04-04T11:04:18.000Z</time>
      </trkpt>
      <trkpt lat="37.097207" lon="-79.607924">
        <ele>252.21663</ele>
        <time>2025-04-04T11:04:40.000Z</time>
      </trkpt>
      <trkpt lat="37.097108" lon="-79.608384">
        <ele>252.551765</ele>
        <time>2025-04-04T11:04:44.000Z</time>
      </trkpt>
      <trkpt lat="37.097023" lon="-79.608618">
        <ele>252.738719</ele>
        <time>2025-04-04T11:04:46.000Z</time>
      </trkpt>
      <trkpt lat="37.096867" lon="-79.608855">
        <ele>252.967702</ele>
        <time>2025-04-04T11:04:49.000Z</time>
      </trkpt>
      <trkpt lat="37.0967" lon="-79.609001">
        <ele>253.154285</ele>
        <time>2025-04-04T11:04:51.000Z</time>
      </trkpt>
      <trkpt lat="37.096676" lon="-79.609029">
        <ele>253.190909</ele>
        <time>2025-04-04T11:04:51.000Z</time>
      </trkpt>
      <trkpt lat="37.096409" lon="-79.60922">
        <ele>253.467893</ele>
        <time>2025-04-04T11:04:54.000Z</time>
      </trkpt>
      <trkpt lat="37.09614" lon="-79.609403">
        <ele>253.751988</ele>
        <time>2025-04-04T11:04:57.000Z</time>
      </trkpt>
      <trkpt lat="37.096007" lon="-79.609502">
        <ele>253.898887</ele>
        <time>2025-04-04T11:04:59.000Z</time>
      </trkpt>
      <trkpt lat="37.095789" lon="-79.609867">
        <ele>254.17322</ele>
        <time>2025-04-04T11:05:03.000Z</time>
      </trkpt>
      <trkpt lat="37.095729" lon="-79.609916">
        <ele>254.173203</ele>
        <time>2025-04-04T11:05:04.000Z</time>
      </trkpt>
      <trkpt lat="37.09567" lon="-79.609932">
        <ele>254.173218</ele>
        <time>2025-04-04T11:05:05.000Z</time>
      </trkpt>
      <trkpt lat="37.095624" lon="-79.610048">
        <ele>254.173208</ele>
        <time>2025-04-04T11:05:06.000Z</time>
      </trkpt>
      <trkpt lat="37.095596" lon="-79.610095">
        <ele>254.173212</ele>
        <time>2025-04-04T11:05:07.000Z</time>
      </trkpt>
      <trkpt lat="37.095079" lon="-79.610376">
        <ele>254.173215</ele>
        <time>2025-04-04T11:05:13.000Z</time>
      </trkpt>
      <trkpt lat="37.095074" lon="-79.610375">
        <ele>254.173205</ele>
        <time>2025-04-04T11:05:13.000Z</time>
      </trkpt>
      <trkpt lat="37.095034" lon="-79.610382">
        <ele>254.173219</ele>
        <time>2025-04-04T11:05:13.000Z</time>
      </trkpt>
      <trkpt lat="37.094965" lon="-79.610342">
        <ele>254.173217</ele>
        <time>2025-04-04T11:05:14.000Z</time>
      </trkpt>
      <trkpt lat="37.094918" lon="-79.610187">
        <ele>254.173219</ele>
        <time>2025-04-04T11:05:15.000Z</time>
      </trkpt>
      <trkpt lat="37.095451" lon="-79.609876">
        <ele>254.173213</ele>
        <time>2025-04-04T11:05:22.000Z</time>
      </trkpt>
      <trkpt lat="37.095482" lon="-79.60985">
        <ele>253.764457</ele>
        <time>2025-04-04T11:05:22.000Z</time>
      </trkpt>
      <trkpt lat="37.095518" lon="-79.609828">
        <ele>253.764455</ele>
        <time>2025-04-04T11:05:22.000Z</time>
      </trkpt>
      <trkpt lat="37.095592" lon="-79.609826">
        <ele>253.764449</ele>
        <time>2025-04-04T11:05:23.000Z</time>
      </trkpt>
      <trkpt lat="37.095614" lon="-79.609779">
        <ele>253.764448</ele>
        <time>2025-04-04T11:05:23.000Z</time>
      </trkpt>
      <trkpt lat="37.095681" lon="-79.609692">
        <ele>253.764453</ele>
        <time>2025-04-04T11:05:24.000Z</time>
      </trkpt>
      <trkpt lat="37.096003" lon="-79.6095">
        <ele>253.764453</ele>
        <time>2025-04-04T11:05:28.000Z</time>
      </trkpt>
      <trkpt lat="37.096143" lon="-79.609408">
        <ele>253.76445</ele>
        <time>2025-04-04T11:05:30.000Z</time>
      </trkpt>
      <trkpt lat="37.096422" lon="-79.609214">
        <ele>253.577011</ele>
        <time>2025-04-04T11:05:34.000Z</time>
      </trkpt>
      <trkpt lat="37.096674" lon="-79.609037">
        <ele>253.25851</ele>
        <time>2025-04-04T11:05:37.000Z</time>
      </trkpt>
      <trkpt lat="37.096713" lon="-79.609008">
        <ele>253.216396</ele>
        <time>2025-04-04T11:05:38.000Z</time>
      </trkpt>
      <trkpt lat="37.096858" lon="-79.60885">
        <ele>253.001845</ele>
        <time>2025-04-04T11:05:40.000Z</time>
      </trkpt>
      <trkpt lat="37.097025" lon="-79.608611">
        <ele>252.738543</ele>
        <time>2025-04-04T11:05:43.000Z</time>
      </trkpt>
      <trkpt lat="37.097104" lon="-79.608392">
        <ele>252.523535</ele>
        <time>2025-04-04T11:05:45.000Z</time>
      </trkpt>
      <trkpt lat="37.09722" lon="-79.607918">
        <ele>252.109421</ele>
        <time>2025-04-04T11:05:49.000Z</time>
      </trkpt>
      <trkpt lat="37.09735" lon="-79.605475">
        <ele>251.212158</ele>
        <time>2025-04-04T11:06:11.000Z</time>
      </trkpt>
      <trkpt lat="37.097321" lon="-79.605112">
        <ele>251.532115</ele>
        <time>2025-04-04T11:06:14.000Z</time>
      </trkpt>
      <trkpt lat="37.097233" lon="-79.604772">
        <ele>252.028122</ele>
        <time>2025-04-04T11:06:17.000Z</time>
      </trkpt>
      <trkpt lat="37.09707" lon="-79.604435">
        <ele>252.580937</ele>
        <time>2025-04-04T11:06:20.000Z</time>
      </trkpt>
      <trkpt lat="37.096955" lon="-79.60425">
        <ele>252.90287</ele>
        <time>2025-04-04T11:06:22.000Z</time>
      </trkpt>
      <trkpt lat="37.096076" lon="-79.603129">
        <ele>255.079628</ele>
        <time>2025-04-04T11:06:36.000Z</time>
      </trkpt>
      <trkpt lat="37.095874" lon="-79.60294">
        <ele>255.472661</ele>
        <time>2025-04-04T11:06:39.000Z</time>
      </trkpt>
      <trkpt lat="37.094931" lon="-79.602204">
        <ele>257.25553</ele>
        <time>2025-04-04T11:06:51.000Z</time>
      </trkpt>
      <trkpt lat="37.094619" lon="-79.601898">
        <ele>258.144145</ele>
        <time>2025-04-04T11:06:55.000Z</time>
      </trkpt>
      <trkpt lat="37.094395" lon="-79.601494">
        <ele>259.025727</ele>
        <time>2025-04-04T11:06:59.000Z</time>
      </trkpt>
      <trkpt lat="37.094101" lon="-79.600664">
        <ele>260.614501</ele>
        <time>2025-04-04T11:07:07.000Z</time>
      </trkpt>
      <trkpt lat="37.094003" lon="-79.600384">
        <ele>261.168887</ele>
        <time>2025-04-04T11:07:10.000Z</time>
      </trkpt>
      <trkpt lat="37.093363" lon="-79.598667">
        <ele>266.773465</ele>
        <time>2025-04-04T11:07:27.000Z</time>
      </trkpt>
      <trkpt lat="37.092176" lon="-79.595281">
        <ele>273.865121</ele>
        <time>2025-04-04T11:08:00.000Z</time>
      </trkpt>
      <trkpt lat="37.091517" lon="-79.593441">
        <ele>276.617755</ele>
        <time>2025-04-04T11:08:18.000Z</time>
      </trkpt>
      <trkpt lat="37.09142" lon="-79.593138">
        <ele>276.889123</ele>
        <time>2025-04-04T11:08:21.000Z</time>
      </trkpt>
      <trkpt lat="37.091096" lon="-79.593649">
        <ele>277.430229</ele>
        <time>2025-04-04T11:08:27.000Z</time>
      </trkpt>
      <trkpt lat="37.090165" lon="-79.595304">
        <ele>276.95857</ele>
        <time>2025-04-04T11:08:45.000Z</time>
      </trkpt>
      <trkpt lat="37.089826" lon="-79.595926">
        <ele>276.432604</ele>
        <time>2025-04-04T11:08:52.000Z</time>
      </trkpt>
      <trkpt lat="37.089733" lon="-79.596069">
        <ele>275.95435</ele>
        <time>2025-04-04T11:08:54.000Z</time>
      </trkpt>
      <trkpt lat="37.089566" lon="-79.596377">
        <ele>274.895157</ele>
        <time>2025-04-04T11:08:57.000Z</time>
      </trkpt>
      <trkpt lat="37.089126" lon="-79.59714">
        <ele>272.28765</ele>
        <time>2025-04-04T11:09:05.000Z</time>
      </trkpt>
      <trkpt lat="37.088595" lon="-79.597892">
        <ele>269.551809</ele>
        <time>2025-04-04T11:09:14.000Z</time>
      </trkpt>
      <trkpt lat="37.088265" lon="-79.598222">
        <ele>268.241924</ele>
        <time>2025-04-04T11:09:19.000Z</time>
      </trkpt>
      <trkpt lat="37.087761" lon="-79.598599">
        <ele>266.390512</ele>
        <time>2025-04-04T11:09:26.000Z</time>
      </trkpt>
      <trkpt lat="37.087294" lon="-79.598928">
        <ele>264.686849</ele>
        <time>2025-04-04T11:09:32.000Z</time>
      </trkpt>
      <trkpt lat="37.086963" lon="-79.599262">
        <ele>263.89404</ele>
        <time>2025-04-04T11:09:37.000Z</time>
      </trkpt>
      <trkpt lat="37.086898" lon="-79.599376">
        <ele>263.691877</ele>
        <time>2025-04-04T11:09:38.000Z</time>
      </trkpt>
      <trkpt lat="37.086752" lon="-79.599714">
        <ele>263.137284</ele>
        <time>2025-04-04T11:09:41.000Z</time>
      </trkpt>
      <trkpt lat="37.086006" lon="-79.602025">
        <ele>260.165852</ele>
        <time>2025-04-04T11:10:03.000Z</time>
      </trkpt>
      <trkpt lat="37.085822" lon="-79.602449">
        <ele>259.700801</ele>
        <time>2025-04-04T11:10:07.000Z</time>
      </trkpt>
      <trkpt lat="37.085657" lon="-79.602718">
        <ele>259.385283</ele>
        <time>2025-04-04T11:10:10.000Z</time>
      </trkpt>
      <trkpt lat="37.085448" lon="-79.602966">
        <ele>259.251182</ele>
        <time>2025-04-04T11:10:13.000Z</time>
      </trkpt>
      <trkpt lat="37.085192" lon="-79.603159">
        <ele>259.344367</ele>
        <time>2025-04-04T11:10:16.000Z</time>
      </trkpt>
      <trkpt lat="37.083906" lon="-79.603637">
        <ele>259.759094</ele>
        <time>2025-04-04T11:10:31.000Z</time>
      </trkpt>
      <trkpt lat="37.083605" lon="-79.60383">
        <ele>259.564755</ele>
        <time>2025-04-04T11:10:35.000Z</time>
      </trkpt>
      <trkpt lat="37.083379" lon="-79.604118">
        <ele>259.357175</ele>
        <time>2025-04-04T11:10:39.000Z</time>
      </trkpt>
      <trkpt lat="37.083198" lon="-79.604431">
        <ele>259.164792</ele>
        <time>2025-04-04T11:10:42.000Z</time>
      </trkpt>
      <trkpt lat="37.083114" lon="-79.6047">
        <ele>259.017358</ele>
        <time>2025-04-04T11:10:45.000Z</time>
      </trkpt>
      <trkpt lat="37.082971" lon="-79.606603">
        <ele>258.729044</ele>
        <time>2025-04-04T11:11:02.000Z</time>
      </trkpt>
      <trkpt lat="37.082884" lon="-79.606943">
        <ele>258.758289</ele>
        <time>2025-04-04T11:11:05.000Z</time>
      </trkpt>
      <trkpt lat="37.082812" lon="-79.607142">
        <ele>258.775833</ele>
        <time>2025-04-04T11:11:07.000Z</time>
      </trkpt>
      <trkpt lat="37.082619" lon="-79.607475">
        <ele>258.810184</ele>
        <time>2025-04-04T11:11:11.000Z</time>
      </trkpt>
      <trkpt lat="37.082447" lon="-79.607635">
        <ele>258.519666</ele>
        <time>2025-04-04T11:11:13.000Z</time>
      </trkpt>
      <trkpt lat="37.082137" lon="-79.607805">
        <ele>257.68388</ele>
        <time>2025-04-04T11:11:17.000Z</time>
      </trkpt>
      <trkpt lat="37.08157" lon="-79.60802">
        <ele>256.178363</ele>
        <time>2025-04-04T11:11:24.000Z</time>
      </trkpt>
      <trkpt lat="37.081305" lon="-79.608196">
        <ele>255.390751</ele>
        <time>2025-04-04T11:11:27.000Z</time>
      </trkpt>
      <trkpt lat="37.080923" lon="-79.608524">
        <ele>254.256328</ele>
        <time>2025-04-04T11:11:32.000Z</time>
      </trkpt>
      <trkpt lat="37.08035" lon="-79.609076">
        <ele>251.354349</ele>
        <time>2025-04-04T11:11:40.000Z</time>
      </trkpt>
      <trkpt lat="37.080149" lon="-79.609352">
        <ele>250.159824</ele>
        <time>2025-04-04T11:11:43.000Z</time>
      </trkpt>
      <trkpt lat="37.080097" lon="-79.609434">
        <ele>249.79238</ele>
        <time>2025-04-04T11:11:44.000Z</time>
      </trkpt>
      <trkpt lat="37.080037" lon="-79.609657">
        <ele>249.06838</ele>
        <time>2025-04-04T11:11:46.000Z</time>
      </trkpt>
      <trkpt lat="37.080026" lon="-79.609845">
        <ele>248.487183</ele>
        <time>2025-04-04T11:11:48.000Z</time>
      </trkpt>
      <trkpt lat="37.080059" lon="-79.61028">
        <ele>247.082736</ele>
        <time>2025-04-04T11:11:52.000Z</time>
      </trkpt>
      <trkpt lat="37.080028" lon="-79.610436">
        <ele>247.02591</ele>
        <time>2025-04-04T11:11:53.000Z</time>
      </trkpt>
      <trkpt lat="37.08" lon="-79.610512">
        <ele>246.999468</ele>
        <time>2025-04-04T11:11:54.000Z</time>
      </trkpt>
      <trkpt lat="37.079739" lon="-79.610765">
        <ele>246.868125</ele>
        <time>2025-04-04T11:11:58.000Z</time>
      </trkpt>
      <trkpt lat="37.079645" lon="-79.61089">
        <ele>246.814832</ele>
        <time>2025-04-04T11:12:00.000Z</time>
      </trkpt>
      <trkpt lat="37.079527" lon="-79.611188">
        <ele>246.710822</ele>
        <time>2025-04-04T11:12:03.000Z</time>
      </trkpt>
      <trkpt lat="37.079443" lon="-79.611528">
        <ele>246.599273</ele>
        <time>2025-04-04T11:12:06.000Z</time>
      </trkpt>
      <trkpt lat="37.079361" lon="-79.61169">
        <ele>246.536546</ele>
        <time>2025-04-04T11:12:08.000Z</time>
      </trkpt>
      <trkpt lat="37.079163" lon="-79.61185">
        <ele>246.445653</ele>
        <time>2025-04-04T11:12:11.000Z</time>
      </trkpt>
      <trkpt lat="37.07877" lon="-79.611987">
        <ele>246.664003</ele>
        <time>2025-04-04T11:12:16.000Z</time>
      </trkpt>
      <trkpt lat="37.078668" lon="-79.612065">
        <ele>246.858285</ele>
        <time>2025-04-04T11:12:17.000Z</time>
      </trkpt>
      <trkpt lat="37.078591" lon="-79.612148">
        <ele>247.013467</ele>
        <time>2025-04-04T11:12:18.000Z</time>
      </trkpt>
      <trkpt lat="37.078532" lon="-79.612254">
        <ele>247.167574</ele>
        <time>2025-04-04T11:12:19.000Z</time>
      </trkpt>
      <trkpt lat="37.078479" lon="-79.612439">
        <ele>247.396612</ele>
        <time>2025-04-04T11:12:21.000Z</time>
      </trkpt>
      <trkpt lat="37.078474" lon="-79.612635">
        <ele>247.626741</ele>
        <time>2025-04-04T11:12:23.000Z</time>
      </trkpt>
      <trkpt lat="37.078582" lon="-79.613024">
        <ele>248.130413</ele>
        <time>2025-04-04T11:12:27.000Z</time>
      </trkpt>
      <trkpt lat="37.078694" lon="-79.613362">
        <ele>248.55958</ele>
        <time>2025-04-04T11:12:30.000Z</time>
      </trkpt>
      <trkpt lat="37.07883" lon="-79.613712">
        <ele>249.018175</ele>
        <time>2025-04-04T11:12:33.000Z</time>
      </trkpt>
      <trkpt lat="37.079072" lon="-79.614116">
        <ele>249.206659</ele>
        <time>2025-04-04T11:12:37.000Z</time>
      </trkpt>
      <trkpt lat="37.079201" lon="-79.614457">
        <ele>249.329318</ele>
        <time>2025-04-04T11:12:40.000Z</time>
      </trkpt>
      <trkpt lat="37.079277" lon="-79.614819">
        <ele>249.450243</ele>
        <time>2025-04-04T11:12:43.000Z</time>
      </trkpt>
      <trkpt lat="37.079302" lon="-79.615076">
        <ele>249.529662</ele>
        <time>2025-04-04T11:12:45.000Z</time>
      </trkpt>
      <trkpt lat="37.0793" lon="-79.615244">
        <ele>249.583374</ele>
        <time>2025-04-04T11:12:46.000Z</time>
      </trkpt>
      <trkpt lat="37.079257" lon="-79.615394">
        <ele>249.636349</ele>
        <time>2025-04-04T11:12:47.000Z</time>
      </trkpt>
      <trkpt lat="37.079219" lon="-79.61545">
        <ele>249.656086</ele>
        <time>2025-04-04T11:12:48.000Z</time>
      </trkpt>
      <trkpt lat="37.079259" lon="-79.615401">
        <ele>249.675819</ele>
        <time>2025-04-04T11:12:49.000Z</time>
      </trkpt>
      <trkpt lat="37.079298" lon="-79.615234">
        <ele>249.728808</ele>
        <time>2025-04-04T11:12:51.000Z</time>
      </trkpt>
      <trkpt lat="37.079301" lon="-79.615074">
        <ele>249.752621</ele>
        <time>2025-04-04T11:12:52.000Z</time>
      </trkpt>
      <trkpt lat="37.079285" lon="-79.614823">
        <ele>249.583203</ele>
        <time>2025-04-04T11:12:54.000Z</time>
      </trkpt>
      <trkpt lat="37.079212" lon="-79.614457">
        <ele>249.325318</ele>
        <time>2025-04-04T11:12:57.000Z</time>
      </trkpt>
      <trkpt lat="37.079064" lon="-79.614118">
        <ele>249.063654</ele>
        <time>2025-04-04T11:13:00.000Z</time>
      </trkpt>
      <trkpt lat="37.078818" lon="-79.613704">
        <ele>248.715105</ele>
        <time>2025-04-04T11:13:05.000Z</time>
      </trkpt>
      <trkpt lat="37.078695" lon="-79.613366">
        <ele>248.452922</ele>
        <time>2025-04-04T11:13:08.000Z</time>
      </trkpt>
      <trkpt lat="37.078575" lon="-79.613027">
        <ele>248.195221</ele>
        <time>2025-04-04T11:13:11.000Z</time>
      </trkpt>
      <trkpt lat="37.078474" lon="-79.61263">
        <ele>247.782785</ele>
        <time>2025-04-04T11:13:15.000Z</time>
      </trkpt>
      <trkpt lat="37.07847" lon="-79.612442">
        <ele>247.594343</ele>
        <time>2025-04-04T11:13:17.000Z</time>
      </trkpt>
      <trkpt lat="37.078532" lon="-79.612259">
        <ele>247.406801</ele>
        <time>2025-04-04T11:13:19.000Z</time>
      </trkpt>
      <trkpt lat="37.078579" lon="-79.612152">
        <ele>247.280614</ele>
        <time>2025-04-04T11:13:20.000Z</time>
      </trkpt>
      <trkpt lat="37.078655" lon="-79.612051">
        <ele>247.153549</ele>
        <time>2025-04-04T11:13:21.000Z</time>
      </trkpt>
      <trkpt lat="37.078784" lon="-79.611993">
        <ele>246.994465</ele>
        <time>2025-04-04T11:13:23.000Z</time>
      </trkpt>
      <trkpt lat="37.079166" lon="-79.611851">
        <ele>246.498145</ele>
        <time>2025-04-04T11:13:27.000Z</time>
      </trkpt>
      <trkpt lat="37.079361" lon="-79.611699">
        <ele>246.218029</ele>
        <time>2025-04-04T11:13:30.000Z</time>
      </trkpt>
      <trkpt lat="37.079461" lon="-79.611538">
        <ele>246.046851</ele>
        <time>2025-04-04T11:13:32.000Z</time>
      </trkpt>
      <trkpt lat="37.079527" lon="-79.611197">
        <ele>246.448903</ele>
        <time>2025-04-04T11:13:35.000Z</time>
      </trkpt>
      <trkpt lat="37.079642" lon="-79.610888">
        <ele>246.82384</ele>
        <time>2025-04-04T11:13:38.000Z</time>
      </trkpt>
      <trkpt lat="37.079735" lon="-79.610762">
        <ele>247.015921</ele>
        <time>2025-04-04T11:13:40.000Z</time>
      </trkpt>
      <trkpt lat="37.079983" lon="-79.610513">
        <ele>247.489325</ele>
        <time>2025-04-04T11:13:44.000Z</time>
      </trkpt>
      <trkpt lat="37.080029" lon="-79.610446">
        <ele>247.584629</ele>
        <time>2025-04-04T11:13:45.000Z</time>
      </trkpt>
      <trkpt lat="37.080049" lon="-79.610283">
        <ele>247.77564</ele>
        <time>2025-04-04T11:13:46.000Z</time>
      </trkpt>
      <trkpt lat="37.080029" lon="-79.609832">
        <ele>248.278997</ele>
        <time>2025-04-04T11:13:50.000Z</time>
      </trkpt>
      <trkpt lat="37.080038" lon="-79.609659">
        <ele>248.487307</ele>
        <time>2025-04-04T11:13:52.000Z</time>
      </trkpt>
      <trkpt lat="37.0801" lon="-79.609433">
        <ele>249.055075</ele>
        <time>2025-04-04T11:13:54.000Z</time>
      </trkpt>
      <trkpt lat="37.080148" lon="-79.609337">
        <ele>249.481977</ele>
        <time>2025-04-04T11:13:55.000Z</time>
      </trkpt>
      <trkpt lat="37.08035" lon="-79.609073">
        <ele>250.869753</ele>
        <time>2025-04-04T11:13:58.000Z</time>
      </trkpt>
      <trkpt lat="37.080923" lon="-79.608511">
        <ele>254.241275</ele>
        <time>2025-04-04T11:14:06.000Z</time>
      </trkpt>
      <trkpt lat="37.081305" lon="-79.608211">
        <ele>256.314648</ele>
        <time>2025-04-04T11:14:11.000Z</time>
      </trkpt>
      <trkpt lat="37.081567" lon="-79.608034">
        <ele>257.104564</ele>
        <time>2025-04-04T11:14:14.000Z</time>
      </trkpt>
      <trkpt lat="37.082149" lon="-79.607797">
        <ele>257.621493</ele>
        <time>2025-04-04T11:14:21.000Z</time>
      </trkpt>
      <trkpt lat="37.082441" lon="-79.607634">
        <ele>257.908435</ele>
        <time>2025-04-04T11:14:25.000Z</time>
      </trkpt>
      <trkpt lat="37.082616" lon="-79.607478">
        <ele>258.092463</ele>
        <time>2025-04-04T11:14:27.000Z</time>
      </trkpt>
      <trkpt lat="37.082817" lon="-79.607149">
        <ele>258.381307</ele>
        <time>2025-04-04T11:14:31.000Z</time>
      </trkpt>
      <trkpt lat="37.082881" lon="-79.606957">
        <ele>258.52311</ele>
        <time>2025-04-04T11:14:33.000Z</time>
      </trkpt>
      <trkpt lat="37.082972" lon="-79.606606">
        <ele>258.620539</ele>
        <time>2025-04-04T11:14:36.000Z</time>
      </trkpt>
      <trkpt lat="37.083118" lon="-79.604703">
        <ele>259.146658</ele>
        <time>2025-04-04T11:14:53.000Z</time>
      </trkpt>
      <trkpt lat="37.083188" lon="-79.604434">
        <ele>259.211059</ele>
        <time>2025-04-04T11:14:56.000Z</time>
      </trkpt>
      <trkpt lat="37.083367" lon="-79.604119">
        <ele>259.295111</ele>
        <time>2025-04-04T11:14:59.000Z</time>
      </trkpt>
      <trkpt lat="37.083604" lon="-79.603829">
        <ele>259.385774</ele>
        <time>2025-04-04T11:15:03.000Z</time>
      </trkpt>
      <trkpt lat="37.083916" lon="-79.603637">
        <ele>259.479893</ele>
        <time>2025-04-04T11:15:07.000Z</time>
      </trkpt>
      <trkpt lat="37.085182" lon="-79.603161">
        <ele>259.568604</ele>
        <time>2025-04-04T11:15:22.000Z</time>
      </trkpt>
      <trkpt lat="37.08544" lon="-79.602976">
        <ele>259.543055</ele>
        <time>2025-04-04T11:15:25.000Z</time>
      </trkpt>
      <trkpt lat="37.085674" lon="-79.602709">
        <ele>259.516796</ele>
        <time>2025-04-04T11:15:29.000Z</time>
      </trkpt>
      <trkpt lat="37.085836" lon="-79.602443">
        <ele>259.494063</ele>
        <time>2025-04-04T11:15:32.000Z</time>
      </trkpt>
      <trkpt lat="37.086018" lon="-79.60202">
        <ele>259.85302</ele>
        <time>2025-04-04T11:15:36.000Z</time>
      </trkpt>
      <trkpt lat="37.086765" lon="-79.599718">
        <ele>263.244356</ele>
        <time>2025-04-04T11:15:58.000Z</time>
      </trkpt>
      <trkpt lat="37.08691" lon="-79.599368">
        <ele>263.828852</ele>
        <time>2025-04-04T11:16:01.000Z</time>
      </trkpt>
      <trkpt lat="37.086972" lon="-79.599263">
        <ele>264.041905</ele>
        <time>2025-04-04T11:16:02.000Z</time>
      </trkpt>
      <trkpt lat="37.087303" lon="-79.598934">
        <ele>264.830713</ele>
        <time>2025-04-04T11:16:07.000Z</time>
      </trkpt>
      <trkpt lat="37.087777" lon="-79.598604">
        <ele>265.859755</ele>
        <time>2025-04-04T11:16:13.000Z</time>
      </trkpt>
      <trkpt lat="37.088274" lon="-79.598211">
        <ele>268.07671</ele>
        <time>2025-04-04T11:16:20.000Z</time>
      </trkpt>
      <trkpt lat="37.088595" lon="-79.597877">
        <ele>269.656088</ele>
        <time>2025-04-04T11:16:25.000Z</time>
      </trkpt>
      <trkpt lat="37.089128" lon="-79.597138">
        <ele>272.698018</ele>
        <time>2025-04-04T11:16:34.000Z</time>
      </trkpt>
      <trkpt lat="37.089562" lon="-79.59638">
        <ele>274.646646</ele>
        <time>2025-04-04T11:16:42.000Z</time>
      </trkpt>
      <trkpt lat="37.089745" lon="-79.596061">
        <ele>275.438184</ele>
        <time>2025-04-04T11:16:45.000Z</time>
      </trkpt>
      <trkpt lat="37.089813" lon="-79.595927">
        <ele>275.795594</ele>
        <time>2025-04-04T11:16:46.000Z</time>
      </trkpt>
      <trkpt lat="37.090179" lon="-79.595306">
        <ele>277.390053</ele>
        <time>2025-04-04T11:16:53.000Z</time>
      </trkpt>
      <trkpt lat="37.091094" lon="-79.593635">
        <ele>277.626447</ele>
        <time>2025-04-04T11:17:11.000Z</time>
      </trkpt>
      <trkpt lat="37.091422" lon="-79.59314">
        <ele>277.125804</ele>
        <time>2025-04-04T11:17:17.000Z</time>
      </trkpt>
      <trkpt lat="37.091524" lon="-79.593432">
        <ele>276.71137</ele>
        <time>2025-04-04T11:17:20.000Z</time>
      </trkpt>
      <trkpt lat="37.092192" lon="-79.595274">
        <ele>273.878347</ele>
        <time>2025-04-04T11:17:38.000Z</time>
      </trkpt>
      <trkpt lat="37.093358" lon="-79.59866">
        <ele>266.755759</ele>
        <time>2025-04-04T11:18:11.000Z</time>
      </trkpt>
      <trkpt lat="37.093992" lon="-79.600389">
        <ele>261.489645</ele>
        <time>2025-04-04T11:18:28.000Z</time>
      </trkpt>
      <trkpt lat="37.094093" lon="-79.600669">
        <ele>260.574385</ele>
        <time>2025-04-04T11:18:31.000Z</time>
      </trkpt>
      <trkpt lat="37.094398" lon="-79.60148">
        <ele>258.759762</ele>
        <time>2025-04-04T11:18:39.000Z</time>
      </trkpt>
      <trkpt lat="37.094616" lon="-79.601903">
        <ele>258.069676</ele>
        <time>2025-04-04T11:18:43.000Z</time>
      </trkpt>
      <trkpt lat="37.09493" lon="-79.602207">
        <ele>257.371637</ele>
        <time>2025-04-04T11:18:47.000Z</time>
      </trkpt>
      <trkpt lat="37.095869" lon="-79.602944">
        <ele>255.449083</ele>
        <time>2025-04-04T11:18:59.000Z</time>
      </trkpt>
      <trkpt lat="37.096072" lon="-79.603137">
        <ele>255.024773</ele>
        <time>2025-04-04T11:19:02.000Z</time>
      </trkpt>
      <trkpt lat="37.09697" lon="-79.604262">
        <ele>252.9347</ele>
        <time>2025-04-04T11:19:16.000Z</time>
      </trkpt>
      <trkpt lat="37.097064" lon="-79.604433">
        <ele>252.705009</ele>
        <time>2025-04-04T11:19:18.000Z</time>
      </trkpt>
      <trkpt lat="37.097233" lon="-79.604786">
        <ele>252.31056</ele>
        <time>2025-04-04T11:19:22.000Z</time>
      </trkpt>
      <trkpt lat="37.097321" lon="-79.605104">
        <ele>251.956664</ele>
        <time>2025-04-04T11:19:25.000Z</time>
      </trkpt>
      <trkpt lat="37.097353" lon="-79.605475">
        <ele>251.582108</ele>
        <time>2025-04-04T11:19:28.000Z</time>
      </trkpt>
      <trkpt lat="37.097215" lon="-79.607914">
        <ele>252.216633</ele>
        <time>2025-04-04T11:19:50.000Z</time>
      </trkpt>
      <trkpt lat="37.097112" lon="-79.608392">
        <ele>252.551764</ele>
        <time>2025-04-04T11:19:54.000Z</time>
      </trkpt>
      <trkpt lat="37.097028" lon="-79.608626">
        <ele>252.738729</ele>
        <time>2025-04-04T11:19:56.000Z</time>
      </trkpt>
      <trkpt lat="37.096857" lon="-79.608862">
        <ele>252.967706</ele>
        <time>2025-04-04T11:19:59.000Z</time>
      </trkpt>
      <trkpt lat="37.096705" lon="-79.609013">
        <ele>253.154281</ele>
        <time>2025-04-04T11:20:01.000Z</time>
      </trkpt>
      <trkpt lat="37.096674" lon="-79.609026">
        <ele>253.190913</ele>
        <time>2025-04-04T11:20:01.000Z</time>
      </trkpt>
      <trkpt lat="37.096417" lon="-79.609214">
        <ele>253.467883</ele>
        <time>2025-04-04T11:20:04.000Z</time>
      </trkpt>
      <trkpt lat="37.096141" lon="-79.6094">
        <ele>253.751982</ele>
        <time>2025-04-04T11:20:07.000Z</time>
      </trkpt>
      <trkpt lat="37.096008" lon="-79.609489">
        <ele>253.898892</ele>
        <time>2025-04-04T11:20:09.000Z</time>
      </trkpt>
      <trkpt lat="37.095795" lon="-79.609868">
        <ele>254.173217</ele>
        <time>2025-04-04T11:20:13.000Z</time>
      </trkpt>
      <trkpt lat="37.095742" lon="-79.609918">
        <ele>254.173212</ele>
        <time>2025-04-04T11:20:14.000Z</time>
      </trkpt>
      <trkpt lat="37.095679" lon="-79.609937">
        <ele>254.17321</ele>
        <time>2025-04-04T11:20:15.000Z</time>
      </trkpt>
      <trkpt lat="37.095632" lon="-79.610051">
        <ele>254.173214</ele>
        <time>2025-04-04T11:20:16.000Z</time>
      </trkpt>
      <trkpt lat="37.095587" lon="-79.610093">
        <ele>254.173209</ele>
        <time>2025-04-04T11:20:17.000Z</time>
      </trkpt>
      <trkpt lat="37.095084" lon="-79.610385">
        <ele>254.173214</ele>
        <time>2025-04-04T11:20:23.000Z</time>
      </trkpt>
      <trkpt lat="37.09507" lon="-79.610385">
        <ele>254.173218</ele>
        <time>2025-04-04T11:20:23.000Z</time>
      </trkpt>
      <trkpt lat="37.095038" lon="-79.61039">
        <ele>254.173204</ele>
        <time>2025-04-04T11:20:23.000Z</time>
      </trkpt>
      <trkpt lat="37.09497" lon="-79.610329">
        <ele>254.173209</ele>
        <time>2025-04-04T11:20:24.000Z</time>
      </trkpt>
      <trkpt lat="37.09492" lon="-79.610184">
        <ele>254.173204</ele>
        <time>2025-04-04T11:20:25.000Z</time>
      </trkpt>
      <trkpt lat="37.095444" lon="-79.609872">
        <ele>254.173212</ele>
        <time>2025-04-04T11:20:31.000Z</time>
      </trkpt>
      <trkpt lat="37.09549" lon="-79.609839">
        <ele>253.764446</ele>
        <time>2025-04-04T11:20:32.000Z</time>
      </trkpt>
      <trkpt lat="37.095515" lon="-79.609834">
        <ele>253.764456</ele>
        <time>2025-04-04T11:20:32.000Z</time>
      </trkpt>
      <trkpt lat="37.095607" lon="-79.609825">
        <ele>253.76444</ele>
        <time>2025-04-04T11:20:33.000Z</time>
      </trkpt>
      <trkpt lat="37.095611" lon="-79.609773">
        <ele>253.764439</ele>
        <time>2025-04-04T11:20:33.000Z</time>
      </trkpt>
      <trkpt lat="37.095685" lon="-79.609696">
        <ele>253.764456</ele>
        <time>2025-04-04T11:20:34.000Z</time>
      </trkpt>
      <trkpt lat="37.096002" lon="-79.609492">
        <ele>253.764445</ele>
        <time>2025-04-04T11:20:38.000Z</time>
      </trkpt>
      <trkpt lat="37.096152" lon="-79.609396">
        <ele>253.764441</ele>
        <time>2025-04-04T11:20:40.000Z</time>
      </trkpt>
      <trkpt lat="37.096411" lon="-79.609216">
        <ele>253.577017</ele>
        <time>2025-04-04T11:20:43.000Z</time>
      </trkpt>
      <trkpt lat="37.09667" lon="-79.60904">
        <ele>253.258516</ele>
        <time>2025-04-04T11:20:46.000Z</time>
      </trkpt>
      <trkpt lat="37.096697" lon="-79.609003">
        <ele>253.216393</ele>
        <time>2025-04-04T11:20:46.000Z</time>
      </trkpt>
      <trkpt lat="37.096872" lon="-79.608859">
        <ele>253.001842</ele>
        <time>2025-04-04T11:20:48.000Z</time>
      </trkpt>
      <trkpt lat="37.097024" lon="-79.608623">
        <ele>252.738537</ele>
        <time>2025-04-04T11:20:51.000Z</time>
      </trkpt>
      <trkpt lat="37.097114" lon="-79.608391">
        <ele>252.523547</ele>
        <time>2025-04-04T11:20:53.000Z</time>
      </trkpt>
      <trkpt lat="37.097215" lon="-79.60793">
        <ele>252.109434</ele>
        <time>2025-04-04T11:20:57.000Z</time>
      </trkpt>
      <trkpt lat="37.097335" lon="-79.60548">
        <ele>251.212171</ele>
        <time>2025-04-04T11:21:19.000Z</time>
      </trkpt>
      <trkpt lat="37.097318" lon="-79.605106">
        <ele>251.532121</ele>
        <time>2025-04-04T11:21:22.000Z</time>
      </trkpt>
      <trkpt lat="37.097228" lon="-79.604773">
        <ele>252.028116</ele>
        <time>2025-04-04T11:21:25.000Z</time>
      </trkpt>
      <trkpt lat="37.097082" lon="-79.604442">
        <ele>252.580926</ele>
        <time>2025-04-04T11:21:28.000Z</time>
      </trkpt>
      <trkpt lat="37.09696" lon="-79.604264">
        <ele>252.902869</ele>
        <time>2025-04-04T11:21:30.000Z</time>
      </trkpt>
      <trkpt lat="37.096064" lon="-79.603129">
        <ele>255.079624</ele>
        <time>2025-04-04T11:21:44.000Z</time>
      </trkpt>
      <trkpt lat="37.095885" lon="-79.602932">
        <ele>255.472663</ele>
        <time>2025-04-04T11:21:47.000Z</time>
      </trkpt>
      <trkpt lat="37.094942" lon="-79.60221">
        <ele>257.255539</ele>
        <time>2025-04-04T11:21:59.000Z</time>
      </trkpt>
      <trkpt lat="37.094617" lon="-79.601894">
        <ele>258.144142</ele>
        <time>2025-04-04T11:22:04.000Z</time>
      </trkpt>
      <trkpt lat="37.094388" lon="-79.601486">
        <ele>259.025729</ele>
        <time>2025-04-04T11:22:08.000Z</time>
      </trkpt>
      <trkpt lat="37.094088" lon="-79.600675">
        <ele>260.614503</ele>
        <time>2025-04-04T11:22:16.000Z</time>
      </trkpt>
      <trkpt lat="37.094002" lon="-79.600391">
        <ele>261.168888</ele>
        <time>2025-04-04T11:22:19.000Z</time>
      </trkpt>
      <trkpt lat="37.093364" lon="-79.598663">
        <ele>266.773456</ele>
        <time>2025-04-04T11:22:36.000Z</time>
      </trkpt>
      <trkpt lat="37.092179" lon="-79.595276">
        <ele>273.865114</ele>
        <time>2025-04-04T11:23:09.000Z</time>
      </trkpt>
      <trkpt lat="37.091525" lon="-79.593442">
        <ele>276.617754</ele>
        <time>2025-04-04T11:23:27.000Z</time>
      </trkpt>
      <trkpt lat="37.091423" lon="-79.593138">
        <ele>276.889133</ele>
        <time>2025-04-04T11:23:30.000Z</time>
      </trkpt>
      <trkpt lat="37.091101" lon="-79.593636">
        <ele>277.43022</ele>
        <time>2025-04-04T11:23:36.000Z</time>
      </trkpt>
      <trkpt lat="37.090165" lon="-79.595301">
        <ele>276.958578</ele>
        <time>2025-04-04T11:23:54.000Z</time>
      </trkpt>
      <trkpt lat="37.089817" lon="-79.595933">
        <ele>276.432612</ele>
        <time>2025-04-04T11:24:01.000Z</time>
      </trkpt>
      <trkpt lat="37.089738" lon="-79.59606">
        <ele>275.954347</ele>
        <time>2025-04-04T11:24:02.000Z</time>
      </trkpt>
      <trkpt lat="37.089571" lon="-79.596367">
        <ele>274.895168</ele>
        <time>2025-04-04T11:24:05.000Z</time>
      </trkpt>
      <trkpt lat="37.089135" lon="-79.597123">
        <ele>272.287656</ele>
        <time>2025-04-04T11:24:13.000Z</time>
      </trkpt>
      <trkpt lat="37.088603" lon="-79.597891">
        <ele>269.551803</ele>
        <time>2025-04-04T11:24:22.000Z</time>
      </trkpt>
      <trkpt lat="37.088277" lon="-79.598211">
        <ele>268.241927</ele>
        <time>2025-04-04T11:24:27.000Z</time>
      </trkpt>
      <trkpt lat="37.087777" lon="-79.598603">
        <ele>266.390504</ele>
        <time>2025-04-04T11:24:34.000Z</time>
      </trkpt>
      <trkpt lat="37.087292" lon="-79.598936">
        <ele>264.686854</ele>
        <time>2025-04-04T11:24:40.000Z</time>
      </trkpt>
      <trkpt lat="37.086966" lon="-79.59926">
        <ele>263.894029</ele>
        <time>2025-04-04T11:24:45.000Z</time>
      </trkpt>
      <trkpt lat="37.086905" lon="-79.59937">
        <ele>263.691875</ele>
        <time>2025-04-04T11:24:46.000Z</time>
      </trkpt>
      <trkpt lat="37.086765" lon="-79.599703">
        <ele>263.137268</ele>
        <time>2025-04-04T11:24:49.000Z</time>
      </trkpt>
      <trkpt lat="37.086013" lon="-79.602013">
        <ele>260.165843</ele>
        <time>2025-04-04T11:25:11.000Z</time>
      </trkpt>
      <trkpt lat="37.08583" lon="-79.602443">
        <ele>259.700805</ele>
        <time>2025-04-04T11:25:15.000Z</time>
      </trkpt>
      <trkpt lat="37.085663" lon="-79.602712">
        <ele>259.385282</ele>
        <time>2025-04-04T11:25:18.000Z</time>
      </trkpt>
      <trkpt lat="37.085436" lon="-79.602967">
        <ele>259.25117</ele>
        <time>2025-04-04T11:25:21.000Z</time>
      </trkpt>
      <trkpt lat="37.085195" lon="-79.603174">
        <ele>259.344376</ele>
        <time>2025-04-04T11:25:24.000Z</time>
      </trkpt>
      <trkpt lat="37.08391" lon="-79.603638">
        <ele>259.759098</ele>
        <time>2025-04-04T11:25:39.000Z</time>
      </trkpt>
      <trkpt lat="37.083601" lon="-79.603824">
        <ele>259.564764</ele>
        <time>2025-04-04T11:25:43.000Z</time>
      </trkpt>
      <trkpt lat="37.083378" lon="-79.604108">
        <ele>259.357188</ele>
        <time>2025-04-04T11:25:47.000Z</time>
      </trkpt>
      <trkpt lat="37.083188" lon="-79.604431">
        <ele>259.164801</ele>
        <time>2025-04-04T11:25:51.000Z</time>
      </trkpt>
      <trkpt lat="37.083118" lon="-79.604697">
        <ele>259.017353</ele>
        <time>2025-04-04T11:25:53.000Z</time>
      </trkpt>
      <trkpt lat="37.082956" lon="-79.606607">
        <ele>258.729048</ele>
        <time>2025-04-04T11:26:10.000Z</time>
      </trkpt>
      <trkpt lat="37.082893" lon="-79.606944">
        <ele>258.758278</ele>
        <time>2025-04-04T11:26:13.000Z</time>
      </trkpt>
      <trkpt lat="37.082821" lon="-79.607141">
        <ele>258.775843</ele>
        <time>2025-04-04T11:26:15.000Z</time>
      </trkpt>
      <trkpt lat="37.082608" lon="-79.607472">
        <ele>258.810201</ele>
        <time>2025-04-04T11:26:19.000Z</time>
      </trkpt>
      <trkpt lat="37.082454" lon="-79.60763">
        <ele>258.519649</ele>
        <time>2025-04-04T11:26:21.000Z</time>
      </trkpt>
      <trkpt lat="37.082138" lon="-79.607803">
        <ele>257.683876</ele>
        <time>2025-04-04T11:26:25.000Z</time>
      </trkpt>
      <trkpt lat="37.081569" lon="-79.608032">
        <ele>256.178355</ele>
        <time>2025-04-04T11:26:32.000Z</time>
      </trkpt>
      <trkpt lat="37.081294" lon="-79.608198">
        <ele>255.390741</ele>
        <time>2025-04-04T11:26:35.000Z</time>
      </trkpt>
      <trkpt lat="37.080926" lon="-79.608511">
        <ele>254.256329</ele>
        <time>2025-04-04T11:26:40.000Z</time>
      </trkpt>
      <trkpt lat="37.080357" lon="-79.609081">
        <ele>251.354336</ele>
        <time>2025-04-04T11:26:48.000Z</time>
      </trkpt>
      <trkpt lat="37.080151" lon="-79.609338">
        <ele>250.159841</ele>
        <time>2025-04-04T11:26:51.000Z</time>
      </trkpt>
      <trkpt lat="37.080098" lon="-79.609449">
        <ele>249.792372</ele>
        <time>2025-04-04T11:26:52.000Z</time>
      </trkpt>
      <trkpt lat="37.080027" lon="-79.609648">
        <ele>249.068389</ele>
        <time>2025-04-04T11:26:54.000Z</time>
      </trkpt>
      <trkpt lat="37.080018" lon="-79.609842">
        <ele>248.487171</ele>
        <time>2025-04-04T11:26:56.000Z</time>
      </trkpt>
      <trkpt lat="37.080049" lon="-79.610268">
        <ele>247.082736</ele>
        <time>2025-04-04T11:27:00.000Z</time>
      </trkpt>
      <trkpt lat="37.080023" lon="-79.610435">
        <ele>247.025907</ele>
        <time>2025-04-04T11:27:02.000Z</time>
      </trkpt>
      <trkpt lat="37.079984" lon="-79.610517">
        <ele>246.99947</ele>
        <time>2025-04-04T11:27:03.000Z</time>
      </trkpt>
      <trkpt lat="37.079731" lon="-79.610773">
        <ele>246.868123</ele>
        <time>2025-04-04T11:27:07.000Z</time>
      </trkpt>
      <trkpt lat="37.079637" lon="-79.610901">
        <ele>246.814834</ele>
        <time>2025-04-04T11:27:09.000Z</time>
      </trkpt>
      <trkpt lat="37.079542" lon="-79.61119">
        <ele>246.710813</ele>
        <time>2025-04-04T11:27:12.000Z</time>
      </trkpt>
      <trkpt lat="37.079451" lon="-79.611523">
        <ele>246.599263</ele>
        <time>2025-04-04T11:27:15.000Z</time>
      </trkpt>
      <trkpt lat="37.079357" lon="-79.611683">
        <ele>246.53656</ele>
        <time>2025-04-04T11:27:17.000Z</time>
      </trkpt>
      <trkpt lat="37.079167" lon="-79.611843">
        <ele>246.445655</ele>
        <time>2025-04-04T11:27:20.000Z</time>
      </trkpt>
      <trkpt lat="37.078769" lon="-79.611988">
        <ele>246.664003</ele>
        <time>2025-04-04T11:27:25.000Z</time>
      </trkpt>
      <trkpt lat="37.078652" lon="-79.612062">
        <ele>246.858287</ele>
        <time>2025-04-04T11:27:26.000Z</time>
      </trkpt>
      <trkpt lat="37.078584" lon="-79.612147">
        <ele>247.013465</ele>
        <time>2025-04-04T11:27:27.000Z</time>
      </trkpt>
      <trkpt lat="37.078528" lon="-79.612262">
        <ele>247.167569</ele>
        <time>2025-04-04T11:27:28.000Z</time>
      </trkpt>
      <trkpt lat="37.078475" lon="-79.612436">
        <ele>247.3966</ele>
        <time>2025-04-04T11:27:30.000Z</time>
      </trkpt>
      <trkpt lat="37.078471" lon="-79.612634">
        <ele>247.626732</ele>
        <time>2025-04-04T11:27:32.000Z</time>
      </trkpt>
      <trkpt lat="37.07857" lon="-79.613031">
        <ele>248.130417</ele>
        <time>2025-04-04T11:27:36.000Z</time>
      </trkpt>
      <trkpt lat="37.078687" lon="-79.613373">
        <ele>248.559592</ele>
        <time>2025-04-04T11:27:39.000Z</time>
      </trkpt>
      <trkpt lat="37.078819" lon="-79.613714">
        <ele>249.018174</ele>
        <time>2025-04-04T11:27:42.000Z</time>
      </trkpt>
      <trkpt lat="37.079064" lon="-79.614109">
        <ele>249.206648</ele>
        <time>2025-04-04T11:27:46.000Z</time>
      </trkpt>
      <trkpt lat="37.079209" lon="-79.614448">
        <ele>249.329331</ele>
        <time>2025-04-04T11:27:49.000Z</time>
      </trkpt>
      <trkpt lat="37.079279" lon="-79.614823">
        <ele>249.45024</ele>
        <time>2025-04-04T11:27:52.000Z</time>
      </trkpt>
      <trkpt lat="37.079302" lon="-79.615073">
        <ele>249.529664</ele>
        <time>2025-04-04T11:27:54.000Z</time>
      </trkpt>
      <trkpt lat="37.079288" lon="-79.615248">
        <ele>249.583366</ele>
        <time>2025-04-04T11:27:56.000Z</time>
      </trkpt>
      <trkpt lat="37.079257" lon="-79.615405">
        <ele>249.636351</ele>
        <time>2025-04-04T11:27:57.000Z</time>
      </trkpt>
      <trkpt lat="37.079216" lon="-79.615448">
        <ele>249.656081</ele>
        <time>2025-04-04T11:27:58.000Z</time>
      </trkpt>
      <trkpt lat="37.07925" lon="-79.615408">
        <ele>249.675813</ele>
        <time>2025-04-04T11:27:59.000Z</time>
      </trkpt>
      <trkpt lat="37.079288" lon="-79.615238">
        <ele>249.7288</ele>
        <time>2025-04-04T11:28:01.000Z</time>
      </trkpt>
      <trkpt lat="37.079284" lon="-79.615077">
        <ele>249.752627</ele>
        <time>2025-04-04T11:28:02.000Z</time>
      </trkpt>
      <trkpt lat="37.07928" lon="-79.614826">
        <ele>249.58321</ele>
        <time>2025-04-04T11:28:04.000Z</time>
      </trkpt>
      <trkpt lat="37.079201" lon="-79.614462">
        <ele>249.325303</ele>
        <time>2025-04-04T11:28:07.000Z</time>
      </trkpt>
      <trkpt lat="37.079074" lon="-79.614112">
        <ele>249.063663</ele>
        <time>2025-04-04T11:28:10.000Z</time>
      </trkpt>
      <trkpt lat="37.078824" lon="-79.613718">
        <ele>248.715097</ele>
        <time>2025-04-04T11:28:14.000Z</time>
      </trkpt>
      <trkpt lat="37.078697" lon="-79.613366">
        <ele>248.452912</ele>
        <time>2025-04-04T11:28:17.000Z</time>
      </trkpt>
      <trkpt lat="37.078577" lon="-79.613025">
        <ele>248.195215</ele>
        <time>2025-04-04T11:28:20.000Z</time>
      </trkpt>
      <trkpt lat="37.078485" lon="-79.612633">
        <ele>247.782784</ele>
        <time>2025-04-04T11:28:24.000Z</time>
      </trkpt>
      <trkpt lat="37.078484" lon="-79.612437">
        <ele>247.594346</ele>
        <time>2025-04-04T11:28:26.000Z</time>
      </trkpt>
      <trkpt lat="37.078531" lon="-79.612248">
        <ele>247.4068</ele>
        <time>2025-04-04T11:28:28.000Z</time>
      </trkpt>
      <trkpt lat="37.078585" lon="-79.612145">
        <ele>247.280618</ele>
        <time>2025-04-04T11:28:29.000Z</time>
      </trkpt>
      <trkpt lat="37.078663" lon="-79.61205">
        <ele>247.153548</ele>
        <time>2025-04-04T11:28:30.000Z</time>
      </trkpt>
      <trkpt lat="37.078772" lon="-79.611981">
        <ele>246.994462</ele>
        <time>2025-04-04T11:28:31.000Z</time>
      </trkpt>
      <trkpt lat="37.079168" lon="-79.611844">
        <ele>246.498147</ele>
        <time>2025-04-04T11:28:36.000Z</time>
      </trkpt>
      <trkpt lat="37.079352" lon="-79.611698">
        <ele>246.218021</ele>
        <time>2025-04-04T11:28:38.000Z</time>
      </trkpt>
      <trkpt lat="37.079458" lon="-79.611523">
        <ele>246.046849</ele>
        <time>2025-04-04T11:28:40.000Z</time>
      </trkpt>
      <trkpt lat="37.079542" lon="-79.61119">
        <ele>246.448901</ele>
        <time>2025-04-04T11:28:43.000Z</time>
      </trkpt>
      <trkpt lat="37.079648" lon="-79.610892">
        <ele>246.823837</ele>
        <time>2025-04-04T11:28:46.000Z</time>
      </trkpt>
      <trkpt lat="37.079734" lon="-79.61077">
        <ele>247.015919</ele>
        <time>2025-04-04T11:28:47.000Z</time>
      </trkpt>
      <trkpt lat="37.08" lon="-79.610514">
        <ele>247.489331</ele>
        <time>2025-04-04T11:28:51.000Z</time>
      </trkpt>
      <trkpt lat="37.080025" lon="-79.610443">
        <ele>247.584628</ele>
        <time>2025-04-04T11:28:52.000Z</time>
      </trkpt>
      <trkpt lat="37.080058" lon="-79.610274">
        <ele>247.775649</ele>
        <time>2025-04-04T11:28:54.000Z</time>
      </trkpt>
      <trkpt lat="37.080016" lon="-79.609837">
        <ele>248.279011</ele>
        <time>2025-04-04T11:28:58.000Z</time>
      </trkpt>
      <trkpt lat="37.080029" lon="-79.60965">
        <ele>248.487322</ele>
        <time>2025-04-04T11:29:00.000Z</time>
      </trkpt>
      <trkpt lat="37.080102" lon="-79.609431">
        <ele>249.055068</ele>
        <time>2025-04-04T11:29:02.000Z</time>
      </trkpt>
      <trkpt lat="37.080145" lon="-79.609342">
        <ele>249.481983</ele>
        <time>2025-04-04T11:29:03.000Z</time>
      </trkpt>
      <trkpt lat="37.080356" lon="-79.609069">
        <ele>250.869747</ele>
        <time>2025-04-04T11:29:06.000Z</time>
      </trkpt>
      <trkpt lat="37.080928" lon="-79.608525">
        <ele>254.241276</ele>
        <time>2025-04-04T11:29:14.000Z</time>
      </trkpt>
      <trkpt lat="37.081295" lon="-79.6082">
        <ele>256.314644</ele>
        <time>2025-04-04T11:29:19.000Z</time>
      </trkpt>
      <trkpt lat="37.081568" lon="-79.608025">
        <ele>257.104574</ele>
        <time>2025-04-04T11:29:22.000Z</time>
      </trkpt>
      <trkpt lat="37.082139" lon="-79.6078">
        <ele>257.621482</ele>
        <time>2025-04-04T11:29:29.000Z</time>
      </trkpt>
      <trkpt lat="37.082441" lon="-79.607641">
        <ele>257.908453</ele>
        <time>2025-04-04T11:29:33.000Z</time>
      </trkpt>
      <trkpt lat="37.082609" lon="-79.607477">
        <ele>258.092477</ele>
        <time>2025-04-04T11:29:35.000Z</time>
      </trkpt>
      <trkpt lat="37.082807" lon="-79.607152">
        <ele>258.381307</ele>
        <time>2025-04-04T11:29:39.000Z</time>
      </trkpt>
      <trkpt lat="37.082884" lon="-79.606948">
        <ele>258.52312</ele>
        <time>2025-04-04T11:29:41.000Z</time>
      </trkpt>
      <trkpt lat="37.082962" lon="-79.606616">
        <ele>258.620531</ele>
        <time>2025-04-04T11:29:44.000Z</time>
      </trkpt>
      <trkpt lat="37.083114" lon="-79.604693">
        <ele>259.14667</ele>
        <time>2025-04-04T11:30:01.000Z</time>
      </trkpt>
      <trkpt lat="37.083205" lon="-79.604424">
        <ele>259.211057</ele>
        <time>2025-04-04T11:30:04.000Z</time>
      </trkpt>
      <trkpt lat="37.083379" lon="-79.60412">
        <ele>259.295098</ele>
        <time>2025-04-04T11:30:07.000Z</time>
      </trkpt>
      <trkpt lat="37.083613" lon="-79.60382">
        <ele>259.385778</ele>
        <time>2025-04-04T11:30:11.000Z</time>
      </trkpt>
      <trkpt lat="37.083924" lon="-79.603632">
        <ele>259.47989</ele>
        <time>2025-04-04T11:30:15.000Z</time>
      </trkpt>
      <trkpt lat="37.085184" lon="-79.603171">
        <ele>259.568608</ele>
        <time>2025-04-04T11:30:30.000Z</time>
      </trkpt>
      <trkpt lat="37.085434" lon="-79.602965">
        <ele>259.543059</ele>
        <time>2025-04-04T11:30:33.000Z</time>
      </trkpt>
      <trkpt lat="37.085662" lon="-79.602707">
        <ele>259.516796</ele>
        <time>2025-04-04T11:30:36.000Z</time>
      </trkpt>
      <trkpt lat="37.085835" lon="-79.602455">
        <ele>259.49406</ele>
        <time>2025-04-04T11:30:39.000Z</time>
      </trkpt>
      <trkpt lat="37.086018" lon="-79.602025">
        <ele>259.853021</ele>
        <time>2025-04-04T11:30:43.000Z</time>
      </trkpt>
      <trkpt lat="37.086757" lon="-79.599703">
        <ele>263.244352</ele>
        <time>2025-04-04T11:31:05.000Z</time>
      </trkpt>
      <trkpt lat="37.086912" lon="-79.599375">
        <ele>263.828846</ele>
        <time>2025-04-04T11:31:08.000Z</time>
      </trkpt>
      <trkpt lat="37.086964" lon="-79.599264">
        <ele>264.041916</ele>
        <time>2025-04-04T11:31:09.000Z</time>
      </trkpt>
      <trkpt lat="37.087294" lon="-79.598939">
        <ele>264.830702</ele>
        <time>2025-04-04T11:31:14.000Z</time>
      </trkpt>
      <trkpt lat="37.087777" lon="-79.598606">
        <ele>265.859766</ele>
        <time>2025-04-04T11:31:20.000Z</time>
      </trkpt>
      <trkpt lat="37.088275" lon="-79.598221">
        <ele>268.076716</ele>
        <time>2025-04-04T11:31:27.000Z</time>
      </trkpt>
      <trkpt lat="37.088587" lon="-79.597889">
        <ele>269.656096</ele>
        <time>2025-04-04T11:31:32.000Z</time>
      </trkpt>
      <trkpt lat="37.089128" lon="-79.59714">
        <ele>272.698031</ele>
        <time>2025-04-04T11:31:41.000Z</time>
      </trkpt>
      <trkpt lat="37.089566" lon="-79.596371">
        <ele>274.64665</ele>
        <time>2025-04-04T11:31:49.000Z</time>
      </trkpt>
      <trkpt lat="37.089743" lon="-79.596059">
        <ele>275.438178</ele>
        <time>2025-04-04T11:31:52.000Z</time>
      </trkpt>
      <trkpt lat="37.089812" lon="-79.595932">
        <ele>275.795582</ele>
        <time>2025-04-04T11:31:53.000Z</time>
      </trkpt>
      <trkpt lat="37.090182" lon="-79.595306">
        <ele>277.390049</ele>
        <time>2025-04-04T11:32:00.000Z</time>
      </trkpt>
      <trkpt lat="37.091102" lon="-79.593644">
        <ele>277.626456</ele>
        <time>2025-04-04T11:32:18.000Z</time>
      </trkpt>
      <trkpt lat="37.091421" lon="-79.593153">
        <ele>277.125812</ele>
        <time>2025-04-04T11:32:24.000Z</time>
      </trkpt>
      <trkpt lat="37.091524" lon="-79.593444">
        <ele>276.711379</ele>
        <time>2025-04-04T11:32:27.000Z</time>
      </trkpt>
      <trkpt lat="37.092193" lon="-79.595266">
        <ele>273.878346</ele>
        <time>2025-04-04T11:32:45.000Z</time>
      </trkpt>
      <trkpt lat="37.093368" lon="-79.598656">
        <ele>266.75577</ele>
        <time>2025-04-04T11:33:18.000Z</time>
      </trkpt>
      <trkpt lat="37.093988" lon="-79.600383">
        <ele>261.489643</ele>
        <time>2025-04-04T11:33:35.000Z</time>
      </trkpt>
      <trkpt lat="37.0941" lon="-79.600668">
        <ele>260.574386</ele>
        <time>2025-04-04T11:33:38.000Z</time>
      </trkpt>
      <trkpt lat="37.094397" lon="-79.601489">
        <ele>258.759765</ele>
        <time>2025-04-04T11:33:46.000Z</time>
      </trkpt>
      <trkpt lat="37.094623" lon="-79.601895">
        <ele>258.069672</ele>
        <time>2025-04-04T11:33:50.000Z</time>
      </trkpt>
      <trkpt lat="37.09493" lon="-79.60221">
        <ele>257.371635</ele>
        <time>2025-04-04T11:33:54.000Z</time>
      </trkpt>
      <trkpt lat="37.09587" lon="-79.60293">
        <ele>255.449082</ele>
        <time>2025-04-04T11:34:06.000Z</time>
      </trkpt>
      <trkpt lat="37.096063" lon="-79.603132">
        <ele>255.024768</ele>
        <time>2025-04-04T11:34:09.000Z</time>
      </trkpt>
      <trkpt lat="37.096965" lon="-79.604261">
        <ele>252.934698</ele>
        <time>2025-04-04T11:34:23.000Z</time>
      </trkpt>
      <trkpt lat="37.097073" lon="-79.604435">
        <ele>252.70501</ele>
        <time>2025-04-04T11:34:25.000Z</time>
      </trkpt>
      <trkpt lat="37.097228" lon="-79.604786">
        <ele>252.310554</ele>
        <time>2025-04-04T11:34:29.000Z</time>
      </trkpt>
      <trkpt lat="37.097318" lon="-79.605102">
        <ele>251.956653</ele>
        <time>2025-04-04T11:34:32.000Z</time>
      </trkpt>
      <trkpt lat="37.097339" lon="-79.605474">
        <ele>251.582122</ele>
        <time>2025-04-04T11:34:35.000Z</time>
      </trkpt>
      <trkpt lat="37.097214" lon="-79.607924">
        <ele>252.216621</ele>
        <time>2025-04-04T11:34:57.000Z</time>
      </trkpt>
      <trkpt lat="37.097107" lon="-79.608388">
        <ele>252.551764</ele>
        <time>2025-04-04T11:35:01.000Z</time>
      </trkpt>
      <trkpt lat="37.097031" lon="-79.608614">
        <ele>252.738722</ele>
        <time>2025-04-04T11:35:03.000Z</time>
      </trkpt>
      <trkpt lat="37.09687" lon="-79.608855">
        <ele>252.967704</ele>
        <time>2025-04-04T11:35:06.000Z</time>
      </trkpt>
      <trkpt lat="37.096698" lon="-79.609005">
        <ele>253.154281</ele>
        <time>2025-04-04T11:35:08.000Z</time>
      </trkpt>
      <trkpt lat="37.096675" lon="-79.609038">
        <ele>253.190914</ele>
        <time>2025-04-04T11:35:08.000Z</time>
      </trkpt>
      <trkpt lat="37.096407" lon="-79.60923">
        <ele>253.467889</ele>
        <time>2025-04-04T11:35:11.000Z</time>
      </trkpt>
      <trkpt lat="37.096145" lon="-79.609406">
        <ele>253.751994</ele>
        <time>2025-04-04T11:35:14.000Z</time>
      </trkpt>
      <trkpt lat="37.096013" lon="-79.609499">
        <ele>253.898894</ele>
        <time>2025-04-04T11:35:16.000Z</time>
      </trkpt>
      <trkpt lat="37.095792" lon="-79.609863">
        <ele>254.173204</ele>
        <time>2025-04-04T11:35:20.000Z</time>
      </trkpt>
      <trkpt lat="37.095732" lon="-79.609919">
        <ele>254.17321</ele>
        <time>2025-04-04T11:35:21.000Z</time>
      </trkpt>
      <trkpt lat="37.09567" lon="-79.609934">
        <ele>254.173205</ele>
        <time>2025-04-04T11:35:22.000Z</time>
      </trkpt>
      <trkpt lat="37.095619" lon="-79.610063">
        <ele>254.17321</ele>
        <time>2025-04-04T11:35:23.000Z</time>
      </trkpt>
      <trkpt lat="37.095588" lon="-79.610094">
        <ele>254.173212</ele>
        <time>2025-04-04T11:35:23.000Z</time>
      </trkpt>
      <trkpt lat="37.095083" lon="-79.610386">
        <ele>254.173206</ele>
        <time>2025-04-04T11:35:29.000Z</time>
      </trkpt>
      <trkpt lat="37.095074" lon="-79.610377">
        <ele>254.173206</ele>
        <time>2025-04-04T11:35:29.000Z</time>
      </trkpt>
      <trkpt lat="37.095032" lon="-79.610374">
        <ele>254.173212</ele>
        <time>2025-04-04T11:35:29.000Z</time>
      </trkpt>
      <trkpt lat="37.094964" lon="-79.610334">
        <ele>254.173214</ele>
        <time>2025-04-04T11:35:30.000Z</time>
      </trkpt>
      <trkpt lat="37.094914" lon="-79.610193">
        <ele>254.173204</ele>
        <time>2025-04-04T11:35:31.000Z</time>
      </trkpt>
      <trkpt lat="37.095437" lon="-79.60987">
        <ele>254.173213</ele>
        <time>2025-04-04T11:35:37.000Z</time>
      </trkpt>
      <trkpt lat="37.095496" lon="-79.609845">
        <ele>253.764444</ele>
        <time>2025-04-04T11:35:38.000Z</time>
      </trkpt>
      <trkpt lat="37.095522" lon="-79.609817">
        <ele>253.764448</ele>
        <time>2025-04-04T11:35:38.000Z</time>
      </trkpt>
      <trkpt lat="37.095593" lon="-79.609815">
        <ele>253.764457</ele>
        <time>2025-04-04T11:35:39.000Z</time>
      </trkpt>
      <trkpt lat="37.095603" lon="-79.609777">
        <ele>253.764451</ele>
        <time>2025-04-04T11:35:39.000Z</time>
      </trkpt>
      <trkpt lat="37.095691" lon="-79.609695">
        <ele>253.764457</ele>
        <time>2025-04-04T11:35:40.000Z</time>
      </trkpt>
      <trkpt lat="37.096" lon="-79.609489">
        <ele>253.764441</ele>
        <time>2025-04-04T11:35:44.000Z</time>
      </trkpt>
      <trkpt lat="37.09615" lon="-79.6094">
        <ele>253.764447</ele>
        <time>2025-04-04T11:35:46.000Z</time>
      </trkpt>
      <trkpt lat="37.096417" lon="-79.609222">
        <ele>253.577021</ele>
        <time>2025-04-04T11:35:49.000Z</time>
      </trkpt>
      <trkpt lat="37.096673" lon="-79.609026">
        <ele>253.258517</ele>
        <time>2025-04-04T11:35:52.000Z</time>
      </trkpt>
      <trkpt lat="37.096714" lon="-79.609004">
        <ele>253.216379</ele>
        <time>2025-04-04T11:35:52.000Z</time>
      </trkpt>
      <trkpt lat="37.096866" lon="-79.608853">
        <ele>253.001841</ele>
        <time>2025-04-04T11:35:54.000Z</time>
      </trkpt>
      <trkpt lat="37.097016" lon="-79.608628">
        <ele>252.73853</ele>
        <time>2025-04-04T11:35:57.000Z</time>
      </trkpt>
      <trkpt lat="37.097119" lon="-79.608389">
        <ele>252.523542</ele>
        <time>2025-04-04T11:35:59.000Z</time>
      </trkpt>
      <trkpt lat="37.097211" lon="-79.607932">
        <ele>252.109427</ele>
        <time>2025-04-04T11:36:03.000Z</time>
      </trkpt>
      <trkpt lat="37.097337" lon="-79.605474">
        <ele>251.21217</ele>
        <time>2025-04-04T11:36:25.000Z</time>
      </trkpt>
      <trkpt lat="37.097308" lon="-79.605104">
        <ele>251.532113</ele>
        <time>2025-04-04T11:36:28.000Z</time>
      </trkpt>
      <trkpt lat="37.097237" lon="-79.604782">
        <ele>252.028108</ele>
        <time>2025-04-04T11:36:31.000Z</time>
      </trkpt>
      <trkpt lat="37.09707" lon="-79.604437">
        <ele>252.580926</ele>
        <time>2025-04-04T11:36:35.000Z</time>
      </trkpt>
      <trkpt lat="37.096965" lon="-79.604265">
        <ele>252.902872</ele>
        <time>2025-04-04T11:36:37.000Z</time>
      </trkpt>
      <trkpt lat="37.096064" lon="-79.60314">
        <ele>255.079634</ele>
        <time>2025-04-04T11:36:51.000Z</time>
      </trkpt>
      <trkpt lat="37.095872" lon="-79.602938">
        <ele>255.472648</ele>
        <time>2025-04-04T11:36:54.000Z</time>
      </trkpt>
      <trkpt lat="37.09494" lon="-79.602209">
        <ele>257.255539</ele>
        <time>2025-04-04T11:37:06.000Z</time>
      </trkpt>
      <trkpt lat="37.094618" lon="-79.601898">
        <ele>258.14414</ele>
        <time>2025-04-04T11:37:11.000Z</time>
      </trkpt>
      <trkpt lat="37.094393" lon="-79.601486">
        <ele>259.025735</ele>
        <time>2025-04-04T11:37:15.000Z</time>
      </trkpt>
      <trkpt lat="37.094096" lon="-79.600672">
        <ele>260.614494</ele>
        <time>2025-04-04T11:37:23.000Z</time>
      </trkpt>
      <trkpt lat="37.094002" lon="-79.600387">
        <ele>261.168884</ele>
        <time>2025-04-04T11:37:26.000Z</time>
      </trkpt>
      <trkpt lat="37.093355" lon="-79.598669">
        <ele>266.773469</ele>
        <time>2025-04-04T11:37:43.000Z</time>
      </trkpt>
      <trkpt lat="37.092184" lon="-79.595267">
        <ele>273.865131</ele>
        <time>2025-04-04T11:38:16.000Z</time>
      </trkpt>
      <trkpt lat="37.091512" lon="-79.593431">
        <ele>276.617756</ele>
        <time>2025-04-04T11:38:34.000Z</time>
      </trkpt>
      <trkpt lat="37.091414" lon="-79.593146">
        <ele>276.889138</ele>
        <time>2025-04-04T11:38:37.000Z</time>
      </trkpt>
      <trkpt lat="37.091098" lon="-79.593647">
        <ele>277.430228</ele>
        <time>2025-04-04T11:38:43.000Z</time>
      </trkpt>
      <trkpt lat="37.090175" lon="-79.595304">
        <ele>276.958587</ele>
        <time>2025-04-04T11:39:01.000Z</time>
      </trkpt>
      <trkpt lat="37.089821" lon="-79.595917">
        <ele>276.432609</ele>
        <time>2025-04-04T11:39:08.000Z</time>
      </trkpt>
      <trkpt lat="37.08974" lon="-79.596069">
        <ele>275.954354</ele>
        <time>2025-04-04T11:39:10.000Z</time>
      </trkpt>
      <trkpt lat="37.089566" lon="-79.596374">
        <ele>274.895166</ele>
        <time>2025-04-04T11:39:13.000Z</time>
      </trkpt>
      <trkpt lat="37.089135" lon="-79.597127">
        <ele>272.287658</ele>
        <time>2025-04-04T11:39:21.000Z</time>
      </trkpt>
      <trkpt lat="37.088588" lon="-79.597889">
        <ele>269.551813</ele>
        <time>2025-04-04T11:39:30.000Z</time>
      </trkpt>
      <trkpt lat="37.088277" lon="-79.59822">
        <ele>268.241927</ele>
        <time>2025-04-04T11:39:35.000Z</time>
      </trkpt>
      <trkpt lat="37.08776" lon="-79.598611">
        <ele>266.390521</ele>
        <time>2025-04-04T11:39:42.000Z</time>
      </trkpt>
      <trkpt lat="37.087301" lon="-79.598929">
        <ele>264.686856</ele>
        <time>2025-04-04T11:39:48.000Z</time>
      </trkpt>
      <trkpt lat="37.08697" lon="-79.599259">
        <ele>263.89404</ele>
        <time>2025-04-04T11:39:53.000Z</time>
      </trkpt>
      <trkpt lat="37.086906" lon="-79.599368">
        <ele>263.691874</ele>
        <time>2025-04-04T11:39:54.000Z</time>
      </trkpt>
      <trkpt lat="37.086764" lon="-79.599712">
        <ele>263.137268</ele>
        <time>2025-04-04T11:39:57.000Z</time>
      </trkpt>
      <trkpt lat="37.086011" lon="-79.602012">
        <ele>260.165846</ele>
        <time>2025-04-04T11:40:19.000Z</time>
      </trkpt>
      <trkpt lat="37.085823" lon="-79.602446">
        <ele>259.700796</ele>
        <time>2025-04-04T11:40:23.000Z</time>
      </trkpt>
      <trkpt lat="37.08566" lon="-79.602716">
        <ele>259.385288</ele>
        <time>2025-04-04T11:40:26.000Z</time>
      </trkpt>
      <trkpt lat="37.085448" lon="-79.602971">
        <ele>259.251184</ele>
        <time>2025-04-04T11:40:29.000Z</time>
      </trkpt>
      <trkpt lat="37.08519" lon="-79.603176">
        <ele>259.344372</ele>
        <time>2025-04-04T11:40:32.000Z</time>
      </trkpt>
      <trkpt lat="37.083917" lon="-79.60363">
        <ele>259.7591</ele>
        <time>2025-04-04T11:40:47.000Z</time>
      </trkpt>
      <trkpt lat="37.083612" lon="-79.603827">
        <ele>259.564752</ele>
        <time>2025-04-04T11:40:51.000Z</time>
      </trkpt>
      <trkpt lat="37.08337" lon="-79.604111">
        <ele>259.357187</ele>
        <time>2025-04-04T11:40:55.000Z</time>
      </trkpt>
      <trkpt lat="37.083195" lon="-79.604427">
        <ele>259.164793</ele>
        <time>2025-04-04T11:40:58.000Z</time>
      </trkpt>
      <trkpt lat="37.08311" lon="-79.604705">
        <ele>259.017369</ele>
        <time>2025-04-04T11:41:01.000Z</time>
      </trkpt>
      <trkpt lat="37.082959" lon="-79.606606">
        <ele>258.729047</ele>
        <time>2025-04-04T11:41:18.000Z</time>
      </trkpt>
      <trkpt lat="37.082888" lon="-79.606953">
        <ele>258.758275</ele>
        <time>2025-04-04T11:41:21.000Z</time>
      </trkpt>
      <trkpt lat="37.082806" lon="-79.607141">
        <ele>258.77585</ele>
        <time>2025-04-04T11:41:23.000Z</time>
      </trkpt>
      <trkpt lat="37.082611" lon="-79.607478">
        <ele>258.810196</ele>
        <time>2025-04-04T11:41:27.000Z</time>
      </trkpt>
      <trkpt lat="37.082436" lon="-79.607629">
        <ele>258.519664</ele>
        <time>2025-04-04T11:41:29.000Z</time>
      </trkpt>
      <trkpt lat="37.082143" lon="-79.607796">
        <ele>257.683879</ele>
        <time>2025-04-04T11:41:33.000Z</time>
      </trkpt>
      <trkpt lat="37.081578" lon="-79.608019">
        <ele>256.178363</ele>
        <time>2025-04-04T11:41:40.000Z</time>
      </trkpt>
      <trkpt lat="37.081301" lon="-79.608201">
        <ele>255.390755</ele>
        <time>2025-04-04T11:41:43.000Z</time>
      </trkpt>
      <trkpt lat="37.080938" lon="-79.608516">
        <ele>254.256323</ele>
        <time>2025-04-04T11:41:48.000Z</time>
      </trkpt>
      <trkpt lat="37.080358" lon="-79.609078">
        <ele>251.354334</ele>
        <time>2025-04-04T11:41:56.000Z</time>
      </trkpt>
      <trkpt lat="37.080154" lon="-79.609342">
        <ele>250.159829</ele>
        <time>2025-04-04T11:41:59.000Z</time>
      </trkpt>
      <trkpt lat="37.080089" lon="-79.609448">
        <ele>249.792383</ele>
        <time>2025-04-04T11:42:00.000Z</time>
      </trkpt>
      <trkpt lat="37.080026" lon="-79.609648">
        <ele>249.068391</ele>
        <time>2025-04-04T11:42:02.000Z</time>
      </trkpt>
      <trkpt lat="37.080015" lon="-79.609838">
        <ele>248.487168</ele>
        <time>2025-04-04T11:42:04.000Z</time>
      </trkpt>
      <trkpt lat="37.080061" lon="-79.610269">
        <ele>247.082738</ele>
        <time>2025-04-04T11:42:08.000Z</time>
      </trkpt>
      <trkpt lat="37.080033" lon="-79.610438">
        <ele>247.025909</ele>
        <time>2025-04-04T11:42:10.000Z</time>
      </trkpt>
      <trkpt lat="37.079998" lon="-79.610506">
        <ele>246.999481</ele>
        <time>2025-04-04T11:42:11.000Z</time>
      </trkpt>
      <trkpt lat="37.079728" lon="-79.610774">
        <ele>246.868134</ele>
        <time>2025-04-04T11:42:15.000Z</time>
      </trkpt>
      <trkpt lat="37.079637" lon="-79.610894">
        <ele>246.814844</ele>
        <time>2025-04-04T11:42:16.000Z</time>
      </trkpt>
      <trkpt lat="37.079534" lon="-79.611204">
        <ele>246.710822</ele>
        <time>2025-04-04T11:42:19.000Z</time>
      </trkpt>
      <trkpt lat="37.079445" lon="-79.611525">
        <ele>246.599275</ele>
        <time>2025-04-04T11:42:22.000Z</time>
      </trkpt>
      <trkpt lat="37.07936" lon="-79.611698">
        <ele>246.536553</ele>
        <time>2025-04-04T11:42:24.000Z</time>
      </trkpt>
      <trkpt lat="37.079173" lon="-79.611842">
        <ele>246.445659</ele>
        <time>2025-04-04T11:42:26.000Z</time>
      </trkpt>
      <trkpt lat="37.07878" lon="-79.611985">
        <ele>246.664006</ele>
        <time>2025-04-04T11:42:31.000Z</time>
      </trkpt>
      <trkpt lat="37.078654" lon="-79.612062">
        <ele>246.858284</ele>
        <time>2025-04-04T11:42:33.000Z</time>
      </trkpt>
      <trkpt lat="37.078592" lon="-79.612148">
        <ele>247.013465</ele>
        <time>2025-04-04T11:42:34.000Z</time>
      </trkpt>
      <trkpt lat="37.078527" lon="-79.612256">
        <ele>247.167569</ele>
        <time>2025-04-04T11:42:35.000Z</time>
      </trkpt>
      <trkpt lat="37.078469" lon="-79.612431">
        <ele>247.396603</ele>
        <time>2025-04-04T11:42:37.000Z</time>
      </trkpt>
      <trkpt lat="37.078482" lon="-79.612632">
        <ele>247.626729</ele>
        <time>2025-04-04T11:42:39.000Z</time>
      </trkpt>
      <trkpt lat="37.078584" lon="-79.613031">
        <ele>248.13041</ele>
        <time>2025-04-04T11:42:43.000Z</time>
      </trkpt>
      <trkpt lat="37.078689" lon="-79.613359">
        <ele>248.559581</ele>
        <time>2025-04-04T11:42:46.000Z</time>
      </trkpt>
      <trkpt lat="37.078821" lon="-79.613719">
        <ele>249.018173</ele>
        <time>2025-04-04T11:42:50.000Z</time>
      </trkpt>
      <trkpt lat="37.079067" lon="-79.614106">
        <ele>249.206644</ele>
        <time>2025-04-04T11:42:54.000Z</time>
      </trkpt>
      <trkpt lat="37.079208" lon="-79.614454">
        <ele>249.329327</ele>
        <time>2025-04-04T11:42:57.000Z</time>
      </trkpt>
      <trkpt lat="37.079288" lon="-79.614826">
        <ele>249.450242</ele>
        <time>2025-04-04T11:43:00.000Z</time>
      </trkpt>
      <trkpt lat="37.079294" lon="-79.615079">
        <ele>249.529675</ele>
        <time>2025-04-04T11:43:02.000Z</time>
      </trkpt>
      <trkpt lat="37.079292" lon="-79.615234">
        <ele>249.58337</ele>
        <time>2025-04-04T11:43:03.000Z</time>
      </trkpt>
      <trkpt lat="37.079256" lon="-79.615405">
        <ele>249.636341</ele>
        <time>2025-04-04T11:43:05.000Z</time>
      </trkpt>
      <trkpt lat="37.079229" lon="-79.615441">
        <ele>249.656079</ele>
        <time>2025-04-04T11:43:05.000Z</time>
      </trkpt>
      <trkpt lat="37.079244" lon="-79.615392">
        <ele>249.675814</ele>
        <time>2025-04-04T11:43:05.000Z</time>
      </trkpt>
      <trkpt lat="37.079299" lon="-79.615248">
        <ele>249.7288</ele>
        <time>2025-04-04T11:43:06.000Z</time>
      </trkpt>
      <trkpt lat="37.079294" lon="-79.615078">
        <ele>249.752634</ele>
        <time>2025-04-04T11:43:08.000Z</time>
      </trkpt>
      <trkpt lat="37.079274" lon="-79.614819">
        <ele>249.583212</ele>
        <time>2025-04-04T11:43:10.000Z</time>
      </trkpt>
      <trkpt lat="37.079208" lon="-79.614448">
        <ele>249.325309</ele>
        <time>2025-04-04T11:43:13.000Z</time>
      </trkpt>
      <trkpt lat="37.079073" lon="-79.614123">
        <ele>249.063663</ele>
        <time>2025-04-04T11:43:16.000Z</time>
      </trkpt>
      <trkpt lat="37.078822" lon="-79.613718">
        <ele>248.715115</ele>
        <time>2025-04-04T11:43:21.000Z</time>
      </trkpt>
      <trkpt lat="37.078692" lon="-79.613359">
        <ele>248.452916</ele>
        <time>2025-04-04T11:43:24.000Z</time>
      </trkpt>
      <trkpt lat="37.078576" lon="-79.613031">
        <ele>248.195217</ele>
        <time>2025-04-04T11:43:27.000Z</time>
      </trkpt>
      <trkpt lat="37.078476" lon="-79.612635">
        <ele>247.782787</ele>
        <time>2025-04-04T11:43:31.000Z</time>
      </trkpt>
      <trkpt lat="37.078477" lon="-79.612439">
        <ele>247.594358</ele>
        <time>2025-04-04T11:43:33.000Z</time>
      </trkpt>
      <trkpt lat="37.078522" lon="-79.612252">
        <ele>247.406799</ele>
        <time>2025-04-04T11:43:35.000Z</time>
      </trkpt>
      <trkpt lat="37.078584" lon="-79.612154">
        <ele>247.280617</ele>
        <time>2025-04-04T11:43:36.000Z</time>
      </trkpt>
      <trkpt lat="37.078668" lon="-79.612053">
        <ele>247.153559</ele>
        <time>2025-04-04T11:43:37.000Z</time>
      </trkpt>
      <trkpt lat="37.078777" lon="-79.611992">
        <ele>246.994479</ele>
        <time>2025-04-04T11:43:38.000Z</time>
      </trkpt>
      <trkpt lat="37.079177" lon="-79.611857">
        <ele>246.498153</ele>
        <time>2025-04-04T11:43:43.000Z</time>
      </trkpt>
      <trkpt lat="37.079352" lon="-79.611685">
        <ele>246.218029</ele>
        <time>2025-04-04T11:43:45.000Z</time>
      </trkpt>
      <trkpt lat="37.079457" lon="-79.611535">
        <ele>246.046834</ele>
        <time>2025-04-04T11:43:47.000Z</time>
      </trkpt>
      <trkpt lat="37.079538" lon="-79.611191">
        <ele>246.448905</ele>
        <time>2025-04-04T11:43:50.000Z</time>
      </trkpt>
      <trkpt lat="37.079655" lon="-79.610889">
        <ele>246.82384</ele>
        <time>2025-04-04T11:43:53.000Z</time>
      </trkpt>
      <trkpt lat="37.079732" lon="-79.610764">
        <ele>247.015919</ele>
        <time>2025-04-04T11:43:54.000Z</time>
      </trkpt>
      <trkpt lat="37.079989" lon="-79.610515">
        <ele>247.489339</ele>
        <time>2025-04-04T11:43:58.000Z</time>
      </trkpt>
      <trkpt lat="37.080035" lon="-79.610432">
        <ele>247.584627</ele>
        <time>2025-04-04T11:43:59.000Z</time>
      </trkpt>
      <trkpt lat="37.080056" lon="-79.610266">
        <ele>247.775637</ele>
        <time>2025-04-04T11:44:00.000Z</time>
      </trkpt>
      <trkpt lat="37.080031" lon="-79.609833">
        <ele>248.27901</ele>
        <time>2025-04-04T11:44:04.000Z</time>
      </trkpt>
      <trkpt lat="37.080032" lon="-79.609658">
        <ele>248.487311</ele>
        <time>2025-04-04T11:44:06.000Z</time>
      </trkpt>
      <trkpt lat="37.08009" lon="-79.609447">
        <ele>249.055075</ele>
        <time>2025-04-04T11:44:08.000Z</time>
      </trkpt>
      <trkpt lat="37.080153" lon="-79.609349">
        <ele>249.481989</ele>
        <time>2025-04-04T11:44:09.000Z</time>
      </trkpt>
      <trkpt lat="37.080359" lon="-79.609069">
        <ele>250.869751</ele>
        <time>2025-04-04T11:44:12.000Z</time>
      </trkpt>
      <trkpt lat="37.080931" lon="-79.608519">
        <ele>254.241263</ele>
        <time>2025-04-04T11:44:20.000Z</time>
      </trkpt>
      <trkpt lat="37.081291" lon="-79.608207">
        <ele>256.31464</ele>
        <time>2025-04-04T11:44:25.000Z</time>
      </trkpt>
      <trkpt lat="37.081584" lon="-79.608031">
        <ele>257.104581</ele>
        <time>2025-04-04T11:44:29.000Z</time>
      </trkpt>
      <trkpt lat="37.082139" lon="-79.607809">
        <ele>257.621491</ele>
        <time>2025-04-04T11:44:35.000Z</time>
      </trkpt>
      <trkpt lat="37.082441" lon="-79.607641">
        <ele>257.90844</ele>
        <time>2025-04-04T11:44:39.000Z</time>
      </trkpt>
      <trkpt lat="37.082619" lon="-79.607473">
        <ele>258.092473</ele>
        <time>2025-04-04T11:44:41.000Z</time>
      </trkpt>
      <trkpt lat="37.08281" lon="-79.607151">
        <ele>258.381316</ele>
        <time>2025-04-04T11:44:45.000Z</time>
      </trkpt>
      <trkpt lat="37.082891" lon="-79.60695">
        <ele>258.523108</ele>
        <time>2025-04-04T11:44:47.000Z</time>
      </trkpt>
      <trkpt lat="37.082958" lon="-79.60661">
        <ele>258.620532</ele>
        <time>2025-04-04T11:44:50.000Z</time>
      </trkpt>
      <trkpt lat="37.083111" lon="-79.604698">
        <ele>259.146666</ele>
        <time>2025-04-04T11:45:07.000Z</time>
      </trkpt>
      <trkpt lat="37.083194" lon="-79.604433">
        <ele>259.211061</ele>
        <time>2025-04-04T11:45:10.000Z</time>
      </trkpt>
      <trkpt lat="37.083362" lon="-79.604117">
        <ele>259.295097</ele>
        <time>2025-04-04T11:45:13.000Z</time>
      </trkpt>
      <trkpt lat="37.083607" lon="-79.603831">
        <ele>259.385778</ele>
        <time>2025-04-04T11:45:17.000Z</time>
      </trkpt>
      <trkpt lat="37.083914" lon="-79.603644">
        <ele>259.479881</ele>
        <time>2025-04-04T11:45:21.000Z</time>
      </trkpt>
      <trkpt lat="37.085186" lon="-79.603162">
        <ele>259.568604</ele>
        <time>2025-04-04T11:45:36.000Z</time>
      </trkpt>
      <trkpt lat="37.085442" lon="-79.602972">
        <ele>259.543047</ele>
        <time>2025-04-04T11:45:39.000Z</time>
      </trkpt>
      <trkpt lat="37.085672" lon="-79.602716">
        <ele>259.516814</ele>
        <time>2025-04-04T11:45:42.000Z</time>
      </trkpt>
      <trkpt lat="37.085825" lon="-79.602452">
        <ele>259.494052</ele>
        <time>2025-04-04T11:45:45.000Z</time>
      </trkpt>
      <trkpt lat="37.086008" lon="-79.602024">
        <ele>259.853015</ele>
        <time>2025-04-04T11:45:49.000Z</time>
      </trkpt>
      <trkpt lat="37.086765" lon="-79.599713">
        <ele>263.24434</ele>
        <time>2025-04-04T11:46:11.000Z</time>
      </trkpt>
      <trkpt lat="37.086909" lon="-79.599378">
        <ele>263.828852</ele>
        <time>2025-04-04T11:46:14.000Z</time>
      </trkpt>
      <trkpt lat="37.086962" lon="-79.599259">
        <ele>264.041918</ele>
        <time>2025-04-04T11:46:15.000Z</time>
      </trkpt>
      <trkpt lat="37.087301" lon="-79.598933">
        <ele>264.830711</ele>
        <time>2025-04-04T11:46:20.000Z</time>
      </trkpt>
      <trkpt lat="37.087772" lon="-79.598599">
        <ele>265.859767</ele>
        <time>2025-04-04T11:46:26.000Z</time>
      </trkpt>
      <trkpt lat="37.088267" lon="-79.598217">
        <ele>268.076726</ele>
        <time>2025-04-04T11:46:32.000Z</time>
      </trkpt>
      <trkpt lat="37.088596" lon="-79.597894">
        <ele>269.656098</ele>
        <time>2025-04-04T11:46:37.000Z</time>
      </trkpt>
      <trkpt lat="37.089124" lon="-79.597138">
        <ele>272.698027</ele>
        <time>2025-04-04T11:46:46.000Z</time>
      </trkpt>
      <trkpt lat="37.089571" lon="-79.596364">
        <ele>274.646641</ele>
        <time>2025-04-04T11:46:54.000Z</time>
      </trkpt>
      <trkpt lat="37.089737" lon="-79.596061">
        <ele>275.438195</ele>
        <time>2025-04-04T11:46:57.000Z</time>
      </trkpt>
      <trkpt lat="37.089812" lon="-79.595927">
        <ele>275.795588</ele>
        <time>2025-04-04T11:46:58.000Z</time>
      </trkpt>
      <trkpt lat="37.090183" lon="-79.595292">
        <ele>277.39005</ele>
        <time>2025-04-04T11:47:05.000Z</time>
      </trkpt>
      <trkpt lat="37.091092" lon="-79.593647">
        <ele>277.626455</ele>
        <time>2025-04-04T11:47:23.000Z</time>
      </trkpt>
      <trkpt lat="37.091421" lon="-79.593145">
        <ele>277.125812</ele>
        <time>2025-04-04T11:47:29.000Z</time>
      </trkpt>
      <trkpt lat="37.091509" lon="-79.593437">
        <ele>276.711372</ele>
        <time>2025-04-04T11:47:32.000Z</time>
      </trkpt>
      <trkpt lat="37.092188" lon="-79.595277">
        <ele>273.878356</ele>
        <time>2025-04-04T11:47:50.000Z</time>
      </trkpt>
      <trkpt lat="37.093355" lon="-79.598669">
        <ele>266.75577</ele>
        <time>2025-04-04T11:48:23.000Z</time>
      </trkpt>
      <trkpt lat="37.093998" lon="-79.600386">
        <ele>261.489631</ele>
        <time>2025-04-04T11:48:40.000Z</time>
      </trkpt>
      <trkpt lat="37.094087" lon="-79.600668">
        <ele>260.574384</ele>
        <time>2025-04-04T11:48:43.000Z</time>
      </trkpt>
      <trkpt lat="37.094382" lon="-79.601495">
        <ele>258.759762</ele>
        <time>2025-04-04T11:48:51.000Z</time>
      </trkpt>
      <trkpt lat="37.094619" lon="-79.601886">
        <ele>258.069679</ele>
        <time>2025-04-04T11:48:55.000Z</time>
      </trkpt>
      <trkpt lat="37.094944" lon="-79.60221">
        <ele>257.371635</ele>
        <time>2025-04-04T11:49:00.000Z</time>
      </trkpt>
      <trkpt lat="37.095873" lon="-79.602947">
        <ele>255.449089</ele>
        <time>2025-04-04T11:49:12.000Z</time>
      </trkpt>
      <trkpt lat="37.096073" lon="-79.60313">
        <ele>255.024769</ele>
        <time>2025-04-04T11:49:15.000Z</time>
      </trkpt>
      <trkpt lat="37.096954" lon="-79.604261">
        <ele>252.934707</ele>
        <time>2025-04-04T11:49:29.000Z</time>
      </trkpt>
      <trkpt lat="37.097081" lon="-79.604441">
        <ele>252.705003</ele>
        <time>2025-04-04T11:49:31.000Z</time>
      </trkpt>
      <trkpt lat="37.09722" lon="-79.604771">
        <ele>252.310557</ele>
        <time>2025-04-04T11:49:34.000Z</time>
      </trkpt>
      <trkpt lat="37.097311" lon="-79.605111">
        <ele>251.956653</ele>
        <time>2025-04-04T11:49:37.000Z</time>
      </trkpt>
      <trkpt lat="37.097351" lon="-79.605472">
        <ele>251.582119</ele>
        <time>2025-04-04T11:49:40.000Z</time>
      </trkpt>
      <trkpt lat="37.097206" lon="-79.607932">
        <ele>252.216615</ele>
        <time>2025-04-04T11:50:02.000Z</time>
      </trkpt>
      <trkpt lat="37.097103" lon="-79.608384">
        <ele>252.551757</ele>
        <time>2025-04-04T11:50:06.000Z</time>
      </trkpt>
      <trkpt lat="37.097033" lon="-79.608627">
        <ele>252.738729</ele>
        <time>2025-04-04T11:50:08.000Z</time>
      </trkpt>
      <trkpt lat="37.09687" lon="-79.608862">
        <ele>252.967707</ele>
        <time>2025-04-04T11:50:11.000Z</time>
      </trkpt>
      <trkpt lat="37.096703" lon="-79.609009">
        <ele>253.154288</ele>
        <time>2025-04-04T11:50:13.000Z</time>
      </trkpt>
      <trkpt lat="37.096675" lon="-79.609034">
        <ele>253.190907</ele>
        <time>2025-04-04T11:50:13.000Z</time>
      </trkpt>
      <trkpt lat="37.096419" lon="-79.609219">
        <ele>253.467885</ele>
        <time>2025-04-04T11:50:16.000Z</time>
      </trkpt>
      <trkpt lat="37.096145" lon="-79.609406">
        <ele>253.751991</ele>
        <time>2025-04-04T11:50:19.000Z</time>
      </trkpt>
      <trkpt lat="37.095996" lon="-79.609502">
        <ele>253.898888</ele>
        <time>2025-04-04T11:50:21.000Z</time>
      </trkpt>
      <trkpt lat="37.095778" lon="-79.609864">
        <ele>254.173214</ele>
        <time>2025-04-04T11:50:25.000Z</time>
      </trkpt>
      <trkpt lat="37.095737" lon="-79.609928">
        <ele>254.173214</ele>
        <time>2025-04-04T11:50:26.000Z</time>
      </trkpt>
      <trkpt lat="37.095682" lon="-79.609938">
        <ele>254.173211</ele>
        <time>2025-04-04T11:50:27.000Z</time>
      </trkpt>
      <trkpt lat="37.095633" lon="-79.610055">
        <ele>254.173209</ele>
        <time>2025-04-04T11:50:28.000Z</time>
      </trkpt>
      <trkpt lat="37.095594" lon="-79.610094">
        <ele>254.173213</ele>
        <time>2025-04-04T11:50:29.000Z</time>
      </trkpt>
      <trkpt lat="37.095089" lon="-79.610387">
        <ele>254.173216</ele>
        <time>2025-04-04T11:50:35.000Z</time>
      </trkpt>
      <trkpt lat="37.095063" lon="-79.610372">
        <ele>254.173205</ele>
        <time>2025-04-04T11:50:35.000Z</time>
      </trkpt>
      <trkpt lat="37.095044" lon="-79.610383">
        <ele>254.173216</ele>
        <time>2025-04-04T11:50:35.000Z</time>
      </trkpt>
      <trkpt lat="37.094972" lon="-79.610344">
        <ele>254.17321</ele>
        <time>2025-04-04T11:50:36.000Z</time>
      </trkpt>
      <trkpt lat="37.094921" lon="-79.610181">
        <ele>254.17322</ele>
        <time>2025-04-04T11:50:38.000Z</time>
      </trkpt>
      <trkpt lat="37.095441" lon="-79.609865">
        <ele>254.173221</ele>
        <time>2025-04-04T11:50:44.000Z</time>
      </trkpt>
      <trkpt lat="37.095479" lon="-79.609844">
        <ele>253.764442</ele>
        <time>2025-04-04T11:50:44.000Z</time>
      </trkpt>
      <trkpt lat="37.095516" lon="-79.609817">
        <ele>253.76445</ele>
        <time>2025-04-04T11:50:44.000Z</time>
      </trkpt>
      <trkpt lat="37.095593" lon="-79.609814">
        <ele>253.764439</ele>
        <time>2025-04-04T11:50:45.000Z</time>
      </trkpt>
      <trkpt lat="37.095617" lon="-79.609773">
        <ele>253.764452</ele>
        <time>2025-04-04T11:50:45.000Z</time>
      </trkpt>
      <trkpt lat="37.095682" lon="-79.609695">
        <ele>253.764454</ele>
        <time>2025-04-04T11:50:46.000Z</time>
      </trkpt>
      <trkpt lat="37.095997" lon="-79.609497">
        <ele>253.764442</ele>
        <time>2025-04-04T11:50:50.000Z</time>
      </trkpt>
      <trkpt lat="37.096151" lon="-79.609399">
        <ele>253.764443</ele>
        <time>2025-04-04T11:50:52.000Z</time>
      </trkpt>
      <trkpt lat="37.096406" lon="-79.609215">
        <ele>253.577015</ele>
        <time>2025-04-04T11:50:55.000Z</time>
      </trkpt>
      <trkpt lat="37.096671" lon="-79.609043">
        <ele>253.258522</ele>
        <time>2025-04-04T11:50:58.000Z</time>
      </trkpt>
      <trkpt lat="37.09671" lon="-79.609014">
        <ele>253.216393</ele>
        <time>2025-04-04T11:50:59.000Z</time>
      </trkpt>
      <trkpt lat="37.096868" lon="-79.608861">
        <ele>253.001838</ele>
        <time>2025-04-04T11:51:01.000Z</time>
      </trkpt>
      <trkpt lat="37.097017" lon="-79.608612">
        <ele>252.738528</ele>
        <time>2025-04-04T11:51:04.000Z</time>
      </trkpt>
      <trkpt lat="37.097111" lon="-79.60839">
        <ele>252.523542</ele>
        <time>2025-04-04T11:51:06.000Z</time>
      </trkpt>
      <trkpt lat="37.097202" lon="-79.60793">
        <ele>252.109419</ele>
        <time>2025-04-04T11:51:10.000Z</time>
      </trkpt>
      <trkpt lat="37.097345" lon="-79.605471">
        <ele>251.212164</ele>
        <time>2025-04-04T11:51:32.000Z</time>
      </trkpt>
      <trkpt lat="37.097308" lon="-79.605109">
        <ele>251.53212</ele>
        <time>2025-04-04T11:51:35.000Z</time>
      </trkpt>
      <trkpt lat="37.097237" lon="-79.604785">
        <ele>252.028113</ele>
        <time>2025-04-04T11:51:38.000Z</time>
      </trkpt>
      <trkpt lat="37.097078" lon="-79.604436">
        <ele>252.580939</ele>
        <time>2025-04-04T11:51:42.000Z</time>
      </trkpt>
      <trkpt lat="37.09697" lon="-79.604258">
        <ele>252.902876</ele>
        <time>2025-04-04T11:51:44.000Z</time>
      </trkpt>
      <trkpt lat="37.096073" lon="-79.603137">
        <ele>255.079638</ele>
        <time>2025-04-04T11:51:58.000Z</time>
      </trkpt>
      <trkpt lat="37.09587" lon="-79.60294">
        <ele>255.472661</ele>
        <time>2025-04-04T11:52:01.000Z</time>
      </trkpt>
      <trkpt lat="37.094931" lon="-79.60221">
        <ele>257.255541</ele>
        <time>2025-04-04T11:52:13.000Z</time>
      </trkpt>
      <trkpt lat="37.094617" lon="-79.601904">
        <ele>258.144141</ele>
        <time>2025-04-04T11:52:17.000Z</time>
      </trkpt>
      <trkpt lat="37.094384" lon="-79.601484">
        <ele>259.025724</ele>
        <time>2025-04-04T11:52:22.000Z</time>
      </trkpt>
      <trkpt lat="37.094089" lon="-79.600679">
        <ele>260.61451</ele>
        <time>2025-04-04T11:52:30.000Z</time>
      </trkpt>
      <trkpt lat="37.093988" lon="-79.600384">
        <ele>261.168874</ele>
        <time>2025-04-04T11:52:33.000Z</time>
      </trkpt>
      <trkpt lat="37.093362" lon="-79.598661">
        <ele>266.773465</ele>
        <time>2025-04-04T11:52:50.000Z</time>
      </trkpt>
      <trkpt lat="37.092186" lon="-79.595279">
        <ele>273.865128</ele>
        <time>2025-04-04T11:53:23.000Z</time>
      </trkpt>
      <trkpt lat="37.091521" lon="-79.593433">
        <ele>276.617769</ele>
        <time>2025-04-04T11:53:41.000Z</time>
      </trkpt>
      <trkpt lat="37.091406" lon="-79.593144">
        <ele>276.889137</ele>
        <time>2025-04-04T11:53:44.000Z</time>
      </trkpt>
      <trkpt lat="37.091105" lon="-79.593647">
        <ele>277.430228</ele>
        <time>2025-04-04T11:53:50.000Z</time>
      </trkpt>
      <trkpt lat="37.090168" lon="-79.595296">
        <ele>276.958574</ele>
        <time>2025-04-04T11:54:08.000Z</time>
      </trkpt>
      <trkpt lat="37.089815" lon="-79.595928">
        <ele>276.432612</ele>
        <time>2025-04-04T11:54:15.000Z</time>
      </trkpt>
      <trkpt lat="37.089736" lon="-79.59607">
        <ele>275.954341</ele>
        <time>2025-04-04T11:54:17.000Z</time>
      </trkpt>
      <trkpt lat="37.089561" lon="-79.59637">
        <ele>274.895162</ele>
        <time>2025-04-04T11:54:20.000Z</time>
      </trkpt>
      <trkpt lat="37.089123" lon="-79.597133">
        <ele>272.287661</ele>
        <time>2025-04-04T11:54:28.000Z</time>
      </trkpt>
      <trkpt lat="37.088597" lon="-79.597893">
        <ele>269.551818</ele>
        <time>2025-04-04T11:54:37.000Z</time>
      </trkpt>
      <trkpt lat="37.088278" lon="-79.598214">
        <ele>268.241918</ele>
        <time>2025-04-04T11:54:42.000Z</time>
      </trkpt>
      <trkpt lat="37.087767" lon="-79.598607">
        <ele>266.390515</ele>
        <time>2025-04-04T11:54:49.000Z</time>
      </trkpt>
      <trkpt lat="37.087302" lon="-79.598923">
        <ele>264.686861</ele>
        <time>2025-04-04T11:54:55.000Z</time>
      </trkpt>
      <trkpt lat="37.08697" lon="-79.599266">
        <ele>263.894036</ele>
        <time>2025-04-04T11:55:00.000Z</time>
      </trkpt>
      <trkpt lat="37.086894" lon="-79.599369">
        <ele>263.691877</ele>
        <time>2025-04-04T11:55:01.000Z</time>
      </trkpt>
      <trkpt lat="37.086757" lon="-79.599721">
        <ele>263.137279</ele>
        <time>2025-04-04T11:55:04.000Z</time>
      </trkpt>
      <trkpt lat="37.086017" lon="-79.602014">
        <ele>260.165841</ele>
        <time>2025-04-04T11:55:26.000Z</time>
      </trkpt>
      <trkpt lat="37.085834" lon="-79.602456">
        <ele>259.7008</ele>
        <time>2025-04-04T11:55:30.000Z</time>
      </trkpt>
      <trkpt lat="37.085661" lon="-79.602715">
        <ele>259.385282</ele>
        <time>2025-04-04T11:55:33.000Z</time>
      </trkpt>
      <trkpt lat="37.085439" lon="-79.602981">
        <ele>259.251173</ele>
        <time>2025-04-04T11:55:36.000Z</time>
      </trkpt>
      <trkpt lat="37.085179" lon="-79.603173">
        <ele>259.344373</ele>
        <time>2025-04-04T11:55:39.000Z</time>
      </trkpt>
      <trkpt lat="37.083922" lon="-79.603629">
        <ele>259.759102</ele>
        <time>2025-04-04T11:55:54.000Z</time>
      </trkpt>
      <trkpt lat="37.083611" lon="-79.603824">
        <ele>259.564751</ele>
        <time>2025-04-04T11:55:58.000Z</time>
      </trkpt>
      <trkpt lat="37.083378" lon="-79.604115">
        <ele>259.357187</ele>
        <time>2025-04-04T11:56:02.000Z</time>
      </trkpt>
      <trkpt lat="37.083189" lon="-79.604431">
        <ele>259.16479</ele>
        <time>2025-04-04T11:56:06.000Z</time>
      </trkpt>
      <trkpt lat="37.083112" lon="-79.604707">
        <ele>259.017358</ele>
        <time>2025-04-04T11:56:09.000Z</time>
      </trkpt>
      <trkpt lat="37.082969" lon="-79.606604">
        <ele>258.729049</ele>
        <time>2025-04-04T11:56:26.000Z</time>
      </trkpt>
      <trkpt lat="37.082878" lon="-79.606945">
        <ele>258.758276</ele>
        <time>2025-04-04T11:56:29.000Z</time>
      </trkpt>
      <trkpt lat="37.082813" lon="-79.607148">
        <ele>258.775839</ele>
        <time>2025-04-04T11:56:31.000Z</time>
      </trkpt>
      <trkpt lat="37.082609" lon="-79.607483">
        <ele>258.810198</ele>
        <time>2025-04-04T11:56:35.000Z</time>
      </trkpt>
      <trkpt lat="37.082438" lon="-79.60763">
        <ele>258.519658</ele>
        <time>2025-04-04T11:56:37.000Z</time>
      </trkpt>
      <trkpt lat="37.08215" lon="-79.607801">
        <ele>257.683889</ele>
        <time>2025-04-04T11:56:41.000Z</time>
      </trkpt>
      <trkpt lat="37.081569" lon="-79.608032">
        <ele>256.178346</ele>
        <time>2025-04-04T11:56:48.000Z</time>
      </trkpt>
      <trkpt lat="37.081299" lon="-79.608201">
        <ele>255.39075</ele>
        <time>2025-04-04T11:56:51.000Z</time>
      </trkpt>
      <trkpt lat="37.080922" lon="-79.608526">
        <ele>254.256333</ele>
        <time>2025-04-04T11:56:56.000Z</time>
      </trkpt>
      <trkpt lat="37.080353" lon="-79.60907">
        <ele>251.354331</ele>
        <time>2025-04-04T11:57:04.000Z</time>
      </trkpt>
      <trkpt lat="37.080145" lon="-79.609349">
        <ele>250.159832</ele>
        <time>2025-04-04T11:57:07.000Z</time>
      </trkpt>
      <trkpt lat="37.080102" lon="-79.609444">
        <ele>249.792381</ele>
        <time>2025-04-04T11:57:08.000Z</time>
      </trkpt>
      <trkpt lat="37.080028" lon="-79.609647">
        <ele>249.068391</ele>
        <time>2025-04-04T11:57:10.000Z</time>
      </trkpt>
      <trkpt lat="37.080027" lon="-79.609833">
        <ele>248.487185</ele>
        <time>2025-04-04T11:57:12.000Z</time>
      </trkpt>
      <trkpt lat="37.080055" lon="-79.610281">
        <ele>247.082738</ele>
        <time>2025-04-04T11:57:16.000Z</time>
      </trkpt>
      <trkpt lat="37.080022" lon="-79.610429">
        <ele>247.025906</ele>
        <time>2025-04-04T11:57:17.000Z</time>
      </trkpt>
      <trkpt lat="37.079996" lon="-79.610506">
        <ele>246.999483</ele>
        <time>2025-04-04T11:57:18.000Z</time>
      </trkpt>
      <trkpt lat="37.079726" lon="-79.610779">
        <ele>246.868129</ele>
        <time>2025-04-04T11:57:22.000Z</time>
      </trkpt>
      <trkpt lat="37.079644" lon="-79.610897">
        <ele>246.814846</ele>
        <time>2025-04-04T11:57:23.000Z</time>
      </trkpt>
      <trkpt lat="37.079532" lon="-79.611202">
        <ele>246.710817</ele>
        <time>2025-04-04T11:57:26.000Z</time>
      </trkpt>
      <trkpt lat="37.079455" lon="-79.611529">
        <ele>246.599268</ele>
        <time>2025-04-04T11:57:29.000Z</time>
      </trkpt>
      <trkpt lat="37.079368" lon="-79.611698">
        <ele>246.536546</ele>
        <time>2025-04-04T11:57:31.000Z</time>
      </trkpt>
      <trkpt lat="37.079163" lon="-79.61186">
        <ele>246.445652</ele>
        <time>2025-04-04T11:57:34.000Z</time>
      </trkpt>
      <trkpt lat="37.078787" lon="-79.611995">
        <ele>246.664</ele>
        <time>2025-04-04T11:57:38.000Z</time>
      </trkpt>
      <trkpt lat="37.078652" lon="-79.612054">
        <ele>246.858278</ele>
        <time>2025-04-04T11:57:40.000Z</time>
      </trkpt>
      <trkpt lat="37.078588" lon="-79.612146">
        <ele>247.013454</ele>
        <time>2025-04-04T11:57:41.000Z</time>
      </trkpt>
      <trkpt lat="37.078524" lon="-79.612244">
        <ele>247.167582</ele>
        <time>2025-04-04T11:57:42.000Z</time>
      </trkpt>
      <trkpt lat="37.078481" lon="-79.612442">
        <ele>247.396608</ele>
        <time>2025-04-04T11:57:44.000Z</time>
      </trkpt>
      <trkpt lat="37.07847" lon="-79.612631">
        <ele>247.626732</ele>
        <time>2025-04-04T11:57:46.000Z</time>
      </trkpt>
      <trkpt lat="37.078585" lon="-79.613026">
        <ele>248.130413</ele>
        <time>2025-04-04T11:57:50.000Z</time>
      </trkpt>
      <trkpt lat="37.078696" lon="-79.613362">
        <ele>248.559579</ele>
        <time>2025-04-04T11:57:53.000Z</time>
      </trkpt>
      <trkpt lat="37.078816" lon="-79.613717">
        <ele>249.018185</ele>
        <time>2025-04-04T11:57:56.000Z</time>
      </trkpt>
      <trkpt lat="37.079075" lon="-79.614121">
        <ele>249.206659</ele>
        <time>2025-04-04T11:58:01.000Z</time>
      </trkpt>
      <trkpt lat="37.079215" lon="-79.614459">
        <ele>249.329317</ele>
        <time>2025-04-04T11:58:04.000Z</time>
      </trkpt>
      <trkpt lat="37.079289" lon="-79.614817">
        <ele>249.45024</ele>
        <time>2025-04-04T11:58:07.000Z</time>
      </trkpt>
      <trkpt lat="37.079299" lon="-79.615068">
        <ele>249.529678</ele>
        <time>2025-04-04T11:58:09.000Z</time>
      </trkpt>
      <trkpt lat="37.079285" lon="-79.615244">
        <ele>249.583368</ele>
        <time>2025-04-04T11:58:11.000Z</time>
      </trkpt>
      <trkpt lat="37.079244" lon="-79.615393">
        <ele>249.636348</ele>
        <time>2025-04-04T11:58:12.000Z</time>
      </trkpt>
      <trkpt lat="37.079217" lon="-79.615447">
        <ele>249.656074</ele>
        <time>2025-04-04T11:58:13.000Z</time>
      </trkpt>
      <trkpt lat="37.079256" lon="-79.615391">
        <ele>249.675813</ele>
        <time>2025-04-04T11:58:14.000Z</time>
      </trkpt>
      <trkpt lat="37.0793" lon="-79.615244">
        <ele>249.728804</ele>
        <time>2025-04-04T11:58:15.000Z</time>
      </trkpt>
      <trkpt lat="37.079292" lon="-79.61507">
        <ele>249.752635</ele>
        <time>2025-04-04T11:58:17.000Z</time>
      </trkpt>
      <trkpt lat="37.079289" lon="-79.61483">
        <ele>249.583211</ele>
        <time>2025-04-04T11:58:19.000Z</time>
      </trkpt>
      <trkpt lat="37.079218" lon="-79.614454">
        <ele>249.325305</ele>
        <time>2025-04-04T11:58:22.000Z</time>
      </trkpt>
      <trkpt lat="37.07908" lon="-79.614106">
        <ele>249.063662</ele>
        <time>2025-04-04T11:58:25.000Z</time>
      </trkpt>
      <trkpt lat="37.078815" lon="-79.613719">
        <ele>248.715104</ele>
        <time>2025-04-04T11:58:30.000Z</time>
      </trkpt>
      <trkpt lat="37.078691" lon="-79.613363">
        <ele>248.452912</ele>
        <time>2025-04-04T11:58:33.000Z</time>
      </trkpt>
      <trkpt lat="37.078587" lon="-79.613026">
        <ele>248.195204</ele>
        <time>2025-04-04T11:58:36.000Z</time>
      </trkpt>
      <trkpt lat="37.078475" lon="-79.612619">
        <ele>247.782794</ele>
        <time>2025-04-04T11:58:40.000Z</time>
      </trkpt>
      <trkpt lat="37.078472" lon="-79.61243">
        <ele>247.594344</ele>
        <time>2025-04-04T11:58:42.000Z</time>
      </trkpt>
      <trkpt lat="37.078519" lon="-79.612253">
        <ele>247.406808</ele>
        <time>2025-04-04T11:58:44.000Z</time>
      </trkpt>
      <trkpt lat="37.078591" lon="-79.612142">
        <ele>247.280623</ele>
        <time>2025-04-04T11:58:45.000Z</time>
      </trkpt>
      <trkpt lat="37.078659" lon="-79.612051">
        <ele>247.153561</ele>
        <time>2025-04-04T11:58:46.000Z</time>
      </trkpt>
      <trkpt lat="37.078783" lon="-79.611979">
        <ele>246.994466</ele>
        <time>2025-04-04T11:58:48.000Z</time>
      </trkpt>
      <trkpt lat="37.079167" lon="-79.611847">
        <ele>246.498138</ele>
        <time>2025-04-04T11:58:52.000Z</time>
      </trkpt>
      <trkpt lat="37.079357" lon="-79.611696">
        <ele>246.21803</ele>
        <time>2025-04-04T11:58:55.000Z</time>
      </trkpt>
      <trkpt lat="37.079449" lon="-79.61154">
        <ele>246.04685</ele>
        <time>2025-04-04T11:58:57.000Z</time>
      </trkpt>
      <trkpt lat="37.079539" lon="-79.611194">
        <ele>246.448914</ele>
        <time>2025-04-04T11:59:00.000Z</time>
      </trkpt>
      <trkpt lat="37.079643" lon="-79.610898">
        <ele>246.823833</ele>
        <time>2025-04-04T11:59:03.000Z</time>
      </trkpt>
      <trkpt lat="37.079733" lon="-79.610776">
        <ele>247.015921</ele>
        <time>2025-04-04T11:59:04.000Z</time>
      </trkpt>
      <trkpt lat="37.079987" lon="-79.610501">
        <ele>247.489322</ele>
        <time>2025-04-04T11:59:08.000Z</time>
      </trkpt>
      <trkpt lat="37.08002" lon="-79.610432">
        <ele>247.584634</ele>
        <time>2025-04-04T11:59:09.000Z</time>
      </trkpt>
      <trkpt lat="37.080055" lon="-79.610281">
        <ele>247.775634</ele>
        <time>2025-04-04T11:59:10.000Z</time>
      </trkpt>
      <trkpt lat="37.080022" lon="-79.609836">
        <ele>248.279002</ele>
        <time>2025-04-04T11:59:14.000Z</time>
      </trkpt>
      <trkpt lat="37.080036" lon="-79.60966">
        <ele>248.487313</ele>
        <time>2025-04-04T11:59:16.000Z</time>
      </trkpt>
      <trkpt lat="37.080094" lon="-79.609435">
        <ele>249.05508</ele>
        <time>2025-04-04T11:59:18.000Z</time>
      </trkpt>
      <trkpt lat="37.080143" lon="-79.609347">
        <ele>249.481972</ele>
        <time>2025-04-04T11:59:19.000Z</time>
      </trkpt>
      <trkpt lat="37.080364" lon="-79.609079">
        <ele>250.869756</ele>
        <time>2025-04-04T11:59:22.000Z</time>
      </trkpt>
      <trkpt lat="37.080929" lon="-79.608516">
        <ele>254.241275</ele>
        <time>2025-04-04T11:59:30.000Z</time>
      </trkpt>
      <trkpt lat="37.081299" lon="-79.608209">
        <ele>256.314642</ele>
        <time>2025-04-04T11:59:35.000Z</time>
      </trkpt>
      <trkpt lat="37.081584" lon="-79.608032">
        <ele>257.10458</ele>
        <time>2025-04-04T11:59:39.000Z</time>
      </trkpt>
      <trkpt lat="37.082144" lon="-79.607801">
        <ele>257.621482</ele>
        <time>2025-04-04T11:59:46.000Z</time>
      </trkpt>
      <trkpt lat="37.082441" lon="-79.607634">
        <ele>257.908437</ele>
        <time>2025-04-04T11:59:50.000Z</time>
      </trkpt>
      <trkpt lat="37.082618" lon="-79.607471">
        <ele>258.092471</ele>
        <time>2025-04-04T11:59:52.000Z</time>
      </trkpt>
      <trkpt lat="37.082817" lon="-79.607135">
        <ele>258.381306</ele>
        <time>2025-04-04T11:59:56.000Z</time>
      </trkpt>
      <trkpt lat="37.08289" lon="-79.606956">
        <ele>258.523113</ele>
        <time>2025-04-04T11:59:58.000Z</time>
      </trkpt>
      <trkpt lat="37.082958" lon="-79.606613">
        <ele>258.620539</ele>
        <time>2025-04-04T12:00:01.000Z</time>
      </trkpt>
      <trkpt lat="37.083108" lon="-79.604703">
        <ele>259.14667</ele>
        <time>2025-04-04T12:00:18.000Z</time>
      </trkpt>
      <trkpt lat="37.083189" lon="-79.604435">
        <ele>259.21107</ele>
        <time>2025-04-04T12:00:21.000Z</time>
      </trkpt>
      <trkpt lat="37.08337" lon="-79.604107">
        <ele>259.295099</ele>
        <time>2025-04-04T12:00:25.000Z</time>
      </trkpt>
      <trkpt lat="37.083609" lon="-79.603834">
        <ele>259.385779</ele>
        <time>2025-04-04T12:00:29.000Z</time>
      </trkpt>
      <trkpt lat="37.083924" lon="-79.603642">
        <ele>259.479893</ele>
        <time>2025-04-04T12:00:33.000Z</time>
      </trkpt>
      <trkpt lat="37.085188" lon="-79.603162">
        <ele>259.568618</ele>
        <time>2025-04-04T12:00:48.000Z</time>
      </trkpt>
      <trkpt lat="37.085432" lon="-79.602976">
        <ele>259.543043</ele>
        <time>2025-04-04T12:00:51.000Z</time>
      </trkpt>
      <trkpt lat="37.085665" lon="-79.60272">
        <ele>259.516804</ele>
        <time>2025-04-04T12:00:54.000Z</time>
      </trkpt>
      <trkpt lat="37.085822" lon="-79.602449">
        <ele>259.494066</ele>
        <time>2025-04-04T12:00:57.000Z</time>
      </trkpt>
      <trkpt lat="37.086012" lon="-79.602013">
        <ele>259.853023</ele>
        <time>2025-04-04T12:01:01.000Z</time>
      </trkpt>
      <trkpt lat="37.086754" lon="-79.59971">
        <ele>263.244347</ele>
        <time>2025-04-04T12:01:23.000Z</time>
      </trkpt>
      <trkpt lat="37.086908" lon="-79.599376">
        <ele>263.828852</ele>
        <time>2025-04-04T12:01:26.000Z</time>
      </trkpt>
      <trkpt lat="37.086964" lon="-79.599266">
        <ele>264.041923</ele>
        <time>2025-04-04T12:01:27.000Z</time>
      </trkpt>
      <trkpt lat="37.087286" lon="-79.598925">
        <ele>264.830703</ele>
        <time>2025-04-04T12:01:32.000Z</time>
      </trkpt>
      <trkpt lat="37.087773" lon="-79.5986">
        <ele>265.859769</ele>
        <time>2025-04-04T12:01:38.000Z</time>
      </trkpt>
      <trkpt lat="37.088267" lon="-79.598212">
        <ele>268.076725</ele>
        <time>2025-04-04T12:01:44.000Z</time>
      </trkpt>
      <trkpt lat="37.088599" lon="-79.597887">
        <ele>269.656089</ele>
        <time>2025-04-04T12:01:49.000Z</time>
      </trkpt>
      <trkpt lat="37.089126" lon="-79.597139">
        <ele>272.698019</ele>
        <time>2025-04-04T12:01:58.000Z</time>
      </trkpt>
      <trkpt lat="37.089566" lon="-79.596377">
        <ele>274.646651</ele>
        <time>2025-04-04T12:02:06.000Z</time>
      </trkpt>
      <trkpt lat="37.089734" lon="-79.596056">
        <ele>275.438194</ele>
        <time>2025-04-04T12:02:09.000Z</time>
      </trkpt>
      <trkpt lat="37.089822" lon="-79.595929">
        <ele>275.79559</ele>
        <time>2025-04-04T12:02:10.000Z</time>
      </trkpt>
      <trkpt lat="37.090178" lon="-79.595301">
        <ele>277.390062</ele>
        <time>2025-04-04T12:02:17.000Z</time>
      </trkpt>
      <trkpt lat="37.091106" lon="-79.593645">
        <ele>277.626458</ele>
        <time>2025-04-04T12:02:35.000Z</time>
      </trkpt>
      <trkpt lat="37.091417" lon="-79.593141">
        <ele>277.125806</ele>
        <time>2025-04-04T12:02:41.000Z</time>
      </trkpt>
      <trkpt lat="37.091521" lon="-79.593434">
        <ele>276.711366</ele>
        <time>2025-04-04T12:02:44.000Z</time>
      </trkpt>
      <trkpt lat="37.092185" lon="-79.595283">
        <ele>273.878339</ele>
        <time>2025-04-04T12:03:02.000Z</time>
      </trkpt>
      <trkpt lat="37.093359" lon="-79.598669">
        <ele>266.75576</ele>
        <time>2025-04-04T12:03:35.000Z</time>
      </trkpt>
      <trkpt lat="37.093995" lon="-79.60038">
        <ele>261.489644</ele>
        <time>2025-04-04T12:03:52.000Z</time>
      </trkpt>
      <trkpt lat="37.094085" lon="-79.600665">
        <ele>260.574378</ele>
        <time>2025-04-04T12:03:55.000Z</time>
      </trkpt>
      <trkpt lat="37.094399" lon="-79.601481">
        <ele>258.759765</ele>
        <time>2025-04-04T12:04:03.000Z</time>
      </trkpt>
      <trkpt lat="37.09462" lon="-79.601893">
        <ele>258.069674</ele>
        <time>2025-04-04T12:04:07.000Z</time>
      </trkpt>
      <trkpt lat="37.094927" lon="-79.602209">
        <ele>257.371642</ele>
        <time>2025-04-04T12:04:11.000Z</time>
      </trkpt>
      <trkpt lat="37.095884" lon="-79.602941">
        <ele>255.449087</ele>
        <time>2025-04-04T12:04:23.000Z</time>
      </trkpt>
      <trkpt lat="37.096063" lon="-79.603127">
        <ele>255.024784</ele>
        <time>2025-04-04T12:04:26.000Z</time>
      </trkpt>
      <trkpt lat="37.096966" lon="-79.604249">
        <ele>252.934705</ele>
        <time>2025-04-04T12:04:40.000Z</time>
      </trkpt>
      <trkpt lat="37.097067" lon="-79.604447">
        <ele>252.704996</ele>
        <time>2025-04-04T12:04:42.000Z</time>
      </trkpt>
      <trkpt lat="37.097225" lon="-79.604771">
        <ele>252.310564</ele>
        <time>2025-04-04T12:04:45.000Z</time>
      </trkpt>
      <trkpt lat="37.097319" lon="-79.605114">
        <ele>251.956658</ele>
        <time>2025-04-04T12:04:48.000Z</time>
      </trkpt>
      <trkpt lat="37.097341" lon="-79.605482">
        <ele>251.582119</ele>
        <time>2025-04-04T12:04:51.000Z</time>
      </trkpt>
      <trkpt lat="37.09721" lon="-79.607926">
        <ele>252.216631</ele>
        <time>2025-04-04T12:05:13.000Z</time>
      </trkpt>
      <trkpt lat="37.097116" lon="-79.608385">
        <ele>252.551756</ele>
        <time>2025-04-04T12:05:17.000Z</time>
      </trkpt>
      <trkpt lat="37.09703" lon="-79.608614">
        <ele>252.738728</ele>
        <time>2025-04-04T12:05:19.000Z</time>
      </trkpt>
      <trkpt lat="37.096867" lon="-79.60886">
        <ele>252.967713</ele>
        <time>2025-04-04T12:05:22.000Z</time>
      </trkpt>
      <trkpt lat="37.096701" lon="-79.609001">
        <ele>253.154284</ele>
        <time>2025-04-04T12:05:24.000Z</time>
      </trkpt>
      <trkpt lat="37.096672" lon="-79.609035">
        <ele>253.190916</ele>
        <time>2025-04-04T12:05:24.000Z</time>
      </trkpt>
      <trkpt lat="37.096423" lon="-79.60923">
        <ele>253.467892</ele>
        <time>2025-04-04T12:05:27.000Z</time>
      </trkpt>
      <trkpt lat="37.096154" lon="-79.609399">
        <ele>253.751985</ele>
        <time>2025-04-04T12:05:30.000Z</time>
      </trkpt>
      <trkpt lat="37.096014" lon="-79.609487">
        <ele>253.898889</ele>
        <time>2025-04-04T12:05:32.000Z</time>
      </trkpt>
      <trkpt lat="37.095787" lon="-79.609871">
        <ele>254.17322</ele>
        <time>2025-04-04T12:05:36.000Z</time>
      </trkpt>
      <trkpt lat="37.095744" lon="-79.609933">
        <ele>254.17322</ele>
        <time>2025-04-04T12:05:37.000Z</time>
      </trkpt>
      <trkpt lat="37.095674" lon="-79.609944">
        <ele>254.173203</ele>
        <time>2025-04-04T12:05:38.000Z</time>
      </trkpt>
      <trkpt lat="37.09562" lon="-79.610047">
        <ele>254.173212</ele>
        <time>2025-04-04T12:05:39.000Z</time>
      </trkpt>
      <trkpt lat="37.095589" lon="-79.610105">
        <ele>254.173221</ele>
        <time>2025-04-04T12:05:40.000Z</time>
      </trkpt>
      <trkpt lat="37.095075" lon="-79.610379">
        <ele>254.173217</ele>
        <time>2025-04-04T12:05:46.000Z</time>
      </trkpt>
      <trkpt lat="37.095064" lon="-79.610387">
        <ele>254.173207</ele>
        <time>2025-04-04T12:05:46.000Z</time>
      </trkpt>
      <trkpt lat="37.095042" lon="-79.610376">
        <ele>254.173209</ele>
        <time>2025-04-04T12:05:46.000Z</time>
      </trkpt>
      <trkpt lat="37.094976" lon="-79.610329">
        <ele>254.173219</ele>
        <time>2025-04-04T12:05:47.000Z</time>
      </trkpt>
      <trkpt lat="37.094916" lon="-79.610182">
        <ele>254.173208</ele>
        <time>2025-04-04T12:05:48.000Z</time>
      </trkpt>
      <trkpt lat="37.095454" lon="-79.60987">
        <ele>254.173203</ele>
        <time>2025-04-04T12:05:55.000Z</time>
      </trkpt>
      <trkpt lat="37.095478" lon="-79.60984">
        <ele>253.764449</ele>
        <time>2025-04-04T12:05:55.000Z</time>
      </trkpt>
      <trkpt lat="37.095531" lon="-79.60982">
        <ele>253.764445</ele>
        <time>2025-04-04T12:05:56.000Z</time>
      </trkpt>
      <trkpt lat="37.095593" lon="-79.609825">
        <ele>253.764457</ele>
        <time>2025-04-04T12:05:57.000Z</time>
      </trkpt>
      <trkpt lat="37.095621" lon="-79.609774">
        <ele>253.764447</ele>
        <time>2025-04-04T12:05:58.000Z</time>
      </trkpt>
      <trkpt lat="37.095677" lon="-79.609708">
        <ele>253.764452</ele>
        <time>2025-04-04T12:05:59.000Z</time>
      </trkpt>
      <trkpt lat="37.096" lon="-79.609501">
        <ele>253.764452</ele>
        <time>2025-04-04T12:06:03.000Z</time>
      </trkpt>
      <trkpt lat="37.096147" lon="-79.609403">
        <ele>253.764452</ele>
        <time>2025-04-04T12:06:05.000Z</time>
      </trkpt>
      <trkpt lat="37.096422" lon="-79.609217">
        <ele>253.577006</ele>
        <time>2025-04-04T12:06:08.000Z</time>
      </trkpt>
      <trkpt lat="37.096674" lon="-79.609039">
        <ele>253.258519</ele>
        <time>2025-04-04T12:06:11.000Z</time>
      </trkpt>
      <trkpt lat="37.096699" lon="-79.609011">
        <ele>253.216388</ele>
        <time>2025-04-04T12:06:11.000Z</time>
      </trkpt>
      <trkpt lat="37.096859" lon="-79.608852">
        <ele>253.001833</ele>
        <time>2025-04-04T12:06:13.000Z</time>
      </trkpt>
      <trkpt lat="37.09702" lon="-79.608627">
        <ele>252.738529</ele>
        <time>2025-04-04T12:06:16.000Z</time>
      </trkpt>
      <trkpt lat="37.097111" lon="-79.608395">
        <ele>252.523545</ele>
        <time>2025-04-04T12:06:18.000Z</time>
      </trkpt>
      <trkpt lat="37.097218" lon="-79.607923">
        <ele>252.109433</ele>
        <time>2025-04-04T12:06:22.000Z</time>
      </trkpt>
      <trkpt lat="37.097342" lon="-79.605479">
        <ele>251.212158</ele>
        <time>2025-04-04T12:06:44.000Z</time>
      </trkpt>
      <trkpt lat="37.097321" lon="-79.605114">
        <ele>251.53212</ele>
        <time>2025-04-04T12:06:47.000Z</time>
      </trkpt>
      <trkpt lat="37.097229" lon="-79.604783">
        <ele>252.028117</ele>
        <time>2025-04-04T12:06:50.000Z</time>
      </trkpt>
      <trkpt lat="37.097075" lon="-79.604447">
        <ele>252.580925</ele>
        <time>2025-04-04T12:06:53.000Z</time>
      </trkpt>
      <trkpt lat="37.096957" lon="-79.604248">
        <ele>252.902869</ele>
        <time>2025-04-04T12:06:55.000Z</time>
      </trkpt>
      <trkpt lat="37.096071" lon="-79.603123">
        <ele>255.079636</ele>
        <time>2025-04-04T12:07:09.000Z</time>
      </trkpt>
      <trkpt lat="37.095884" lon="-79.60294">
        <ele>255.47265</ele>
        <time>2025-04-04T12:07:12.000Z</time>
      </trkpt>
      <trkpt lat="37.094926" lon="-79.602204">
        <ele>257.255536</ele>
        <time>2025-04-04T12:07:24.000Z</time>
      </trkpt>
      <trkpt lat="37.094623" lon="-79.601899">
        <ele>258.14415</ele>
        <time>2025-04-04T12:07:28.000Z</time>
      </trkpt>
      <trkpt lat="37.094386" lon="-79.601481">
        <ele>259.025723</ele>
        <time>2025-04-04T12:07:33.000Z</time>
      </trkpt>
      <trkpt lat="37.094091" lon="-79.600666">
        <ele>260.614508</ele>
        <time>2025-04-04T12:07:41.000Z</time>
      </trkpt>
      <trkpt lat="37.094002" lon="-79.600378">
        <ele>261.168873</ele>
        <time>2025-04-04T12:07:44.000Z</time>
      </trkpt>
      <trkpt lat="37.093362" lon="-79.598671">
        <ele>266.773467</ele>
        <time>2025-04-04T12:08:01.000Z</time>
      </trkpt>
      <trkpt lat="37.092188" lon="-79.595278">
        <ele>273.865117</ele>
        <time>2025-04-04T12:08:34.000Z</time>
      </trkpt>
      <trkpt lat="37.091522" lon="-79.593429">
        <ele>276.617762</ele>
        <time>2025-04-04T12:08:52.000Z</time>
      </trkpt>
      <trkpt lat="37.091407" lon="-79.593151">
        <ele>276.889122</ele>
        <time>2025-04-04T12:08:55.000Z</time>
      </trkpt>
      <trkpt lat="37.091105" lon="-79.593641">
        <ele>277.430211</ele>
        <time>2025-04-04T12:09:00.000Z</time>
      </trkpt>
      <trkpt lat="37.090174" lon="-79.595305">
        <ele>276.958573</ele>
        <time>2025-04-04T12:09:18.000Z</time>
      </trkpt>
      <trkpt lat="37.089813" lon="-79.595917">
        <ele>276.432595</ele>
        <time>2025-04-04T12:09:25.000Z</time>
      </trkpt>
      <trkpt lat="37.089747" lon="-79.596062">
        <ele>275.954352</ele>
        <time>2025-04-04T12:09:26.000Z</time>
      </trkpt>
      <trkpt lat="37.089558" lon="-79.596378">
        <ele>274.895166</ele>
        <time>2025-04-04T12:09:30.000Z</time>
      </trkpt>
      <trkpt lat="37.089127" lon="-79.597137">
        <ele>272.287648</ele>
        <time>2025-04-04T12:09:38.000Z</time>
      </trkpt>
      <trkpt lat="37.088592" lon="-79.597884">
        <ele>269.551819</ele>
        <time>2025-04-04T12:09:47.000Z</time>
      </trkpt>
      <trkpt lat="37.088269" lon="-79.598209">
        <ele>268.241913</ele>
        <time>2025-04-04T12:09:52.000Z</time>
      </trkpt>
      <trkpt lat="37.08777" lon="-79.598595">
        <ele>266.390506</ele>
        <time>2025-04-04T12:09:59.000Z</time>
      </trkpt>
      <trkpt lat="37.087298" lon="-79.598934">
        <ele>264.686853</ele>
        <time>2025-04-04T12:10:05.000Z</time>
      </trkpt>
      <trkpt lat="37.086976" lon="-79.599254">
        <ele>263.894031</ele>
        <time>2025-04-04T12:10:10.000Z</time>
      </trkpt>
      <trkpt lat="37.086898" lon="-79.599363">
        <ele>263.691883</ele>
        <time>2025-04-04T12:10:11.000Z</time>
      </trkpt>
      <trkpt lat="37.086759" lon="-79.599709">
        <ele>263.137284</ele>
        <time>2025-04-04T12:10:14.000Z</time>
      </trkpt>
      <trkpt lat="37.086009" lon="-79.602009">
        <ele>260.165847</ele>
        <time>2025-04-04T12:10:36.000Z</time>
      </trkpt>
      <trkpt lat="37.085823" lon="-79.602443">
        <ele>259.700806</ele>
        <time>2025-04-04T12:10:40.000Z</time>
      </trkpt>
      <trkpt lat="37.085672" lon="-79.602707">
        <ele>259.385285</ele>
        <time>2025-04-04T12:10:43.000Z</time>
      </trkpt>
      <trkpt lat="37.085449" lon="-79.602978">
        <ele>259.251177</ele>
        <time>2025-04-04T12:10:46.000Z</time>
      </trkpt>
      <trkpt lat="37.085192" lon="-79.603169">
        <ele>259.344366</ele>
        <time>2025-04-04T12:10:49.000Z</time>
      </trkpt>
      <trkpt lat="37.083911" lon="-79.603644">
        <ele>259.759089</ele>
        <time>2025-04-04T12:11:04.000Z</time>
      </trkpt>
      <trkpt lat="37.083618" lon="-79.603829">
        <ele>259.564762</ele>
        <time>2025-04-04T12:11:08.000Z</time>
      </trkpt>
      <trkpt lat="37.083376" lon="-79.604109">
        <ele>259.357186</ele>
        <time>2025-04-04T12:11:12.000Z</time>
      </trkpt>
      <trkpt lat="37.083188" lon="-79.604418">
        <ele>259.164796</ele>
        <time>2025-04-04T12:11:15.000Z</time>
      </trkpt>
      <trkpt lat="37.083117" lon="-79.604692">
        <ele>259.017369</ele>
        <time>2025-04-04T12:11:18.000Z</time>
      </trkpt>
      <trkpt lat="37.082972" lon="-79.606616">
        <ele>258.729042</ele>
        <time>2025-04-04T12:11:35.000Z</time>
      </trkpt>
      <trkpt lat="37.082887" lon="-79.606958">
        <ele>258.758289</ele>
        <time>2025-04-04T12:11:38.000Z</time>
      </trkpt>
      <trkpt lat="37.08282" lon="-79.607144">
        <ele>258.775837</ele>
        <time>2025-04-04T12:11:40.000Z</time>
      </trkpt>
      <trkpt lat="37.082604" lon="-79.607473">
        <ele>258.810199</ele>
        <time>2025-04-04T12:11:44.000Z</time>
      </trkpt>
      <trkpt lat="37.082439" lon="-79.607642">
        <ele>258.519662</ele>
        <time>2025-04-04T12:11:46.000Z</time>
      </trkpt>
      <trkpt lat="37.082152" lon="-79.607809">
        <ele>257.683878</ele>
        <time>2025-04-04T12:11:50.000Z</time>
      </trkpt>
      <trkpt lat="37.081578" lon="-79.608018">
        <ele>256.178355</ele>
        <time>2025-04-04T12:11:57.000Z</time>
      </trkpt>
      <trkpt lat="37.081292" lon="-79.6082">
        <ele>255.390748</ele>
        <time>2025-04-04T12:12:01.000Z</time>
      </trkpt>
      <trkpt lat="37.080932" lon="-79.608516">
        <ele>254.256333</ele>
        <time>2025-04-04T12:12:06.000Z</time>
      </trkpt>
      <trkpt lat="37.080365" lon="-79.609082">
        <ele>251.354348</ele>
        <time>2025-04-04T12:12:14.000Z</time>
      </trkpt>
      <trkpt lat="37.08014" lon="-79.609352">
        <ele>250.159835</ele>
        <time>2025-04-04T12:12:17.000Z</time>
      </trkpt>
      <trkpt lat="37.080104" lon="-79.609443">
        <ele>249.792375</ele>
        <time>2025-04-04T12:12:18.000Z</time>
      </trkpt>
      <trkpt lat="37.080025" lon="-79.60965">
        <ele>249.068377</ele>
        <time>2025-04-04T12:12:20.000Z</time>
      </trkpt>
      <trkpt lat="37.080029" lon="-79.609838">
        <ele>248.487175</ele>
        <time>2025-04-04T12:12:22.000Z</time>
      </trkpt>
      <trkpt lat="37.080065" lon="-79.610269">
        <ele>247.082731</ele>
        <time>2025-04-04T12:12:26.000Z</time>
      </trkpt>
      <trkpt lat="37.080022" lon="-79.61044">
        <ele>247.025923</ele>
        <time>2025-04-04T12:12:28.000Z</time>
      </trkpt>
      <trkpt lat="37.079985" lon="-79.610518">
        <ele>246.999468</ele>
        <time>2025-04-04T12:12:29.000Z</time>
      </trkpt>
      <trkpt lat="37.079728" lon="-79.610762">
        <ele>246.868125</ele>
        <time>2025-04-04T12:12:33.000Z</time>
      </trkpt>
      <trkpt lat="37.079647" lon="-79.610896">
        <ele>246.814836</ele>
        <time>2025-04-04T12:12:34.000Z</time>
      </trkpt>
      <trkpt lat="37.079535" lon="-79.611203">
        <ele>246.710814</ele>
        <time>2025-04-04T12:12:37.000Z</time>
      </trkpt>
      <trkpt lat="37.079456" lon="-79.611536">
        <ele>246.599271</ele>
        <time>2025-04-04T12:12:40.000Z</time>
      </trkpt>
      <trkpt lat="37.079357" lon="-79.611693">
        <ele>246.53655</ele>
        <time>2025-04-04T12:12:42.000Z</time>
      </trkpt>
      <trkpt lat="37.07917" lon="-79.611849">
        <ele>246.445659</ele>
        <time>2025-04-04T12:12:44.000Z</time>
      </trkpt>
      <trkpt lat="37.078775" lon="-79.611988">
        <ele>246.664005</ele>
        <time>2025-04-04T12:12:49.000Z</time>
      </trkpt>
      <trkpt lat="37.078665" lon="-79.612053">
        <ele>246.858279</ele>
        <time>2025-04-04T12:12:50.000Z</time>
      </trkpt>
      <trkpt lat="37.078583" lon="-79.612139">
        <ele>247.013467</ele>
        <time>2025-04-04T12:12:51.000Z</time>
      </trkpt>
      <trkpt lat="37.078528" lon="-79.612248">
        <ele>247.16758</ele>
        <time>2025-04-04T12:12:52.000Z</time>
      </trkpt>
      <trkpt lat="37.078474" lon="-79.612429">
        <ele>247.39661</ele>
        <time>2025-04-04T12:12:54.000Z</time>
      </trkpt>
      <trkpt lat="37.078481" lon="-79.612627">
        <ele>247.626738</ele>
        <time>2025-04-04T12:12:56.000Z</time>
      </trkpt>
      <trkpt lat="37.078571" lon="-79.613031">
        <ele>248.130404</ele>
        <time>2025-04-04T12:13:00.000Z</time>
      </trkpt>
      <trkpt lat="37.078692" lon="-79.613367">
        <ele>248.559584</ele>
        <time>2025-04-04T12:13:03.000Z</time>
      </trkpt>
      <trkpt lat="37.07882" lon="-79.613703">
        <ele>249.018177</ele>
        <time>2025-04-04T12:13:06.000Z</time>
      </trkpt>
      <trkpt lat="37.079068" lon="-79.614115">
        <ele>249.206644</ele>
        <time>2025-04-04T12:13:11.000Z</time>
      </trkpt>
      <trkpt lat="37.079209" lon="-79.61445">
        <ele>249.329332</ele>
        <time>2025-04-04T12:13:14.000Z</time>
      </trkpt>
      <trkpt lat="37.079287" lon="-79.614821">
        <ele>249.450229</ele>
        <time>2025-04-04T12:13:17.000Z</time>
      </trkpt>
      <trkpt lat="37.079301" lon="-79.61507">
        <ele>249.529667</ele>
        <time>2025-04-04T12:13:19.000Z</time>
      </trkpt>
      <trkpt lat="37.079287" lon="-79.615249">
        <ele>249.583366</ele>
        <time>2025-04-04T12:13:21.000Z</time>
      </trkpt>
      <trkpt lat="37.079254" lon="-79.615406">
        <ele>249.636338</ele>
        <time>2025-04-04T12:13:22.000Z</time>
      </trkpt>
      <trkpt lat="37.079223" lon="-79.615455">
        <ele>249.656081</ele>
        <time>2025-04-04T12:13:23.000Z</time>
      </trkpt>
      <trkpt lat="37.079248" lon="-79.6154">
        <ele>249.675814</ele>
        <time>2025-04-04T12:13:24.000Z</time>
      </trkpt>
      <trkpt lat="37.079301" lon="-79.615233">
        <ele>249.728794</ele>
        <time>2025-04-04T12:13:26.000Z</time>
      </trkpt>
      <trkpt lat="37.079293" lon="-79.615071">
        <ele>249.752626</ele>
        <time>2025-04-04T12:13:27.000Z</time>
      </trkpt>
      <trkpt lat="37.079286" lon="-79.614817">
        <ele>249.583194</ele>
        <time>2025-04-04T12:13:29.000Z</time>
      </trkpt>
      <trkpt lat="37.079213" lon="-79.614453">
        <ele>249.325316</ele>
        <time>2025-04-04T12:13:32.000Z</time>
      </trkpt>
      <trkpt lat="37.079069" lon="-79.614106">
        <ele>249.063656</ele>
        <time>2025-04-04T12:13:35.000Z</time>
      </trkpt>
      <trkpt lat="37.078826" lon="-79.613709">
        <ele>248.715109</ele>
        <time>2025-04-04T12:13:39.000Z</time>
      </trkpt>
      <trkpt lat="37.078692" lon="-79.613358">
        <ele>248.45291</ele>
        <time>2025-04-04T12:13:42.000Z</time>
      </trkpt>
      <trkpt lat="37.078577" lon="-79.613026">
        <ele>248.195212</ele>
        <time>2025-04-04T12:13:45.000Z</time>
      </trkpt>
      <trkpt lat="37.078475" lon="-79.612624">
        <ele>247.782777</ele>
        <time>2025-04-04T12:13:49.000Z</time>
      </trkpt>
      <trkpt lat="37.078477" lon="-79.612433">
        <ele>247.594355</ele>
        <time>2025-04-04T12:13:51.000Z</time>
      </trkpt>
      <trkpt lat="37.078532" lon="-79.612256">
        <ele>247.406815</ele>
        <time>2025-04-04T12:13:53.000Z</time>
      </trkpt>
      <trkpt lat="37.078594" lon="-79.61215">
        <ele>247.280612</ele>
        <time>2025-04-04T12:13:54.000Z</time>
      </trkpt>
      <trkpt lat="37.078663" lon="-79.612064">
        <ele>247.153557</ele>
        <time>2025-04-04T12:13:55.000Z</time>
      </trkpt>
      <trkpt lat="37.078777" lon="-79.611986">
        <ele>246.994472</ele>
        <time>2025-04-04T12:13:56.000Z</time>
      </trkpt>
      <trkpt lat="37.079167" lon="-79.611858">
        <ele>246.49814</ele>
        <time>2025-04-04T12:14:00.000Z</time>
      </trkpt>
      <trkpt lat="37.079354" lon="-79.611692">
        <ele>246.218027</ele>
        <time>2025-04-04T12:14:03.000Z</time>
      </trkpt>
      <trkpt lat="37.079456" lon="-79.611539">
        <ele>246.046849</ele>
        <time>2025-04-04T12:14:05.000Z</time>
      </trkpt>
      <trkpt lat="37.079539" lon="-79.611193">
        <ele>246.448896</ele>
        <time>2025-04-04T12:14:08.000Z</time>
      </trkpt>
      <trkpt lat="37.079637" lon="-79.610896">
        <ele>246.823836</ele>
        <time>2025-04-04T12:14:11.000Z</time>
      </trkpt>
      <trkpt lat="37.079743" lon="-79.610779">
        <ele>247.015916</ele>
        <time>2025-04-04T12:14:13.000Z</time>
      </trkpt>
      <trkpt lat="37.079988" lon="-79.610512">
        <ele>247.489325</ele>
        <time>2025-04-04T12:14:17.000Z</time>
      </trkpt>
      <trkpt lat="37.080024" lon="-79.610436">
        <ele>247.584625</ele>
        <time>2025-04-04T12:14:18.000Z</time>
      </trkpt>
      <trkpt lat="37.080057" lon="-79.610271">
        <ele>247.775636</ele>
        <time>2025-04-04T12:14:20.000Z</time>
      </trkpt>
      <trkpt lat="37.080022" lon="-79.609831">
        <ele>248.279</ele>
        <time>2025-04-04T12:14:24.000Z</time>
      </trkpt>
      <trkpt lat="37.080029" lon="-79.60966">
        <ele>248.487305</ele>
        <time>2025-04-04T12:14:26.000Z</time>
      </trkpt>
      <trkpt lat="37.0801" lon="-79.609432">
        <ele>249.055068</ele>
        <time>2025-04-04T12:14:28.000Z</time>
      </trkpt>
      <trkpt lat="37.08014" lon="-79.609347">
        <ele>249.481988</ele>
        <time>2025-04-04T12:14:29.000Z</time>
      </trkpt>
      <trkpt lat="37.080362" lon="-79.609074">
        <ele>250.869763</ele>
        <time>2025-04-04T12:14:32.000Z</time>
      </trkpt>
      <trkpt lat="37.080937" lon="-79.608519">
        <ele>254.241269</ele>
        <time>2025-04-04T12:14:40.000Z</time>
      </trkpt>
      <trkpt lat="37.081294" lon="-79.608205">
        <ele>256.314637</ele>
        <time>2025-04-04T12:14:45.000Z</time>
      </trkpt>
      <trkpt lat="37.081578" lon="-79.608023">
        <ele>257.104571</ele>
        <time>2025-04-04T12:14:49.000Z</time>
      </trkpt>
      <trkpt lat="37.082138" lon="-79.607807">
        <ele>257.62149</ele>
        <time>2025-04-04T12:14:56.000Z</time>
      </trkpt>
      <trkpt lat="37.082436" lon="-79.607632">
        <ele>257.908443</ele>
        <time>2025-04-04T12:15:00.000Z</time>
      </trkpt>
      <trkpt lat="37.082607" lon="-79.607485">
        <ele>258.092463</ele>
        <time>2025-04-04T12:15:02.000Z</time>
      </trkpt>
      <trkpt lat="37.082812" lon="-79.607144">
        <ele>258.381316</ele>
        <time>2025-04-04T12:15:06.000Z</time>
      </trkpt>
      <trkpt lat="37.082894" lon="-79.606953">
        <ele>258.523104</ele>
        <time>2025-04-04T12:15:08.000Z</time>
      </trkpt>
      <trkpt lat="37.082955" lon="-79.606617">
        <ele>258.620537</ele>
        <time>2025-04-04T12:15:11.000Z</time>
      </trkpt>
      <trkpt lat="37.083107" lon="-79.604709">
        <ele>259.146653</ele>
        <time>2025-04-04T12:15:28.000Z</time>
      </trkpt>
      <trkpt lat="37.083203" lon="-79.604429">
        <ele>259.211059</ele>
        <time>2025-04-04T12:15:31.000Z</time>
      </trkpt>
      <trkpt lat="37.083369" lon="-79.604104">
        <ele>259.295094</ele>
        <time>2025-04-04T12:15:34.000Z</time>
      </trkpt>
      <trkpt lat="37.083616" lon="-79.603832">
        <ele>259.385776</ele>
        <time>2025-04-04T12:15:38.000Z</time>
      </trkpt>
      <trkpt lat="37.083922" lon="-79.603642">
        <ele>259.479881</ele>
        <time>2025-04-04T12:15:42.000Z</time>
      </trkpt>
      <trkpt lat="37.085178" lon="-79.603172">
        <ele>259.568608</ele>
        <time>2025-04-04T12:15:57.000Z</time>
      </trkpt>
      <trkpt lat="37.085437" lon="-79.60298">
        <ele>259.543052</ele>
        <time>2025-04-04T12:16:00.000Z</time>
      </trkpt>
      <trkpt lat="37.085664" lon="-79.602717">
        <ele>259.516797</ele>
        <time>2025-04-04T12:16:03.000Z</time>
      </trkpt>
      <trkpt lat="37.085828" lon="-79.602452">
        <ele>259.494057</ele>
        <time>2025-04-04T12:16:06.000Z</time>
      </trkpt>
      <trkpt lat="37.086004" lon="-79.602023">
        <ele>259.853032</ele>
        <time>2025-04-04T12:16:10.000Z</time>
      </trkpt>
      <trkpt lat="37.086762" lon="-79.59971">
        <ele>263.244354</ele>
        <time>2025-04-04T12:16:32.000Z</time>
      </trkpt>
      <trkpt lat="37.086902" lon="-79.599363">
        <ele>263.828846</ele>
        <time>2025-04-04T12:16:35.000Z</time>
      </trkpt>
      <trkpt lat="37.086974" lon="-79.59925">
        <ele>264.041916</ele>
        <time>2025-04-04T12:16:36.000Z</time>
      </trkpt>
      <trkpt lat="37.087299" lon="-79.598932">
        <ele>264.830713</ele>
        <time>2025-04-04T12:16:41.000Z</time>
      </trkpt>
      <trkpt lat="37.087778" lon="-79.598604">
        <ele>265.859757</ele>
        <time>2025-04-04T12:16:47.000Z</time>
      </trkpt>
      <trkpt lat="37.088271" lon="-79.598208">
        <ele>268.076719</ele>
        <time>2025-04-04T12:16:54.000Z</time>
      </trkpt>
      <trkpt lat="37.088598" lon="-79.59788">
        <ele>269.65609</ele>
        <time>2025-04-04T12:16:59.000Z</time>
      </trkpt>
      <trkpt lat="37.08913" lon="-79.597136">
        <ele>272.69802</ele>
        <time>2025-04-04T12:17:08.000Z</time>
      </trkpt>
      <trkpt lat="37.089565" lon="-79.596372">
        <ele>274.646652</ele>
        <time>2025-04-04T12:17:16.000Z</time>
      </trkpt>
      <trkpt lat="37.089736" lon="-79.596067">
        <ele>275.438195</ele>
        <time>2025-04-04T12:17:19.000Z</time>
      </trkpt>
      <trkpt lat="37.089827" lon="-79.595917">
        <ele>275.795582</ele>
        <time>2025-04-04T12:17:21.000Z</time>
      </trkpt>
      <trkpt lat="37.090172" lon="-79.5953">
        <ele>277.390066</ele>
        <time>2025-04-04T12:17:28.000Z</time>
      </trkpt>
      <trkpt lat="37.091097" lon="-79.593639">
        <ele>277.626455</ele>
        <time>2025-04-04T12:17:46.000Z</time>
      </trkpt>
      <trkpt lat="37.09142" lon="-79.593144">
        <ele>277.125805</ele>
        <time>2025-04-04T12:17:52.000Z</time>
      </trkpt>
      <trkpt lat="37.091525" lon="-79.593439">
        <ele>276.711373</ele>
        <time>2025-04-04T12:17:55.000Z</time>
      </trkpt>
      <trkpt lat="37.092184" lon="-79.595269">
        <ele>273.87835</ele>
        <time>2025-04-04T12:18:13.000Z</time>
      </trkpt>
      <trkpt lat="37.093352" lon="-79.598671">
        <ele>266.755753</ele>
        <time>2025-04-04T12:18:46.000Z</time>
      </trkpt>
      <trkpt lat="37.093994" lon="-79.60039">
        <ele>261.489638</ele>
        <time>2025-04-04T12:19:03.000Z</time>
      </trkpt>
      <trkpt lat="37.094102" lon="-79.60067">
        <ele>260.574384</ele>
        <time>2025-04-04T12:19:06.000Z</time>
      </trkpt>
      <trkpt lat="37.0944" lon="-79.601495">
        <ele>258.759769</ele>
        <time>2025-04-04T12:19:14.000Z</time>
      </trkpt>
      <trkpt lat="37.094614" lon="-79.601886">
        <ele>258.069679</ele>
        <time>2025-04-04T12:19:18.000Z</time>
      </trkpt>
      <trkpt lat="37.094941" lon="-79.602214">
        <ele>257.371627</ele>
        <time>2025-04-04T12:19:23.000Z</time>
      </trkpt>
      <trkpt lat="37.095869" lon="-79.602942">
        <ele>255.449075</ele>
        <time>2025-04-04T12:19:35.000Z</time>
      </trkpt>
      <trkpt lat="37.096072" lon="-79.603135">
        <ele>255.024784</ele>
        <time>2025-04-04T12:19:38.000Z</time>
      </trkpt>
      <trkpt lat="37.096972" lon="-79.604266">
        <ele>252.934699</ele>
        <time>2025-04-04T12:19:52.000Z</time>
      </trkpt>
      <trkpt lat="37.097078" lon="-79.604429">
        <ele>252.705009</ele>
        <time>2025-04-04T12:19:54.000Z</time>
      </trkpt>
      <trkpt lat="37.097219" lon="-79.604773">
        <ele>252.310555</ele>
        <time>2025-04-04T12:19:57.000Z</time>
      </trkpt>
      <trkpt lat="37.097321" lon="-79.605104">
        <ele>251.956663</ele>
        <time>2025-04-04T12:20:00.000Z</time>
      </trkpt>
      <trkpt lat="37.097353" lon="-79.605489">
        <ele>251.582114</ele>
        <time>2025-04-04T12:20:03.000Z</time>
      </trkpt>
      <trkpt lat="37.097211" lon="-79.607914">
        <ele>252.216621</ele>
        <time>2025-04-04T12:20:25.000Z</time>
      </trkpt>
      <trkpt lat="37.097102" lon="-79.608386">
        <ele>252.551759</ele>
        <time>2025-04-04T12:20:29.000Z</time>
      </trkpt>
      <trkpt lat="37.097029" lon="-79.608611">
        <ele>252.738722</ele>
        <time>2025-04-04T12:20:31.000Z</time>
      </trkpt>
      <trkpt lat="37.096862" lon="-79.608853">
        <ele>252.967703</ele>
        <time>2025-04-04T12:20:34.000Z</time>
      </trkpt>
      <trkpt lat="37.096698" lon="-79.609018">
        <ele>253.154285</ele>
        <time>2025-04-04T12:20:36.000Z</time>
      </trkpt>
      <trkpt lat="37.096667" lon="-79.609039">
        <ele>253.190923</ele>
        <time>2025-04-04T12:20:36.000Z</time>
      </trkpt>
      <trkpt lat="37.096418" lon="-79.609212">
        <ele>253.467897</ele>
        <time>2025-04-04T12:20:39.000Z</time>
      </trkpt>
      <trkpt lat="37.096142" lon="-79.609397">
        <ele>253.751993</ele>
        <time>2025-04-04T12:20:42.000Z</time>
      </trkpt>
      <trkpt lat="37.096006" lon="-79.609504">
        <ele>253.898901</ele>
        <time>2025-04-04T12:20:44.000Z</time>
      </trkpt>
      <trkpt lat="37.095794" lon="-79.609869">
        <ele>254.173221</ele>
        <time>2025-04-04T12:20:48.000Z</time>
      </trkpt>
      <trkpt lat="37.095732" lon="-79.609927">
        <ele>254.173209</ele>
        <time>2025-04-04T12:20:49.000Z</time>
      </trkpt>
      <trkpt lat="37.095672" lon="-79.609931">
        <ele>254.173208</ele>
        <time>2025-04-04T12:20:50.000Z</time>
      </trkpt>
      <trkpt lat="37.095631" lon="-79.61005">
        <ele>254.173207</ele>
        <time>2025-04-04T12:20:51.000Z</time>
      </trkpt>
      <trkpt lat="37.095586" lon="-79.610099">
        <ele>254.173209</ele>
        <time>2025-04-04T12:20:52.000Z</time>
      </trkpt>
      <trkpt lat="37.095085" lon="-79.61038">
        <ele>254.173221</ele>
        <time>2025-04-04T12:20:58.000Z</time>
      </trkpt>
      <trkpt lat="37.095077" lon="-79.61037">
        <ele>254.173208</ele>
        <time>2025-04-04T12:20:58.000Z</time>
      </trkpt>
      <trkpt lat="37.095041" lon="-79.61038">
        <ele>254.173206</ele>
        <time>2025-04-04T12:20:58.000Z</time>
      </trkpt>
      <trkpt lat="37.09497" lon="-79.610343">
        <ele>254.173219</ele>
        <time>2025-04-04T12:20:59.000Z</time>
      </trkpt>
      <trkpt lat="37.094911" lon="-79.610187">
        <ele>254.173218</ele>
        <time>2025-04-04T12:21:01.000Z</time>
      </trkpt>
      <trkpt lat="37.095455" lon="-79.609871">
        <ele>254.173209</ele>
        <time>2025-04-04T12:21:08.000Z</time>
      </trkpt>
      <trkpt lat="37.095493" lon="-79.609851">
        <ele>253.764448</ele>
        <time>2025-04-04T12:21:08.000Z</time>
      </trkpt>
      <trkpt lat="37.095515" lon="-79.609831">
        <ele>253.764445</ele>
        <time>2025-04-04T12:21:08.000Z</time>
      </trkpt>
      <trkpt lat="37.095608" lon="-79.609826">
        <ele>253.764443</ele>
        <time>2025-04-04T12:21:09.000Z</time>
      </trkpt>
      <trkpt lat="37.095606" lon="-79.609779">
        <ele>253.764451</ele>
        <time>2025-04-04T12:21:09.000Z</time>
      </trkpt>
      <trkpt lat="37.095689" lon="-79.609701">
        <ele>253.764451</ele>
        <time>2025-04-04T12:21:10.000Z</time>
      </trkpt>
      <trkpt lat="37.096001" lon="-79.6095">
        <ele>253.764441</ele>
        <time>2025-04-04T12:21:14.000Z</time>
      </trkpt>
      <trkpt lat="37.096153" lon="-79.609394">
        <ele>253.764453</ele>
        <time>2025-04-04T12:21:16.000Z</time>
      </trkpt>
      <trkpt lat="37.096414" lon="-79.609228">
        <ele>253.577014</ele>
        <time>2025-04-04T12:21:19.000Z</time>
      </trkpt>
      <trkpt lat="37.096681" lon="-79.609034">
        <ele>253.258517</ele>
        <time>2025-04-04T12:21:22.000Z</time>
      </trkpt>
      <trkpt lat="37.096704" lon="-79.609011">
        <ele>253.216382</ele>
        <time>2025-04-04T12:21:22.000Z</time>
      </trkpt>
      <trkpt lat="37.096863" lon="-79.608862">
        <ele>253.001839</ele>
        <time>2025-04-04T12:21:24.000Z</time>
      </trkpt>
      <trkpt lat="37.097026" lon="-79.60862">
        <ele>252.738541</ele>
        <time>2025-04-04T12:21:27.000Z</time>
      </trkpt>
      <trkpt lat="37.097101" lon="-79.608401">
        <ele>252.52354</ele>
        <time>2025-04-04T12:21:29.000Z</time>
      </trkpt>
      <trkpt lat="37.097218" lon="-79.607926">
        <ele>252.109418</ele>
        <time>2025-04-04T12:21:33.000Z</time>
      </trkpt>
      <trkpt lat="37.097345" lon="-79.605484">
        <ele>251.21217</ele>
        <time>2025-04-04T12:21:55.000Z</time>
      </trkpt>
      <trkpt lat="37.097306" lon="-79.605118">
        <ele>251.532122</ele>
        <time>2025-04-04T12:21:58.000Z</time>
      </trkpt>
      <trkpt lat="37.097236" lon="-79.604781">
        <ele>252.02811</ele>
        <time>2025-04-04T12:22:01.000Z</time>
      </trkpt>
      <trkpt lat="37.097071" lon="-79.604436">
        <ele>252.580928</ele>
        <time>2025-04-04T12:22:05.000Z</time>
      </trkpt>
      <trkpt lat="37.096967" lon="-79.604265">
        <ele>252.90286</ele>
        <time>2025-04-04T12:22:07.000Z</time>
      </trkpt>
      <trkpt lat="37.09607" lon="-79.603123">
        <ele>255.079626</ele>
        <time>2025-04-04T12:22:21.000Z</time>
      </trkpt>
      <trkpt lat="37.095873" lon="-79.602946">
        <ele>255.472654</ele>
        <time>2025-04-04T12:22:24.000Z</time>
      </trkpt>
      <trkpt lat="37.094928" lon="-79.602216">
        <ele>257.255534</ele>
        <time>2025-04-04T12:22:36.000Z</time>
      </trkpt>
      <trkpt lat="37.09463" lon="-79.601889">
        <ele>258.144146</ele>
        <time>2025-04-04T12:22:40.000Z</time>
      </trkpt>
      <trkpt lat="37.094391" lon="-79.60149">
        <ele>259.025723</ele>
        <time>2025-04-04T12:22:44.000Z</time>
      </trkpt>
      <trkpt lat="37.094088" lon="-79.600665">
        <ele>260.614504</ele>
        <time>2025-04-04T12:22:52.000Z</time>
      </trkpt>
      <trkpt lat="37.093991" lon="-79.600391">
        <ele>261.168883</ele>
        <time>2025-04-04T12:22:55.000Z</time>
      </trkpt>
      <trkpt lat="37.093367" lon="-79.598674">
        <ele>266.773464</ele>
        <time>2025-04-04T12:23:12.000Z</time>
      </trkpt>
      <trkpt lat="37.092182" lon="-79.595274">
        <ele>273.865129</ele>
        <time>2025-04-04T12:23:45.000Z</time>
      </trkpt>
      <trkpt lat="37.091518" lon="-79.593432">
        <ele>276.617761</ele>
        <time>2025-04-04T12:24:03.000Z</time>
      </trkpt>
      <trkpt lat="37.09142" lon="-79.593143">
        <ele>276.889133</ele>
        <time>2025-04-04T12:24:06.000Z</time>
      </trkpt>
      <trkpt lat="37.091096" lon="-79.593643">
        <ele>277.430215</ele>
        <time>2025-04-04T12:24:12.000Z</time>
      </trkpt>
      <trkpt lat="37.090175" lon="-79.595291">
        <ele>276.958573</ele>
        <time>2025-04-04T12:24:30.000Z</time>
      </trkpt>
      <trkpt lat="37.08983" lon="-79.595924">
        <ele>276.432607</ele>
        <time>2025-04-04T12:24:37.000Z</time>
      </trkpt>
      <trkpt lat="37.089749" lon="-79.596059">
        <ele>275.954357</ele>
        <time>2025-04-04T12:24:38.000Z</time>
      </trkpt>
      <trkpt lat="37.089555" lon="-79.596367">
        <ele>274.895163</ele>
        <time>2025-04-04T12:24:41.000Z</time>
      </trkpt>
      <trkpt lat="37.089125" lon="-79.597126">
        <ele>272.287659</ele>
        <time>2025-04-04T12:24:49.000Z</time>
      </trkpt>
      <trkpt lat="37.088604" lon="-79.597887">
        <ele>269.551806</ele>
        <time>2025-04-04T12:24:58.000Z</time>
      </trkpt>
      <trkpt lat="37.088279" lon="-79.598206">
        <ele>268.241923</ele>
        <time>2025-04-04T12:25:03.000Z</time>
      </trkpt>
      <trkpt lat="37.087771" lon="-79.598603">
        <ele>266.390512</ele>
        <time>2025-04-04T12:25:10.000Z</time>
      </trkpt>
      <trkpt lat="37.087285" lon="-79.598939">
        <ele>264.686848</ele>
        <time>2025-04-04T12:25:16.000Z</time>
      </trkpt>
      <trkpt lat="37.086977" lon="-79.599264">
        <ele>263.894045</ele>
        <time>2025-04-04T12:25:20.000Z</time>
      </trkpt>
      <trkpt lat="37.086908" lon="-79.599369">
        <ele>263.691878</ele>
        <time>2025-04-04T12:25:21.000Z</time>
      </trkpt>
      <trkpt lat="37.086762" lon="-79.599706">
        <ele>263.137281</ele>
        <time>2025-04-04T12:25:24.000Z</time>
      </trkpt>
      <trkpt lat="37.08601" lon="-79.60201">
        <ele>260.165851</ele>
        <time>2025-04-04T12:25:46.000Z</time>
      </trkpt>
      <trkpt lat="37.085831" lon="-79.60245">
        <ele>259.700797</ele>
        <time>2025-04-04T12:25:50.000Z</time>
      </trkpt>
      <trkpt lat="37.085673" lon="-79.602715">
        <ele>259.385277</ele>
        <time>2025-04-04T12:25:53.000Z</time>
      </trkpt>
      <trkpt lat="37.085437" lon="-79.602966">
        <ele>259.25117</ele>
        <time>2025-04-04T12:25:56.000Z</time>
      </trkpt>
      <trkpt lat="37.085192" lon="-79.603159">
        <ele>259.34437</ele>
        <time>2025-04-04T12:25:59.000Z</time>
      </trkpt>
      <trkpt lat="37.083914" lon="-79.603636">
        <ele>259.75909</ele>
        <time>2025-04-04T12:26:14.000Z</time>
      </trkpt>
      <trkpt lat="37.083602" lon="-79.60383">
        <ele>259.564766</ele>
        <time>2025-04-04T12:26:18.000Z</time>
      </trkpt>
      <trkpt lat="37.083367" lon="-79.604105">
        <ele>259.357191</ele>
        <time>2025-04-04T12:26:22.000Z</time>
      </trkpt>
      <trkpt lat="37.083201" lon="-79.604425">
        <ele>259.164802</ele>
        <time>2025-04-04T12:26:25.000Z</time>
      </trkpt>
      <trkpt lat="37.083111" lon="-79.604695">
        <ele>259.017358</ele>
        <time>2025-04-04T12:26:28.000Z</time>
      </trkpt>
      <trkpt lat="37.082963" lon="-79.606611">
        <ele>258.729049</ele>
        <time>2025-04-04T12:26:45.000Z</time>
      </trkpt>
      <trkpt lat="37.082883" lon="-79.606948">
        <ele>258.758283</ele>
        <time>2025-04-04T12:26:48.000Z</time>
      </trkpt>
      <trkpt lat="37.082805" lon="-79.607134">
        <ele>258.775845</ele>
        <time>2025-04-04T12:26:50.000Z</time>
      </trkpt>
      <trkpt lat="37.08261" lon="-79.607483">
        <ele>258.81019</ele>
        <time>2025-04-04T12:26:54.000Z</time>
      </trkpt>
      <trkpt lat="37.082439" lon="-79.60764">
        <ele>258.519653</ele>
        <time>2025-04-04T12:26:56.000Z</time>
      </trkpt>
      <trkpt lat="37.082141" lon="-79.607794">
        <ele>257.683875</ele>
        <time>2025-04-04T12:27:00.000Z</time>
      </trkpt>
      <trkpt lat="37.081577" lon="-79.608024">
        <ele>256.178355</ele>
        <time>2025-04-04T12:27:07.000Z</time>
      </trkpt>
      <trkpt lat="37.081309" lon="-79.608201">
        <ele>255.390748</ele>
        <time>2025-04-04T12:27:10.000Z</time>
      </trkpt>
      <trkpt lat="37.080927" lon="-79.608524">
        <ele>254.256319</ele>
        <time>2025-04-04T12:27:15.000Z</time>
      </trkpt>
      <trkpt lat="37.080347" lon="-79.609069">
        <ele>251.354332</ele>
        <time>2025-04-04T12:27:23.000Z</time>
      </trkpt>
      <trkpt lat="37.080152" lon="-79.609335">
        <ele>250.159834</ele>
        <time>2025-04-04T12:27:26.000Z</time>
      </trkpt>
      <trkpt lat="37.080095" lon="-79.609435">
        <ele>249.792381</ele>
        <time>2025-04-04T12:27:27.000Z</time>
      </trkpt>
      <trkpt lat="37.080033" lon="-79.609648">
        <ele>249.068388</ele>
        <time>2025-04-04T12:27:29.000Z</time>
      </trkpt>
      <trkpt lat="37.080022" lon="-79.609829">
        <ele>248.487183</ele>
        <time>2025-04-04T12:27:31.000Z</time>
      </trkpt>
      <trkpt lat="37.080062" lon="-79.610281">
        <ele>247.082741</ele>
        <time>2025-04-04T12:27:35.000Z</time>
      </trkpt>
      <trkpt lat="37.080029" lon="-79.610447">
        <ele>247.025922</ele>
        <time>2025-04-04T12:27:37.000Z</time>
      </trkpt>
      <trkpt lat="37.079995" lon="-79.610517">
        <ele>246.999467</ele>
        <time>2025-04-04T12:27:38.000Z</time>
      </trkpt>
      <trkpt lat="37.079733" lon="-79.610773">
        <ele>246.868122</ele>
        <time>2025-04-04T12:27:42.000Z</time>
      </trkpt>
      <trkpt lat="37.079649" lon="-79.610901">
        <ele>246.814843</ele>
        <time>2025-04-04T12:27:43.000Z</time>
      </trkpt>
      <trkpt lat="37.079534" lon="-79.611202">
        <ele>246.710806</ele>
        <time>2025-04-04T12:27:46.000Z</time>
      </trkpt>
      <trkpt lat="37.079445" lon="-79.61153">
        <ele>246.599266</ele>
        <time>2025-04-04T12:27:49.000Z</time>
      </trkpt>
      <trkpt lat="37.079354" lon="-79.611693">
        <ele>246.53655</ele>
        <time>2025-04-04T12:27:51.000Z</time>
      </trkpt>
      <trkpt lat="37.079172" lon="-79.611842">
        <ele>246.445658</ele>
        <time>2025-04-04T12:27:53.000Z</time>
      </trkpt>
      <trkpt lat="37.078779" lon="-79.611993">
        <ele>246.664009</ele>
        <time>2025-04-04T12:27:58.000Z</time>
      </trkpt>
      <trkpt lat="37.078657" lon="-79.612054">
        <ele>246.85828</ele>
        <time>2025-04-04T12:27:59.000Z</time>
      </trkpt>
      <trkpt lat="37.078594" lon="-79.612154">
        <ele>247.013454</ele>
        <time>2025-04-04T12:28:00.000Z</time>
      </trkpt>
      <trkpt lat="37.078522" lon="-79.612261">
        <ele>247.167578</ele>
        <time>2025-04-04T12:28:01.000Z</time>
      </trkpt>
      <trkpt lat="37.078473" lon="-79.612435">
        <ele>247.396614</ele>
        <time>2025-04-04T12:28:03.000Z</time>
      </trkpt>
      <trkpt lat="37.078481" lon="-79.612633">
        <ele>247.626741</ele>
        <time>2025-04-04T12:28:05.000Z</time>
      </trkpt>
      <trkpt lat="37.078575" lon="-79.613023">
        <ele>248.130413</ele>
        <time>2025-04-04T12:28:09.000Z</time>
      </trkpt>
      <trkpt lat="37.078686" lon="-79.613357">
        <ele>248.559584</ele>
        <time>2025-04-04T12:28:12.000Z</time>
      </trkpt>
      <trkpt lat="37.078831" lon="-79.613702">
        <ele>249.018176</ele>
        <time>2025-04-04T12:28:15.000Z</time>
      </trkpt>
      <trkpt lat="37.079064" lon="-79.614106">
        <ele>249.206648</ele>
        <time>2025-04-04T12:28:19.000Z</time>
      </trkpt>
      <trkpt lat="37.079208" lon="-79.614454">
        <ele>249.329317</ele>
        <time>2025-04-04T12:28:22.000Z</time>
      </trkpt>
      <trkpt lat="37.079287" lon="-79.614821">
        <ele>249.450238</ele>
        <time>2025-04-04T12:28:25.000Z</time>
      </trkpt>
      <trkpt lat="37.079294" lon="-79.615082">
        <ele>249.52966</ele>
        <time>2025-04-04T12:28:27.000Z</time>
      </trkpt>
      <trkpt lat="37.079283" lon="-79.61524">
        <ele>249.583374</ele>
        <time>2025-04-04T12:28:28.000Z</time>
      </trkpt>
      <trkpt lat="37.079248" lon="-79.615392">
        <ele>249.636344</ele>
        <time>2025-04-04T12:28:29.000Z</time>
      </trkpt>
      <trkpt lat="37.079224" lon="-79.61545">
        <ele>249.656085</ele>
        <time>2025-04-04T12:28:30.000Z</time>
      </trkpt>
      <trkpt lat="37.079251" lon="-79.615397">
        <ele>249.675829</ele>
        <time>2025-04-04T12:28:31.000Z</time>
      </trkpt>
      <trkpt lat="37.079285" lon="-79.615242">
        <ele>249.728796</ele>
        <time>2025-04-04T12:28:32.000Z</time>
      </trkpt>
      <trkpt lat="37.079292" lon="-79.615082">
        <ele>249.75263</ele>
        <time>2025-04-04T12:28:33.000Z</time>
      </trkpt>
      <trkpt lat="37.079284" lon="-79.614821">
        <ele>249.583197</ele>
        <time>2025-04-04T12:28:35.000Z</time>
      </trkpt>
      <trkpt lat="37.07921" lon="-79.614454">
        <ele>249.325316</ele>
        <time>2025-04-04T12:28:38.000Z</time>
      </trkpt>
      <trkpt lat="37.079069" lon="-79.614117">
        <ele>249.063663</ele>
        <time>2025-04-04T12:28:41.000Z</time>
      </trkpt>
      <trkpt lat="37.078827" lon="-79.613704">
        <ele>248.715113</ele>
        <time>2025-04-04T12:28:46.000Z</time>
      </trkpt>
      <trkpt lat="37.078682" lon="-79.613371">
        <ele>248.452911</ele>
        <time>2025-04-04T12:28:49.000Z</time>
      </trkpt>
      <trkpt lat="37.078586" lon="-79.613039">
        <ele>248.195204</ele>
        <time>2025-04-04T12:28:52.000Z</time>
      </trkpt>
      <trkpt lat="37.078474" lon="-79.612627">
        <ele>247.782791</ele>
        <time>2025-04-04T12:28:56.000Z</time>
      </trkpt>
      <trkpt lat="37.078477" lon="-79.612429">
        <ele>247.594345</ele>
        <time>2025-04-04T12:28:58.000Z</time>
      </trkpt>
      <trkpt lat="37.078524" lon="-79.612246">
        <ele>247.406803</ele>
        <time>2025-04-04T12:29:00.000Z</time>
      </trkpt>
      <trkpt lat="37.078588" lon="-79.612154">
        <ele>247.280608</ele>
        <time>2025-04-04T12:29:01.000Z</time>
      </trkpt>
      <trkpt lat="37.078656" lon="-79.612048">
        <ele>247.153553</ele>
        <time>2025-04-04T12:29:02.000Z</time>
      </trkpt>
      <trkpt lat="37.078777" lon="-79.611982">
        <ele>246.994466</ele>
        <time>2025-04-04T12:29:03.000Z</time>
      </trkpt>
      <trkpt lat="37.079161" lon="-79.611852">
        <ele>246.498152</ele>
        <time>2025-04-04T12:29:07.000Z</time>
      </trkpt>
      <trkpt lat="37.079358" lon="-79.611697">
        <ele>246.218024</ele>
        <time>2025-04-04T12:29:10.000Z</time>
      </trkpt>
      <trkpt lat="37.079456" lon="-79.611531">
        <ele>246.04684</ele>
        <time>2025-04-04T12:29:12.000Z</time>
      </trkpt>
      <trkpt lat="37.079541" lon="-79.611204">
        <ele>246.448914</ele>
        <time>2025-04-04T12:29:15.000Z</time>
      </trkpt>
      <trkpt lat="37.079645" lon="-79.610903">
        <ele>246.823829</ele>
        <time>2025-04-04T12:29:18.000Z</time>
      </trkpt>
      <trkpt lat="37.079743" lon="-79.610765">
        <ele>247.015918</ele>
        <time>2025-04-04T12:29:20.000Z</time>
      </trkpt>
      <trkpt lat="37.079991" lon="-79.610506">
        <ele>247.489328</ele>
        <time>2025-04-04T12:29:24.000Z</time>
      </trkpt>
      <trkpt lat="37.080026" lon="-79.610431">
        <ele>247.584632</ele>
        <time>2025-04-04T12:29:25.000Z</time>
      </trkpt>
      <trkpt lat="37.080065" lon="-79.610274">
        <ele>247.775634</ele>
        <time>2025-04-04T12:29:26.000Z</time>
      </trkpt>
      <trkpt lat="37.080024" lon="-79.609827">
        <ele>248.279001</ele>
        <time>2025-04-04T12:29:30.000Z</time>
      </trkpt>
      <trkpt lat="37.080033" lon="-79.609655">
        <ele>248.487321</ele>
        <time>2025-04-04T12:29:32.000Z</time>
      </trkpt>
      <trkpt lat="37.080091" lon="-79.609449">
        <ele>249.055078</ele>
        <time>2025-04-04T12:29:34.000Z</time>
      </trkpt>
      <trkpt lat="37.080137" lon="-79.609341">
        <ele>249.48199</ele>
        <time>2025-04-04T12:29:35.000Z</time>
      </trkpt>
      <trkpt lat="37.080354" lon="-79.609083">
        <ele>250.869756</ele>
        <time>2025-04-04T12:29:38.000Z</time>
      </trkpt>
      <trkpt lat="37.080939" lon="-79.608524">
        <ele>254.241269</ele>
        <time>2025-04-04T12:29:46.000Z</time>
      </trkpt>
      <trkpt lat="37.081304" lon="-79.60821">
        <ele>256.314651</ele>
        <time>2025-04-04T12:29:51.000Z</time>
      </trkpt>
      <trkpt lat="37.081585" lon="-79.608033">
        <ele>257.104578</ele>
        <time>2025-04-04T12:29:54.000Z</time>
      </trkpt>
      <trkpt lat="37.082137" lon="-79.607807">
        <ele>257.621483</ele>
        <time>2025-04-04T12:30:00.000Z</time>
      </trkpt>
      <trkpt lat="37.082438" lon="-79.607646">
        <ele>257.908443</ele>
        <time>2025-04-04T12:30:04.000Z</time>
      </trkpt>
      <trkpt lat="37.08261" lon="-79.607473">
        <ele>258.092464</ele>
        <time>2025-04-04T12:30:06.000Z</time>
      </trkpt>
      <trkpt lat="37.082811" lon="-79.60714">
        <ele>258.381315</ele>
        <time>2025-04-04T12:30:10.000Z</time>
      </trkpt>
      <trkpt lat="37.082894" lon="-79.606958">
        <ele>258.523103</ele>
        <time>2025-04-04T12:30:12.000Z</time>
      </trkpt>
      <trkpt lat="37.082962" lon="-79.606613">
        <ele>258.620538</ele>
        <time>2025-04-04T12:30:15.000Z</time>
      </trkpt>
      <trkpt lat="37.083121" lon="-79.604692">
        <ele>259.146662</ele>
        <time>2025-04-04T12:30:32.000Z</time>
      </trkpt>
      <trkpt lat="37.083192" lon="-79.604426">
        <ele>259.211063</ele>
        <time>2025-04-04T12:30:34.000Z</time>
      </trkpt>
      <trkpt lat="37.083377" lon="-79.604106">
        <ele>259.29511</ele>
        <time>2025-04-04T12:30:38.000Z</time>
      </trkpt>
      <trkpt lat="37.083612" lon="-79.603829">
        <ele>259.385774</ele>
        <time>2025-04-04T12:30:42.000Z</time>
      </trkpt>
      <trkpt lat="37.083913" lon="-79.603637">
        <ele>259.479879</ele>
        <time>2025-04-04T12:30:46.000Z</time>
      </trkpt>
      <trkpt lat="37.085182" lon="-79.603176">
        <ele>259.568618</ele>
        <time>2025-04-04T12:31:01.000Z</time>
      </trkpt>
      <trkpt lat="37.085437" lon="-79.602982">
        <ele>259.543048</ele>
        <time>2025-04-04T12:31:04.000Z</time>
      </trkpt>
      <trkpt lat="37.085669" lon="-79.602705">
        <ele>259.516798</ele>
        <time>2025-04-04T12:31:08.000Z</time>
      </trkpt>
      <trkpt lat="37.085834" lon="-79.602456">
        <ele>259.494063</ele>
        <time>2025-04-04T12:31:11.000Z</time>
      </trkpt>
      <trkpt lat="37.086006" lon="-79.602017">
        <ele>259.85302</ele>
        <time>2025-04-04T12:31:15.000Z</time>
      </trkpt>
      <trkpt lat="37.086761" lon="-79.599704">
        <ele>263.244341</ele>
        <time>2025-04-04T12:31:37.000Z</time>
      </trkpt>
      <trkpt lat="37.086905" lon="-79.599377">
        <ele>263.828848</ele>
        <time>2025-04-04T12:31:40.000Z</time>
      </trkpt>
      <trkpt lat="37.086977" lon="-79.599257">
        <ele>264.041906</ele>
        <time>2025-04-04T12:31:41.000Z</time>
      </trkpt>
      <trkpt lat="37.087299" lon="-79.598931">
        <ele>264.830714</ele>
        <time>2025-04-04T12:31:46.000Z</time>
      </trkpt>
      <trkpt lat="37.08777" lon="-79.598607">
        <ele>265.859759</ele>
        <time>2025-04-04T12:31:52.000Z</time>
      </trkpt>
      <trkpt lat="37.088276" lon="-79.598206">
        <ele>268.076723</ele>
        <time>2025-04-04T12:31:59.000Z</time>
      </trkpt>
      <trkpt lat="37.088597" lon="-79.597892">
        <ele>269.656092</ele>
        <time>2025-04-04T12:32:04.000Z</time>
      </trkpt>
      <trkpt lat="37.08912" lon="-79.597129">
        <ele>272.698032</ele>
        <time>2025-04-04T12:32:13.000Z</time>
      </trkpt>
      <trkpt lat="37.089566" lon="-79.596376">
        <ele>274.64665</ele>
        <time>2025-04-04T12:32:21.000Z</time>
      </trkpt>
      <trkpt lat="37.089747" lon="-79.596064">
        <ele>275.43819</ele>
        <time>2025-04-04T12:32:24.000Z</time>
      </trkpt>
      <trkpt lat="37.089812" lon="-79.595921">
        <ele>275.795581</ele>
        <time>2025-04-04T12:32:25.000Z</time>
      </trkpt>
      <trkpt lat="37.090183" lon="-79.595305">
        <ele>277.390053</ele>
        <time>2025-04-04T12:32:32.000Z</time>
      </trkpt>
      <trkpt lat="37.091109" lon="-79.593635">
        <ele>277.626451</ele>
        <time>2025-04-04T12:32:50.000Z</time>
      </trkpt>
      <trkpt lat="37.091415" lon="-79.59314">
        <ele>277.125807</ele>
        <time>2025-04-04T12:32:56.000Z</time>
      </trkpt>
      <trkpt lat="37.091515" lon="-79.593435">
        <ele>276.711365</ele>
        <time>2025-04-04T12:32:59.000Z</time>
      </trkpt>
      <trkpt lat="37.092187" lon="-79.595271">
        <ele>273.878339</ele>
        <time>2025-04-04T12:33:17.000Z</time>
      </trkpt>
      <trkpt lat="37.093368" lon="-79.598663">
        <ele>266.755756</ele>
        <time>2025-04-04T12:33:50.000Z</time>
      </trkpt>
      <trkpt lat="37.093992" lon="-79.600382">
        <ele>261.48964</ele>
        <time>2025-04-04T12:34:07.000Z</time>
      </trkpt>
      <trkpt lat="37.094086" lon="-79.600669">
        <ele>260.574388</ele>
        <time>2025-04-04T12:34:10.000Z</time>
      </trkpt>
      <trkpt lat="37.094399" lon="-79.601498">
        <ele>258.759771</ele>
        <time>2025-04-04T12:34:18.000Z</time>
      </trkpt>
      <trkpt lat="37.094629" lon="-79.601891">
        <ele>258.069679</ele>
        <time>2025-04-04T12:34:22.000Z</time>
      </trkpt>
      <trkpt lat="37.094929" lon="-79.60221">
        <ele>257.371628</ele>
        <time>2025-04-04T12:34:26.000Z</time>
      </trkpt>
      <trkpt lat="37.095876" lon="-79.602937">
        <ele>255.44909</ele>
        <time>2025-04-04T12:34:38.000Z</time>
      </trkpt>
      <trkpt lat="37.096068" lon="-79.603128">
        <ele>255.024767</ele>
        <time>2025-04-04T12:34:41.000Z</time>
      </trkpt>
      <trkpt lat="37.096956" lon="-79.604254">
        <ele>252.934712</ele>
        <time>2025-04-04T12:34:55.000Z</time>
      </trkpt>
      <trkpt lat="37.097073" lon="-79.604444">
        <ele>252.704995</ele>
        <time>2025-04-04T12:34:57.000Z</time>
      </trkpt>
      <trkpt lat="37.097225" lon="-79.60478">
        <ele>252.310558</ele>
        <time>2025-04-04T12:35:00.000Z</time>
      </trkpt>
      <trkpt lat="37.097304" lon="-79.605118">
        <ele>251.956664</ele>
        <time>2025-04-04T12:35:03.000Z</time>
      </trkpt>
      <trkpt lat="37.09735" lon="-79.605487">
        <ele>251.582124</ele>
        <time>2025-04-04T12:35:06.000Z</time>
      </trkpt>
      <trkpt lat="37.097213" lon="-79.60792">
        <ele>252.216622</ele>
        <time>2025-04-04T12:35:28.000Z</time>
      </trkpt>
      <trkpt lat="37.097101" lon="-79.608401">
        <ele>252.551767</ele>
        <time>2025-04-04T12:35:32.000Z</time>
      </trkpt>
      <trkpt lat="37.097033" lon="-79.608615">
        <ele>252.738724</ele>
        <time>2025-04-04T12:35:34.000Z</time>
      </trkpt>
      <trkpt lat="37.096875" lon="-79.608865">
        <ele>252.96771</ele>
        <time>2025-04-04T12:35:37.000Z</time>
      </trkpt>
      <trkpt lat="37.096712" lon="-79.60901">
        <ele>253.154279</ele>
        <time>2025-04-04T12:35:39.000Z</time>
      </trkpt>
      <trkpt lat="37.096668" lon="-79.609029">
        <ele>253.190911</ele>
        <time>2025-04-04T12:35:40.000Z</time>
      </trkpt>
      <trkpt lat="37.096422" lon="-79.609227">
        <ele>253.467884</ele>
        <time>2025-04-04T12:35:43.000Z</time>
      </trkpt>
      <trkpt lat="37.09615" lon="-79.609408">
        <ele>253.751981</ele>
        <time>2025-04-04T12:35:46.000Z</time>
      </trkpt>
      <trkpt lat="37.096001" lon="-79.609503">
        <ele>253.898896</ele>
        <time>2025-04-04T12:35:48.000Z</time>
      </trkpt>
      <trkpt lat="37.095783" lon="-79.609874">
        <ele>254.173208</ele>
        <time>2025-04-04T12:35:52.000Z</time>
      </trkpt>
      <trkpt lat="37.095742" lon="-79.609932">
        <ele>254.173213</ele>
        <time>2025-04-04T12:35:53.000Z</time>
      </trkpt>
      <trkpt lat="37.095681" lon="-79.609949">
        <ele>254.173205</ele>
        <time>2025-04-04T12:35:54.000Z</time>
      </trkpt>
      <trkpt lat="37.095629" lon="-79.610052">
        <ele>254.173211</ele>
        <time>2025-04-04T12:35:55.000Z</time>
      </trkpt>
      <trkpt lat="37.095582" lon="-79.610099">
        <ele>254.173212</ele>
        <time>2025-04-04T12:35:56.000Z</time>
      </trkpt>
      <trkpt lat="37.095079" lon="-79.610377">
        <ele>254.173208</ele>
        <time>2025-04-04T12:36:02.000Z</time>
      </trkpt>
      <trkpt lat="37.095079" lon="-79.610388">
        <ele>254.173214</ele>
        <time>2025-04-04T12:36:02.000Z</time>
      </trkpt>
      <trkpt lat="37.095045" lon="-79.610383">
        <ele>254.173217</ele>
        <time>2025-04-04T12:36:02.000Z</time>
      </trkpt>
      <trkpt lat="37.094963" lon="-79.610334">
        <ele>254.173203</ele>
        <time>2025-04-04T12:36:03.000Z</time>
      </trkpt>
      <trkpt lat="37.094909" lon="-79.610185">
        <ele>254.173219</ele>
        <time>2025-04-04T12:36:04.000Z</time>
      </trkpt>
      <trkpt lat="37.095438" lon="-79.609881">
        <ele>254.173215</ele>
        <time>2025-04-04T12:36:10.000Z</time>
      </trkpt>
      <trkpt lat="37.095483" lon="-79.609855">
        <ele>253.764453</ele>
        <time>2025-04-04T12:36:11.000Z</time>
      </trkpt>
      <trkpt lat="37.095524" lon="-79.609824">
        <ele>253.764444</ele>
        <time>2025-04-04T12:36:12.000Z</time>
      </trkpt>
      <trkpt lat="37.095594" lon="-79.609829">
        <ele>253.764444</ele>
        <time>2025-04-04T12:36:13.000Z</time>
      </trkpt>
      <trkpt lat="37.095606" lon="-79.609785">
        <ele>253.764439</ele>
        <time>2025-04-04T12:36:13.000Z</time>
      </trkpt>
      <trkpt lat="37.09569" lon="-79.609696">
        <ele>253.764442</ele>
        <time>2025-04-04T12:36:14.000Z</time>
      </trkpt>
      <trkpt lat="37.096003" lon="-79.609496">
        <ele>253.764446</ele>
        <time>2025-04-04T12:36:18.000Z</time>
      </trkpt>
      <trkpt lat="37.096148" lon="-79.60941">
        <ele>253.764449</ele>
        <time>2025-04-04T12:36:20.000Z</time>
      </trkpt>
      <trkpt lat="37.096413" lon="-79.609221">
        <ele>253.577019</ele>
        <time>2025-04-04T12:36:23.000Z</time>
      </trkpt>
      <trkpt lat="37.096668" lon="-79.609037">
        <ele>253.258505</ele>
        <time>2025-04-04T12:36:26.000Z</time>
      </trkpt>
      <trkpt lat="37.096699" lon="-79.609012">
        <ele>253.216387</ele>
        <time>2025-04-04T12:36:26.000Z</time>
      </trkpt>
      <trkpt lat="37.096875" lon="-79.608863">
        <ele>253.001843</ele>
        <time>2025-04-04T12:36:28.000Z</time>
      </trkpt>
      <trkpt lat="37.097019" lon="-79.608618">
        <ele>252.738538</ele>
        <time>2025-04-04T12:36:31.000Z</time>
      </trkpt>
      <trkpt lat="37.097114" lon="-79.608394">
        <ele>252.523549</ele>
        <time>2025-04-04T12:36:33.000Z</time>
      </trkpt>
      <trkpt lat="37.097203" lon="-79.607932">
        <ele>252.109432</ele>
        <time>2025-04-04T12:36:37.000Z</time>
      </trkpt>
      <trkpt lat="37.097342" lon="-79.605476">
        <ele>251.212157</ele>
        <time>2025-04-04T12:36:59.000Z</time>
      </trkpt>
      <trkpt lat="37.097315" lon="-79.605106">
        <ele>251.532118</ele>
        <time>2025-04-04T12:37:02.000Z</time>
      </trkpt>
      <trkpt lat="37.097229" lon="-79.604768">
        <ele>252.028121</ele>
        <time>2025-04-04T12:37:05.000Z</time>
      </trkpt>
      <trkpt lat="37.097072" lon="-79.60444">
        <ele>252.580932</ele>
        <time>2025-04-04T12:37:08.000Z</time>
      </trkpt>
      <trkpt lat="37.096956" lon="-79.604262">
        <ele>252.902866</ele>
        <time>2025-04-04T12:37:10.000Z</time>
      </trkpt>
      <trkpt lat="37.096069" lon="-79.603138">
        <ele>255.079627</ele>
        <time>2025-04-04T12:37:24.000Z</time>
      </trkpt>
      <trkpt lat="37.09588" lon="-79.602944">
        <ele>255.472656</ele>
        <time>2025-04-04T12:37:27.000Z</time>
      </trkpt>
      <trkpt lat="37.09493" lon="-79.602218">
        <ele>257.255548</ele>
        <time>2025-04-04T12:37:39.000Z</time>
      </trkpt>
      <trkpt lat="37.094614" lon="-79.601901">
        <ele>258.144156</ele>
        <time>2025-04-04T12:37:44.000Z</time>
      </trkpt>
      <trkpt lat="37.094388" lon="-79.601493">
        <ele>259.025731</ele>
        <time>2025-04-04T12:37:48.000Z</time>
      </trkpt>
      <trkpt lat="37.094085" lon="-79.600665">
        <ele>260.614508</ele>
        <time>2025-04-04T12:37:56.000Z</time>
      </trkpt>
      <trkpt lat="37.093986" lon="-79.600377">
        <ele>261.168879</ele>
        <time>2025-04-04T12:37:59.000Z</time>
      </trkpt>
      <trkpt lat="37.093352" lon="-79.598667">
        <ele>266.773458</ele>
        <time>2025-04-04T12:38:16.000Z</time>
      </trkpt>
      <trkpt lat="37.09219" lon="-79.595271">
        <ele>273.865127</ele>
        <time>2025-04-04T12:38:49.000Z</time>
      </trkpt>
      <trkpt lat="37.091514" lon="-79.593429">
        <ele>276.617758</ele>
        <time>2025-04-04T12:39:07.000Z</time>
      </trkpt>
      <trkpt lat="37.091418" lon="-79.59315">
        <ele>276.889134</ele>
        <time>2025-04-04T12:39:10.000Z</time>
      </trkpt>
      <trkpt lat="37.091108" lon="-79.593641">
        <ele>277.430224</ele>
        <time>2025-04-04T12:39:16.000Z</time>
      </trkpt>
      <trkpt lat="37.090181" lon="-79.595291">
        <ele>276.958577</ele>
        <time>2025-04-04T12:39:34.000Z</time>
      </trkpt>
      <trkpt lat="37.089819" lon="-79.595932">
        <ele>276.432596</ele>
        <time>2025-04-04T12:39:41.000Z</time>
      </trkpt>
      <trkpt lat="37.089739" lon="-79.596059">
        <ele>275.954342</ele>
        <time>2025-04-04T12:39:42.000Z</time>
      </trkpt>
      <trkpt lat="37.089558" lon="-79.596381">
        <ele>274.895162</ele>
        <time>2025-04-04T12:39:45.000Z</time>
      </trkpt>
      <trkpt lat="37.089126" lon="-79.597136">
        <ele>272.287663</ele>
        <time>2025-04-04T12:39:53.000Z</time>
      </trkpt>
      <trkpt lat="37.088603" lon="-79.597892">
        <ele>269.551808</ele>
        <time>2025-04-04T12:40:02.000Z</time>
      </trkpt>
      <trkpt lat="37.088279" lon="-79.598209">
        <ele>268.241928</ele>
        <time>2025-04-04T12:40:07.000Z</time>
      </trkpt>
      <trkpt lat="37.087767" lon="-79.598609">
        <ele>266.390503</ele>
        <time>2025-04-04T12:40:14.000Z</time>
      </trkpt>
      <trkpt lat="37.08729" lon="-79.598928">
        <ele>264.686848</ele>
        <time>2025-04-04T12:40:20.000Z</time>
      </trkpt>
      <trkpt lat="37.086973" lon="-79.599258">
        <ele>263.894034</ele>
        <time>2025-04-04T12:40:25.000Z</time>
      </trkpt>
      <trkpt lat="37.086898" lon="-79.59937">
        <ele>263.691887</ele>
        <time>2025-04-04T12:40:26.000Z</time>
      </trkpt>
      <trkpt lat="37.086755" lon="-79.59972">
        <ele>263.13727</ele>
        <time>2025-04-04T12:40:29.000Z</time>
      </trkpt>
      <trkpt lat="37.08602" lon="-79.602014">
        <ele>260.165844</ele>
        <time>2025-04-04T12:40:51.000Z</time>
      </trkpt>
      <trkpt lat="37.085833" lon="-79.602459">
        <ele>259.70079</ele>
        <time>2025-04-04T12:40:55.000Z</time>
      </trkpt>
      <trkpt lat="37.085673" lon="-79.602718">
        <ele>259.385286</ele>
        <time>2025-04-04T12:40:58.000Z</time>
      </trkpt>
      <trkpt lat="37.085444" lon="-79.602978">
        <ele>259.251169</ele>
        <time>2025-04-04T12:41:01.000Z</time>
      </trkpt>
      <trkpt lat="37.085182" lon="-79.603161">
        <ele>259.344369</ele>
        <time>2025-04-04T12:41:04.000Z</time>
      </trkpt>
      <trkpt lat="37.083915" lon="-79.603631">
        <ele>259.759094</ele>
        <time>2025-04-04T12:41:19.000Z</time>
      </trkpt>
      <trkpt lat="37.083608" lon="-79.603832">
        <ele>259.564758</ele>
        <time>2025-04-04T12:41:23.000Z</time>
      </trkpt>
      <trkpt lat="37.083369" lon="-79.604107">
        <ele>259.357174</ele>
        <time>2025-04-04T12:41:27.000Z</time>
      </trkpt>
      <trkpt lat="37.083188" lon="-79.604419">
        <ele>259.164786</ele>
        <time>2025-04-04T12:41:30.000Z</time>
      </trkpt>
      <trkpt lat="37.083113" lon="-79.6047">
        <ele>259.017357</ele>
        <time>2025-04-04T12:41:33.000Z</time>
      </trkpt>
      <trkpt lat="37.082965" lon="-79.606618">
        <ele>258.729046</ele>
        <time>2025-04-04T12:41:50.000Z</time>
      </trkpt>
      <trkpt lat="37.082881" lon="-79.60696">
        <ele>258.75828</ele>
        <time>2025-04-04T12:41:53.000Z</time>
      </trkpt>
      <trkpt lat="37.082803" lon="-79.607147">
        <ele>258.775847</ele>
        <time>2025-04-04T12:41:55.000Z</time>
      </trkpt>
      <trkpt lat="37.082615" lon="-79.60748">
        <ele>258.810188</ele>
        <time>2025-04-04T12:41:59.000Z</time>
      </trkpt>
      <trkpt lat="37.082445" lon="-79.607633">
        <ele>258.519657</ele>
        <time>2025-04-04T12:42:01.000Z</time>
      </trkpt>
      <trkpt lat="37.082139" lon="-79.6078">
        <ele>257.683876</ele>
        <time>2025-04-04T12:42:05.000Z</time>
      </trkpt>
      <trkpt lat="37.081579" lon="-79.608016">
        <ele>256.178348</ele>
        <time>2025-04-04T12:42:12.000Z</time>
      </trkpt>
      <trkpt lat="37.081294" lon="-79.608195">
        <ele>255.390746</ele>
        <time>2025-04-04T12:42:16.000Z</time>
      </trkpt>
      <trkpt lat="37.080928" lon="-79.608528">
        <ele>254.256327</ele>
        <time>2025-04-04T12:42:21.000Z</time>
      </trkpt>
      <trkpt lat="37.080352" lon="-79.609072">
        <ele>251.354335</ele>
        <time>2025-04-04T12:42:29.000Z</time>
      </trkpt>
      <trkpt lat="37.080143" lon="-79.609336">
        <ele>250.159826</ele>
        <time>2025-04-04T12:42:32.000Z</time>
      </trkpt>
      <trkpt lat="37.080097" lon="-79.609441">
        <ele>249.792373</ele>
        <time>2025-04-04T12:42:33.000Z</time>
      </trkpt>
      <trkpt lat="37.080026" lon="-79.60966">
        <ele>249.068388</ele>
        <time>2025-04-04T12:42:35.000Z</time>
      </trkpt>
      <trkpt lat="37.080033" lon="-79.60983">
        <ele>248.487169</ele>
        <time>2025-04-04T12:42:37.000Z</time>
      </trkpt>
      <trkpt lat="37.080057" lon="-79.610272">
        <ele>247.082732</ele>
        <time>2025-04-04T12:42:41.000Z</time>
      </trkpt>
      <trkpt lat="37.080028" lon="-79.610429">
        <ele>247.025912</ele>
        <time>2025-04-04T12:42:42.000Z</time>
      </trkpt>
      <trkpt lat="37.079999" lon="-79.610503">
        <ele>246.999467</ele>
        <time>2025-04-04T12:42:43.000Z</time>
      </trkpt>
      <trkpt lat="37.079728" lon="-79.610774">
        <ele>246.868127</ele>
        <time>2025-04-04T12:42:47.000Z</time>
      </trkpt>
      <trkpt lat="37.079646" lon="-79.610902">
        <ele>246.814842</ele>
        <time>2025-04-04T12:42:48.000Z</time>
      </trkpt>
      <trkpt lat="37.079538" lon="-79.611203">
        <ele>246.710809</ele>
        <time>2025-04-04T12:42:51.000Z</time>
      </trkpt>
      <trkpt lat="37.079445" lon="-79.611528">
        <ele>246.599265</ele>
        <time>2025-04-04T12:42:54.000Z</time>
      </trkpt>
      <trkpt lat="37.079351" lon="-79.611696">
        <ele>246.536551</ele>
        <time>2025-04-04T12:42:56.000Z</time>
      </trkpt>
      <trkpt lat="37.079178" lon="-79.611845">
        <ele>246.44566</ele>
        <time>2025-04-04T12:42:58.000Z</time>
      </trkpt>
      <trkpt lat="37.078769" lon="-79.611985">
        <ele>246.664015</ele>
        <time>2025-04-04T12:43:03.000Z</time>
      </trkpt>
      <trkpt lat="37.07867" lon="-79.612048">
        <ele>246.85829</ele>
        <time>2025-04-04T12:43:04.000Z</time>
      </trkpt>
      <trkpt lat="37.078592" lon="-79.612155">
        <ele>247.01347</ele>
        <time>2025-04-04T12:43:05.000Z</time>
      </trkpt>
      <trkpt lat="37.078525" lon="-79.612256">
        <ele>247.16758</ele>
        <time>2025-04-04T12:43:06.000Z</time>
      </trkpt>
      <trkpt lat="37.078473" lon="-79.612429">
        <ele>247.396608</ele>
        <time>2025-04-04T12:43:08.000Z</time>
      </trkpt>
      <trkpt lat="37.078469" lon="-79.612631">
        <ele>247.626733</ele>
        <time>2025-04-04T12:43:10.000Z</time>
      </trkpt>
      <trkpt lat="37.078574" lon="-79.613036">
        <ele>248.13041</ele>
        <time>2025-04-04T12:43:14.000Z</time>
      </trkpt>
      <trkpt lat="37.078688" lon="-79.613361">
        <ele>248.559585</ele>
        <time>2025-04-04T12:43:17.000Z</time>
      </trkpt>
      <trkpt lat="37.078828" lon="-79.61371">
        <ele>249.018176</ele>
        <time>2025-04-04T12:43:20.000Z</time>
      </trkpt>
      <trkpt lat="37.079077" lon="-79.614124">
        <ele>249.206656</ele>
        <time>2025-04-04T12:43:25.000Z</time>
      </trkpt>
      <trkpt lat="37.079206" lon="-79.614457">
        <ele>249.329332</ele>
        <time>2025-04-04T12:43:28.000Z</time>
      </trkpt>
      <trkpt lat="37.079285" lon="-79.61482">
        <ele>249.450236</ele>
        <time>2025-04-04T12:43:31.000Z</time>
      </trkpt>
      <trkpt lat="37.079287" lon="-79.615079">
        <ele>249.529678</ele>
        <time>2025-04-04T12:43:33.000Z</time>
      </trkpt>
      <trkpt lat="37.079289" lon="-79.615242">
        <ele>249.58337</ele>
        <time>2025-04-04T12:43:34.000Z</time>
      </trkpt>
      <trkpt lat="37.079246" lon="-79.615394">
        <ele>249.63634</ele>
        <time>2025-04-04T12:43:35.000Z</time>
      </trkpt>
      <trkpt lat="37.079221" lon="-79.615451">
        <ele>249.656078</ele>
        <time>2025-04-04T12:43:36.000Z</time>
      </trkpt>
      <trkpt lat="37.079251" lon="-79.615406">
        <ele>249.675813</ele>
        <time>2025-04-04T12:43:37.000Z</time>
      </trkpt>
      <trkpt lat="37.079291" lon="-79.615246">
        <ele>249.72879</ele>
        <time>2025-04-04T12:43:38.000Z</time>
      </trkpt>
      <trkpt lat="37.079302" lon="-79.615077">
        <ele>249.752626</ele>
        <time>2025-04-04T12:43:40.000Z</time>
      </trkpt>
      <trkpt lat="37.07928" lon="-79.614834">
        <ele>249.5832</ele>
        <time>2025-04-04T12:43:42.000Z</time>
      </trkpt>
      <trkpt lat="37.079206" lon="-79.614458">
        <ele>249.325314</ele>
        <time>2025-04-04T12:43:45.000Z</time>
      </trkpt>
      <trkpt lat="37.079078" lon="-79.61412">
        <ele>249.063668</ele>
        <time>2025-04-04T12:43:48.000Z</time>
      </trkpt>
      <trkpt lat="37.078815" lon="-79.613715">
        <ele>248.715103</ele>
        <time>2025-04-04T12:43:53.000Z</time>
      </trkpt>
      <trkpt lat="37.078697" lon="-79.613358">
        <ele>248.452908</ele>
        <time>2025-04-04T12:43:56.000Z</time>
      </trkpt>
      <trkpt lat="37.07858" lon="-79.613024">
        <ele>248.195215</ele>
        <time>2025-04-04T12:43:59.000Z</time>
      </trkpt>
      <trkpt lat="37.078474" lon="-79.612624">
        <ele>247.782785</ele>
        <time>2025-04-04T12:44:03.000Z</time>
      </trkpt>
      <trkpt lat="37.078472" lon="-79.612433">
        <ele>247.594351</ele>
        <time>2025-04-04T12:44:05.000Z</time>
      </trkpt>
      <trkpt lat="37.078531" lon="-79.612259">
        <ele>247.406801</ele>
        <time>2025-04-04T12:44:07.000Z</time>
      </trkpt>
      <trkpt lat="37.078587" lon="-79.61215">
        <ele>247.280625</ele>
        <time>2025-04-04T12:44:08.000Z</time>
      </trkpt>
      <trkpt lat="37.078659" lon="-79.612051">
        <ele>247.153547</ele>
        <time>2025-04-04T12:44:09.000Z</time>
      </trkpt>
      <trkpt lat="37.078771" lon="-79.611993">
        <ele>246.994476</ele>
        <time>2025-04-04T12:44:10.000Z</time>
      </trkpt>
      <trkpt lat="37.079173" lon="-79.611853">
        <ele>246.498142</ele>
        <time>2025-04-04T12:44:15.000Z</time>
      </trkpt>
      <trkpt lat="37.079357" lon="-79.611698">
        <ele>246.218034</ele>
        <time>2025-04-04T12:44:17.000Z</time>
      </trkpt>
      <trkpt lat="37.079446" lon="-79.611539">
        <ele>246.046847</ele>
        <time>2025-04-04T12:44:19.000Z</time>
      </trkpt>
      <trkpt lat="37.079531" lon="-79.611187">
        <ele>246.44891</ele>
        <time>2025-04-04T12:44:22.000Z</time>
      </trkpt>
      <trkpt lat="37.079644" lon="-79.610903">
        <ele>246.823841</ele>
        <time>2025-04-04T12:44:25.000Z</time>
      </trkpt>
      <trkpt lat="37.079731" lon="-79.610774">
        <ele>247.01591</ele>
        <time>2025-04-04T12:44:26.000Z</time>
      </trkpt>
      <trkpt lat="37.079995" lon="-79.610516">
        <ele>247.489323</ele>
        <time>2025-04-04T12:44:30.000Z</time>
      </trkpt>
      <trkpt lat="37.080021" lon="-79.61044">
        <ele>247.584638</ele>
        <time>2025-04-04T12:44:31.000Z</time>
      </trkpt>
      <trkpt lat="37.080062" lon="-79.610283">
        <ele>247.775646</ele>
        <time>2025-04-04T12:44:32.000Z</time>
      </trkpt>
      <trkpt lat="37.080023" lon="-79.609839">
        <ele>248.279004</ele>
        <time>2025-04-04T12:44:36.000Z</time>
      </trkpt>
      <trkpt lat="37.080037" lon="-79.609662">
        <ele>248.487316</ele>
        <time>2025-04-04T12:44:38.000Z</time>
      </trkpt>
      <trkpt lat="37.0801" lon="-79.609446">
        <ele>249.055078</ele>
        <time>2025-04-04T12:44:40.000Z</time>
      </trkpt>
      <trkpt lat="37.080146" lon="-79.609335">
        <ele>249.48198</ele>
        <time>2025-04-04T12:44:41.000Z</time>
      </trkpt>
      <trkpt lat="37.080356" lon="-79.609083">
        <ele>250.869754</ele>
        <time>2025-04-04T12:44:44.000Z</time>
      </trkpt>
      <trkpt lat="37.08094" lon="-79.608521">
        <ele>254.241279</ele>
        <time>2025-04-04T12:44:52.000Z</time>
      </trkpt>
      <trkpt lat="37.081304" lon="-79.608196">
        <ele>256.314634</ele>
        <time>2025-04-04T12:44:57.000Z</time>
      </trkpt>
      <trkpt lat="37.081584" lon="-79.608028">
        <ele>257.104575</ele>
        <time>2025-04-04T12:45:00.000Z</time>
      </trkpt>
      <trkpt lat="37.082151" lon="-79.607798">
        <ele>257.621477</ele>
        <time>2025-04-04T12:45:07.000Z</time>
      </trkpt>
      <trkpt lat="37.08245" lon="-79.607638">
        <ele>257.908448</ele>
        <time>2025-04-04T12:45:11.000Z</time>
      </trkpt>
      <trkpt lat="37.082605" lon="-79.607471">
        <ele>258.092471</ele>
        <time>2025-04-04T12:45:13.000Z</time>
      </trkpt>
      <trkpt lat="37.082805" lon="-79.607146">
        <ele>258.38131</ele>
        <time>2025-04-04T12:45:17.000Z</time>
      </trkpt>
      <trkpt lat="37.082878" lon="-79.606944">
        <ele>258.523115</ele>
        <time>2025-04-04T12:45:19.000Z</time>
      </trkpt>
      <trkpt lat="37.08297" lon="-79.606618">
        <ele>258.620535</ele>
        <time>2025-04-04T12:45:22.000Z</time>
      </trkpt>
      <trkpt lat="37.083117" lon="-79.604704">
        <ele>259.146663</ele>
        <time>2025-04-04T12:45:39.000Z</time>
      </trkpt>
      <trkpt lat="37.083203" lon="-79.604431">
        <ele>259.211063</ele>
        <time>2025-04-04T12:45:42.000Z</time>
      </trkpt>
      <trkpt lat="37.083378" lon="-79.604119">
        <ele>259.295103</ele>
        <time>2025-04-04T12:45:45.000Z</time>
      </trkpt>
      <trkpt lat="37.083607" lon="-79.603834">
        <ele>259.385778</ele>
        <time>2025-04-04T12:45:49.000Z</time>
      </trkpt>
      <trkpt lat="37.083916" lon="-79.60363">
        <ele>259.479897</ele>
        <time>2025-04-04T12:45:53.000Z</time>
      </trkpt>
      <trkpt lat="37.08519" lon="-79.603162">
        <ele>259.568616</ele>
        <time>2025-04-04T12:46:08.000Z</time>
      </trkpt>
      <trkpt lat="37.085446" lon="-79.602979">
        <ele>259.543053</ele>
        <time>2025-04-04T12:46:11.000Z</time>
      </trkpt>
      <trkpt lat="37.08567" lon="-79.60272">
        <ele>259.516806</ele>
        <time>2025-04-04T12:46:14.000Z</time>
      </trkpt>
      <trkpt lat="37.08582" lon="-79.602458">
        <ele>259.494051</ele>
        <time>2025-04-04T12:46:17.000Z</time>
      </trkpt>
      <trkpt lat="37.086009" lon="-79.602013">
        <ele>259.853029</ele>
        <time>2025-04-04T12:46:21.000Z</time>
      </trkpt>
      <trkpt lat="37.08676" lon="-79.599716">
        <ele>263.244356</ele>
        <time>2025-04-04T12:46:43.000Z</time>
      </trkpt>
      <trkpt lat="37.086901" lon="-79.599376">
        <ele>263.828847</ele>
        <time>2025-04-04T12:46:46.000Z</time>
      </trkpt>
      <trkpt lat="37.08698" lon="-79.599256">
        <ele>264.041918</ele>
        <time>2025-04-04T12:46:47.000Z</time>
      </trkpt>
      <trkpt lat="37.087292" lon="-79.598932">
        <ele>264.830703</ele>
        <time>2025-04-04T12:46:52.000Z</time>
      </trkpt>
      <trkpt lat="37.087774" lon="-79.59861">
        <ele>265.859753</ele>
        <time>2025-04-04T12:46:58.000Z</time>
      </trkpt>
      <trkpt lat="37.088272" lon="-79.598213">
        <ele>268.076727</ele>
        <time>2025-04-04T12:47:05.000Z</time>
      </trkpt>
      <trkpt lat="37.088591" lon="-79.597889">
        <ele>269.656099</ele>
        <time>2025-04-04T12:47:10.000Z</time>
      </trkpt>
      <trkpt lat="37.089122" lon="-79.597122">
        <ele>272.698028</ele>
        <time>2025-04-04T12:47:19.000Z</time>
      </trkpt>
      <trkpt lat="37.089559" lon="-79.596381">
        <ele>274.646642</ele>
        <time>2025-04-04T12:47:27.000Z</time>
      </trkpt>
      <trkpt lat="37.089733" lon="-79.596072">
        <ele>275.438178</ele>
        <time>2025-04-04T12:47:30.000Z</time>
      </trkpt>
      <trkpt lat="37.089819" lon="-79.595925">
        <ele>275.795594</ele>
        <time>2025-04-04T12:47:32.000Z</time>
      </trkpt>
      <trkpt lat="37.090183" lon="-79.595297">
        <ele>277.390064</ele>
        <time>2025-04-04T12:47:39.000Z</time>
      </trkpt>
      <trkpt lat="37.091094" lon="-79.593635">
        <ele>277.626447</ele>
        <time>2025-04-04T12:47:57.000Z</time>
      </trkpt>
      <trkpt lat="37.091423" lon="-79.593147">
        <ele>277.125798</ele>
        <time>2025-04-04T12:48:03.000Z</time>
      </trkpt>
      <trkpt lat="37.091508" lon="-79.593445">
        <ele>276.711375</ele>
        <time>2025-04-04T12:48:06.000Z</time>
      </trkpt>
      <trkpt lat="37.092188" lon="-79.595281">
        <ele>273.878356</ele>
        <time>2025-04-04T12:48:24.000Z</time>
      </trkpt>
      <trkpt lat="37.093362" lon="-79.598674">
        <ele>266.755755</ele>
        <time>2025-04-04T12:48:57.000Z</time>
      </trkpt>
      <trkpt lat="37.094003" lon="-79.600386">
        <ele>261.48964</ele>
        <time>2025-04-04T12:49:14.000Z</time>
      </trkpt>
      <trkpt lat="37.094099" lon="-79.600662">
        <ele>260.57439</ele>
        <time>2025-04-04T12:49:17.000Z</time>
      </trkpt>
      <trkpt lat="37.094393" lon="-79.601494">
        <ele>258.759771</ele>
        <time>2025-04-04T12:49:25.000Z</time>
      </trkpt>
      <trkpt lat="37.094624" lon="-79.601887">
        <ele>258.069673</ele>
        <time>2025-04-04T12:49:29.000Z</time>
      </trkpt>
      <trkpt lat="37.09494" lon="-79.602212">
        <ele>257.371633</ele>
        <time>2025-04-04T12:49:34.000Z</time>
      </trkpt>
      <trkpt lat="37.095872" lon="-79.602938">
        <ele>255.449089</ele>
        <time>2025-04-04T12:49:46.000Z</time>
      </trkpt>
      <trkpt lat="37.09606" lon="-79.603124">
        <ele>255.024774</ele>
        <time>2025-04-04T12:49:49.000Z</time>
      </trkpt>
      <trkpt lat="37.096954" lon="-79.604256">
        <ele>252.934714</ele>
        <time>2025-04-04T12:50:03.000Z</time>
      </trkpt>
      <trkpt lat="37.097069" lon="-79.604438">
        <ele>252.705</ele>
        <time>2025-04-04T12:50:05.000Z</time>
      </trkpt>
      <trkpt lat="37.09723" lon="-79.604768">
        <ele>252.310563</ele>
        <time>2025-04-04T12:50:08.000Z</time>
      </trkpt>
      <trkpt lat="37.097317" lon="-79.605107">
        <ele>251.956669</ele>
        <time>2025-04-04T12:50:11.000Z</time>
      </trkpt>
      <trkpt lat="37.097345" lon="-79.605474">
        <ele>251.582108</ele>
        <time>2025-04-04T12:50:14.000Z</time>
      </trkpt>
      <trkpt lat="37.097204" lon="-79.607923">
        <ele>252.216624</ele>
        <time>2025-04-04T12:50:36.000Z</time>
      </trkpt>
      <trkpt lat="37.097117" lon="-79.608386">
        <ele>252.551752</ele>
        <time>2025-04-04T12:50:40.000Z</time>
      </trkpt>
      <trkpt lat="37.09702" lon="-79.608616">
        <ele>252.73872</ele>
        <time>2025-04-04T12:50:42.000Z</time>
      </trkpt>
      <trkpt lat="37.096866" lon="-79.608858">
        <ele>252.967697</ele>
        <time>2025-04-04T12:50:45.000Z</time>
      </trkpt>
      <trkpt lat="37.09671" lon="-79.609003">
        <ele>253.154284</ele>
        <time>2025-04-04T12:50:47.000Z</time>
      </trkpt>
      <trkpt lat="37.096664" lon="-79.609043">
        <ele>253.19091</ele>
        <time>2025-04-04T12:50:48.000Z</time>
      </trkpt>
      <trkpt lat="37.096414" lon="-79.609214">
        <ele>253.467896</ele>
        <time>2025-04-04T12:50:51.000Z</time>
      </trkpt>
      <trkpt lat="37.096152" lon="-79.609404">
        <ele>253.751977</ele>
        <time>2025-04-04T12:50:54.000Z</time>
      </trkpt>
      <trkpt lat="37.096004" lon="-79.609496">
        <ele>253.898896</ele>
        <time>2025-04-04T12:50:56.000Z</time>
      </trkpt>
      <trkpt lat="37.095794" lon="-79.609871">
        <ele>254.173221</ele>
        <time>2025-04-04T12:51:00.000Z</time>
      </trkpt>
      <trkpt lat="37.095728" lon="-79.60992">
        <ele>254.173216</ele>
        <time>2025-04-04T12:51:01.000Z</time>
      </trkpt>
      <trkpt lat="37.095679" lon="-79.609946">
        <ele>254.173217</ele>
        <time>2025-04-04T12:51:02.000Z</time>
      </trkpt>
      <trkpt lat="37.095624" lon="-79.610065">
        <ele>254.173213</ele>
        <time>2025-04-04T12:51:03.000Z</time>
      </trkpt>
      <trkpt lat="37.095583" lon="-79.610094">
        <ele>254.173209</ele>
        <time>2025-04-04T12:51:04.000Z</time>
      </trkpt>
      <trkpt lat="37.095087" lon="-79.610373">
        <ele>254.173221</ele>
        <time>2025-04-04T12:51:10.000Z</time>
      </trkpt>
      <trkpt lat="37.095077" lon="-79.610373">
        <ele>254.173203</ele>
        <time>2025-04-04T12:51:10.000Z</time>
      </trkpt>
      <trkpt lat="37.095029" lon="-79.61038">
        <ele>254.173213</ele>
        <time>2025-04-04T12:51:11.000Z</time>
      </trkpt>
      <trkpt lat="37.094969" lon="-79.610342">
        <ele>254.173212</ele>
        <time>2025-04-04T12:51:12.000Z</time>
      </trkpt>
      <trkpt lat="37.094912" lon="-79.610192">
        <ele>254.173213</ele>
        <time>2025-04-04T12:51:13.000Z</time>
      </trkpt>
      <trkpt lat="37.095437" lon="-79.609867">
        <ele>254.173215</ele>
        <time>2025-04-04T12:51:20.000Z</time>
      </trkpt>
      <trkpt lat="37.095492" lon="-79.60984">
        <ele>253.764441</ele>
        <time>2025-04-04T12:51:21.000Z</time>
      </trkpt>
      <trkpt lat="37.09553" lon="-79.609826">
        <ele>253.764439</ele>
        <time>2025-04-04T12:51:21.000Z</time>
      </trkpt>
      <trkpt lat="37.095607" lon="-79.609828">
        <ele>253.764447</ele>
        <time>2025-04-04T12:51:22.000Z</time>
      </trkpt>
      <trkpt lat="37.095612" lon="-79.609767">
        <ele>253.764445</ele>
        <time>2025-04-04T12:51:23.000Z</time>
      </trkpt>
      <trkpt lat="37.09569" lon="-79.609705">
        <ele>253.764448</ele>
        <time>2025-04-04T12:51:24.000Z</time>
      </trkpt>
      <trkpt lat="37.096001" lon="-79.609504">
        <ele>253.764455</ele>
        <time>2025-04-04T12:51:28.000Z</time>
      </trkpt>
      <trkpt lat="37.096148" lon="-79.609409">
        <ele>253.764439</ele>
        <time>2025-04-04T12:51:30.000Z</time>
      </trkpt>
      <trkpt lat="37.096413" lon="-79.609224">
        <ele>253.577007</ele>
        <time>2025-04-04T12:51:33.000Z</time>
      </trkpt>
      <trkpt lat="37.096663" lon="-79.609033">
        <ele>253.25852</ele>
        <time>2025-04-04T12:51:36.000Z</time>
      </trkpt>
      <trkpt lat="37.096715" lon="-79.609">
        <ele>253.216382</ele>
        <time>2025-04-04T12:51:37.000Z</time>
      </trkpt>
      <trkpt lat="37.09687" lon="-79.608851">
        <ele>253.001845</ele>
        <time>2025-04-04T12:51:39.000Z</time>
      </trkpt>
      <trkpt lat="37.09703" lon="-79.608625">
        <ele>252.738543</ele>
        <time>2025-04-04T12:51:42.000Z</time>
      </trkpt>
      <trkpt lat="37.09711" lon="-79.60839">
        <ele>252.523545</ele>
        <time>2025-04-04T12:51:44.000Z</time>
      </trkpt>
      <trkpt lat="37.097216" lon="-79.607917">
        <ele>252.109419</ele>
        <time>2025-04-04T12:51:48.000Z</time>
      </trkpt>
      <trkpt lat="37.097337" lon="-79.605475">
        <ele>251.21217</ele>
        <time>2025-04-04T12:52:10.000Z</time>
      </trkpt>
      <trkpt lat="37.097313" lon="-79.605112">
        <ele>251.532112</ele>
        <time>2025-04-04T12:52:13.000Z</time>
      </trkpt>
      <trkpt lat="37.097234" lon="-79.604781">
        <ele>252.028113</ele>
        <time>2025-04-04T12:52:16.000Z</time>
      </trkpt>
      <trkpt lat="37.097067" lon="-79.604446">
        <ele>252.580943</ele>
        <time>2025-04-04T12:52:20.000Z</time>
      </trkpt>
      <trkpt lat="37.096966" lon="-79.604258">
        <ele>252.902874</ele>
        <time>2025-04-04T12:52:22.000Z</time>
      </trkpt>
      <trkpt lat="37.096061" lon="-79.603126">
        <ele>255.079635</ele>
        <time>2025-04-04T12:52:36.000Z</time>
      </trkpt>
      <trkpt lat="37.095882" lon="-79.602944">
        <ele>255.472655</ele>
        <time>2025-04-04T12:52:39.000Z</time>
      </trkpt>
      <trkpt lat="37.094937" lon="-79.602211">
        <ele>257.255543</ele>
        <time>2025-04-04T12:52:51.000Z</time>
      </trkpt>
      <trkpt lat="37.09463" lon="-79.601901">
        <ele>258.144149</ele>
        <time>2025-04-04T12:52:55.000Z</time>
      </trkpt>
      <trkpt lat="37.094388" lon="-79.601481">
        <ele>259.025724</ele>
        <time>2025-04-04T12:53:00.000Z</time>
      </trkpt>
      <trkpt lat="37.094091" lon="-79.600664">
        <ele>260.614494</ele>
        <time>2025-04-04T12:53:08.000Z</time>
      </trkpt>
      <trkpt lat="37.093995" lon="-79.600375">
        <ele>261.168878</ele>
        <time>2025-04-04T12:53:11.000Z</time>
      </trkpt>
      <trkpt lat="37.093366" lon="-79.598664">
        <ele>266.773458</ele>
        <time>2025-04-04T12:53:28.000Z</time>
      </trkpt>
      <trkpt lat="37.092181" lon="-79.595281">
        <ele>273.865122</ele>
        <time>2025-04-04T12:54:01.000Z</time>
      </trkpt>
      <trkpt lat="37.091519" lon="-79.593435">
        <ele>276.617762</ele>
        <time>2025-04-04T12:54:19.000Z</time>
      </trkpt>
      <trkpt lat="37.09142" lon="-79.593154">
        <ele>276.889125</ele>
        <time>2025-04-04T12:54:22.000Z</time>
      </trkpt>
      <trkpt lat="37.091108" lon="-79.593643">
        <ele>277.430227</ele>
        <time>2025-04-04T12:54:28.000Z</time>
      </trkpt>
      <trkpt lat="37.090166" lon="-79.595309">
        <ele>276.958574</ele>
        <time>2025-04-04T12:54:46.000Z</time>
      </trkpt>
      <trkpt lat="37.089822" lon="-79.595921">
        <ele>276.432611</ele>
        <time>2025-04-04T12:54:53.000Z</time>
      </trkpt>
      <trkpt lat="37.089748" lon="-79.596058">
        <ele>275.954343</ele>
        <time>2025-04-04T12:54:54.000Z</time>
      </trkpt>
      <trkpt lat="37.089572" lon="-79.596365">
        <ele>274.895164</ele>
        <time>2025-04-04T12:54:57.000Z</time>
      </trkpt>
      <trkpt lat="37.089136" lon="-79.597126">
        <ele>272.287649</ele>
        <time>2025-04-04T12:55:05.000Z</time>
      </trkpt>
      <trkpt lat="37.088588" lon="-79.597892">
        <ele>269.55182</ele>
        <time>2025-04-04T12:55:14.000Z</time>
      </trkpt>
      <trkpt lat="37.088262" lon="-79.598207">
        <ele>268.241916</ele>
        <time>2025-04-04T12:55:19.000Z</time>
      </trkpt>
      <trkpt lat="37.087778" lon="-79.598599">
        <ele>266.390519</ele>
        <time>2025-04-04T12:55:25.000Z</time>
      </trkpt>
      <trkpt lat="37.087295" lon="-79.598933">
        <ele>264.686863</ele>
        <time>2025-04-04T12:55:31.000Z</time>
      </trkpt>
      <trkpt lat="37.08697" lon="-79.599261">
        <ele>263.894042</ele>
        <time>2025-04-04T12:55:36.000Z</time>
      </trkpt>
      <trkpt lat="37.086904" lon="-79.599368">
        <ele>263.691873</ele>
        <time>2025-04-04T12:55:37.000Z</time>
      </trkpt>
      <trkpt lat="37.086765" lon="-79.599718">
        <ele>263.13727</ele>
        <time>2025-04-04T12:55:40.000Z</time>
      </trkpt>
      <trkpt lat="37.086003" lon="-79.602021">
        <ele>260.165838</ele>
        <time>2025-04-04T12:56:02.000Z</time>
      </trkpt>
      <trkpt lat="37.085833" lon="-79.602458">
        <ele>259.7008</ele>
        <time>2025-04-04T12:56:06.000Z</time>
      </trkpt>
      <trkpt lat="37.08566" lon="-79.602717">
        <ele>259.385278</ele>
        <time>2025-04-04T12:56:09.000Z</time>
      </trkpt>
      <trkpt lat="37.085436" lon="-79.602966">
        <ele>259.251171</ele>
        <time>2025-04-04T12:56:12.000Z</time>
      </trkpt>
      <trkpt lat="37.085192" lon="-79.603177">
        <ele>259.344363</ele>
        <time>2025-04-04T12:56:15.000Z</time>
      </trkpt>
      <trkpt lat="37.083906" lon="-79.603637">
        <ele>259.759086</ele>
        <time>2025-04-04T12:56:30.000Z</time>
      </trkpt>
      <trkpt lat="37.083615" lon="-79.60383">
        <ele>259.564754</ele>
        <time>2025-04-04T12:56:34.000Z</time>
      </trkpt>
      <trkpt lat="37.083379" lon="-79.604104">
        <ele>259.35719</ele>
        <time>2025-04-04T12:56:38.000Z</time>
      </trkpt>
      <trkpt lat="37.083192" lon="-79.604432">
        <ele>259.164795</ele>
        <time>2025-04-04T12:56:42.000Z</time>
      </trkpt>
      <trkpt lat="37.083105" lon="-79.604704">
        <ele>259.017357</ele>
        <time>2025-04-04T12:56:45.000Z</time>
      </trkpt>
      <trkpt lat="37.082956" lon="-79.606615">
        <ele>258.729047</ele>
        <time>2025-04-04T12:57:02.000Z</time>
      </trkpt>
      <trkpt lat="37.082881" lon="-79.606943">
        <ele>258.758273</ele>
        <time>2025-04-04T12:57:05.000Z</time>
      </trkpt>
      <trkpt lat="37.082814" lon="-79.607142">
        <ele>258.775834</ele>
        <time>2025-04-04T12:57:07.000Z</time>
      </trkpt>
      <trkpt lat="37.082618" lon="-79.607485">
        <ele>258.810201</ele>
        <time>2025-04-04T12:57:11.000Z</time>
      </trkpt>
      <trkpt lat="37.082454" lon="-79.607642">
        <ele>258.519648</ele>
        <time>2025-04-04T12:57:13.000Z</time>
      </trkpt>
      <trkpt lat="37.082141" lon="-79.607805">
        <ele>257.683878</ele>
        <time>2025-04-04T12:57:17.000Z</time>
      </trkpt>
      <trkpt lat="37.081576" lon="-79.608019">
        <ele>256.178356</ele>
        <time>2025-04-04T12:57:24.000Z</time>
      </trkpt>
      <trkpt lat="37.081296" lon="-79.608211">
        <ele>255.390742</ele>
        <time>2025-04-04T12:57:28.000Z</time>
      </trkpt>
      <trkpt lat="37.08093" lon="-79.608516">
        <ele>254.256331</ele>
        <time>2025-04-04T12:57:33.000Z</time>
      </trkpt>
      <trkpt lat="37.080361" lon="-79.609082">
        <ele>251.354332</ele>
        <time>2025-04-04T12:57:41.000Z</time>
      </trkpt>
      <trkpt lat="37.080152" lon="-79.609347">
        <ele>250.159824</ele>
        <time>2025-04-04T12:57:44.000Z</time>
      </trkpt>
      <trkpt lat="37.0801" lon="-79.609434">
        <ele>249.792382</ele>
        <time>2025-04-04T12:57:45.000Z</time>
      </trkpt>
      <trkpt lat="37.08004" lon="-79.609651">
        <ele>249.068377</ele>
        <time>2025-04-04T12:57:47.000Z</time>
      </trkpt>
      <trkpt lat="37.080021" lon="-79.609845">
        <ele>248.487177</ele>
        <time>2025-04-04T12:57:49.000Z</time>
      </trkpt>
      <trkpt lat="37.080049" lon="-79.610266">
        <ele>247.082735</ele>
        <time>2025-04-04T12:57:53.000Z</time>
      </trkpt>
      <trkpt lat="37.080018" lon="-79.610432">
        <ele>247.025913</ele>
        <time>2025-04-04T12:57:55.000Z</time>
      </trkpt>
      <trkpt lat="37.079995" lon="-79.61051">
        <ele>246.999483</ele>
        <time>2025-04-04T12:57:56.000Z</time>
      </trkpt>
      <trkpt lat="37.079728" lon="-79.610777">
        <ele>246.868136</ele>
        <time>2025-04-04T12:58:00.000Z</time>
      </trkpt>
      <trkpt lat="37.079645" lon="-79.610889">
        <ele>246.814834</ele>
        <time>2025-04-04T12:58:01.000Z</time>
      </trkpt>
      <trkpt lat="37.079535" lon="-79.611204">
        <ele>246.710817</ele>
        <time>2025-04-04T12:58:04.000Z</time>
      </trkpt>
      <trkpt lat="37.079451" lon="-79.611523">
        <ele>246.599266</ele>
        <time>2025-04-04T12:58:07.000Z</time>
      </trkpt>
      <trkpt lat="37.079365" lon="-79.611692">
        <ele>246.536549</ele>
        <time>2025-04-04T12:58:09.000Z</time>
      </trkpt>
      <trkpt lat="37.07917" lon="-79.611844">
        <ele>246.445649</ele>
        <time>2025-04-04T12:58:12.000Z</time>
      </trkpt>
      <trkpt lat="37.078782" lon="-79.611984">
        <ele>246.664017</ele>
        <time>2025-04-04T12:58:16.000Z</time>
      </trkpt>
      <trkpt lat="37.078665" lon="-79.612054">
        <ele>246.858284</ele>
        <time>2025-04-04T12:58:17.000Z</time>
      </trkpt>
      <trkpt lat="37.078586" lon="-79.61214">
        <ele>247.013466</ele>
        <time>2025-04-04T12:58:18.000Z</time>
      </trkpt>
      <trkpt lat="37.078525" lon="-79.612244">
        <ele>247.16757</ele>
        <time>2025-04-04T12:58:19.000Z</time>
      </trkpt>
      <trkpt lat="37.078471" lon="-79.612429">
        <ele>247.396612</ele>
        <time>2025-04-04T12:58:21.000Z</time>
      </trkpt>
      <trkpt lat="37.07847" lon="-79.612623">
        <ele>247.62673</ele>
        <time>2025-04-04T12:58:23.000Z</time>
      </trkpt>
      <trkpt lat="37.078579" lon="-79.613033">
        <ele>248.130403</ele>
        <time>2025-04-04T12:58:27.000Z</time>
      </trkpt>
      <trkpt lat="37.078693" lon="-79.613361">
        <ele>248.55959</ele>
        <time>2025-04-04T12:58:30.000Z</time>
      </trkpt>
      <trkpt lat="37.078818" lon="-79.61371">
        <ele>249.018179</ele>
        <time>2025-04-04T12:58:33.000Z</time>
      </trkpt>
      <trkpt lat="37.079068" lon="-79.614115">
        <ele>249.206643</ele>
        <time>2025-04-04T12:58:38.000Z</time>
      </trkpt>
      <trkpt lat="37.079216" lon="-79.614459">
        <ele>249.329317</ele>
        <time>2025-04-04T12:58:41.000Z</time>
      </trkpt>
      <trkpt lat="37.079271" lon="-79.614817">
        <ele>249.450234</ele>
        <time>2025-04-04T12:58:44.000Z</time>
      </trkpt>
      <trkpt lat="37.079284" lon="-79.615072">
        <ele>249.52967</ele>
        <time>2025-04-04T12:58:46.000Z</time>
      </trkpt>
      <trkpt lat="37.079298" lon="-79.615234">
        <ele>249.583359</ele>
        <time>2025-04-04T12:58:47.000Z</time>
      </trkpt>
      <trkpt lat="37.079243" lon="-79.615392">
        <ele>249.636353</ele>
        <time>2025-04-04T12:58:49.000Z</time>
      </trkpt>
      <trkpt lat="37.079229" lon="-79.615447">
        <ele>249.656085</ele>
        <time>2025-04-04T12:58:50.000Z</time>
      </trkpt>
      <trkpt lat="37.079261" lon="-79.615395">
        <ele>249.675815</ele>
        <time>2025-04-04T12:58:51.000Z</time>
      </trkpt>
      <trkpt lat="37.079286" lon="-79.615241">
        <ele>249.728802</ele>
        <time>2025-04-04T12:58:52.000Z</time>
      </trkpt>
      <trkpt lat="37.0793" lon="-79.615065">
        <ele>249.752624</ele>
        <time>2025-04-04T12:58:54.000Z</time>
      </trkpt>
      <trkpt lat="37.079284" lon="-79.614818">
        <ele>249.583199</ele>
        <time>2025-04-04T12:58:56.000Z</time>
      </trkpt>
      <trkpt lat="37.079217" lon="-79.61445">
        <ele>249.325318</ele>
        <time>2025-04-04T12:58:59.000Z</time>
      </trkpt>
      <trkpt lat="37.07908" lon="-79.614114">
        <ele>249.063656</ele>
        <time>2025-04-04T12:59:02.000Z</time>
      </trkpt>
      <trkpt lat="37.078831" lon="-79.613709">
        <ele>248.715106</ele>
        <time>2025-04-04T12:59:07.000Z</time>
      </trkpt>
      <trkpt lat="37.078692" lon="-79.613372">
        <ele>248.452917</ele>
        <time>2025-04-04T12:59:10.000Z</time>
      </trkpt>
      <trkpt lat="37.078572" lon="-79.613023">
        <ele>248.195218</ele>
        <time>2025-04-04T12:59:13.000Z</time>
      </trkpt>
      <trkpt lat="37.078482" lon="-79.61262">
        <ele>247.782792</ele>
        <time>2025-04-04T12:59:17.000Z</time>
      </trkpt>
      <trkpt lat="37.078474" lon="-79.612432">
        <ele>247.594343</ele>
        <time>2025-04-04T12:59:19.000Z</time>
      </trkpt>
      <trkpt lat="37.078525" lon="-79.612254">
        <ele>247.406811</ele>
        <time>2025-04-04T12:59:21.000Z</time>
      </trkpt>
      <trkpt lat="37.078586" lon="-79.612145">
        <ele>247.28062</ele>
        <time>2025-04-04T12:59:22.000Z</time>
      </trkpt>
      <trkpt lat="37.078669" lon="-79.612058">
        <ele>247.153555</ele>
        <time>2025-04-04T12:59:23.000Z</time>
      </trkpt>
      <trkpt lat="37.078787" lon="-79.611984">
        <ele>246.994476</ele>
        <time>2025-04-04T12:59:24.000Z</time>
      </trkpt>
      <trkpt lat="37.079167" lon="-79.61186">
        <ele>246.498154</ele>
        <time>2025-04-04T12:59:28.000Z</time>
      </trkpt>
      <trkpt lat="37.07936" lon="-79.611694">
        <ele>246.218023</ele>
        <time>2025-04-04T12:59:31.000Z</time>
      </trkpt>
      <trkpt lat="37.079447" lon="-79.611527">
        <ele>246.046837</ele>
        <time>2025-04-04T12:59:33.000Z</time>
      </trkpt>
      <trkpt lat="37.079545" lon="-79.611203">
        <ele>246.448903</ele>
        <time>2025-04-04T12:59:36.000Z</time>
      </trkpt>
      <trkpt lat="37.079648" lon="-79.610896">
        <ele>246.823844</ele>
        <time>2025-04-04T12:59:39.000Z</time>
      </trkpt>
      <trkpt lat="37.079737" lon="-79.610764">
        <ele>247.015922</ele>
        <time>2025-04-04T12:59:41.000Z</time>
      </trkpt>
      <trkpt lat="37.079983" lon="-79.610504">
        <ele>247.489321</ele>
        <time>2025-04-04T12:59:45.000Z</time>
      </trkpt>
      <trkpt lat="37.080033" lon="-79.610447">
        <ele>247.584636</ele>
        <time>2025-04-04T12:59:46.000Z</time>
      </trkpt>
      <trkpt lat="37.080057" lon="-79.610283">
        <ele>247.77565</ele>
        <time>2025-04-04T12:59:47.000Z</time>
      </trkpt>
      <trkpt lat="37.080033" lon="-79.609839">
        <ele>248.279012</ele>
        <time>2025-04-04T12:59:51.000Z</time>
      </trkpt>
      <trkpt lat="37.080028" lon="-79.609657">
        <ele>248.487306</ele>
        <time>2025-04-04T12:59:53.000Z</time>
      </trkpt>
      <trkpt lat="37.080087" lon="-79.609436">
        <ele>249.055077</ele>
        <time>2025-04-04T12:59:55.000Z</time>
      </trkpt>
      <trkpt lat="37.080152" lon="-79.609342">
        <ele>249.481978</ele>
        <time>2025-04-04T12:59:56.000Z</time>
      </trkpt>
      <trkpt lat="37.080365" lon="-79.609073">
        <ele>250.869756</ele>
        <time>2025-04-04T12:59:59.000Z</time>
      </trkpt>
      <trkpt lat="37.080938" lon="-79.608518">
        <ele>254.241267</ele>
        <time>2025-04-04T13:00:07.000Z</time>
      </trkpt>
      <trkpt lat="37.081301" lon="-79.608211">
        <ele>256.314635</ele>
        <time>2025-04-04T13:00:12.000Z</time>
      </trkpt>
      <trkpt lat="37.081571" lon="-79.608024">
        <ele>257.104575</ele>
        <time>2025-04-04T13:00:15.000Z</time>
      </trkpt>
      <trkpt lat="37.08214" lon="-79.607799">
        <ele>257.621477</ele>
        <time>2025-04-04T13:00:22.000Z</time>
      </trkpt>
      <trkpt lat="37.082448" lon="-79.607644">
        <ele>257.908445</ele>
        <time>2025-04-04T13:00:26.000Z</time>
      </trkpt>
      <trkpt lat="37.082617" lon="-79.607469">
        <ele>258.092476</ele>
        <time>2025-04-04T13:00:28.000Z</time>
      </trkpt>
      <trkpt lat="37.082821" lon="-79.607136">
        <ele>258.3813</ele>
        <time>2025-04-04T13:00:32.000Z</time>
      </trkpt>
      <trkpt lat="37.082882" lon="-79.606943">
        <ele>258.52311</ele>
        <time>2025-04-04T13:00:34.000Z</time>
      </trkpt>
      <trkpt lat="37.082972" lon="-79.606607">
        <ele>258.620545</ele>
        <time>2025-04-04T13:00:37.000Z</time>
      </trkpt>
      <trkpt lat="37.083113" lon="-79.604701">
        <ele>259.146662</ele>
        <time>2025-04-04T13:00:54.000Z</time>
      </trkpt>
      <trkpt lat="37.083188" lon="-79.604427">
        <ele>259.211067</ele>
        <time>2025-04-04T13:00:57.000Z</time>
      </trkpt>
      <trkpt lat="37.08338" lon="-79.604109">
        <ele>259.29511</ele>
        <time>2025-04-04T13:01:01.000Z</time>
      </trkpt>
      <trkpt lat="37.08361" lon="-79.60383">
        <ele>259.385781</ele>
        <time>2025-04-04T13:01:05.000Z</time>
      </trkpt>
      <trkpt lat="37.083912" lon="-79.603626">
        <ele>259.479887</ele>
        <time>2025-04-04T13:01:09.000Z</time>
      </trkpt>
      <trkpt lat="37.085181" lon="-79.603166">
        <ele>259.568611</ele>
        <time>2025-04-04T13:01:24.000Z</time>
      </trkpt>
      <trkpt lat="37.085449" lon="-79.60297">
        <ele>259.543041</ele>
        <time>2025-04-04T13:01:27.000Z</time>
      </trkpt>
      <trkpt lat="37.085669" lon="-79.602716">
        <ele>259.516809</ele>
        <time>2025-04-04T13:01:30.000Z</time>
      </trkpt>
      <trkpt lat="37.085833" lon="-79.602457">
        <ele>259.494051</ele>
        <time>2025-04-04T13:01:33.000Z</time>
      </trkpt>
      <trkpt lat="37.086011" lon="-79.602011">
        <ele>259.853016</ele>
        <time>2025-04-04T13:01:37.000Z</time>
      </trkpt>
      <trkpt lat="37.086751" lon="-79.599714">
        <ele>263.244339</ele>
        <time>2025-04-04T13:01:59.000Z</time>
      </trkpt>
      <trkpt lat="37.086903" lon="-79.599361">
        <ele>263.828855</ele>
        <time>2025-04-04T13:02:03.000Z</time>
      </trkpt>
      <trkpt lat="37.08697" lon="-79.599261">
        <ele>264.04191</ele>
        <time>2025-04-04T13:02:04.000Z</time>
      </trkpt>
      <trkpt lat="37.0873" lon="-79.598923">
        <ele>264.8307</ele>
        <time>2025-04-04T13:02:09.000Z</time>
      </trkpt>
      <trkpt lat="37.087767" lon="-79.598601">
        <ele>265.859756</ele>
        <time>2025-04-04T13:02:15.000Z</time>
      </trkpt>
      <trkpt lat="37.088265" lon="-79.598208">
        <ele>268.076723</ele>
        <time>2025-04-04T13:02:22.000Z</time>
      </trkpt>
      <trkpt lat="37.088603" lon="-79.597881">
        <ele>269.65609</ele>
        <time>2025-04-04T13:02:27.000Z</time>
      </trkpt>
      <trkpt lat="37.089135" lon="-79.597129">
        <ele>272.698018</ele>
        <time>2025-04-04T13:02:36.000Z</time>
      </trkpt>
      <trkpt lat="37.089566" lon="-79.596373">
        <ele>274.646643</ele>
        <time>2025-04-04T13:02:44.000Z</time>
      </trkpt>
      <trkpt lat="37.089732" lon="-79.596059">
        <ele>275.438195</ele>
        <time>2025-04-04T13:02:47.000Z</time>
      </trkpt>
      <trkpt lat="37.089817" lon="-79.595927">
        <ele>275.795583</ele>
        <time>2025-04-04T13:02:49.000Z</time>
      </trkpt>
      <trkpt lat="37.090169" lon="-79.595306">
        <ele>277.390058</ele>
        <time>2025-04-04T13:02:56.000Z</time>
      </trkpt>
      <trkpt lat="37.091093" lon="-79.59365">
        <ele>277.626445</ele>
        <time>2025-04-04T13:03:14.000Z</time>
      </trkpt>
      <trkpt lat="37.09141" lon="-79.593139">
        <ele>277.1258</ele>
        <time>2025-04-04T13:03:20.000Z</time>
      </trkpt>
      <trkpt lat="37.091521" lon="-79.593432">
        <ele>276.711379</ele>
        <time>2025-04-04T13:03:23.000Z</time>
      </trkpt>
      <trkpt lat="37.092177" lon="-79.595279">
        <ele>273.878346</ele>
        <time>2025-04-04T13:03:41.000Z</time>
      </trkpt>
      <trkpt lat="37.09336" lon="-79.598657">
        <ele>266.755758</ele>
        <time>2025-04-04T13:04:14.000Z</time>
      </trkpt>
      <trkpt lat="37.093993" lon="-79.600377">
        <ele>261.489639</ele>
        <time>2025-04-04T13:04:31.000Z</time>
      </trkpt>
      <trkpt lat="37.094091" lon="-79.600664">
        <ele>260.574391</ele>
        <time>2025-04-04T13:04:34.000Z</time>
      </trkpt>
      <trkpt lat="37.094391" lon="-79.601498">
        <ele>258.759772</ele>
        <time>2025-04-04T13:04:42.000Z</time>
      </trkpt>
      <trkpt lat="37.094625" lon="-79.601894">
        <ele>258.069673</ele>
        <time>2025-04-04T13:04:46.000Z</time>
      </trkpt>
      <trkpt lat="37.094937" lon="-79.602208">
        <ele>257.371638</ele>
        <time>2025-04-04T13:04:50.000Z</time>
      </trkpt>
      <trkpt lat="37.095877" lon="-79.602944">
        <ele>255.449092</ele>
        <time>2025-04-04T13:05:02.000Z</time>
      </trkpt>
      <trkpt lat="37.096066" lon="-79.603135">
        <ele>255.024768</ele>
        <time>2025-04-04T13:05:05.000Z</time>
      </trkpt>
      <trkpt lat="37.096967" lon="-79.604253">
        <ele>252.934712</ele>
        <time>2025-04-04T13:05:19.000Z</time>
      </trkpt>
      <trkpt lat="37.097077" lon="-79.604433">
        <ele>252.704999</ele>
        <time>2025-04-04T13:05:21.000Z</time>
      </trkpt>
      <trkpt lat="37.097237" lon="-79.604773">
        <ele>252.31056</ele>
        <time>2025-04-04T13:05:25.000Z</time>
      </trkpt>
      <trkpt lat="37.097311" lon="-79.605107">
        <ele>251.956658</ele>
        <time>2025-04-04T13:05:28.000Z</time>
      </trkpt>
      <trkpt lat="37.097343" lon="-79.605484">
        <ele>251.582123</ele>
        <time>2025-04-04T13:05:31.000Z</time>
      </trkpt>
      <trkpt lat="37.097202" lon="-79.607923">
        <ele>252.216622</ele>
        <time>2025-04-04T13:05:53.000Z</time>
      </trkpt>
      <trkpt lat="37.097115" lon="-79.608392">
        <ele>252.551764</ele>
        <time>2025-04-04T13:05:57.000Z</time>
      </trkpt>
      <trkpt lat="37.097021" lon="-79.608629">
        <ele>252.738732</ele>
        <time>2025-04-04T13:05:59.000Z</time>
      </trkpt>
      <trkpt lat="37.096863" lon="-79.608863">
        <ele>252.967711</ele>
        <time>2025-04-04T13:06:02.000Z</time>
      </trkpt>
      <trkpt lat="37.096711" lon="-79.60901">
        <ele>253.154288</ele>
        <time>2025-04-04T13:06:04.000Z</time>
      </trkpt>
      <trkpt lat="37.096671" lon="-79.609042">
        <ele>253.190909</ele>
        <time>2025-04-04T13:06:05.000Z</time>
      </trkpt>
      <trkpt lat="37.09641" lon="-79.609215">
        <ele>253.467893</ele>
        <time>2025-04-04T13:06:08.000Z</time>
      </trkpt>
      <trkpt lat="37.096144" lon="-79.609395">
        <ele>253.751979</ele>
        <time>2025-04-04T13:06:11.000Z</time>
      </trkpt>
      <trkpt lat="37.096002" lon="-79.609491">
        <ele>253.898895</ele>
        <time>2025-04-04T13:06:13.000Z</time>
      </trkpt>
      <trkpt lat="37.095789" lon="-79.60987">
        <ele>254.173211</ele>
        <time>2025-04-04T13:06:17.000Z</time>
      </trkpt>
      <trkpt lat="37.095742" lon="-79.609928">
        <ele>254.173219</ele>
        <time>2025-04-04T13:06:18.000Z</time>
      </trkpt>
      <trkpt lat="37.095679" lon="-79.609947">
        <ele>254.173216</ele>
        <time>2025-04-04T13:06:19.000Z</time>
      </trkpt>
      <trkpt lat="37.095622" lon="-79.610057">
        <ele>254.173211</ele>
        <time>2025-04-04T13:06:20.000Z</time>
      </trkpt>
      <trkpt lat="37.09559" lon="-79.610098">
        <ele>254.173203</ele>
        <time>2025-04-04T13:06:21.000Z</time>
      </trkpt>
      <trkpt lat="37.095083" lon="-79.610382">
        <ele>254.173203</ele>
        <time>2025-04-04T13:06:27.000Z</time>
      </trkpt>
      <trkpt lat="37.095078" lon="-79.610387">
        <ele>254.17322</ele>
        <time>2025-04-04T13:06:27.000Z</time>
      </trkpt>
      <trkpt lat="37.095042" lon="-79.610387">
        <ele>254.173209</ele>
        <time>2025-04-04T13:06:27.000Z</time>
      </trkpt>
      <trkpt lat="37.094981" lon="-79.610346">
        <ele>254.173216</ele>
        <time>2025-04-04T13:06:28.000Z</time>
      </trkpt>
      <trkpt lat="37.09491" lon="-79.610186">
        <ele>254.173209</ele>
        <time>2025-04-04T13:06:30.000Z</time>
      </trkpt>
      <trkpt lat="37.095437" lon="-79.609864">
        <ele>254.173216</ele>
        <time>2025-04-04T13:06:37.000Z</time>
      </trkpt>
      <trkpt lat="37.095492" lon="-79.609854">
        <ele>253.764454</ele>
        <time>2025-04-04T13:06:38.000Z</time>
      </trkpt>
      <trkpt lat="37.095525" lon="-79.609826">
        <ele>253.764443</ele>
        <time>2025-04-04T13:06:38.000Z</time>
      </trkpt>
      <trkpt lat="37.095606" lon="-79.609829">
        <ele>253.764454</ele>
        <time>2025-04-04T13:06:39.000Z</time>
      </trkpt>
      <trkpt lat="37.095605" lon="-79.609784">
        <ele>253.764442</ele>
        <time>2025-04-04T13:06:39.000Z</time>
      </trkpt>
      <trkpt lat="37.095677" lon="-79.609702">
        <ele>253.764448</ele>
        <time>2025-04-04T13:06:40.000Z</time>
      </trkpt>
      <trkpt lat="37.096008" lon="-79.609495">
        <ele>253.764453</ele>
        <time>2025-04-04T13:06:44.000Z</time>
      </trkpt>
      <trkpt lat="37.096152" lon="-79.609408">
        <ele>253.764452</ele>
        <time>2025-04-04T13:06:46.000Z</time>
      </trkpt>
      <trkpt lat="37.096421" lon="-79.609216">
        <ele>253.577012</ele>
        <time>2025-04-04T13:06:49.000Z</time>
      </trkpt>
      <trkpt lat="37.096678" lon="-79.60904">
        <ele>253.25852</ele>
        <time>2025-04-04T13:06:52.000Z</time>
      </trkpt>
      <trkpt lat="37.096709" lon="-79.609012">
        <ele>253.216395</ele>
        <time>2025-04-04T13:06:52.000Z</time>
      </trkpt>
      <trkpt lat="37.09687" lon="-79.608862">
        <ele>253.001843</ele>
        <time>2025-04-04T13:06:54.000Z</time>
      </trkpt>
      <trkpt lat="37.097021" lon="-79.608622">
        <ele>252.738526</ele>
        <time>2025-04-04T13:06:57.000Z</time>
      </trkpt>
      <trkpt lat="37.097118" lon="-79.608399">
        <ele>252.523545</ele>
        <time>2025-04-04T13:06:59.000Z</time>
      </trkpt>
      <trkpt lat="37.097216" lon="-79.607921">
        <ele>252.109429</ele>
        <time>2025-04-04T13:07:03.000Z</time>
      </trkpt>
      <trkpt lat="37.097343" lon="-79.605474">
        <ele>251.212155</ele>
        <time>2025-04-04T13:07:25.000Z</time>
      </trkpt>
      <trkpt lat="37.097318" lon="-79.605118">
        <ele>251.532126</ele>
        <time>2025-04-04T13:07:28.000Z</time>
      </trkpt>
      <trkpt lat="37.097236" lon="-79.604785">
        <ele>252.028122</ele>
        <time>2025-04-04T13:07:31.000Z</time>
      </trkpt>
      <trkpt lat="37.097072" lon="-79.604443">
        <ele>252.580937</ele>
        <time>2025-04-04T13:07:35.000Z</time>
      </trkpt>
      <trkpt lat="37.09697" lon="-79.604261">
        <ele>252.902872</ele>
        <time>2025-04-04T13:07:37.000Z</time>
      </trkpt>
      <trkpt lat="37.096072" lon="-79.603122">
        <ele>255.079624</ele>
        <time>2025-04-04T13:07:51.000Z</time>
      </trkpt>
      <trkpt lat="37.095878" lon="-79.602943">
        <ele>255.472652</ele>
        <time>2025-04-04T13:07:54.000Z</time>
      </trkpt>
      <trkpt lat="37.094939" lon="-79.602207">
        <ele>257.255539</ele>
        <time>2025-04-04T13:08:06.000Z</time>
      </trkpt>
      <trkpt lat="37.094626" lon="-79.601888">
        <ele>258.144145</ele>
        <time>2025-04-04T13:08:10.000Z</time>
      </trkpt>
      <trkpt lat="37.094388" lon="-79.601483">
        <ele>259.025733</ele>
        <time>2025-04-04T13:08:14.000Z</time>
      </trkpt>
      <trkpt lat="37.094102" lon="-79.600679">
        <ele>260.614502</ele>
        <time>2025-04-04T13:08:22.000Z</time>
      </trkpt>
      <trkpt lat="37.093999" lon="-79.600385">
        <ele>261.168874</ele>
        <time>2025-04-04T13:08:25.000Z</time>
      </trkpt>
      <trkpt lat="37.093363" lon="-79.598657">
        <ele>266.773466</ele>
        <time>2025-04-04T13:08:42.000Z</time>
      </trkpt>
      <trkpt lat="37.092186" lon="-79.595282">
        <ele>273.865123</ele>
        <time>2025-04-04T13:09:15.000Z</time>
      </trkpt>
      <trkpt lat="37.091519" lon="-79.593445">
        <ele>276.617766</ele>
        <time>2025-04-04T13:09:33.000Z</time>
      </trkpt>
      <trkpt lat="37.09142" lon="-79.59314">
        <ele>276.889137</ele>
        <time>2025-04-04T13:09:36.000Z</time>
      </trkpt>
      <trkpt lat="37.091109" lon="-79.593648">
        <ele>277.430226</ele>
        <time>2025-04-04T13:09:42.000Z</time>
      </trkpt>
      <trkpt lat="37.090171" lon="-79.595296">
        <ele>276.958575</ele>
        <time>2025-04-04T13:10:00.000Z</time>
      </trkpt>
      <trkpt lat="37.089818" lon="-79.595917">
        <ele>276.432598</ele>
        <time>2025-04-04T13:10:07.000Z</time>
      </trkpt>
      <trkpt lat="37.089741" lon="-79.596056">
        <ele>275.954341</ele>
        <time>2025-04-04T13:10:09.000Z</time>
      </trkpt>
      <trkpt lat="37.089571" lon="-79.596372">
        <ele>274.89517</ele>
        <time>2025-04-04T13:10:12.000Z</time>
      </trkpt>
      <trkpt lat="37.089122" lon="-79.597135">
        <ele>272.287659</ele>
        <time>2025-04-04T13:10:20.000Z</time>
      </trkpt>
      <trkpt lat="37.088589" lon="-79.597881">
        <ele>269.551806</ele>
        <time>2025-04-04T13:10:29.000Z</time>
      </trkpt>
      <trkpt lat="37.088277" lon="-79.598224">
        <ele>268.241927</ele>
        <time>2025-04-04T13:10:34.000Z</time>
      </trkpt>
      <trkpt lat="37.087774" lon="-79.598611">
        <ele>266.390506</ele>
        <time>2025-04-04T13:10:41.000Z</time>
      </trkpt>
      <trkpt lat="37.087289" lon="-79.598928">
        <ele>264.686854</ele>
        <time>2025-04-04T13:10:47.000Z</time>
      </trkpt>
      <trkpt lat="37.086971" lon="-79.599256">
        <ele>263.894041</ele>
        <time>2025-04-04T13:10:52.000Z</time>
      </trkpt>
      <trkpt lat="37.086912" lon="-79.599378">
        <ele>263.69188</ele>
        <time>2025-04-04T13:10:53.000Z</time>
      </trkpt>
      <trkpt lat="37.086766" lon="-79.599718">
        <ele>263.137283</ele>
        <time>2025-04-04T13:10:56.000Z</time>
      </trkpt>
      <trkpt lat="37.086015" lon="-79.602016">
        <ele>260.165853</ele>
        <time>2025-04-04T13:11:18.000Z</time>
      </trkpt>
      <trkpt lat="37.085836" lon="-79.602453">
        <ele>259.700795</ele>
        <time>2025-04-04T13:11:22.000Z</time>
      </trkpt>
      <trkpt lat="37.085672" lon="-79.602714">
        <ele>259.385279</ele>
        <time>2025-04-04T13:11:25.000Z</time>
      </trkpt>
      <trkpt lat="37.085443" lon="-79.602975">
        <ele>259.251175</ele>
        <time>2025-04-04T13:11:28.000Z</time>
      </trkpt>
      <trkpt lat="37.085181" lon="-79.603172">
        <ele>259.34437</ele>
        <time>2025-04-04T13:11:31.000Z</time>
      </trkpt>
      <trkpt lat="37.083919" lon="-79.603629">
        <ele>259.75909</ele>
        <time>2025-04-04T13:11:46.000Z</time>
      </trkpt>
      <trkpt lat="37.083609" lon="-79.60383">
        <ele>259.564754</ele>
        <time>2025-04-04T13:11:50.000Z</time>
      </trkpt>
      <trkpt lat="37.083368" lon="-79.604105">
        <ele>259.357186</ele>
        <time>2025-04-04T13:11:54.000Z</time>
      </trkpt>
      <trkpt lat="37.083196" lon="-79.604431">
        <ele>259.164788</ele>
        <time>2025-04-04T13:11:57.000Z</time>
      </trkpt>
      <trkpt lat="37.083113" lon="-79.604698">
        <ele>259.017361</ele>
        <time>2025-04-04T13:12:00.000Z</time>
      </trkpt>
      <trkpt lat="37.082957" lon="-79.606609">
        <ele>258.729045</ele>
        <time>2025-04-04T13:12:17.000Z</time>
      </trkpt>
      <trkpt lat="37.082876" lon="-79.606953">
        <ele>258.758285</ele>
        <time>2025-04-04T13:12:20.000Z</time>
      </trkpt>
      <trkpt lat="37.082812" lon="-79.607145">
        <ele>258.775836</ele>
        <time>2025-04-04T13:12:22.000Z</time>
      </trkpt>
      <trkpt lat="37.082613" lon="-79.607468">
        <ele>258.810197</ele>
        <time>2025-04-04T13:12:26.000Z</time>
      </trkpt>
      <trkpt lat="37.082447" lon="-79.607633">
        <ele>258.51965</ele>
        <time>2025-04-04T13:12:28.000Z</time>
      </trkpt>
      <trkpt lat="37.082136" lon="-79.607802">
        <ele>257.683879</ele>
        <time>2025-04-04T13:12:32.000Z</time>
      </trkpt>
      <trkpt lat="37.081567" lon="-79.608029">
        <ele>256.178356</ele>
        <time>2025-04-04T13:12:39.000Z</time>
      </trkpt>
      <trkpt lat="37.081307" lon="-79.608209">
        <ele>255.390752</ele>
        <time>2025-04-04T13:12:42.000Z</time>
      </trkpt>
      <trkpt lat="37.080928" lon="-79.608516">
        <ele>254.256321</ele>
        <time>2025-04-04T13:12:47.000Z</time>
      </trkpt>
      <trkpt lat="37.080357" lon="-79.609076">
        <ele>251.354338</ele>
        <time>2025-04-04T13:12:55.000Z</time>
      </trkpt>
      <trkpt lat="37.080146" lon="-79.609338">
        <ele>250.159833</ele>
        <time>2025-04-04T13:12:58.000Z</time>
      </trkpt>
      <trkpt lat="37.080088" lon="-79.609438">
        <ele>249.792375</ele>
        <time>2025-04-04T13:12:59.000Z</time>
      </trkpt>
      <trkpt lat="37.080028" lon="-79.60965">
        <ele>249.068394</ele>
        <time>2025-04-04T13:13:01.000Z</time>
      </trkpt>
      <trkpt lat="37.080027" lon="-79.609837">
        <ele>248.487182</ele>
        <time>2025-04-04T13:13:03.000Z</time>
      </trkpt>
      <trkpt lat="37.080061" lon="-79.610269">
        <ele>247.082732</ele>
        <time>2025-04-04T13:13:07.000Z</time>
      </trkpt>
      <trkpt lat="37.080017" lon="-79.610431">
        <ele>247.025923</ele>
        <time>2025-04-04T13:13:09.000Z</time>
      </trkpt>
      <trkpt lat="37.079989" lon="-79.610504">
        <ele>246.999477</ele>
        <time>2025-04-04T13:13:10.000Z</time>
      </trkpt>
      <trkpt lat="37.079726" lon="-79.610761">
        <ele>246.868131</ele>
        <time>2025-04-04T13:13:14.000Z</time>
      </trkpt>
      <trkpt lat="37.07964" lon="-79.610904">
        <ele>246.814847</ele>
        <time>2025-04-04T13:13:16.000Z</time>
      </trkpt>
      <trkpt lat="37.079537" lon="-79.611196">
        <ele>246.710817</ele>
        <time>2025-04-04T13:13:19.000Z</time>
      </trkpt>
      <trkpt lat="37.079457" lon="-79.611526">
        <ele>246.599273</ele>
        <time>2025-04-04T13:13:22.000Z</time>
      </trkpt>
      <trkpt lat="37.079361" lon="-79.611691">
        <ele>246.536544</ele>
        <time>2025-04-04T13:13:24.000Z</time>
      </trkpt>
      <trkpt lat="37.079169" lon="-79.611854">
        <ele>246.445659</ele>
        <time>2025-04-04T13:13:27.000Z</time>
      </trkpt>
      <trkpt lat="37.078772" lon="-79.611994">
        <ele>246.664005</ele>
        <time>2025-04-04T13:13:32.000Z</time>
      </trkpt>
      <trkpt lat="37.078656" lon="-79.612065">
        <ele>246.858287</ele>
        <time>2025-04-04T13:13:33.000Z</time>
      </trkpt>
      <trkpt lat="37.078577" lon="-79.61215">
        <ele>247.013454</ele>
        <time>2025-04-04T13:13:34.000Z</time>
      </trkpt>
      <trkpt lat="37.078532" lon="-79.612262">
        <ele>247.167582</ele>
        <time>2025-04-04T13:13:35.000Z</time>
      </trkpt>
      <trkpt lat="37.078486" lon="-79.612426">
        <ele>247.396614</ele>
        <time>2025-04-04T13:13:37.000Z</time>
      </trkpt>
      <trkpt lat="37.078478" lon="-79.612624">
        <ele>247.626742</ele>
        <time>2025-04-04T13:13:39.000Z</time>
      </trkpt>
      <trkpt lat="37.078585" lon="-79.613033">
        <ele>248.130411</ele>
        <time>2025-04-04T13:13:43.000Z</time>
      </trkpt>
      <trkpt lat="37.078683" lon="-79.613368">
        <ele>248.559586</ele>
        <time>2025-04-04T13:13:46.000Z</time>
      </trkpt>
      <trkpt lat="37.078822" lon="-79.613718">
        <ele>249.018177</ele>
        <time>2025-04-04T13:13:49.000Z</time>
      </trkpt>
      <trkpt lat="37.07908" lon="-79.614124">
        <ele>249.206646</ele>
        <time>2025-04-04T13:13:54.000Z</time>
      </trkpt>
      <trkpt lat="37.079219" lon="-79.614466">
        <ele>249.329316</ele>
        <time>2025-04-04T13:13:57.000Z</time>
      </trkpt>
      <trkpt lat="37.079278" lon="-79.614831">
        <ele>249.450235</ele>
        <time>2025-04-04T13:14:00.000Z</time>
      </trkpt>
      <trkpt lat="37.079298" lon="-79.615067">
        <ele>249.529672</ele>
        <time>2025-04-04T13:14:02.000Z</time>
      </trkpt>
      <trkpt lat="37.079285" lon="-79.615248">
        <ele>249.583364</ele>
        <time>2025-04-04T13:14:04.000Z</time>
      </trkpt>
      <trkpt lat="37.079247" lon="-79.615401">
        <ele>249.636337</ele>
        <time>2025-04-04T13:14:05.000Z</time>
      </trkpt>
      <trkpt lat="37.07922" lon="-79.615452">
        <ele>249.656073</ele>
        <time>2025-04-04T13:14:06.000Z</time>
      </trkpt>
      <trkpt lat="37.079255" lon="-79.615399">
        <ele>249.675814</ele>
        <time>2025-04-04T13:14:07.000Z</time>
      </trkpt>
      <trkpt lat="37.079301" lon="-79.615232">
        <ele>249.728792</ele>
        <time>2025-04-04T13:14:09.000Z</time>
      </trkpt>
      <trkpt lat="37.079301" lon="-79.615079">
        <ele>249.752626</ele>
        <time>2025-04-04T13:14:10.000Z</time>
      </trkpt>
      <trkpt lat="37.079286" lon="-79.61483">
        <ele>249.583196</ele>
        <time>2025-04-04T13:14:12.000Z</time>
      </trkpt>
      <trkpt lat="37.07921" lon="-79.614448">
        <ele>249.325305</ele>
        <time>2025-04-04T13:14:15.000Z</time>
      </trkpt>
      <trkpt lat="37.079067" lon="-79.614118">
        <ele>249.063652</ele>
        <time>2025-04-04T13:14:18.000Z</time>
      </trkpt>
      <trkpt lat="37.078827" lon="-79.613711">
        <ele>248.715108</ele>
        <time>2025-04-04T13:14:22.000Z</time>
      </trkpt>
      <trkpt lat="37.078692" lon="-79.613359">
        <ele>248.452913</ele>
        <time>2025-04-04T13:14:25.000Z</time>
      </trkpt>
      <trkpt lat="37.078571" lon="-79.613038">
        <ele>248.19521</ele>
        <time>2025-04-04T13:14:28.000Z</time>
      </trkpt>
      <trkpt lat="37.078487" lon="-79.612621">
        <ele>247.782791</ele>
        <time>2025-04-04T13:14:32.000Z</time>
      </trkpt>
      <trkpt lat="37.078478" lon="-79.612432">
        <ele>247.594355</ele>
        <time>2025-04-04T13:14:34.000Z</time>
      </trkpt>
      <trkpt lat="37.078532" lon="-79.61226">
        <ele>247.40681</ele>
        <time>2025-04-04T13:14:36.000Z</time>
      </trkpt>
      <trkpt lat="37.078587" lon="-79.612148">
        <ele>247.280623</ele>
        <time>2025-04-04T13:14:37.000Z</time>
      </trkpt>
      <trkpt lat="37.078668" lon="-79.612057">
        <ele>247.153554</ele>
        <time>2025-04-04T13:14:38.000Z</time>
      </trkpt>
      <trkpt lat="37.078785" lon="-79.611995">
        <ele>246.994475</ele>
        <time>2025-04-04T13:14:39.000Z</time>
      </trkpt>
      <trkpt lat="37.079173" lon="-79.611848">
        <ele>246.498148</ele>
        <time>2025-04-04T13:14:44.000Z</time>
      </trkpt>
      <trkpt lat="37.079367" lon="-79.611693">
        <ele>246.218019</ele>
        <time>2025-04-04T13:14:47.000Z</time>
      </trkpt>
      <trkpt lat="37.079458" lon="-79.61153">
        <ele>246.046848</ele>
        <time>2025-04-04T13:14:49.000Z</time>
      </trkpt>
      <trkpt lat="37.079544" lon="-79.611202">
        <ele>246.448912</ele>
        <time>2025-04-04T13:14:52.000Z</time>
      </trkpt>
      <trkpt lat="37.079643" lon="-79.610904">
        <ele>246.823835</ele>
        <time>2025-04-04T13:14:55.000Z</time>
      </trkpt>
      <trkpt lat="37.079734" lon="-79.610761">
        <ele>247.015917</ele>
        <time>2025-04-04T13:14:57.000Z</time>
      </trkpt>
      <trkpt lat="37.079994" lon="-79.610508">
        <ele>247.489324</ele>
        <time>2025-04-04T13:15:01.000Z</time>
      </trkpt>
      <trkpt lat="37.080026" lon="-79.610442">
        <ele>247.584621</ele>
        <time>2025-04-04T13:15:02.000Z</time>
      </trkpt>
      <trkpt lat="37.080048" lon="-79.610279">
        <ele>247.775636</ele>
        <time>2025-04-04T13:15:03.000Z</time>
      </trkpt>
      <trkpt lat="37.080029" lon="-79.609829">
        <ele>248.279012</ele>
        <time>2025-04-04T13:15:07.000Z</time>
      </trkpt>
      <trkpt lat="37.080028" lon="-79.60966">
        <ele>248.487317</ele>
        <time>2025-04-04T13:15:08.000Z</time>
      </trkpt>
      <trkpt lat="37.080103" lon="-79.609431">
        <ele>249.055086</ele>
        <time>2025-04-04T13:15:10.000Z</time>
      </trkpt>
      <trkpt lat="37.080145" lon="-79.609352">
        <ele>249.481983</ele>
        <time>2025-04-04T13:15:11.000Z</time>
      </trkpt>
      <trkpt lat="37.080359" lon="-79.609072">
        <ele>250.869754</ele>
        <time>2025-04-04T13:15:14.000Z</time>
      </trkpt>
      <trkpt lat="37.080938" lon="-79.608519">
        <ele>254.241279</ele>
        <time>2025-04-04T13:15:22.000Z</time>
      </trkpt>
      <trkpt lat="37.081302" lon="-79.608209">
        <ele>256.314641</ele>
        <time>2025-04-04T13:15:27.000Z</time>
      </trkpt>
      <trkpt lat="37.081569" lon="-79.608031">
        <ele>257.104577</ele>
        <time>2025-04-04T13:15:30.000Z</time>
      </trkpt>
      <trkpt lat="37.08215" lon="-79.607807">
        <ele>257.621483</ele>
        <time>2025-04-04T13:15:37.000Z</time>
      </trkpt>
      <trkpt lat="37.082444" lon="-79.607636">
        <ele>257.908452</ele>
        <time>2025-04-04T13:15:41.000Z</time>
      </trkpt>
      <trkpt lat="37.082605" lon="-79.607468">
        <ele>258.092469</ele>
        <time>2025-04-04T13:15:43.000Z</time>
      </trkpt>
      <trkpt lat="37.082816" lon="-79.607143">
        <ele>258.381309</ele>
        <time>2025-04-04T13:15:47.000Z</time>
      </trkpt>
      <trkpt lat="37.082876" lon="-79.606955">
        <ele>258.52312</ele>
        <time>2025-04-04T13:15:49.000Z</time>
      </trkpt>
      <trkpt lat="37.082958" lon="-79.606615">
        <ele>258.620541</ele>
        <time>2025-04-04T13:15:52.000Z</time>
      </trkpt>
      <trkpt lat="37.083114" lon="-79.604699">
        <ele>259.146662</ele>
        <time>2025-04-04T13:16:09.000Z</time>
      </trkpt>
      <trkpt lat="37.083193" lon="-79.604424">
        <ele>259.211058</ele>
        <time>2025-04-04T13:16:12.000Z</time>
      </trkpt>
      <trkpt lat="37.08338" lon="-79.604109">
        <ele>259.295096</ele>
        <time>2025-04-04T13:16:15.000Z</time>
      </trkpt>
      <trkpt lat="37.083601" lon="-79.603823">
        <ele>259.385773</ele>
        <time>2025-04-04T13:16:19.000Z</time>
      </trkpt>
      <trkpt lat="37.083917" lon="-79.603635">
        <ele>259.479884</ele>
        <time>2025-04-04T13:16:23.000Z</time>
      </trkpt>
      <trkpt lat="37.085183" lon="-79.603173">
        <ele>259.568608</ele>
        <time>2025-04-04T13:16:38.000Z</time>
      </trkpt>
      <trkpt lat="37.08544" lon="-79.602964">
        <ele>259.543056</ele>
        <time>2025-04-04T13:16:41.000Z</time>
      </trkpt>
      <trkpt lat="37.085668" lon="-79.60272">
        <ele>259.516807</ele>
        <time>2025-04-04T13:16:44.000Z</time>
      </trkpt>
      <trkpt lat="37.085837" lon="-79.602456">
        <ele>259.494058</ele>
        <time>2025-04-04T13:16:47.000Z</time>
      </trkpt>
      <trkpt lat="37.086004" lon="-79.602019">
        <ele>259.853021</ele>
        <time>2025-04-04T13:16:51.000Z</time>
      </trkpt>
      <trkpt lat="37.086767" lon="-79.599717">
        <ele>263.244352</ele>
        <time>2025-04-04T13:17:13.000Z</time>
      </trkpt>
      <trkpt lat="37.086897" lon="-79.599374">
        <ele>263.828863</ele>
        <time>2025-04-04T13:17:16.000Z</time>
      </trkpt>
      <trkpt lat="37.086972" lon="-79.599264">
        <ele>264.041921</ele>
        <time>2025-04-04T13:17:17.000Z</time>
      </trkpt>
      <trkpt lat="37.087303" lon="-79.598923">
        <ele>264.830706</ele>
        <time>2025-04-04T13:17:22.000Z</time>
      </trkpt>
      <trkpt lat="37.087777" lon="-79.598593">
        <ele>265.85976</ele>
        <time>2025-04-04T13:17:28.000Z</time>
      </trkpt>
      <trkpt lat="37.088263" lon="-79.598219">
        <ele>268.076726</ele>
        <time>2025-04-04T13:17:34.000Z</time>
      </trkpt>
      <trkpt lat="37.088603" lon="-79.597879">
        <ele>269.656088</ele>
        <time>2025-04-04T13:17:39.000Z</time>
      </trkpt>
      <trkpt lat="37.089136" lon="-79.597129">
        <ele>272.698019</ele>
        <time>2025-04-04T13:17:48.000Z</time>
      </trkpt>
      <trkpt lat="37.089556" lon="-79.596374">
        <ele>274.646652</ele>
        <time>2025-04-04T13:17:56.000Z</time>
      </trkpt>
      <trkpt lat="37.089746" lon="-79.596071">
        <ele>275.43818</ele>
        <time>2025-04-04T13:17:59.000Z</time>
      </trkpt>
      <trkpt lat="37.089817" lon="-79.59592">
        <ele>275.795589</ele>
        <time>2025-04-04T13:18:01.000Z</time>
      </trkpt>
      <trkpt lat="37.090179" lon="-79.595305">
        <ele>277.390053</ele>
        <time>2025-04-04T13:18:08.000Z</time>
      </trkpt>
      <trkpt lat="37.091097" lon="-79.593634">
        <ele>277.626451</ele>
        <time>2025-04-04T13:18:26.000Z</time>
      </trkpt>
      <trkpt lat="37.091416" lon="-79.593154">
        <ele>277.12581</ele>
        <time>2025-04-04T13:18:32.000Z</time>
      </trkpt>
      <trkpt lat="37.091522" lon="-79.593435">
        <ele>276.711378</ele>
        <time>2025-04-04T13:18:35.000Z</time>
      </trkpt>
      <trkpt lat="37.092182" lon="-79.595281">
        <ele>273.878339</ele>
        <time>2025-04-04T13:18:53.000Z</time>
      </trkpt>
      <trkpt lat="37.093366" lon="-79.598664">
        <ele>266.755759</ele>
        <time>2025-04-04T13:19:26.000Z</time>
      </trkpt>
      <trkpt lat="37.093988" lon="-79.600375">
        <ele>261.48963</ele>
        <time>2025-04-04T13:19:43.000Z</time>
      </trkpt>
      <trkpt lat="37.094089" lon="-79.600674">
        <ele>260.574389</ele>
        <time>2025-04-04T13:19:46.000Z</time>
      </trkpt>
      <trkpt lat="37.094393" lon="-79.60148">
        <ele>258.759762</ele>
        <time>2025-04-04T13:19:54.000Z</time>
      </trkpt>
      <trkpt lat="37.094621" lon="-79.601902">
        <ele>258.069667</ele>
        <time>2025-04-04T13:19:59.000Z</time>
      </trkpt>
      <trkpt lat="37.094933" lon="-79.602215">
        <ele>257.371632</ele>
        <time>2025-04-04T13:20:03.000Z</time>
      </trkpt>
      <trkpt lat="37.095871" lon="-79.602935">
        <ele>255.449074</ele>
        <time>2025-04-04T13:20:15.000Z</time>
      </trkpt>
      <trkpt lat="37.096065" lon="-79.603122">
        <ele>255.024782</ele>
        <time>2025-04-04T13:20:18.000Z</time>
      </trkpt>
      <trkpt lat="37.09697" lon="-79.604264">
        <ele>252.934703</ele>
        <time>2025-04-04T13:20:32.000Z</time>
      </trkpt>
      <trkpt lat="37.097072" lon="-79.604433">
        <ele>252.705002</ele>
        <time>2025-04-04T13:20:34.000Z</time>
      </trkpt>
      <trkpt lat="37.097221" lon="-79.60477">
        <ele>252.310557</ele>
        <time>2025-04-04T13:20:37.000Z</time>
      </trkpt>
      <trkpt lat="37.097307" lon="-79.605119">
        <ele>251.956657</ele>
        <time>2025-04-04T13:20:40.000Z</time>
      </trkpt>
      <trkpt lat="37.097346" lon="-79.605477">
        <ele>251.582111</ele>
        <time>2025-04-04T13:20:43.000Z</time>
      </trkpt>
      <trkpt lat="37.097213" lon="-79.607926">
        <ele>252.216623</ele>
        <time>2025-04-04T13:21:05.000Z</time>
      </trkpt>
      <trkpt lat="37.097101" lon="-79.608389">
        <ele>252.551757</ele>
        <time>2025-04-04T13:21:09.000Z</time>
      </trkpt>
      <trkpt lat="37.097024" lon="-79.608622">
        <ele>252.738727</ele>
        <time>2025-04-04T13:21:11.000Z</time>
      </trkpt>
      <trkpt lat="37.096869" lon="-79.608857">
        <ele>252.967709</ele>
        <time>2025-04-04T13:21:14.000Z</time>
      </trkpt>
      <trkpt lat="37.096706" lon="-79.609">
        <ele>253.154289</ele>
        <time>2025-04-04T13:21:16.000Z</time>
      </trkpt>
      <trkpt lat="37.09668" lon="-79.609038">
        <ele>253.190923</ele>
        <time>2025-04-04T13:21:16.000Z</time>
      </trkpt>
      <trkpt lat="37.096412" lon="-79.609222">
        <ele>253.467885</ele>
        <time>2025-04-04T13:21:19.000Z</time>
      </trkpt>
      <trkpt lat="37.096152" lon="-79.609395">
        <ele>253.751989</ele>
        <time>2025-04-04T13:21:22.000Z</time>
      </trkpt>
      <trkpt lat="37.096006" lon="-79.609498">
        <ele>253.8989</ele>
        <time>2025-04-04T13:21:24.000Z</time>
      </trkpt>
      <trkpt lat="37.095784" lon="-79.609872">
        <ele>254.173214</ele>
        <time>2025-04-04T13:21:28.000Z</time>
      </trkpt>
      <trkpt lat="37.095737" lon="-79.609933">
        <ele>254.173204</ele>
        <time>2025-04-04T13:21:29.000Z</time>
      </trkpt>
      <trkpt lat="37.095669" lon="-79.609947">
        <ele>254.173219</ele>
        <time>2025-04-04T13:21:30.000Z</time>
      </trkpt>
      <trkpt lat="37.095635" lon="-79.610057">
        <ele>254.173218</ele>
        <time>2025-04-04T13:21:31.000Z</time>
      </trkpt>
      <trkpt lat="37.095593" lon="-79.610093">
        <ele>254.173218</ele>
        <time>2025-04-04T13:21:32.000Z</time>
      </trkpt>
      <trkpt lat="37.095091" lon="-79.610375">
        <ele>254.17321</ele>
        <time>2025-04-04T13:21:38.000Z</time>
      </trkpt>
      <trkpt lat="37.095075" lon="-79.610385">
        <ele>254.173216</ele>
        <time>2025-04-04T13:21:38.000Z</time>
      </trkpt>
      <trkpt lat="37.095042" lon="-79.61038">
        <ele>254.173213</ele>
        <time>2025-04-04T13:21:38.000Z</time>
      </trkpt>
      <trkpt lat="37.094966" lon="-79.610334">
        <ele>254.17322</ele>
        <time>2025-04-04T13:21:39.000Z</time>
      </trkpt>
      <trkpt lat="37.094921" lon="-79.610195">
        <ele>254.173205</ele>
        <time>2025-04-04T13:21:40.000Z</time>
      </trkpt>
      <trkpt lat="37.095442" lon="-79.609869">
        <ele>254.173207</ele>
        <time>2025-04-04T13:21:46.000Z</time>
      </trkpt>
      <trkpt lat="37.095495" lon="-79.609845">
        <ele>253.764456</ele>
        <time>2025-04-04T13:21:47.000Z</time>
      </trkpt>
      <trkpt lat="37.095515" lon="-79.609828">
        <ele>253.764453</ele>
        <time>2025-04-04T13:21:47.000Z</time>
      </trkpt>
      <trkpt lat="37.095603" lon="-79.609827">
        <ele>253.764446</ele>
        <time>2025-04-04T13:21:48.000Z</time>
      </trkpt>
      <trkpt lat="37.095604" lon="-79.60977">
        <ele>253.764454</ele>
        <time>2025-04-04T13:21:49.000Z</time>
      </trkpt>
      <trkpt lat="37.095683" lon="-79.609691">
        <ele>253.764446</ele>
        <time>2025-04-04T13:21:50.000Z</time>
      </trkpt>
      <trkpt lat="37.096013" lon="-79.609494">
        <ele>253.764452</ele>
        <time>2025-04-04T13:21:54.000Z</time>
      </trkpt>
      <trkpt lat="37.096143" lon="-79.60941">
        <ele>253.764449</ele>
        <time>2025-04-04T13:21:56.000Z</time>
      </trkpt>
      <trkpt lat="37.09641" lon="-79.609221">
        <ele>253.577007</ele>
        <time>2025-04-04T13:21:59.000Z</time>
      </trkpt>
      <trkpt lat="37.09668" lon="-79.609035">
        <ele>253.258514</ele>
        <time>2025-04-04T13:22:02.000Z</time>
      </trkpt>
      <trkpt lat="37.09671" lon="-79.60901">
        <ele>253.216385</ele>
        <time>2025-04-04T13:22:02.000Z</time>
      </trkpt>
      <trkpt lat="37.096861" lon="-79.60885">
        <ele>253.001834</ele>
        <time>2025-04-04T13:22:04.000Z</time>
      </trkpt>
      <trkpt lat="37.097024" lon="-79.608625">
        <ele>252.738527</ele>
        <time>2025-04-04T13:22:07.000Z</time>
      </trkpt>
      <trkpt lat="37.097105" lon="-79.608386">
        <ele>252.523538</ele>
        <time>2025-04-04T13:22:09.000Z</time>
      </trkpt>
      <trkpt lat="37.097218" lon="-79.607924">
        <ele>252.109435</ele>
        <time>2025-04-04T13:22:13.000Z</time>
      </trkpt>
      <trkpt lat="37.097339" lon="-79.605473">
        <ele>251.212163</ele>
        <time>2025-04-04T13:22:35.000Z</time>
      </trkpt>
      <trkpt lat="37.097304" lon="-79.605109">
        <ele>251.532126</ele>
        <time>2025-04-04T13:22:38.000Z</time>
      </trkpt>
      <trkpt lat="37.097227" lon="-79.604781">
        <ele>252.028111</ele>
        <time>2025-04-04T13:22:41.000Z</time>
      </trkpt>
      <trkpt lat="37.097066" lon="-79.604442">
        <ele>252.580937</ele>
        <time>2025-04-04T13:22:44.000Z</time>
      </trkpt>
      <trkpt lat="37.096962" lon="-79.604263">
        <ele>252.902872</ele>
        <time>2025-04-04T13:22:46.000Z</time>
      </trkpt>
      <trkpt lat="37.096059" lon="-79.603124">
        <ele>255.079639</ele>
        <time>2025-04-04T13:23:00.000Z</time>
      </trkpt>
      <trkpt lat="37.095886" lon="-79.602935">
        <ele>255.472654</ele>
        <time>2025-04-04T13:23:03.000Z</time>
      </trkpt>
      <trkpt lat="37.094929" lon="-79.602206">
        <ele>257.255533</ele>
        <time>2025-04-04T13:23:15.000Z</time>
      </trkpt>
      <trkpt lat="37.09463" lon="-79.601899">
        <ele>258.144146</ele>
        <time>2025-04-04T13:23:19.000Z</time>
      </trkpt>
      <trkpt lat="37.094388" lon="-79.60148">
        <ele>259.025721</ele>
        <time>2025-04-04T13:23:24.000Z</time>
      </trkpt>
      <trkpt lat="37.094088" lon="-79.600673">
        <ele>260.614504</ele>
        <time>2025-04-04T13:23:32.000Z</time>
      </trkpt>
      <trkpt lat="37.093997" lon="-79.60039">
        <ele>261.168876</ele>
        <time>2025-04-04T13:23:35.000Z</time>
      </trkpt>
      <trkpt lat="37.093364" lon="-79.598668">
        <ele>266.773468</ele>
        <time>2025-04-04T13:23:52.000Z</time>
      </trkpt>
      <trkpt lat="37.092179" lon="-79.595271">
        <ele>273.865124</ele>
        <time>2025-04-04T13:24:25.000Z</time>
      </trkpt>
      <trkpt lat="37.091514" lon="-79.593434">
        <ele>276.617757</ele>
        <time>2025-04-04T13:24:43.000Z</time>
      </trkpt>
      <trkpt lat="37.091417" lon="-79.593151">
        <ele>276.889124</ele>
        <time>2025-04-04T13:24:46.000Z</time>
      </trkpt>
      <trkpt lat="37.091098" lon="-79.593643">
        <ele>277.430216</ele>
        <time>2025-04-04T13:24:52.000Z</time>
      </trkpt>
      <trkpt lat="37.090172" lon="-79.595297">
        <ele>276.958584</ele>
        <time>2025-04-04T13:25:10.000Z</time>
      </trkpt>
      <trkpt lat="37.089826" lon="-79.59593">
        <ele>276.432595</ele>
        <time>2025-04-04T13:25:17.000Z</time>
      </trkpt>
      <trkpt lat="37.089734" lon="-79.596071">
        <ele>275.954356</ele>
        <time>2025-04-04T13:25:19.000Z</time>
      </trkpt>
      <trkpt lat="37.089569" lon="-79.596378">
        <ele>274.895171</ele>
        <time>2025-04-04T13:25:22.000Z</time>
      </trkpt>
      <trkpt lat="37.089132" lon="-79.597128">
        <ele>272.28766</ele>
        <time>2025-04-04T13:25:30.000Z</time>
      </trkpt>
      <trkpt lat="37.088589" lon="-79.59788">
        <ele>269.551821</ele>
        <time>2025-04-04T13:25:39.000Z</time>
      </trkpt>
      <trkpt lat="37.08827" lon="-79.598222">
        <ele>268.24192</ele>
        <time>2025-04-04T13:25:44.000Z</time>
      </trkpt>
      <trkpt lat="37.087769" lon="-79.598602">
        <ele>266.390521</ele>
        <time>2025-04-04T13:25:51.000Z</time>
      </trkpt>
      <trkpt lat="37.087296" lon="-79.598925">
        <ele>264.686858</ele>
        <time>2025-04-04T13:25:57.000Z</time>
      </trkpt>
      <trkpt lat="37.086963" lon="-79.599258">
        <ele>263.894035</ele>
        <time>2025-04-04T13:26:02.000Z</time>
      </trkpt>
      <trkpt lat="37.0869" lon="-79.599376">
        <ele>263.691875</ele>
        <time>2025-04-04T13:26:03.000Z</time>
      </trkpt>
      <trkpt lat="37.086767" lon="-79.599706">
        <ele>263.137285</ele>
        <time>2025-04-04T13:26:06.000Z</time>
      </trkpt>
      <trkpt lat="37.086006" lon="-79.602023">
        <ele>260.16584</ele>
        <time>2025-04-04T13:26:28.000Z</time>
      </trkpt>
      <trkpt lat="37.085835" lon="-79.602453">
        <ele>259.700796</ele>
        <time>2025-04-04T13:26:32.000Z</time>
      </trkpt>
      <trkpt lat="37.085662" lon="-79.602719">
        <ele>259.385277</ele>
        <time>2025-04-04T13:26:35.000Z</time>
      </trkpt>
      <trkpt lat="37.085435" lon="-79.602974">
        <ele>259.251183</ele>
        <time>2025-04-04T13:26:38.000Z</time>
      </trkpt>
      <trkpt lat="37.085187" lon="-79.603169">
        <ele>259.344364</ele>
        <time>2025-04-04T13:26:41.000Z</time>
      </trkpt>
      <trkpt lat="37.083922" lon="-79.603644">
        <ele>259.759091</ele>
        <time>2025-04-04T13:26:56.000Z</time>
      </trkpt>
      <trkpt lat="37.083606" lon="-79.603831">
        <ele>259.564757</ele>
        <time>2025-04-04T13:27:00.000Z</time>
      </trkpt>
      <trkpt lat="37.083366" lon="-79.604114">
        <ele>259.357184</ele>
        <time>2025-04-04T13:27:04.000Z</time>
      </trkpt>
      <trkpt lat="37.083188" lon="-79.604432">
        <ele>259.164788</ele>
        <time>2025-04-04T13:27:07.000Z</time>
      </trkpt>
      <trkpt lat="37.083105" lon="-79.604703">
        <ele>259.01736</ele>
        <time>2025-04-04T13:27:10.000Z</time>
      </trkpt>
      <trkpt lat="37.082964" lon="-79.606607">
        <ele>258.729042</ele>
        <time>2025-04-04T13:27:27.000Z</time>
      </trkpt>
      <trkpt lat="37.082883" lon="-79.606949">
        <ele>258.75828</ele>
        <time>2025-04-04T13:27:30.000Z</time>
      </trkpt>
      <trkpt lat="37.08281" lon="-79.607147">
        <ele>258.775846</ele>
        <time>2025-04-04T13:27:32.000Z</time>
      </trkpt>
      <trkpt lat="37.082618" lon="-79.607475">
        <ele>258.810189</ele>
        <time>2025-04-04T13:27:36.000Z</time>
      </trkpt>
      <trkpt lat="37.082438" lon="-79.607632">
        <ele>258.519664</ele>
        <time>2025-04-04T13:27:38.000Z</time>
      </trkpt>
      <trkpt lat="37.082142" lon="-79.607812">
        <ele>257.683874</ele>
        <time>2025-04-04T13:27:42.000Z</time>
      </trkpt>
      <trkpt lat="37.081579" lon="-79.608016">
        <ele>256.178351</ele>
        <time>2025-04-04T13:27:49.000Z</time>
      </trkpt>
      <trkpt lat="37.081296" lon="-79.608199">
        <ele>255.390744</ele>
        <time>2025-04-04T13:27:53.000Z</time>
      </trkpt>
      <trkpt lat="37.080935" lon="-79.608516">
        <ele>254.256332</ele>
        <time>2025-04-04T13:27:58.000Z</time>
      </trkpt>
      <trkpt lat="37.080361" lon="-79.609081">
        <ele>251.354343</ele>
        <time>2025-04-04T13:28:06.000Z</time>
      </trkpt>
      <trkpt lat="37.080148" lon="-79.609349">
        <ele>250.159835</ele>
        <time>2025-04-04T13:28:09.000Z</time>
      </trkpt>
      <trkpt lat="37.080102" lon="-79.609436">
        <ele>249.792387</ele>
        <time>2025-04-04T13:28:10.000Z</time>
      </trkpt>
      <trkpt lat="37.080039" lon="-79.609652">
        <ele>249.068384</ele>
        <time>2025-04-04T13:28:12.000Z</time>
      </trkpt>
      <trkpt lat="37.080023" lon="-79.609827">
        <ele>248.487184</ele>
        <time>2025-04-04T13:28:14.000Z</time>
      </trkpt>
      <trkpt lat="37.080065" lon="-79.610274">
        <ele>247.082742</ele>
        <time>2025-04-04T13:28:18.000Z</time>
      </trkpt>
      <trkpt lat="37.080029" lon="-79.61044">
        <ele>247.025912</ele>
        <time>2025-04-04T13:28:20.000Z</time>
      </trkpt>
      <trkpt lat="37.079985" lon="-79.610506">
        <ele>246.999479</ele>
        <time>2025-04-04T13:28:21.000Z</time>
      </trkpt>
      <trkpt lat="37.079742" lon="-79.610768">
        <ele>246.868137</ele>
        <time>2025-04-04T13:28:25.000Z</time>
      </trkpt>
      <trkpt lat="37.079641" lon="-79.610893">
        <ele>246.814832</ele>
        <time>2025-04-04T13:28:27.000Z</time>
      </trkpt>
      <trkpt lat="37.079532" lon="-79.611201">
        <ele>246.71081</ele>
        <time>2025-04-04T13:28:30.000Z</time>
      </trkpt>
      <trkpt lat="37.079454" lon="-79.611524">
        <ele>246.599262</ele>
        <time>2025-04-04T13:28:33.000Z</time>
      </trkpt>
      <trkpt lat="37.07936" lon="-79.611695">
        <ele>246.536548</ele>
        <time>2025-04-04T13:28:35.000Z</time>
      </trkpt>
      <trkpt lat="37.079172" lon="-79.61186">
        <ele>246.445664</ele>
        <time>2025-04-04T13:28:38.000Z</time>
      </trkpt>
      <trkpt lat="37.078773" lon="-79.611989">
        <ele>246.664007</ele>
        <time>2025-04-04T13:28:43.000Z</time>
      </trkpt>
      <trkpt lat="37.078666" lon="-79.612063">
        <ele>246.858294</ele>
        <time>2025-04-04T13:28:44.000Z</time>
      </trkpt>
      <trkpt lat="37.078592" lon="-79.612151">
        <ele>247.013458</ele>
        <time>2025-04-04T13:28:45.000Z</time>
      </trkpt>
      <trkpt lat="37.078519" lon="-79.612255">
        <ele>247.167582</ele>
        <time>2025-04-04T13:28:46.000Z</time>
      </trkpt>
      <trkpt lat="37.07847" lon="-79.61243">
        <ele>247.3966</ele>
        <time>2025-04-04T13:28:48.000Z</time>
      </trkpt>
      <trkpt lat="37.078485" lon="-79.612624">
        <ele>247.626725</ele>
        <time>2025-04-04T13:28:50.000Z</time>
      </trkpt>
      <trkpt lat="37.078587" lon="-79.613035">
        <ele>248.13041</ele>
        <time>2025-04-04T13:28:54.000Z</time>
      </trkpt>
      <trkpt lat="37.07869" lon="-79.613356">
        <ele>248.559589</ele>
        <time>2025-04-04T13:28:57.000Z</time>
      </trkpt>
      <trkpt lat="37.078822" lon="-79.613706">
        <ele>249.018182</ele>
        <time>2025-04-04T13:29:00.000Z</time>
      </trkpt>
      <trkpt lat="37.079065" lon="-79.614107">
        <ele>249.206661</ele>
        <time>2025-04-04T13:29:04.000Z</time>
      </trkpt>
      <trkpt lat="37.079219" lon="-79.61445">
        <ele>249.329328</ele>
        <time>2025-04-04T13:29:07.000Z</time>
      </trkpt>
      <trkpt lat="37.079278" lon="-79.614827">
        <ele>249.450239</ele>
        <time>2025-04-04T13:29:10.000Z</time>
      </trkpt>
      <trkpt lat="37.079284" lon="-79.615066">
        <ele>249.529677</ele>
        <time>2025-04-04T13:29:12.000Z</time>
      </trkpt>
      <trkpt lat="37.079298" lon="-79.615247">
        <ele>249.583357</ele>
        <time>2025-04-04T13:29:14.000Z</time>
      </trkpt>
      <trkpt lat="37.079246" lon="-79.615405">
        <ele>249.636344</ele>
        <time>2025-04-04T13:29:16.000Z</time>
      </trkpt>
      <trkpt lat="37.079216" lon="-79.615447">
        <ele>249.656082</ele>
        <time>2025-04-04T13:29:17.000Z</time>
      </trkpt>
      <trkpt lat="37.07925" lon="-79.615396">
        <ele>249.675823</ele>
        <time>2025-04-04T13:29:18.000Z</time>
      </trkpt>
      <trkpt lat="37.0793" lon="-79.61525">
        <ele>249.728797</ele>
        <time>2025-04-04T13:29:19.000Z</time>
      </trkpt>
      <trkpt lat="37.079291" lon="-79.615073">
        <ele>249.752631</ele>
        <time>2025-04-04T13:29:21.000Z</time>
      </trkpt>
      <trkpt lat="37.079277" lon="-79.614826">
        <ele>249.583203</ele>
        <time>2025-04-04T13:29:23.000Z</time>
      </trkpt>
      <trkpt lat="37.079202" lon="-79.614451">
        <ele>249.325313</ele>
        <time>2025-04-04T13:29:26.000Z</time>
      </trkpt>
      <trkpt lat="37.079068" lon="-79.614111">
        <ele>249.063668</ele>
        <time>2025-04-04T13:29:29.000Z</time>
      </trkpt>
      <trkpt lat="37.078828" lon="-79.613712">
        <ele>248.715106</ele>
        <time>2025-04-04T13:29:33.000Z</time>
      </trkpt>
      <trkpt lat="37.078691" lon="-79.61337">
        <ele>248.452912</ele>
        <time>2025-04-04T13:29:36.000Z</time>
      </trkpt>
      <trkpt lat="37.078579" lon="-79.613035">
        <ele>248.195209</ele>
        <time>2025-04-04T13:29:39.000Z</time>
      </trkpt>
      <trkpt lat="37.078484" lon="-79.612636">
        <ele>247.782787</ele>
        <time>2025-04-04T13:29:43.000Z</time>
      </trkpt>
      <trkpt lat="37.078469" lon="-79.612441">
        <ele>247.594351</ele>
        <time>2025-04-04T13:29:45.000Z</time>
      </trkpt>
      <trkpt lat="37.078519" lon="-79.612252">
        <ele>247.40681</ele>
        <time>2025-04-04T13:29:47.000Z</time>
      </trkpt>
      <trkpt lat="37.078584" lon="-79.612155">
        <ele>247.280614</ele>
        <time>2025-04-04T13:29:48.000Z</time>
      </trkpt>
      <trkpt lat="37.07866" lon="-79.612053">
        <ele>247.153546</ele>
        <time>2025-04-04T13:29:49.000Z</time>
      </trkpt>
      <trkpt lat="37.078784" lon="-79.611978">
        <ele>246.994471</ele>
        <time>2025-04-04T13:29:51.000Z</time>
      </trkpt>
      <trkpt lat="37.079171" lon="-79.611847">
        <ele>246.498139</ele>
        <time>2025-04-04T13:29:55.000Z</time>
      </trkpt>
      <trkpt lat="37.079362" lon="-79.61169">
        <ele>246.218022</ele>
        <time>2025-04-04T13:29:58.000Z</time>
      </trkpt>
      <trkpt lat="37.07946" lon="-79.611526">
        <ele>246.046851</ele>
        <time>2025-04-04T13:30:00.000Z</time>
      </trkpt>
      <trkpt lat="37.079541" lon="-79.611188">
        <ele>246.44891</ele>
        <time>2025-04-04T13:30:03.000Z</time>
      </trkpt>
      <trkpt lat="37.079637" lon="-79.610903">
        <ele>246.823835</ele>
        <time>2025-04-04T13:30:06.000Z</time>
      </trkpt>
      <trkpt lat="37.079737" lon="-79.610763">
        <ele>247.015906</ele>
        <time>2025-04-04T13:30:08.000Z</time>
      </trkpt>
      <trkpt lat="37.079993" lon="-79.6105">
        <ele>247.48933</ele>
        <time>2025-04-04T13:30:12.000Z</time>
      </trkpt>
      <trkpt lat="37.080028" lon="-79.610436">
        <ele>247.584621</ele>
        <time>2025-04-04T13:30:13.000Z</time>
      </trkpt>
      <trkpt lat="37.080055" lon="-79.610269">
        <ele>247.775648</ele>
        <time>2025-04-04T13:30:15.000Z</time>
      </trkpt>
      <trkpt lat="37.080016" lon="-79.609828">
        <ele>248.279005</ele>
        <time>2025-04-04T13:30:19.000Z</time>
      </trkpt>
      <trkpt lat="37.080025" lon="-79.609655">
        <ele>248.487312</ele>
        <time>2025-04-04T13:30:21.000Z</time>
      </trkpt>
      <trkpt lat="37.080099" lon="-79.609436">
        <ele>249.055085</ele>
        <time>2025-04-04T13:30:23.000Z</time>
      </trkpt>
      <trkpt lat="37.080151" lon="-79.609337">
        <ele>249.48198</ele>
        <time>2025-04-04T13:30:24.000Z</time>
      </trkpt>
      <trkpt lat="37.080347" lon="-79.609079">
        <ele>250.869758</ele>
        <time>2025-04-04T13:30:27.000Z</time>
      </trkpt>
      <trkpt lat="37.080922" lon="-79.608514">
        <ele>254.241262</ele>
        <time>2025-04-04T13:30:35.000Z</time>
      </trkpt>
      <trkpt lat="37.081298" lon="-79.608207">
        <ele>256.314648</ele>
        <time>2025-04-04T13:30:40.000Z</time>
      </trkpt>
      <trkpt lat="37.081578" lon="-79.608026">
        <ele>257.104564</ele>
        <time>2025-04-04T13:30:44.000Z</time>
      </trkpt>
      <trkpt lat="37.08215" lon="-79.607808">
        <ele>257.621481</ele>
        <time>2025-04-04T13:30:51.000Z</time>
      </trkpt>
      <trkpt lat="37.08244" lon="-79.607633">
        <ele>257.908437</ele>
        <time>2025-04-04T13:30:55.000Z</time>
      </trkpt>
      <trkpt lat="37.082621" lon="-79.607479">
        <ele>258.092476</ele>
        <time>2025-04-04T13:30:57.000Z</time>
      </trkpt>
      <trkpt lat="37.082803" lon="-79.607148">
        <ele>258.381305</ele>
        <time>2025-04-04T13:31:01.000Z</time>
      </trkpt>
      <trkpt lat="37.08289" lon="-79.606953">
        <ele>258.523121</ele>
        <time>2025-04-04T13:31:03.000Z</time>
      </trkpt>
      <trkpt lat="37.08296" lon="-79.606615">
        <ele>258.620541</ele>
        <time>2025-04-04T13:31:06.000Z</time>
      </trkpt>
      <trkpt lat="37.083115" lon="-79.604692">
        <ele>259.146654</ele>
        <time>2025-04-04T13:31:23.000Z</time>
      </trkpt>
      <trkpt lat="37.083198" lon="-79.604433">
        <ele>259.211059</ele>
        <time>2025-04-04T13:31:25.000Z</time>
      </trkpt>
      <trkpt lat="37.083364" lon="-79.604118">
        <ele>259.295094</ele>
        <time>2025-04-04T13:31:28.000Z</time>
      </trkpt>
      <trkpt lat="37.083606" lon="-79.603826">
        <ele>259.385779</ele>
        <time>2025-04-04T13:31:32.000Z</time>
      </trkpt>
      <trkpt lat="37.083919" lon="-79.603627">
        <ele>259.479888</ele>
        <time>2025-04-04T13:31:36.000Z</time>
      </trkpt>
      <trkpt lat="37.085178" lon="-79.603165">
        <ele>259.568605</ele>
        <time>2025-04-04T13:31:51.000Z</time>
      </trkpt>
      <trkpt lat="37.085449" lon="-79.602965">
        <ele>259.543053</ele>
        <time>2025-04-04T13:31:54.000Z</time>
      </trkpt>
      <trkpt lat="37.085665" lon="-79.602716">
        <ele>259.516805</ele>
        <time>2025-04-04T13:31:57.000Z</time>
      </trkpt>
      <trkpt lat="37.085828" lon="-79.602441">
        <ele>259.49405</ele>
        <time>2025-04-04T13:32:00.000Z</time>
      </trkpt>
      <trkpt lat="37.086006" lon="-79.602016">
        <ele>259.853016</ele>
        <time>2025-04-04T13:32:04.000Z</time>
      </trkpt>
      <trkpt lat="37.086766" lon="-79.599707">
        <ele>263.244347</ele>
        <time>2025-04-04T13:32:26.000Z</time>
      </trkpt>
      <trkpt lat="37.086907" lon="-79.599377">
        <ele>263.828859</ele>
        <time>2025-04-04T13:32:29.000Z</time>
      </trkpt>
      <trkpt lat="37.086967" lon="-79.59925">
        <ele>264.041916</ele>
        <time>2025-04-04T13:32:30.000Z</time>
      </trkpt>
      <trkpt lat="37.087291" lon="-79.598927">
        <ele>264.830711</ele>
        <time>2025-04-04T13:32:35.000Z</time>
      </trkpt>
      <trkpt lat="37.087761" lon="-79.598611">
        <ele>265.859763</ele>
        <time>2025-04-04T13:32:41.000Z</time>
      </trkpt>
      <trkpt lat="37.088265" lon="-79.598211">
        <ele>268.076714</ele>
        <time>2025-04-04T13:32:48.000Z</time>
      </trkpt>
      <trkpt lat="37.088601" lon="-79.597882">
        <ele>269.656084</ele>
        <time>2025-04-04T13:32:53.000Z</time>
      </trkpt>
      <trkpt lat="37.089125" lon="-79.597122">
        <ele>272.698027</ele>
        <time>2025-04-04T13:33:02.000Z</time>
      </trkpt>
      <trkpt lat="37.089556" lon="-79.596364">
        <ele>274.646643</ele>
        <time>2025-04-04T13:33:10.000Z</time>
      </trkpt>
      <trkpt lat="37.08975" lon="-79.59607">
        <ele>275.438194</ele>
        <time>2025-04-04T13:33:13.000Z</time>
      </trkpt>
      <trkpt lat="37.089813" lon="-79.595932">
        <ele>275.795583</ele>
        <time>2025-04-04T13:33:14.000Z</time>
      </trkpt>
      <trkpt lat="37.090172" lon="-79.595296">
        <ele>277.390054</ele>
        <time>2025-04-04T13:33:21.000Z</time>
      </trkpt>
      <trkpt lat="37.091093" lon="-79.593647">
        <ele>277.626458</ele>
        <time>2025-04-04T13:33:39.000Z</time>
      </trkpt>
      <trkpt lat="37.091408" lon="-79.593148">
        <ele>277.125807</ele>
        <time>2025-04-04T13:33:45.000Z</time>
      </trkpt>
      <trkpt lat="37.091513" lon="-79.593443">
        <ele>276.71137</ele>
        <time>2025-04-04T13:33:48.000Z</time>
      </trkpt>
      <trkpt lat="37.092189" lon="-79.595272">
        <ele>273.878343</ele>
        <time>2025-04-04T13:34:06.000Z</time>
      </trkpt>
      <trkpt lat="37.093357" lon="-79.598659">
        <ele>266.755754</ele>
        <time>2025-04-04T13:34:39.000Z</time>
      </trkpt>
      <trkpt lat="37.09399" lon="-79.600385">
        <ele>261.489643</ele>
        <time>2025-04-04T13:34:56.000Z</time>
      </trkpt>
      <trkpt lat="37.094099" lon="-79.600679">
        <ele>260.574382</ele>
        <time>2025-04-04T13:34:59.000Z</time>
      </trkpt>
      <trkpt lat="37.094382" lon="-79.60148">
        <ele>258.759774</ele>
        <time>2025-04-04T13:35:07.000Z</time>
      </trkpt>
      <trkpt lat="37.094619" lon="-79.601899">
        <ele>258.069677</ele>
        <time>2025-04-04T13:35:12.000Z</time>
      </trkpt>
      <trkpt lat="37.094942" lon="-79.602212">
        <ele>257.371628</ele>
        <time>2025-04-04T13:35:17.000Z</time>
      </trkpt>
      <trkpt lat="37.095876" lon="-79.602938">
        <ele>255.449087</ele>
        <time>2025-04-04T13:35:29.000Z</time>
      </trkpt>
      <trkpt lat="37.096065" lon="-79.603137">
        <ele>255.02477</ele>
        <time>2025-04-04T13:35:32.000Z</time>
      </trkpt>
      <trkpt lat="37.096957" lon="-79.604264">
        <ele>252.9347</ele>
        <time>2025-04-04T13:35:46.000Z</time>
      </trkpt>
      <trkpt lat="37.097079" lon="-79.60443">
        <ele>252.704997</ele>
        <time>2025-04-04T13:35:48.000Z</time>
      </trkpt>
      <trkpt lat="37.09723" lon="-79.604777">
        <ele>252.310555</ele>
        <time>2025-04-04T13:35:52.000Z</time>
      </trkpt>
      <trkpt lat="37.097316" lon="-79.605107">
        <ele>251.956663</ele>
        <time>2025-04-04T13:35:55.000Z</time>
      </trkpt>
      <trkpt lat="37.097341" lon="-79.605477">
        <ele>251.582118</ele>
        <time>2025-04-04T13:35:58.000Z</time>
      </trkpt>
      <trkpt lat="37.097216" lon="-79.60793">
        <ele>252.216631</ele>
        <time>2025-04-04T13:36:20.000Z</time>
      </trkpt>
      <trkpt lat="37.097119" lon="-79.608383">
        <ele>252.551753</ele>
        <time>2025-04-04T13:36:24.000Z</time>
      </trkpt>
      <trkpt lat="37.097021" lon="-79.608627">
        <ele>252.738732</ele>
        <time>2025-04-04T13:36:26.000Z</time>
      </trkpt>
      <trkpt lat="37.096865" lon="-79.608858">
        <ele>252.967709</ele>
        <time>2025-04-04T13:36:29.000Z</time>
      </trkpt>
      <trkpt lat="37.096712" lon="-79.609007">
        <ele>253.154278</ele>
        <time>2025-04-04T13:36:31.000Z</time>
      </trkpt>
      <trkpt lat="37.096671" lon="-79.609031">
        <ele>253.190915</ele>
        <time>2025-04-04T13:36:32.000Z</time>
      </trkpt>
      <trkpt lat="37.096419" lon="-79.609221">
        <ele>253.46789</ele>
        <time>2025-04-04T13:36:35.000Z</time>
      </trkpt>
      <trkpt lat="37.096152" lon="-79.609405">
        <ele>253.751992</ele>
        <time>2025-04-04T13:36:38.000Z</time>
      </trkpt>
      <trkpt lat="37.095996" lon="-79.609488">
        <ele>253.898898</ele>
        <time>2025-04-04T13:36:40.000Z</time>
      </trkpt>
      <trkpt lat="37.095793" lon="-79.609865">
        <ele>254.173213</ele>
        <time>2025-04-04T13:36:44.000Z</time>
      </trkpt>
      <trkpt lat="37.095734" lon="-79.60992">
        <ele>254.173218</ele>
        <time>2025-04-04T13:36:45.000Z</time>
      </trkpt>
      <trkpt lat="37.095671" lon="-79.609944">
        <ele>254.173219</ele>
        <time>2025-04-04T13:36:46.000Z</time>
      </trkpt>
      <trkpt lat="37.095633" lon="-79.610063">
        <ele>254.173221</ele>
        <time>2025-04-04T13:36:47.000Z</time>
      </trkpt>
      <trkpt lat="37.095588" lon="-79.610103">
        <ele>254.173212</ele>
        <time>2025-04-04T13:36:48.000Z</time>
      </trkpt>
      <trkpt lat="37.095086" lon="-79.610381">
        <ele>254.173216</ele>
        <time>2025-04-04T13:36:54.000Z</time>
      </trkpt>
      <trkpt lat="37.095071" lon="-79.610381">
        <ele>254.17322</ele>
        <time>2025-04-04T13:36:54.000Z</time>
      </trkpt>
      <trkpt lat="37.09503" lon="-79.610384">
        <ele>254.173221</ele>
        <time>2025-04-04T13:36:54.000Z</time>
      </trkpt>
      <trkpt lat="37.094979" lon="-79.610337">
        <ele>254.17322</ele>
        <time>2025-04-04T13:36:55.000Z</time>
      </trkpt>
      <trkpt lat="37.094918" lon="-79.610191">
        <ele>254.173216</ele>
        <time>2025-04-04T13:36:56.000Z</time>
      </trkpt>
      <trkpt lat="37.095446" lon="-79.609878">
        <ele>254.173203</ele>
        <time>2025-04-04T13:37:02.000Z</time>
      </trkpt>
      <trkpt lat="37.09549" lon="-79.609841">
        <ele>253.764444</ele>
        <time>2025-04-04T13:37:03.000Z</time>
      </trkpt>
      <trkpt lat="37.095524" lon="-79.609831">
        <ele>253.764445</ele>
        <time>2025-04-04T13:37:03.000Z</time>
      </trkpt>
      <trkpt lat="37.095604" lon="-79.609814">
        <ele>253.764456</ele>
        <time>2025-04-04T13:37:04.000Z</time>
      </trkpt>
      <trkpt lat="37.095609" lon="-79.609771">
        <ele>253.764444</ele>
        <time>2025-04-04T13:37:04.000Z</time>
      </trkpt>
      <trkpt lat="37.09569" lon="-79.609692">
        <ele>253.76444</ele>
        <time>2025-04-04T13:37:05.000Z</time>
      </trkpt>
      <trkpt lat="37.096006" lon="-79.609497">
        <ele>253.764454</ele>
        <time>2025-04-04T13:37:09.000Z</time>
      </trkpt>
      <trkpt lat="37.096154" lon="-79.609411">
        <ele>253.764441</ele>
        <time>2025-04-04T13:37:11.000Z</time>
      </trkpt>
      <trkpt lat="37.096413" lon="-79.609218">
        <ele>253.577015</ele>
        <time>2025-04-04T13:37:14.000Z</time>
      </trkpt>
      <trkpt lat="37.096676" lon="-79.609029">
        <ele>253.258507</ele>
        <time>2025-04-04T13:37:17.000Z</time>
      </trkpt>
      <trkpt lat="37.096712" lon="-79.609006">
        <ele>253.21638</ele>
        <time>2025-04-04T13:37:17.000Z</time>
      </trkpt>
      <trkpt lat="37.096873" lon="-79.608864">
        <ele>253.001848</ele>
        <time>2025-04-04T13:37:19.000Z</time>
      </trkpt>
      <trkpt lat="37.09703" lon="-79.608612">
        <ele>252.738534</ele>
        <time>2025-04-04T13:37:22.000Z</time>
      </trkpt>
      <trkpt lat="37.097108" lon="-79.608398">
        <ele>252.523541</ele>
        <time>2025-04-04T13:37:24.000Z</time>
      </trkpt>
      <trkpt lat="37.097202" lon="-79.607928">
        <ele>252.10943</ele>
        <time>2025-04-04T13:37:28.000Z</time>
      </trkpt>
      <trkpt lat="37.097336" lon="-79.605488">
        <ele>251.212169</ele>
        <time>2025-04-04T13:37:50.000Z</time>
      </trkpt>
      <trkpt lat="37.097314" lon="-79.605118">
        <ele>251.532122</ele>
        <time>2025-04-04T13:37:53.000Z</time>
      </trkpt>
      <trkpt lat="37.097226" lon="-79.604774">
        <ele>252.028123</ele>
        <time>2025-04-04T13:37:56.000Z</time>
      </trkpt>
      <trkpt lat="37.097079" lon="-79.604442">
        <ele>252.580939</ele>
        <time>2025-04-04T13:37:59.000Z</time>
      </trkpt>
      <trkpt lat="37.096955" lon="-79.604253">
        <ele>252.90287</ele>
        <time>2025-04-04T13:38:01.000Z</time>
      </trkpt>
      <trkpt lat="37.096067" lon="-79.60313">
        <ele>255.07963</ele>
        <time>2025-04-04T13:38:15.000Z</time>
      </trkpt>
      <trkpt lat="37.095883" lon="-79.602943">
        <ele>255.472651</ele>
        <time>2025-04-04T13:38:18.000Z</time>
      </trkpt>
      <trkpt lat="37.094942" lon="-79.602221">
        <ele>257.255537</ele>
        <time>2025-04-04T13:38:30.000Z</time>
      </trkpt>
      <trkpt lat="37.094621" lon="-79.6019">
        <ele>258.144143</ele>
        <time>2025-04-04T13:38:35.000Z</time>
      </trkpt>
      <trkpt lat="37.0944" lon="-79.601488">
        <ele>259.025724</ele>
        <time>2025-04-04T13:38:39.000Z</time>
      </trkpt>
      <trkpt lat="37.094103" lon="-79.600663">
        <ele>260.614495</ele>
        <time>2025-04-04T13:38:47.000Z</time>
      </trkpt>
      <trkpt lat="37.093993" lon="-79.600388">
        <ele>261.168883</ele>
        <time>2025-04-04T13:38:50.000Z</time>
      </trkpt>
      <trkpt lat="37.093352" lon="-79.598668">
        <ele>266.773455</ele>
        <time>2025-04-04T13:39:07.000Z</time>
      </trkpt>
      <trkpt lat="37.092194" lon="-79.595274">
        <ele>273.86512</ele>
        <time>2025-04-04T13:39:40.000Z</time>
      </trkpt>
      <trkpt lat="37.091511" lon="-79.59344">
        <ele>276.617763</ele>
        <time>2025-04-04T13:39:58.000Z</time>
      </trkpt>
      <trkpt lat="37.091409" lon="-79.593143">
        <ele>276.889123</ele>
        <time>2025-04-04T13:40:01.000Z</time>
      </trkpt>
      <trkpt lat="37.091104" lon="-79.59364">
        <ele>277.430228</ele>
        <time>2025-04-04T13:40:07.000Z</time>
      </trkpt>
      <trkpt lat="37.090183" lon="-79.595295">
        <ele>276.95858</ele>
        <time>2025-04-04T13:40:25.000Z</time>
      </trkpt>
      <trkpt lat="37.089822" lon="-79.595924">
        <ele>276.432612</ele>
        <time>2025-04-04T13:40:32.000Z</time>
      </trkpt>
      <trkpt lat="37.089747" lon="-79.59607">
        <ele>275.954353</ele>
        <time>2025-04-04T13:40:34.000Z</time>
      </trkpt>
      <trkpt lat="37.089567" lon="-79.596375">
        <ele>274.895157</ele>
        <time>2025-04-04T13:40:37.000Z</time>
      </trkpt>
      <trkpt lat="37.08913" lon="-79.597128">
        <ele>272.287665</ele>
        <time>2025-04-04T13:40:45.000Z</time>
      </trkpt>
      <trkpt lat="37.088595" lon="-79.597886">
        <ele>269.551818</ele>
        <time>2025-04-04T13:40:54.000Z</time>
      </trkpt>
      <trkpt lat="37.088271" lon="-79.598212">
        <ele>268.241915</ele>
        <time>2025-04-04T13:40:59.000Z</time>
      </trkpt>
      <trkpt lat="37.087772" lon="-79.598598">
        <ele>266.390515</ele>
        <time>2025-04-04T13:41:06.000Z</time>
      </trkpt>
      <trkpt lat="37.087293" lon="-79.598922">
        <ele>264.686866</ele>
        <time>2025-04-04T13:41:12.000Z</time>
      </trkpt>
      <trkpt lat="37.086972" lon="-79.599262">
        <ele>263.894032</ele>
        <time>2025-04-04T13:41:17.000Z</time>
      </trkpt>
      <trkpt lat="37.086897" lon="-79.599375">
        <ele>263.691879</ele>
        <time>2025-04-04T13:41:18.000Z</time>
      </trkpt>
      <trkpt lat="37.086766" lon="-79.599719">
        <ele>263.137272</ele>
        <time>2025-04-04T13:41:21.000Z</time>
      </trkpt>
      <trkpt lat="37.086006" lon="-79.602017">
        <ele>260.165847</ele>
        <time>2025-04-04T13:41:43.000Z</time>
      </trkpt>
      <trkpt lat="37.085821" lon="-79.602452">
        <ele>259.700803</ele>
        <time>2025-04-04T13:41:47.000Z</time>
      </trkpt>
      <trkpt lat="37.085669" lon="-79.602703">
        <ele>259.385282</ele>
        <time>2025-04-04T13:41:50.000Z</time>
      </trkpt>
      <trkpt lat="37.085436" lon="-79.602974">
        <ele>259.251167</ele>
        <time>2025-04-04T13:41:54.000Z</time>
      </trkpt>
      <trkpt lat="37.085196" lon="-79.603165">
        <ele>259.344381</ele>
        <time>2025-04-04T13:41:57.000Z</time>
      </trkpt>
      <trkpt lat="37.083922" lon="-79.603629">
        <ele>259.75909</ele>
        <time>2025-04-04T13:42:12.000Z</time>
      </trkpt>
      <trkpt lat="37.083617" lon="-79.603832">
        <ele>259.56475</ele>
        <time>2025-04-04T13:42:16.000Z</time>
      </trkpt>
      <trkpt lat="37.083377" lon="-79.604113">
        <ele>259.35718</ele>
        <time>2025-04-04T13:42:20.000Z</time>
      </trkpt>
      <trkpt lat="37.083189" lon="-79.604428">
        <ele>259.164803</ele>
        <time>2025-04-04T13:42:23.000Z</time>
      </trkpt>
      <trkpt lat="37.083108" lon="-79.604702">
        <ele>259.017358</ele>
        <time>2025-04-04T13:42:26.000Z</time>
      </trkpt>
      <trkpt lat="37.082964" lon="-79.606606">
        <ele>258.729043</ele>
        <time>2025-04-04T13:42:43.000Z</time>
      </trkpt>
      <trkpt lat="37.08288" lon="-79.606953">
        <ele>258.758283</ele>
        <time>2025-04-04T13:42:46.000Z</time>
      </trkpt>
      <trkpt lat="37.082817" lon="-79.607134">
        <ele>258.775846</ele>
        <time>2025-04-04T13:42:48.000Z</time>
      </trkpt>
      <trkpt lat="37.082607" lon="-79.607471">
        <ele>258.810185</ele>
        <time>2025-04-04T13:42:52.000Z</time>
      </trkpt>
      <trkpt lat="37.082445" lon="-79.607632">
        <ele>258.519654</ele>
        <time>2025-04-04T13:42:54.000Z</time>
      </trkpt>
      <trkpt lat="37.082144" lon="-79.607797">
        <ele>257.683891</ele>
        <time>2025-04-04T13:42:58.000Z</time>
      </trkpt>
      <trkpt lat="37.081573" lon="-79.608018">
        <ele>256.178362</ele>
        <time>2025-04-04T13:43:05.000Z</time>
      </trkpt>
      <trkpt lat="37.081307" lon="-79.608197">
        <ele>255.390749</ele>
        <time>2025-04-04T13:43:08.000Z</time>
      </trkpt>
      <trkpt lat="37.080937" lon="-79.608524">
        <ele>254.256324</ele>
        <time>2025-04-04T13:43:13.000Z</time>
      </trkpt>
      <trkpt lat="37.080349" lon="-79.609081">
        <ele>251.354347</ele>
        <time>2025-04-04T13:43:21.000Z</time>
      </trkpt>
      <trkpt lat="37.080142" lon="-79.609338">
        <ele>250.159826</ele>
        <time>2025-04-04T13:43:24.000Z</time>
      </trkpt>
      <trkpt lat="37.080089" lon="-79.609449">
        <ele>249.792375</ele>
        <time>2025-04-04T13:43:25.000Z</time>
      </trkpt>
      <trkpt lat="37.080025" lon="-79.60965">
        <ele>249.068391</ele>
        <time>2025-04-04T13:43:27.000Z</time>
      </trkpt>
      <trkpt lat="37.080033" lon="-79.60984">
        <ele>248.487168</ele>
        <time>2025-04-04T13:43:29.000Z</time>
      </trkpt>
      <trkpt lat="37.080054" lon="-79.610282">
        <ele>247.082743</ele>
        <time>2025-04-04T13:43:33.000Z</time>
      </trkpt>
      <trkpt lat="37.080022" lon="-79.610436">
        <ele>247.025911</ele>
        <time>2025-04-04T13:43:34.000Z</time>
      </trkpt>
      <trkpt lat="37.079991" lon="-79.610501">
        <ele>246.999474</ele>
        <time>2025-04-04T13:43:35.000Z</time>
      </trkpt>
      <trkpt lat="37.079729" lon="-79.610776">
        <ele>246.868134</ele>
        <time>2025-04-04T13:43:39.000Z</time>
      </trkpt>
      <trkpt lat="37.079648" lon="-79.610898">
        <ele>246.814829</ele>
        <time>2025-04-04T13:43:40.000Z</time>
      </trkpt>
      <trkpt lat="37.079528" lon="-79.611191">
        <ele>246.710808</ele>
        <time>2025-04-04T13:43:43.000Z</time>
      </trkpt>
      <trkpt lat="37.079443" lon="-79.611526">
        <ele>246.599267</ele>
        <time>2025-04-04T13:43:46.000Z</time>
      </trkpt>
      <trkpt lat="37.079354" lon="-79.611695">
        <ele>246.536543</ele>
        <time>2025-04-04T13:43:48.000Z</time>
      </trkpt>
      <trkpt lat="37.079178" lon="-79.611858">
        <ele>246.445653</ele>
        <time>2025-04-04T13:43:50.000Z</time>
      </trkpt>
      <trkpt lat="37.07877" lon="-79.611986">
        <ele>246.664009</ele>
        <time>2025-04-04T13:43:55.000Z</time>
      </trkpt>
      <trkpt lat="37.078655" lon="-79.612055">
        <ele>246.858279</ele>
        <time>2025-04-04T13:43:56.000Z</time>
      </trkpt>
      <trkpt lat="37.078581" lon="-79.612146">
        <ele>247.013461</ele>
        <time>2025-04-04T13:43:57.000Z</time>
      </trkpt>
      <trkpt lat="37.078534" lon="-79.61225">
        <ele>247.16757</ele>
        <time>2025-04-04T13:43:58.000Z</time>
      </trkpt>
      <trkpt lat="37.078471" lon="-79.612429">
        <ele>247.396601</ele>
        <time>2025-04-04T13:44:00.000Z</time>
      </trkpt>
      <trkpt lat="37.078477" lon="-79.612627">
        <ele>247.626736</ele>
        <time>2025-04-04T13:44:02.000Z</time>
      </trkpt>
      <trkpt lat="37.07857" lon="-79.613022">
        <ele>248.130402</ele>
        <time>2025-04-04T13:44:06.000Z</time>
      </trkpt>
      <trkpt lat="37.078679" lon="-79.613357">
        <ele>248.55958</ele>
        <time>2025-04-04T13:44:09.000Z</time>
      </trkpt>
      <trkpt lat="37.078831" lon="-79.613707">
        <ele>249.018183</ele>
        <time>2025-04-04T13:44:13.000Z</time>
      </trkpt>
      <trkpt lat="37.079076" lon="-79.614109">
        <ele>249.206655</ele>
        <time>2025-04-04T13:44:17.000Z</time>
      </trkpt>
      <trkpt lat="37.079219" lon="-79.614456">
        <ele>249.329328</ele>
        <time>2025-04-04T13:44:20.000Z</time>
      </trkpt>
      <trkpt lat="37.079273" lon="-79.614834">
        <ele>249.450239</ele>
        <time>2025-04-04T13:44:23.000Z</time>
      </trkpt>
      <trkpt lat="37.079284" lon="-79.615064">
        <ele>249.529668</ele>
        <time>2025-04-04T13:44:25.000Z</time>
      </trkpt>
      <trkpt lat="37.07929" lon="-79.61525">
        <ele>249.58336</ele>
        <time>2025-04-04T13:44:27.000Z</time>
      </trkpt>
      <trkpt lat="37.079255" lon="-79.615391">
        <ele>249.636338</ele>
        <time>2025-04-04T13:44:28.000Z</time>
      </trkpt>
      <trkpt lat="37.07923" lon="-79.615448">
        <ele>249.656073</ele>
        <time>2025-04-04T13:44:29.000Z</time>
      </trkpt>
      <trkpt lat="37.079261" lon="-79.615402">
        <ele>249.675811</ele>
        <time>2025-04-04T13:44:30.000Z</time>
      </trkpt>
      <trkpt lat="37.079298" lon="-79.615238">
        <ele>249.728793</ele>
        <time>2025-04-04T13:44:32.000Z</time>
      </trkpt>
      <trkpt lat="37.079286" lon="-79.615076">
        <ele>249.752627</ele>
        <time>2025-04-04T13:44:33.000Z</time>
      </trkpt>
      <trkpt lat="37.079284" lon="-79.61482">
        <ele>249.583211</ele>
        <time>2025-04-04T13:44:35.000Z</time>
      </trkpt>
      <trkpt lat="37.079207" lon="-79.614449">
        <ele>249.3253</ele>
        <time>2025-04-04T13:44:38.000Z</time>
      </trkpt>
      <trkpt lat="37.079079" lon="-79.614119">
        <ele>249.063652</ele>
        <time>2025-04-04T13:44:41.000Z</time>
      </trkpt>
      <trkpt lat="37.078831" lon="-79.613713">
        <ele>248.715098</ele>
        <time>2025-04-04T13:44:46.000Z</time>
      </trkpt>
      <trkpt lat="37.078682" lon="-79.61337">
        <ele>248.452923</ele>
        <time>2025-04-04T13:44:49.000Z</time>
      </trkpt>
      <trkpt lat="37.078578" lon="-79.613036">
        <ele>248.195208</ele>
        <time>2025-04-04T13:44:52.000Z</time>
      </trkpt>
      <trkpt lat="37.078476" lon="-79.612619">
        <ele>247.78278</ele>
        <time>2025-04-04T13:44:56.000Z</time>
      </trkpt>
      <trkpt lat="37.078478" lon="-79.61244">
        <ele>247.594344</ele>
        <time>2025-04-04T13:44:58.000Z</time>
      </trkpt>
      <trkpt lat="37.078523" lon="-79.612262">
        <ele>247.406813</ele>
        <time>2025-04-04T13:45:00.000Z</time>
      </trkpt>
      <trkpt lat="37.07858" lon="-79.612146">
        <ele>247.280613</ele>
        <time>2025-04-04T13:45:01.000Z</time>
      </trkpt>
      <trkpt lat="37.078668" lon="-79.612049">
        <ele>247.153551</ele>
        <time>2025-04-04T13:45:02.000Z</time>
      </trkpt>
      <trkpt lat="37.07877" lon="-79.611994">
        <ele>246.994475</ele>
        <time>2025-04-04T13:45:03.000Z</time>
      </trkpt>
      <trkpt lat="37.07916" lon="-79.611851">
        <ele>246.49814</ele>
        <time>2025-04-04T13:45:08.000Z</time>
      </trkpt>
      <trkpt lat="37.079359" lon="-79.611692">
        <ele>246.218019</ele>
        <time>2025-04-04T13:45:11.000Z</time>
      </trkpt>
      <trkpt lat="37.079446" lon="-79.611523">
        <ele>246.046838</ele>
        <time>2025-04-04T13:45:13.000Z</time>
      </trkpt>
      <trkpt lat="37.07954" lon="-79.611191">
        <ele>246.44891</ele>
        <time>2025-04-04T13:45:16.000Z</time>
      </trkpt>
      <trkpt lat="37.079641" lon="-79.610903">
        <ele>246.823844</ele>
        <time>2025-04-04T13:45:19.000Z</time>
      </trkpt>
      <trkpt lat="37.07973" lon="-79.610761">
        <ele>247.01592</ele>
        <time>2025-04-04T13:45:21.000Z</time>
      </trkpt>
      <trkpt lat="37.079996" lon="-79.610509">
        <ele>247.489332</ele>
        <time>2025-04-04T13:45:25.000Z</time>
      </trkpt>
      <trkpt lat="37.080025" lon="-79.610446">
        <ele>247.584636</ele>
        <time>2025-04-04T13:45:26.000Z</time>
      </trkpt>
      <trkpt lat="37.080048" lon="-79.610271">
        <ele>247.77565</ele>
        <time>2025-04-04T13:45:28.000Z</time>
      </trkpt>
      <trkpt lat="37.080023" lon="-79.609845">
        <ele>248.279002</ele>
        <time>2025-04-04T13:45:32.000Z</time>
      </trkpt>
      <trkpt lat="37.08004" lon="-79.609652">
        <ele>248.48732</ele>
        <time>2025-04-04T13:45:34.000Z</time>
      </trkpt>
      <trkpt lat="37.080091" lon="-79.609446">
        <ele>249.055083</ele>
        <time>2025-04-04T13:45:36.000Z</time>
      </trkpt>
      <trkpt lat="37.080152" lon="-79.609349">
        <ele>249.481978</ele>
        <time>2025-04-04T13:45:37.000Z</time>
      </trkpt>
      <trkpt lat="37.080365" lon="-79.609086">
        <ele>250.869762</ele>
        <time>2025-04-04T13:45:40.000Z</time>
      </trkpt>
      <trkpt lat="37.080927" lon="-79.608512">
        <ele>254.241262</ele>
        <time>2025-04-04T13:45:48.000Z</time>
      </trkpt>
      <trkpt lat="37.081304" lon="-79.608203">
        <ele>256.314651</ele>
        <time>2025-04-04T13:45:53.000Z</time>
      </trkpt>
      <trkpt lat="37.081571" lon="-79.608019">
        <ele>257.10457</ele>
        <time>2025-04-04T13:45:56.000Z</time>
      </trkpt>
      <trkpt lat="37.082146" lon="-79.607809">
        <ele>257.621479</ele>
        <time>2025-04-04T13:46:03.000Z</time>
      </trkpt>
      <trkpt lat="37.082447" lon="-79.607642">
        <ele>257.90845</ele>
        <time>2025-04-04T13:46:07.000Z</time>
      </trkpt>
      <trkpt lat="37.082613" lon="-79.607469">
        <ele>258.092459</ele>
        <time>2025-04-04T13:46:09.000Z</time>
      </trkpt>
      <trkpt lat="37.082817" lon="-79.607144">
        <ele>258.3813</ele>
        <time>2025-04-04T13:46:13.000Z</time>
      </trkpt>
      <trkpt lat="37.082888" lon="-79.606945">
        <ele>258.523117</ele>
        <time>2025-04-04T13:46:15.000Z</time>
      </trkpt>
      <trkpt lat="37.082967" lon="-79.606602">
        <ele>258.620544</ele>
        <time>2025-04-04T13:46:18.000Z</time>
      </trkpt>
      <trkpt lat="37.083114" lon="-79.604705">
        <ele>259.146659</ele>
        <time>2025-04-04T13:46:35.000Z</time>
      </trkpt>
      <trkpt lat="37.083201" lon="-79.604418">
        <ele>259.211064</ele>
        <time>2025-04-04T13:46:38.000Z</time>
      </trkpt>
      <trkpt lat="37.083375" lon="-79.604105">
        <ele>259.2951</ele>
        <time>2025-04-04T13:46:41.000Z</time>
      </trkpt>
      <trkpt lat="37.083616" lon="-79.603825">
        <ele>259.38578</ele>
        <time>2025-04-04T13:46:45.000Z</time>
      </trkpt>
      <trkpt lat="37.083906" lon="-79.603639">
        <ele>259.479886</ele>
        <time>2025-04-04T13:46:49.000Z</time>
      </trkpt>
      <trkpt lat="37.085192" lon="-79.60316">
        <ele>259.568608</ele>
        <time>2025-04-04T13:47:04.000Z</time>
      </trkpt>
      <trkpt lat="37.085433" lon="-79.602973">
        <ele>259.543056</ele>
        <time>2025-04-04T13:47:07.000Z</time>
      </trkpt>
      <trkpt lat="37.085671" lon="-79.602709">
        <ele>259.516801</ele>
        <time>2025-04-04T13:47:11.000Z</time>
      </trkpt>
      <trkpt lat="37.085823" lon="-79.602459">
        <ele>259.494051</ele>
        <time>2025-04-04T13:47:14.000Z</time>
      </trkpt>
      <trkpt lat="37.086021" lon="-79.60201">
        <ele>259.853014</ele>
        <time>2025-04-04T13:47:19.000Z</time>
      </trkpt>
      <trkpt lat="37.086759" lon="-79.599714">
        <ele>263.244348</ele>
        <time>2025-04-04T13:47:41.000Z</time>
      </trkpt>
      <trkpt lat="37.086901" lon="-79.599365">
        <ele>263.828856</ele>
        <time>2025-04-04T13:47:44.000Z</time>
      </trkpt>
      <trkpt lat="37.086971" lon="-79.599258">
        <ele>264.041919</ele>
        <time>2025-04-04T13:47:45.000Z</time>
      </trkpt>
      <trkpt lat="37.087296" lon="-79.598928">
        <ele>264.830712</ele>
        <time>2025-04-04T13:47:50.000Z</time>
      </trkpt>
      <trkpt lat="37.087773" lon="-79.598596">
        <ele>265.859766</ele>
        <time>2025-04-04T13:47:56.000Z</time>
      </trkpt>
      <trkpt lat="37.088279" lon="-79.598208">
        <ele>268.076726</ele>
        <time>2025-04-04T13:48:03.000Z</time>
      </trkpt>
      <trkpt lat="37.088596" lon="-79.597891">
        <ele>269.656085</ele>
        <time>2025-04-04T13:48:08.000Z</time>
      </trkpt>
      <trkpt lat="37.089121" lon="-79.597125">
        <ele>272.69803</ele>
        <time>2025-04-04T13:48:17.000Z</time>
      </trkpt>
      <trkpt lat="37.089571" lon="-79.596376">
        <ele>274.646641</ele>
        <time>2025-04-04T13:48:25.000Z</time>
      </trkpt>
      <trkpt lat="37.089747" lon="-79.596072">
        <ele>275.438188</ele>
        <time>2025-04-04T13:48:28.000Z</time>
      </trkpt>
      <trkpt lat="37.08982" lon="-79.595927">
        <ele>275.795592</ele>
        <time>2025-04-04T13:48:30.000Z</time>
      </trkpt>
      <trkpt lat="37.09017" lon="-79.595301">
        <ele>277.39006</ele>
        <time>2025-04-04T13:48:37.000Z</time>
      </trkpt>
      <trkpt lat="37.091094" lon="-79.593639">
        <ele>277.626458</ele>
        <time>2025-04-04T13:48:55.000Z</time>
      </trkpt>
      <trkpt lat="37.091414" lon="-79.593147">
        <ele>277.125796</ele>
        <time>2025-04-04T13:49:01.000Z</time>
      </trkpt>
      <trkpt lat="37.091508" lon="-79.593442">
        <ele>276.71137</ele>
        <time>2025-04-04T13:49:04.000Z</time>
      </trkpt>
      <trkpt lat="37.092177" lon="-79.595271">
        <ele>273.878349</ele>
        <time>2025-04-04T13:49:22.000Z</time>
      </trkpt>
      <trkpt lat="37.093369" lon="-79.598661">
        <ele>266.755757</ele>
        <time>2025-04-04T13:49:55.000Z</time>
      </trkpt>
      <trkpt lat="37.093988" lon="-79.600374">
        <ele>261.489634</ele>
        <time>2025-04-04T13:50:12.000Z</time>
      </trkpt>
      <trkpt lat="37.094089" lon="-79.600671">
        <ele>260.574393</ele>
        <time>2025-04-04T13:50:15.000Z</time>
      </trkpt>
      <trkpt lat="37.094393" lon="-79.601493">
        <ele>258.759767</ele>
        <time>2025-04-04T13:50:23.000Z</time>
      </trkpt>
      <trkpt lat="37.094631" lon="-79.601893">
        <ele>258.069672</ele>
        <time>2025-04-04T13:50:27.000Z</time>
      </trkpt>
      <trkpt lat="37.094942" lon="-79.60221">
        <ele>257.371628</ele>
        <time>2025-04-04T13:50:31.000Z</time>
      </trkpt>
      <trkpt lat="37.095872" lon="-79.602934">
        <ele>255.449075</ele>
        <time>2025-04-04T13:50:43.000Z</time>
      </trkpt>
      <trkpt lat="37.096059" lon="-79.603137">
        <ele>255.024778</ele>
        <time>2025-04-04T13:50:46.000Z</time>
      </trkpt>
      <trkpt lat="37.096955" lon="-79.604255">
        <ele>252.934704</ele>
        <time>2025-04-04T13:51:00.000Z</time>
      </trkpt>
      <trkpt lat="37.097081" lon="-79.604434">
        <ele>252.705008</ele>
        <time>2025-04-04T13:51:02.000Z</time>
      </trkpt>
      <trkpt lat="37.097237" lon="-79.604768">
        <ele>252.310564</ele>
        <time>2025-04-04T13:51:05.000Z</time>
      </trkpt>
      <trkpt lat="37.097306" lon="-79.605107">
        <ele>251.956654</ele>
        <time>2025-04-04T13:51:08.000Z</time>
      </trkpt>
      <trkpt lat="37.097343" lon="-79.605484">
        <ele>251.582111</ele>
        <time>2025-04-04T13:51:11.000Z</time>
      </trkpt>
      <trkpt lat="37.097211" lon="-79.607914">
        <ele>252.216629</ele>
        <time>2025-04-04T13:51:33.000Z</time>
      </trkpt>
      <trkpt lat="37.097103" lon="-79.608393">
        <ele>252.551753</ele>
        <time>2025-04-04T13:51:37.000Z</time>
      </trkpt>
      <trkpt lat="37.097033" lon="-79.608621">
        <ele>252.738716</ele>
        <time>2025-04-04T13:51:39.000Z</time>
      </trkpt>
      <trkpt lat="37.09687" lon="-79.608854">
        <ele>252.967698</ele>
        <time>2025-04-04T13:51:42.000Z</time>
      </trkpt>
      <trkpt lat="37.096698" lon="-79.60901">
        <ele>253.15428</ele>
        <time>2025-04-04T13:51:44.000Z</time>
      </trkpt>
      <trkpt lat="37.096681" lon="-79.609028">
        <ele>253.190911</ele>
        <time>2025-04-04T13:51:44.000Z</time>
      </trkpt>
      <trkpt lat="37.096414" lon="-79.609214">
        <ele>253.467887</ele>
        <time>2025-04-04T13:51:47.000Z</time>
      </trkpt>
      <trkpt lat="37.096145" lon="-79.609399">
        <ele>253.751994</ele>
        <time>2025-04-04T13:51:50.000Z</time>
      </trkpt>
      <trkpt lat="37.096007" lon="-79.609502">
        <ele>253.898893</ele>
        <time>2025-04-04T13:51:52.000Z</time>
      </trkpt>
      <trkpt lat="37.095784" lon="-79.609873">
        <ele>254.173214</ele>
        <time>2025-04-04T13:51:56.000Z</time>
      </trkpt>
      <trkpt lat="37.095741" lon="-79.60993">
        <ele>254.173207</ele>
        <time>2025-04-04T13:51:57.000Z</time>
      </trkpt>
      <trkpt lat="37.095666" lon="-79.609944">
        <ele>254.173211</ele>
        <time>2025-04-04T13:51:58.000Z</time>
      </trkpt>
      <trkpt lat="37.095623" lon="-79.610052">
        <ele>254.173216</ele>
        <time>2025-04-04T13:51:59.000Z</time>
      </trkpt>
      <trkpt lat="37.09558" lon="-79.610092">
        <ele>254.173213</ele>
        <time>2025-04-04T13:52:00.000Z</time>
      </trkpt>
      <trkpt lat="37.095088" lon="-79.610377">
        <ele>254.173211</ele>
        <time>2025-04-04T13:52:06.000Z</time>
      </trkpt>
      <trkpt lat="37.095071" lon="-79.610372">
        <ele>254.173213</ele>
        <time>2025-04-04T13:52:06.000Z</time>
      </trkpt>
      <trkpt lat="37.095038" lon="-79.610385">
        <ele>254.173216</ele>
        <time>2025-04-04T13:52:06.000Z</time>
      </trkpt>
      <trkpt lat="37.094974" lon="-79.610334">
        <ele>254.173214</ele>
        <time>2025-04-04T13:52:07.000Z</time>
      </trkpt>
      <trkpt lat="37.09491" lon="-79.610192">
        <ele>254.173211</ele>
        <time>2025-04-04T13:52:08.000Z</time>
      </trkpt>
      <trkpt lat="37.095454" lon="-79.609873">
        <ele>254.173212</ele>
        <time>2025-04-04T13:52:15.000Z</time>
      </trkpt>
      <trkpt lat="37.095481" lon="-79.609844">
        <ele>253.764456</ele>
        <time>2025-04-04T13:52:15.000Z</time>
      </trkpt>
      <trkpt lat="37.09553" lon="-79.609822">
        <ele>253.764455</ele>
        <time>2025-04-04T13:52:16.000Z</time>
      </trkpt>
      <trkpt lat="37.095607" lon="-79.609816">
        <ele>253.764449</ele>
        <time>2025-04-04T13:52:17.000Z</time>
      </trkpt>
      <trkpt lat="37.095603" lon="-79.60977">
        <ele>253.764444</ele>
        <time>2025-04-04T13:52:17.000Z</time>
      </trkpt>
      <trkpt lat="37.095687" lon="-79.609703">
        <ele>253.764444</ele>
        <time>2025-04-04T13:52:18.000Z</time>
      </trkpt>
      <trkpt lat="37.095999" lon="-79.6095">
        <ele>253.764442</ele>
        <time>2025-04-04T13:52:22.000Z</time>
      </trkpt>
      <trkpt lat="37.096136" lon="-79.609394">
        <ele>253.764441</ele>
        <time>2025-04-04T13:52:24.000Z</time>
      </trkpt>
      <trkpt lat="37.096414" lon="-79.60923">
        <ele>253.577008</ele>
        <time>2025-04-04T13:52:27.000Z</time>
      </trkpt>
      <trkpt lat="37.096678" lon="-79.60903">
        <ele>253.258517</ele>
        <time>2025-04-04T13:52:30.000Z</time>
      </trkpt>
      <trkpt lat="37.096703" lon="-79.609013">
        <ele>253.216386</ele>
        <time>2025-04-04T13:52:30.000Z</time>
      </trkpt>
      <trkpt lat="37.09686" lon="-79.608862">
        <ele>253.001844</ele>
        <time>2025-04-04T13:52:32.000Z</time>
      </trkpt>
      <trkpt lat="37.097029" lon="-79.608612">
        <ele>252.738528</ele>
        <time>2025-04-04T13:52:35.000Z</time>
      </trkpt>
      <trkpt lat="37.097106" lon="-79.608399">
        <ele>252.523547</ele>
        <time>2025-04-04T13:52:37.000Z</time>
      </trkpt>
      <trkpt lat="37.097206" lon="-79.607925">
        <ele>252.109431</ele>
        <time>2025-04-04T13:52:41.000Z</time>
      </trkpt>
      <trkpt lat="37.097341" lon="-79.60548">
        <ele>251.212172</ele>
        <time>2025-04-04T13:53:03.000Z</time>
      </trkpt>
      <trkpt lat="37.097313" lon="-79.605106">
        <ele>251.53211</ele>
        <time>2025-04-04T13:53:06.000Z</time>
      </trkpt>
      <trkpt lat="37.097223" lon="-79.604772">
        <ele>252.028112</ele>
        <time>2025-04-04T13:53:09.000Z</time>
      </trkpt>
      <trkpt lat="37.097082" lon="-79.604435">
        <ele>252.580927</ele>
        <time>2025-04-04T13:53:12.000Z</time>
      </trkpt>
      <trkpt lat="37.096969" lon="-79.604264">
        <ele>252.902869</ele>
        <time>2025-04-04T13:53:14.000Z</time>
      </trkpt>
      <trkpt lat="37.096062" lon="-79.603126">
        <ele>255.079624</ele>
        <time>2025-04-04T13:53:28.000Z</time>
      </trkpt>
      <trkpt lat="37.095872" lon="-79.602938">
        <ele>255.472658</ele>
        <time>2025-04-04T13:53:31.000Z</time>
      </trkpt>
      <trkpt lat="37.094939" lon="-79.602213">
        <ele>257.255542</ele>
        <time>2025-04-04T13:53:43.000Z</time>
      </trkpt>
      <trkpt lat="37.094626" lon="-79.601902">
        <ele>258.144145</ele>
        <time>2025-04-04T13:53:47.000Z</time>
      </trkpt>
      <trkpt lat="37.094392" lon="-79.601495">
        <ele>259.025722</ele>
        <time>2025-04-04T13:53:51.000Z</time>
      </trkpt>
      <trkpt lat="37.094102" lon="-79.600679">
        <ele>260.614504</ele>
        <time>2025-04-04T13:53:59.000Z</time>
      </trkpt>
      <trkpt lat="37.093986" lon="-79.600384">
        <ele>261.168875</ele>
        <time>2025-04-04T13:54:02.000Z</time>
      </trkpt>
      <trkpt lat="37.093353" lon="-79.598674">
        <ele>266.773469</ele>
        <time>2025-04-04T13:54:19.000Z</time>
      </trkpt>
      <trkpt lat="37.092193" lon="-79.595267">
        <ele>273.865118</ele>
        <time>2025-04-04T13:54:52.000Z</time>
      </trkpt>
      <trkpt lat="37.091509" lon="-79.59344">
        <ele>276.617754</ele>
        <time>2025-04-04T13:55:10.000Z</time>
      </trkpt>
      <trkpt lat="37.091409" lon="-79.593152">
        <ele>276.889124</ele>
        <time>2025-04-04T13:55:13.000Z</time>
      </trkpt>
      <trkpt lat="37.091105" lon="-79.593643">
        <ele>277.430211</ele>
        <time>2025-04-04T13:55:19.000Z</time>
      </trkpt>
      <trkpt lat="37.090178" lon="-79.595306">
        <ele>276.95858</ele>
        <time>2025-04-04T13:55:37.000Z</time>
      </trkpt>
      <trkpt lat="37.089828" lon="-79.595922">
        <ele>276.432606</ele>
        <time>2025-04-04T13:55:44.000Z</time>
      </trkpt>
      <trkpt lat="37.089732" lon="-79.59606">
        <ele>275.954348</ele>
        <time>2025-04-04T13:55:46.000Z</time>
      </trkpt>
      <trkpt lat="37.089558" lon="-79.596368">
        <ele>274.895157</ele>
        <time>2025-04-04T13:55:49.000Z</time>
      </trkpt>
      <trkpt lat="37.089131" lon="-79.597138">
        <ele>272.287651</ele>
        <time>2025-04-04T13:55:57.000Z</time>
      </trkpt>
      <trkpt lat="37.088591" lon="-79.597882">
        <ele>269.551806</ele>
        <time>2025-04-04T13:56:06.000Z</time>
      </trkpt>
      <trkpt lat="37.088267" lon="-79.598209">
        <ele>268.241921</ele>
        <time>2025-04-04T13:56:11.000Z</time>
      </trkpt>
      <trkpt lat="37.087765" lon="-79.5986">
        <ele>266.39051</ele>
        <time>2025-04-04T13:56:18.000Z</time>
      </trkpt>
      <trkpt lat="37.087285" lon="-79.598934">
        <ele>264.686862</ele>
        <time>2025-04-04T13:56:24.000Z</time>
      </trkpt>
      <trkpt lat="37.086971" lon="-79.599259">
        <ele>263.894042</ele>
        <time>2025-04-04T13:56:29.000Z</time>
      </trkpt>
      <trkpt lat="37.086908" lon="-79.599369">
        <ele>263.691874</ele>
        <time>2025-04-04T13:56:30.000Z</time>
      </trkpt>
      <trkpt lat="37.086767" lon="-79.599706">
        <ele>263.137274</ele>
        <time>2025-04-04T13:56:33.000Z</time>
      </trkpt>
      <trkpt lat="37.086017" lon="-79.60202">
        <ele>260.165842</ele>
        <time>2025-04-04T13:56:55.000Z</time>
      </trkpt>
      <trkpt lat="37.085834" lon="-79.602443">
        <ele>259.700797</ele>
        <time>2025-04-04T13:56:59.000Z</time>
      </trkpt>
      <trkpt lat="37.085673" lon="-79.602707">
        <ele>259.385284</ele>
        <time>2025-04-04T13:57:02.000Z</time>
      </trkpt>
      <trkpt lat="37.085445" lon="-79.602969">
        <ele>259.251183</ele>
        <time>2025-04-04T13:57:05.000Z</time>
      </trkpt>
      <trkpt lat="37.085191" lon="-79.603161">
        <ele>259.344381</ele>
        <time>2025-04-04T13:57:08.000Z</time>
      </trkpt>
      <trkpt lat="37.083908" lon="-79.603644">
        <ele>259.759103</ele>
        <time>2025-04-04T13:57:23.000Z</time>
      </trkpt>
      <trkpt lat="37.083606" lon="-79.603828">
        <ele>259.564761</ele>
        <time>2025-04-04T13:57:27.000Z</time>
      </trkpt>
      <trkpt lat="37.08337" lon="-79.604108">
        <ele>259.357191</ele>
        <time>2025-04-04T13:57:31.000Z</time>
      </trkpt>
      <trkpt lat="37.083189" lon="-79.604426">
        <ele>259.164802</ele>
        <time>2025-04-04T13:57:34.000Z</time>
      </trkpt>
      <trkpt lat="37.083114" lon="-79.604694">
        <ele>259.017368</ele>
        <time>2025-04-04T13:57:37.000Z</time>
      </trkpt>
      <trkpt lat="37.082968" lon="-79.606613">
        <ele>258.729039</ele>
        <time>2025-04-04T13:57:54.000Z</time>
      </trkpt>
      <trkpt lat="37.082883" lon="-79.606955">
        <ele>258.758284</ele>
        <time>2025-04-04T13:57:57.000Z</time>
      </trkpt>
      <trkpt lat="37.082805" lon="-79.607151">
        <ele>258.775841</ele>
        <time>2025-04-04T13:57:59.000Z</time>
      </trkpt>
      <trkpt lat="37.082604" lon="-79.607473">
        <ele>258.810194</ele>
        <time>2025-04-04T13:58:03.000Z</time>
      </trkpt>
      <trkpt lat="37.082448" lon="-79.607633">
        <ele>258.519664</ele>
        <time>2025-04-04T13:58:05.000Z</time>
      </trkpt>
      <trkpt lat="37.082148" lon="-79.607799">
        <ele>257.683888</ele>
        <time>2025-04-04T13:58:09.000Z</time>
      </trkpt>
      <trkpt lat="37.081571" lon="-79.608031">
        <ele>256.178351</ele>
        <time>2025-04-04T13:58:16.000Z</time>
      </trkpt>
      <trkpt lat="37.081293" lon="-79.608199">
        <ele>255.390752</ele>
        <time>2025-04-04T13:58:19.000Z</time>
      </trkpt>
      <trkpt lat="37.080927" lon="-79.608528">
        <ele>254.256319</ele>
        <time>2025-04-04T13:58:24.000Z</time>
      </trkpt>
      <trkpt lat="37.080347" lon="-79.609074">
        <ele>251.354335</ele>
        <time>2025-04-04T13:58:32.000Z</time>
      </trkpt>
      <trkpt lat="37.080145" lon="-79.609336">
        <ele>250.159827</ele>
        <time>2025-04-04T13:58:35.000Z</time>
      </trkpt>
      <trkpt lat="37.080104" lon="-79.609447">
        <ele>249.79238</ele>
        <time>2025-04-04T13:58:36.000Z</time>
      </trkpt>
      <trkpt lat="37.080036" lon="-79.609645">
        <ele>249.068382</ele>
        <time>2025-04-04T13:58:38.000Z</time>
      </trkpt>
      <trkpt lat="37.080019" lon="-79.609827">
        <ele>248.487175</ele>
        <time>2025-04-04T13:58:40.000Z</time>
      </trkpt>
      <trkpt lat="37.080054" lon="-79.610274">
        <ele>247.082738</ele>
        <time>2025-04-04T13:58:44.000Z</time>
      </trkpt>
      <trkpt lat="37.080019" lon="-79.610436">
        <ele>247.025916</ele>
        <time>2025-04-04T13:58:45.000Z</time>
      </trkpt>
      <trkpt lat="37.079984" lon="-79.610516">
        <ele>246.999466</ele>
        <time>2025-04-04T13:58:46.000Z</time>
      </trkpt>
      <trkpt lat="37.079733" lon="-79.610776">
        <ele>246.868133</ele>
        <time>2025-04-04T13:58:50.000Z</time>
      </trkpt>
      <trkpt lat="37.079641" lon="-79.610901">
        <ele>246.814836</ele>
        <time>2025-04-04T13:58:52.000Z</time>
      </trkpt>
      <trkpt lat="37.079542" lon="-79.611194">
        <ele>246.710819</ele>
        <time>2025-04-04T13:58:55.000Z</time>
      </trkpt>
      <trkpt lat="37.079447" lon="-79.611537">
        <ele>246.599265</ele>
        <time>2025-04-04T13:58:58.000Z</time>
      </trkpt>
      <trkpt lat="37.079352" lon="-79.611693">
        <ele>246.536544</ele>
        <time>2025-04-04T13:59:00.000Z</time>
      </trkpt>
      <trkpt lat="37.079176" lon="-79.611842">
        <ele>246.445665</ele>
        <time>2025-04-04T13:59:02.000Z</time>
      </trkpt>
      <trkpt lat="37.078785" lon="-79.611992">
        <ele>246.664011</ele>
        <time>2025-04-04T13:59:07.000Z</time>
      </trkpt>
      <trkpt lat="37.078665" lon="-79.612065">
        <ele>246.858285</ele>
        <time>2025-04-04T13:59:08.000Z</time>
      </trkpt>
      <trkpt lat="37.078589" lon="-79.612151">
        <ele>247.013458</ele>
        <time>2025-04-04T13:59:09.000Z</time>
      </trkpt>
      <trkpt lat="37.078518" lon="-79.612249">
        <ele>247.167566</ele>
        <time>2025-04-04T13:59:10.000Z</time>
      </trkpt>
      <trkpt lat="37.078487" lon="-79.612431">
        <ele>247.396604</ele>
        <time>2025-04-04T13:59:12.000Z</time>
      </trkpt>
      <trkpt lat="37.078472" lon="-79.612634">
        <ele>247.626726</ele>
        <time>2025-04-04T13:59:14.000Z</time>
      </trkpt>
      <trkpt lat="37.078578" lon="-79.61303">
        <ele>248.130401</ele>
        <time>2025-04-04T13:59:18.000Z</time>
      </trkpt>
      <trkpt lat="37.078684" lon="-79.613373">
        <ele>248.559593</ele>
        <time>2025-04-04T13:59:21.000Z</time>
      </trkpt>
      <trkpt lat="37.078825" lon="-79.613712">
        <ele>249.018185</ele>
        <time>2025-04-04T13:59:24.000Z</time>
      </trkpt>
      <trkpt lat="37.079078" lon="-79.614106">
        <ele>249.206646</ele>
        <time>2025-04-04T13:59:28.000Z</time>
      </trkpt>
      <trkpt lat="37.079209" lon="-79.61445">
        <ele>249.329327</ele>
        <time>2025-04-04T13:59:31.000Z</time>
      </trkpt>
      <trkpt lat="37.079275" lon="-79.614834">
        <ele>249.450228</ele>
        <time>2025-04-04T13:59:34.000Z</time>
      </trkpt>
      <trkpt lat="37.079291" lon="-79.615073">
        <ele>249.529663</ele>
        <time>2025-04-04T13:59:36.000Z</time>
      </trkpt>
      <trkpt lat="37.079287" lon="-79.615238">
        <ele>249.583361</ele>
        <time>2025-04-04T13:59:37.000Z</time>
      </trkpt>
      <trkpt lat="37.079247" lon="-79.615398">
        <ele>249.636339</ele>
        <time>2025-04-04T13:59:38.000Z</time>
      </trkpt>
      <trkpt lat="37.079212" lon="-79.615453">
        <ele>249.656083</ele>
        <time>2025-04-04T13:59:39.000Z</time>
      </trkpt>
      <trkpt lat="37.079259" lon="-79.615404">
        <ele>249.675825</ele>
        <time>2025-04-04T13:59:40.000Z</time>
      </trkpt>
      <trkpt lat="37.079283" lon="-79.615241">
        <ele>249.728804</ele>
        <time>2025-04-04T13:59:41.000Z</time>
      </trkpt>
      <trkpt lat="37.079293" lon="-79.615069">
        <ele>249.752626</ele>
        <time>2025-04-04T13:59:43.000Z</time>
      </trkpt>
      <trkpt lat="37.079281" lon="-79.614826">
        <ele>249.583199</ele>
        <time>2025-04-04T13:59:45.000Z</time>
      </trkpt>
      <trkpt lat="37.079208" lon="-79.614462">
        <ele>249.32531</ele>
        <time>2025-04-04T13:59:48.000Z</time>
      </trkpt>
      <trkpt lat="37.079079" lon="-79.614111">
        <ele>249.063664</ele>
        <time>2025-04-04T13:59:51.000Z</time>
      </trkpt>
      <trkpt lat="37.078824" lon="-79.613719">
        <ele>248.715097</ele>
        <time>2025-04-04T13:59:55.000Z</time>
      </trkpt>
      <trkpt lat="37.078692" lon="-79.613371">
        <ele>248.452914</ele>
        <time>2025-04-04T13:59:58.000Z</time>
      </trkpt>
      <trkpt lat="37.078576" lon="-79.613026">
        <ele>248.195212</ele>
        <time>2025-04-04T14:00:01.000Z</time>
      </trkpt>
      <trkpt lat="37.078473" lon="-79.612633">
        <ele>247.782793</ele>
        <time>2025-04-04T14:00:05.000Z</time>
      </trkpt>
      <trkpt lat="37.078485" lon="-79.612431">
        <ele>247.594342</ele>
        <time>2025-04-04T14:00:07.000Z</time>
      </trkpt>
      <trkpt lat="37.07853" lon="-79.612261">
        <ele>247.406815</ele>
        <time>2025-04-04T14:00:09.000Z</time>
      </trkpt>
      <trkpt lat="37.07859" lon="-79.61214">
        <ele>247.28061</ele>
        <time>2025-04-04T14:00:10.000Z</time>
      </trkpt>
      <trkpt lat="37.078667" lon="-79.612058">
        <ele>247.153557</ele>
        <time>2025-04-04T14:00:11.000Z</time>
      </trkpt>
      <trkpt lat="37.078787" lon="-79.611992">
        <ele>246.99447</ele>
        <time>2025-04-04T14:00:12.000Z</time>
      </trkpt>
      <trkpt lat="37.079163" lon="-79.611844">
        <ele>246.498149</ele>
        <time>2025-04-04T14:00:16.000Z</time>
      </trkpt>
      <trkpt lat="37.07935" lon="-79.611682">
        <ele>246.218025</ele>
        <time>2025-04-04T14:00:19.000Z</time>
      </trkpt>
      <trkpt lat="37.079443" lon="-79.611527">
        <ele>246.046838</ele>
        <time>2025-04-04T14:00:21.000Z</time>
      </trkpt>
      <trkpt lat="37.079539" lon="-79.611195">
        <ele>246.448897</ele>
        <time>2025-04-04T14:00:24.000Z</time>
      </trkpt>
      <trkpt lat="37.079644" lon="-79.610888">
        <ele>246.823837</ele>
        <time>2025-04-04T14:00:27.000Z</time>
      </trkpt>
      <trkpt lat="37.079726" lon="-79.610764">
        <ele>247.015906</ele>
        <time>2025-04-04T14:00:28.000Z</time>
      </trkpt>
      <trkpt lat="37.079997" lon="-79.610501">
        <ele>247.489331</ele>
        <time>2025-04-04T14:00:32.000Z</time>
      </trkpt>
      <trkpt lat="37.080035" lon="-79.610446">
        <ele>247.584633</ele>
        <time>2025-04-04T14:00:33.000Z</time>
      </trkpt>
      <trkpt lat="37.080064" lon="-79.610266">
        <ele>247.77564</ele>
        <time>2025-04-04T14:00:35.000Z</time>
      </trkpt>
      <trkpt lat="37.080015" lon="-79.609835">
        <ele>248.279001</ele>
        <time>2025-04-04T14:00:39.000Z</time>
      </trkpt>
      <trkpt lat="37.080035" lon="-79.609657">
        <ele>248.487314</ele>
        <time>2025-04-04T14:00:41.000Z</time>
      </trkpt>
      <trkpt lat="37.080095" lon="-79.609447">
        <ele>249.055084</ele>
        <time>2025-04-04T14:00:43.000Z</time>
      </trkpt>
      <trkpt lat="37.080147" lon="-79.609346">
        <ele>249.48199</ele>
        <time>2025-04-04T14:00:44.000Z</time>
      </trkpt>
      <trkpt lat="37.08036" lon="-79.609069">
        <ele>250.869764</ele>
        <time>2025-04-04T14:00:47.000Z</time>
      </trkpt>
      <trkpt lat="37.080923" lon="-79.608517">
        <ele>254.241278</ele>
        <time>2025-04-04T14:00:55.000Z</time>
      </trkpt>
      <trkpt lat="37.081306" lon="-79.608208">
        <ele>256.314648</ele>
        <time>2025-04-04T14:01:00.000Z</time>
      </trkpt>
      <trkpt lat="37.081569" lon="-79.608025">
        <ele>257.104575</ele>
        <time>2025-04-04T14:01:03.000Z</time>
      </trkpt>
      <trkpt lat="37.082145" lon="-79.607803">
        <ele>257.621477</ele>
        <time>2025-04-04T14:01:10.000Z</time>
      </trkpt>
      <trkpt lat="37.082452" lon="-79.607645">
        <ele>257.908448</ele>
        <time>2025-04-04T14:01:14.000Z</time>
      </trkpt>
      <trkpt lat="37.082609" lon="-79.60748">
        <ele>258.09246</ele>
        <time>2025-04-04T14:01:16.000Z</time>
      </trkpt>
      <trkpt lat="37.082816" lon="-79.607134">
        <ele>258.38131</ele>
        <time>2025-04-04T14:01:20.000Z</time>
      </trkpt>
      <trkpt lat="37.082883" lon="-79.606958">
        <ele>258.523118</ele>
        <time>2025-04-04T14:01:22.000Z</time>
      </trkpt>
      <trkpt lat="37.082969" lon="-79.606617">
        <ele>258.620529</ele>
        <time>2025-04-04T14:01:25.000Z</time>
      </trkpt>
      <trkpt lat="37.083114" lon="-79.604695">
        <ele>259.146665</ele>
        <time>2025-04-04T14:01:42.000Z</time>
      </trkpt>
      <trkpt lat="37.083196" lon="-79.604424">
        <ele>259.211067</ele>
        <time>2025-04-04T14:01:45.000Z</time>
      </trkpt>
      <trkpt lat="37.083373" lon="-79.604113">
        <ele>259.295095</ele>
        <time>2025-04-04T14:01:48.000Z</time>
      </trkpt>
      <trkpt lat="37.083608" lon="-79.603832">
        <ele>259.385776</ele>
        <time>2025-04-04T14:01:52.000Z</time>
      </trkpt>
      <trkpt lat="37.083911" lon="-79.603631">
        <ele>259.47988</ele>
        <time>2025-04-04T14:01:56.000Z</time>
      </trkpt>
      <trkpt lat="37.085188" lon="-79.603163">
        <ele>259.568614</ele>
        <time>2025-04-04T14:02:11.000Z</time>
      </trkpt>
      <trkpt lat="37.085449" lon="-79.602977">
        <ele>259.543047</ele>
        <time>2025-04-04T14:02:14.000Z</time>
      </trkpt>
      <trkpt lat="37.085668" lon="-79.602704">
        <ele>259.516797</ele>
        <time>2025-04-04T14:02:17.000Z</time>
      </trkpt>
      <trkpt lat="37.085833" lon="-79.602456">
        <ele>259.494049</ele>
        <time>2025-04-04T14:02:20.000Z</time>
      </trkpt>
      <trkpt lat="37.086012" lon="-79.60201">
        <ele>259.853025</ele>
        <time>2025-04-04T14:02:24.000Z</time>
      </trkpt>
      <trkpt lat="37.086767" lon="-79.599716">
        <ele>263.244342</ele>
        <time>2025-04-04T14:02:46.000Z</time>
      </trkpt>
      <trkpt lat="37.086907" lon="-79.599363">
        <ele>263.828859</ele>
        <time>2025-04-04T14:02:49.000Z</time>
      </trkpt>
      <trkpt lat="37.086972" lon="-79.59925">
        <ele>264.041906</ele>
        <time>2025-04-04T14:02:50.000Z</time>
      </trkpt>
      <trkpt lat="37.087286" lon="-79.598939">
        <ele>264.830703</ele>
        <time>2025-04-04T14:02:54.000Z</time>
      </trkpt>
      <trkpt lat="37.087777" lon="-79.598599">
        <ele>265.859765</ele>
        <time>2025-04-04T14:03:00.000Z</time>
      </trkpt>
      <trkpt lat="37.088267" lon="-79.598218">
        <ele>268.076723</ele>
        <time>2025-04-04T14:03:06.000Z</time>
      </trkpt>
      <trkpt lat="37.088588" lon="-79.597883">
        <ele>269.656082</ele>
        <time>2025-04-04T14:03:11.000Z</time>
      </trkpt>
      <trkpt lat="37.089136" lon="-79.597126">
        <ele>272.698014</ele>
        <time>2025-04-04T14:03:20.000Z</time>
      </trkpt>
      <trkpt lat="37.089566" lon="-79.596371">
        <ele>274.64665</ele>
        <time>2025-04-04T14:03:28.000Z</time>
      </trkpt>
      <trkpt lat="37.089744" lon="-79.596069">
        <ele>275.438193</ele>
        <time>2025-04-04T14:03:31.000Z</time>
      </trkpt>
      <trkpt lat="37.089813" lon="-79.59593">
        <ele>275.795589</ele>
        <time>2025-04-04T14:03:32.000Z</time>
      </trkpt>
      <trkpt lat="37.090173" lon="-79.595305">
        <ele>277.390064</ele>
        <time>2025-04-04T14:03:39.000Z</time>
      </trkpt>
      <trkpt lat="37.091096" lon="-79.593634">
        <ele>277.626447</ele>
        <time>2025-04-04T14:03:57.000Z</time>
      </trkpt>
      <trkpt lat="37.091422" lon="-79.593138">
        <ele>277.125809</ele>
        <time>2025-04-04T14:04:03.000Z</time>
      </trkpt>
      <trkpt lat="37.091524" lon="-79.593433">
        <ele>276.711366</ele>
        <time>2025-04-04T14:04:06.000Z</time>
      </trkpt>
      <trkpt lat="37.092182" lon="-79.595279">
        <ele>273.878356</ele>
        <time>2025-04-04T14:04:24.000Z</time>
      </trkpt>
      <trkpt lat="37.093351" lon="-79.598663">
        <ele>266.755771</ele>
        <time>2025-04-04T14:04:57.000Z</time>
      </trkpt>
      <trkpt lat="37.093999" lon="-79.60038">
        <ele>261.489645</ele>
        <time>2025-04-04T14:05:14.000Z</time>
      </trkpt>
      <trkpt lat="37.094087" lon="-79.600676">
        <ele>260.574385</ele>
        <time>2025-04-04T14:05:17.000Z</time>
      </trkpt>
      <trkpt lat="37.094394" lon="-79.601495">
        <ele>258.75977</ele>
        <time>2025-04-04T14:05:25.000Z</time>
      </trkpt>
      <trkpt lat="37.094616" lon="-79.601901">
        <ele>258.069669</ele>
        <time>2025-04-04T14:05:29.000Z</time>
      </trkpt>
      <trkpt lat="37.094935" lon="-79.602207">
        <ele>257.371628</ele>
        <time>2025-04-04T14:05:33.000Z</time>
      </trkpt>
      <trkpt lat="37.09588" lon="-79.602946">
        <ele>255.449088</ele>
        <time>2025-04-04T14:05:45.000Z</time>
      </trkpt>
      <trkpt lat="37.096065" lon="-79.603131">
        <ele>255.024776</ele>
        <time>2025-04-04T14:05:48.000Z</time>
      </trkpt>
      <trkpt lat="37.096969" lon="-79.604259">
        <ele>252.934709</ele>
        <time>2025-04-04T14:06:02.000Z</time>
      </trkpt>
      <trkpt lat="37.097064" lon="-79.60443">
        <ele>252.705001</ele>
        <time>2025-04-04T14:06:04.000Z</time>
      </trkpt>
      <trkpt lat="37.097237" lon="-79.604773">
        <ele>252.310552</ele>
        <time>2025-04-04T14:06:08.000Z</time>
      </trkpt>
      <trkpt lat="37.097307" lon="-79.605111">
        <ele>251.95667</ele>
        <time>2025-04-04T14:06:11.000Z</time>
      </trkpt>
      <trkpt lat="37.097343" lon="-79.605474">
        <ele>251.582113</ele>
        <time>2025-04-04T14:06:14.000Z</time>
      </trkpt>
      <trkpt lat="37.097214" lon="-79.607928">
        <ele>252.216629</ele>
        <time>2025-04-04T14:06:36.000Z</time>
      </trkpt>
      <trkpt lat="37.097108" lon="-79.6084">
        <ele>252.551756</ele>
        <time>2025-04-04T14:06:40.000Z</time>
      </trkpt>
      <trkpt lat="37.097023" lon="-79.608617">
        <ele>252.73872</ele>
        <time>2025-04-04T14:06:42.000Z</time>
      </trkpt>
      <trkpt lat="37.096859" lon="-79.608849">
        <ele>252.967703</ele>
        <time>2025-04-04T14:06:45.000Z</time>
      </trkpt>
      <trkpt lat="37.096699" lon="-79.60901">
        <ele>253.154284</ele>
        <time>2025-04-04T14:06:47.000Z</time>
      </trkpt>
      <trkpt lat="37.09667" lon="-79.609027">
        <ele>253.190918</ele>
        <time>2025-04-04T14:06:47.000Z</time>
      </trkpt>
      <trkpt lat="37.096421" lon="-79.609214">
        <ele>253.467883</ele>
        <time>2025-04-04T14:06:50.000Z</time>
      </trkpt>
      <trkpt lat="37.096146" lon="-79.609402">
        <ele>253.751983</ele>
        <time>2025-04-04T14:06:53.000Z</time>
      </trkpt>
      <trkpt lat="37.096008" lon="-79.6095">
        <ele>253.898902</ele>
        <time>2025-04-04T14:06:55.000Z</time>
      </trkpt>
      <trkpt lat="37.095782" lon="-79.609859">
        <ele>254.173214</ele>
        <time>2025-04-04T14:06:59.000Z</time>
      </trkpt>
      <trkpt lat="37.095738" lon="-79.609916">
        <ele>254.173213</ele>
        <time>2025-04-04T14:07:00.000Z</time>
      </trkpt>
      <trkpt lat="37.095669" lon="-79.609944">
        <ele>254.17322</ele>
        <time>2025-04-04T14:07:01.000Z</time>
      </trkpt>
      <trkpt lat="37.095627" lon="-79.610054">
        <ele>254.173211</ele>
        <time>2025-04-04T14:07:02.000Z</time>
      </trkpt>
      <trkpt lat="37.095586" lon="-79.610091">
        <ele>254.173215</ele>
        <time>2025-04-04T14:07:03.000Z</time>
      </trkpt>
      <trkpt lat="37.095077" lon="-79.610373">
        <ele>254.173215</ele>
        <time>2025-04-04T14:07:09.000Z</time>
      </trkpt>
      <trkpt lat="37.095078" lon="-79.610373">
        <ele>254.173211</ele>
        <time>2025-04-04T14:07:09.000Z</time>
      </trkpt>
      <trkpt lat="37.095038" lon="-79.610384">
        <ele>254.173219</ele>
        <time>2025-04-04T14:07:09.000Z</time>
      </trkpt>
      <trkpt lat="37.094978" lon="-79.61034">
        <ele>254.173217</ele>
        <time>2025-04-04T14:07:10.000Z</time>
      </trkpt>
      <trkpt lat="37.094907" lon="-79.610185">
        <ele>254.173212</ele>
        <time>2025-04-04T14:07:12.000Z</time>
      </trkpt>
      <trkpt lat="37.095439" lon="-79.609863">
        <ele>254.173217</ele>
        <time>2025-04-04T14:07:19.000Z</time>
      </trkpt>
      <trkpt lat="37.09549" lon="-79.609853">
        <ele>253.764445</ele>
        <time>2025-04-04T14:07:20.000Z</time>
      </trkpt>
      <trkpt lat="37.095513" lon="-79.609829">
        <ele>253.764453</ele>
        <time>2025-04-04T14:07:20.000Z</time>
      </trkpt>
      <trkpt lat="37.095598" lon="-79.609827">
        <ele>253.764439</ele>
        <time>2025-04-04T14:07:21.000Z</time>
      </trkpt>
      <trkpt lat="37.095606" lon="-79.609768">
        <ele>253.764447</ele>
        <time>2025-04-04T14:07:22.000Z</time>
      </trkpt>
      <trkpt lat="37.095688" lon="-79.609699">
        <ele>253.764448</ele>
        <time>2025-04-04T14:07:23.000Z</time>
      </trkpt>
      <trkpt lat="37.096008" lon="-79.609494">
        <ele>253.764456</ele>
        <time>2025-04-04T14:07:27.000Z</time>
      </trkpt>
      <trkpt lat="37.096137" lon="-79.609398">
        <ele>253.764455</ele>
        <time>2025-04-04T14:07:29.000Z</time>
      </trkpt>
      <trkpt lat="37.096411" lon="-79.609217">
        <ele>253.577011</ele>
        <time>2025-04-04T14:07:32.000Z</time>
      </trkpt>
      <trkpt lat="37.096668" lon="-79.609026">
        <ele>253.258516</ele>
        <time>2025-04-04T14:07:35.000Z</time>
      </trkpt>
      <trkpt lat="37.096697" lon="-79.609009">
        <ele>253.216386</ele>
        <time>2025-04-04T14:07:35.000Z</time>
      </trkpt>
      <trkpt lat="37.096861" lon="-79.608851">
        <ele>253.001835</ele>
        <time>2025-04-04T14:07:37.000Z</time>
      </trkpt>
      <trkpt lat="37.097022" lon="-79.608628">
        <ele>252.738537</ele>
        <time>2025-04-04T14:07:40.000Z</time>
      </trkpt>
      <trkpt lat="37.09711" lon="-79.608385">
        <ele>252.523531</ele>
        <time>2025-04-04T14:07:42.000Z</time>
      </trkpt>
      <trkpt lat="37.097214" lon="-79.607927">
        <ele>252.109418</ele>
        <time>2025-04-04T14:07:46.000Z</time>
      </trkpt>
      <trkpt lat="37.097346" lon="-79.605472">
        <ele>251.212156</ele>
        <time>2025-04-04T14:08:08.000Z</time>
      </trkpt>
      <trkpt lat="37.097305" lon="-79.60512">
        <ele>251.532112</ele>
        <time>2025-04-04T14:08:11.000Z</time>
      </trkpt>
      <trkpt lat="37.097225" lon="-79.604771">
        <ele>252.028119</ele>
        <time>2025-04-04T14:08:14.000Z</time>
      </trkpt>
      <trkpt lat="37.097076" lon="-79.604443">
        <ele>252.580926</ele>
        <time>2025-04-04T14:08:17.000Z</time>
      </trkpt>
      <trkpt lat="37.09696" lon="-79.604251">
        <ele>252.902867</ele>
        <time>2025-04-04T14:08:19.000Z</time>
      </trkpt>
      <trkpt lat="37.096075" lon="-79.60314">
        <ele>255.079624</ele>
        <time>2025-04-04T14:08:33.000Z</time>
      </trkpt>
      <trkpt lat="37.09587" lon="-79.602946">
        <ele>255.472652</ele>
        <time>2025-04-04T14:08:36.000Z</time>
      </trkpt>
      <trkpt lat="37.094936" lon="-79.602205">
        <ele>257.255547</ele>
        <time>2025-04-04T14:08:48.000Z</time>
      </trkpt>
      <trkpt lat="37.094616" lon="-79.601888">
        <ele>258.144156</ele>
        <time>2025-04-04T14:08:53.000Z</time>
      </trkpt>
      <trkpt lat="37.094385" lon="-79.601487">
        <ele>259.025726</ele>
        <time>2025-04-04T14:08:57.000Z</time>
      </trkpt>
      <trkpt lat="37.094091" lon="-79.600667">
        <ele>260.614511</ele>
        <time>2025-04-04T14:09:05.000Z</time>
      </trkpt>
      <trkpt lat="37.094003" lon="-79.600383">
        <ele>261.168884</ele>
        <time>2025-04-04T14:09:08.000Z</time>
      </trkpt>
      <trkpt lat="37.093354" lon="-79.598671">
        <ele>266.773472</ele>
        <time>2025-04-04T14:09:25.000Z</time>
      </trkpt>
      <trkpt lat="37.092182" lon="-79.595271">
        <ele>273.865131</ele>
        <time>2025-04-04T14:09:58.000Z</time>
      </trkpt>
      <trkpt lat="37.091525" lon="-79.593442">
        <ele>276.617759</ele>
        <time>2025-04-04T14:10:16.000Z</time>
      </trkpt>
      <trkpt lat="37.091405" lon="-79.593137">
        <ele>276.889125</ele>
        <time>2025-04-04T14:10:19.000Z</time>
      </trkpt>
      <trkpt lat="37.091103" lon="-79.593643">
        <ele>277.430213</ele>
        <time>2025-04-04T14:10:25.000Z</time>
      </trkpt>
      <trkpt lat="37.090165" lon="-79.595298">
        <ele>276.958583</ele>
        <time>2025-04-04T14:10:43.000Z</time>
      </trkpt>
      <trkpt lat="37.089816" lon="-79.595929">
        <ele>276.43261</ele>
        <time>2025-04-04T14:10:50.000Z</time>
      </trkpt>
      <trkpt lat="37.08974" lon="-79.596058">
        <ele>275.954343</ele>
        <time>2025-04-04T14:10:51.000Z</time>
      </trkpt>
      <trkpt lat="37.089568" lon="-79.596376">
        <ele>274.895172</ele>
        <time>2025-04-04T14:10:54.000Z</time>
      </trkpt>
      <trkpt lat="37.089135" lon="-79.597137">
        <ele>272.287651</ele>
        <time>2025-04-04T14:11:02.000Z</time>
      </trkpt>
      <trkpt lat="37.088592" lon="-79.597886">
        <ele>269.551803</ele>
        <time>2025-04-04T14:11:11.000Z</time>
      </trkpt>
      <trkpt lat="37.088272" lon="-79.598212">
        <ele>268.241925</ele>
        <time>2025-04-04T14:11:16.000Z</time>
      </trkpt>
      <trkpt lat="37.087766" lon="-79.598605">
        <ele>266.390503</ele>
        <time>2025-04-04T14:11:23.000Z</time>
      </trkpt>
      <trkpt lat="37.087289" lon="-79.598923">
        <ele>264.686864</ele>
        <time>2025-04-04T14:11:29.000Z</time>
      </trkpt>
      <trkpt lat="37.086963" lon="-79.599252">
        <ele>263.894031</ele>
        <time>2025-04-04T14:11:34.000Z</time>
      </trkpt>
      <trkpt lat="37.086911" lon="-79.599379">
        <ele>263.691875</ele>
        <time>2025-04-04T14:11:35.000Z</time>
      </trkpt>
      <trkpt lat="37.086752" lon="-79.599712">
        <ele>263.137271</ele>
        <time>2025-04-04T14:11:38.000Z</time>
      </trkpt>
      <trkpt lat="37.086008" lon="-79.602014">
        <ele>260.16585</ele>
        <time>2025-04-04T14:12:00.000Z</time>
      </trkpt>
      <trkpt lat="37.085827" lon="-79.602446">
        <ele>259.7008</ele>
        <time>2025-04-04T14:12:04.000Z</time>
      </trkpt>
      <trkpt lat="37.08566" lon="-79.602713">
        <ele>259.385289</ele>
        <time>2025-04-04T14:12:07.000Z</time>
      </trkpt>
      <trkpt lat="37.08545" lon="-79.602982">
        <ele>259.251179</ele>
        <time>2025-04-04T14:12:10.000Z</time>
      </trkpt>
      <trkpt lat="37.085193" lon="-79.603161">
        <ele>259.344371</ele>
        <time>2025-04-04T14:12:13.000Z</time>
      </trkpt>
      <trkpt lat="37.083908" lon="-79.603637">
        <ele>259.75909</ele>
        <time>2025-04-04T14:12:28.000Z</time>
      </trkpt>
      <trkpt lat="37.083605" lon="-79.603818">
        <ele>259.564764</ele>
        <time>2025-04-04T14:12:32.000Z</time>
      </trkpt>
      <trkpt lat="37.083364" lon="-79.604111">
        <ele>259.357179</ele>
        <time>2025-04-04T14:12:36.000Z</time>
      </trkpt>
      <trkpt lat="37.083195" lon="-79.604426">
        <ele>259.164794</ele>
        <time>2025-04-04T14:12:39.000Z</time>
      </trkpt>
      <trkpt lat="37.08312" lon="-79.604705">
        <ele>259.017366</ele>
        <time>2025-04-04T14:12:42.000Z</time>
      </trkpt>
      <trkpt lat="37.082957" lon="-79.606612">
        <ele>258.729047</ele>
        <time>2025-04-04T14:12:59.000Z</time>
      </trkpt>
      <trkpt lat="37.082892" lon="-79.606947">
        <ele>258.758291</ele>
        <time>2025-04-04T14:13:02.000Z</time>
      </trkpt>
      <trkpt lat="37.082819" lon="-79.607147">
        <ele>258.775848</ele>
        <time>2025-04-04T14:13:04.000Z</time>
      </trkpt>
      <trkpt lat="37.082613" lon="-79.607478">
        <ele>258.810202</ele>
        <time>2025-04-04T14:13:08.000Z</time>
      </trkpt>
      <trkpt lat="37.082453" lon="-79.607637">
        <ele>258.519656</ele>
        <time>2025-04-04T14:13:10.000Z</time>
      </trkpt>
      <trkpt lat="37.082144" lon="-79.607807">
        <ele>257.683875</ele>
        <time>2025-04-04T14:13:14.000Z</time>
      </trkpt>
      <trkpt lat="37.081572" lon="-79.608026">
        <ele>256.178352</ele>
        <time>2025-04-04T14:13:21.000Z</time>
      </trkpt>
      <trkpt lat="37.081296" lon="-79.608203">
        <ele>255.390756</ele>
        <time>2025-04-04T14:13:24.000Z</time>
      </trkpt>
      <trkpt lat="37.080932" lon="-79.608529">
        <ele>254.256326</ele>
        <time>2025-04-04T14:13:29.000Z</time>
      </trkpt>
      <trkpt lat="37.080365" lon="-79.609079">
        <ele>251.354332</ele>
        <time>2025-04-04T14:13:37.000Z</time>
      </trkpt>
      <trkpt lat="37.080144" lon="-79.609336">
        <ele>250.159826</ele>
        <time>2025-04-04T14:13:40.000Z</time>
      </trkpt>
      <trkpt lat="37.080096" lon="-79.609449">
        <ele>249.792384</ele>
        <time>2025-04-04T14:13:41.000Z</time>
      </trkpt>
      <trkpt lat="37.080036" lon="-79.609651">
        <ele>249.068387</ele>
        <time>2025-04-04T14:13:43.000Z</time>
      </trkpt>
      <trkpt lat="37.080022" lon="-79.609831">
        <ele>248.487168</ele>
        <time>2025-04-04T14:13:45.000Z</time>
      </trkpt>
      <trkpt lat="37.080063" lon="-79.610276">
        <ele>247.082732</ele>
        <time>2025-04-04T14:13:49.000Z</time>
      </trkpt>
      <trkpt lat="37.080018" lon="-79.610438">
        <ele>247.025918</ele>
        <time>2025-04-04T14:13:51.000Z</time>
      </trkpt>
      <trkpt lat="37.079996" lon="-79.610505">
        <ele>246.999465</ele>
        <time>2025-04-04T14:13:52.000Z</time>
      </trkpt>
      <trkpt lat="37.079737" lon="-79.610769">
        <ele>246.868136</ele>
        <time>2025-04-04T14:13:56.000Z</time>
      </trkpt>
      <trkpt lat="37.079655" lon="-79.610895">
        <ele>246.814845</ele>
        <time>2025-04-04T14:13:57.000Z</time>
      </trkpt>
      <trkpt lat="37.079534" lon="-79.61119">
        <ele>246.710813</ele>
        <time>2025-04-04T14:14:00.000Z</time>
      </trkpt>
      <trkpt lat="37.07945" lon="-79.611525">
        <ele>246.599265</ele>
        <time>2025-04-04T14:14:03.000Z</time>
      </trkpt>
      <trkpt lat="37.079353" lon="-79.611691">
        <ele>246.536551</ele>
        <time>2025-04-04T14:14:05.000Z</time>
      </trkpt>
      <trkpt lat="37.079163" lon="-79.611852">
        <ele>246.445662</ele>
        <time>2025-04-04T14:14:08.000Z</time>
      </trkpt>
      <trkpt lat="37.078781" lon="-79.611978">
        <ele>246.66401</ele>
        <time>2025-04-04T14:14:12.000Z</time>
      </trkpt>
      <trkpt lat="37.078661" lon="-79.612054">
        <ele>246.858276</ele>
        <time>2025-04-04T14:14:13.000Z</time>
      </trkpt>
      <trkpt lat="37.07858" lon="-79.612151">
        <ele>247.013463</ele>
        <time>2025-04-04T14:14:14.000Z</time>
      </trkpt>
      <trkpt lat="37.078518" lon="-79.612257">
        <ele>247.167567</ele>
        <time>2025-04-04T14:14:15.000Z</time>
      </trkpt>
      <trkpt lat="37.078484" lon="-79.612442">
        <ele>247.396598</ele>
        <time>2025-04-04T14:14:17.000Z</time>
      </trkpt>
      <trkpt lat="37.078479" lon="-79.612619">
        <ele>247.626725</ele>
        <time>2025-04-04T14:14:19.000Z</time>
      </trkpt>
      <trkpt lat="37.078574" lon="-79.613024">
        <ele>248.130413</ele>
        <time>2025-04-04T14:14:23.000Z</time>
      </trkpt>
      <trkpt lat="37.078684" lon="-79.613362">
        <ele>248.559593</ele>
        <time>2025-04-04T14:14:26.000Z</time>
      </trkpt>
      <trkpt lat="37.078818" lon="-79.613714">
        <ele>249.018182</ele>
        <time>2025-04-04T14:14:29.000Z</time>
      </trkpt>
      <trkpt lat="37.079065" lon="-79.614117">
        <ele>249.20666</ele>
        <time>2025-04-04T14:14:34.000Z</time>
      </trkpt>
      <trkpt lat="37.079207" lon="-79.614463">
        <ele>249.329322</ele>
        <time>2025-04-04T14:14:37.000Z</time>
      </trkpt>
      <trkpt lat="37.079288" lon="-79.614827">
        <ele>249.450241</ele>
        <time>2025-04-04T14:14:40.000Z</time>
      </trkpt>
      <trkpt lat="37.079298" lon="-79.615069">
        <ele>249.529672</ele>
        <time>2025-04-04T14:14:42.000Z</time>
      </trkpt>
      <trkpt lat="37.0793" lon="-79.615233">
        <ele>249.583364</ele>
        <time>2025-04-04T14:14:43.000Z</time>
      </trkpt>
      <trkpt lat="37.079246" lon="-79.615394">
        <ele>249.636346</ele>
        <time>2025-04-04T14:14:45.000Z</time>
      </trkpt>
      <trkpt lat="37.079229" lon="-79.615441">
        <ele>249.656081</ele>
        <time>2025-04-04T14:14:45.000Z</time>
      </trkpt>
      <trkpt lat="37.079252" lon="-79.615404">
        <ele>249.675816</ele>
        <time>2025-04-04T14:14:45.000Z</time>
      </trkpt>
      <trkpt lat="37.079287" lon="-79.615245">
        <ele>249.7288</ele>
        <time>2025-04-04T14:14:46.000Z</time>
      </trkpt>
      <trkpt lat="37.079286" lon="-79.615071">
        <ele>249.75263</ele>
        <time>2025-04-04T14:14:48.000Z</time>
      </trkpt>
      <trkpt lat="37.079275" lon="-79.614828">
        <ele>249.5832</ele>
        <time>2025-04-04T14:14:50.000Z</time>
      </trkpt>
      <trkpt lat="37.079219" lon="-79.614448">
        <ele>249.325308</ele>
        <time>2025-04-04T14:14:53.000Z</time>
      </trkpt>
      <trkpt lat="37.07908" lon="-79.614117">
        <ele>249.063658</ele>
        <time>2025-04-04T14:14:56.000Z</time>
      </trkpt>
      <trkpt lat="37.078814" lon="-79.613709">
        <ele>248.715107</ele>
        <time>2025-04-04T14:15:01.000Z</time>
      </trkpt>
      <trkpt lat="37.078688" lon="-79.613355">
        <ele>248.452912</ele>
        <time>2025-04-04T14:15:04.000Z</time>
      </trkpt>
      <trkpt lat="37.078571" lon="-79.613028">
        <ele>248.195209</ele>
        <time>2025-04-04T14:15:07.000Z</time>
      </trkpt>
      <trkpt lat="37.078487" lon="-79.612623">
        <ele>247.78279</ele>
        <time>2025-04-04T14:15:11.000Z</time>
      </trkpt>
      <trkpt lat="37.078487" lon="-79.612433">
        <ele>247.59435</ele>
        <time>2025-04-04T14:15:13.000Z</time>
      </trkpt>
      <trkpt lat="37.07853" lon="-79.612259">
        <ele>247.406811</ele>
        <time>2025-04-04T14:15:15.000Z</time>
      </trkpt>
      <trkpt lat="37.078586" lon="-79.612156">
        <ele>247.280616</ele>
        <time>2025-04-04T14:15:16.000Z</time>
      </trkpt>
      <trkpt lat="37.078656" lon="-79.612063">
        <ele>247.153548</ele>
        <time>2025-04-04T14:15:17.000Z</time>
      </trkpt>
      <trkpt lat="37.078779" lon="-79.61199">
        <ele>246.994469</ele>
        <time>2025-04-04T14:15:19.000Z</time>
      </trkpt>
      <trkpt lat="37.079178" lon="-79.611842">
        <ele>246.49814</ele>
        <time>2025-04-04T14:15:24.000Z</time>
      </trkpt>
      <trkpt lat="37.079355" lon="-79.611699">
        <ele>246.21802</ele>
        <time>2025-04-04T14:15:26.000Z</time>
      </trkpt>
      <trkpt lat="37.079448" lon="-79.61153">
        <ele>246.046851</ele>
        <time>2025-04-04T14:15:28.000Z</time>
      </trkpt>
      <trkpt lat="37.079537" lon="-79.611193">
        <ele>246.448907</ele>
        <time>2025-04-04T14:15:31.000Z</time>
      </trkpt>
      <trkpt lat="37.07964" lon="-79.610889">
        <ele>246.823839</ele>
        <time>2025-04-04T14:15:34.000Z</time>
      </trkpt>
      <trkpt lat="37.079738" lon="-79.610775">
        <ele>247.015908</ele>
        <time>2025-04-04T14:15:35.000Z</time>
      </trkpt>
      <trkpt lat="37.079993" lon="-79.610518">
        <ele>247.489328</ele>
        <time>2025-04-04T14:15:39.000Z</time>
      </trkpt>
      <trkpt lat="37.080025" lon="-79.610439">
        <ele>247.584624</ele>
        <time>2025-04-04T14:15:40.000Z</time>
      </trkpt>
      <trkpt lat="37.080055" lon="-79.610272">
        <ele>247.775633</ele>
        <time>2025-04-04T14:15:42.000Z</time>
      </trkpt>
      <trkpt lat="37.080033" lon="-79.609844">
        <ele>248.279007</ele>
        <time>2025-04-04T14:15:46.000Z</time>
      </trkpt>
      <trkpt lat="37.080038" lon="-79.609663">
        <ele>248.487316</ele>
        <time>2025-04-04T14:15:48.000Z</time>
      </trkpt>
      <trkpt lat="37.080094" lon="-79.609435">
        <ele>249.055071</ele>
        <time>2025-04-04T14:15:50.000Z</time>
      </trkpt>
      <trkpt lat="37.080137" lon="-79.609338">
        <ele>249.48199</ele>
        <time>2025-04-04T14:15:51.000Z</time>
      </trkpt>
      <trkpt lat="37.080352" lon="-79.609077">
        <ele>250.869752</ele>
        <time>2025-04-04T14:15:54.000Z</time>
      </trkpt>
      <trkpt lat="37.080922" lon="-79.608525">
        <ele>254.24127</ele>
        <time>2025-04-04T14:16:02.000Z</time>
      </trkpt>
      <trkpt lat="37.081296" lon="-79.608195">
        <ele>256.314645</ele>
        <time>2025-04-04T14:16:07.000Z</time>
      </trkpt>
      <trkpt lat="37.081585" lon="-79.608016">
        <ele>257.104571</ele>
        <time>2025-04-04T14:16:11.000Z</time>
      </trkpt>
      <trkpt lat="37.082135" lon="-79.607809">
        <ele>257.621487</ele>
        <time>2025-04-04T14:16:17.000Z</time>
      </trkpt>
      <trkpt lat="37.082438" lon="-79.607645">
        <ele>257.908439</ele>
        <time>2025-04-04T14:16:21.000Z</time>
      </trkpt>
      <trkpt lat="37.082622" lon="-79.607476">
        <ele>258.092477</ele>
        <time>2025-04-04T14:16:24.000Z</time>
      </trkpt>
      <trkpt lat="37.082816" lon="-79.607151">
        <ele>258.381304</ele>
        <time>2025-04-04T14:16:28.000Z</time>
      </trkpt>
      <trkpt lat="37.082888" lon="-79.606955">
        <ele>258.523103</ele>
        <time>2025-04-04T14:16:30.000Z</time>
      </trkpt>
      <trkpt lat="37.082959" lon="-79.606609">
        <ele>258.620538</ele>
        <time>2025-04-04T14:16:33.000Z</time>
      </trkpt>
      <trkpt lat="37.083113" lon="-79.604699">
        <ele>259.146667</ele>
        <time>2025-04-04T14:16:50.000Z</time>
      </trkpt>
      <trkpt lat="37.083199" lon="-79.604426">
        <ele>259.211071</ele>
        <time>2025-04-04T14:16:53.000Z</time>
      </trkpt>
      <trkpt lat="37.083369" lon="-79.604119">
        <ele>259.295095</ele>
        <time>2025-04-04T14:16:56.000Z</time>
      </trkpt>
      <trkpt lat="37.083608" lon="-79.603819">
        <ele>259.385781</ele>
        <time>2025-04-04T14:17:00.000Z</time>
      </trkpt>
      <trkpt lat="37.083912" lon="-79.603629">
        <ele>259.479881</ele>
        <time>2025-04-04T14:17:04.000Z</time>
      </trkpt>
      <trkpt lat="37.085181" lon="-79.603161">
        <ele>259.568605</ele>
        <time>2025-04-04T14:17:19.000Z</time>
      </trkpt>
      <trkpt lat="37.085442" lon="-79.60297">
        <ele>259.543048</ele>
        <time>2025-04-04T14:17:22.000Z</time>
      </trkpt>
      <trkpt lat="37.08567" lon="-79.602711">
        <ele>259.516811</ele>
        <time>2025-04-04T14:17:25.000Z</time>
      </trkpt>
      <trkpt lat="37.085835" lon="-79.602451">
        <ele>259.494056</ele>
        <time>2025-04-04T14:17:28.000Z</time>
      </trkpt>
      <trkpt lat="37.086005" lon="-79.602024">
        <ele>259.853016</ele>
        <time>2025-04-04T14:17:32.000Z</time>
      </trkpt>
      <trkpt lat="37.086767" lon="-79.599707">
        <ele>263.244343</ele>
        <time>2025-04-04T14:17:54.000Z</time>
      </trkpt>
      <trkpt lat="37.0869" lon="-79.599364">
        <ele>263.828859</ele>
        <time>2025-04-04T14:17:57.000Z</time>
      </trkpt>
      <trkpt lat="37.086977" lon="-79.599253">
        <ele>264.04192</ele>
        <time>2025-04-04T14:17:58.000Z</time>
      </trkpt>
      <trkpt lat="37.0873" lon="-79.598929">
        <ele>264.830698</ele>
        <time>2025-04-04T14:18:03.000Z</time>
      </trkpt>
      <trkpt lat="37.087776" lon="-79.598594">
        <ele>265.859761</ele>
        <time>2025-04-04T14:18:09.000Z</time>
      </trkpt>
      <trkpt lat="37.088277" lon="-79.598208">
        <ele>268.076716</ele>
        <time>2025-04-04T14:18:16.000Z</time>
      </trkpt>
      <trkpt lat="37.088598" lon="-79.597895">
        <ele>269.656099</ele>
        <time>2025-04-04T14:18:21.000Z</time>
      </trkpt>
      <trkpt lat="37.089133" lon="-79.597126">
        <ele>272.698021</ele>
        <time>2025-04-04T14:18:30.000Z</time>
      </trkpt>
      <trkpt lat="37.089556" lon="-79.596374">
        <ele>274.646653</ele>
        <time>2025-04-04T14:18:38.000Z</time>
      </trkpt>
      <trkpt lat="37.089746" lon="-79.596065">
        <ele>275.438182</ele>
        <time>2025-04-04T14:18:41.000Z</time>
      </trkpt>
      <trkpt lat="37.089819" lon="-79.595929">
        <ele>275.795597</ele>
        <time>2025-04-04T14:18:42.000Z</time>
      </trkpt>
      <trkpt lat="37.090182" lon="-79.595293">
        <ele>277.390066</ele>
        <time>2025-04-04T14:18:49.000Z</time>
      </trkpt>
      <trkpt lat="37.0911" lon="-79.593649">
        <ele>277.626459</ele>
        <time>2025-04-04T14:19:07.000Z</time>
      </trkpt>
      <trkpt lat="37.091414" lon="-79.593142">
        <ele>277.125809</ele>
        <time>2025-04-04T14:19:13.000Z</time>
      </trkpt>
      <trkpt lat="37.091523" lon="-79.593442">
        <ele>276.711362</ele>
        <time>2025-04-04T14:19:16.000Z</time>
      </trkpt>
      <trkpt lat="37.092182" lon="-79.595269">
        <ele>273.878352</ele>
        <time>2025-04-04T14:19:34.000Z</time>
      </trkpt>
      <trkpt lat="37.093365" lon="-79.598673">
        <ele>266.755756</ele>
        <time>2025-04-04T14:20:07.000Z</time>
      </trkpt>
      <trkpt lat="37.093999" lon="-79.600391">
        <ele>261.489644</ele>
        <time>2025-04-04T14:20:24.000Z</time>
      </trkpt>
      <trkpt lat="37.094093" lon="-79.600662">
        <ele>260.574382</ele>
        <time>2025-04-04T14:20:27.000Z</time>
      </trkpt>
      <trkpt lat="37.094384" lon="-79.60148">
        <ele>258.759767</ele>
        <time>2025-04-04T14:20:35.000Z</time>
      </trkpt>
      <trkpt lat="37.094619" lon="-79.601898">
        <ele>258.069682</ele>
        <time>2025-04-04T14:20:40.000Z</time>
      </trkpt>
      <trkpt lat="37.094943" lon="-79.602207">
        <ele>257.371633</ele>
        <time>2025-04-04T14:20:45.000Z</time>
      </trkpt>
      <trkpt lat="37.095873" lon="-79.602931">
        <ele>255.449088</ele>
        <time>2025-04-04T14:20:57.000Z</time>
      </trkpt>
      <trkpt lat="37.096067" lon="-79.603123">
        <ele>255.024784</ele>
        <time>2025-04-04T14:21:00.000Z</time>
      </trkpt>
      <trkpt lat="37.096954" lon="-79.604248">
        <ele>252.9347</ele>
        <time>2025-04-04T14:21:14.000Z</time>
      </trkpt>
      <trkpt lat="37.097064" lon="-79.604444">
        <ele>252.705</ele>
        <time>2025-04-04T14:21:16.000Z</time>
      </trkpt>
      <trkpt lat="37.097232" lon="-79.604773">
        <ele>252.310566</ele>
        <time>2025-04-04T14:21:19.000Z</time>
      </trkpt>
      <trkpt lat="37.09731" lon="-79.605111">
        <ele>251.956664</ele>
        <time>2025-04-04T14:21:22.000Z</time>
      </trkpt>
      <trkpt lat="37.097337" lon="-79.605475">
        <ele>251.582117</ele>
        <time>2025-04-04T14:21:25.000Z</time>
      </trkpt>
      <trkpt lat="37.097204" lon="-79.60792">
        <ele>252.21663</ele>
        <time>2025-04-04T14:21:47.000Z</time>
      </trkpt>
      <trkpt lat="37.097101" lon="-79.608396">
        <ele>252.551751</ele>
        <time>2025-04-04T14:21:51.000Z</time>
      </trkpt>
      <trkpt lat="37.097018" lon="-79.608626">
        <ele>252.738727</ele>
        <time>2025-04-04T14:21:53.000Z</time>
      </trkpt>
      <trkpt lat="37.096862" lon="-79.608866">
        <ele>252.967696</ele>
        <time>2025-04-04T14:21:56.000Z</time>
      </trkpt>
      <trkpt lat="37.096703" lon="-79.609004">
        <ele>253.154289</ele>
        <time>2025-04-04T14:21:58.000Z</time>
      </trkpt>
      <trkpt lat="37.096663" lon="-79.609043">
        <ele>253.190922</ele>
        <time>2025-04-04T14:21:59.000Z</time>
      </trkpt>
      <trkpt lat="37.096416" lon="-79.609221">
        <ele>253.467883</ele>
        <time>2025-04-04T14:22:02.000Z</time>
      </trkpt>
      <trkpt lat="37.096145" lon="-79.609396">
        <ele>253.751981</ele>
        <time>2025-04-04T14:22:05.000Z</time>
      </trkpt>
      <trkpt lat="37.096007" lon="-79.609494">
        <ele>253.898896</ele>
        <time>2025-04-04T14:22:07.000Z</time>
      </trkpt>
      <trkpt lat="37.09578" lon="-79.609875">
        <ele>254.173213</ele>
        <time>2025-04-04T14:22:11.000Z</time>
      </trkpt>
      <trkpt lat="37.09574" lon="-79.609921">
        <ele>254.173203</ele>
        <time>2025-04-04T14:22:12.000Z</time>
      </trkpt>
      <trkpt lat="37.095683" lon="-79.609931">
        <ele>254.173211</ele>
        <time>2025-04-04T14:22:13.000Z</time>
      </trkpt>
      <trkpt lat="37.095621" lon="-79.610053">
        <ele>254.173204</ele>
        <time>2025-04-04T14:22:14.000Z</time>
      </trkpt>
      <trkpt lat="37.095582" lon="-79.610092">
        <ele>254.173209</ele>
        <time>2025-04-04T14:22:15.000Z</time>
      </trkpt>
      <trkpt lat="37.095084" lon="-79.610369">
        <ele>254.173213</ele>
        <time>2025-04-04T14:22:21.000Z</time>
      </trkpt>
      <trkpt lat="37.095073" lon="-79.610382">
        <ele>254.173205</ele>
        <time>2025-04-04T14:22:21.000Z</time>
      </trkpt>
      <trkpt lat="37.095029" lon="-79.610378">
        <ele>254.173218</ele>
        <time>2025-04-04T14:22:21.000Z</time>
      </trkpt>
      <trkpt lat="37.094976" lon="-79.61033">
        <ele>254.173219</ele>
        <time>2025-04-04T14:22:22.000Z</time>
      </trkpt>
      <trkpt lat="37.094912" lon="-79.610196">
        <ele>254.173207</ele>
        <time>2025-04-04T14:22:23.000Z</time>
      </trkpt>
      <trkpt lat="37.095438" lon="-79.609867">
        <ele>254.173214</ele>
        <time>2025-04-04T14:22:30.000Z</time>
      </trkpt>
      <trkpt lat="37.095484" lon="-79.60984">
        <ele>253.764439</ele>
        <time>2025-04-04T14:22:31.000Z</time>
      </trkpt>
      <trkpt lat="37.095517" lon="-79.609833">
        <ele>253.764439</ele>
        <time>2025-04-04T14:22:31.000Z</time>
      </trkpt>
      <trkpt lat="37.095606" lon="-79.609822">
        <ele>253.764444</ele>
        <time>2025-04-04T14:22:32.000Z</time>
      </trkpt>
      <trkpt lat="37.095617" lon="-79.609768">
        <ele>253.76445</ele>
        <time>2025-04-04T14:22:32.000Z</time>
      </trkpt>
      <trkpt lat="37.095684" lon="-79.609708">
        <ele>253.764447</ele>
        <time>2025-04-04T14:22:33.000Z</time>
      </trkpt>
      <trkpt lat="37.095999" lon="-79.609487">
        <ele>253.76445</ele>
        <time>2025-04-04T14:22:37.000Z</time>
      </trkpt>
      <trkpt lat="37.096144" lon="-79.609398">
        <ele>253.764451</ele>
        <time>2025-04-04T14:22:39.000Z</time>
      </trkpt>
      <trkpt lat="37.096408" lon="-79.609224">
        <ele>253.57702</ele>
        <time>2025-04-04T14:22:42.000Z</time>
      </trkpt>
      <trkpt lat="37.096664" lon="-79.60903">
        <ele>253.258506</ele>
        <time>2025-04-04T14:22:45.000Z</time>
      </trkpt>
      <trkpt lat="37.096711" lon="-79.609">
        <ele>253.216378</ele>
        <time>2025-04-04T14:22:46.000Z</time>
      </trkpt>
      <trkpt lat="37.096858" lon="-79.60886">
        <ele>253.001833</ele>
        <time>2025-04-04T14:22:48.000Z</time>
      </trkpt>
      <trkpt lat="37.097031" lon="-79.608623">
        <ele>252.73854</ele>
        <time>2025-04-04T14:22:51.000Z</time>
      </trkpt>
      <trkpt lat="37.097103" lon="-79.6084">
        <ele>252.523542</ele>
        <time>2025-04-04T14:22:53.000Z</time>
      </trkpt>
      <trkpt lat="37.09721" lon="-79.607926">
        <ele>252.10942</ele>
        <time>2025-04-04T14:22:57.000Z</time>
      </trkpt>
      <trkpt lat="37.097341" lon="-79.605487">
        <ele>251.212167</ele>
        <time>2025-04-04T14:23:19.000Z</time>
      </trkpt>
      <trkpt lat="37.097305" lon="-79.60512">
        <ele>251.532115</ele>
        <time>2025-04-04T14:23:22.000Z</time>
      </trkpt>
      <trkpt lat="37.097227" lon="-79.604773">
        <ele>252.028111</ele>
        <time>2025-04-04T14:23:25.000Z</time>
      </trkpt>
      <trkpt lat="37.097079" lon="-79.604445">
        <ele>252.580927</ele>
        <time>2025-04-04T14:23:28.000Z</time>
      </trkpt>
      <trkpt lat="37.096955" lon="-79.604248">
        <ele>252.902866</ele>
        <time>2025-04-04T14:23:30.000Z</time>
      </trkpt>
      <trkpt lat="37.096076" lon="-79.603122">
        <ele>255.079639</ele>
        <time>2025-04-04T14:23:44.000Z</time>
      </trkpt>
      <trkpt lat="37.095872" lon="-79.602935">
        <ele>255.472649</ele>
        <time>2025-04-04T14:23:47.000Z</time>
      </trkpt>
      <trkpt lat="37.094934" lon="-79.602214">
        <ele>257.255532</ele>
        <time>2025-04-04T14:23:59.000Z</time>
      </trkpt>
      <trkpt lat="37.094629" lon="-79.601898">
        <ele>258.144146</ele>
        <time>2025-04-04T14:24:03.000Z</time>
      </trkpt>
      <trkpt lat="37.094384" lon="-79.601489">
        <ele>259.025736</ele>
        <time>2025-04-04T14:24:08.000Z</time>
      </trkpt>
      <trkpt lat="37.094089" lon="-79.600666">
        <ele>260.614503</ele>
        <time>2025-04-04T14:24:16.000Z</time>
      </trkpt>
      <trkpt lat="37.093995" lon="-79.600377">
        <ele>261.168882</ele>
        <time>2025-04-04T14:24:19.000Z</time>
      </trkpt>
      <trkpt lat="37.093368" lon="-79.598659">
        <ele>266.77347</ele>
        <time>2025-04-04T14:24:36.000Z</time>
      </trkpt>
      <trkpt lat="37.092179" lon="-79.595278">
        <ele>273.865126</ele>
        <time>2025-04-04T14:25:09.000Z</time>
      </trkpt>
      <trkpt lat="37.091518" lon="-79.593433">
        <ele>276.617755</ele>
        <time>2025-04-04T14:25:27.000Z</time>
      </trkpt>
      <trkpt lat="37.09141" lon="-79.593139">
        <ele>276.889129</ele>
        <time>2025-04-04T14:25:30.000Z</time>
      </trkpt>
      <trkpt lat="37.091102" lon="-79.59364">
        <ele>277.430221</ele>
        <time>2025-04-04T14:25:36.000Z</time>
      </trkpt>
      <trkpt lat="37.090165" lon="-79.595309">
        <ele>276.958569</ele>
        <time>2025-04-04T14:25:54.000Z</time>
      </trkpt>
      <trkpt lat="37.089823" lon="-79.595935">
        <ele>276.43261</ele>
        <time>2025-04-04T14:26:01.000Z</time>
      </trkpt>
      <trkpt lat="37.089736" lon="-79.596068">
        <ele>275.954353</ele>
        <time>2025-04-04T14:26:03.000Z</time>
      </trkpt>
      <trkpt lat="37.089555" lon="-79.596367">
        <ele>274.895157</ele>
        <time>2025-04-04T14:26:06.000Z</time>
      </trkpt>
      <trkpt lat="37.08913" lon="-79.597131">
        <ele>272.287654</ele>
        <time>2025-04-04T14:26:14.000Z</time>
      </trkpt>
      <trkpt lat="37.088601" lon="-79.597895">
        <ele>269.551811</ele>
        <time>2025-04-04T14:26:23.000Z</time>
      </trkpt>
      <trkpt lat="37.088262" lon="-79.598218">
        <ele>268.241925</ele>
        <time>2025-04-04T14:26:28.000Z</time>
      </trkpt>
      <trkpt lat="37.087767" lon="-79.598604">
        <ele>266.390504</ele>
        <time>2025-04-04T14:26:34.000Z</time>
      </trkpt>
      <trkpt lat="37.087303" lon="-79.598933">
        <ele>264.686864</ele>
        <time>2025-04-04T14:26:40.000Z</time>
      </trkpt>
      <trkpt lat="37.086976" lon="-79.599249">
        <ele>263.894028</ele>
        <time>2025-04-04T14:26:45.000Z</time>
      </trkpt>
      <trkpt lat="37.086897" lon="-79.599363">
        <ele>263.691881</ele>
        <time>2025-04-04T14:26:46.000Z</time>
      </trkpt>
      <trkpt lat="37.086752" lon="-79.599705">
        <ele>263.13727</ele>
        <time>2025-04-04T14:26:49.000Z</time>
      </trkpt>
      <trkpt lat="37.086011" lon="-79.602017">
        <ele>260.165839</ele>
        <time>2025-04-04T14:27:11.000Z</time>
      </trkpt>
      <trkpt lat="37.08582" lon="-79.602458">
        <ele>259.700795</ele>
        <time>2025-04-04T14:27:15.000Z</time>
      </trkpt>
      <trkpt lat="37.085659" lon="-79.602704">
        <ele>259.385275</ele>
        <time>2025-04-04T14:27:18.000Z</time>
      </trkpt>
      <trkpt lat="37.085438" lon="-79.60298">
        <ele>259.251175</ele>
        <time>2025-04-04T14:27:21.000Z</time>
      </trkpt>
      <trkpt lat="37.085178" lon="-79.603175">
        <ele>259.344365</ele>
        <time>2025-04-04T14:27:24.000Z</time>
      </trkpt>
      <trkpt lat="37.08392" lon="-79.603632">
        <ele>259.759085</ele>
        <time>2025-04-04T14:27:39.000Z</time>
      </trkpt>
      <trkpt lat="37.083611" lon="-79.603828">
        <ele>259.564754</ele>
        <time>2025-04-04T14:27:43.000Z</time>
      </trkpt>
      <trkpt lat="37.083374" lon="-79.604108">
        <ele>259.357182</ele>
        <time>2025-04-04T14:27:47.000Z</time>
      </trkpt>
      <trkpt lat="37.0832" lon="-79.604423">
        <ele>259.164799</ele>
        <time>2025-04-04T14:27:50.000Z</time>
      </trkpt>
      <trkpt lat="37.083115" lon="-79.604709">
        <ele>259.017365</ele>
        <time>2025-04-04T14:27:53.000Z</time>
      </trkpt>
      <trkpt lat="37.082972" lon="-79.606604">
        <ele>258.729037</ele>
        <time>2025-04-04T14:28:10.000Z</time>
      </trkpt>
      <trkpt lat="37.082889" lon="-79.606944">
        <ele>258.75829</ele>
        <time>2025-04-04T14:28:13.000Z</time>
      </trkpt>
      <trkpt lat="37.082817" lon="-79.607135">
        <ele>258.775847</ele>
        <time>2025-04-04T14:28:15.000Z</time>
      </trkpt>
      <trkpt lat="37.08262" lon="-79.607478">
        <ele>258.810189</ele>
        <time>2025-04-04T14:28:19.000Z</time>
      </trkpt>
      <trkpt lat="37.082442" lon="-79.607643">
        <ele>258.519663</ele>
        <time>2025-04-04T14:28:21.000Z</time>
      </trkpt>
      <trkpt lat="37.082142" lon="-79.607805">
        <ele>257.683885</ele>
        <time>2025-04-04T14:28:25.000Z</time>
      </trkpt>
      <trkpt lat="37.08158" lon="-79.608021">
        <ele>256.178363</ele>
        <time>2025-04-04T14:28:32.000Z</time>
      </trkpt>
      <trkpt lat="37.081299" lon="-79.608213">
        <ele>255.390739</ele>
        <time>2025-04-04T14:28:36.000Z</time>
      </trkpt>
      <trkpt lat="37.080925" lon="-79.608526">
        <ele>254.256324</ele>
        <time>2025-04-04T14:28:41.000Z</time>
      </trkpt>
      <trkpt lat="37.080347" lon="-79.60908">
        <ele>251.354332</ele>
        <time>2025-04-04T14:28:49.000Z</time>
      </trkpt>
      <trkpt lat="37.080148" lon="-79.609336">
        <ele>250.159834</ele>
        <time>2025-04-04T14:28:52.000Z</time>
      </trkpt>
      <trkpt lat="37.080088" lon="-79.609443">
        <ele>249.792373</ele>
        <time>2025-04-04T14:28:53.000Z</time>
      </trkpt>
      <trkpt lat="37.080025" lon="-79.609653">
        <ele>249.068392</ele>
        <time>2025-04-04T14:28:55.000Z</time>
      </trkpt>
      <trkpt lat="37.080023" lon="-79.609829">
        <ele>248.487176</ele>
        <time>2025-04-04T14:28:57.000Z</time>
      </trkpt>
      <trkpt lat="37.080062" lon="-79.610272">
        <ele>247.082737</ele>
        <time>2025-04-04T14:29:01.000Z</time>
      </trkpt>
      <trkpt lat="37.080031" lon="-79.610445">
        <ele>247.025905</ele>
        <time>2025-04-04T14:29:03.000Z</time>
      </trkpt>
      <trkpt lat="37.079989" lon="-79.610504">
        <ele>246.99947</ele>
        <time>2025-04-04T14:29:04.000Z</time>
      </trkpt>
      <trkpt lat="37.079739" lon="-79.610779">
        <ele>246.868131</ele>
        <time>2025-04-04T14:29:08.000Z</time>
      </trkpt>
      <trkpt lat="37.079645" lon="-79.610889">
        <ele>246.814841</ele>
        <time>2025-04-04T14:29:09.000Z</time>
      </trkpt>
      <trkpt lat="37.079542" lon="-79.6112">
        <ele>246.710821</ele>
        <time>2025-04-04T14:29:12.000Z</time>
      </trkpt>
      <trkpt lat="37.079453" lon="-79.611534">
        <ele>246.59927</ele>
        <time>2025-04-04T14:29:15.000Z</time>
      </trkpt>
      <trkpt lat="37.079367" lon="-79.611697">
        <ele>246.536549</ele>
        <time>2025-04-04T14:29:17.000Z</time>
      </trkpt>
      <trkpt lat="37.079165" lon="-79.611851">
        <ele>246.445648</ele>
        <time>2025-04-04T14:29:20.000Z</time>
      </trkpt>
      <trkpt lat="37.078771" lon="-79.611982">
        <ele>246.664011</ele>
        <time>2025-04-04T14:29:25.000Z</time>
      </trkpt>
      <trkpt lat="37.078664" lon="-79.612057">
        <ele>246.858286</ele>
        <time>2025-04-04T14:29:26.000Z</time>
      </trkpt>
      <trkpt lat="37.078588" lon="-79.612148">
        <ele>247.013467</ele>
        <time>2025-04-04T14:29:27.000Z</time>
      </trkpt>
      <trkpt lat="37.07852" lon="-79.61226">
        <ele>247.167579</ele>
        <time>2025-04-04T14:29:28.000Z</time>
      </trkpt>
      <trkpt lat="37.078479" lon="-79.612442">
        <ele>247.396615</ele>
        <time>2025-04-04T14:29:30.000Z</time>
      </trkpt>
      <trkpt lat="37.078482" lon="-79.612637">
        <ele>247.626742</ele>
        <time>2025-04-04T14:29:32.000Z</time>
      </trkpt>
      <trkpt lat="37.078573" lon="-79.613028">
        <ele>248.130403</ele>
        <time>2025-04-04T14:29:36.000Z</time>
      </trkpt>
      <trkpt lat="37.078686" lon="-79.613361">
        <ele>248.559577</ele>
        <time>2025-04-04T14:29:39.000Z</time>
      </trkpt>
      <trkpt lat="37.078823" lon="-79.613706">
        <ele>249.018171</ele>
        <time>2025-04-04T14:29:42.000Z</time>
      </trkpt>
      <trkpt lat="37.079075" lon="-79.614112">
        <ele>249.206653</ele>
        <time>2025-04-04T14:29:47.000Z</time>
      </trkpt>
      <trkpt lat="37.079213" lon="-79.614449">
        <ele>249.329328</ele>
        <time>2025-04-04T14:29:50.000Z</time>
      </trkpt>
      <trkpt lat="37.07928" lon="-79.614827">
        <ele>249.450235</ele>
        <time>2025-04-04T14:29:53.000Z</time>
      </trkpt>
      <trkpt lat="37.079286" lon="-79.61507">
        <ele>249.529669</ele>
        <time>2025-04-04T14:29:55.000Z</time>
      </trkpt>
      <trkpt lat="37.079297" lon="-79.615245">
        <ele>249.583364</ele>
        <time>2025-04-04T14:29:57.000Z</time>
      </trkpt>
      <trkpt lat="37.079244" lon="-79.615403">
        <ele>249.636344</ele>
        <time>2025-04-04T14:29:59.000Z</time>
      </trkpt>
      <trkpt lat="37.079221" lon="-79.615449">
        <ele>249.656081</ele>
        <time>2025-04-04T14:29:59.000Z</time>
      </trkpt>
      <trkpt lat="37.079255" lon="-79.615396">
        <ele>249.675824</ele>
        <time>2025-04-04T14:30:00.000Z</time>
      </trkpt>
      <trkpt lat="37.079285" lon="-79.615243">
        <ele>249.728798</ele>
        <time>2025-04-04T14:30:01.000Z</time>
      </trkpt>
      <trkpt lat="37.079292" lon="-79.615068">
        <ele>249.752635</ele>
        <time>2025-04-04T14:30:03.000Z</time>
      </trkpt>
      <trkpt lat="37.079277" lon="-79.614818">
        <ele>249.583209</ele>
        <time>2025-04-04T14:30:05.000Z</time>
      </trkpt>
      <trkpt lat="37.079205" lon="-79.614449">
        <ele>249.325311</ele>
        <time>2025-04-04T14:30:08.000Z</time>
      </trkpt>
      <trkpt lat="37.079069" lon="-79.614122">
        <ele>249.063661</ele>
        <time>2025-04-04T14:30:11.000Z</time>
      </trkpt>
      <trkpt lat="37.078822" lon="-79.613709">
        <ele>248.715108</ele>
        <time>2025-04-04T14:30:16.000Z</time>
      </trkpt>
      <trkpt lat="37.078696" lon="-79.613371">
        <ele>248.452908</ele>
        <time>2025-04-04T14:30:19.000Z</time>
      </trkpt>
      <trkpt lat="37.078588" lon="-79.613032">
        <ele>248.195209</ele>
        <time>2025-04-04T14:30:22.000Z</time>
      </trkpt>
      <trkpt lat="37.078482" lon="-79.612635">
        <ele>247.782778</ele>
        <time>2025-04-04T14:30:26.000Z</time>
      </trkpt>
      <trkpt lat="37.07848" lon="-79.612437">
        <ele>247.594354</ele>
        <time>2025-04-04T14:30:28.000Z</time>
      </trkpt>
      <trkpt lat="37.078528" lon="-79.612245">
        <ele>247.406799</ele>
        <time>2025-04-04T14:30:30.000Z</time>
      </trkpt>
      <trkpt lat="37.078592" lon="-79.612142">
        <ele>247.280609</ele>
        <time>2025-04-04T14:30:31.000Z</time>
      </trkpt>
      <trkpt lat="37.078655" lon="-79.612048">
        <ele>247.15355</ele>
        <time>2025-04-04T14:30:32.000Z</time>
      </trkpt>
      <trkpt lat="37.07878" lon="-79.611982">
        <ele>246.994461</ele>
        <time>2025-04-04T14:30:34.000Z</time>
      </trkpt>
      <trkpt lat="37.07917" lon="-79.611857">
        <ele>246.498146</ele>
        <time>2025-04-04T14:30:38.000Z</time>
      </trkpt>
      <trkpt lat="37.079357" lon="-79.611692">
        <ele>246.218022</ele>
        <time>2025-04-04T14:30:41.000Z</time>
      </trkpt>
      <trkpt lat="37.079448" lon="-79.611531">
        <ele>246.046837</ele>
        <time>2025-04-04T14:30:43.000Z</time>
      </trkpt>
      <trkpt lat="37.07954" lon="-79.611193">
        <ele>246.448908</ele>
        <time>2025-04-04T14:30:46.000Z</time>
      </trkpt>
      <trkpt lat="37.079651" lon="-79.610904">
        <ele>246.823833</ele>
        <time>2025-04-04T14:30:49.000Z</time>
      </trkpt>
      <trkpt lat="37.079734" lon="-79.610771">
        <ele>247.015911</ele>
        <time>2025-04-04T14:30:50.000Z</time>
      </trkpt>
      <trkpt lat="37.079986" lon="-79.610512">
        <ele>247.489336</ele>
        <time>2025-04-04T14:30:54.000Z</time>
      </trkpt>
      <trkpt lat="37.080032" lon="-79.610439">
        <ele>247.584624</ele>
        <time>2025-04-04T14:30:55.000Z</time>
      </trkpt>
      <trkpt lat="37.080051" lon="-79.610275">
        <ele>247.775634</ele>
        <time>2025-04-04T14:30:56.000Z</time>
      </trkpt>
      <trkpt lat="37.080031" lon="-79.609839">
        <ele>248.279011</ele>
        <time>2025-04-04T14:31:00.000Z</time>
      </trkpt>
      <trkpt lat="37.080033" lon="-79.609663">
        <ele>248.487318</ele>
        <time>2025-04-04T14:31:02.000Z</time>
      </trkpt>
      <trkpt lat="37.080103" lon="-79.609436">
        <ele>249.055073</ele>
        <time>2025-04-04T14:31:04.000Z</time>
      </trkpt>
      <trkpt lat="37.080153" lon="-79.609339">
        <ele>249.481972</ele>
        <time>2025-04-04T14:31:05.000Z</time>
      </trkpt>
      <trkpt lat="37.080353" lon="-79.609086">
        <ele>250.869756</ele>
        <time>2025-04-04T14:31:08.000Z</time>
      </trkpt>
      <trkpt lat="37.080924" lon="-79.60852">
        <ele>254.241268</ele>
        <time>2025-04-04T14:31:16.000Z</time>
      </trkpt>
      <trkpt lat="37.0813" lon="-79.608207">
        <ele>256.314651</ele>
        <time>2025-04-04T14:31:21.000Z</time>
      </trkpt>
      <trkpt lat="37.081568" lon="-79.608019">
        <ele>257.104578</ele>
        <time>2025-04-04T14:31:24.000Z</time>
      </trkpt>
      <trkpt lat="37.082152" lon="-79.607812">
        <ele>257.621493</ele>
        <time>2025-04-04T14:31:31.000Z</time>
      </trkpt>
      <trkpt lat="37.08245" lon="-79.607631">
        <ele>257.908446</ele>
        <time>2025-04-04T14:31:35.000Z</time>
      </trkpt>
      <trkpt lat="37.082607" lon="-79.607478">
        <ele>258.092467</ele>
        <time>2025-04-04T14:31:37.000Z</time>
      </trkpt>
      <trkpt lat="37.082808" lon="-79.607137">
        <ele>258.381301</ele>
        <time>2025-04-04T14:31:41.000Z</time>
      </trkpt>
      <trkpt lat="37.082887" lon="-79.606947">
        <ele>258.523121</ele>
        <time>2025-04-04T14:31:43.000Z</time>
      </trkpt>
      <trkpt lat="37.082963" lon="-79.606611">
        <ele>258.620539</ele>
        <time>2025-04-04T14:31:46.000Z</time>
      </trkpt>
      <trkpt lat="37.083108" lon="-79.604696">
        <ele>259.146657</ele>
        <time>2025-04-04T14:32:03.000Z</time>
      </trkpt>
      <trkpt lat="37.083194" lon="-79.604435">
        <ele>259.211062</ele>
        <time>2025-04-04T14:32:06.000Z</time>
      </trkpt>
      <trkpt lat="37.083366" lon="-79.604109">
        <ele>259.295107</ele>
        <time>2025-04-04T14:32:09.000Z</time>
      </trkpt>
      <trkpt lat="37.083606" lon="-79.60382">
        <ele>259.385773</ele>
        <time>2025-04-04T14:32:13.000Z</time>
      </trkpt>
      <trkpt lat="37.083915" lon="-79.603626">
        <ele>259.47988</ele>
        <time>2025-04-04T14:32:17.000Z</time>
      </trkpt>
      <trkpt lat="37.085194" lon="-79.603162">
        <ele>259.568611</ele>
        <time>2025-04-04T14:32:32.000Z</time>
      </trkpt>
      <trkpt lat="37.085438" lon="-79.602976">
        <ele>259.54305</ele>
        <time>2025-04-04T14:32:35.000Z</time>
      </trkpt>
      <trkpt lat="37.085671" lon="-79.602705">
        <ele>259.516805</ele>
        <time>2025-04-04T14:32:39.000Z</time>
      </trkpt>
      <trkpt lat="37.085833" lon="-79.602444">
        <ele>259.494058</ele>
        <time>2025-04-04T14:32:42.000Z</time>
      </trkpt>
      <trkpt lat="37.086011" lon="-79.60202">
        <ele>259.85302</ele>
        <time>2025-04-04T14:32:46.000Z</time>
      </trkpt>
      <trkpt lat="37.086758" lon="-79.599708">
        <ele>263.244341</ele>
        <time>2025-04-04T14:33:08.000Z</time>
      </trkpt>
      <trkpt lat="37.086904" lon="-79.599361">
        <ele>263.828848</ele>
        <time>2025-04-04T14:33:11.000Z</time>
      </trkpt>
      <trkpt lat="37.086976" lon="-79.59925">
        <ele>264.04191</ele>
        <time>2025-04-04T14:33:12.000Z</time>
      </trkpt>
      <trkpt lat="37.087289" lon="-79.598936">
        <ele>264.830714</ele>
        <time>2025-04-04T14:33:16.000Z</time>
      </trkpt>
      <trkpt lat="37.087763" lon="-79.598598">
        <ele>265.859764</ele>
        <time>2025-04-04T14:33:22.000Z</time>
      </trkpt>
      <trkpt lat="37.088274" lon="-79.598219">
        <ele>268.076713</ele>
        <time>2025-04-04T14:33:29.000Z</time>
      </trkpt>
      <trkpt lat="37.088587" lon="-79.597879">
        <ele>269.656094</ele>
        <time>2025-04-04T14:33:34.000Z</time>
      </trkpt>
      <trkpt lat="37.089122" lon="-79.597123">
        <ele>272.698027</ele>
        <time>2025-04-04T14:33:43.000Z</time>
      </trkpt>
      <trkpt lat="37.089568" lon="-79.596368">
        <ele>274.646639</ele>
        <time>2025-04-04T14:33:51.000Z</time>
      </trkpt>
      <trkpt lat="37.089746" lon="-79.596057">
        <ele>275.438179</ele>
        <time>2025-04-04T14:33:54.000Z</time>
      </trkpt>
      <trkpt lat="37.089819" lon="-79.595932">
        <ele>275.795591</ele>
        <time>2025-04-04T14:33:55.000Z</time>
      </trkpt>
      <trkpt lat="37.090183" lon="-79.595296">
        <ele>277.390062</ele>
        <time>2025-04-04T14:34:02.000Z</time>
      </trkpt>
      <trkpt lat="37.091108" lon="-79.593644">
        <ele>277.626458</ele>
        <time>2025-04-04T14:34:20.000Z</time>
      </trkpt>
      <trkpt lat="37.09142" lon="-79.593144">
        <ele>277.125798</ele>
        <time>2025-04-04T14:34:26.000Z</time>
      </trkpt>
      <trkpt lat="37.091525" lon="-79.593431">
        <ele>276.711375</ele>
        <time>2025-04-04T14:34:29.000Z</time>
      </trkpt>
      <trkpt lat="37.092194" lon="-79.595275">
        <ele>273.87834</ele>
        <time>2025-04-04T14:34:47.000Z</time>
      </trkpt>
      <trkpt lat="37.093357" lon="-79.598673">
        <ele>266.755769</ele>
        <time>2025-04-04T14:35:20.000Z</time>
      </trkpt>
      <trkpt lat="37.094002" lon="-79.600392">
        <ele>261.489631</ele>
        <time>2025-04-04T14:35:37.000Z</time>
      </trkpt>
      <trkpt lat="37.094102" lon="-79.600678">
        <ele>260.574382</ele>
        <time>2025-04-04T14:35:40.000Z</time>
      </trkpt>
      <trkpt lat="37.0944" lon="-79.601491">
        <ele>258.759765</ele>
        <time>2025-04-04T14:35:48.000Z</time>
      </trkpt>
      <trkpt lat="37.094631" lon="-79.601887">
        <ele>258.069674</ele>
        <time>2025-04-04T14:35:52.000Z</time>
      </trkpt>
      <trkpt lat="37.094931" lon="-79.602219">
        <ele>257.371635</ele>
        <time>2025-04-04T14:35:56.000Z</time>
      </trkpt>
      <trkpt lat="37.09587" lon="-79.60293">
        <ele>255.449081</ele>
        <time>2025-04-04T14:36:08.000Z</time>
      </trkpt>
      <trkpt lat="37.096067" lon="-79.603124">
        <ele>255.024768</ele>
        <time>2025-04-04T14:36:11.000Z</time>
      </trkpt>
      <trkpt lat="37.096957" lon="-79.604255">
        <ele>252.934713</ele>
        <time>2025-04-04T14:36:25.000Z</time>
      </trkpt>
      <trkpt lat="37.097075" lon="-79.60444">
        <ele>252.705</ele>
        <time>2025-04-04T14:36:27.000Z</time>
      </trkpt>
      <trkpt lat="37.09723" lon="-79.604772">
        <ele>252.310566</ele>
        <time>2025-04-04T14:36:30.000Z</time>
      </trkpt>
      <trkpt lat="37.097321" lon="-79.605106">
        <ele>251.956656</ele>
        <time>2025-04-04T14:36:33.000Z</time>
      </trkpt>
      <trkpt lat="37.097348" lon="-79.605473">
        <ele>251.582116</ele>
        <time>2025-04-04T14:36:36.000Z</time>
      </trkpt>
      <trkpt lat="37.097209" lon="-79.607915">
        <ele>252.216633</ele>
        <time>2025-04-04T14:36:58.000Z</time>
      </trkpt>
      <trkpt lat="37.097103" lon="-79.608384">
        <ele>252.551761</ele>
        <time>2025-04-04T14:37:02.000Z</time>
      </trkpt>
      <trkpt lat="37.097029" lon="-79.608619">
        <ele>252.738734</ele>
        <time>2025-04-04T14:37:04.000Z</time>
      </trkpt>
      <trkpt lat="37.096859" lon="-79.608865">
        <ele>252.9677</ele>
        <time>2025-04-04T14:37:07.000Z</time>
      </trkpt>
      <trkpt lat="37.096706" lon="-79.609003">
        <ele>253.154276</ele>
        <time>2025-04-04T14:37:09.000Z</time>
      </trkpt>
      <trkpt lat="37.096673" lon="-79.609029">
        <ele>253.190918</ele>
        <time>2025-04-04T14:37:09.000Z</time>
      </trkpt>
      <trkpt lat="37.096422" lon="-79.609225">
        <ele>253.467891</ele>
        <time>2025-04-04T14:37:12.000Z</time>
      </trkpt>
      <trkpt lat="37.096141" lon="-79.609395">
        <ele>253.751984</ele>
        <time>2025-04-04T14:37:15.000Z</time>
      </trkpt>
      <trkpt lat="37.095996" lon="-79.609489">
        <ele>253.89889</ele>
        <time>2025-04-04T14:37:17.000Z</time>
      </trkpt>
      <trkpt lat="37.095794" lon="-79.609865">
        <ele>254.173214</ele>
        <time>2025-04-04T14:37:21.000Z</time>
      </trkpt>
      <trkpt lat="37.095733" lon="-79.60993">
        <ele>254.17322</ele>
        <time>2025-04-04T14:37:22.000Z</time>
      </trkpt>
      <trkpt lat="37.095676" lon="-79.609942">
        <ele>254.173205</ele>
        <time>2025-04-04T14:37:23.000Z</time>
      </trkpt>
      <trkpt lat="37.095628" lon="-79.610049">
        <ele>254.173211</ele>
        <time>2025-04-04T14:37:24.000Z</time>
      </trkpt>
      <trkpt lat="37.095593" lon="-79.610102">
        <ele>254.173219</ele>
        <time>2025-04-04T14:37:25.000Z</time>
      </trkpt>
      <trkpt lat="37.095091" lon="-79.61038">
        <ele>254.173221</ele>
        <time>2025-04-04T14:37:31.000Z</time>
      </trkpt>
      <trkpt lat="37.095076" lon="-79.610376">
        <ele>254.173203</ele>
        <time>2025-04-04T14:37:31.000Z</time>
      </trkpt>
      <trkpt lat="37.095045" lon="-79.610377">
        <ele>254.173211</ele>
        <time>2025-04-04T14:37:31.000Z</time>
      </trkpt>
      <trkpt lat="37.09497" lon="-79.61033">
        <ele>254.173216</ele>
        <time>2025-04-04T14:37:32.000Z</time>
      </trkpt>
      <trkpt lat="37.094921" lon="-79.610185">
        <ele>254.173215</ele>
        <time>2025-04-04T14:37:33.000Z</time>
      </trkpt>
      <trkpt lat="37.095442" lon="-79.609866">
        <ele>254.173204</ele>
        <time>2025-04-04T14:37:39.000Z</time>
      </trkpt>
      <trkpt lat="37.095481" lon="-79.609845">
        <ele>253.764444</ele>
        <time>2025-04-04T14:37:39.000Z</time>
      </trkpt>
      <trkpt lat="37.095525" lon="-79.609824">
        <ele>253.764447</ele>
        <time>2025-04-04T14:37:40.000Z</time>
      </trkpt>
      <trkpt lat="37.095597" lon="-79.609824">
        <ele>253.764443</ele>
        <time>2025-04-04T14:37:41.000Z</time>
      </trkpt>
      <trkpt lat="37.095616" lon="-79.609781">
        <ele>253.764449</ele>
        <time>2025-04-04T14:37:41.000Z</time>
      </trkpt>
      <trkpt lat="37.095683" lon="-79.609701">
        <ele>253.764445</ele>
        <time>2025-04-04T14:37:42.000Z</time>
      </trkpt>
      <trkpt lat="37.096014" lon="-79.609492">
        <ele>253.764456</ele>
        <time>2025-04-04T14:37:46.000Z</time>
      </trkpt>
      <trkpt lat="37.096141" lon="-79.609397">
        <ele>253.76444</ele>
        <time>2025-04-04T14:37:48.000Z</time>
      </trkpt>
      <trkpt lat="37.096407" lon="-79.609225">
        <ele>253.57701</ele>
        <time>2025-04-04T14:37:51.000Z</time>
      </trkpt>
      <trkpt lat="37.096668" lon="-79.609026">
        <ele>253.258517</ele>
        <time>2025-04-04T14:37:54.000Z</time>
      </trkpt>
      <trkpt lat="37.096715" lon="-79.609005">
        <ele>253.216384</ele>
        <time>2025-04-04T14:37:55.000Z</time>
      </trkpt>
      <trkpt lat="37.096875" lon="-79.608852">
        <ele>253.001843</ele>
        <time>2025-04-04T14:37:57.000Z</time>
      </trkpt>
      <trkpt lat="37.097017" lon="-79.608616">
        <ele>252.738535</ele>
        <time>2025-04-04T14:38:00.000Z</time>
      </trkpt>
      <trkpt lat="37.097114" lon="-79.608393">
        <ele>252.523543</ele>
        <time>2025-04-04T14:38:02.000Z</time>
      </trkpt>
      <trkpt lat="37.097213" lon="-79.607918">
        <ele>252.109418</ele>
        <time>2025-04-04T14:38:06.000Z</time>
      </trkpt>
      <trkpt lat="37.097352" lon="-79.605485">
        <ele>251.212158</ele>
        <time>2025-04-04T14:38:28.000Z</time>
      </trkpt>
      <trkpt lat="37.097321" lon="-79.605103">
        <ele>251.532126</ele>
        <time>2025-04-04T14:38:31.000Z</time>
      </trkpt>
      <trkpt lat="37.09723" lon="-79.604773">
        <ele>252.028118</ele>
        <time>2025-04-04T14:38:34.000Z</time>
      </trkpt>
      <trkpt lat="37.097081" lon="-79.604445">
        <ele>252.580925</ele>
        <time>2025-04-04T14:38:37.000Z</time>
      </trkpt>
      <trkpt lat="37.096955" lon="-79.604259">
        <ele>252.902873</ele>
        <time>2025-04-04T14:38:39.000Z</time>
      </trkpt>
      <trkpt lat="37.096072" lon="-79.603127">
        <ele>255.079629</ele>
        <time>2025-04-04T14:38:53.000Z</time>
      </trkpt>
      <trkpt lat="37.095883" lon="-79.602942">
        <ele>255.472658</ele>
        <time>2025-04-04T14:38:56.000Z</time>
      </trkpt>
      <trkpt lat="37.094929" lon="-79.602216">
        <ele>257.255547</ele>
        <time>2025-04-04T14:39:08.000Z</time>
      </trkpt>
      <trkpt lat="37.094627" lon="-79.601892">
        <ele>258.144147</ele>
        <time>2025-04-04T14:39:12.000Z</time>
      </trkpt>
      <trkpt lat="37.094391" lon="-79.601495">
        <ele>259.025722</ele>
        <time>2025-04-04T14:39:16.000Z</time>
      </trkpt>
      <trkpt lat="37.094089" lon="-79.600669">
        <ele>260.614504</ele>
        <time>2025-04-04T14:39:24.000Z</time>
      </trkpt>
      <trkpt lat="37.093991" lon="-79.600387">
        <ele>261.168879</ele>
        <time>2025-04-04T14:39:27.000Z</time>
      </trkpt>
      <trkpt lat="37.093367" lon="-79.598672">
        <ele>266.77346</ele>
        <time>2025-04-04T14:39:44.000Z</time>
      </trkpt>
      <trkpt lat="37.092177" lon="-79.595282">
        <ele>273.86512</ele>
        <time>2025-04-04T14:40:17.000Z</time>
      </trkpt>
      <trkpt lat="37.091516" lon="-79.593428">
        <ele>276.617766</ele>
        <time>2025-04-04T14:40:35.000Z</time>
      </trkpt>
      <trkpt lat="37.091407" lon="-79.593141">
        <ele>276.889124</ele>
        <time>2025-04-04T14:40:38.000Z</time>
      </trkpt>
      <trkpt lat="37.091094" lon="-79.593647">
        <ele>277.430218</ele>
        <time>2025-04-04T14:40:44.000Z</time>
      </trkpt>
      <trkpt lat="37.09017" lon="-79.595305">
        <ele>276.958585</ele>
        <time>2025-04-04T14:41:02.000Z</time>
      </trkpt>
      <trkpt lat="37.089829" lon="-79.595919">
        <ele>276.432603</ele>
        <time>2025-04-04T14:41:09.000Z</time>
      </trkpt>
      <trkpt lat="37.089739" lon="-79.596068">
        <ele>275.954351</ele>
        <time>2025-04-04T14:41:11.000Z</time>
      </trkpt>
      <trkpt lat="37.089566" lon="-79.59637">
        <ele>274.895163</ele>
        <time>2025-04-04T14:41:14.000Z</time>
      </trkpt>
      <trkpt lat="37.089129" lon="-79.597131">
        <ele>272.287648</ele>
        <time>2025-04-04T14:41:22.000Z</time>
      </trkpt>
      <trkpt lat="37.088599" lon="-79.597879">
        <ele>269.551812</ele>
        <time>2025-04-04T14:41:31.000Z</time>
      </trkpt>
      <trkpt lat="37.08827" lon="-79.598223">
        <ele>268.241928</ele>
        <time>2025-04-04T14:41:36.000Z</time>
      </trkpt>
      <trkpt lat="37.087765" lon="-79.598593">
        <ele>266.390517</ele>
        <time>2025-04-04T14:41:43.000Z</time>
      </trkpt>
      <trkpt lat="37.087293" lon="-79.598936">
        <ele>264.686851</ele>
        <time>2025-04-04T14:41:49.000Z</time>
      </trkpt>
      <trkpt lat="37.086975" lon="-79.59926">
        <ele>263.894028</ele>
        <time>2025-04-04T14:41:54.000Z</time>
      </trkpt>
      <trkpt lat="37.086906" lon="-79.599367">
        <ele>263.69188</ele>
        <time>2025-04-04T14:41:55.000Z</time>
      </trkpt>
      <trkpt lat="37.086752" lon="-79.599707">
        <ele>263.137282</ele>
        <time>2025-04-04T14:41:58.000Z</time>
      </trkpt>
      <trkpt lat="37.086011" lon="-79.602013">
        <ele>260.165846</ele>
        <time>2025-04-04T14:42:20.000Z</time>
      </trkpt>
      <trkpt lat="37.085825" lon="-79.602449">
        <ele>259.700801</ele>
        <time>2025-04-04T14:42:24.000Z</time>
      </trkpt>
      <trkpt lat="37.085666" lon="-79.602708">
        <ele>259.385272</ele>
        <time>2025-04-04T14:42:27.000Z</time>
      </trkpt>
      <trkpt lat="37.085441" lon="-79.60298">
        <ele>259.251178</ele>
        <time>2025-04-04T14:42:30.000Z</time>
      </trkpt>
      <trkpt lat="37.085188" lon="-79.603174">
        <ele>259.344363</ele>
        <time>2025-04-04T14:42:33.000Z</time>
      </trkpt>
      <trkpt lat="37.08392" lon="-79.603633">
        <ele>259.759095</ele>
        <time>2025-04-04T14:42:48.000Z</time>
      </trkpt>
      <trkpt lat="37.083617" lon="-79.603827">
        <ele>259.564761</ele>
        <time>2025-04-04T14:42:52.000Z</time>
      </trkpt>
      <trkpt lat="37.083378" lon="-79.604117">
        <ele>259.357174</ele>
        <time>2025-04-04T14:42:56.000Z</time>
      </trkpt>
      <trkpt lat="37.083203" lon="-79.604427">
        <ele>259.164789</ele>
        <time>2025-04-04T14:42:59.000Z</time>
      </trkpt>
      <trkpt lat="37.083112" lon="-79.604702">
        <ele>259.017365</ele>
        <time>2025-04-04T14:43:02.000Z</time>
      </trkpt>
      <trkpt lat="37.082957" lon="-79.606611">
        <ele>258.729051</ele>
        <time>2025-04-04T14:43:19.000Z</time>
      </trkpt>
      <trkpt lat="37.082878" lon="-79.606949">
        <ele>258.75829</ele>
        <time>2025-04-04T14:43:22.000Z</time>
      </trkpt>
      <trkpt lat="37.082813" lon="-79.607137">
        <ele>258.775848</ele>
        <time>2025-04-04T14:43:24.000Z</time>
      </trkpt>
      <trkpt lat="37.082607" lon="-79.607467">
        <ele>258.810187</ele>
        <time>2025-04-04T14:43:28.000Z</time>
      </trkpt>
      <trkpt lat="37.082445" lon="-79.607628">
        <ele>258.519654</ele>
        <time>2025-04-04T14:43:30.000Z</time>
      </trkpt>
      <trkpt lat="37.08215" lon="-79.607796">
        <ele>257.683889</ele>
        <time>2025-04-04T14:43:34.000Z</time>
      </trkpt>
      <trkpt lat="37.081573" lon="-79.608024">
        <ele>256.17835</ele>
        <time>2025-04-04T14:43:41.000Z</time>
      </trkpt>
      <trkpt lat="37.081295" lon="-79.608212">
        <ele>255.390743</ele>
        <time>2025-04-04T14:43:45.000Z</time>
      </trkpt>
      <trkpt lat="37.080924" lon="-79.608521">
        <ele>254.256324</ele>
        <time>2025-04-04T14:43:50.000Z</time>
      </trkpt>
      <trkpt lat="37.080349" lon="-79.609086">
        <ele>251.354332</ele>
        <time>2025-04-04T14:43:58.000Z</time>
      </trkpt>
      <trkpt lat="37.080149" lon="-79.609346">
        <ele>250.159831</ele>
        <time>2025-04-04T14:44:01.000Z</time>
      </trkpt>
      <trkpt lat="37.080088" lon="-79.609432">
        <ele>249.792375</ele>
        <time>2025-04-04T14:44:02.000Z</time>
      </trkpt>
      <trkpt lat="37.080026" lon="-79.609661">
        <ele>249.068388</ele>
        <time>2025-04-04T14:44:04.000Z</time>
      </trkpt>
      <trkpt lat="37.080015" lon="-79.609842">
        <ele>248.487183</ele>
        <time>2025-04-04T14:44:06.000Z</time>
      </trkpt>
      <trkpt lat="37.080051" lon="-79.610272">
        <ele>247.082737</ele>
        <time>2025-04-04T14:44:10.000Z</time>
      </trkpt>
      <trkpt lat="37.080017" lon="-79.61044">
        <ele>247.025913</ele>
        <time>2025-04-04T14:44:12.000Z</time>
      </trkpt>
      <trkpt lat="37.07999" lon="-79.610507">
        <ele>246.999476</ele>
        <time>2025-04-04T14:44:13.000Z</time>
      </trkpt>
      <trkpt lat="37.079731" lon="-79.610767">
        <ele>246.868127</ele>
        <time>2025-04-04T14:44:17.000Z</time>
      </trkpt>
      <trkpt lat="37.079642" lon="-79.610891">
        <ele>246.814832</ele>
        <time>2025-04-04T14:44:18.000Z</time>
      </trkpt>
      <trkpt lat="37.079533" lon="-79.611188">
        <ele>246.710808</ele>
        <time>2025-04-04T14:44:21.000Z</time>
      </trkpt>
      <trkpt lat="37.079444" lon="-79.611525">
        <ele>246.599265</ele>
        <time>2025-04-04T14:44:24.000Z</time>
      </trkpt>
      <trkpt lat="37.079358" lon="-79.611695">
        <ele>246.536549</ele>
        <time>2025-04-04T14:44:26.000Z</time>
      </trkpt>
      <trkpt lat="37.079165" lon="-79.611848">
        <ele>246.44565</ele>
        <time>2025-04-04T14:44:29.000Z</time>
      </trkpt>
      <trkpt lat="37.078786" lon="-79.611991">
        <ele>246.663999</ele>
        <time>2025-04-04T14:44:33.000Z</time>
      </trkpt>
      <trkpt lat="37.078668" lon="-79.612053">
        <ele>246.858285</ele>
        <time>2025-04-04T14:44:34.000Z</time>
      </trkpt>
      <trkpt lat="37.07859" lon="-79.612144">
        <ele>247.013468</ele>
        <time>2025-04-04T14:44:35.000Z</time>
      </trkpt>
      <trkpt lat="37.078524" lon="-79.612247">
        <ele>247.167565</ele>
        <time>2025-04-04T14:44:36.000Z</time>
      </trkpt>
      <trkpt lat="37.078479" lon="-79.61244">
        <ele>247.396599</ele>
        <time>2025-04-04T14:44:38.000Z</time>
      </trkpt>
      <trkpt lat="37.078474" lon="-79.612625">
        <ele>247.626738</ele>
        <time>2025-04-04T14:44:40.000Z</time>
      </trkpt>
      <trkpt lat="37.078572" lon="-79.613033">
        <ele>248.13041</ele>
        <time>2025-04-04T14:44:44.000Z</time>
      </trkpt>
      <trkpt lat="37.078681" lon="-79.613372">
        <ele>248.559575</ele>
        <time>2025-04-04T14:44:47.000Z</time>
      </trkpt>
      <trkpt lat="37.07883" lon="-79.61371">
        <ele>249.018172</ele>
        <time>2025-04-04T14:44:50.000Z</time>
      </trkpt>
      <trkpt lat="37.079077" lon="-79.614124">
        <ele>249.206644</ele>
        <time>2025-04-04T14:44:55.000Z</time>
      </trkpt>
      <trkpt lat="37.079218" lon="-79.614459">
        <ele>249.329322</ele>
        <time>2025-04-04T14:44:58.000Z</time>
      </trkpt>
      <trkpt lat="37.079273" lon="-79.614827">
        <ele>249.450243</ele>
        <time>2025-04-04T14:45:01.000Z</time>
      </trkpt>
      <trkpt lat="37.079301" lon="-79.615067">
        <ele>249.529675</ele>
        <time>2025-04-04T14:45:03.000Z</time>
      </trkpt>
      <trkpt lat="37.079286" lon="-79.61524">
        <ele>249.583372</ele>
        <time>2025-04-04T14:45:05.000Z</time>
      </trkpt>
      <trkpt lat="37.079258" lon="-79.615396">
        <ele>249.636336</ele>
        <time>2025-04-04T14:45:06.000Z</time>
      </trkpt>
      <trkpt lat="37.079214" lon="-79.61545">
        <ele>249.656087</ele>
        <time>2025-04-04T14:45:07.000Z</time>
      </trkpt>
      <trkpt lat="37.079251" lon="-79.615407">
        <ele>249.675813</ele>
        <time>2025-04-04T14:45:08.000Z</time>
      </trkpt>
      <trkpt lat="37.079294" lon="-79.615242">
        <ele>249.728797</ele>
        <time>2025-04-04T14:45:10.000Z</time>
      </trkpt>
      <trkpt lat="37.079284" lon="-79.615078">
        <ele>249.752618</ele>
        <time>2025-04-04T14:45:11.000Z</time>
      </trkpt>
      <trkpt lat="37.079284" lon="-79.614822">
        <ele>249.58321</ele>
        <time>2025-04-04T14:45:13.000Z</time>
      </trkpt>
      <trkpt lat="37.079218" lon="-79.614452">
        <ele>249.325318</ele>
        <time>2025-04-04T14:45:16.000Z</time>
      </trkpt>
      <trkpt lat="37.079078" lon="-79.614121">
        <ele>249.063652</ele>
        <time>2025-04-04T14:45:19.000Z</time>
      </trkpt>
      <trkpt lat="37.078819" lon="-79.613717">
        <ele>248.715115</ele>
        <time>2025-04-04T14:45:24.000Z</time>
      </trkpt>
      <trkpt lat="37.078682" lon="-79.613367">
        <ele>248.452917</ele>
        <time>2025-04-04T14:45:27.000Z</time>
      </trkpt>
      <trkpt lat="37.078582" lon="-79.613024">
        <ele>248.195204</ele>
        <time>2025-04-04T14:45:30.000Z</time>
      </trkpt>
      <trkpt lat="37.078473" lon="-79.612629">
        <ele>247.782782</ele>
        <time>2025-04-04T14:45:34.000Z</time>
      </trkpt>
      <trkpt lat="37.078472" lon="-79.612432">
        <ele>247.594354</ele>
        <time>2025-04-04T14:45:36.000Z</time>
      </trkpt>
      <trkpt lat="37.078535" lon="-79.612262">
        <ele>247.406812</ele>
        <time>2025-04-04T14:45:38.000Z</time>
      </trkpt>
      <trkpt lat="37.078594" lon="-79.612153">
        <ele>247.280612</ele>
        <time>2025-04-04T14:45:39.000Z</time>
      </trkpt>
      <trkpt lat="37.078656" lon="-79.612048">
        <ele>247.153547</ele>
        <time>2025-04-04T14:45:40.000Z</time>
      </trkpt>
      <trkpt lat="37.078786" lon="-79.611977">
        <ele>246.994479</ele>
        <time>2025-04-04T14:45:42.000Z</time>
      </trkpt>
      <trkpt lat="37.079172" lon="-79.611842">
        <ele>246.498138</ele>
        <time>2025-04-04T14:45:46.000Z</time>
      </trkpt>
      <trkpt lat="37.079354" lon="-79.611685">
        <ele>246.218019</ele>
        <time>2025-04-04T14:45:48.000Z</time>
      </trkpt>
      <trkpt lat="37.079461" lon="-79.61154">
        <ele>246.046842</ele>
        <time>2025-04-04T14:45:50.000Z</time>
      </trkpt>
      <trkpt lat="37.079534" lon="-79.611196">
        <ele>246.44891</ele>
        <time>2025-04-04T14:45:53.000Z</time>
      </trkpt>
      <trkpt lat="37.079637" lon="-79.610906">
        <ele>246.823844</ele>
        <time>2025-04-04T14:45:56.000Z</time>
      </trkpt>
      <trkpt lat="37.079729" lon="-79.61077">
        <ele>247.015917</ele>
        <time>2025-04-04T14:45:58.000Z</time>
      </trkpt>
      <trkpt lat="37.079983" lon="-79.610509">
        <ele>247.489328</ele>
        <time>2025-04-04T14:46:02.000Z</time>
      </trkpt>
      <trkpt lat="37.080021" lon="-79.610433">
        <ele>247.584634</ele>
        <time>2025-04-04T14:46:03.000Z</time>
      </trkpt>
      <trkpt lat="37.080065" lon="-79.61027">
        <ele>247.775645</ele>
        <time>2025-04-04T14:46:05.000Z</time>
      </trkpt>
      <trkpt lat="37.080018" lon="-79.609835">
        <ele>248.279002</ele>
        <time>2025-04-04T14:46:09.000Z</time>
      </trkpt>
      <trkpt lat="37.080041" lon="-79.609651">
        <ele>248.487305</ele>
        <time>2025-04-04T14:46:11.000Z</time>
      </trkpt>
      <trkpt lat="37.08009" lon="-79.609445">
        <ele>249.055077</ele>
        <time>2025-04-04T14:46:13.000Z</time>
      </trkpt>
      <trkpt lat="37.080144" lon="-79.609348">
        <ele>249.48199</ele>
        <time>2025-04-04T14:46:14.000Z</time>
      </trkpt>
      <trkpt lat="37.080351" lon="-79.609078">
        <ele>250.869754</ele>
        <time>2025-04-04T14:46:17.000Z</time>
      </trkpt>
      <trkpt lat="37.080928" lon="-79.608513">
        <ele>254.241277</ele>
        <time>2025-04-04T14:46:25.000Z</time>
      </trkpt>
      <trkpt lat="37.081293" lon="-79.608197">
        <ele>256.314641</ele>
        <time>2025-04-04T14:46:30.000Z</time>
      </trkpt>
      <trkpt lat="37.081573" lon="-79.608027">
        <ele>257.104582</ele>
        <time>2025-04-04T14:46:33.000Z</time>
      </trkpt>
      <trkpt lat="37.082143" lon="-79.607798">
        <ele>257.621491</ele>
        <time>2025-04-04T14:46:40.000Z</time>
      </trkpt>
      <trkpt lat="37.082436" lon="-79.607642">
        <ele>257.908451</ele>
        <time>2025-04-04T14:46:44.000Z</time>
      </trkpt>
      <trkpt lat="37.082613" lon="-79.60748">
        <ele>258.092459</ele>
        <time>2025-04-04T14:46:46.000Z</time>
      </trkpt>
      <trkpt lat="37.082813" lon="-79.607149">
        <ele>258.381304</ele>
        <time>2025-04-04T14:46:50.000Z</time>
      </trkpt>
      <trkpt lat="37.082889" lon="-79.606948">
        <ele>258.523104</ele>
        <time>2025-04-04T14:46:52.000Z</time>
      </trkpt>
      <trkpt lat="37.08297" lon="-79.606617">
        <ele>258.620545</ele>
        <time>2025-04-04T14:46:55.000Z</time>
      </trkpt>
      <trkpt lat="37.083116" lon="-79.604704">
        <ele>259.146657</ele>
        <time>2025-04-04T14:47:12.000Z</time>
      </trkpt>
      <trkpt lat="37.083188" lon="-79.604422">
        <ele>259.211061</ele>
        <time>2025-04-04T14:47:15.000Z</time>
      </trkpt>
      <trkpt lat="37.083366" lon="-79.604114">
        <ele>259.295105</ele>
        <time>2025-04-04T14:47:18.000Z</time>
      </trkpt>
      <trkpt lat="37.083617" lon="-79.603836">
        <ele>259.385782</ele>
        <time>2025-04-04T14:47:22.000Z</time>
      </trkpt>
      <trkpt lat="37.083912" lon="-79.603633">
        <ele>259.479889</ele>
        <time>2025-04-04T14:47:26.000Z</time>
      </trkpt>
      <trkpt lat="37.085195" lon="-79.603176">
        <ele>259.568604</ele>
        <time>2025-04-04T14:47:41.000Z</time>
      </trkpt>
      <trkpt lat="37.085444" lon="-79.602975">
        <ele>259.543048</ele>
        <time>2025-04-04T14:47:44.000Z</time>
      </trkpt>
      <trkpt lat="37.085673" lon="-79.602713">
        <ele>259.516802</ele>
        <time>2025-04-04T14:47:47.000Z</time>
      </trkpt>
      <trkpt lat="37.085835" lon="-79.602458">
        <ele>259.494064</ele>
        <time>2025-04-04T14:47:50.000Z</time>
      </trkpt>
      <trkpt lat="37.086021" lon="-79.602023">
        <ele>259.853019</ele>
        <time>2025-04-04T14:47:54.000Z</time>
      </trkpt>
      <trkpt lat="37.086762" lon="-79.599717">
        <ele>263.244339</ele>
        <time>2025-04-04T14:48:16.000Z</time>
      </trkpt>
      <trkpt lat="37.086905" lon="-79.599367">
        <ele>263.82885</ele>
        <time>2025-04-04T14:48:19.000Z</time>
      </trkpt>
      <trkpt lat="37.086968" lon="-79.599251">
        <ele>264.041919</ele>
        <time>2025-04-04T14:48:20.000Z</time>
      </trkpt>
      <trkpt lat="37.087285" lon="-79.598937">
        <ele>264.830705</ele>
        <time>2025-04-04T14:48:24.000Z</time>
      </trkpt>
      <trkpt lat="37.087762" lon="-79.598605">
        <ele>265.859759</ele>
        <time>2025-04-04T14:48:30.000Z</time>
      </trkpt>
      <trkpt lat="37.088262" lon="-79.598222">
        <ele>268.076726</ele>
        <time>2025-04-04T14:48:37.000Z</time>
      </trkpt>
      <trkpt lat="37.088599" lon="-79.597893">
        <ele>269.656085</ele>
        <time>2025-04-04T14:48:42.000Z</time>
      </trkpt>
      <trkpt lat="37.089133" lon="-79.597137">
        <ele>272.698028</ele>
        <time>2025-04-04T14:48:51.000Z</time>
      </trkpt>
      <trkpt lat="37.089558" lon="-79.596364">
        <ele>274.646651</ele>
        <time>2025-04-04T14:48:59.000Z</time>
      </trkpt>
      <trkpt lat="37.089742" lon="-79.596071">
        <ele>275.43818</ele>
        <time>2025-04-04T14:49:02.000Z</time>
      </trkpt>
      <trkpt lat="37.08983" lon="-79.59592">
        <ele>275.795598</ele>
        <time>2025-04-04T14:49:04.000Z</time>
      </trkpt>
      <trkpt lat="37.090166" lon="-79.595307">
        <ele>277.390062</ele>
        <time>2025-04-04T14:49:11.000Z</time>
      </trkpt>
      <trkpt lat="37.091102" lon="-79.593636">
        <ele>277.626455</ele>
        <time>2025-04-04T14:49:29.000Z</time>
      </trkpt>
      <trkpt lat="37.091406" lon="-79.593142">
        <ele>277.125811</ele>
        <time>2025-04-04T14:49:35.000Z</time>
      </trkpt>
      <trkpt lat="37.091509" lon="-79.593429">
        <ele>276.711365</ele>
        <time>2025-04-04T14:49:38.000Z</time>
      </trkpt>
      <trkpt lat="37.092182" lon="-79.595271">
        <ele>273.878355</ele>
        <time>2025-04-04T14:49:56.000Z</time>
      </trkpt>
      <trkpt lat="37.093369" lon="-79.598656">
        <ele>266.755762</ele>
        <time>2025-04-04T14:50:29.000Z</time>
      </trkpt>
      <trkpt lat="37.093999" lon="-79.600374">
        <ele>261.48964</ele>
        <time>2025-04-04T14:50:46.000Z</time>
      </trkpt>
      <trkpt lat="37.094093" lon="-79.600676">
        <ele>260.574392</ele>
        <time>2025-04-04T14:50:49.000Z</time>
      </trkpt>
      <trkpt lat="37.094394" lon="-79.601495">
        <ele>258.759774</ele>
        <time>2025-04-04T14:50:57.000Z</time>
      </trkpt>
      <trkpt lat="37.094624" lon="-79.601897">
        <ele>258.069678</ele>
        <time>2025-04-04T14:51:01.000Z</time>
      </trkpt>
      <trkpt lat="37.094943" lon="-79.602209">
        <ele>257.371631</ele>
        <time>2025-04-04T14:51:05.000Z</time>
      </trkpt>
      <trkpt lat="37.095876" lon="-79.60294">
        <ele>255.44908</ele>
        <time>2025-04-04T14:51:17.000Z</time>
      </trkpt>
      <trkpt lat="37.096075" lon="-79.603127">
        <ele>255.024772</ele>
        <time>2025-04-04T14:51:20.000Z</time>
      </trkpt>
      <trkpt lat="37.096972" lon="-79.604261">
        <ele>252.934704</ele>
        <time>2025-04-04T14:51:34.000Z</time>
      </trkpt>
      <trkpt lat="37.097078" lon="-79.604436">
        <ele>252.705005</ele>
        <time>2025-04-04T14:51:36.000Z</time>
      </trkpt>
      <trkpt lat="37.097225" lon="-79.604772">
        <ele>252.310552</ele>
        <time>2025-04-04T14:51:39.000Z</time>
      </trkpt>
      <trkpt lat="37.097313" lon="-79.605103">
        <ele>251.956667</ele>
        <time>2025-04-04T14:51:42.000Z</time>
      </trkpt>
      <trkpt lat="37.097336" lon="-79.605488">
        <ele>251.582107</ele>
        <time>2025-04-04T14:51:45.000Z</time>
      </trkpt>
      <trkpt lat="37.097212" lon="-79.60793">
        <ele>252.216625</ele>
        <time>2025-04-04T14:52:07.000Z</time>
      </trkpt>
      <trkpt lat="37.09711" lon="-79.608387">
        <ele>252.551764</ele>
        <time>2025-04-04T14:52:11.000Z</time>
      </trkpt>
      <trkpt lat="37.097028" lon="-79.608619">
        <ele>252.738719</ele>
        <time>2025-04-04T14:52:13.000Z</time>
      </trkpt>
      <trkpt lat="37.096861" lon="-79.608859">
        <ele>252.967705</ele>
        <time>2025-04-04T14:52:16.000Z</time>
      </trkpt>
      <trkpt lat="37.096706" lon="-79.609014">
        <ele>253.154279</ele>
        <time>2025-04-04T14:52:18.000Z</time>
      </trkpt>
      <trkpt lat="37.096671" lon="-79.609032">
        <ele>253.190906</ele>
        <time>2025-04-04T14:52:18.000Z</time>
      </trkpt>
      <trkpt lat="37.096414" lon="-79.609221">
        <ele>253.467885</ele>
        <time>2025-04-04T14:52:21.000Z</time>
      </trkpt>
      <trkpt lat="37.096146" lon="-79.609402">
        <ele>253.751982</ele>
        <time>2025-04-04T14:52:24.000Z</time>
      </trkpt>
      <trkpt lat="37.096007" lon="-79.60949">
        <ele>253.898889</ele>
        <time>2025-04-04T14:52:26.000Z</time>
      </trkpt>
      <trkpt lat="37.095792" lon="-79.609862">
        <ele>254.173206</ele>
        <time>2025-04-04T14:52:30.000Z</time>
      </trkpt>
      <trkpt lat="37.095733" lon="-79.609921">
        <ele>254.173215</ele>
        <time>2025-04-04T14:52:31.000Z</time>
      </trkpt>
      <trkpt lat="37.095667" lon="-79.609949">
        <ele>254.173203</ele>
        <time>2025-04-04T14:52:32.000Z</time>
      </trkpt>
      <trkpt lat="37.095627" lon="-79.610052">
        <ele>254.173219</ele>
        <time>2025-04-04T14:52:33.000Z</time>
      </trkpt>
      <trkpt lat="37.095582" lon="-79.610095">
        <ele>254.173219</ele>
        <time>2025-04-04T14:52:34.000Z</time>
      </trkpt>
      <trkpt lat="37.095088" lon="-79.610374">
        <ele>254.17322</ele>
        <time>2025-04-04T14:52:40.000Z</time>
      </trkpt>
      <trkpt lat="37.095063" lon="-79.610386">
        <ele>254.173221</ele>
        <time>2025-04-04T14:52:40.000Z</time>
      </trkpt>
      <trkpt lat="37.095032" lon="-79.610382">
        <ele>254.173209</ele>
        <time>2025-04-04T14:52:40.000Z</time>
      </trkpt>
      <trkpt lat="37.09497" lon="-79.610343">
        <ele>254.173207</ele>
        <time>2025-04-04T14:52:41.000Z</time>
      </trkpt>
      <trkpt lat="37.094905" lon="-79.610182">
        <ele>254.173219</ele>
        <time>2025-04-04T14:52:43.000Z</time>
      </trkpt>
      <trkpt lat="37.095444" lon="-79.609869">
        <ele>254.17322</ele>
        <time>2025-04-04T14:52:50.000Z</time>
      </trkpt>
      <trkpt lat="37.095482" lon="-79.609841">
        <ele>253.764457</ele>
        <time>2025-04-04T14:52:50.000Z</time>
      </trkpt>
      <trkpt lat="37.095528" lon="-79.609825">
        <ele>253.764455</ele>
        <time>2025-04-04T14:52:51.000Z</time>
      </trkpt>
      <trkpt lat="37.095592" lon="-79.609816">
        <ele>253.764451</ele>
        <time>2025-04-04T14:52:52.000Z</time>
      </trkpt>
      <trkpt lat="37.095618" lon="-79.609783">
        <ele>253.764454</ele>
        <time>2025-04-04T14:52:52.000Z</time>
      </trkpt>
      <trkpt lat="37.09568" lon="-79.609703">
        <ele>253.764448</ele>
        <time>2025-04-04T14:52:53.000Z</time>
      </trkpt>
      <trkpt lat="37.096013" lon="-79.609487">
        <ele>253.764453</ele>
        <time>2025-04-04T14:52:57.000Z</time>
      </trkpt>
      <trkpt lat="37.096141" lon="-79.609399">
        <ele>253.764453</ele>
        <time>2025-04-04T14:52:59.000Z</time>
      </trkpt>
      <trkpt lat="37.096412" lon="-79.609217">
        <ele>253.577012</ele>
        <time>2025-04-04T14:53:02.000Z</time>
      </trkpt>
      <trkpt lat="37.096669" lon="-79.609027">
        <ele>253.25852</ele>
        <time>2025-04-04T14:53:05.000Z</time>
      </trkpt>
      <trkpt lat="37.096704" lon="-79.609007">
        <ele>253.216384</ele>
        <time>2025-04-04T14:53:05.000Z</time>
      </trkpt>
      <trkpt lat="37.096862" lon="-79.608858">
        <ele>253.001847</ele>
        <time>2025-04-04T14:53:07.000Z</time>
      </trkpt>
      <trkpt lat="37.097021" lon="-79.608616">
        <ele>252.738543</ele>
        <time>2025-04-04T14:53:10.000Z</time>
      </trkpt>
      <trkpt lat="37.097112" lon="-79.608386">
        <ele>252.52354</ele>
        <time>2025-04-04T14:53:12.000Z</time>
      </trkpt>
      <trkpt lat="37.097208" lon="-79.607932">
        <ele>252.109422</ele>
        <time>2025-04-04T14:53:16.000Z</time>
      </trkpt>
      <trkpt lat="37.09735" lon="-79.605476">
        <ele>251.212162</ele>
        <time>2025-04-04T14:53:38.000Z</time>
      </trkpt>
      <trkpt lat="37.097317" lon="-79.605112">
        <ele>251.53211</ele>
        <time>2025-04-04T14:53:41.000Z</time>
      </trkpt>
      <trkpt lat="37.09723" lon="-79.604786">
        <ele>252.028115</ele>
        <time>2025-04-04T14:53:44.000Z</time>
      </trkpt>
      <trkpt lat="37.097066" lon="-79.604432">
        <ele>252.580927</ele>
        <time>2025-04-04T14:53:48.000Z</time>
      </trkpt>
      <trkpt lat="37.096966" lon="-79.604249">
        <ele>252.902876</ele>
        <time>2025-04-04T14:53:50.000Z</time>
      </trkpt>
      <trkpt lat="37.096063" lon="-79.603125">
        <ele>255.079626</ele>
        <time>2025-04-04T14:54:04.000Z</time>
      </trkpt>
      <trkpt lat="37.095886" lon="-79.602948">
        <ele>255.472648</ele>
        <time>2025-04-04T14:54:07.000Z</time>
      </trkpt>
      <trkpt lat="37.094942" lon="-79.602206">
        <ele>257.255541</ele>
        <time>2025-04-04T14:54:19.000Z</time>
      </trkpt>
      <trkpt lat="37.094628" lon="-79.601894">
        <ele>258.144147</ele>
        <time>2025-04-04T14:54:23.000Z</time>
      </trkpt>
      <trkpt lat="37.094389" lon="-79.601493">
        <ele>259.025729</ele>
        <time>2025-04-04T14:54:27.000Z</time>
      </trkpt>
      <trkpt lat="37.094095" lon="-79.600677">
        <ele>260.614494</ele>
        <time>2025-04-04T14:54:35.000Z</time>
      </trkpt>
      <trkpt lat="37.093994" lon="-79.600385">
        <ele>261.168875</ele>
        <time>2025-04-04T14:54:38.000Z</time>
      </trkpt>
      <trkpt lat="37.093358" lon="-79.598672">
        <ele>266.773467</ele>
        <time>2025-04-04T14:54:55.000Z</time>
      </trkpt>
      <trkpt lat="37.092182" lon="-79.595272">
        <ele>273.865125</ele>
        <time>2025-04-04T14:55:28.000Z</time>
      </trkpt>
      <trkpt lat="37.091522" lon="-79.593437">
        <ele>276.617754</ele>
        <time>2025-04-04T14:55:46.000Z</time>
      </trkpt>
      <trkpt lat="37.091422" lon="-79.593145">
        <ele>276.889132</ele>
        <time>2025-04-04T14:55:49.000Z</time>
      </trkpt>
      <trkpt lat="37.091106" lon="-79.593644">
        <ele>277.430228</ele>
        <time>2025-04-04T14:55:55.000Z</time>
      </trkpt>
      <trkpt lat="37.090174" lon="-79.595306">
        <ele>276.958572</ele>
        <time>2025-04-04T14:56:13.000Z</time>
      </trkpt>
      <trkpt lat="37.089818" lon="-79.595923">
        <ele>276.432595</ele>
        <time>2025-04-04T14:56:20.000Z</time>
      </trkpt>
      <trkpt lat="37.089747" lon="-79.596056">
        <ele>275.954355</ele>
        <time>2025-04-04T14:56:21.000Z</time>
      </trkpt>
      <trkpt lat="37.089556" lon="-79.596374">
        <ele>274.895165</ele>
        <time>2025-04-04T14:56:25.000Z</time>
      </trkpt>
      <trkpt lat="37.089131" lon="-79.597128">
        <ele>272.287658</ele>
        <time>2025-04-04T14:56:33.000Z</time>
      </trkpt>
      <trkpt lat="37.088602" lon="-79.597886">
        <ele>269.551806</ele>
        <time>2025-04-04T14:56:42.000Z</time>
      </trkpt>
      <trkpt lat="37.088279" lon="-79.59822">
        <ele>268.241916</ele>
        <time>2025-04-04T14:56:47.000Z</time>
      </trkpt>
      <trkpt lat="37.087763" lon="-79.598593">
        <ele>266.390515</ele>
        <time>2025-04-04T14:56:54.000Z</time>
      </trkpt>
      <trkpt lat="37.087285" lon="-79.598921">
        <ele>264.686856</ele>
        <time>2025-04-04T14:57:00.000Z</time>
      </trkpt>
      <trkpt lat="37.086963" lon="-79.599259">
        <ele>263.894034</ele>
        <time>2025-04-04T14:57:05.000Z</time>
      </trkpt>
      <trkpt lat="37.086899" lon="-79.599377">
        <ele>263.691876</ele>
        <time>2025-04-04T14:57:06.000Z</time>
      </trkpt>
      <trkpt lat="37.086768" lon="-79.599709">
        <ele>263.137268</ele>
        <time>2025-04-04T14:57:09.000Z</time>
      </trkpt>
      <trkpt lat="37.086016" lon="-79.60201">
        <ele>260.165843</ele>
        <time>2025-04-04T14:57:31.000Z</time>
      </trkpt>
      <trkpt lat="37.085824" lon="-79.602445">
        <ele>259.700801</ele>
        <time>2025-04-04T14:57:35.000Z</time>
      </trkpt>
      <trkpt lat="37.085668" lon="-79.602719">
        <ele>259.385287</ele>
        <time>2025-04-04T14:57:38.000Z</time>
      </trkpt>
      <trkpt lat="37.08544" lon="-79.602977">
        <ele>259.251169</ele>
        <time>2025-04-04T14:57:41.000Z</time>
      </trkpt>
      <trkpt lat="37.085185" lon="-79.60317">
        <ele>259.344374</ele>
        <time>2025-04-04T14:57:44.000Z</time>
      </trkpt>
      <trkpt lat="37.083917" lon="-79.603635">
        <ele>259.759096</ele>
        <time>2025-04-04T14:57:59.000Z</time>
      </trkpt>
      <trkpt lat="37.083614" lon="-79.603822">
        <ele>259.564766</ele>
        <time>2025-04-04T14:58:03.000Z</time>
      </trkpt>
      <trkpt lat="37.08338" lon="-79.604112">
        <ele>259.357177</ele>
        <time>2025-04-04T14:58:07.000Z</time>
      </trkpt>
      <trkpt lat="37.083204" lon="-79.604422">
        <ele>259.164794</ele>
        <time>2025-04-04T14:58:10.000Z</time>
      </trkpt>
      <trkpt lat="37.083118" lon="-79.604706">
        <ele>259.017362</ele>
        <time>2025-04-04T14:58:13.000Z</time>
      </trkpt>
      <trkpt lat="37.082965" lon="-79.606618">
        <ele>258.729051</ele>
        <time>2025-04-04T14:58:30.000Z</time>
      </trkpt>
      <trkpt lat="37.082886" lon="-79.606945">
        <ele>258.758285</ele>
        <time>2025-04-04T14:58:33.000Z</time>
      </trkpt>
      <trkpt lat="37.082818" lon="-79.60714">
        <ele>258.775848</ele>
        <time>2025-04-04T14:58:35.000Z</time>
      </trkpt>
      <trkpt lat="37.082613" lon="-79.607473">
        <ele>258.810185</ele>
        <time>2025-04-04T14:58:39.000Z</time>
      </trkpt>
      <trkpt lat="37.082443" lon="-79.607635">
        <ele>258.519664</ele>
        <time>2025-04-04T14:58:41.000Z</time>
      </trkpt>
      <trkpt lat="37.082143" lon="-79.607794">
        <ele>257.683891</ele>
        <time>2025-04-04T14:58:45.000Z</time>
      </trkpt>
      <trkpt lat="37.081584" lon="-79.608029">
        <ele>256.178353</ele>
        <time>2025-04-04T14:58:52.000Z</time>
      </trkpt>
      <trkpt lat="37.081298" lon="-79.608203">
        <ele>255.390754</ele>
        <time>2025-04-04T14:58:56.000Z</time>
      </trkpt>
      <trkpt lat="37.080923" lon="-79.608519">
        <ele>254.256329</ele>
        <time>2025-04-04T14:59:01.000Z</time>
      </trkpt>
      <trkpt lat="37.080348" lon="-79.609075">
        <ele>251.354331</ele>
        <time>2025-04-04T14:59:09.000Z</time>
      </trkpt>
      <trkpt lat="37.080145" lon="-79.609344">
        <ele>250.159824</ele>
        <time>2025-04-04T14:59:12.000Z</time>
      </trkpt>
      <trkpt lat="37.08009" lon="-79.609443">
        <ele>249.792386</ele>
        <time>2025-04-04T14:59:13.000Z</time>
      </trkpt>
      <trkpt lat="37.080039" lon="-79.609651">
        <ele>249.06839</ele>
        <time>2025-04-04T14:59:15.000Z</time>
      </trkpt>
      <trkpt lat="37.080019" lon="-79.609839">
        <ele>248.487178</ele>
        <time>2025-04-04T14:59:17.000Z</time>
      </trkpt>
      <trkpt lat="37.080053" lon="-79.610282">
        <ele>247.082741</ele>
        <time>2025-04-04T14:59:21.000Z</time>
      </trkpt>
      <trkpt lat="37.080029" lon="-79.61044">
        <ele>247.025919</ele>
        <time>2025-04-04T14:59:22.000Z</time>
      </trkpt>
      <trkpt lat="37.079993" lon="-79.610501">
        <ele>246.999475</ele>
        <time>2025-04-04T14:59:23.000Z</time>
      </trkpt>
      <trkpt lat="37.079728" lon="-79.610766">
        <ele>246.868137</ele>
        <time>2025-04-04T14:59:27.000Z</time>
      </trkpt>
      <trkpt lat="37.079644" lon="-79.610903">
        <ele>246.814829</ele>
        <time>2025-04-04T14:59:29.000Z</time>
      </trkpt>
      <trkpt lat="37.079539" lon="-79.611189">
        <ele>246.710817</ele>
        <time>2025-04-04T14:59:32.000Z</time>
      </trkpt>
      <trkpt lat="37.079443" lon="-79.611538">
        <ele>246.599259</ele>
        <time>2025-04-04T14:59:35.000Z</time>
      </trkpt>
      <trkpt lat="37.079365" lon="-79.611689">
        <ele>246.536544</ele>
        <time>2025-04-04T14:59:37.000Z</time>
      </trkpt>
      <trkpt lat="37.079175" lon="-79.611852">
        <ele>246.445663</ele>
        <time>2025-04-04T14:59:40.000Z</time>
      </trkpt>
      <trkpt lat="37.078777" lon="-79.61199">
        <ele>246.664005</ele>
        <time>2025-04-04T14:59:45.000Z</time>
      </trkpt>
      <trkpt lat="37.07866" lon="-79.612053">
        <ele>246.858288</ele>
        <time>2025-04-04T14:59:46.000Z</time>
      </trkpt>
      <trkpt lat="37.078582" lon="-79.612153">
        <ele>247.013466</ele>
        <time>2025-04-04T14:59:47.000Z</time>
      </trkpt>
      <trkpt lat="37.078528" lon="-79.612247">
        <ele>247.167568</ele>
        <time>2025-04-04T14:59:48.000Z</time>
      </trkpt>
      <trkpt lat="37.078485" lon="-79.612442">
        <ele>247.396614</ele>
        <time>2025-04-04T14:59:50.000Z</time>
      </trkpt>
      <trkpt lat="37.078484" lon="-79.61263">
        <ele>247.626725</ele>
        <time>2025-04-04T14:59:52.000Z</time>
      </trkpt>
      <trkpt lat="37.078586" lon="-79.61304">
        <ele>248.130413</ele>
        <time>2025-04-04T14:59:56.000Z</time>
      </trkpt>
      <trkpt lat="37.078692" lon="-79.613363">
        <ele>248.55959</ele>
        <time>2025-04-04T14:59:59.000Z</time>
      </trkpt>
      <trkpt lat="37.078822" lon="-79.613705">
        <ele>249.018172</ele>
        <time>2025-04-04T15:00:02.000Z</time>
      </trkpt>
      <trkpt lat="37.079066" lon="-79.614107">
        <ele>249.20666</ele>
        <time>2025-04-04T15:00:06.000Z</time>
      </trkpt>
      <trkpt lat="37.079212" lon="-79.614463">
        <ele>249.329323</ele>
        <time>2025-04-04T15:00:10.000Z</time>
      </trkpt>
      <trkpt lat="37.079276" lon="-79.61482">
        <ele>249.45023</ele>
        <time>2025-04-04T15:00:13.000Z</time>
      </trkpt>
      <trkpt lat="37.0793" lon="-79.615072">
        <ele>249.529674</ele>
        <time>2025-04-04T15:00:15.000Z</time>
      </trkpt>
      <trkpt lat="37.079283" lon="-79.61524">
        <ele>249.583372</ele>
        <time>2025-04-04T15:00:17.000Z</time>
      </trkpt>
      <trkpt lat="37.079252" lon="-79.615401">
        <ele>249.636352</ele>
        <time>2025-04-04T15:00:18.000Z</time>
      </trkpt>
      <trkpt lat="37.079216" lon="-79.615442">
        <ele>249.656081</ele>
        <time>2025-04-04T15:00:19.000Z</time>
      </trkpt>
      <trkpt lat="37.079248" lon="-79.615392">
        <ele>249.675813</ele>
        <time>2025-04-04T15:00:20.000Z</time>
      </trkpt>
      <trkpt lat="37.079291" lon="-79.615247">
        <ele>249.7288</ele>
        <time>2025-04-04T15:00:21.000Z</time>
      </trkpt>
      <trkpt lat="37.079294" lon="-79.61507">
        <ele>249.752624</ele>
        <time>2025-04-04T15:00:23.000Z</time>
      </trkpt>
      <trkpt lat="37.079273" lon="-79.614819">
        <ele>249.583196</ele>
        <time>2025-04-04T15:00:25.000Z</time>
      </trkpt>
      <trkpt lat="37.079212" lon="-79.614455">
        <ele>249.325311</ele>
        <time>2025-04-04T15:00:28.000Z</time>
      </trkpt>
      <trkpt lat="37.07908" lon="-79.614114">
        <ele>249.06367</ele>
        <time>2025-04-04T15:00:31.000Z</time>
      </trkpt>
      <trkpt lat="37.078819" lon="-79.613709">
        <ele>248.715109</ele>
        <time>2025-04-04T15:00:36.000Z</time>
      </trkpt>
      <trkpt lat="37.078695" lon="-79.613373">
        <ele>248.452915</ele>
        <time>2025-04-04T15:00:39.000Z</time>
      </trkpt>
      <trkpt lat="37.07858" lon="-79.613035">
        <ele>248.195205</ele>
        <time>2025-04-04T15:00:42.000Z</time>
      </trkpt>
      <trkpt lat="37.078477" lon="-79.612619">
        <ele>247.782785</ele>
        <time>2025-04-04T15:00:46.000Z</time>
      </trkpt>
      <trkpt lat="37.07847" lon="-79.612426">
        <ele>247.594345</ele>
        <time>2025-04-04T15:00:48.000Z</time>
      </trkpt>
      <trkpt lat="37.078518" lon="-79.612257">
        <ele>247.406807</ele>
        <time>2025-04-04T15:00:50.000Z</time>
      </trkpt>
      <trkpt lat="37.078585" lon="-79.612153">
        <ele>247.280612</ele>
        <time>2025-04-04T15:00:51.000Z</time>
      </trkpt>
      <trkpt lat="37.078653" lon="-79.612066">
        <ele>247.153553</ele>
        <time>2025-04-04T15:00:52.000Z</time>
      </trkpt>
      <trkpt lat="37.078769" lon="-79.611988">
        <ele>246.994476</ele>
        <time>2025-04-04T15:00:53.000Z</time>
      </trkpt>
      <trkpt lat="37.079176" lon="-79.611856">
        <ele>246.498156</ele>
        <time>2025-04-04T15:00:58.000Z</time>
      </trkpt>
      <trkpt lat="37.079365" lon="-79.611689">
        <ele>246.218022</ele>
        <time>2025-04-04T15:01:01.000Z</time>
      </trkpt>
      <trkpt lat="37.079448" lon="-79.611524">
        <ele>246.046842</ele>
        <time>2025-04-04T15:01:03.000Z</time>
      </trkpt>
      <trkpt lat="37.079532" lon="-79.611194">
        <ele>246.4489</ele>
        <time>2025-04-04T15:01:06.000Z</time>
      </trkpt>
      <trkpt lat="37.079653" lon="-79.610906">
        <ele>246.823844</ele>
        <time>2025-04-04T15:01:09.000Z</time>
      </trkpt>
      <trkpt lat="37.079739" lon="-79.610778">
        <ele>247.015909</ele>
        <time>2025-04-04T15:01:10.000Z</time>
      </trkpt>
      <trkpt lat="37.08" lon="-79.610518">
        <ele>247.48933</ele>
        <time>2025-04-04T15:01:14.000Z</time>
      </trkpt>
      <trkpt lat="37.080031" lon="-79.610442">
        <ele>247.584639</ele>
        <time>2025-04-04T15:01:15.000Z</time>
      </trkpt>
      <trkpt lat="37.080058" lon="-79.610283">
        <ele>247.775648</ele>
        <time>2025-04-04T15:01:16.000Z</time>
      </trkpt>
      <trkpt lat="37.080032" lon="-79.609844">
        <ele>248.279007</ele>
        <time>2025-04-04T15:01:20.000Z</time>
      </trkpt>
      <trkpt lat="37.080025" lon="-79.609654">
        <ele>248.48731</ele>
        <time>2025-04-04T15:01:22.000Z</time>
      </trkpt>
      <trkpt lat="37.080086" lon="-79.609435">
        <ele>249.055069</ele>
        <time>2025-04-04T15:01:24.000Z</time>
      </trkpt>
      <trkpt lat="37.08015" lon="-79.60934">
        <ele>249.481989</ele>
        <time>2025-04-04T15:01:25.000Z</time>
      </trkpt>
      <trkpt lat="37.080362" lon="-79.609082">
        <ele>250.869747</ele>
        <time>2025-04-04T15:01:28.000Z</time>
      </trkpt>
      <trkpt lat="37.080935" lon="-79.608512">
        <ele>254.241262</ele>
        <time>2025-04-04T15:01:36.000Z</time>
      </trkpt>
      <trkpt lat="37.081291" lon="-79.608209">
        <ele>256.314635</ele>
        <time>2025-04-04T15:01:41.000Z</time>
      </trkpt>
      <trkpt lat="37.081567" lon="-79.608031">
        <ele>257.10457</ele>
        <time>2025-04-04T15:01:44.000Z</time>
      </trkpt>
      <trkpt lat="37.082134" lon="-79.607808">
        <ele>257.621483</ele>
        <time>2025-04-04T15:01:51.000Z</time>
      </trkpt>
      <trkpt lat="37.082441" lon="-79.607637">
        <ele>257.908447</ele>
        <time>2025-04-04T15:01:55.000Z</time>
      </trkpt>
      <trkpt lat="37.082613" lon="-79.607468">
        <ele>258.092465</ele>
        <time>2025-04-04T15:01:57.000Z</time>
      </trkpt>
      <trkpt lat="37.082818" lon="-79.607137">
        <ele>258.381301</ele>
        <time>2025-04-04T15:02:01.000Z</time>
      </trkpt>
      <trkpt lat="37.082879" lon="-79.606945">
        <ele>258.523108</ele>
        <time>2025-04-04T15:02:03.000Z</time>
      </trkpt>
      <trkpt lat="37.082958" lon="-79.606607">
        <ele>258.620531</ele>
        <time>2025-04-04T15:02:06.000Z</time>
      </trkpt>
      <trkpt lat="37.08311" lon="-79.604693">
        <ele>259.14666</ele>
        <time>2025-04-04T15:02:23.000Z</time>
      </trkpt>
      <trkpt lat="37.083191" lon="-79.60442">
        <ele>259.21106</ele>
        <time>2025-04-04T15:02:26.000Z</time>
      </trkpt>
      <trkpt lat="37.083364" lon="-79.604113">
        <ele>259.295105</ele>
        <time>2025-04-04T15:02:29.000Z</time>
      </trkpt>
      <trkpt lat="37.083614" lon="-79.603824">
        <ele>259.385777</ele>
        <time>2025-04-04T15:02:33.000Z</time>
      </trkpt>
      <trkpt lat="37.083907" lon="-79.603644">
        <ele>259.479884</ele>
        <time>2025-04-04T15:02:37.000Z</time>
      </trkpt>
      <trkpt lat="37.085193" lon="-79.603171">
        <ele>259.568617</ele>
        <time>2025-04-04T15:02:52.000Z</time>
      </trkpt>
      <trkpt lat="37.085433" lon="-79.602981">
        <ele>259.543042</ele>
        <time>2025-04-04T15:02:55.000Z</time>
      </trkpt>
      <trkpt lat="37.085657" lon="-79.602705">
        <ele>259.516796</ele>
        <time>2025-04-04T15:02:58.000Z</time>
      </trkpt>
      <trkpt lat="37.085834" lon="-79.602442">
        <ele>259.494065</ele>
        <time>2025-04-04T15:03:01.000Z</time>
      </trkpt>
      <trkpt lat="37.086006" lon="-79.602025">
        <ele>259.853031</ele>
        <time>2025-04-04T15:03:05.000Z</time>
      </trkpt>
      <trkpt lat="37.086761" lon="-79.599709">
        <ele>263.244354</ele>
        <time>2025-04-04T15:03:27.000Z</time>
      </trkpt>
      <trkpt lat="37.086907" lon="-79.599374">
        <ele>263.828855</ele>
        <time>2025-04-04T15:03:30.000Z</time>
      </trkpt>
      <trkpt lat="37.08698" lon="-79.599267">
        <ele>264.041909</ele>
        <time>2025-04-04T15:03:31.000Z</time>
      </trkpt>
      <trkpt lat="37.087288" lon="-79.598931">
        <ele>264.830706</ele>
        <time>2025-04-04T15:03:36.000Z</time>
      </trkpt>
      <trkpt lat="37.08776" lon="-79.598602">
        <ele>265.859768</ele>
        <time>2025-04-04T15:03:42.000Z</time>
      </trkpt>
      <trkpt lat="37.088267" lon="-79.598224">
        <ele>268.076716</ele>
        <time>2025-04-04T15:03:49.000Z</time>
      </trkpt>
      <trkpt lat="37.088604" lon="-79.597895">
        <ele>269.656082</ele>
        <time>2025-04-04T15:03:54.000Z</time>
      </trkpt>
      <trkpt lat="37.089119" lon="-79.597137">
        <ele>272.698018</ele>
        <time>2025-04-04T15:04:03.000Z</time>
      </trkpt>
      <trkpt lat="37.089562" lon="-79.596377">
        <ele>274.646654</ele>
        <time>2025-04-04T15:04:11.000Z</time>
      </trkpt>
      <trkpt lat="37.089736" lon="-79.596062">
        <ele>275.438193</ele>
        <time>2025-04-04T15:04:14.000Z</time>
      </trkpt>
      <trkpt lat="37.089827" lon="-79.595932">
        <ele>275.795596</ele>
        <time>2025-04-04T15:04:16.000Z</time>
      </trkpt>
      <trkpt lat="37.090169" lon="-79.595296">
        <ele>277.390058</ele>
        <time>2025-04-04T15:04:23.000Z</time>
      </trkpt>
      <trkpt lat="37.091104" lon="-79.59365">
        <ele>277.626445</ele>
        <time>2025-04-04T15:04:41.000Z</time>
      </trkpt>
      <trkpt lat="37.091416" lon="-79.593148">
        <ele>277.125811</ele>
        <time>2025-04-04T15:04:47.000Z</time>
      </trkpt>
      <trkpt lat="37.091511" lon="-79.593431">
        <ele>276.711379</ele>
        <time>2025-04-04T15:04:50.000Z</time>
      </trkpt>
      <trkpt lat="37.09219" lon="-79.595283">
        <ele>273.878349</ele>
        <time>2025-04-04T15:05:08.000Z</time>
      </trkpt>
      <trkpt lat="37.093354" lon="-79.598662">
        <ele>266.755764</ele>
        <time>2025-04-04T15:05:41.000Z</time>
      </trkpt>
      <trkpt lat="37.093998" lon="-79.60039">
        <ele>261.489636</ele>
        <time>2025-04-04T15:05:58.000Z</time>
      </trkpt>
      <trkpt lat="37.09409" lon="-79.600669">
        <ele>260.57439</ele>
        <time>2025-04-04T15:06:01.000Z</time>
      </trkpt>
      <trkpt lat="37.09439" lon="-79.601496">
        <ele>258.759757</ele>
        <time>2025-04-04T15:06:09.000Z</time>
      </trkpt>
      <trkpt lat="37.094622" lon="-79.601904">
        <ele>258.069672</ele>
        <time>2025-04-04T15:06:13.000Z</time>
      </trkpt>
      <trkpt lat="37.094936" lon="-79.602211">
        <ele>257.371643</ele>
        <time>2025-04-04T15:06:17.000Z</time>
      </trkpt>
      <trkpt lat="37.095882" lon="-79.602942">
        <ele>255.449074</ele>
        <time>2025-04-04T15:06:29.000Z</time>
      </trkpt>
      <trkpt lat="37.09606" lon="-79.603124">
        <ele>255.024781</ele>
        <time>2025-04-04T15:06:32.000Z</time>
      </trkpt>
      <trkpt lat="37.096965" lon="-79.604264">
        <ele>252.934704</ele>
        <time>2025-04-04T15:06:46.000Z</time>
      </trkpt>
      <trkpt lat="37.097082" lon="-79.604434">
        <ele>252.705009</ele>
        <time>2025-04-04T15:06:48.000Z</time>
      </trkpt>
      <trkpt lat="37.097237" lon="-79.604777">
        <ele>252.310564</ele>
        <time>2025-04-04T15:06:51.000Z</time>
      </trkpt>
      <trkpt lat="37.097311" lon="-79.60512">
        <ele>251.956655</ele>
        <time>2025-04-04T15:06:54.000Z</time>
      </trkpt>
      <trkpt lat="37.097342" lon="-79.605478">
        <ele>251.582121</ele>
        <time>2025-04-04T15:06:57.000Z</time>
      </trkpt>
      <trkpt lat="37.097208" lon="-79.60792">
        <ele>252.216624</ele>
        <time>2025-04-04T15:07:19.000Z</time>
      </trkpt>
      <trkpt lat="37.097107" lon="-79.608401">
        <ele>252.55176</ele>
        <time>2025-04-04T15:07:23.000Z</time>
      </trkpt>
      <trkpt lat="37.097024" lon="-79.608629">
        <ele>252.738734</ele>
        <time>2025-04-04T15:07:25.000Z</time>
      </trkpt>
      <trkpt lat="37.096874" lon="-79.608853">
        <ele>252.967701</ele>
        <time>2025-04-04T15:07:28.000Z</time>
      </trkpt>
      <trkpt lat="37.096712" lon="-79.609011">
        <ele>253.154283</ele>
        <time>2025-04-04T15:07:30.000Z</time>
      </trkpt>
      <trkpt lat="37.096667" lon="-79.609029">
        <ele>253.190913</ele>
        <time>2025-04-04T15:07:31.000Z</time>
      </trkpt>
      <trkpt lat="37.096407" lon="-79.609224">
        <ele>253.46789</ele>
        <time>2025-04-04T15:07:34.000Z</time>
      </trkpt>
      <trkpt lat="37.096147" lon="-79.609405">
        <ele>253.751985</ele>
        <time>2025-04-04T15:07:37.000Z</time>
      </trkpt>
      <trkpt lat="37.096005" lon="-79.609499">
        <ele>253.898887</ele>
        <time>2025-04-04T15:07:39.000Z</time>
      </trkpt>
      <trkpt lat="37.095793" lon="-79.609859">
        <ele>254.173216</ele>
        <time>2025-04-04T15:07:43.000Z</time>
      </trkpt>
      <trkpt lat="37.095738" lon="-79.609925">
        <ele>254.173214</ele>
        <time>2025-04-04T15:07:44.000Z</time>
      </trkpt>
      <trkpt lat="37.095684" lon="-79.609936">
        <ele>254.173218</ele>
        <time>2025-04-04T15:07:45.000Z</time>
      </trkpt>
      <trkpt lat="37.09562" lon="-79.610057">
        <ele>254.17321</ele>
        <time>2025-04-04T15:07:46.000Z</time>
      </trkpt>
      <trkpt lat="37.095581" lon="-79.610088">
        <ele>254.173207</ele>
        <time>2025-04-04T15:07:47.000Z</time>
      </trkpt>
      <trkpt lat="37.095089" lon="-79.610385">
        <ele>254.173211</ele>
        <time>2025-04-04T15:07:53.000Z</time>
      </trkpt>
      <trkpt lat="37.09507" lon="-79.610381">
        <ele>254.173207</ele>
        <time>2025-04-04T15:07:53.000Z</time>
      </trkpt>
      <trkpt lat="37.095041" lon="-79.610388">
        <ele>254.173205</ele>
        <time>2025-04-04T15:07:53.000Z</time>
      </trkpt>
      <trkpt lat="37.094977" lon="-79.610342">
        <ele>254.173212</ele>
        <time>2025-04-04T15:07:54.000Z</time>
      </trkpt>
      <trkpt lat="37.094915" lon="-79.610195">
        <ele>254.173207</ele>
        <time>2025-04-04T15:07:55.000Z</time>
      </trkpt>
      <trkpt lat="37.095444" lon="-79.609867">
        <ele>254.173215</ele>
        <time>2025-04-04T15:08:02.000Z</time>
      </trkpt>
      <trkpt lat="37.095494" lon="-79.609851">
        <ele>253.764456</ele>
        <time>2025-04-04T15:08:03.000Z</time>
      </trkpt>
      <trkpt lat="37.095515" lon="-79.609818">
        <ele>253.764453</ele>
        <time>2025-04-04T15:08:03.000Z</time>
      </trkpt>
      <trkpt lat="37.095604" lon="-79.60982">
        <ele>253.764448</ele>
        <time>2025-04-04T15:08:04.000Z</time>
      </trkpt>
      <trkpt lat="37.095615" lon="-79.609769">
        <ele>253.764448</ele>
        <time>2025-04-04T15:08:04.000Z</time>
      </trkpt>
      <trkpt lat="37.095678" lon="-79.609707">
        <ele>253.764447</ele>
        <time>2025-04-04T15:08:05.000Z</time>
      </trkpt>
      <trkpt lat="37.096007" lon="-79.609498">
        <ele>253.764447</ele>
        <time>2025-04-04T15:08:09.000Z</time>
      </trkpt>
      <trkpt lat="37.096152" lon="-79.609412">
        <ele>253.764447</ele>
        <time>2025-04-04T15:08:11.000Z</time>
      </trkpt>
      <trkpt lat="37.096417" lon="-79.609213">
        <ele>253.577019</ele>
        <time>2025-04-04T15:08:14.000Z</time>
      </trkpt>
      <trkpt lat="37.096663" lon="-79.609041">
        <ele>253.25851</ele>
        <time>2025-04-04T15:08:17.000Z</time>
      </trkpt>
      <trkpt lat="37.096715" lon="-79.609001">
        <ele>253.216381</ele>
        <time>2025-04-04T15:08:18.000Z</time>
      </trkpt>
      <trkpt lat="37.096864" lon="-79.608861">
        <ele>253.001834</ele>
        <time>2025-04-04T15:08:20.000Z</time>
      </trkpt>
      <trkpt lat="37.097025" lon="-79.608616">
        <ele>252.738541</ele>
        <time>2025-04-04T15:08:23.000Z</time>
      </trkpt>
      <trkpt lat="37.097118" lon="-79.60839">
        <ele>252.523546</ele>
        <time>2025-04-04T15:08:25.000Z</time>
      </trkpt>
      <trkpt lat="37.097205" lon="-79.607924">
        <ele>252.109421</ele>
        <time>2025-04-04T15:08:29.000Z</time>
      </trkpt>
      <trkpt lat="37.097342" lon="-79.605475">
        <ele>251.212165</ele>
        <time>2025-04-04T15:08:51.000Z</time>
      </trkpt>
      <trkpt lat="37.097311" lon="-79.60512">
        <ele>251.532109</ele>
        <time>2025-04-04T15:08:54.000Z</time>
      </trkpt>
      <trkpt lat="37.097231" lon="-79.604769">
        <ele>252.028112</ele>
        <time>2025-04-04T15:08:57.000Z</time>
      </trkpt>
      <trkpt lat="37.097065" lon="-79.604442">
        <ele>252.580936</ele>
        <time>2025-04-04T15:09:00.000Z</time>
      </trkpt>
      <trkpt lat="37.096967" lon="-79.604256">
        <ele>252.902861</ele>
        <time>2025-04-04T15:09:02.000Z</time>
      </trkpt>
      <trkpt lat="37.096064" lon="-79.603123">
        <ele>255.079637</ele>
        <time>2025-04-04T15:09:16.000Z</time>
      </trkpt>
      <trkpt lat="37.095881" lon="-79.602933">
        <ele>255.472664</ele>
        <time>2025-04-04T15:09:19.000Z</time>
      </trkpt>
      <trkpt lat="37.094928" lon="-79.602218">
        <ele>257.255538</ele>
        <time>2025-04-04T15:09:31.000Z</time>
      </trkpt>
      <trkpt lat="37.094619" lon="-79.601893">
        <ele>258.144156</ele>
        <time>2025-04-04T15:09:35.000Z</time>
      </trkpt>
      <trkpt lat="37.094393" lon="-79.601493">
        <ele>259.025727</ele>
        <time>2025-04-04T15:09:39.000Z</time>
      </trkpt>
      <trkpt lat="37.094101" lon="-79.600668">
        <ele>260.614511</ele>
        <time>2025-04-04T15:09:47.000Z</time>
      </trkpt>
      <trkpt lat="37.093986" lon="-79.600392">
        <ele>261.168876</ele>
        <time>2025-04-04T15:09:50.000Z</time>
      </trkpt>
      <trkpt lat="37.093367" lon="-79.59866">
        <ele>266.773463</ele>
        <time>2025-04-04T15:10:07.000Z</time>
      </trkpt>
      <trkpt lat="37.092193" lon="-79.595266">
        <ele>273.865129</ele>
        <time>2025-04-04T15:10:40.000Z</time>
      </trkpt>
      <trkpt lat="37.091517" lon="-79.593431">
        <ele>276.617766</ele>
        <time>2025-04-04T15:10:58.000Z</time>
      </trkpt>
      <trkpt lat="37.09142" lon="-79.593154">
        <ele>276.889139</ele>
        <time>2025-04-04T15:11:01.000Z</time>
      </trkpt>
      <trkpt lat="37.091108" lon="-79.593644">
        <ele>277.430225</ele>
        <time>2025-04-04T15:11:07.000Z</time>
      </trkpt>
      <trkpt lat="37.090167" lon="-79.595305">
        <ele>276.958577</ele>
        <time>2025-04-04T15:11:25.000Z</time>
      </trkpt>
      <trkpt lat="37.089828" lon="-79.595923">
        <ele>276.432601</ele>
        <time>2025-04-04T15:11:32.000Z</time>
      </trkpt>
      <trkpt lat="37.089732" lon="-79.596065">
        <ele>275.95435</ele>
        <time>2025-04-04T15:11:34.000Z</time>
      </trkpt>
      <trkpt lat="37.08957" lon="-79.596371">
        <ele>274.895157</ele>
        <time>2025-04-04T15:11:37.000Z</time>
      </trkpt>
      <trkpt lat="37.089127" lon="-79.597127">
        <ele>272.287655</ele>
        <time>2025-04-04T15:11:45.000Z</time>
      </trkpt>
      <trkpt lat="37.088594" lon="-79.597878">
        <ele>269.551813</ele>
        <time>2025-04-04T15:11:54.000Z</time>
      </trkpt>
      <trkpt lat="37.088276" lon="-79.598216">
        <ele>268.241921</ele>
        <time>2025-04-04T15:11:59.000Z</time>
      </trkpt>
      <trkpt lat="37.087778" lon="-79.598602">
        <ele>266.390517</ele>
        <time>2025-04-04T15:12:06.000Z</time>
      </trkpt>
      <trkpt lat="37.087293" lon="-79.598932">
        <ele>264.686853</ele>
        <time>2025-04-04T15:12:12.000Z</time>
      </trkpt>
      <trkpt lat="37.086976" lon="-79.599249">
        <ele>263.894036</ele>
        <time>2025-04-04T15:12:17.000Z</time>
      </trkpt>
      <trkpt lat="37.08691" lon="-79.599379">
        <ele>263.69188</ele>
        <time>2025-04-04T15:12:18.000Z</time>
      </trkpt>
      <trkpt lat="37.086758" lon="-79.599718">
        <ele>263.13728</ele>
        <time>2025-04-04T15:12:21.000Z</time>
      </trkpt>
      <trkpt lat="37.086008" lon="-79.602014">
        <ele>260.16585</ele>
        <time>2025-04-04T15:12:43.000Z</time>
      </trkpt>
      <trkpt lat="37.085819" lon="-79.602458">
        <ele>259.70079</ele>
        <time>2025-04-04T15:12:47.000Z</time>
      </trkpt>
      <trkpt lat="37.085656" lon="-79.602715">
        <ele>259.385289</ele>
        <time>2025-04-04T15:12:50.000Z</time>
      </trkpt>
      <trkpt lat="37.085434" lon="-79.602975">
        <ele>259.251169</ele>
        <time>2025-04-04T15:12:53.000Z</time>
      </trkpt>
      <trkpt lat="37.085185" lon="-79.603169">
        <ele>259.344378</ele>
        <time>2025-04-04T15:12:56.000Z</time>
      </trkpt>
      <trkpt lat="37.083909" lon="-79.603639">
        <ele>259.759092</ele>
        <time>2025-04-04T15:13:11.000Z</time>
      </trkpt>
      <trkpt lat="37.083607" lon="-79.603826">
        <ele>259.56475</ele>
        <time>2025-04-04T15:13:15.000Z</time>
      </trkpt>
      <trkpt lat="37.083368" lon="-79.604121">
        <ele>259.357182</ele>
        <time>2025-04-04T15:13:19.000Z</time>
      </trkpt>
      <trkpt lat="37.083205" lon="-79.604418">
        <ele>259.164787</ele>
        <time>2025-04-04T15:13:22.000Z</time>
      </trkpt>
      <trkpt lat="37.083115" lon="-79.604706">
        <ele>259.017361</ele>
        <time>2025-04-04T15:13:25.000Z</time>
      </trkpt>
      <trkpt lat="37.082955" lon="-79.606606">
        <ele>258.729043</ele>
        <time>2025-04-04T15:13:42.000Z</time>
      </trkpt>
      <trkpt lat="37.082877" lon="-79.606949">
        <ele>258.758273</ele>
        <time>2025-04-04T15:13:45.000Z</time>
      </trkpt>
      <trkpt lat="37.082809" lon="-79.607141">
        <ele>258.775838</ele>
        <time>2025-04-04T15:13:47.000Z</time>
      </trkpt>
      <trkpt lat="37.082608" lon="-79.607467">
        <ele>258.810196</ele>
        <time>2025-04-04T15:13:51.000Z</time>
      </trkpt>
      <trkpt lat="37.082448" lon="-79.607632">
        <ele>258.519663</ele>
        <time>2025-04-04T15:13:53.000Z</time>
      </trkpt>
      <trkpt lat="37.082135" lon="-79.607797">
        <ele>257.683889</ele>
        <time>2025-04-04T15:13:57.000Z</time>
      </trkpt>
      <trkpt lat="37.08158" lon="-79.60802">
        <ele>256.178357</ele>
        <time>2025-04-04T15:14:03.000Z</time>
      </trkpt>
      <trkpt lat="37.081292" lon="-79.608201">
        <ele>255.390748</ele>
        <time>2025-04-04T15:14:07.000Z</time>
      </trkpt>
      <trkpt lat="37.08094" lon="-79.608519">
        <ele>254.256326</ele>
        <time>2025-04-04T15:14:12.000Z</time>
      </trkpt>
      <trkpt lat="37.080363" lon="-79.609074">
        <ele>251.354338</ele>
        <time>2025-04-04T15:14:20.000Z</time>
      </trkpt>
      <trkpt lat="37.080149" lon="-79.60934">
        <ele>250.159834</ele>
        <time>2025-04-04T15:14:23.000Z</time>
      </trkpt>
      <trkpt lat="37.0801" lon="-79.609434">
        <ele>249.792372</ele>
        <time>2025-04-04T15:14:24.000Z</time>
      </trkpt>
      <trkpt lat="37.080027" lon="-79.609663">
        <ele>249.068377</ele>
        <time>2025-04-04T15:14:26.000Z</time>
      </trkpt>
      <trkpt lat="37.080026" lon="-79.609832">
        <ele>248.487184</ele>
        <time>2025-04-04T15:14:28.000Z</time>
      </trkpt>
      <trkpt lat="37.080052" lon="-79.610266">
        <ele>247.082733</ele>
        <time>2025-04-04T15:14:32.000Z</time>
      </trkpt>
      <trkpt lat="37.080018" lon="-79.610441">
        <ele>247.025913</ele>
        <time>2025-04-04T15:14:34.000Z</time>
      </trkpt>
      <trkpt lat="37.079982" lon="-79.610504">
        <ele>246.999473</ele>
        <time>2025-04-04T15:14:35.000Z</time>
      </trkpt>
      <trkpt lat="37.079741" lon="-79.610765">
        <ele>246.868128</ele>
        <time>2025-04-04T15:14:39.000Z</time>
      </trkpt>
      <trkpt lat="37.079638" lon="-79.610888">
        <ele>246.814833</ele>
        <time>2025-04-04T15:14:41.000Z</time>
      </trkpt>
      <trkpt lat="37.07953" lon="-79.611198">
        <ele>246.710824</ele>
        <time>2025-04-04T15:14:44.000Z</time>
      </trkpt>
      <trkpt lat="37.079456" lon="-79.611526">
        <ele>246.599264</ele>
        <time>2025-04-04T15:14:47.000Z</time>
      </trkpt>
      <trkpt lat="37.079364" lon="-79.611694">
        <ele>246.536542</ele>
        <time>2025-04-04T15:14:49.000Z</time>
      </trkpt>
      <trkpt lat="37.079163" lon="-79.611854">
        <ele>246.445661</ele>
        <time>2025-04-04T15:14:52.000Z</time>
      </trkpt>
      <trkpt lat="37.078775" lon="-79.611993">
        <ele>246.664</ele>
        <time>2025-04-04T15:14:56.000Z</time>
      </trkpt>
      <trkpt lat="37.078664" lon="-79.612048">
        <ele>246.858282</ele>
        <time>2025-04-04T15:14:57.000Z</time>
      </trkpt>
      <trkpt lat="37.078594" lon="-79.612153">
        <ele>247.013463</ele>
        <time>2025-04-04T15:14:58.000Z</time>
      </trkpt>
      <trkpt lat="37.078534" lon="-79.612259">
        <ele>247.16757</ele>
        <time>2025-04-04T15:14:59.000Z</time>
      </trkpt>
      <trkpt lat="37.07847" lon="-79.612427">
        <ele>247.396616</ele>
        <time>2025-04-04T15:15:01.000Z</time>
      </trkpt>
      <trkpt lat="37.078484" lon="-79.612619">
        <ele>247.626725</ele>
        <time>2025-04-04T15:15:03.000Z</time>
      </trkpt>
      <trkpt lat="37.078583" lon="-79.613023">
        <ele>248.130402</ele>
        <time>2025-04-04T15:15:07.000Z</time>
      </trkpt>
      <trkpt lat="37.078689" lon="-79.613373">
        <ele>248.559587</ele>
        <time>2025-04-04T15:15:10.000Z</time>
      </trkpt>
      <trkpt lat="37.078831" lon="-79.613707">
        <ele>249.018173</ele>
        <time>2025-04-04T15:15:13.000Z</time>
      </trkpt>
      <trkpt lat="37.079072" lon="-79.614115">
        <ele>249.206659</ele>
        <time>2025-04-04T15:15:18.000Z</time>
      </trkpt>
      <trkpt lat="37.079207" lon="-79.614464">
        <ele>249.329317</ele>
        <time>2025-04-04T15:15:21.000Z</time>
      </trkpt>
      <trkpt lat="37.079275" lon="-79.614833">
        <ele>249.450228</ele>
        <time>2025-04-04T15:15:24.000Z</time>
      </trkpt>
      <trkpt lat="37.079301" lon="-79.61507">
        <ele>249.529676</ele>
        <time>2025-04-04T15:15:26.000Z</time>
      </trkpt>
      <trkpt lat="37.079286" lon="-79.615239">
        <ele>249.58336</ele>
        <time>2025-04-04T15:15:28.000Z</time>
      </trkpt>
      <trkpt lat="37.079248" lon="-79.615399">
        <ele>249.636338</ele>
        <time>2025-04-04T15:15:29.000Z</time>
      </trkpt>
      <trkpt lat="37.079213" lon="-79.615445">
        <ele>249.656082</ele>
        <time>2025-04-04T15:15:30.000Z</time>
      </trkpt>
      <trkpt lat="37.079256" lon="-79.615396">
        <ele>249.675827</ele>
        <time>2025-04-04T15:15:31.000Z</time>
      </trkpt>
      <trkpt lat="37.0793" lon="-79.615242">
        <ele>249.728793</ele>
        <time>2025-04-04T15:15:32.000Z</time>
      </trkpt>
      <trkpt lat="37.079299" lon="-79.61508">
        <ele>249.752622</ele>
        <time>2025-04-04T15:15:33.000Z</time>
      </trkpt>
      <trkpt lat="37.079286" lon="-79.614821">
        <ele>249.583202</ele>
        <time>2025-04-04T15:15:35.000Z</time>
      </trkpt>
      <trkpt lat="37.079209" lon="-79.614464">
        <ele>249.325308</ele>
        <time>2025-04-04T15:15:38.000Z</time>
      </trkpt>
      <trkpt lat="37.079073" lon="-79.614122">
        <ele>249.063655</ele>
        <time>2025-04-04T15:15:41.000Z</time>
      </trkpt>
      <trkpt lat="37.078827" lon="-79.613706">
        <ele>248.715104</ele>
        <time>2025-04-04T15:15:46.000Z</time>
      </trkpt>
      <trkpt lat="37.078683" lon="-79.61337">
        <ele>248.452917</ele>
        <time>2025-04-04T15:15:49.000Z</time>
      </trkpt>
      <trkpt lat="37.078585" lon="-79.613034">
        <ele>248.195216</ele>
        <time>2025-04-04T15:15:52.000Z</time>
      </trkpt>
      <trkpt lat="37.078474" lon="-79.612637">
        <ele>247.78278</ele>
        <time>2025-04-04T15:15:56.000Z</time>
      </trkpt>
      <trkpt lat="37.078483" lon="-79.612441">
        <ele>247.594353</ele>
        <time>2025-04-04T15:15:58.000Z</time>
      </trkpt>
      <trkpt lat="37.078534" lon="-79.612257">
        <ele>247.406807</ele>
        <time>2025-04-04T15:16:00.000Z</time>
      </trkpt>
      <trkpt lat="37.078586" lon="-79.612152">
        <ele>247.280614</ele>
        <time>2025-04-04T15:16:01.000Z</time>
      </trkpt>
      <trkpt lat="37.078663" lon="-79.612055">
        <ele>247.153544</ele>
        <time>2025-04-04T15:16:02.000Z</time>
      </trkpt>
      <trkpt lat="37.078782" lon="-79.61198">
        <ele>246.994468</ele>
        <time>2025-04-04T15:16:03.000Z</time>
      </trkpt>
      <trkpt lat="37.079165" lon="-79.611859">
        <ele>246.498149</ele>
        <time>2025-04-04T15:16:07.000Z</time>
      </trkpt>
      <trkpt lat="37.079354" lon="-79.6117">
        <ele>246.218024</ele>
        <time>2025-04-04T15:16:10.000Z</time>
      </trkpt>
      <trkpt lat="37.079448" lon="-79.611533">
        <ele>246.046837</ele>
        <time>2025-04-04T15:16:12.000Z</time>
      </trkpt>
      <trkpt lat="37.079542" lon="-79.611199">
        <ele>246.448898</ele>
        <time>2025-04-04T15:16:15.000Z</time>
      </trkpt>
      <trkpt lat="37.079652" lon="-79.610895">
        <ele>246.823834</ele>
        <time>2025-04-04T15:16:18.000Z</time>
      </trkpt>
      <trkpt lat="37.079742" lon="-79.610764">
        <ele>247.015908</ele>
        <time>2025-04-04T15:16:20.000Z</time>
      </trkpt>
      <trkpt lat="37.079996" lon="-79.610505">
        <ele>247.489332</ele>
        <time>2025-04-04T15:16:24.000Z</time>
      </trkpt>
      <trkpt lat="37.080027" lon="-79.610437">
        <ele>247.584624</ele>
        <time>2025-04-04T15:16:25.000Z</time>
      </trkpt>
      <trkpt lat="37.080051" lon="-79.610281">
        <ele>247.775633</ele>
        <time>2025-04-04T15:16:26.000Z</time>
      </trkpt>
      <trkpt lat="37.080016" lon="-79.60984">
        <ele>248.279007</ele>
        <time>2025-04-04T15:16:30.000Z</time>
      </trkpt>
      <trkpt lat="37.080034" lon="-79.609651">
        <ele>248.48731</ele>
        <time>2025-04-04T15:16:32.000Z</time>
      </trkpt>
      <trkpt lat="37.080086" lon="-79.609431">
        <ele>249.05508</ele>
        <time>2025-04-04T15:16:34.000Z</time>
      </trkpt>
      <trkpt lat="37.080151" lon="-79.609341">
        <ele>249.481983</ele>
        <time>2025-04-04T15:16:35.000Z</time>
      </trkpt>
      <trkpt lat="37.080362" lon="-79.609068">
        <ele>250.869763</ele>
        <time>2025-04-04T15:16:38.000Z</time>
      </trkpt>
      <trkpt lat="37.080927" lon="-79.608522">
        <ele>254.241267</ele>
        <time>2025-04-04T15:16:46.000Z</time>
      </trkpt>
      <trkpt lat="37.081303" lon="-79.6082">
        <ele>256.314649</ele>
        <time>2025-04-04T15:16:51.000Z</time>
      </trkpt>
      <trkpt lat="37.081569" lon="-79.608025">
        <ele>257.104578</ele>
        <time>2025-04-04T15:16:54.000Z</time>
      </trkpt>
      <trkpt lat="37.082143" lon="-79.607799">
        <ele>257.621492</ele>
        <time>2025-04-04T15:17:01.000Z</time>
      </trkpt>
      <trkpt lat="37.082454" lon="-79.607642">
        <ele>257.908444</ele>
        <time>2025-04-04T15:17:05.000Z</time>
      </trkpt>
      <trkpt lat="37.082608" lon="-79.607469">
        <ele>258.092474</ele>
        <time>2025-04-04T15:17:07.000Z</time>
      </trkpt>
      <trkpt lat="37.082806" lon="-79.607147">
        <ele>258.381308</ele>
        <time>2025-04-04T15:17:11.000Z</time>
      </trkpt>
      <trkpt lat="37.082889" lon="-79.606942">
        <ele>258.523108</ele>
        <time>2025-04-04T15:17:13.000Z</time>
      </trkpt>
      <trkpt lat="37.082972" lon="-79.60662">
        <ele>258.620539</ele>
        <time>2025-04-04T15:17:16.000Z</time>
      </trkpt>
      <trkpt lat="37.083119" lon="-79.604704">
        <ele>259.146653</ele>
        <time>2025-04-04T15:17:33.000Z</time>
      </trkpt>
      <trkpt lat="37.083199" lon="-79.604419">
        <ele>259.211072</ele>
        <time>2025-04-04T15:17:36.000Z</time>
      </trkpt>
      <trkpt lat="37.083368" lon="-79.604119">
        <ele>259.295104</ele>
        <time>2025-04-04T15:17:39.000Z</time>
      </trkpt>
      <trkpt lat="37.083613" lon="-79.603826">
        <ele>259.38578</ele>
        <time>2025-04-04T15:17:43.000Z</time>
      </trkpt>
      <trkpt lat="37.083922" lon="-79.603628">
        <ele>259.479896</ele>
        <time>2025-04-04T15:17:47.000Z</time>
      </trkpt>
      <trkpt lat="37.085178" lon="-79.603177">
        <ele>259.568613</ele>
        <time>2025-04-04T15:18:02.000Z</time>
      </trkpt>
      <trkpt lat="37.085439" lon="-79.602981">
        <ele>259.543056</ele>
        <time>2025-04-04T15:18:05.000Z</time>
      </trkpt>
      <trkpt lat="37.085673" lon="-79.602718">
        <ele>259.516808</ele>
        <time>2025-04-04T15:18:08.000Z</time>
      </trkpt>
      <trkpt lat="37.085836" lon="-79.602454">
        <ele>259.494061</ele>
        <time>2025-04-04T15:18:11.000Z</time>
      </trkpt>
      <trkpt lat="37.086007" lon="-79.602023">
        <ele>259.853028</ele>
        <time>2025-04-04T15:18:15.000Z</time>
      </trkpt>
      <trkpt lat="37.086765" lon="-79.599711">
        <ele>263.244357</ele>
        <time>2025-04-04T15:18:37.000Z</time>
      </trkpt>
      <trkpt lat="37.0869" lon="-79.599367">
        <ele>263.82885</ele>
        <time>2025-04-04T15:18:40.000Z</time>
      </trkpt>
      <trkpt lat="37.086977" lon="-79.599257">
        <ele>264.041918</ele>
        <time>2025-04-04T15:18:41.000Z</time>
      </trkpt>
      <trkpt lat="37.087286" lon="-79.598935">
        <ele>264.830699</ele>
        <time>2025-04-04T15:18:45.000Z</time>
      </trkpt>
      <trkpt lat="37.087768" lon="-79.598603">
        <ele>265.859764</ele>
        <time>2025-04-04T15:18:51.000Z</time>
      </trkpt>
      <trkpt lat="37.088265" lon="-79.598222">
        <ele>268.076712</ele>
        <time>2025-04-04T15:18:57.000Z</time>
      </trkpt>
      <trkpt lat="37.088595" lon="-79.597884">
        <ele>269.656099</ele>
        <time>2025-04-04T15:19:02.000Z</time>
      </trkpt>
      <trkpt lat="37.089133" lon="-79.597132">
        <ele>272.69803</ele>
        <time>2025-04-04T15:19:11.000Z</time>
      </trkpt>
      <trkpt lat="37.089564" lon="-79.596382">
        <ele>274.64664</ele>
        <time>2025-04-04T15:19:19.000Z</time>
      </trkpt>
      <trkpt lat="37.089747" lon="-79.596056">
        <ele>275.438195</ele>
        <time>2025-04-04T15:19:23.000Z</time>
      </trkpt>
      <trkpt lat="37.089823" lon="-79.595928">
        <ele>275.795597</ele>
        <time>2025-04-04T15:19:24.000Z</time>
      </trkpt>
      <trkpt lat="37.090169" lon="-79.595306">
        <ele>277.39005</ele>
        <time>2025-04-04T15:19:31.000Z</time>
      </trkpt>
      <trkpt lat="37.091104" lon="-79.593649">
        <ele>277.626444</ele>
        <time>2025-04-04T15:19:49.000Z</time>
      </trkpt>
      <trkpt lat="37.091411" lon="-79.593136">
        <ele>277.1258</ele>
        <time>2025-04-04T15:19:55.000Z</time>
      </trkpt>
      <trkpt lat="37.091517" lon="-79.593437">
        <ele>276.711377</ele>
        <time>2025-04-04T15:19:58.000Z</time>
      </trkpt>
      <trkpt lat="37.09219" lon="-79.595275">
        <ele>273.878349</ele>
        <time>2025-04-04T15:20:16.000Z</time>
      </trkpt>
      <trkpt lat="37.093354" lon="-79.598658">
        <ele>266.755766</ele>
        <time>2025-04-04T15:20:49.000Z</time>
      </trkpt>
      <trkpt lat="37.09399" lon="-79.600392">
        <ele>261.489643</ele>
        <time>2025-04-04T15:21:06.000Z</time>
      </trkpt>
      <trkpt lat="37.094087" lon="-79.600675">
        <ele>260.574396</ele>
        <time>2025-04-04T15:21:09.000Z</time>
      </trkpt>
      <trkpt lat="37.094386" lon="-79.601487">
        <ele>258.759757</ele>
        <time>2025-04-04T15:21:17.000Z</time>
      </trkpt>
      <trkpt lat="37.09462" lon="-79.601892">
        <ele>258.069666</ele>
        <time>2025-04-04T15:21:21.000Z</time>
      </trkpt>
      <trkpt lat="37.094934" lon="-79.602221">
        <ele>257.371642</ele>
        <time>2025-04-04T15:21:26.000Z</time>
      </trkpt>
      <trkpt lat="37.095869" lon="-79.602932">
        <ele>255.449076</ele>
        <time>2025-04-04T15:21:38.000Z</time>
      </trkpt>
      <trkpt lat="37.096069" lon="-79.603137">
        <ele>255.024767</ele>
        <time>2025-04-04T15:21:41.000Z</time>
      </trkpt>
      <trkpt lat="37.096955" lon="-79.604251">
        <ele>252.934713</ele>
        <time>2025-04-04T15:21:55.000Z</time>
      </trkpt>
      <trkpt lat="37.097066" lon="-79.604437">
        <ele>252.705005</ele>
        <time>2025-04-04T15:21:57.000Z</time>
      </trkpt>
      <trkpt lat="37.097236" lon="-79.604778">
        <ele>252.310552</ele>
        <time>2025-04-04T15:22:01.000Z</time>
      </trkpt>
      <trkpt lat="37.097322" lon="-79.605106">
        <ele>251.956663</ele>
        <time>2025-04-04T15:22:04.000Z</time>
      </trkpt>
      <trkpt lat="37.097351" lon="-79.605478">
        <ele>251.582107</ele>
        <time>2025-04-04T15:22:07.000Z</time>
      </trkpt>
      <trkpt lat="37.097217" lon="-79.607924">
        <ele>252.216628</ele>
        <time>2025-04-04T15:22:29.000Z</time>
      </trkpt>
      <trkpt lat="37.097105" lon="-79.608399">
        <ele>252.551766</ele>
        <time>2025-04-04T15:22:33.000Z</time>
      </trkpt>
      <trkpt lat="37.097018" lon="-79.608614">
        <ele>252.738729</ele>
        <time>2025-04-04T15:22:35.000Z</time>
      </trkpt>
      <trkpt lat="37.096874" lon="-79.608861">
        <ele>252.967704</ele>
        <time>2025-04-04T15:22:38.000Z</time>
      </trkpt>
      <trkpt lat="37.096713" lon="-79.609014">
        <ele>253.154279</ele>
        <time>2025-04-04T15:22:40.000Z</time>
      </trkpt>
      <trkpt lat="37.096664" lon="-79.609035">
        <ele>253.190906</ele>
        <time>2025-04-04T15:22:41.000Z</time>
      </trkpt>
      <trkpt lat="37.096411" lon="-79.609223">
        <ele>253.467886</ele>
        <time>2025-04-04T15:22:44.000Z</time>
      </trkpt>
      <trkpt lat="37.09614" lon="-79.609396">
        <ele>253.751991</ele>
        <time>2025-04-04T15:22:47.000Z</time>
      </trkpt>
      <trkpt lat="37.096005" lon="-79.609491">
        <ele>253.898897</ele>
        <time>2025-04-04T15:22:49.000Z</time>
      </trkpt>
      <trkpt lat="37.095782" lon="-79.609868">
        <ele>254.173206</ele>
        <time>2025-04-04T15:22:53.000Z</time>
      </trkpt>
      <trkpt lat="37.095731" lon="-79.609924">
        <ele>254.173205</ele>
        <time>2025-04-04T15:22:54.000Z</time>
      </trkpt>
      <trkpt lat="37.095677" lon="-79.609936">
        <ele>254.173221</ele>
        <time>2025-04-04T15:22:55.000Z</time>
      </trkpt>
      <trkpt lat="37.095622" lon="-79.61005">
        <ele>254.173208</ele>
        <time>2025-04-04T15:22:56.000Z</time>
      </trkpt>
      <trkpt lat="37.095583" lon="-79.6101">
        <ele>254.173209</ele>
        <time>2025-04-04T15:22:57.000Z</time>
      </trkpt>
      <trkpt lat="37.095073" lon="-79.610379">
        <ele>254.173208</ele>
        <time>2025-04-04T15:23:03.000Z</time>
      </trkpt>
      <trkpt lat="37.095078" lon="-79.610379">
        <ele>254.173217</ele>
        <time>2025-04-04T15:23:03.000Z</time>
      </trkpt>
      <trkpt lat="37.095028" lon="-79.610375">
        <ele>254.173209</ele>
        <time>2025-04-04T15:23:04.000Z</time>
      </trkpt>
      <trkpt lat="37.094969" lon="-79.610335">
        <ele>254.173221</ele>
        <time>2025-04-04T15:23:05.000Z</time>
      </trkpt>
      <trkpt lat="37.094921" lon="-79.610193">
        <ele>254.173215</ele>
        <time>2025-04-04T15:23:06.000Z</time>
      </trkpt>
      <trkpt lat="37.09545" lon="-79.60988">
        <ele>254.173215</ele>
        <time>2025-04-04T15:23:13.000Z</time>
      </trkpt>
      <trkpt lat="37.095482" lon="-79.60985">
        <ele>253.764457</ele>
        <time>2025-04-04T15:23:13.000Z</time>
      </trkpt>
      <trkpt lat="37.095513" lon="-79.609817">
        <ele>253.76444</ele>
        <time>2025-04-04T15:23:13.000Z</time>
      </trkpt>
      <trkpt lat="37.095604" lon="-79.609815">
        <ele>253.764447</ele>
        <time>2025-04-04T15:23:14.000Z</time>
      </trkpt>
      <trkpt lat="37.095619" lon="-79.60978">
        <ele>253.764444</ele>
        <time>2025-04-04T15:23:14.000Z</time>
      </trkpt>
      <trkpt lat="37.095686" lon="-79.609702">
        <ele>253.764443</ele>
        <time>2025-04-04T15:23:15.000Z</time>
      </trkpt>
      <trkpt lat="37.096013" lon="-79.609487">
        <ele>253.764445</ele>
        <time>2025-04-04T15:23:19.000Z</time>
      </trkpt>
      <trkpt lat="37.096139" lon="-79.609396">
        <ele>253.764447</ele>
        <time>2025-04-04T15:23:21.000Z</time>
      </trkpt>
      <trkpt lat="37.096407" lon="-79.609213">
        <ele>253.577014</ele>
        <time>2025-04-04T15:23:24.000Z</time>
      </trkpt>
      <trkpt lat="37.096677" lon="-79.609031">
        <ele>253.258521</ele>
        <time>2025-04-04T15:23:27.000Z</time>
      </trkpt>
      <trkpt lat="37.096712" lon="-79.609007">
        <ele>253.216379</ele>
        <time>2025-04-04T15:23:27.000Z</time>
      </trkpt>
      <trkpt lat="37.096863" lon="-79.608865">
        <ele>253.001842</ele>
        <time>2025-04-04T15:23:29.000Z</time>
      </trkpt>
      <trkpt lat="37.097015" lon="-79.608628">
        <ele>252.738542</ele>
        <time>2025-04-04T15:23:32.000Z</time>
      </trkpt>
      <trkpt lat="37.097109" lon="-79.608393">
        <ele>252.523535</ele>
        <time>2025-04-04T15:23:34.000Z</time>
      </trkpt>
      <trkpt lat="37.09722" lon="-79.607914">
        <ele>252.109419</ele>
        <time>2025-04-04T15:23:38.000Z</time>
      </trkpt>
      <trkpt lat="37.097343" lon="-79.605472">
        <ele>251.212155</ele>
        <time>2025-04-04T15:24:00.000Z</time>
      </trkpt>
      <trkpt lat="37.097321" lon="-79.60512">
        <ele>251.532114</ele>
        <time>2025-04-04T15:24:03.000Z</time>
      </trkpt>
      <trkpt lat="37.097221" lon="-79.604768">
        <ele>252.028124</ele>
        <time>2025-04-04T15:24:06.000Z</time>
      </trkpt>
      <trkpt lat="37.097072" lon="-79.604438">
        <ele>252.580942</ele>
        <time>2025-04-04T15:24:09.000Z</time>
      </trkpt>
      <trkpt lat="37.09697" lon="-79.604262">
        <ele>252.902871</ele>
        <time>2025-04-04T15:24:11.000Z</time>
      </trkpt>
      <trkpt lat="37.096075" lon="-79.603139">
        <ele>255.079634</ele>
        <time>2025-04-04T15:24:25.000Z</time>
      </trkpt>
      <trkpt lat="37.09587" lon="-79.602941">
        <ele>255.472663</ele>
        <time>2025-04-04T15:24:28.000Z</time>
      </trkpt>
      <trkpt lat="37.094939" lon="-79.602218">
        <ele>257.25554</ele>
        <time>2025-04-04T15:24:40.000Z</time>
      </trkpt>
      <trkpt lat="37.094624" lon="-79.601903">
        <ele>258.14415</ele>
        <time>2025-04-04T15:24:44.000Z</time>
      </trkpt>
      <trkpt lat="37.094384" lon="-79.601484">
        <ele>259.025731</ele>
        <time>2025-04-04T15:24:49.000Z</time>
      </trkpt>
      <trkpt lat="37.094085" lon="-79.600668">
        <ele>260.614506</ele>
        <time>2025-04-04T15:24:57.000Z</time>
      </trkpt>
      <trkpt lat="37.093992" lon="-79.60039">
        <ele>261.168873</ele>
        <time>2025-04-04T15:25:00.000Z</time>
      </trkpt>
      <trkpt lat="37.093354" lon="-79.598668">
        <ele>266.773461</ele>
        <time>2025-04-04T15:25:17.000Z</time>
      </trkpt>
      <trkpt lat="37.092188" lon="-79.59528">
        <ele>273.865129</ele>
        <time>2025-04-04T15:25:50.000Z</time>
      </trkpt>
      <trkpt lat="37.091513" lon="-79.593441">
        <ele>276.617768</ele>
        <time>2025-04-04T15:26:08.000Z</time>
      </trkpt>
      <trkpt lat="37.091422" lon="-79.593147">
        <ele>276.889131</ele>
        <time>2025-04-04T15:26:11.000Z</time>
      </trkpt>
      <trkpt lat="37.091098" lon="-79.593645">
        <ele>277.430229</ele>
        <time>2025-04-04T15:26:17.000Z</time>
      </trkpt>
      <trkpt lat="37.09017" lon="-79.595298">
        <ele>276.958586</ele>
        <time>2025-04-04T15:26:35.000Z</time>
      </trkpt>
      <trkpt lat="37.089813" lon="-79.595925">
        <ele>276.432596</ele>
        <time>2025-04-04T15:26:42.000Z</time>
      </trkpt>
      <trkpt lat="37.089742" lon="-79.596058">
        <ele>275.954355</ele>
        <time>2025-04-04T15:26:43.000Z</time>
      </trkpt>
      <trkpt lat="37.089573" lon="-79.596367">
        <ele>274.895158</ele>
        <time>2025-04-04T15:26:46.000Z</time>
      </trkpt>
      <trkpt lat="37.089119" lon="-79.597135">
        <ele>272.28766</ele>
        <time>2025-04-04T15:26:54.000Z</time>
      </trkpt>
      <trkpt lat="37.08859" lon="-79.597895">
        <ele>269.551816</ele>
        <time>2025-04-04T15:27:03.000Z</time>
      </trkpt>
      <trkpt lat="37.088265" lon="-79.598217">
        <ele>268.24191</ele>
        <time>2025-04-04T15:27:08.000Z</time>
      </trkpt>
      <trkpt lat="37.087776" lon="-79.598594">
        <ele>266.390507</ele>
        <time>2025-04-04T15:27:14.000Z</time>
      </trkpt>
      <trkpt lat="37.087285" lon="-79.598926">
        <ele>264.68685</ele>
        <time>2025-04-04T15:27:20.000Z</time>
      </trkpt>
      <trkpt lat="37.086963" lon="-79.599263">
        <ele>263.894037</ele>
        <time>2025-04-04T15:27:25.000Z</time>
      </trkpt>
      <trkpt lat="37.086902" lon="-79.599365">
        <ele>263.691871</ele>
        <time>2025-04-04T15:27:26.000Z</time>
      </trkpt>
      <trkpt lat="37.086762" lon="-79.599712">
        <ele>263.137268</ele>
        <time>2025-04-04T15:27:29.000Z</time>
      </trkpt>
      <trkpt lat="37.086011" lon="-79.60201">
        <ele>260.165848</ele>
        <time>2025-04-04T15:27:51.000Z</time>
      </trkpt>
      <trkpt lat="37.08582" lon="-79.602442">
        <ele>259.700795</ele>
        <time>2025-04-04T15:27:55.000Z</time>
      </trkpt>
      <trkpt lat="37.085661" lon="-79.602712">
        <ele>259.385281</ele>
        <time>2025-04-04T15:27:58.000Z</time>
      </trkpt>
      <trkpt lat="37.085442" lon="-79.602976">
        <ele>259.251181</ele>
        <time>2025-04-04T15:28:01.000Z</time>
      </trkpt>
      <trkpt lat="37.085186" lon="-79.603162">
        <ele>259.344363</ele>
        <time>2025-04-04T15:28:04.000Z</time>
      </trkpt>
      <trkpt lat="37.083924" lon="-79.60364">
        <ele>259.759092</ele>
        <time>2025-04-04T15:28:19.000Z</time>
      </trkpt>
      <trkpt lat="37.083606" lon="-79.603834">
        <ele>259.564754</ele>
        <time>2025-04-04T15:28:23.000Z</time>
      </trkpt>
      <trkpt lat="37.083367" lon="-79.604115">
        <ele>259.357185</ele>
        <time>2025-04-04T15:28:27.000Z</time>
      </trkpt>
      <trkpt lat="37.083191" lon="-79.604436">
        <ele>259.164801</ele>
        <time>2025-04-04T15:28:30.000Z</time>
      </trkpt>
      <trkpt lat="37.083113" lon="-79.604709">
        <ele>259.017356</ele>
        <time>2025-04-04T15:28:33.000Z</time>
      </trkpt>
      <trkpt lat="37.082968" lon="-79.606614">
        <ele>258.72904</ele>
        <time>2025-04-04T15:28:50.000Z</time>
      </trkpt>
      <trkpt lat="37.082889" lon="-79.60696">
        <ele>258.758279</ele>
        <time>2025-04-04T15:28:53.000Z</time>
      </trkpt>
      <trkpt lat="37.082821" lon="-79.607146">
        <ele>258.775835</ele>
        <time>2025-04-04T15:28:55.000Z</time>
      </trkpt>
      <trkpt lat="37.082614" lon="-79.607471">
        <ele>258.810193</ele>
        <time>2025-04-04T15:28:59.000Z</time>
      </trkpt>
      <trkpt lat="37.082444" lon="-79.607631">
        <ele>258.519652</ele>
        <time>2025-04-04T15:29:01.000Z</time>
      </trkpt>
      <trkpt lat="37.082152" lon="-79.607812">
        <ele>257.683885</ele>
        <time>2025-04-04T15:29:05.000Z</time>
      </trkpt>
      <trkpt lat="37.081579" lon="-79.608022">
        <ele>256.178346</ele>
        <time>2025-04-04T15:29:12.000Z</time>
      </trkpt>
      <trkpt lat="37.081303" lon="-79.608196">
        <ele>255.390743</ele>
        <time>2025-04-04T15:29:15.000Z</time>
      </trkpt>
      <trkpt lat="37.080928" lon="-79.608528">
        <ele>254.256322</ele>
        <time>2025-04-04T15:29:20.000Z</time>
      </trkpt>
      <trkpt lat="37.080362" lon="-79.60908">
        <ele>251.354338</ele>
        <time>2025-04-04T15:29:28.000Z</time>
      </trkpt>
      <trkpt lat="37.080144" lon="-79.609352">
        <ele>250.15983</ele>
        <time>2025-04-04T15:29:31.000Z</time>
      </trkpt>
      <trkpt lat="37.080104" lon="-79.609444">
        <ele>249.792382</ele>
        <time>2025-04-04T15:29:32.000Z</time>
      </trkpt>
      <trkpt lat="37.080038" lon="-79.609657">
        <ele>249.068378</ele>
        <time>2025-04-04T15:29:34.000Z</time>
      </trkpt>
      <trkpt lat="37.080028" lon="-79.609828">
        <ele>248.48717</ele>
        <time>2025-04-04T15:29:36.000Z</time>
      </trkpt>
      <trkpt lat="37.080063" lon="-79.610276">
        <ele>247.082737</ele>
        <time>2025-04-04T15:29:40.000Z</time>
      </trkpt>
      <trkpt lat="37.080022" lon="-79.610438">
        <ele>247.025915</ele>
        <time>2025-04-04T15:29:42.000Z</time>
      </trkpt>
      <trkpt lat="37.079986" lon="-79.610512">
        <ele>246.999476</ele>
        <time>2025-04-04T15:29:43.000Z</time>
      </trkpt>
      <trkpt lat="37.079734" lon="-79.610778">
        <ele>246.868136</ele>
        <time>2025-04-04T15:29:47.000Z</time>
      </trkpt>
      <trkpt lat="37.079638" lon="-79.610903">
        <ele>246.814838</ele>
        <time>2025-04-04T15:29:49.000Z</time>
      </trkpt>
      <trkpt lat="37.079532" lon="-79.611204">
        <ele>246.710812</ele>
        <time>2025-04-04T15:29:52.000Z</time>
      </trkpt>
      <trkpt lat="37.079445" lon="-79.611531">
        <ele>246.599271</ele>
        <time>2025-04-04T15:29:55.000Z</time>
      </trkpt>
      <trkpt lat="37.07936" lon="-79.611696">
        <ele>246.536549</ele>
        <time>2025-04-04T15:29:57.000Z</time>
      </trkpt>
      <trkpt lat="37.07916" lon="-79.611846">
        <ele>246.445652</ele>
        <time>2025-04-04T15:30:00.000Z</time>
      </trkpt>
      <trkpt lat="37.078773" lon="-79.611995">
        <ele>246.664013</ele>
        <time>2025-04-04T15:30:05.000Z</time>
      </trkpt>
      <trkpt lat="37.07866" lon="-79.612061">
        <ele>246.85829</ele>
        <time>2025-04-04T15:30:06.000Z</time>
      </trkpt>
      <trkpt lat="37.078579" lon="-79.612145">
        <ele>247.013456</ele>
        <time>2025-04-04T15:30:07.000Z</time>
      </trkpt>
      <trkpt lat="37.078536" lon="-79.612259">
        <ele>247.16758</ele>
        <time>2025-04-04T15:30:08.000Z</time>
      </trkpt>
      <trkpt lat="37.078486" lon="-79.612436">
        <ele>247.39661</ele>
        <time>2025-04-04T15:30:10.000Z</time>
      </trkpt>
      <trkpt lat="37.078474" lon="-79.61262">
        <ele>247.626725</ele>
        <time>2025-04-04T15:30:12.000Z</time>
      </trkpt>
      <trkpt lat="37.078588" lon="-79.613035">
        <ele>248.130404</ele>
        <time>2025-04-04T15:30:16.000Z</time>
      </trkpt>
      <trkpt lat="37.07869" lon="-79.613367">
        <ele>248.559593</ele>
        <time>2025-04-04T15:30:19.000Z</time>
      </trkpt>
      <trkpt lat="37.078823" lon="-79.613702">
        <ele>249.018184</ele>
        <time>2025-04-04T15:30:22.000Z</time>
      </trkpt>
      <trkpt lat="37.079064" lon="-79.614106">
        <ele>249.206655</ele>
        <time>2025-04-04T15:30:26.000Z</time>
      </trkpt>
      <trkpt lat="37.079216" lon="-79.614449">
        <ele>249.329323</ele>
        <time>2025-04-04T15:30:29.000Z</time>
      </trkpt>
      <trkpt lat="37.079286" lon="-79.614827">
        <ele>249.450241</ele>
        <time>2025-04-04T15:30:32.000Z</time>
      </trkpt>
      <trkpt lat="37.079289" lon="-79.615067">
        <ele>249.529669</ele>
        <time>2025-04-04T15:30:34.000Z</time>
      </trkpt>
      <trkpt lat="37.079295" lon="-79.615249">
        <ele>249.583373</ele>
        <time>2025-04-04T15:30:36.000Z</time>
      </trkpt>
      <trkpt lat="37.079246" lon="-79.615392">
        <ele>249.63634</ele>
        <time>2025-04-04T15:30:37.000Z</time>
      </trkpt>
      <trkpt lat="37.079222" lon="-79.615452">
        <ele>249.656079</ele>
        <time>2025-04-04T15:30:38.000Z</time>
      </trkpt>
      <trkpt lat="37.079259" lon="-79.615394">
        <ele>249.675819</ele>
        <time>2025-04-04T15:30:39.000Z</time>
      </trkpt>
      <trkpt lat="37.079283" lon="-79.615232">
        <ele>249.728804</ele>
        <time>2025-04-04T15:30:40.000Z</time>
      </trkpt>
      <trkpt lat="37.079289" lon="-79.615076">
        <ele>249.752621</ele>
        <time>2025-04-04T15:30:41.000Z</time>
      </trkpt>
      <trkpt lat="37.079276" lon="-79.614818">
        <ele>249.583212</ele>
        <time>2025-04-04T15:30:43.000Z</time>
      </trkpt>
      <trkpt lat="37.079203" lon="-79.61445">
        <ele>249.325311</ele>
        <time>2025-04-04T15:30:46.000Z</time>
      </trkpt>
      <trkpt lat="37.079066" lon="-79.614106">
        <ele>249.063664</ele>
        <time>2025-04-04T15:30:49.000Z</time>
      </trkpt>
      <trkpt lat="37.078817" lon="-79.613718">
        <ele>248.715098</ele>
        <time>2025-04-04T15:30:53.000Z</time>
      </trkpt>
      <trkpt lat="37.078683" lon="-79.613365">
        <ele>248.452922</ele>
        <time>2025-04-04T15:30:56.000Z</time>
      </trkpt>
      <trkpt lat="37.078571" lon="-79.613025">
        <ele>248.195214</ele>
        <time>2025-04-04T15:30:59.000Z</time>
      </trkpt>
      <trkpt lat="37.078483" lon="-79.61262">
        <ele>247.782786</ele>
        <time>2025-04-04T15:31:03.000Z</time>
      </trkpt>
      <trkpt lat="37.078472" lon="-79.612433">
        <ele>247.594353</ele>
        <time>2025-04-04T15:31:05.000Z</time>
      </trkpt>
      <trkpt lat="37.07852" lon="-79.612252">
        <ele>247.406811</ele>
        <time>2025-04-04T15:31:07.000Z</time>
      </trkpt>
      <trkpt lat="37.078591" lon="-79.612146">
        <ele>247.280624</ele>
        <time>2025-04-04T15:31:08.000Z</time>
      </trkpt>
      <trkpt lat="37.078663" lon="-79.612053">
        <ele>247.153553</ele>
        <time>2025-04-04T15:31:09.000Z</time>
      </trkpt>
      <trkpt lat="37.07878" lon="-79.611986">
        <ele>246.994477</ele>
        <time>2025-04-04T15:31:10.000Z</time>
      </trkpt>
      <trkpt lat="37.079167" lon="-79.611858">
        <ele>246.498145</ele>
        <time>2025-04-04T15:31:14.000Z</time>
      </trkpt>
      <trkpt lat="37.079366" lon="-79.61169">
        <ele>246.218027</ele>
        <time>2025-04-04T15:31:17.000Z</time>
      </trkpt>
      <trkpt lat="37.079455" lon="-79.611531">
        <ele>246.046843</ele>
        <time>2025-04-04T15:31:19.000Z</time>
      </trkpt>
      <trkpt lat="37.07953" lon="-79.611196">
        <ele>246.44891</ele>
        <time>2025-04-04T15:31:22.000Z</time>
      </trkpt>
      <trkpt lat="37.079638" lon="-79.610895">
        <ele>246.823845</ele>
        <time>2025-04-04T15:31:25.000Z</time>
      </trkpt>
      <trkpt lat="37.079729" lon="-79.610779">
        <ele>247.015923</ele>
        <time>2025-04-04T15:31:26.000Z</time>
      </trkpt>
      <trkpt lat="37.079999" lon="-79.6105">
        <ele>247.489335</ele>
        <time>2025-04-04T15:31:30.000Z</time>
      </trkpt>
      <trkpt lat="37.080029" lon="-79.610442">
        <ele>247.584635</ele>
        <time>2025-04-04T15:31:31.000Z</time>
      </trkpt>
      <trkpt lat="37.080051" lon="-79.610267">
        <ele>247.775637</ele>
        <time>2025-04-04T15:31:33.000Z</time>
      </trkpt>
      <trkpt lat="37.080018" lon="-79.609844">
        <ele>248.279</ele>
        <time>2025-04-04T15:31:37.000Z</time>
      </trkpt>
      <trkpt lat="37.080037" lon="-79.609646">
        <ele>248.487306</ele>
        <time>2025-04-04T15:31:39.000Z</time>
      </trkpt>
      <trkpt lat="37.080093" lon="-79.609445">
        <ele>249.055078</ele>
        <time>2025-04-04T15:31:41.000Z</time>
      </trkpt>
      <trkpt lat="37.080143" lon="-79.609351">
        <ele>249.481972</ele>
        <time>2025-04-04T15:31:42.000Z</time>
      </trkpt>
      <trkpt lat="37.080357" lon="-79.60908">
        <ele>250.869751</ele>
        <time>2025-04-04T15:31:45.000Z</time>
      </trkpt>
      <trkpt lat="37.080924" lon="-79.608514">
        <ele>254.241271</ele>
        <time>2025-04-04T15:31:53.000Z</time>
      </trkpt>
      <trkpt lat="37.081295" lon="-79.608205">
        <ele>256.314648</ele>
        <time>2025-04-04T15:31:58.000Z</time>
      </trkpt>
      <trkpt lat="37.081568" lon="-79.608029">
        <ele>257.104575</ele>
        <time>2025-04-04T15:32:01.000Z</time>
      </trkpt>
      <trkpt lat="37.082134" lon="-79.6078">
        <ele>257.621489</ele>
        <time>2025-04-04T15:32:08.000Z</time>
      </trkpt>
      <trkpt lat="37.082452" lon="-79.607637">
        <ele>257.908442</ele>
        <time>2025-04-04T15:32:12.000Z</time>
      </trkpt>
      <trkpt lat="37.082621" lon="-79.60747">
        <ele>258.092467</ele>
        <time>2025-04-04T15:32:14.000Z</time>
      </trkpt>
      <trkpt lat="37.082809" lon="-79.607151">
        <ele>258.381302</ele>
        <time>2025-04-04T15:32:18.000Z</time>
      </trkpt>
      <trkpt lat="37.08288" lon="-79.606958">
        <ele>258.523114</ele>
        <time>2025-04-04T15:32:20.000Z</time>
      </trkpt>
      <trkpt lat="37.082968" lon="-79.606617">
        <ele>258.620535</ele>
        <time>2025-04-04T15:32:23.000Z</time>
      </trkpt>
      <trkpt lat="37.083115" lon="-79.604709">
        <ele>259.146656</ele>
        <time>2025-04-04T15:32:40.000Z</time>
      </trkpt>
      <trkpt lat="37.083199" lon="-79.604422">
        <ele>259.211071</ele>
        <time>2025-04-04T15:32:43.000Z</time>
      </trkpt>
      <trkpt lat="37.083376" lon="-79.604117">
        <ele>259.2951</ele>
        <time>2025-04-04T15:32:46.000Z</time>
      </trkpt>
      <trkpt lat="37.083606" lon="-79.603825">
        <ele>259.385784</ele>
        <time>2025-04-04T15:32:50.000Z</time>
      </trkpt>
      <trkpt lat="37.083913" lon="-79.603638">
        <ele>259.479894</ele>
        <time>2025-04-04T15:32:54.000Z</time>
      </trkpt>
      <trkpt lat="37.085188" lon="-79.603177">
        <ele>259.568603</ele>
        <time>2025-04-04T15:33:09.000Z</time>
      </trkpt>
      <trkpt lat="37.085433" lon="-79.60297">
        <ele>259.543043</ele>
        <time>2025-04-04T15:33:12.000Z</time>
      </trkpt>
      <trkpt lat="37.08567" lon="-79.602713">
        <ele>259.516813</ele>
        <time>2025-04-04T15:33:15.000Z</time>
      </trkpt>
      <trkpt lat="37.08583" lon="-79.602447">
        <ele>259.494058</ele>
        <time>2025-04-04T15:33:18.000Z</time>
      </trkpt>
      <trkpt lat="37.086009" lon="-79.602023">
        <ele>259.853025</ele>
        <time>2025-04-04T15:33:22.000Z</time>
      </trkpt>
      <trkpt lat="37.086761" lon="-79.599705">
        <ele>263.244349</ele>
        <time>2025-04-04T15:33:44.000Z</time>
      </trkpt>
      <trkpt lat="37.086908" lon="-79.599379">
        <ele>263.828863</ele>
        <time>2025-04-04T15:33:47.000Z</time>
      </trkpt>
      <trkpt lat="37.086971" lon="-79.599261">
        <ele>264.041921</ele>
        <time>2025-04-04T15:33:48.000Z</time>
      </trkpt>
      <trkpt lat="37.087301" lon="-79.59893">
        <ele>264.830709</ele>
        <time>2025-04-04T15:33:53.000Z</time>
      </trkpt>
      <trkpt lat="37.087761" lon="-79.598602">
        <ele>265.859767</ele>
        <time>2025-04-04T15:33:59.000Z</time>
      </trkpt>
      <trkpt lat="37.08827" lon="-79.598215">
        <ele>268.076717</ele>
        <time>2025-04-04T15:34:06.000Z</time>
      </trkpt>
      <trkpt lat="37.088602" lon="-79.597883">
        <ele>269.656083</ele>
        <time>2025-04-04T15:34:11.000Z</time>
      </trkpt>
      <trkpt lat="37.089121" lon="-79.597137">
        <ele>272.698027</ele>
        <time>2025-04-04T15:34:20.000Z</time>
      </trkpt>
      <trkpt lat="37.089561" lon="-79.596365">
        <ele>274.646645</ele>
        <time>2025-04-04T15:34:28.000Z</time>
      </trkpt>
      <trkpt lat="37.089737" lon="-79.596063">
        <ele>275.438191</ele>
        <time>2025-04-04T15:34:31.000Z</time>
      </trkpt>
      <trkpt lat="37.089816" lon="-79.595934">
        <ele>275.795598</ele>
        <time>2025-04-04T15:34:32.000Z</time>
      </trkpt>
      <trkpt lat="37.090175" lon="-79.5953">
        <ele>277.390056</ele>
        <time>2025-04-04T15:34:39.000Z</time>
      </trkpt>
      <trkpt lat="37.091097" lon="-79.593641">
        <ele>277.626455</ele>
        <time>2025-04-04T15:34:57.000Z</time>
      </trkpt>
      <trkpt lat="37.09142" lon="-79.593145">
        <ele>277.125798</ele>
        <time>2025-04-04T15:35:03.000Z</time>
      </trkpt>
      <trkpt lat="37.091516" lon="-79.593427">
        <ele>276.711377</ele>
        <time>2025-04-04T15:35:06.000Z</time>
      </trkpt>
      <trkpt lat="37.092185" lon="-79.595275">
        <ele>273.878344</ele>
        <time>2025-04-04T15:35:24.000Z</time>
      </trkpt>
      <trkpt lat="37.093354" lon="-79.598667">
        <ele>266.755755</ele>
        <time>2025-04-04T15:35:57.000Z</time>
      </trkpt>
      <trkpt lat="37.093996" lon="-79.600392">
        <ele>261.489636</ele>
        <time>2025-04-04T15:36:14.000Z</time>
      </trkpt>
      <trkpt lat="37.094098" lon="-79.600671">
        <ele>260.574381</ele>
        <time>2025-04-04T15:36:17.000Z</time>
      </trkpt>
      <trkpt lat="37.094398" lon="-79.601497">
        <ele>258.759773</ele>
        <time>2025-04-04T15:36:25.000Z</time>
      </trkpt>
      <trkpt lat="37.094614" lon="-79.601894">
        <ele>258.06967</ele>
        <time>2025-04-04T15:36:29.000Z</time>
      </trkpt>
      <trkpt lat="37.094926" lon="-79.602218">
        <ele>257.371639</ele>
        <time>2025-04-04T15:36:34.000Z</time>
      </trkpt>
      <trkpt lat="37.09587" lon="-79.602933">
        <ele>255.449077</ele>
        <time>2025-04-04T15:36:46.000Z</time>
      </trkpt>
      <trkpt lat="37.096077" lon="-79.603125">
        <ele>255.024767</ele>
        <time>2025-04-04T15:36:49.000Z</time>
      </trkpt>
      <trkpt lat="37.096967" lon="-79.604258">
        <ele>252.934699</ele>
        <time>2025-04-04T15:37:03.000Z</time>
      </trkpt>
      <trkpt lat="37.097071" lon="-79.60444">
        <ele>252.704995</ele>
        <time>2025-04-04T15:37:05.000Z</time>
      </trkpt>
      <trkpt lat="37.097229" lon="-79.604782">
        <ele>252.310563</ele>
        <time>2025-04-04T15:37:09.000Z</time>
      </trkpt>
      <trkpt lat="37.097309" lon="-79.605103">
        <ele>251.956665</ele>
        <time>2025-04-04T15:37:12.000Z</time>
      </trkpt>
      <trkpt lat="37.097336" lon="-79.605473">
        <ele>251.582106</ele>
        <time>2025-04-04T15:37:15.000Z</time>
      </trkpt>
      <trkpt lat="37.097219" lon="-79.607925">
        <ele>252.216629</ele>
        <time>2025-04-04T15:37:37.000Z</time>
      </trkpt>
      <trkpt lat="37.09711" lon="-79.608386">
        <ele>252.551767</ele>
        <time>2025-04-04T15:37:41.000Z</time>
      </trkpt>
      <trkpt lat="37.097022" lon="-79.608622">
        <ele>252.738732</ele>
        <time>2025-04-04T15:37:43.000Z</time>
      </trkpt>
      <trkpt lat="37.096872" lon="-79.608854">
        <ele>252.967708</ele>
        <time>2025-04-04T15:37:46.000Z</time>
      </trkpt>
      <trkpt lat="37.096713" lon="-79.609002">
        <ele>253.154277</ele>
        <time>2025-04-04T15:37:48.000Z</time>
      </trkpt>
      <trkpt lat="37.096671" lon="-79.609036">
        <ele>253.190922</ele>
        <time>2025-04-04T15:37:49.000Z</time>
      </trkpt>
      <trkpt lat="37.096411" lon="-79.609213">
        <ele>253.467895</ele>
        <time>2025-04-04T15:37:52.000Z</time>
      </trkpt>
      <trkpt lat="37.096144" lon="-79.609411">
        <ele>253.751978</ele>
        <time>2025-04-04T15:37:55.000Z</time>
      </trkpt>
      <trkpt lat="37.095999" lon="-79.609501">
        <ele>253.898902</ele>
        <time>2025-04-04T15:37:57.000Z</time>
      </trkpt>
      <trkpt lat="37.095789" lon="-79.609862">
        <ele>254.173204</ele>
        <time>2025-04-04T15:38:01.000Z</time>
      </trkpt>
      <trkpt lat="37.095744" lon="-79.609928">
        <ele>254.173204</ele>
        <time>2025-04-04T15:38:02.000Z</time>
      </trkpt>
      <trkpt lat="37.095675" lon="-79.609941">
        <ele>254.173207</ele>
        <time>2025-04-04T15:38:03.000Z</time>
      </trkpt>
      <trkpt lat="37.09563" lon="-79.610049">
        <ele>254.173206</ele>
        <time>2025-04-04T15:38:04.000Z</time>
      </trkpt>
      <trkpt lat="37.095591" lon="-79.610103">
        <ele>254.173219</ele>
        <time>2025-04-04T15:38:05.000Z</time>
      </trkpt>
      <trkpt lat="37.095077" lon="-79.610383">
        <ele>254.173211</ele>
        <time>2025-04-04T15:38:11.000Z</time>
      </trkpt>
      <trkpt lat="37.095063" lon="-79.610377">
        <ele>254.173216</ele>
        <time>2025-04-04T15:38:11.000Z</time>
      </trkpt>
      <trkpt lat="37.095039" lon="-79.61039">
        <ele>254.173203</ele>
        <time>2025-04-04T15:38:11.000Z</time>
      </trkpt>
      <trkpt lat="37.094975" lon="-79.610343">
        <ele>254.173204</ele>
        <time>2025-04-04T15:38:12.000Z</time>
      </trkpt>
      <trkpt lat="37.094919" lon="-79.610198">
        <ele>254.173209</ele>
        <time>2025-04-04T15:38:13.000Z</time>
      </trkpt>
      <trkpt lat="37.09545" lon="-79.60988">
        <ele>254.173219</ele>
        <time>2025-04-04T15:38:20.000Z</time>
      </trkpt>
      <trkpt lat="37.095484" lon="-79.60984">
        <ele>253.764439</ele>
        <time>2025-04-04T15:38:21.000Z</time>
      </trkpt>
      <trkpt lat="37.095529" lon="-79.609831">
        <ele>253.764451</ele>
        <time>2025-04-04T15:38:22.000Z</time>
      </trkpt>
      <trkpt lat="37.095592" lon="-79.609826">
        <ele>253.76444</ele>
        <time>2025-04-04T15:38:23.000Z</time>
      </trkpt>
      <trkpt lat="37.095615" lon="-79.609767">
        <ele>253.764449</ele>
        <time>2025-04-04T15:38:24.000Z</time>
      </trkpt>
      <trkpt lat="37.09569" lon="-79.6097">
        <ele>253.764456</ele>
        <time>2025-04-04T15:38:25.000Z</time>
      </trkpt>
      <trkpt lat="37.096" lon="-79.609487">
        <ele>253.764457</ele>
        <time>2025-04-04T15:38:29.000Z</time>
      </trkpt>
      <trkpt lat="37.096144" lon="-79.609402">
        <ele>253.764457</ele>
        <time>2025-04-04T15:38:31.000Z</time>
      </trkpt>
      <trkpt lat="37.096408" lon="-79.609221">
        <ele>253.577012</ele>
        <time>2025-04-04T15:38:34.000Z</time>
      </trkpt>
      <trkpt lat="37.096666" lon="-79.609042">
        <ele>253.258508</ele>
        <time>2025-04-04T15:38:37.000Z</time>
      </trkpt>
      <trkpt lat="37.096707" lon="-79.609008">
        <ele>253.216388</ele>
        <time>2025-04-04T15:38:38.000Z</time>
      </trkpt>
      <trkpt lat="37.096868" lon="-79.608863">
        <ele>253.001837</ele>
        <time>2025-04-04T15:38:40.000Z</time>
      </trkpt>
      <trkpt lat="37.097028" lon="-79.608619">
        <ele>252.738539</ele>
        <time>2025-04-04T15:38:43.000Z</time>
      </trkpt>
      <trkpt lat="37.097103" lon="-79.608386">
        <ele>252.523547</ele>
        <time>2025-04-04T15:38:45.000Z</time>
      </trkpt>
      <trkpt lat="37.097211" lon="-79.607921">
        <ele>252.10942</ele>
        <time>2025-04-04T15:38:49.000Z</time>
      </trkpt>
      <trkpt lat="37.097336" lon="-79.605478">
        <ele>251.212166</ele>
        <time>2025-04-04T15:39:11.000Z</time>
      </trkpt>
      <trkpt lat="37.097322" lon="-79.605102">
        <ele>251.532116</ele>
        <time>2025-04-04T15:39:14.000Z</time>
      </trkpt>
      <trkpt lat="37.097236" lon="-79.604778">
        <ele>252.028116</ele>
        <time>2025-04-04T15:39:17.000Z</time>
      </trkpt>
      <trkpt lat="37.097081" lon="-79.604447">
        <ele>252.580939</ele>
        <time>2025-04-04T15:39:20.000Z</time>
      </trkpt>
      <trkpt lat="37.096962" lon="-79.604254">
        <ele>252.902869</ele>
        <time>2025-04-04T15:39:22.000Z</time>
      </trkpt>
      <trkpt lat="37.096069" lon="-79.603125">
        <ele>255.079629</ele>
        <time>2025-04-04T15:39:36.000Z</time>
      </trkpt>
      <trkpt lat="37.095879" lon="-79.602939">
        <ele>255.472657</ele>
        <time>2025-04-04T15:39:39.000Z</time>
      </trkpt>
      <trkpt lat="37.094931" lon="-79.602215">
        <ele>257.255546</ele>
        <time>2025-04-04T15:39:51.000Z</time>
      </trkpt>
      <trkpt lat="37.094617" lon="-79.601903">
        <ele>258.144149</ele>
        <time>2025-04-04T15:39:55.000Z</time>
      </trkpt>
      <trkpt lat="37.0944" lon="-79.601481">
        <ele>259.025727</ele>
        <time>2025-04-04T15:39:59.000Z</time>
      </trkpt>
      <trkpt lat="37.094088" lon="-79.600668">
        <ele>260.614494</ele>
        <time>2025-04-04T15:40:07.000Z</time>
      </trkpt>
      <trkpt lat="37.093995" lon="-79.600387">
        <ele>261.168887</ele>
        <time>2025-04-04T15:40:10.000Z</time>
      </trkpt>
      <trkpt lat="37.09336" lon="-79.598666">
        <ele>266.773472</ele>
        <time>2025-04-04T15:40:27.000Z</time>
      </trkpt>
      <trkpt lat="37.092188" lon="-79.595275">
        <ele>273.865115</ele>
        <time>2025-04-04T15:41:00.000Z</time>
      </trkpt>
      <trkpt lat="37.091508" lon="-79.593431">
        <ele>276.617754</ele>
        <time>2025-04-04T15:41:18.000Z</time>
      </trkpt>
      <trkpt lat="37.091418" lon="-79.593148">
        <ele>276.889136</ele>
        <time>2025-04-04T15:41:21.000Z</time>
      </trkpt>
      <trkpt lat="37.091093" lon="-79.593649">
        <ele>277.430212</ele>
        <time>2025-04-04T15:41:27.000Z</time>
      </trkpt>
      <trkpt lat="37.090169" lon="-79.595309">
        <ele>276.958579</ele>
        <time>2025-04-04T15:41:45.000Z</time>
      </trkpt>
      <trkpt lat="37.089822" lon="-79.595921">
        <ele>276.432603</ele>
        <time>2025-04-04T15:41:52.000Z</time>
      </trkpt>
      <trkpt lat="37.089743" lon="-79.59606">
        <ele>275.954351</ele>
        <time>2025-04-04T15:41:54.000Z</time>
      </trkpt>
      <trkpt lat="37.089566" lon="-79.596373">
        <ele>274.895161</ele>
        <time>2025-04-04T15:41:57.000Z</time>
      </trkpt>
      <trkpt lat="37.089133" lon="-79.597132">
        <ele>272.287653</ele>
        <time>2025-04-04T15:42:05.000Z</time>
      </trkpt>
      <trkpt lat="37.088598" lon="-79.597893">
        <ele>269.551811</ele>
        <time>2025-04-04T15:42:14.000Z</time>
      </trkpt>
      <trkpt lat="37.088277" lon="-79.598224">
        <ele>268.241914</ele>
        <time>2025-04-04T15:42:19.000Z</time>
      </trkpt>
      <trkpt lat="37.087774" lon="-79.598596">
        <ele>266.390517</ele>
        <time>2025-04-04T15:42:25.000Z</time>
      </trkpt>
      <trkpt lat="37.087285" lon="-79.598935">
        <ele>264.686861</ele>
        <time>2025-04-04T15:42:31.000Z</time>
      </trkpt>
      <trkpt lat="37.086978" lon="-79.599251">
        <ele>263.894033</ele>
        <time>2025-04-04T15:42:35.000Z</time>
      </trkpt>
      <trkpt lat="37.086908" lon="-79.599364">
        <ele>263.691884</ele>
        <time>2025-04-04T15:42:36.000Z</time>
      </trkpt>
      <trkpt lat="37.086756" lon="-79.59971">
        <ele>263.137272</ele>
        <time>2025-04-04T15:42:40.000Z</time>
      </trkpt>
      <trkpt lat="37.086012" lon="-79.602018">
        <ele>260.165851</ele>
        <time>2025-04-04T15:43:02.000Z</time>
      </trkpt>
      <trkpt lat="37.085829" lon="-79.602441">
        <ele>259.700801</ele>
        <time>2025-04-04T15:43:06.000Z</time>
      </trkpt>
      <trkpt lat="37.08567" lon="-79.602712">
        <ele>259.385274</ele>
        <time>2025-04-04T15:43:09.000Z</time>
      </trkpt>
      <trkpt lat="37.085448" lon="-79.602965">
        <ele>259.251183</ele>
        <time>2025-04-04T15:43:12.000Z</time>
      </trkpt>
      <trkpt lat="37.085187" lon="-79.603159">
        <ele>259.344373</ele>
        <time>2025-04-04T15:43:15.000Z</time>
      </trkpt>
      <trkpt lat="37.083914" lon="-79.603633">
        <ele>259.759098</ele>
        <time>2025-04-04T15:43:30.000Z</time>
      </trkpt>
      <trkpt lat="37.083614" lon="-79.60382">
        <ele>259.564755</ele>
        <time>2025-04-04T15:43:34.000Z</time>
      </trkpt>
      <trkpt lat="37.083379" lon="-79.604104">
        <ele>259.357181</ele>
        <time>2025-04-04T15:43:38.000Z</time>
      </trkpt>
      <trkpt lat="37.083191" lon="-79.604425">
        <ele>259.164795</ele>
        <time>2025-04-04T15:43:42.000Z</time>
      </trkpt>
      <trkpt lat="37.083115" lon="-79.604707">
        <ele>259.017353</ele>
        <time>2025-04-04T15:43:45.000Z</time>
      </trkpt>
      <trkpt lat="37.082959" lon="-79.606603">
        <ele>258.729039</ele>
        <time>2025-04-04T15:44:02.000Z</time>
      </trkpt>
      <trkpt lat="37.082879" lon="-79.606956">
        <ele>258.758275</ele>
        <time>2025-04-04T15:44:05.000Z</time>
      </trkpt>
      <trkpt lat="37.082815" lon="-79.607144">
        <ele>258.77585</ele>
        <time>2025-04-04T15:44:07.000Z</time>
      </trkpt>
      <trkpt lat="37.082618" lon="-79.607481">
        <ele>258.810192</ele>
        <time>2025-04-04T15:44:11.000Z</time>
      </trkpt>
      <trkpt lat="37.082447" lon="-79.607629">
        <ele>258.519661</ele>
        <time>2025-04-04T15:44:13.000Z</time>
      </trkpt>
      <trkpt lat="37.082146" lon="-79.607802">
        <ele>257.683891</ele>
        <time>2025-04-04T15:44:17.000Z</time>
      </trkpt>
      <trkpt lat="37.081584" lon="-79.608033">
        <ele>256.17835</ele>
        <time>2025-04-04T15:44:24.000Z</time>
      </trkpt>
      <trkpt lat="37.081301" lon="-79.60821">
        <ele>255.39074</ele>
        <time>2025-04-04T15:44:28.000Z</time>
      </trkpt>
      <trkpt lat="37.080937" lon="-79.608525">
        <ele>254.256319</ele>
        <time>2025-04-04T15:44:33.000Z</time>
      </trkpt>
      <trkpt lat="37.080355" lon="-79.609083">
        <ele>251.354338</ele>
        <time>2025-04-04T15:44:41.000Z</time>
      </trkpt>
      <trkpt lat="37.080147" lon="-79.609349">
        <ele>250.159835</ele>
        <time>2025-04-04T15:44:44.000Z</time>
      </trkpt>
      <trkpt lat="37.08009" lon="-79.609444">
        <ele>249.792371</ele>
        <time>2025-04-04T15:44:45.000Z</time>
      </trkpt>
      <trkpt lat="37.080033" lon="-79.609647">
        <ele>249.068387</ele>
        <time>2025-04-04T15:44:47.000Z</time>
      </trkpt>
      <trkpt lat="37.080019" lon="-79.609834">
        <ele>248.487184</ele>
        <time>2025-04-04T15:44:49.000Z</time>
      </trkpt>
      <trkpt lat="37.08005" lon="-79.610267">
        <ele>247.082735</ele>
        <time>2025-04-04T15:44:53.000Z</time>
      </trkpt>
      <trkpt lat="37.08002" lon="-79.610435">
        <ele>247.02592</ele>
        <time>2025-04-04T15:44:55.000Z</time>
      </trkpt>
      <trkpt lat="37.079983" lon="-79.6105">
        <ele>246.999477</ele>
        <time>2025-04-04T15:44:56.000Z</time>
      </trkpt>
      <trkpt lat="37.079736" lon="-79.61077">
        <ele>246.868127</ele>
        <time>2025-04-04T15:45:00.000Z</time>
      </trkpt>
      <trkpt lat="37.079641" lon="-79.610899">
        <ele>246.814841</ele>
        <time>2025-04-04T15:45:02.000Z</time>
      </trkpt>
      <trkpt lat="37.079544" lon="-79.611186">
        <ele>246.710811</ele>
        <time>2025-04-04T15:45:05.000Z</time>
      </trkpt>
      <trkpt lat="37.079455" lon="-79.61154">
        <ele>246.59926</ele>
        <time>2025-04-04T15:45:08.000Z</time>
      </trkpt>
      <trkpt lat="37.079359" lon="-79.611693">
        <ele>246.536542</ele>
        <time>2025-04-04T15:45:10.000Z</time>
      </trkpt>
      <trkpt lat="37.079177" lon="-79.611848">
        <ele>246.445653</ele>
        <time>2025-04-04T15:45:12.000Z</time>
      </trkpt>
      <trkpt lat="37.078773" lon="-79.611988">
        <ele>246.664017</ele>
        <time>2025-04-04T15:45:17.000Z</time>
      </trkpt>
      <trkpt lat="37.078667" lon="-79.612051">
        <ele>246.858277</ele>
        <time>2025-04-04T15:45:18.000Z</time>
      </trkpt>
      <trkpt lat="37.078579" lon="-79.612148">
        <ele>247.013469</ele>
        <time>2025-04-04T15:45:19.000Z</time>
      </trkpt>
      <trkpt lat="37.078531" lon="-79.612254">
        <ele>247.167567</ele>
        <time>2025-04-04T15:45:20.000Z</time>
      </trkpt>
      <trkpt lat="37.078479" lon="-79.612434">
        <ele>247.396611</ele>
        <time>2025-04-04T15:45:22.000Z</time>
      </trkpt>
      <trkpt lat="37.078479" lon="-79.61263">
        <ele>247.626725</ele>
        <time>2025-04-04T15:45:24.000Z</time>
      </trkpt>
      <trkpt lat="37.078576" lon="-79.613024">
        <ele>248.130417</ele>
        <time>2025-04-04T15:45:28.000Z</time>
      </trkpt>
      <trkpt lat="37.07868" lon="-79.613371">
        <ele>248.559581</ele>
        <time>2025-04-04T15:45:31.000Z</time>
      </trkpt>
      <trkpt lat="37.078818" lon="-79.613709">
        <ele>249.018183</ele>
        <time>2025-04-04T15:45:34.000Z</time>
      </trkpt>
      <trkpt lat="37.079063" lon="-79.614123">
        <ele>249.206656</ele>
        <time>2025-04-04T15:45:39.000Z</time>
      </trkpt>
      <trkpt lat="37.079203" lon="-79.614464">
        <ele>249.329324</ele>
        <time>2025-04-04T15:45:42.000Z</time>
      </trkpt>
      <trkpt lat="37.079289" lon="-79.614816">
        <ele>249.450239</ele>
        <time>2025-04-04T15:45:45.000Z</time>
      </trkpt>
      <trkpt lat="37.079289" lon="-79.615082">
        <ele>249.529669</ele>
        <time>2025-04-04T15:45:47.000Z</time>
      </trkpt>
      <trkpt lat="37.079292" lon="-79.615242">
        <ele>249.583367</ele>
        <time>2025-04-04T15:45:48.000Z</time>
      </trkpt>
      <trkpt lat="37.079257" lon="-79.615401">
        <ele>249.636339</ele>
        <time>2025-04-04T15:45:49.000Z</time>
      </trkpt>
      <trkpt lat="37.079217" lon="-79.61544">
        <ele>249.656089</ele>
        <time>2025-04-04T15:45:50.000Z</time>
      </trkpt>
      <trkpt lat="37.079249" lon="-79.615391">
        <ele>249.675814</ele>
        <time>2025-04-04T15:45:51.000Z</time>
      </trkpt>
      <trkpt lat="37.079293" lon="-79.615241">
        <ele>249.728796</ele>
        <time>2025-04-04T15:45:52.000Z</time>
      </trkpt>
      <trkpt lat="37.07929" lon="-79.615082">
        <ele>249.752628</ele>
        <time>2025-04-04T15:45:53.000Z</time>
      </trkpt>
      <trkpt lat="37.079284" lon="-79.614819">
        <ele>249.583204</ele>
        <time>2025-04-04T15:45:55.000Z</time>
      </trkpt>
      <trkpt lat="37.079202" lon="-79.614456">
        <ele>249.325307</ele>
        <time>2025-04-04T15:45:58.000Z</time>
      </trkpt>
      <trkpt lat="37.07908" lon="-79.614121">
        <ele>249.063664</ele>
        <time>2025-04-04T15:46:01.000Z</time>
      </trkpt>
      <trkpt lat="37.078819" lon="-79.613703">
        <ele>248.715112</ele>
        <time>2025-04-04T15:46:06.000Z</time>
      </trkpt>
      <trkpt lat="37.078686" lon="-79.613364">
        <ele>248.452923</ele>
        <time>2025-04-04T15:46:09.000Z</time>
      </trkpt>
      <trkpt lat="37.078587" lon="-79.613036">
        <ele>248.195215</ele>
        <time>2025-04-04T15:46:12.000Z</time>
      </trkpt>
      <trkpt lat="37.078472" lon="-79.612622">
        <ele>247.782794</ele>
        <time>2025-04-04T15:46:16.000Z</time>
      </trkpt>
      <trkpt lat="37.078485" lon="-79.612439">
        <ele>247.59435</ele>
        <time>2025-04-04T15:46:18.000Z</time>
      </trkpt>
      <trkpt lat="37.078527" lon="-79.612253">
        <ele>247.406799</ele>
        <time>2025-04-04T15:46:20.000Z</time>
      </trkpt>
      <trkpt lat="37.078593" lon="-79.612138">
        <ele>247.280618</ele>
        <time>2025-04-04T15:46:21.000Z</time>
      </trkpt>
      <trkpt lat="37.078656" lon="-79.612064">
        <ele>247.15355</ele>
        <time>2025-04-04T15:46:22.000Z</time>
      </trkpt>
      <trkpt lat="37.078782" lon="-79.611982">
        <ele>246.994474</ele>
        <time>2025-04-04T15:46:24.000Z</time>
      </trkpt>
      <trkpt lat="37.079177" lon="-79.611845">
        <ele>246.498145</ele>
        <time>2025-04-04T15:46:29.000Z</time>
      </trkpt>
      <trkpt lat="37.079359" lon="-79.611686">
        <ele>246.218024</ele>
        <time>2025-04-04T15:46:31.000Z</time>
      </trkpt>
      <trkpt lat="37.079443" lon="-79.611539">
        <ele>246.046845</ele>
        <time>2025-04-04T15:46:33.000Z</time>
      </trkpt>
      <trkpt lat="37.079532" lon="-79.61119">
        <ele>246.4489</ele>
        <time>2025-04-04T15:46:36.000Z</time>
      </trkpt>
      <trkpt lat="37.079651" lon="-79.610899">
        <ele>246.823833</ele>
        <time>2025-04-04T15:46:39.000Z</time>
      </trkpt>
      <trkpt lat="37.07973" lon="-79.610769">
        <ele>247.015907</ele>
        <time>2025-04-04T15:46:40.000Z</time>
      </trkpt>
      <trkpt lat="37.079985" lon="-79.610517">
        <ele>247.489322</ele>
        <time>2025-04-04T15:46:44.000Z</time>
      </trkpt>
      <trkpt lat="37.080034" lon="-79.610441">
        <ele>247.584638</ele>
        <time>2025-04-04T15:46:45.000Z</time>
      </trkpt>
      <trkpt lat="37.080051" lon="-79.610267">
        <ele>247.775644</ele>
        <time>2025-04-04T15:46:47.000Z</time>
      </trkpt>
      <trkpt lat="37.080029" lon="-79.609832">
        <ele>248.278996</ele>
        <time>2025-04-04T15:46:51.000Z</time>
      </trkpt>
      <trkpt lat="37.08004" lon="-79.609655">
        <ele>248.487322</ele>
        <time>2025-04-04T15:46:53.000Z</time>
      </trkpt>
      <trkpt lat="37.080092" lon="-79.609443">
        <ele>249.055075</ele>
        <time>2025-04-04T15:46:55.000Z</time>
      </trkpt>
      <trkpt lat="37.080142" lon="-79.609349">
        <ele>249.481972</ele>
        <time>2025-04-04T15:46:56.000Z</time>
      </trkpt>
      <trkpt lat="37.080355" lon="-79.609072">
        <ele>250.869759</ele>
        <time>2025-04-04T15:46:59.000Z</time>
      </trkpt>
      <trkpt lat="37.080927" lon="-79.608514">
        <ele>254.241261</ele>
        <time>2025-04-04T15:47:07.000Z</time>
      </trkpt>
      <trkpt lat="37.081306" lon="-79.608201">
        <ele>256.314634</ele>
        <time>2025-04-04T15:47:12.000Z</time>
      </trkpt>
      <trkpt lat="37.081584" lon="-79.608024">
        <ele>257.104572</ele>
        <time>2025-04-04T15:47:15.000Z</time>
      </trkpt>
      <trkpt lat="37.082144" lon="-79.607811">
        <ele>257.621477</ele>
        <time>2025-04-04T15:47:22.000Z</time>
      </trkpt>
      <trkpt lat="37.082438" lon="-79.607641">
        <ele>257.908439</ele>
        <time>2025-04-04T15:47:26.000Z</time>
      </trkpt>
      <trkpt lat="37.082616" lon="-79.60748">
        <ele>258.092464</ele>
        <time>2025-04-04T15:47:28.000Z</time>
      </trkpt>
      <trkpt lat="37.082811" lon="-79.607138">
        <ele>258.381313</ele>
        <time>2025-04-04T15:47:32.000Z</time>
      </trkpt>
      <trkpt lat="37.082877" lon="-79.606953">
        <ele>258.523109</ele>
        <time>2025-04-04T15:47:34.000Z</time>
      </trkpt>
      <trkpt lat="37.082955" lon="-79.606609">
        <ele>258.620538</ele>
        <time>2025-04-04T15:47:37.000Z</time>
      </trkpt>
      <trkpt lat="37.083118" lon="-79.604703">
        <ele>259.146671</ele>
        <time>2025-04-04T15:47:54.000Z</time>
      </trkpt>
      <trkpt lat="37.083193" lon="-79.604426">
        <ele>259.211067</ele>
        <time>2025-04-04T15:47:57.000Z</time>
      </trkpt>
      <trkpt lat="37.083364" lon="-79.604114">
        <ele>259.2951</ele>
        <time>2025-04-04T15:48:00.000Z</time>
      </trkpt>
      <trkpt lat="37.083601" lon="-79.603823">
        <ele>259.385774</ele>
        <time>2025-04-04T15:48:04.000Z</time>
      </trkpt>
      <trkpt lat="37.083908" lon="-79.603632">
        <ele>259.47988</ele>
        <time>2025-04-04T15:48:08.000Z</time>
      </trkpt>
      <trkpt lat="37.085185" lon="-79.603165">
        <ele>259.568605</ele>
        <time>2025-04-04T15:48:23.000Z</time>
      </trkpt>
      <trkpt lat="37.085434" lon="-79.602973">
        <ele>259.543046</ele>
        <time>2025-04-04T15:48:26.000Z</time>
      </trkpt>
      <trkpt lat="37.085671" lon="-79.602706">
        <ele>259.51681</ele>
        <time>2025-04-04T15:48:30.000Z</time>
      </trkpt>
      <trkpt lat="37.085831" lon="-79.60245">
        <ele>259.494057</ele>
        <time>2025-04-04T15:48:33.000Z</time>
      </trkpt>
      <trkpt lat="37.086005" lon="-79.602025">
        <ele>259.853027</ele>
        <time>2025-04-04T15:48:37.000Z</time>
      </trkpt>
      <trkpt lat="37.086757" lon="-79.599714">
        <ele>263.244352</ele>
        <time>2025-04-04T15:48:59.000Z</time>
      </trkpt>
      <trkpt lat="37.086908" lon="-79.599378">
        <ele>263.828862</ele>
        <time>2025-04-04T15:49:02.000Z</time>
      </trkpt>
      <trkpt lat="37.086977" lon="-79.599261">
        <ele>264.041915</ele>
        <time>2025-04-04T15:49:03.000Z</time>
      </trkpt>
      <trkpt lat="37.087289" lon="-79.598927">
        <ele>264.830715</ele>
        <time>2025-04-04T15:49:08.000Z</time>
      </trkpt>
      <trkpt lat="37.08776" lon="-79.598603">
        <ele>265.859771</ele>
        <time>2025-04-04T15:49:14.000Z</time>
      </trkpt>
      <trkpt lat="37.088271" lon="-79.598218">
        <ele>268.076718</ele>
        <time>2025-04-04T15:49:21.000Z</time>
      </trkpt>
      <trkpt lat="37.088588" lon="-79.597882">
        <ele>269.656098</ele>
        <time>2025-04-04T15:49:26.000Z</time>
      </trkpt>
      <trkpt lat="37.089121" lon="-79.597132">
        <ele>272.698026</ele>
        <time>2025-04-04T15:49:35.000Z</time>
      </trkpt>
      <trkpt lat="37.089568" lon="-79.59638">
        <ele>274.646637</ele>
        <time>2025-04-04T15:49:43.000Z</time>
      </trkpt>
      <trkpt lat="37.089742" lon="-79.59606">
        <ele>275.438182</ele>
        <time>2025-04-04T15:49:46.000Z</time>
      </trkpt>
      <trkpt lat="37.08983" lon="-79.595923">
        <ele>275.795593</ele>
        <time>2025-04-04T15:49:48.000Z</time>
      </trkpt>
      <trkpt lat="37.09018" lon="-79.595306">
        <ele>277.390049</ele>
        <time>2025-04-04T15:49:55.000Z</time>
      </trkpt>
      <trkpt lat="37.091091" lon="-79.593642">
        <ele>277.626454</ele>
        <time>2025-04-04T15:50:13.000Z</time>
      </trkpt>
      <trkpt lat="37.091414" lon="-79.593142">
        <ele>277.125808</ele>
        <time>2025-04-04T15:50:19.000Z</time>
      </trkpt>
      <trkpt lat="37.091513" lon="-79.593436">
        <ele>276.711369</ele>
        <time>2025-04-04T15:50:22.000Z</time>
      </trkpt>
      <trkpt lat="37.092179" lon="-79.595268">
        <ele>273.878356</ele>
        <time>2025-04-04T15:50:40.000Z</time>
      </trkpt>
      <trkpt lat="37.093362" lon="-79.598671">
        <ele>266.755755</ele>
        <time>2025-04-04T15:51:13.000Z</time>
      </trkpt>
      <trkpt lat="37.093998" lon="-79.600391">
        <ele>261.489637</ele>
        <time>2025-04-04T15:51:30.000Z</time>
      </trkpt>
      <trkpt lat="37.094091" lon="-79.600664">
        <ele>260.574385</ele>
        <time>2025-04-04T15:51:33.000Z</time>
      </trkpt>
      <trkpt lat="37.094399" lon="-79.601496">
        <ele>258.759773</ele>
        <time>2025-04-04T15:51:41.000Z</time>
      </trkpt>
      <trkpt lat="37.094615" lon="-79.601896">
        <ele>258.069667</ele>
        <time>2025-04-04T15:51:45.000Z</time>
      </trkpt>
      <trkpt lat="37.094928" lon="-79.602208">
        <ele>257.371635</ele>
        <time>2025-04-04T15:51:49.000Z</time>
      </trkpt>
      <trkpt lat="37.095887" lon="-79.602948">
        <ele>255.449081</ele>
        <time>2025-04-04T15:52:02.000Z</time>
      </trkpt>
      <trkpt lat="37.096071" lon="-79.603132">
        <ele>255.024766</ele>
        <time>2025-04-04T15:52:05.000Z</time>
      </trkpt>
      <trkpt lat="37.096956" lon="-79.604266">
        <ele>252.934703</ele>
        <time>2025-04-04T15:52:19.000Z</time>
      </trkpt>
      <trkpt lat="37.097082" lon="-79.60444">
        <ele>252.705008</ele>
        <time>2025-04-04T15:52:21.000Z</time>
      </trkpt>
      <trkpt lat="37.097221" lon="-79.604784">
        <ele>252.310553</ele>
        <time>2025-04-04T15:52:24.000Z</time>
      </trkpt>
      <trkpt lat="37.097315" lon="-79.605116">
        <ele>251.956669</ele>
        <time>2025-04-04T15:52:27.000Z</time>
      </trkpt>
      <trkpt lat="37.097339" lon="-79.605486">
        <ele>251.58212</ele>
        <time>2025-04-04T15:52:30.000Z</time>
      </trkpt>
      <trkpt lat="37.097202" lon="-79.607926">
        <ele>252.216618</ele>
        <time>2025-04-04T15:52:52.000Z</time>
      </trkpt>
      <trkpt lat="37.097113" lon="-79.608397">
        <ele>252.551751</ele>
        <time>2025-04-04T15:52:56.000Z</time>
      </trkpt>
      <trkpt lat="37.097033" lon="-79.608626">
        <ele>252.738734</ele>
        <time>2025-04-04T15:52:58.000Z</time>
      </trkpt>
      <trkpt lat="37.096871" lon="-79.608863">
        <ele>252.967713</ele>
        <time>2025-04-04T15:53:01.000Z</time>
      </trkpt>
      <trkpt lat="37.096704" lon="-79.609004">
        <ele>253.154288</ele>
        <time>2025-04-04T15:53:03.000Z</time>
      </trkpt>
      <trkpt lat="37.096668" lon="-79.609036">
        <ele>253.190918</ele>
        <time>2025-04-04T15:53:03.000Z</time>
      </trkpt>
      <trkpt lat="37.096418" lon="-79.609227">
        <ele>253.467899</ele>
        <time>2025-04-04T15:53:06.000Z</time>
      </trkpt>
      <trkpt lat="37.096154" lon="-79.6094">
        <ele>253.751991</ele>
        <time>2025-04-04T15:53:09.000Z</time>
      </trkpt>
      <trkpt lat="37.095998" lon="-79.609496">
        <ele>253.898902</ele>
        <time>2025-04-04T15:53:11.000Z</time>
      </trkpt>
      <trkpt lat="37.095792" lon="-79.609867">
        <ele>254.173214</ele>
        <time>2025-04-04T15:53:15.000Z</time>
      </trkpt>
      <trkpt lat="37.095734" lon="-79.60992">
        <ele>254.173211</ele>
        <time>2025-04-04T15:53:16.000Z</time>
      </trkpt>
      <trkpt lat="37.095681" lon="-79.609932">
        <ele>254.173211</ele>
        <time>2025-04-04T15:53:17.000Z</time>
      </trkpt>
      <trkpt lat="37.095619" lon="-79.610062">
        <ele>254.173212</ele>
        <time>2025-04-04T15:53:18.000Z</time>
      </trkpt>
      <trkpt lat="37.095578" lon="-79.610096">
        <ele>254.173205</ele>
        <time>2025-04-04T15:53:19.000Z</time>
      </trkpt>
      <trkpt lat="37.095084" lon="-79.610382">
        <ele>254.173211</ele>
        <time>2025-04-04T15:53:25.000Z</time>
      </trkpt>
      <trkpt lat="37.095074" lon="-79.610371">
        <ele>254.173208</ele>
        <time>2025-04-04T15:53:25.000Z</time>
      </trkpt>
      <trkpt lat="37.09503" lon="-79.610386">
        <ele>254.173217</ele>
        <time>2025-04-04T15:53:26.000Z</time>
      </trkpt>
      <trkpt lat="37.094972" lon="-79.610343">
        <ele>254.173204</ele>
        <time>2025-04-04T15:53:27.000Z</time>
      </trkpt>
      <trkpt lat="37.09491" lon="-79.610193">
        <ele>254.173218</ele>
        <time>2025-04-04T15:53:28.000Z</time>
      </trkpt>
      <trkpt lat="37.095444" lon="-79.609876">
        <ele>254.17322</ele>
        <time>2025-04-04T15:53:35.000Z</time>
      </trkpt>
      <trkpt lat="37.095491" lon="-79.609841">
        <ele>253.76444</ele>
        <time>2025-04-04T15:53:36.000Z</time>
      </trkpt>
      <trkpt lat="37.095521" lon="-79.60983">
        <ele>253.764454</ele>
        <time>2025-04-04T15:53:36.000Z</time>
      </trkpt>
      <trkpt lat="37.095603" lon="-79.609827">
        <ele>253.764444</ele>
        <time>2025-04-04T15:53:37.000Z</time>
      </trkpt>
      <trkpt lat="37.095607" lon="-79.609768">
        <ele>253.764451</ele>
        <time>2025-04-04T15:53:38.000Z</time>
      </trkpt>
      <trkpt lat="37.095675" lon="-79.609698">
        <ele>253.764449</ele>
        <time>2025-04-04T15:53:39.000Z</time>
      </trkpt>
      <trkpt lat="37.096006" lon="-79.609501">
        <ele>253.764448</ele>
        <time>2025-04-04T15:53:43.000Z</time>
      </trkpt>
      <trkpt lat="37.096152" lon="-79.609395">
        <ele>253.764453</ele>
        <time>2025-04-04T15:53:45.000Z</time>
      </trkpt>
      <trkpt lat="37.096422" lon="-79.609212">
        <ele>253.577013</ele>
        <time>2025-04-04T15:53:48.000Z</time>
      </trkpt>
      <trkpt lat="37.096674" lon="-79.609033">
        <ele>253.258521</ele>
        <time>2025-04-04T15:53:51.000Z</time>
      </trkpt>
      <trkpt lat="37.096714" lon="-79.609009">
        <ele>253.216382</ele>
        <time>2025-04-04T15:53:51.000Z</time>
      </trkpt>
      <trkpt lat="37.09687" lon="-79.608865">
        <ele>253.001849</ele>
        <time>2025-04-04T15:53:53.000Z</time>
      </trkpt>
      <trkpt lat="37.097017" lon="-79.608612">
        <ele>252.738538</ele>
        <time>2025-04-04T15:53:56.000Z</time>
      </trkpt>
      <trkpt lat="37.097109" lon="-79.6084">
        <ele>252.52354</ele>
        <time>2025-04-04T15:53:58.000Z</time>
      </trkpt>
      <trkpt lat="37.097203" lon="-79.607927">
        <ele>252.109432</ele>
        <time>2025-04-04T15:54:02.000Z</time>
      </trkpt>
      <trkpt lat="37.097342" lon="-79.60548">
        <ele>251.212164</ele>
        <time>2025-04-04T15:54:24.000Z</time>
      </trkpt>
      <trkpt lat="37.097322" lon="-79.605108">
        <ele>251.53212</ele>
        <time>2025-04-04T15:54:27.000Z</time>
      </trkpt>
      <trkpt lat="37.09722" lon="-79.604768">
        <ele>252.028126</ele>
        <time>2025-04-04T15:54:30.000Z</time>
      </trkpt>
      <trkpt lat="37.097074" lon="-79.604444">
        <ele>252.580933</ele>
        <time>2025-04-04T15:54:33.000Z</time>
      </trkpt>
      <trkpt lat="37.096961" lon="-79.604258">
        <ele>252.902865</ele>
        <time>2025-04-04T15:54:35.000Z</time>
      </trkpt>
      <trkpt lat="37.096071" lon="-79.603136">
        <ele>255.079639</ele>
        <time>2025-04-04T15:54:49.000Z</time>
      </trkpt>
      <trkpt lat="37.095879" lon="-79.602932">
        <ele>255.472661</ele>
        <time>2025-04-04T15:54:52.000Z</time>
      </trkpt>
      <trkpt lat="37.094926" lon="-79.602216">
        <ele>257.255537</ele>
        <time>2025-04-04T15:55:04.000Z</time>
      </trkpt>
      <trkpt lat="37.094631" lon="-79.601903">
        <ele>258.144142</ele>
        <time>2025-04-04T15:55:08.000Z</time>
      </trkpt>
      <trkpt lat="37.094387" lon="-79.601482">
        <ele>259.025735</ele>
        <time>2025-04-04T15:55:13.000Z</time>
      </trkpt>
      <trkpt lat="37.094089" lon="-79.600662">
        <ele>260.614498</ele>
        <time>2025-04-04T15:55:21.000Z</time>
      </trkpt>
      <trkpt lat="37.093987" lon="-79.600381">
        <ele>261.168888</ele>
        <time>2025-04-04T15:55:24.000Z</time>
      </trkpt>
      <trkpt lat="37.093362" lon="-79.598659">
        <ele>266.773467</ele>
        <time>2025-04-04T15:55:41.000Z</time>
      </trkpt>
      <trkpt lat="37.09219" lon="-79.595274">
        <ele>273.865118</ele>
        <time>2025-04-04T15:56:14.000Z</time>
      </trkpt>
      <trkpt lat="37.091514" lon="-79.593429">
        <ele>276.617763</ele>
        <time>2025-04-04T15:56:32.000Z</time>
      </trkpt>
      <trkpt lat="37.091413" lon="-79.593138">
        <ele>276.889139</ele>
        <time>2025-04-04T15:56:35.000Z</time>
      </trkpt>
      <trkpt lat="37.091091" lon="-79.593649">
        <ele>277.430214</ele>
        <time>2025-04-04T15:56:41.000Z</time>
      </trkpt>
      <trkpt lat="37.090179" lon="-79.595304">
        <ele>276.958579</ele>
        <time>2025-04-04T15:56:59.000Z</time>
      </trkpt>
      <trkpt lat="37.089825" lon="-79.595923">
        <ele>276.432611</ele>
        <time>2025-04-04T15:57:06.000Z</time>
      </trkpt>
      <trkpt lat="37.089749" lon="-79.596067">
        <ele>275.954343</ele>
        <time>2025-04-04T15:57:08.000Z</time>
      </trkpt>
      <trkpt lat="37.089557" lon="-79.596367">
        <ele>274.895157</ele>
        <time>2025-04-04T15:57:11.000Z</time>
      </trkpt>
      <trkpt lat="37.089126" lon="-79.597134">
        <ele>272.287664</ele>
        <time>2025-04-04T15:57:19.000Z</time>
      </trkpt>
      <trkpt lat="37.088594" lon="-79.597888">
        <ele>269.551808</ele>
        <time>2025-04-04T15:57:28.000Z</time>
      </trkpt>
      <trkpt lat="37.088276" lon="-79.598213">
        <ele>268.241928</ele>
        <time>2025-04-04T15:57:33.000Z</time>
      </trkpt>
      <trkpt lat="37.08777" lon="-79.5986">
        <ele>266.390511</ele>
        <time>2025-04-04T15:57:40.000Z</time>
      </trkpt>
      <trkpt lat="37.087288" lon="-79.598925">
        <ele>264.686853</ele>
        <time>2025-04-04T15:57:46.000Z</time>
      </trkpt>
      <trkpt lat="37.08698" lon="-79.599249">
        <ele>263.894036</ele>
        <time>2025-04-04T15:57:50.000Z</time>
      </trkpt>
      <trkpt lat="37.086909" lon="-79.599379">
        <ele>263.691888</ele>
        <time>2025-04-04T15:57:51.000Z</time>
      </trkpt>
      <trkpt lat="37.086757" lon="-79.599706">
        <ele>263.137271</ele>
        <time>2025-04-04T15:57:54.000Z</time>
      </trkpt>
      <trkpt lat="37.08602" lon="-79.602009">
        <ele>260.165849</ele>
        <time>2025-04-04T15:58:16.000Z</time>
      </trkpt>
      <trkpt lat="37.085836" lon="-79.602457">
        <ele>259.700794</ele>
        <time>2025-04-04T15:58:20.000Z</time>
      </trkpt>
      <trkpt lat="37.085662" lon="-79.602718">
        <ele>259.385283</ele>
        <time>2025-04-04T15:58:23.000Z</time>
      </trkpt>
      <trkpt lat="37.085439" lon="-79.602968">
        <ele>259.251174</ele>
        <time>2025-04-04T15:58:26.000Z</time>
      </trkpt>
      <trkpt lat="37.08518" lon="-79.603167">
        <ele>259.344363</ele>
        <time>2025-04-04T15:58:29.000Z</time>
      </trkpt>
      <trkpt lat="37.083906" lon="-79.603633">
        <ele>259.759098</ele>
        <time>2025-04-04T15:58:44.000Z</time>
      </trkpt>
      <trkpt lat="37.083618" lon="-79.603825">
        <ele>259.56476</ele>
        <time>2025-04-04T15:58:48.000Z</time>
      </trkpt>
      <trkpt lat="37.083375" lon="-79.604109">
        <ele>259.357184</ele>
        <time>2025-04-04T15:58:52.000Z</time>
      </trkpt>
      <trkpt lat="37.083194" lon="-79.604427">
        <ele>259.164795</ele>
        <time>2025-04-04T15:58:55.000Z</time>
      </trkpt>
      <trkpt lat="37.083107" lon="-79.6047">
        <ele>259.017362</ele>
        <time>2025-04-04T15:58:58.000Z</time>
      </trkpt>
      <trkpt lat="37.082972" lon="-79.606607">
        <ele>258.729049</ele>
        <time>2025-04-04T15:59:15.000Z</time>
      </trkpt>
      <trkpt lat="37.082881" lon="-79.606942">
        <ele>258.758282</ele>
        <time>2025-04-04T15:59:18.000Z</time>
      </trkpt>
      <trkpt lat="37.082818" lon="-79.607141">
        <ele>258.775833</ele>
        <time>2025-04-04T15:59:20.000Z</time>
      </trkpt>
      <trkpt lat="37.08262" lon="-79.607484">
        <ele>258.810185</ele>
        <time>2025-04-04T15:59:24.000Z</time>
      </trkpt>
      <trkpt lat="37.082454" lon="-79.607634">
        <ele>258.519659</ele>
        <time>2025-04-04T15:59:26.000Z</time>
      </trkpt>
      <trkpt lat="37.082144" lon="-79.607794">
        <ele>257.683877</ele>
        <time>2025-04-04T15:59:30.000Z</time>
      </trkpt>
      <trkpt lat="37.081577" lon="-79.60803">
        <ele>256.178349</ele>
        <time>2025-04-04T15:59:37.000Z</time>
      </trkpt>
      <trkpt lat="37.081309" lon="-79.608205">
        <ele>255.390752</ele>
        <time>2025-04-04T15:59:40.000Z</time>
      </trkpt>
      <trkpt lat="37.080926" lon="-79.608522">
        <ele>254.256326</ele>
        <time>2025-04-04T15:59:45.000Z</time>
      </trkpt>
      <trkpt lat="37.080349" lon="-79.609071">
        <ele>251.354337</ele>
        <time>2025-04-04T15:59:53.000Z</time>
      </trkpt>
      <trkpt lat="37.080145" lon="-79.609347">
        <ele>250.159841</ele>
        <time>2025-04-04T15:59:56.000Z</time>
      </trkpt>
      <trkpt lat="37.080095" lon="-79.609448">
        <ele>249.792386</ele>
        <time>2025-04-04T15:59:57.000Z</time>
      </trkpt>
      <trkpt lat="37.080034" lon="-79.609659">
        <ele>249.068377</ele>
        <time>2025-04-04T15:59:59.000Z</time>
      </trkpt>
      <trkpt lat="37.080033" lon="-79.609829">
        <ele>248.487172</ele>
        <time>2025-04-04T16:00:01.000Z</time>
      </trkpt>
      <trkpt lat="37.080051" lon="-79.610275">
        <ele>247.082736</ele>
        <time>2025-04-04T16:00:05.000Z</time>
      </trkpt>
      <trkpt lat="37.080024" lon="-79.610443">
        <ele>247.025906</ele>
        <time>2025-04-04T16:00:07.000Z</time>
      </trkpt>
      <trkpt lat="37.079997" lon="-79.610516">
        <ele>246.999466</ele>
        <time>2025-04-04T16:00:08.000Z</time>
      </trkpt>
      <trkpt lat="37.079729" lon="-79.610771">
        <ele>246.868132</ele>
        <time>2025-04-04T16:00:12.000Z</time>
      </trkpt>
      <trkpt lat="37.079647" lon="-79.610894">
        <ele>246.814844</ele>
        <time>2025-04-04T16:00:13.000Z</time>
      </trkpt>
      <trkpt lat="37.079543" lon="-79.611199">
        <ele>246.710814</ele>
        <time>2025-04-04T16:00:16.000Z</time>
      </trkpt>
      <trkpt lat="37.079456" lon="-79.611533">
        <ele>246.599262</ele>
        <time>2025-04-04T16:00:19.000Z</time>
      </trkpt>
      <trkpt lat="37.079356" lon="-79.611682">
        <ele>246.536544</ele>
        <time>2025-04-04T16:00:21.000Z</time>
      </trkpt>
      <trkpt lat="37.079162" lon="-79.611855">
        <ele>246.445654</ele>
        <time>2025-04-04T16:00:24.000Z</time>
      </trkpt>
      <trkpt lat="37.078774" lon="-79.611982">
        <ele>246.664008</ele>
        <time>2025-04-04T16:00:28.000Z</time>
      </trkpt>
      <trkpt lat="37.078655" lon="-79.612061">
        <ele>246.858278</ele>
        <time>2025-04-04T16:00:29.000Z</time>
      </trkpt>
      <trkpt lat="37.078578" lon="-79.612147">
        <ele>247.013458</ele>
        <time>2025-04-04T16:00:30.000Z</time>
      </trkpt>
      <trkpt lat="37.078525" lon="-79.612259">
        <ele>247.167577</ele>
        <time>2025-04-04T16:00:31.000Z</time>
      </trkpt>
      <trkpt lat="37.078479" lon="-79.61243">
        <ele>247.396616</ele>
        <time>2025-04-04T16:00:33.000Z</time>
      </trkpt>
      <trkpt lat="37.078483" lon="-79.61263">
        <ele>247.626726</ele>
        <time>2025-04-04T16:00:35.000Z</time>
      </trkpt>
      <trkpt lat="37.078579" lon="-79.613036">
        <ele>248.130406</ele>
        <time>2025-04-04T16:00:39.000Z</time>
      </trkpt>
      <trkpt lat="37.078682" lon="-79.613356">
        <ele>248.559589</ele>
        <time>2025-04-04T16:00:42.000Z</time>
      </trkpt>
      <trkpt lat="37.078819" lon="-79.613718">
        <ele>249.018179</ele>
        <time>2025-04-04T16:00:46.000Z</time>
      </trkpt>
      <trkpt lat="37.079064" lon="-79.614122">
        <ele>249.206646</ele>
        <time>2025-04-04T16:00:51.000Z</time>
      </trkpt>
      <trkpt lat="37.079211" lon="-79.614461">
        <ele>249.329326</ele>
        <time>2025-04-04T16:00:54.000Z</time>
      </trkpt>
      <trkpt lat="37.079276" lon="-79.614818">
        <ele>249.450236</ele>
        <time>2025-04-04T16:00:57.000Z</time>
      </trkpt>
      <trkpt lat="37.079285" lon="-79.615071">
        <ele>249.529677</ele>
        <time>2025-04-04T16:00:59.000Z</time>
      </trkpt>
      <trkpt lat="37.079293" lon="-79.61524">
        <ele>249.58337</ele>
        <time>2025-04-04T16:01:01.000Z</time>
      </trkpt>
      <trkpt lat="37.079251" lon="-79.615403">
        <ele>249.636349</ele>
        <time>2025-04-04T16:01:03.000Z</time>
      </trkpt>
      <trkpt lat="37.079216" lon="-79.615441">
        <ele>249.656088</ele>
        <time>2025-04-04T16:01:04.000Z</time>
      </trkpt>
      <trkpt lat="37.07926" lon="-79.6154">
        <ele>249.675813</ele>
        <time>2025-04-04T16:01:05.000Z</time>
      </trkpt>
      <trkpt lat="37.079297" lon="-79.61524">
        <ele>249.72879</ele>
        <time>2025-04-04T16:01:06.000Z</time>
      </trkpt>
      <trkpt lat="37.079292" lon="-79.615069">
        <ele>249.752628</ele>
        <time>2025-04-04T16:01:08.000Z</time>
      </trkpt>
      <trkpt lat="37.079283" lon="-79.614823">
        <ele>249.583205</ele>
        <time>2025-04-04T16:01:10.000Z</time>
      </trkpt>
      <trkpt lat="37.079204" lon="-79.614449">
        <ele>249.325302</ele>
        <time>2025-04-04T16:01:13.000Z</time>
      </trkpt>
      <trkpt lat="37.079072" lon="-79.614111">
        <ele>249.063662</ele>
        <time>2025-04-04T16:01:16.000Z</time>
      </trkpt>
      <trkpt lat="37.078823" lon="-79.613708">
        <ele>248.715109</ele>
        <time>2025-04-04T16:01:21.000Z</time>
      </trkpt>
      <trkpt lat="37.078679" lon="-79.613372">
        <ele>248.452913</ele>
        <time>2025-04-04T16:01:24.000Z</time>
      </trkpt>
      <trkpt lat="37.078583" lon="-79.61304">
        <ele>248.19522</ele>
        <time>2025-04-04T16:01:27.000Z</time>
      </trkpt>
      <trkpt lat="37.078487" lon="-79.612637">
        <ele>247.782783</ele>
        <time>2025-04-04T16:01:31.000Z</time>
      </trkpt>
      <trkpt lat="37.078476" lon="-79.612437">
        <ele>247.594351</ele>
        <time>2025-04-04T16:01:33.000Z</time>
      </trkpt>
      <trkpt lat="37.078521" lon="-79.612262">
        <ele>247.406799</ele>
        <time>2025-04-04T16:01:35.000Z</time>
      </trkpt>
      <trkpt lat="37.078589" lon="-79.612149">
        <ele>247.280622</ele>
        <time>2025-04-04T16:01:36.000Z</time>
      </trkpt>
      <trkpt lat="37.078667" lon="-79.612049">
        <ele>247.153557</ele>
        <time>2025-04-04T16:01:37.000Z</time>
      </trkpt>
      <trkpt lat="37.078771" lon="-79.61198">
        <ele>246.994471</ele>
        <time>2025-04-04T16:01:38.000Z</time>
      </trkpt>
      <trkpt lat="37.07917" lon="-79.611853">
        <ele>246.498145</ele>
        <time>2025-04-04T16:01:43.000Z</time>
      </trkpt>
      <trkpt lat="37.079361" lon="-79.611699">
        <ele>246.21802</ele>
        <time>2025-04-04T16:01:46.000Z</time>
      </trkpt>
      <trkpt lat="37.079459" lon="-79.611536">
        <ele>246.046843</ele>
        <time>2025-04-04T16:01:48.000Z</time>
      </trkpt>
      <trkpt lat="37.07954" lon="-79.611188">
        <ele>246.448907</ele>
        <time>2025-04-04T16:01:51.000Z</time>
      </trkpt>
      <trkpt lat="37.079646" lon="-79.610889">
        <ele>246.823835</ele>
        <time>2025-04-04T16:01:54.000Z</time>
      </trkpt>
      <trkpt lat="37.079725" lon="-79.610772">
        <ele>247.015922</ele>
        <time>2025-04-04T16:01:55.000Z</time>
      </trkpt>
      <trkpt lat="37.079993" lon="-79.610515">
        <ele>247.489322</ele>
        <time>2025-04-04T16:01:59.000Z</time>
      </trkpt>
      <trkpt lat="37.080018" lon="-79.610431">
        <ele>247.584621</ele>
        <time>2025-04-04T16:02:00.000Z</time>
      </trkpt>
      <trkpt lat="37.080056" lon="-79.610269">
        <ele>247.775649</ele>
        <time>2025-04-04T16:02:01.000Z</time>
      </trkpt>
      <trkpt lat="37.080026" lon="-79.609837">
        <ele>248.279002</ele>
        <time>2025-04-04T16:02:05.000Z</time>
      </trkpt>
      <trkpt lat="37.080031" lon="-79.609657">
        <ele>248.487311</ele>
        <time>2025-04-04T16:02:07.000Z</time>
      </trkpt>
      <trkpt lat="37.080096" lon="-79.609445">
        <ele>249.055077</ele>
        <time>2025-04-04T16:02:09.000Z</time>
      </trkpt>
      <trkpt lat="37.080147" lon="-79.609336">
        <ele>249.481984</ele>
        <time>2025-04-04T16:02:10.000Z</time>
      </trkpt>
      <trkpt lat="37.080354" lon="-79.609082">
        <ele>250.869762</ele>
        <time>2025-04-04T16:02:13.000Z</time>
      </trkpt>
      <trkpt lat="37.080926" lon="-79.608518">
        <ele>254.241267</ele>
        <time>2025-04-04T16:02:21.000Z</time>
      </trkpt>
      <trkpt lat="37.081298" lon="-79.608203">
        <ele>256.314636</ele>
        <time>2025-04-04T16:02:26.000Z</time>
      </trkpt>
      <trkpt lat="37.081571" lon="-79.608026">
        <ele>257.104576</ele>
        <time>2025-04-04T16:02:29.000Z</time>
      </trkpt>
      <trkpt lat="37.082146" lon="-79.607812">
        <ele>257.62149</ele>
        <time>2025-04-04T16:02:36.000Z</time>
      </trkpt>
      <trkpt lat="37.08245" lon="-79.607631">
        <ele>257.908444</ele>
        <time>2025-04-04T16:02:40.000Z</time>
      </trkpt>
      <trkpt lat="37.082615" lon="-79.607479">
        <ele>258.092465</ele>
        <time>2025-04-04T16:02:42.000Z</time>
      </trkpt>
      <trkpt lat="37.082804" lon="-79.607148">
        <ele>258.381305</ele>
        <time>2025-04-04T16:02:46.000Z</time>
      </trkpt>
      <trkpt lat="37.082886" lon="-79.606947">
        <ele>258.523113</ele>
        <time>2025-04-04T16:02:48.000Z</time>
      </trkpt>
      <trkpt lat="37.082957" lon="-79.606613">
        <ele>258.620537</ele>
        <time>2025-04-04T16:02:51.000Z</time>
      </trkpt>
      <trkpt lat="37.083112" lon="-79.604708">
        <ele>259.146653</ele>
        <time>2025-04-04T16:03:08.000Z</time>
      </trkpt>
      <trkpt lat="37.083199" lon="-79.604436">
        <ele>259.21107</ele>
        <time>2025-04-04T16:03:11.000Z</time>
      </trkpt>
      <trkpt lat="37.083374" lon="-79.604109">
        <ele>259.295105</ele>
        <time>2025-04-04T16:03:14.000Z</time>
      </trkpt>
      <trkpt lat="37.0836" lon="-79.603823">
        <ele>259.385786</ele>
        <time>2025-04-04T16:03:18.000Z</time>
      </trkpt>
      <trkpt lat="37.083917" lon="-79.603626">
        <ele>259.479887</ele>
        <time>2025-04-04T16:03:22.000Z</time>
      </trkpt>
      <trkpt lat="37.085191" lon="-79.603171">
        <ele>259.568616</ele>
        <time>2025-04-04T16:03:37.000Z</time>
      </trkpt>
      <trkpt lat="37.085446" lon="-79.602965">
        <ele>259.543043</ele>
        <time>2025-04-04T16:03:40.000Z</time>
      </trkpt>
      <trkpt lat="37.085674" lon="-79.602716">
        <ele>259.516807</ele>
        <time>2025-04-04T16:03:43.000Z</time>
      </trkpt>
      <trkpt lat="37.085834" lon="-79.602451">
        <ele>259.494064</ele>
        <time>2025-04-04T16:03:46.000Z</time>
      </trkpt>
      <trkpt lat="37.086005" lon="-79.60202">
        <ele>259.853031</ele>
        <time>2025-04-04T16:03:50.000Z</time>
      </trkpt>
      <trkpt lat="37.086766" lon="-79.599709">
        <ele>263.244347</ele>
        <time>2025-04-04T16:04:12.000Z</time>
      </trkpt>
      <trkpt lat="37.086909" lon="-79.599367">
        <ele>263.82886</ele>
        <time>2025-04-04T16:04:15.000Z</time>
      </trkpt>
      <trkpt lat="37.086966" lon="-79.599259">
        <ele>264.041921</ele>
        <time>2025-04-04T16:04:16.000Z</time>
      </trkpt>
      <trkpt lat="37.087292" lon="-79.598929">
        <ele>264.830712</ele>
        <time>2025-04-04T16:04:21.000Z</time>
      </trkpt>
      <trkpt lat="37.087773" lon="-79.59861">
        <ele>265.859758</ele>
        <time>2025-04-04T16:04:27.000Z</time>
      </trkpt>
      <trkpt lat="37.088278" lon="-79.598224">
        <ele>268.076724</ele>
        <time>2025-04-04T16:04:34.000Z</time>
      </trkpt>
      <trkpt lat="37.088598" lon="-79.59789">
        <ele>269.656089</ele>
        <time>2025-04-04T16:04:39.000Z</time>
      </trkpt>
      <trkpt lat="37.089132" lon="-79.597126">
        <ele>272.698015</ele>
        <time>2025-04-04T16:04:48.000Z</time>
      </trkpt>
      <trkpt lat="37.089558" lon="-79.596378">
        <ele>274.64665</ele>
        <time>2025-04-04T16:04:56.000Z</time>
      </trkpt>
      <trkpt lat="37.089745" lon="-79.596062">
        <ele>275.438177</ele>
        <time>2025-04-04T16:04:59.000Z</time>
      </trkpt>
      <trkpt lat="37.089829" lon="-79.595921">
        <ele>275.795588</ele>
        <time>2025-04-04T16:05:01.000Z</time>
      </trkpt>
      <trkpt lat="37.09018" lon="-79.595308">
        <ele>277.390052</ele>
        <time>2025-04-04T16:05:08.000Z</time>
      </trkpt>
      <trkpt lat="37.091098" lon="-79.593638">
        <ele>277.626462</ele>
        <time>2025-04-04T16:05:26.000Z</time>
      </trkpt>
      <trkpt lat="37.091422" lon="-79.593147">
        <ele>277.1258</ele>
        <time>2025-04-04T16:05:32.000Z</time>
      </trkpt>
      <trkpt lat="37.091524" lon="-79.593438">
        <ele>276.711369</ele>
        <time>2025-04-04T16:05:35.000Z</time>
      </trkpt>
      <trkpt lat="37.092193" lon="-79.595267">
        <ele>273.87835</ele>
        <time>2025-04-04T16:05:53.000Z</time>
      </trkpt>
      <trkpt lat="37.093357" lon="-79.598673">
        <ele>266.755771</ele>
        <time>2025-04-04T16:06:26.000Z</time>
      </trkpt>
      <trkpt lat="37.093987" lon="-79.600383">
        <ele>261.489644</ele>
        <time>2025-04-04T16:06:43.000Z</time>
      </trkpt>
      <trkpt lat="37.094096" lon="-79.60068">
        <ele>260.574392</ele>
        <time>2025-04-04T16:06:46.000Z</time>
      </trkpt>
      <trkpt lat="37.094396" lon="-79.601483">
        <ele>258.75976</ele>
        <time>2025-04-04T16:06:54.000Z</time>
      </trkpt>
      <trkpt lat="37.094626" lon="-79.601902">
        <ele>258.069683</ele>
        <time>2025-04-04T16:06:59.000Z</time>
      </trkpt>
      <trkpt lat="37.094935" lon="-79.602208">
        <ele>257.371639</ele>
        <time>2025-04-04T16:07:03.000Z</time>
      </trkpt>
      <trkpt lat="37.095879" lon="-79.602937">
        <ele>255.449088</ele>
        <time>2025-04-04T16:07:15.000Z</time>
      </trkpt>
      <trkpt lat="37.096066" lon="-79.603134">
        <ele>255.024784</ele>
        <time>2025-04-04T16:07:18.000Z</time>
      </trkpt>
      <trkpt lat="37.096968" lon="-79.604256">
        <ele>252.934709</ele>
        <time>2025-04-04T16:07:32.000Z</time>
      </trkpt>
      <trkpt lat="37.097082" lon="-79.604432">
        <ele>252.704994</ele>
        <time>2025-04-04T16:07:34.000Z</time>
      </trkpt>
      <trkpt lat="37.09723" lon="-79.604778">
        <ele>252.310555</ele>
        <time>2025-04-04T16:07:37.000Z</time>
      </trkpt>
      <trkpt lat="37.097314" lon="-79.605109">
        <ele>251.956668</ele>
        <time>2025-04-04T16:07:40.000Z</time>
      </trkpt>
      <trkpt lat="37.097337" lon="-79.605487">
        <ele>251.582122</ele>
        <time>2025-04-04T16:07:43.000Z</time>
      </trkpt>
      <trkpt lat="37.097212" lon="-79.607924">
        <ele>252.216622</ele>
        <time>2025-04-04T16:08:05.000Z</time>
      </trkpt>
      <trkpt lat="37.097105" lon="-79.608389">
        <ele>252.551753</ele>
        <time>2025-04-04T16:08:09.000Z</time>
      </trkpt>
      <trkpt lat="37.097023" lon="-79.608611">
        <ele>252.738728</ele>
        <time>2025-04-04T16:08:11.000Z</time>
      </trkpt>
      <trkpt lat="37.09687" lon="-79.608859">
        <ele>252.967697</ele>
        <time>2025-04-04T16:08:14.000Z</time>
      </trkpt>
      <trkpt lat="37.096712" lon="-79.609006">
        <ele>253.15428</ele>
        <time>2025-04-04T16:08:16.000Z</time>
      </trkpt>
      <trkpt lat="37.096675" lon="-79.609035">
        <ele>253.190921</ele>
        <time>2025-04-04T16:08:16.000Z</time>
      </trkpt>
      <trkpt lat="37.096409" lon="-79.609224">
        <ele>253.467889</ele>
        <time>2025-04-04T16:08:19.000Z</time>
      </trkpt>
      <trkpt lat="37.096141" lon="-79.609407">
        <ele>253.751983</ele>
        <time>2025-04-04T16:08:22.000Z</time>
      </trkpt>
      <trkpt lat="37.096" lon="-79.609503">
        <ele>253.898895</ele>
        <time>2025-04-04T16:08:24.000Z</time>
      </trkpt>
      <trkpt lat="37.095779" lon="-79.609871">
        <ele>254.173219</ele>
        <time>2025-04-04T16:08:28.000Z</time>
      </trkpt>
      <trkpt lat="37.095738" lon="-79.609923">
        <ele>254.173207</ele>
        <time>2025-04-04T16:08:29.000Z</time>
      </trkpt>
      <trkpt lat="37.095683" lon="-79.609932">
        <ele>254.173217</ele>
        <time>2025-04-04T16:08:30.000Z</time>
      </trkpt>
      <trkpt lat="37.095629" lon="-79.610062">
        <ele>254.173207</ele>
        <time>2025-04-04T16:08:31.000Z</time>
      </trkpt>
      <trkpt lat="37.095588" lon="-79.610105">
        <ele>254.173218</ele>
        <time>2025-04-04T16:08:32.000Z</time>
      </trkpt>
      <trkpt lat="37.095088" lon="-79.610381">
        <ele>254.173218</ele>
        <time>2025-04-04T16:08:38.000Z</time>
      </trkpt>
      <trkpt lat="37.095065" lon="-79.610384">
        <ele>254.173214</ele>
        <time>2025-04-04T16:08:38.000Z</time>
      </trkpt>
      <trkpt lat="37.095046" lon="-79.610387">
        <ele>254.173214</ele>
        <time>2025-04-04T16:08:38.000Z</time>
      </trkpt>
      <trkpt lat="37.094979" lon="-79.610335">
        <ele>254.173205</ele>
        <time>2025-04-04T16:08:39.000Z</time>
      </trkpt>
      <trkpt lat="37.094907" lon="-79.610193">
        <ele>254.173217</ele>
        <time>2025-04-04T16:08:40.000Z</time>
      </trkpt>
      <trkpt lat="37.095447" lon="-79.60987">
        <ele>254.173203</ele>
        <time>2025-04-04T16:08:47.000Z</time>
      </trkpt>
      <trkpt lat="37.095495" lon="-79.609843">
        <ele>253.764457</ele>
        <time>2025-04-04T16:08:48.000Z</time>
      </trkpt>
      <trkpt lat="37.095531" lon="-79.609835">
        <ele>253.764447</ele>
        <time>2025-04-04T16:08:48.000Z</time>
      </trkpt>
      <trkpt lat="37.095594" lon="-79.609814">
        <ele>253.764439</ele>
        <time>2025-04-04T16:08:49.000Z</time>
      </trkpt>
      <trkpt lat="37.095607" lon="-79.609771">
        <ele>253.764448</ele>
        <time>2025-04-04T16:08:49.000Z</time>
      </trkpt>
      <trkpt lat="37.095681" lon="-79.609704">
        <ele>253.764455</ele>
        <time>2025-04-04T16:08:50.000Z</time>
      </trkpt>
      <trkpt lat="37.096" lon="-79.609496">
        <ele>253.764453</ele>
        <time>2025-04-04T16:08:54.000Z</time>
      </trkpt>
      <trkpt lat="37.096142" lon="-79.609401">
        <ele>253.764456</ele>
        <time>2025-04-04T16:08:56.000Z</time>
      </trkpt>
      <trkpt lat="37.096414" lon="-79.609228">
        <ele>253.577009</ele>
        <time>2025-04-04T16:08:59.000Z</time>
      </trkpt>
      <trkpt lat="37.096676" lon="-79.609032">
        <ele>253.258509</ele>
        <time>2025-04-04T16:09:02.000Z</time>
      </trkpt>
      <trkpt lat="37.096702" lon="-79.60901">
        <ele>253.216388</ele>
        <time>2025-04-04T16:09:02.000Z</time>
      </trkpt>
      <trkpt lat="37.096862" lon="-79.60885">
        <ele>253.001845</ele>
        <time>2025-04-04T16:09:04.000Z</time>
      </trkpt>
      <trkpt lat="37.097021" lon="-79.608622">
        <ele>252.73854</ele>
        <time>2025-04-04T16:09:07.000Z</time>
      </trkpt>
      <trkpt lat="37.097113" lon="-79.60839">
        <ele>252.523539</ele>
        <time>2025-04-04T16:09:09.000Z</time>
      </trkpt>
      <trkpt lat="37.097205" lon="-79.607929">
        <ele>252.10943</ele>
        <time>2025-04-04T16:09:13.000Z</time>
      </trkpt>
      <trkpt lat="37.097343" lon="-79.605483">
        <ele>251.212172</ele>
        <time>2025-04-04T16:09:35.000Z</time>
      </trkpt>
      <trkpt lat="37.097306" lon="-79.605103">
        <ele>251.532111</ele>
        <time>2025-04-04T16:09:38.000Z</time>
      </trkpt>
      <trkpt lat="37.097235" lon="-79.604773">
        <ele>252.028117</ele>
        <time>2025-04-04T16:09:41.000Z</time>
      </trkpt>
      <trkpt lat="37.09708" lon="-79.60444">
        <ele>252.58093</ele>
        <time>2025-04-04T16:09:44.000Z</time>
      </trkpt>
      <trkpt lat="37.096965" lon="-79.604252">
        <ele>252.902875</ele>
        <time>2025-04-04T16:09:46.000Z</time>
      </trkpt>
      <trkpt lat="37.096063" lon="-79.603124">
        <ele>255.079637</ele>
        <time>2025-04-04T16:10:00.000Z</time>
      </trkpt>
      <trkpt lat="37.095876" lon="-79.602936">
        <ele>255.472664</ele>
        <time>2025-04-04T16:10:03.000Z</time>
      </trkpt>
      <trkpt lat="37.094942" lon="-79.602221">
        <ele>257.255546</ele>
        <time>2025-04-04T16:10:15.000Z</time>
      </trkpt>
      <trkpt lat="37.094624" lon="-79.601903">
        <ele>258.144148</ele>
        <time>2025-04-04T16:10:20.000Z</time>
      </trkpt>
      <trkpt lat="37.0944" lon="-79.601485">
        <ele>259.025726</ele>
        <time>2025-04-04T16:10:24.000Z</time>
      </trkpt>
      <trkpt lat="37.0941" lon="-79.600664">
        <ele>260.614498</ele>
        <time>2025-04-04T16:10:32.000Z</time>
      </trkpt>
      <trkpt lat="37.093988" lon="-79.600385">
        <ele>261.168873</ele>
        <time>2025-04-04T16:10:35.000Z</time>
      </trkpt>
      <trkpt lat="37.093362" lon="-79.598672">
        <ele>266.77346</ele>
        <time>2025-04-04T16:10:52.000Z</time>
      </trkpt>
      <trkpt lat="37.092191" lon="-79.59528">
        <ele>273.865132</ele>
        <time>2025-04-04T16:11:25.000Z</time>
      </trkpt>
      <trkpt lat="37.091508" lon="-79.593442">
        <ele>276.617759</ele>
        <time>2025-04-04T16:11:43.000Z</time>
      </trkpt>
      <trkpt lat="37.091418" lon="-79.593153">
        <ele>276.889129</ele>
        <time>2025-04-04T16:11:46.000Z</time>
      </trkpt>
      <trkpt lat="37.091109" lon="-79.59365">
        <ele>277.430224</ele>
        <time>2025-04-04T16:11:52.000Z</time>
      </trkpt>
      <trkpt lat="37.090167" lon="-79.595301">
        <ele>276.958571</ele>
        <time>2025-04-04T16:12:10.000Z</time>
      </trkpt>
      <trkpt lat="37.089825" lon="-79.595927">
        <ele>276.4326</ele>
        <time>2025-04-04T16:12:17.000Z</time>
      </trkpt>
      <trkpt lat="37.089742" lon="-79.596059">
        <ele>275.954344</ele>
        <time>2025-04-04T16:12:18.000Z</time>
      </trkpt>
      <trkpt lat="37.089563" lon="-79.596381">
        <ele>274.895161</ele>
        <time>2025-04-04T16:12:21.000Z</time>
      </trkpt>
      <trkpt lat="37.089124" lon="-79.597127">
        <ele>272.287658</ele>
        <time>2025-04-04T16:12:29.000Z</time>
      </trkpt>
      <trkpt lat="37.088588" lon="-79.597883">
        <ele>269.551809</ele>
        <time>2025-04-04T16:12:38.000Z</time>
      </trkpt>
      <trkpt lat="37.088266" lon="-79.598209">
        <ele>268.241927</ele>
        <time>2025-04-04T16:12:43.000Z</time>
      </trkpt>
      <trkpt lat="37.087764" lon="-79.598605">
        <ele>266.390517</ele>
        <time>2025-04-04T16:12:50.000Z</time>
      </trkpt>
      <trkpt lat="37.087287" lon="-79.598926">
        <ele>264.686852</ele>
        <time>2025-04-04T16:12:56.000Z</time>
      </trkpt>
      <trkpt lat="37.086967" lon="-79.599263">
        <ele>263.894034</ele>
        <time>2025-04-04T16:13:01.000Z</time>
      </trkpt>
      <trkpt lat="37.086898" lon="-79.599362">
        <ele>263.691882</ele>
        <time>2025-04-04T16:13:02.000Z</time>
      </trkpt>
      <trkpt lat="37.086753" lon="-79.59971">
        <ele>263.137279</ele>
        <time>2025-04-04T16:13:05.000Z</time>
      </trkpt>
      <trkpt lat="37.086009" lon="-79.602016">
        <ele>260.165845</ele>
        <time>2025-04-04T16:13:27.000Z</time>
      </trkpt>
      <trkpt lat="37.08583" lon="-79.602444">
        <ele>259.700792</ele>
        <time>2025-04-04T16:13:31.000Z</time>
      </trkpt>
      <trkpt lat="37.08567" lon="-79.602703">
        <ele>259.385278</ele>
        <time>2025-04-04T16:13:34.000Z</time>
      </trkpt>
      <trkpt lat="37.085443" lon="-79.602981">
        <ele>259.251168</ele>
        <time>2025-04-04T16:13:38.000Z</time>
      </trkpt>
      <trkpt lat="37.085191" lon="-79.60317">
        <ele>259.344371</ele>
        <time>2025-04-04T16:13:41.000Z</time>
      </trkpt>
      <trkpt lat="37.083918" lon="-79.603642">
        <ele>259.759102</ele>
        <time>2025-04-04T16:13:56.000Z</time>
      </trkpt>
      <trkpt lat="37.083605" lon="-79.603832">
        <ele>259.564764</ele>
        <time>2025-04-04T16:14:00.000Z</time>
      </trkpt>
      <trkpt lat="37.083374" lon="-79.604105">
        <ele>259.357183</ele>
        <time>2025-04-04T16:14:04.000Z</time>
      </trkpt>
      <trkpt lat="37.083205" lon="-79.604425">
        <ele>259.164795</ele>
        <time>2025-04-04T16:14:07.000Z</time>
      </trkpt>
      <trkpt lat="37.083113" lon="-79.604695">
        <ele>259.01737</ele>
        <time>2025-04-04T16:14:10.000Z</time>
      </trkpt>
      <trkpt lat="37.082958" lon="-79.606615">
        <ele>258.729036</ele>
        <time>2025-04-04T16:14:27.000Z</time>
      </trkpt>
      <trkpt lat="37.082883" lon="-79.606946">
        <ele>258.758283</ele>
        <time>2025-04-04T16:14:30.000Z</time>
      </trkpt>
      <trkpt lat="37.082805" lon="-79.607142">
        <ele>258.775849</ele>
        <time>2025-04-04T16:14:32.000Z</time>
      </trkpt>
      <trkpt lat="37.082614" lon="-79.607481">
        <ele>258.8102</ele>
        <time>2025-04-04T16:14:36.000Z</time>
      </trkpt>
      <trkpt lat="37.082443" lon="-79.607637">
        <ele>258.519656</ele>
        <time>2025-04-04T16:14:38.000Z</time>
      </trkpt>
      <trkpt lat="37.08215" lon="-79.607802">
        <ele>257.683889</ele>
        <time>2025-04-04T16:14:42.000Z</time>
      </trkpt>
      <trkpt lat="37.081575" lon="-79.60802">
        <ele>256.178348</ele>
        <time>2025-04-04T16:14:49.000Z</time>
      </trkpt>
      <trkpt lat="37.081295" lon="-79.608196">
        <ele>255.390752</ele>
        <time>2025-04-04T16:14:52.000Z</time>
      </trkpt>
      <trkpt lat="37.080927" lon="-79.608515">
        <ele>254.256321</ele>
        <time>2025-04-04T16:14:57.000Z</time>
      </trkpt>
      <trkpt lat="37.080353" lon="-79.609069">
        <ele>251.354331</ele>
        <time>2025-04-04T16:15:05.000Z</time>
      </trkpt>
      <trkpt lat="37.08015" lon="-79.609346">
        <ele>250.159831</ele>
        <time>2025-04-04T16:15:08.000Z</time>
      </trkpt>
      <trkpt lat="37.080091" lon="-79.609438">
        <ele>249.792374</ele>
        <time>2025-04-04T16:15:09.000Z</time>
      </trkpt>
      <trkpt lat="37.080033" lon="-79.609663">
        <ele>249.068377</ele>
        <time>2025-04-04T16:15:11.000Z</time>
      </trkpt>
      <trkpt lat="37.080028" lon="-79.609843">
        <ele>248.487171</ele>
        <time>2025-04-04T16:15:13.000Z</time>
      </trkpt>
      <trkpt lat="37.080063" lon="-79.610283">
        <ele>247.082737</ele>
        <time>2025-04-04T16:15:17.000Z</time>
      </trkpt>
      <trkpt lat="37.080027" lon="-79.610433">
        <ele>247.025918</ele>
        <time>2025-04-04T16:15:18.000Z</time>
      </trkpt>
      <trkpt lat="37.079992" lon="-79.610509">
        <ele>246.999471</ele>
        <time>2025-04-04T16:15:19.000Z</time>
      </trkpt>
      <trkpt lat="37.079742" lon="-79.610761">
        <ele>246.868127</ele>
        <time>2025-04-04T16:15:23.000Z</time>
      </trkpt>
      <trkpt lat="37.07964" lon="-79.610906">
        <ele>246.814834</ele>
        <time>2025-04-04T16:15:25.000Z</time>
      </trkpt>
      <trkpt lat="37.079536" lon="-79.611186">
        <ele>246.710813</ele>
        <time>2025-04-04T16:15:28.000Z</time>
      </trkpt>
      <trkpt lat="37.079443" lon="-79.611532">
        <ele>246.599265</ele>
        <time>2025-04-04T16:15:31.000Z</time>
      </trkpt>
      <trkpt lat="37.079359" lon="-79.611686">
        <ele>246.536548</ele>
        <time>2025-04-04T16:15:33.000Z</time>
      </trkpt>
      <trkpt lat="37.079166" lon="-79.611847">
        <ele>246.445665</ele>
        <time>2025-04-04T16:15:36.000Z</time>
      </trkpt>
      <trkpt lat="37.078775" lon="-79.611988">
        <ele>246.664002</ele>
        <time>2025-04-04T16:15:41.000Z</time>
      </trkpt>
      <trkpt lat="37.078655" lon="-79.612054">
        <ele>246.858284</ele>
        <time>2025-04-04T16:15:42.000Z</time>
      </trkpt>
      <trkpt lat="37.078595" lon="-79.612138">
        <ele>247.013462</ele>
        <time>2025-04-04T16:15:43.000Z</time>
      </trkpt>
      <trkpt lat="37.078531" lon="-79.612244">
        <ele>247.167573</ele>
        <time>2025-04-04T16:15:44.000Z</time>
      </trkpt>
      <trkpt lat="37.078484" lon="-79.612427">
        <ele>247.396612</ele>
        <time>2025-04-04T16:15:46.000Z</time>
      </trkpt>
      <trkpt lat="37.07847" lon="-79.612636">
        <ele>247.626731</ele>
        <time>2025-04-04T16:15:48.000Z</time>
      </trkpt>
      <trkpt lat="37.078573" lon="-79.61304">
        <ele>248.130403</ele>
        <time>2025-04-04T16:15:52.000Z</time>
      </trkpt>
      <trkpt lat="37.078691" lon="-79.613372">
        <ele>248.559581</ele>
        <time>2025-04-04T16:15:55.000Z</time>
      </trkpt>
      <trkpt lat="37.078825" lon="-79.613713">
        <ele>249.018174</ele>
        <time>2025-04-04T16:15:58.000Z</time>
      </trkpt>
      <trkpt lat="37.079077" lon="-79.614117">
        <ele>249.206643</ele>
        <time>2025-04-04T16:16:03.000Z</time>
      </trkpt>
      <trkpt lat="37.079216" lon="-79.614464">
        <ele>249.329318</ele>
        <time>2025-04-04T16:16:06.000Z</time>
      </trkpt>
      <trkpt lat="37.079281" lon="-79.614824">
        <ele>249.450242</ele>
        <time>2025-04-04T16:16:09.000Z</time>
      </trkpt>
      <trkpt lat="37.079285" lon="-79.615074">
        <ele>249.52966</ele>
        <time>2025-04-04T16:16:11.000Z</time>
      </trkpt>
      <trkpt lat="37.07929" lon="-79.615244">
        <ele>249.583372</ele>
        <time>2025-04-04T16:16:13.000Z</time>
      </trkpt>
      <trkpt lat="37.079255" lon="-79.615395">
        <ele>249.636352</ele>
        <time>2025-04-04T16:16:14.000Z</time>
      </trkpt>
      <trkpt lat="37.079215" lon="-79.61545">
        <ele>249.656081</ele>
        <time>2025-04-04T16:16:15.000Z</time>
      </trkpt>
      <trkpt lat="37.079249" lon="-79.6154">
        <ele>249.675827</ele>
        <time>2025-04-04T16:16:16.000Z</time>
      </trkpt>
      <trkpt lat="37.079301" lon="-79.615232">
        <ele>249.728806</ele>
        <time>2025-04-04T16:16:18.000Z</time>
      </trkpt>
      <trkpt lat="37.0793" lon="-79.615078">
        <ele>249.752623</ele>
        <time>2025-04-04T16:16:19.000Z</time>
      </trkpt>
      <trkpt lat="37.079287" lon="-79.614817">
        <ele>249.583199</ele>
        <time>2025-04-04T16:16:21.000Z</time>
      </trkpt>
      <trkpt lat="37.079202" lon="-79.614453">
        <ele>249.325303</ele>
        <time>2025-04-04T16:16:24.000Z</time>
      </trkpt>
      <trkpt lat="37.079062" lon="-79.614109">
        <ele>249.06366</ele>
        <time>2025-04-04T16:16:27.000Z</time>
      </trkpt>
      <trkpt lat="37.078822" lon="-79.61371">
        <ele>248.715108</ele>
        <time>2025-04-04T16:16:31.000Z</time>
      </trkpt>
      <trkpt lat="37.078692" lon="-79.613371">
        <ele>248.452908</ele>
        <time>2025-04-04T16:16:34.000Z</time>
      </trkpt>
      <trkpt lat="37.07857" lon="-79.613038">
        <ele>248.195204</ele>
        <time>2025-04-04T16:16:37.000Z</time>
      </trkpt>
      <trkpt lat="37.078486" lon="-79.61262">
        <ele>247.782795</ele>
        <time>2025-04-04T16:16:41.000Z</time>
      </trkpt>
      <trkpt lat="37.078486" lon="-79.612428">
        <ele>247.594352</ele>
        <time>2025-04-04T16:16:43.000Z</time>
      </trkpt>
      <trkpt lat="37.078528" lon="-79.61225">
        <ele>247.40681</ele>
        <time>2025-04-04T16:16:45.000Z</time>
      </trkpt>
      <trkpt lat="37.078582" lon="-79.612154">
        <ele>247.280616</ele>
        <time>2025-04-04T16:16:46.000Z</time>
      </trkpt>
      <trkpt lat="37.078668" lon="-79.61205">
        <ele>247.153546</ele>
        <time>2025-04-04T16:16:47.000Z</time>
      </trkpt>
      <trkpt lat="37.078772" lon="-79.611984">
        <ele>246.994464</ele>
        <time>2025-04-04T16:16:48.000Z</time>
      </trkpt>
      <trkpt lat="37.079173" lon="-79.611857">
        <ele>246.498152</ele>
        <time>2025-04-04T16:16:53.000Z</time>
      </trkpt>
      <trkpt lat="37.079352" lon="-79.611692">
        <ele>246.218028</ele>
        <time>2025-04-04T16:16:55.000Z</time>
      </trkpt>
      <trkpt lat="37.079459" lon="-79.611523">
        <ele>246.04685</ele>
        <time>2025-04-04T16:16:57.000Z</time>
      </trkpt>
      <trkpt lat="37.079528" lon="-79.611201">
        <ele>246.4489</ele>
        <time>2025-04-04T16:17:00.000Z</time>
      </trkpt>
      <trkpt lat="37.079648" lon="-79.61089">
        <ele>246.823844</ele>
        <time>2025-04-04T16:17:03.000Z</time>
      </trkpt>
      <trkpt lat="37.079734" lon="-79.610772">
        <ele>247.015908</ele>
        <time>2025-04-04T16:17:04.000Z</time>
      </trkpt>
      <trkpt lat="37.079987" lon="-79.61051">
        <ele>247.489336</ele>
        <time>2025-04-04T16:17:08.000Z</time>
      </trkpt>
      <trkpt lat="37.080026" lon="-79.610431">
        <ele>247.584624</ele>
        <time>2025-04-04T16:17:09.000Z</time>
      </trkpt>
      <trkpt lat="37.080062" lon="-79.610266">
        <ele>247.77565</ele>
        <time>2025-04-04T16:17:11.000Z</time>
      </trkpt>
      <trkpt lat="37.08002" lon="-79.609832">
        <ele>248.279013</ele>
        <time>2025-04-04T16:17:15.000Z</time>
      </trkpt>
      <trkpt lat="37.080025" lon="-79.609651">
        <ele>248.487305</ele>
        <time>2025-04-04T16:17:17.000Z</time>
      </trkpt>
      <trkpt lat="37.080104" lon="-79.609449">
        <ele>249.055075</ele>
        <time>2025-04-04T16:17:19.000Z</time>
      </trkpt>
      <trkpt lat="37.080155" lon="-79.609342">
        <ele>249.48199</ele>
        <time>2025-04-04T16:17:20.000Z</time>
      </trkpt>
      <trkpt lat="37.080355" lon="-79.609079">
        <ele>250.86975</ele>
        <time>2025-04-04T16:17:23.000Z</time>
      </trkpt>
      <trkpt lat="37.080924" lon="-79.608527">
        <ele>254.241262</ele>
        <time>2025-04-04T16:17:31.000Z</time>
      </trkpt>
      <trkpt lat="37.081295" lon="-79.608208">
        <ele>256.314635</ele>
        <time>2025-04-04T16:17:36.000Z</time>
      </trkpt>
      <trkpt lat="37.081577" lon="-79.608022">
        <ele>257.104564</ele>
        <time>2025-04-04T16:17:40.000Z</time>
      </trkpt>
      <trkpt lat="37.082145" lon="-79.607795">
        <ele>257.621486</ele>
        <time>2025-04-04T16:17:47.000Z</time>
      </trkpt>
      <trkpt lat="37.082454" lon="-79.607629">
        <ele>257.908451</ele>
        <time>2025-04-04T16:17:51.000Z</time>
      </trkpt>
      <trkpt lat="37.082622" lon="-79.607477">
        <ele>258.092462</ele>
        <time>2025-04-04T16:17:53.000Z</time>
      </trkpt>
      <trkpt lat="37.082817" lon="-79.607134">
        <ele>258.381306</ele>
        <time>2025-04-04T16:17:57.000Z</time>
      </trkpt>
      <trkpt lat="37.082887" lon="-79.606952">
        <ele>258.523109</ele>
        <time>2025-04-04T16:17:59.000Z</time>
      </trkpt>
      <trkpt lat="37.082957" lon="-79.60662">
        <ele>258.620537</ele>
        <time>2025-04-04T16:18:02.000Z</time>
      </trkpt>
      <trkpt lat="37.083105" lon="-79.604698">
        <ele>259.146662</ele>
        <time>2025-04-04T16:18:19.000Z</time>
      </trkpt>
      <trkpt lat="37.083196" lon="-79.604426">
        <ele>259.211071</ele>
        <time>2025-04-04T16:18:22.000Z</time>
      </trkpt>
      <trkpt lat="37.083364" lon="-79.604104">
        <ele>259.295112</ele>
        <time>2025-04-04T16:18:25.000Z</time>
      </trkpt>
      <trkpt lat="37.083607" lon="-79.603828">
        <ele>259.385774</ele>
        <time>2025-04-04T16:18:29.000Z</time>
      </trkpt>
      <trkpt lat="37.083914" lon="-79.603644">
        <ele>259.47988</ele>
        <time>2025-04-04T16:18:33.000Z</time>
      </trkpt>
      <trkpt lat="37.085191" lon="-79.603176">
        <ele>259.568609</ele>
        <time>2025-04-04T16:18:48.000Z</time>
      </trkpt>
      <trkpt lat="37.085443" lon="-79.602971">
        <ele>259.543053</ele>
        <time>2025-04-04T16:18:51.000Z</time>
      </trkpt>
      <trkpt lat="37.085672" lon="-79.60272">
        <ele>259.516804</ele>
        <time>2025-04-04T16:18:54.000Z</time>
      </trkpt>
      <trkpt lat="37.085822" lon="-79.602456">
        <ele>259.494061</ele>
        <time>2025-04-04T16:18:57.000Z</time>
      </trkpt>
      <trkpt lat="37.08601" lon="-79.602013">
        <ele>259.853015</ele>
        <time>2025-04-04T16:19:01.000Z</time>
      </trkpt>
      <trkpt lat="37.086769" lon="-79.599718">
        <ele>263.244348</ele>
        <time>2025-04-04T16:19:23.000Z</time>
      </trkpt>
      <trkpt lat="37.086912" lon="-79.599368">
        <ele>263.828848</ele>
        <time>2025-04-04T16:19:26.000Z</time>
      </trkpt>
      <trkpt lat="37.086973" lon="-79.599251">
        <ele>264.04191</ele>
        <time>2025-04-04T16:19:27.000Z</time>
      </trkpt>
      <trkpt lat="37.087295" lon="-79.59893">
        <ele>264.830706</ele>
        <time>2025-04-04T16:19:32.000Z</time>
      </trkpt>
      <trkpt lat="37.087772" lon="-79.5986">
        <ele>265.859757</ele>
        <time>2025-04-04T16:19:38.000Z</time>
      </trkpt>
      <trkpt lat="37.088267" lon="-79.598212">
        <ele>268.07672</ele>
        <time>2025-04-04T16:19:44.000Z</time>
      </trkpt>
      <trkpt lat="37.088591" lon="-79.597892">
        <ele>269.656083</ele>
        <time>2025-04-04T16:19:49.000Z</time>
      </trkpt>
      <trkpt lat="37.089124" lon="-79.59714">
        <ele>272.69803</ele>
        <time>2025-04-04T16:19:58.000Z</time>
      </trkpt>
      <trkpt lat="37.089567" lon="-79.596371">
        <ele>274.646639</ele>
        <time>2025-04-04T16:20:06.000Z</time>
      </trkpt>
      <trkpt lat="37.089746" lon="-79.596061">
        <ele>275.438193</ele>
        <time>2025-04-04T16:20:09.000Z</time>
      </trkpt>
      <trkpt lat="37.089829" lon="-79.595931">
        <ele>275.795594</ele>
        <time>2025-04-04T16:20:10.000Z</time>
      </trkpt>
      <trkpt lat="37.090179" lon="-79.595294">
        <ele>277.390052</ele>
        <time>2025-04-04T16:20:17.000Z</time>
      </trkpt>
      <trkpt lat="37.091105" lon="-79.593642">
        <ele>277.626447</ele>
        <time>2025-04-04T16:20:35.000Z</time>
      </trkpt>
      <trkpt lat="37.091417" lon="-79.593143">
        <ele>277.125809</ele>
        <time>2025-04-04T16:20:41.000Z</time>
      </trkpt>
      <trkpt lat="37.091511" lon="-79.593436">
        <ele>276.711365</ele>
        <time>2025-04-04T16:20:44.000Z</time>
      </trkpt>
      <trkpt lat="37.092185" lon="-79.595265">
        <ele>273.878347</ele>
        <time>2025-04-04T16:21:02.000Z</time>
      </trkpt>
      <trkpt lat="37.093368" lon="-79.598657">
        <ele>266.755771</ele>
        <time>2025-04-04T16:21:35.000Z</time>
      </trkpt>
      <trkpt lat="37.093998" lon="-79.600378">
        <ele>261.489644</ele>
        <time>2025-04-04T16:21:52.000Z</time>
      </trkpt>
      <trkpt lat="37.094101" lon="-79.600665">
        <ele>260.574384</ele>
        <time>2025-04-04T16:21:55.000Z</time>
      </trkpt>
      <trkpt lat="37.0944" lon="-79.601482">
        <ele>258.75977</ele>
        <time>2025-04-04T16:22:03.000Z</time>
      </trkpt>
      <trkpt lat="37.094624" lon="-79.601901">
        <ele>258.069675</ele>
        <time>2025-04-04T16:22:07.000Z</time>
      </trkpt>
      <trkpt lat="37.094933" lon="-79.60221">
        <ele>257.371634</ele>
        <time>2025-04-04T16:22:11.000Z</time>
      </trkpt>
      <trkpt lat="37.095877" lon="-79.602941">
        <ele>255.449092</ele>
        <time>2025-04-04T16:22:23.000Z</time>
      </trkpt>
      <trkpt lat="37.096061" lon="-79.603137">
        <ele>255.024771</ele>
        <time>2025-04-04T16:22:26.000Z</time>
      </trkpt>
      <trkpt lat="37.096967" lon="-79.604258">
        <ele>252.934704</ele>
        <time>2025-04-04T16:22:40.000Z</time>
      </trkpt>
      <trkpt lat="37.097079" lon="-79.604435">
        <ele>252.705007</ele>
        <time>2025-04-04T16:22:42.000Z</time>
      </trkpt>
      <trkpt lat="37.097219" lon="-79.604786">
        <ele>252.310557</ele>
        <time>2025-04-04T16:22:45.000Z</time>
      </trkpt>
      <trkpt lat="37.097321" lon="-79.605117">
        <ele>251.956661</ele>
        <time>2025-04-04T16:22:48.000Z</time>
      </trkpt>
      <trkpt lat="37.097336" lon="-79.605479">
        <ele>251.582121</ele>
        <time>2025-04-04T16:22:51.000Z</time>
      </trkpt>
      <trkpt lat="37.097217" lon="-79.60793">
        <ele>252.216628</ele>
        <time>2025-04-04T16:23:13.000Z</time>
      </trkpt>
      <trkpt lat="37.097117" lon="-79.608384">
        <ele>252.551755</ele>
        <time>2025-04-04T16:23:17.000Z</time>
      </trkpt>
      <trkpt lat="37.097017" lon="-79.608611">
        <ele>252.738722</ele>
        <time>2025-04-04T16:23:19.000Z</time>
      </trkpt>
      <trkpt lat="37.096875" lon="-79.608863">
        <ele>252.967713</ele>
        <time>2025-04-04T16:23:22.000Z</time>
      </trkpt>
      <trkpt lat="37.096714" lon="-79.609015">
        <ele>253.154273</ele>
        <time>2025-04-04T16:23:24.000Z</time>
      </trkpt>
      <trkpt lat="37.09668" lon="-79.609039">
        <ele>253.190923</ele>
        <time>2025-04-04T16:23:24.000Z</time>
      </trkpt>
      <trkpt lat="37.096418" lon="-79.60922">
        <ele>253.467889</ele>
        <time>2025-04-04T16:23:27.000Z</time>
      </trkpt>
      <trkpt lat="37.096147" lon="-79.609406">
        <ele>253.751986</ele>
        <time>2025-04-04T16:23:30.000Z</time>
      </trkpt>
      <trkpt lat="37.096013" lon="-79.609496">
        <ele>253.898892</ele>
        <time>2025-04-04T16:23:32.000Z</time>
      </trkpt>
      <trkpt lat="37.095789" lon="-79.609867">
        <ele>254.173208</ele>
        <time>2025-04-04T16:23:36.000Z</time>
      </trkpt>
      <trkpt lat="37.095733" lon="-79.609928">
        <ele>254.173209</ele>
        <time>2025-04-04T16:23:37.000Z</time>
      </trkpt>
      <trkpt lat="37.095673" lon="-79.609949">
        <ele>254.173221</ele>
        <time>2025-04-04T16:23:38.000Z</time>
      </trkpt>
      <trkpt lat="37.095628" lon="-79.610062">
        <ele>254.173219</ele>
        <time>2025-04-04T16:23:39.000Z</time>
      </trkpt>
      <trkpt lat="37.095591" lon="-79.610094">
        <ele>254.173204</ele>
        <time>2025-04-04T16:23:39.000Z</time>
      </trkpt>
      <trkpt lat="37.09509" lon="-79.610382">
        <ele>254.173205</ele>
        <time>2025-04-04T16:23:45.000Z</time>
      </trkpt>
      <trkpt lat="37.095075" lon="-79.610383">
        <ele>254.17322</ele>
        <time>2025-04-04T16:23:45.000Z</time>
      </trkpt>
      <trkpt lat="37.095035" lon="-79.610374">
        <ele>254.17321</ele>
        <time>2025-04-04T16:23:45.000Z</time>
      </trkpt>
      <trkpt lat="37.094979" lon="-79.610335">
        <ele>254.173214</ele>
        <time>2025-04-04T16:23:46.000Z</time>
      </trkpt>
      <trkpt lat="37.094903" lon="-79.610197">
        <ele>254.173211</ele>
        <time>2025-04-04T16:23:47.000Z</time>
      </trkpt>
      <trkpt lat="37.095454" lon="-79.60987">
        <ele>254.17322</ele>
        <time>2025-04-04T16:23:54.000Z</time>
      </trkpt>
      <trkpt lat="37.095485" lon="-79.609838">
        <ele>253.764449</ele>
        <time>2025-04-04T16:23:54.000Z</time>
      </trkpt>
      <trkpt lat="37.095517" lon="-79.609826">
        <ele>253.764445</ele>
        <time>2025-04-04T16:23:54.000Z</time>
      </trkpt>
      <trkpt lat="37.095594" lon="-79.609829">
        <ele>253.764448</ele>
        <time>2025-04-04T16:23:55.000Z</time>
      </trkpt>
      <trkpt lat="37.095619" lon="-79.609774">
        <ele>253.764451</ele>
        <time>2025-04-04T16:23:56.000Z</time>
      </trkpt>
      <trkpt lat="37.095683" lon="-79.60969">
        <ele>253.764452</ele>
        <time>2025-04-04T16:23:57.000Z</time>
      </trkpt>
      <trkpt lat="37.096009" lon="-79.609496">
        <ele>253.764444</ele>
        <time>2025-04-04T16:24:01.000Z</time>
      </trkpt>
      <trkpt lat="37.096143" lon="-79.609404">
        <ele>253.764456</ele>
        <time>2025-04-04T16:24:03.000Z</time>
      </trkpt>
      <trkpt lat="37.09642" lon="-79.609227">
        <ele>253.577013</ele>
        <time>2025-04-04T16:24:06.000Z</time>
      </trkpt>
      <trkpt lat="37.096668" lon="-79.609034">
        <ele>253.258514</ele>
        <time>2025-04-04T16:24:09.000Z</time>
      </trkpt>
      <trkpt lat="37.096702" lon="-79.609017">
        <ele>253.216383</ele>
        <time>2025-04-04T16:24:09.000Z</time>
      </trkpt>
      <trkpt lat="37.09687" lon="-79.608858">
        <ele>253.001849</ele>
        <time>2025-04-04T16:24:11.000Z</time>
      </trkpt>
      <trkpt lat="37.097033" lon="-79.608621">
        <ele>252.738533</ele>
        <time>2025-04-04T16:24:14.000Z</time>
      </trkpt>
      <trkpt lat="37.097112" lon="-79.608389">
        <ele>252.523547</ele>
        <time>2025-04-04T16:24:16.000Z</time>
      </trkpt>
      <trkpt lat="37.097218" lon="-79.60792">
        <ele>252.109418</ele>
        <time>2025-04-04T16:24:20.000Z</time>
      </trkpt>
      <trkpt lat="37.097344" lon="-79.605482">
        <ele>251.212166</ele>
        <time>2025-04-04T16:24:42.000Z</time>
      </trkpt>
      <trkpt lat="37.097314" lon="-79.605118">
        <ele>251.532119</ele>
        <time>2025-04-04T16:24:45.000Z</time>
      </trkpt>
      <trkpt lat="37.097227" lon="-79.604775">
        <ele>252.028118</ele>
        <time>2025-04-04T16:24:48.000Z</time>
      </trkpt>
      <trkpt lat="37.097064" lon="-79.604437">
        <ele>252.580942</ele>
        <time>2025-04-04T16:24:52.000Z</time>
      </trkpt>
      <trkpt lat="37.096954" lon="-79.604259">
        <ele>252.902875</ele>
        <time>2025-04-04T16:24:54.000Z</time>
      </trkpt>
      <trkpt lat="37.096061" lon="-79.603132">
        <ele>255.079625</ele>
        <time>2025-04-04T16:25:08.000Z</time>
      </trkpt>
      <trkpt lat="37.095886" lon="-79.602946">
        <ele>255.472656</ele>
        <time>2025-04-04T16:25:11.000Z</time>
      </trkpt>
      <trkpt lat="37.094928" lon="-79.602206">
        <ele>257.255546</ele>
        <time>2025-04-04T16:25:24.000Z</time>
      </trkpt>
      <trkpt lat="37.094628" lon="-79.601899">
        <ele>258.144148</ele>
        <time>2025-04-04T16:25:28.000Z</time>
      </trkpt>
      <trkpt lat="37.0944" lon="-79.601487">
        <ele>259.025737</ele>
        <time>2025-04-04T16:25:32.000Z</time>
      </trkpt>
      <trkpt lat="37.094097" lon="-79.600663">
        <ele>260.614502</ele>
        <time>2025-04-04T16:25:40.000Z</time>
      </trkpt>
      <trkpt lat="37.093993" lon="-79.600388">
        <ele>261.168884</ele>
        <time>2025-04-04T16:25:43.000Z</time>
      </trkpt>
      <trkpt lat="37.093354" lon="-79.598665">
        <ele>266.773461</ele>
        <time>2025-04-04T16:26:00.000Z</time>
      </trkpt>
      <trkpt lat="37.092193" lon="-79.595271">
        <ele>273.865132</ele>
        <time>2025-04-04T16:26:33.000Z</time>
      </trkpt>
      <trkpt lat="37.09152" lon="-79.593445">
        <ele>276.617762</ele>
        <time>2025-04-04T16:26:51.000Z</time>
      </trkpt>
      <trkpt lat="37.091411" lon="-79.593144">
        <ele>276.889134</ele>
        <time>2025-04-04T16:26:54.000Z</time>
      </trkpt>
      <trkpt lat="37.091098" lon="-79.59365">
        <ele>277.430227</ele>
        <time>2025-04-04T16:27:00.000Z</time>
      </trkpt>
      <trkpt lat="37.090168" lon="-79.595302">
        <ele>276.958579</ele>
        <time>2025-04-04T16:27:18.000Z</time>
      </trkpt>
      <trkpt lat="37.089817" lon="-79.595934">
        <ele>276.432608</ele>
        <time>2025-04-04T16:27:25.000Z</time>
      </trkpt>
      <trkpt lat="37.089743" lon="-79.596059">
        <ele>275.954355</ele>
        <time>2025-04-04T16:27:26.000Z</time>
      </trkpt>
      <trkpt lat="37.089565" lon="-79.596372">
        <ele>274.895167</ele>
        <time>2025-04-04T16:27:29.000Z</time>
      </trkpt>
      <trkpt lat="37.089131" lon="-79.597129">
        <ele>272.287664</ele>
        <time>2025-04-04T16:27:37.000Z</time>
      </trkpt>
      <trkpt lat="37.088597" lon="-79.597895">
        <ele>269.551812</ele>
        <time>2025-04-04T16:27:46.000Z</time>
      </trkpt>
      <trkpt lat="37.088268" lon="-79.598209">
        <ele>268.241914</ele>
        <time>2025-04-04T16:27:51.000Z</time>
      </trkpt>
      <trkpt lat="37.087773" lon="-79.598602">
        <ele>266.39052</ele>
        <time>2025-04-04T16:27:58.000Z</time>
      </trkpt>
      <trkpt lat="37.087298" lon="-79.598923">
        <ele>264.686866</ele>
        <time>2025-04-04T16:28:04.000Z</time>
      </trkpt>
      <trkpt lat="37.08698" lon="-79.599264">
        <ele>263.894032</ele>
        <time>2025-04-04T16:28:09.000Z</time>
      </trkpt>
      <trkpt lat="37.086907" lon="-79.599371">
        <ele>263.691884</ele>
        <time>2025-04-04T16:28:10.000Z</time>
      </trkpt>
      <trkpt lat="37.086754" lon="-79.599717">
        <ele>263.137273</ele>
        <time>2025-04-04T16:28:14.000Z</time>
      </trkpt>
      <trkpt lat="37.086018" lon="-79.60201">
        <ele>260.165845</ele>
        <time>2025-04-04T16:28:36.000Z</time>
      </trkpt>
      <trkpt lat="37.085821" lon="-79.602451">
        <ele>259.700801</ele>
        <time>2025-04-04T16:28:40.000Z</time>
      </trkpt>
      <trkpt lat="37.085658" lon="-79.602715">
        <ele>259.38529</ele>
        <time>2025-04-04T16:28:43.000Z</time>
      </trkpt>
      <trkpt lat="37.08544" lon="-79.602979">
        <ele>259.25117</ele>
        <time>2025-04-04T16:28:46.000Z</time>
      </trkpt>
      <trkpt lat="37.085186" lon="-79.603177">
        <ele>259.34437</ele>
        <time>2025-04-04T16:28:49.000Z</time>
      </trkpt>
      <trkpt lat="37.08392" lon="-79.603639">
        <ele>259.759091</ele>
        <time>2025-04-04T16:29:04.000Z</time>
      </trkpt>
      <trkpt lat="37.08361" lon="-79.603832">
        <ele>259.564756</ele>
        <time>2025-04-04T16:29:08.000Z</time>
      </trkpt>
      <trkpt lat="37.083366" lon="-79.604108">
        <ele>259.357183</ele>
        <time>2025-04-04T16:29:12.000Z</time>
      </trkpt>
      <trkpt lat="37.083196" lon="-79.604432">
        <ele>259.16479</ele>
        <time>2025-04-04T16:29:15.000Z</time>
      </trkpt>
      <trkpt lat="37.08312" lon="-79.604706">
        <ele>259.017368</ele>
        <time>2025-04-04T16:29:18.000Z</time>
      </trkpt>
      <trkpt lat="37.08297" lon="-79.606611">
        <ele>258.729046</ele>
        <time>2025-04-04T16:29:35.000Z</time>
      </trkpt>
      <trkpt lat="37.082886" lon="-79.606952">
        <ele>258.758281</ele>
        <time>2025-04-04T16:29:38.000Z</time>
      </trkpt>
      <trkpt lat="37.082813" lon="-79.607151">
        <ele>258.775845</ele>
        <time>2025-04-04T16:29:40.000Z</time>
      </trkpt>
      <trkpt lat="37.082622" lon="-79.607479">
        <ele>258.810192</ele>
        <time>2025-04-04T16:29:44.000Z</time>
      </trkpt>
      <trkpt lat="37.082443" lon="-79.607644">
        <ele>258.51966</ele>
        <time>2025-04-04T16:29:46.000Z</time>
      </trkpt>
      <trkpt lat="37.082145" lon="-79.6078">
        <ele>257.683878</ele>
        <time>2025-04-04T16:29:50.000Z</time>
      </trkpt>
      <trkpt lat="37.081582" lon="-79.608025">
        <ele>256.178354</ele>
        <time>2025-04-04T16:29:57.000Z</time>
      </trkpt>
      <trkpt lat="37.081309" lon="-79.60821">
        <ele>255.390744</ele>
        <time>2025-04-04T16:30:00.000Z</time>
      </trkpt>
      <trkpt lat="37.080932" lon="-79.608516">
        <ele>254.256332</ele>
        <time>2025-04-04T16:30:05.000Z</time>
      </trkpt>
      <trkpt lat="37.080357" lon="-79.609068">
        <ele>251.354335</ele>
        <time>2025-04-04T16:30:13.000Z</time>
      </trkpt>
      <trkpt lat="37.080145" lon="-79.60935">
        <ele>250.159834</ele>
        <time>2025-04-04T16:30:16.000Z</time>
      </trkpt>
      <trkpt lat="37.080099" lon="-79.609445">
        <ele>249.792372</ele>
        <time>2025-04-04T16:30:17.000Z</time>
      </trkpt>
      <trkpt lat="37.080038" lon="-79.609659">
        <ele>249.068381</ele>
        <time>2025-04-04T16:30:19.000Z</time>
      </trkpt>
      <trkpt lat="37.080031" lon="-79.609838">
        <ele>248.487175</ele>
        <time>2025-04-04T16:30:21.000Z</time>
      </trkpt>
      <trkpt lat="37.080058" lon="-79.610267">
        <ele>247.08273</ele>
        <time>2025-04-04T16:30:25.000Z</time>
      </trkpt>
      <trkpt lat="37.080033" lon="-79.61044">
        <ele>247.02591</ele>
        <time>2025-04-04T16:30:27.000Z</time>
      </trkpt>
      <trkpt lat="37.08" lon="-79.610508">
        <ele>246.999473</ele>
        <time>2025-04-04T16:30:28.000Z</time>
      </trkpt>
      <trkpt lat="37.079736" lon="-79.610769">
        <ele>246.86813</ele>
        <time>2025-04-04T16:30:32.000Z</time>
      </trkpt>
      <trkpt lat="37.079641" lon="-79.61089">
        <ele>246.814841</ele>
        <time>2025-04-04T16:30:34.000Z</time>
      </trkpt>
      <trkpt lat="37.079538" lon="-79.611193">
        <ele>246.710824</ele>
        <time>2025-04-04T16:30:37.000Z</time>
      </trkpt>
      <trkpt lat="37.079461" lon="-79.611527">
        <ele>246.599263</ele>
        <time>2025-04-04T16:30:40.000Z</time>
      </trkpt>
      <trkpt lat="37.079362" lon="-79.611698">
        <ele>246.536555</ele>
        <time>2025-04-04T16:30:42.000Z</time>
      </trkpt>
      <trkpt lat="37.079162" lon="-79.611854">
        <ele>246.445656</ele>
        <time>2025-04-04T16:30:45.000Z</time>
      </trkpt>
      <trkpt lat="37.078773" lon="-79.611984">
        <ele>246.664009</ele>
        <time>2025-04-04T16:30:49.000Z</time>
      </trkpt>
      <trkpt lat="37.078665" lon="-79.612058">
        <ele>246.858284</ele>
        <time>2025-04-04T16:30:50.000Z</time>
      </trkpt>
      <trkpt lat="37.078592" lon="-79.612152">
        <ele>247.013457</ele>
        <time>2025-04-04T16:30:51.000Z</time>
      </trkpt>
      <trkpt lat="37.07853" lon="-79.612244">
        <ele>247.16758</ele>
        <time>2025-04-04T16:30:52.000Z</time>
      </trkpt>
      <trkpt lat="37.078478" lon="-79.612437">
        <ele>247.396615</ele>
        <time>2025-04-04T16:30:54.000Z</time>
      </trkpt>
      <trkpt lat="37.078478" lon="-79.612621">
        <ele>247.626741</ele>
        <time>2025-04-04T16:30:56.000Z</time>
      </trkpt>
      <trkpt lat="37.078579" lon="-79.613037">
        <ele>248.130409</ele>
        <time>2025-04-04T16:31:00.000Z</time>
      </trkpt>
      <trkpt lat="37.078697" lon="-79.613366">
        <ele>248.559588</ele>
        <time>2025-04-04T16:31:03.000Z</time>
      </trkpt>
      <trkpt lat="37.078814" lon="-79.613713">
        <ele>249.018178</ele>
        <time>2025-04-04T16:31:06.000Z</time>
      </trkpt>
      <trkpt lat="37.079066" lon="-79.614118">
        <ele>249.206656</ele>
        <time>2025-04-04T16:31:11.000Z</time>
      </trkpt>
      <trkpt lat="37.079209" lon="-79.614459">
        <ele>249.329317</ele>
        <time>2025-04-04T16:31:14.000Z</time>
      </trkpt>
      <trkpt lat="37.079274" lon="-79.614823">
        <ele>249.450241</ele>
        <time>2025-04-04T16:31:17.000Z</time>
      </trkpt>
      <trkpt lat="37.079299" lon="-79.615065">
        <ele>249.529669</ele>
        <time>2025-04-04T16:31:19.000Z</time>
      </trkpt>
      <trkpt lat="37.079288" lon="-79.615247">
        <ele>249.583364</ele>
        <time>2025-04-04T16:31:21.000Z</time>
      </trkpt>
      <trkpt lat="37.079247" lon="-79.615397">
        <ele>249.636352</ele>
        <time>2025-04-04T16:31:22.000Z</time>
      </trkpt>
      <trkpt lat="37.079226" lon="-79.615454">
        <ele>249.656078</ele>
        <time>2025-04-04T16:31:23.000Z</time>
      </trkpt>
      <trkpt lat="37.079258" lon="-79.615406">
        <ele>249.675818</ele>
        <time>2025-04-04T16:31:24.000Z</time>
      </trkpt>
      <trkpt lat="37.079295" lon="-79.615242">
        <ele>249.728793</ele>
        <time>2025-04-04T16:31:26.000Z</time>
      </trkpt>
      <trkpt lat="37.079292" lon="-79.615068">
        <ele>249.752633</ele>
        <time>2025-04-04T16:31:28.000Z</time>
      </trkpt>
      <trkpt lat="37.07928" lon="-79.614824">
        <ele>249.583198</ele>
        <time>2025-04-04T16:31:30.000Z</time>
      </trkpt>
      <trkpt lat="37.079212" lon="-79.61445">
        <ele>249.325308</ele>
        <time>2025-04-04T16:31:33.000Z</time>
      </trkpt>
      <trkpt lat="37.07908" lon="-79.614115">
        <ele>249.063656</ele>
        <time>2025-04-04T16:31:36.000Z</time>
      </trkpt>
      <trkpt lat="37.078814" lon="-79.613703">
        <ele>248.715109</ele>
        <time>2025-04-04T16:31:41.000Z</time>
      </trkpt>
      <trkpt lat="37.078684" lon="-79.613355">
        <ele>248.452917</ele>
        <time>2025-04-04T16:31:44.000Z</time>
      </trkpt>
      <trkpt lat="37.078585" lon="-79.61303">
        <ele>248.195212</ele>
        <time>2025-04-04T16:31:47.000Z</time>
      </trkpt>
      <trkpt lat="37.078482" lon="-79.612634">
        <ele>247.782792</ele>
        <time>2025-04-04T16:31:51.000Z</time>
      </trkpt>
      <trkpt lat="37.078482" lon="-79.612431">
        <ele>247.594355</ele>
        <time>2025-04-04T16:31:53.000Z</time>
      </trkpt>
      <trkpt lat="37.078526" lon="-79.612249">
        <ele>247.40681</ele>
        <time>2025-04-04T16:31:55.000Z</time>
      </trkpt>
      <trkpt lat="37.078589" lon="-79.612143">
        <ele>247.280621</ele>
        <time>2025-04-04T16:31:56.000Z</time>
      </trkpt>
      <trkpt lat="37.078663" lon="-79.612065">
        <ele>247.15356</ele>
        <time>2025-04-04T16:31:57.000Z</time>
      </trkpt>
      <trkpt lat="37.078782" lon="-79.611993">
        <ele>246.994476</ele>
        <time>2025-04-04T16:31:58.000Z</time>
      </trkpt>
      <trkpt lat="37.07917" lon="-79.611851">
        <ele>246.498152</ele>
        <time>2025-04-04T16:32:02.000Z</time>
      </trkpt>
      <trkpt lat="37.07936" lon="-79.611688">
        <ele>246.218017</ele>
        <time>2025-04-04T16:32:05.000Z</time>
      </trkpt>
      <trkpt lat="37.079457" lon="-79.611523">
        <ele>246.04684</ele>
        <time>2025-04-04T16:32:07.000Z</time>
      </trkpt>
      <trkpt lat="37.079527" lon="-79.611198">
        <ele>246.448896</ele>
        <time>2025-04-04T16:32:10.000Z</time>
      </trkpt>
      <trkpt lat="37.079641" lon="-79.610896">
        <ele>246.823838</ele>
        <time>2025-04-04T16:32:13.000Z</time>
      </trkpt>
      <trkpt lat="37.079741" lon="-79.610778">
        <ele>247.015909</ele>
        <time>2025-04-04T16:32:15.000Z</time>
      </trkpt>
      <trkpt lat="37.079986" lon="-79.610504">
        <ele>247.48933</ele>
        <time>2025-04-04T16:32:19.000Z</time>
      </trkpt>
      <trkpt lat="37.080022" lon="-79.610432">
        <ele>247.584637</ele>
        <time>2025-04-04T16:32:20.000Z</time>
      </trkpt>
      <trkpt lat="37.080052" lon="-79.610267">
        <ele>247.77565</ele>
        <time>2025-04-04T16:32:22.000Z</time>
      </trkpt>
      <trkpt lat="37.080026" lon="-79.609843">
        <ele>248.279005</ele>
        <time>2025-04-04T16:32:26.000Z</time>
      </trkpt>
      <trkpt lat="37.080031" lon="-79.609663">
        <ele>248.487313</ele>
        <time>2025-04-04T16:32:28.000Z</time>
      </trkpt>
      <trkpt lat="37.080095" lon="-79.609433">
        <ele>249.055079</ele>
        <time>2025-04-04T16:32:30.000Z</time>
      </trkpt>
      <trkpt lat="37.080143" lon="-79.609337">
        <ele>249.481979</ele>
        <time>2025-04-04T16:32:31.000Z</time>
      </trkpt>
      <trkpt lat="37.080362" lon="-79.609086">
        <ele>250.869756</ele>
        <time>2025-04-04T16:32:34.000Z</time>
      </trkpt>
      <trkpt lat="37.080927" lon="-79.608524">
        <ele>254.241274</ele>
        <time>2025-04-04T16:32:42.000Z</time>
      </trkpt>
      <trkpt lat="37.081295" lon="-79.608202">
        <ele>256.314637</ele>
        <time>2025-04-04T16:32:47.000Z</time>
      </trkpt>
      <trkpt lat="37.081585" lon="-79.608032">
        <ele>257.104577</ele>
        <time>2025-04-04T16:32:51.000Z</time>
      </trkpt>
      <trkpt lat="37.082151" lon="-79.607797">
        <ele>257.62148</ele>
        <time>2025-04-04T16:32:58.000Z</time>
      </trkpt>
      <trkpt lat="37.082449" lon="-79.607632">
        <ele>257.908447</ele>
        <time>2025-04-04T16:33:02.000Z</time>
      </trkpt>
      <trkpt lat="37.082614" lon="-79.607477">
        <ele>258.092468</ele>
        <time>2025-04-04T16:33:04.000Z</time>
      </trkpt>
      <trkpt lat="37.082806" lon="-79.607145">
        <ele>258.381317</ele>
        <time>2025-04-04T16:33:08.000Z</time>
      </trkpt>
      <trkpt lat="37.082879" lon="-79.60695">
        <ele>258.523111</ele>
        <time>2025-04-04T16:33:10.000Z</time>
      </trkpt>
      <trkpt lat="37.082973" lon="-79.606614">
        <ele>258.620535</ele>
        <time>2025-04-04T16:33:13.000Z</time>
      </trkpt>
      <trkpt lat="37.083116" lon="-79.604692">
        <ele>259.146666</ele>
        <time>2025-04-04T16:33:30.000Z</time>
      </trkpt>
      <trkpt lat="37.083204" lon="-79.604435">
        <ele>259.21107</ele>
        <time>2025-04-04T16:33:32.000Z</time>
      </trkpt>
      <trkpt lat="37.083367" lon="-79.604112">
        <ele>259.295112</ele>
        <time>2025-04-04T16:33:35.000Z</time>
      </trkpt>
      <trkpt lat="37.083608" lon="-79.603836">
        <ele>259.385786</ele>
        <time>2025-04-04T16:33:39.000Z</time>
      </trkpt>
      <trkpt lat="37.083908" lon="-79.603636">
        <ele>259.479889</ele>
        <time>2025-04-04T16:33:43.000Z</time>
      </trkpt>
      <trkpt lat="37.085187" lon="-79.603161">
        <ele>259.568616</ele>
        <time>2025-04-04T16:33:58.000Z</time>
      </trkpt>
      <trkpt lat="37.085444" lon="-79.602964">
        <ele>259.543041</ele>
        <time>2025-04-04T16:34:01.000Z</time>
      </trkpt>
      <trkpt lat="37.085657" lon="-79.602707">
        <ele>259.516807</ele>
        <time>2025-04-04T16:34:04.000Z</time>
      </trkpt>
      <trkpt lat="37.08583" lon="-79.602457">
        <ele>259.494067</ele>
        <time>2025-04-04T16:34:07.000Z</time>
      </trkpt>
      <trkpt lat="37.086019" lon="-79.602013">
        <ele>259.853026</ele>
        <time>2025-04-04T16:34:11.000Z</time>
      </trkpt>
      <trkpt lat="37.086768" lon="-79.599719">
        <ele>263.244347</ele>
        <time>2025-04-04T16:34:33.000Z</time>
      </trkpt>
      <trkpt lat="37.086904" lon="-79.599377">
        <ele>263.828863</ele>
        <time>2025-04-04T16:34:36.000Z</time>
      </trkpt>
      <trkpt lat="37.08697" lon="-79.599256">
        <ele>264.041911</ele>
        <time>2025-04-04T16:34:37.000Z</time>
      </trkpt>
      <trkpt lat="37.087288" lon="-79.598938">
        <ele>264.830699</ele>
        <time>2025-04-04T16:34:42.000Z</time>
      </trkpt>
      <trkpt lat="37.087771" lon="-79.598601">
        <ele>265.859754</ele>
        <time>2025-04-04T16:34:48.000Z</time>
      </trkpt>
      <trkpt lat="37.088273" lon="-79.598216">
        <ele>268.076712</ele>
        <time>2025-04-04T16:34:55.000Z</time>
      </trkpt>
      <trkpt lat="37.088592" lon="-79.597894">
        <ele>269.656086</ele>
        <time>2025-04-04T16:35:00.000Z</time>
      </trkpt>
      <trkpt lat="37.089132" lon="-79.597122">
        <ele>272.698029</ele>
        <time>2025-04-04T16:35:09.000Z</time>
      </trkpt>
      <trkpt lat="37.089566" lon="-79.59638">
        <ele>274.646651</ele>
        <time>2025-04-04T16:35:17.000Z</time>
      </trkpt>
      <trkpt lat="37.089735" lon="-79.596074">
        <ele>275.43819</ele>
        <time>2025-04-04T16:35:20.000Z</time>
      </trkpt>
      <trkpt lat="37.089819" lon="-79.595923">
        <ele>275.795583</ele>
        <time>2025-04-04T16:35:22.000Z</time>
      </trkpt>
      <trkpt lat="37.090168" lon="-79.5953">
        <ele>277.390061</ele>
        <time>2025-04-04T16:35:29.000Z</time>
      </trkpt>
      <trkpt lat="37.091095" lon="-79.593647">
        <ele>277.626449</ele>
        <time>2025-04-04T16:35:47.000Z</time>
      </trkpt>
      <trkpt lat="37.091419" lon="-79.59315">
        <ele>277.125801</ele>
        <time>2025-04-04T16:35:53.000Z</time>
      </trkpt>
      <trkpt lat="37.091518" lon="-79.593438">
        <ele>276.711368</ele>
        <time>2025-04-04T16:35:56.000Z</time>
      </trkpt>
      <trkpt lat="37.09218" lon="-79.595278">
        <ele>273.878353</ele>
        <time>2025-04-04T16:36:14.000Z</time>
      </trkpt>
      <trkpt lat="37.093365" lon="-79.598659">
        <ele>266.755758</ele>
        <time>2025-04-04T16:36:47.000Z</time>
      </trkpt>
      <trkpt lat="37.093996" lon="-79.600384">
        <ele>261.489629</ele>
        <time>2025-04-04T16:37:04.000Z</time>
      </trkpt>
      <trkpt lat="37.094094" lon="-79.600672">
        <ele>260.574384</ele>
        <time>2025-04-04T16:37:07.000Z</time>
      </trkpt>
      <trkpt lat="37.094383" lon="-79.601492">
        <ele>258.759764</ele>
        <time>2025-04-04T16:37:15.000Z</time>
      </trkpt>
      <trkpt lat="37.094617" lon="-79.601891">
        <ele>258.069681</ele>
        <time>2025-04-04T16:37:19.000Z</time>
      </trkpt>
      <trkpt lat="37.09494" lon="-79.602217">
        <ele>257.371627</ele>
        <time>2025-04-04T16:37:24.000Z</time>
      </trkpt>
      <trkpt lat="37.095882" lon="-79.602947">
        <ele>255.449075</ele>
        <time>2025-04-04T16:37:36.000Z</time>
      </trkpt>
      <trkpt lat="37.096059" lon="-79.603137">
        <ele>255.024771</ele>
        <time>2025-04-04T16:37:39.000Z</time>
      </trkpt>
      <trkpt lat="37.096972" lon="-79.60425">
        <ele>252.934713</ele>
        <time>2025-04-04T16:37:53.000Z</time>
      </trkpt>
      <trkpt lat="37.097065" lon="-79.604437">
        <ele>252.705011</ele>
        <time>2025-04-04T16:37:55.000Z</time>
      </trkpt>
      <trkpt lat="37.097225" lon="-79.604773">
        <ele>252.310562</ele>
        <time>2025-04-04T16:37:58.000Z</time>
      </trkpt>
      <trkpt lat="37.097317" lon="-79.605118">
        <ele>251.956655</ele>
        <time>2025-04-04T16:38:01.000Z</time>
      </trkpt>
      <trkpt lat="37.097351" lon="-79.605471">
        <ele>251.582121</ele>
        <time>2025-04-04T16:38:04.000Z</time>
      </trkpt>
      <trkpt lat="37.097206" lon="-79.607916">
        <ele>252.216629</ele>
        <time>2025-04-04T16:38:26.000Z</time>
      </trkpt>
      <trkpt lat="37.097102" lon="-79.608388">
        <ele>252.551755</ele>
        <time>2025-04-04T16:38:30.000Z</time>
      </trkpt>
      <trkpt lat="37.097031" lon="-79.608629">
        <ele>252.73873</ele>
        <time>2025-04-04T16:38:32.000Z</time>
      </trkpt>
      <trkpt lat="37.09687" lon="-79.608854">
        <ele>252.967714</ele>
        <time>2025-04-04T16:38:35.000Z</time>
      </trkpt>
      <trkpt lat="37.09671" lon="-79.609006">
        <ele>253.154278</ele>
        <time>2025-04-04T16:38:37.000Z</time>
      </trkpt>
      <trkpt lat="37.09667" lon="-79.609028">
        <ele>253.190915</ele>
        <time>2025-04-04T16:38:37.000Z</time>
      </trkpt>
      <trkpt lat="37.096415" lon="-79.609222">
        <ele>253.4679</ele>
        <time>2025-04-04T16:38:40.000Z</time>
      </trkpt>
      <trkpt lat="37.096141" lon="-79.609403">
        <ele>253.751987</ele>
        <time>2025-04-04T16:38:43.000Z</time>
      </trkpt>
      <trkpt lat="37.096011" lon="-79.609489">
        <ele>253.898887</ele>
        <time>2025-04-04T16:38:45.000Z</time>
      </trkpt>
      <trkpt lat="37.095788" lon="-79.609864">
        <ele>254.173216</ele>
        <time>2025-04-04T16:38:49.000Z</time>
      </trkpt>
      <trkpt lat="37.09573" lon="-79.609933">
        <ele>254.173206</ele>
        <time>2025-04-04T16:38:50.000Z</time>
      </trkpt>
      <trkpt lat="37.095666" lon="-79.609933">
        <ele>254.173206</ele>
        <time>2025-04-04T16:38:51.000Z</time>
      </trkpt>
      <trkpt lat="37.095633" lon="-79.610059">
        <ele>254.173215</ele>
        <time>2025-04-04T16:38:52.000Z</time>
      </trkpt>
      <trkpt lat="37.095584" lon="-79.610101">
        <ele>254.173203</ele>
        <time>2025-04-04T16:38:53.000Z</time>
      </trkpt>
      <trkpt lat="37.09508" lon="-79.61038">
        <ele>254.173217</ele>
        <time>2025-04-04T16:38:59.000Z</time>
      </trkpt>
      <trkpt lat="37.095076" lon="-79.610379">
        <ele>254.173208</ele>
        <time>2025-04-04T16:38:59.000Z</time>
      </trkpt>
      <trkpt lat="37.095041" lon="-79.610374">
        <ele>254.173203</ele>
        <time>2025-04-04T16:38:59.000Z</time>
      </trkpt>
      <trkpt lat="37.094966" lon="-79.610336">
        <ele>254.173204</ele>
        <time>2025-04-04T16:39:00.000Z</time>
      </trkpt>
      <trkpt lat="37.094904" lon="-79.610197">
        <ele>254.173215</ele>
        <time>2025-04-04T16:39:01.000Z</time>
      </trkpt>
      <trkpt lat="37.095451" lon="-79.609865">
        <ele>254.173207</ele>
        <time>2025-04-04T16:39:08.000Z</time>
      </trkpt>
      <trkpt lat="37.095485" lon="-79.609848">
        <ele>253.764452</ele>
        <time>2025-04-04T16:39:08.000Z</time>
      </trkpt>
      <trkpt lat="37.095528" lon="-79.609834">
        <ele>253.76445</ele>
        <time>2025-04-04T16:39:08.000Z</time>
      </trkpt>
      <trkpt lat="37.09561" lon="-79.609824">
        <ele>253.764445</ele>
        <time>2025-04-04T16:39:09.000Z</time>
      </trkpt>
      <trkpt lat="37.095618" lon="-79.609776">
        <ele>253.764456</ele>
        <time>2025-04-04T16:39:09.000Z</time>
      </trkpt>
      <trkpt lat="37.095679" lon="-79.6097">
        <ele>253.764442</ele>
        <time>2025-04-04T16:39:10.000Z</time>
      </trkpt>
      <trkpt lat="37.096" lon="-79.609503">
        <ele>253.764452</ele>
        <time>2025-04-04T16:39:14.000Z</time>
      </trkpt>
      <trkpt lat="37.096142" lon="-79.609402">
        <ele>253.764449</ele>
        <time>2025-04-04T16:39:16.000Z</time>
      </trkpt>
      <trkpt lat="37.096421" lon="-79.609219">
        <ele>253.577003</ele>
        <time>2025-04-04T16:39:20.000Z</time>
      </trkpt>
      <trkpt lat="37.096674" lon="-79.609038">
        <ele>253.258514</ele>
        <time>2025-04-04T16:39:23.000Z</time>
      </trkpt>
      <trkpt lat="37.096711" lon="-79.609006">
        <ele>253.216391</ele>
        <time>2025-04-04T16:39:23.000Z</time>
      </trkpt>
      <trkpt lat="37.096874" lon="-79.608859">
        <ele>253.001839</ele>
        <time>2025-04-04T16:39:25.000Z</time>
      </trkpt>
      <trkpt lat="37.097027" lon="-79.60862">
        <ele>252.738533</ele>
        <time>2025-04-04T16:39:28.000Z</time>
      </trkpt>
      <trkpt lat="37.097116" lon="-79.60839">
        <ele>252.523547</ele>
        <time>2025-04-04T16:39:30.000Z</time>
      </trkpt>
      <trkpt lat="37.097202" lon="-79.607923">
        <ele>252.10942</ele>
        <time>2025-04-04T16:39:34.000Z</time>
      </trkpt>
      <trkpt lat="37.097348" lon="-79.605471">
        <ele>251.212169</ele>
        <time>2025-04-04T16:39:56.000Z</time>
      </trkpt>
      <trkpt lat="37.097309" lon="-79.605116">
        <ele>251.532111</ele>
        <time>2025-04-04T16:39:59.000Z</time>
      </trkpt>
      <trkpt lat="37.097232" lon="-79.60478">
        <ele>252.028124</ele>
        <time>2025-04-04T16:40:02.000Z</time>
      </trkpt>
      <trkpt lat="37.097075" lon="-79.604434">
        <ele>252.580941</ele>
        <time>2025-04-04T16:40:06.000Z</time>
      </trkpt>
      <trkpt lat="37.096968" lon="-79.604266">
        <ele>252.902858</ele>
        <time>2025-04-04T16:40:08.000Z</time>
      </trkpt>
      <trkpt lat="37.096061" lon="-79.60314">
        <ele>255.079636</ele>
        <time>2025-04-04T16:40:22.000Z</time>
      </trkpt>
      <trkpt lat="37.09587" lon="-79.602938">
        <ele>255.472661</ele>
        <time>2025-04-04T16:40:25.000Z</time>
      </trkpt>
      <trkpt lat="37.09493" lon="-79.602216">
        <ele>257.255534</ele>
        <time>2025-04-04T16:40:37.000Z</time>
      </trkpt>
      <trkpt lat="37.094616" lon="-79.601897">
        <ele>258.144143</ele>
        <time>2025-04-04T16:40:41.000Z</time>
      </trkpt>
      <trkpt lat="37.094382" lon="-79.60149">
        <ele>259.025729</ele>
        <time>2025-04-04T16:40:45.000Z</time>
      </trkpt>
      <trkpt lat="37.0941" lon="-79.600673">
        <ele>260.614499</ele>
        <time>2025-04-04T16:40:53.000Z</time>
      </trkpt>
      <trkpt lat="37.093997" lon="-79.600391">
        <ele>261.168874</ele>
        <time>2025-04-04T16:40:56.000Z</time>
      </trkpt>
      <trkpt lat="37.093358" lon="-79.598666">
        <ele>266.773458</ele>
        <time>2025-04-04T16:41:13.000Z</time>
      </trkpt>
      <trkpt lat="37.092181" lon="-79.59527">
        <ele>273.865132</ele>
        <time>2025-04-04T16:41:46.000Z</time>
      </trkpt>
      <trkpt lat="37.091518" lon="-79.593444">
        <ele>276.617754</ele>
        <time>2025-04-04T16:42:04.000Z</time>
      </trkpt>
      <trkpt lat="37.09141" lon="-79.593137">
        <ele>276.889127</ele>
        <time>2025-04-04T16:42:07.000Z</time>
      </trkpt>
      <trkpt lat="37.091107" lon="-79.593648">
        <ele>277.430215</ele>
        <time>2025-04-04T16:42:13.000Z</time>
      </trkpt>
      <trkpt lat="37.090181" lon="-79.595295">
        <ele>276.95858</ele>
        <time>2025-04-04T16:42:31.000Z</time>
      </trkpt>
      <trkpt lat="37.089826" lon="-79.595929">
        <ele>276.432605</ele>
        <time>2025-04-04T16:42:38.000Z</time>
      </trkpt>
      <trkpt lat="37.089744" lon="-79.596068">
        <ele>275.954354</ele>
        <time>2025-04-04T16:42:40.000Z</time>
      </trkpt>
      <trkpt lat="37.089566" lon="-79.596378">
        <ele>274.895163</ele>
        <time>2025-04-04T16:42:43.000Z</time>
      </trkpt>
      <trkpt lat="37.089119" lon="-79.59714">
        <ele>272.287649</ele>
        <time>2025-04-04T16:42:51.000Z</time>
      </trkpt>
      <trkpt lat="37.088588" lon="-79.597888">
        <ele>269.551803</ele>
        <time>2025-04-04T16:43:00.000Z</time>
      </trkpt>
      <trkpt lat="37.088265" lon="-79.598208">
        <ele>268.241912</ele>
        <time>2025-04-04T16:43:05.000Z</time>
      </trkpt>
      <trkpt lat="37.087763" lon="-79.598597">
        <ele>266.390513</ele>
        <time>2025-04-04T16:43:12.000Z</time>
      </trkpt>
      <trkpt lat="37.087295" lon="-79.598937">
        <ele>264.686859</ele>
        <time>2025-04-04T16:43:18.000Z</time>
      </trkpt>
      <trkpt lat="37.086967" lon="-79.599254">
        <ele>263.894038</ele>
        <time>2025-04-04T16:43:23.000Z</time>
      </trkpt>
      <trkpt lat="37.086898" lon="-79.599373">
        <ele>263.691877</ele>
        <time>2025-04-04T16:43:24.000Z</time>
      </trkpt>
      <trkpt lat="37.086755" lon="-79.599706">
        <ele>263.137276</ele>
        <time>2025-04-04T16:43:27.000Z</time>
      </trkpt>
      <trkpt lat="37.086017" lon="-79.602011">
        <ele>260.16584</ele>
        <time>2025-04-04T16:43:49.000Z</time>
      </trkpt>
      <trkpt lat="37.085831" lon="-79.602451">
        <ele>259.700807</ele>
        <time>2025-04-04T16:43:53.000Z</time>
      </trkpt>
      <trkpt lat="37.08567" lon="-79.602715">
        <ele>259.385285</ele>
        <time>2025-04-04T16:43:56.000Z</time>
      </trkpt>
      <trkpt lat="37.085445" lon="-79.602981">
        <ele>259.251177</ele>
        <time>2025-04-04T16:43:59.000Z</time>
      </trkpt>
      <trkpt lat="37.085185" lon="-79.603164">
        <ele>259.344377</ele>
        <time>2025-04-04T16:44:02.000Z</time>
      </trkpt>
      <trkpt lat="37.083911" lon="-79.603633">
        <ele>259.759095</ele>
        <time>2025-04-04T16:44:17.000Z</time>
      </trkpt>
      <trkpt lat="37.083611" lon="-79.603826">
        <ele>259.564764</ele>
        <time>2025-04-04T16:44:21.000Z</time>
      </trkpt>
      <trkpt lat="37.08337" lon="-79.604105">
        <ele>259.357179</ele>
        <time>2025-04-04T16:44:25.000Z</time>
      </trkpt>
      <trkpt lat="37.083196" lon="-79.604418">
        <ele>259.164791</ele>
        <time>2025-04-04T16:44:28.000Z</time>
      </trkpt>
      <trkpt lat="37.083115" lon="-79.604707">
        <ele>259.017362</ele>
        <time>2025-04-04T16:44:31.000Z</time>
      </trkpt>
      <trkpt lat="37.082966" lon="-79.606609">
        <ele>258.729037</ele>
        <time>2025-04-04T16:44:48.000Z</time>
      </trkpt>
      <trkpt lat="37.08289" lon="-79.606945">
        <ele>258.758283</ele>
        <time>2025-04-04T16:44:51.000Z</time>
      </trkpt>
      <trkpt lat="37.082808" lon="-79.607135">
        <ele>258.775849</ele>
        <time>2025-04-04T16:44:53.000Z</time>
      </trkpt>
      <trkpt lat="37.082617" lon="-79.607481">
        <ele>258.810193</ele>
        <time>2025-04-04T16:44:57.000Z</time>
      </trkpt>
      <trkpt lat="37.082445" lon="-79.607646">
        <ele>258.519658</ele>
        <time>2025-04-04T16:44:59.000Z</time>
      </trkpt>
      <trkpt lat="37.082146" lon="-79.607804">
        <ele>257.683879</ele>
        <time>2025-04-04T16:45:03.000Z</time>
      </trkpt>
      <trkpt lat="37.081576" lon="-79.608031">
        <ele>256.178352</ele>
        <time>2025-04-04T16:45:10.000Z</time>
      </trkpt>
      <trkpt lat="37.081307" lon="-79.608203">
        <ele>255.390755</ele>
        <time>2025-04-04T16:45:13.000Z</time>
      </trkpt>
      <trkpt lat="37.080937" lon="-79.608525">
        <ele>254.256323</ele>
        <time>2025-04-04T16:45:18.000Z</time>
      </trkpt>
      <trkpt lat="37.080355" lon="-79.609073">
        <ele>251.354347</ele>
        <time>2025-04-04T16:45:26.000Z</time>
      </trkpt>
      <trkpt lat="37.080145" lon="-79.609335">
        <ele>250.159836</ele>
        <time>2025-04-04T16:45:29.000Z</time>
      </trkpt>
      <trkpt lat="37.080095" lon="-79.609433">
        <ele>249.792375</ele>
        <time>2025-04-04T16:45:30.000Z</time>
      </trkpt>
      <trkpt lat="37.080029" lon="-79.609659">
        <ele>249.068383</ele>
        <time>2025-04-04T16:45:32.000Z</time>
      </trkpt>
      <trkpt lat="37.080029" lon="-79.609833">
        <ele>248.48717</ele>
        <time>2025-04-04T16:45:34.000Z</time>
      </trkpt>
      <trkpt lat="37.080062" lon="-79.610282">
        <ele>247.082734</ele>
        <time>2025-04-04T16:45:38.000Z</time>
      </trkpt>
      <trkpt lat="37.080018" lon="-79.61043">
        <ele>247.025921</ele>
        <time>2025-04-04T16:45:39.000Z</time>
      </trkpt>
      <trkpt lat="37.079993" lon="-79.610502">
        <ele>246.999468</ele>
        <time>2025-04-04T16:45:40.000Z</time>
      </trkpt>
      <trkpt lat="37.079729" lon="-79.610766">
        <ele>246.868124</ele>
        <time>2025-04-04T16:45:44.000Z</time>
      </trkpt>
      <trkpt lat="37.079644" lon="-79.610906">
        <ele>246.814842</ele>
        <time>2025-04-04T16:45:46.000Z</time>
      </trkpt>
      <trkpt lat="37.079543" lon="-79.611191">
        <ele>246.710808</ele>
        <time>2025-04-04T16:45:49.000Z</time>
      </trkpt>
      <trkpt lat="37.079457" lon="-79.611528">
        <ele>246.599261</ele>
        <time>2025-04-04T16:45:52.000Z</time>
      </trkpt>
      <trkpt lat="37.079355" lon="-79.611697">
        <ele>246.53655</ele>
        <time>2025-04-04T16:45:54.000Z</time>
      </trkpt>
      <trkpt lat="37.079166" lon="-79.611858">
        <ele>246.445666</ele>
        <time>2025-04-04T16:45:57.000Z</time>
      </trkpt>
      <trkpt lat="37.078769" lon="-79.611987">
        <ele>246.664</ele>
        <time>2025-04-04T16:46:02.000Z</time>
      </trkpt>
      <trkpt lat="37.07866" lon="-79.612063">
        <ele>246.858289</ele>
        <time>2025-04-04T16:46:03.000Z</time>
      </trkpt>
      <trkpt lat="37.078589" lon="-79.612154">
        <ele>247.013459</ele>
        <time>2025-04-04T16:46:04.000Z</time>
      </trkpt>
      <trkpt lat="37.078518" lon="-79.612251">
        <ele>247.16757</ele>
        <time>2025-04-04T16:46:05.000Z</time>
      </trkpt>
      <trkpt lat="37.078486" lon="-79.612437">
        <ele>247.396611</ele>
        <time>2025-04-04T16:46:07.000Z</time>
      </trkpt>
      <trkpt lat="37.078478" lon="-79.612625">
        <ele>247.626725</ele>
        <time>2025-04-04T16:46:09.000Z</time>
      </trkpt>
      <trkpt lat="37.078576" lon="-79.613038">
        <ele>248.130405</ele>
        <time>2025-04-04T16:46:13.000Z</time>
      </trkpt>
      <trkpt lat="37.078682" lon="-79.61336">
        <ele>248.559584</ele>
        <time>2025-04-04T16:46:16.000Z</time>
      </trkpt>
      <trkpt lat="37.078826" lon="-79.613705">
        <ele>249.018185</ele>
        <time>2025-04-04T16:46:19.000Z</time>
      </trkpt>
      <trkpt lat="37.079073" lon="-79.614116">
        <ele>249.206658</ele>
        <time>2025-04-04T16:46:24.000Z</time>
      </trkpt>
      <trkpt lat="37.079201" lon="-79.614453">
        <ele>249.329321</ele>
        <time>2025-04-04T16:46:27.000Z</time>
      </trkpt>
      <trkpt lat="37.079282" lon="-79.614819">
        <ele>249.450238</ele>
        <time>2025-04-04T16:46:30.000Z</time>
      </trkpt>
      <trkpt lat="37.079284" lon="-79.61507">
        <ele>249.529664</ele>
        <time>2025-04-04T16:46:32.000Z</time>
      </trkpt>
      <trkpt lat="37.079298" lon="-79.615236">
        <ele>249.583366</ele>
        <time>2025-04-04T16:46:33.000Z</time>
      </trkpt>
      <trkpt lat="37.079251" lon="-79.615404">
        <ele>249.636336</ele>
        <time>2025-04-04T16:46:35.000Z</time>
      </trkpt>
      <trkpt lat="37.079217" lon="-79.615456">
        <ele>249.656083</ele>
        <time>2025-04-04T16:46:36.000Z</time>
      </trkpt>
      <trkpt lat="37.079256" lon="-79.61539">
        <ele>249.675829</ele>
        <time>2025-04-04T16:46:37.000Z</time>
      </trkpt>
      <trkpt lat="37.0793" lon="-79.615247">
        <ele>249.728797</ele>
        <time>2025-04-04T16:46:38.000Z</time>
      </trkpt>
      <trkpt lat="37.07929" lon="-79.61507">
        <ele>249.752618</ele>
        <time>2025-04-04T16:46:40.000Z</time>
      </trkpt>
      <trkpt lat="37.079282" lon="-79.614833">
        <ele>249.583203</ele>
        <time>2025-04-04T16:46:42.000Z</time>
      </trkpt>
      <trkpt lat="37.079213" lon="-79.614464">
        <ele>249.325316</ele>
        <time>2025-04-04T16:46:45.000Z</time>
      </trkpt>
      <trkpt lat="37.07907" lon="-79.614117">
        <ele>249.06367</ele>
        <time>2025-04-04T16:46:48.000Z</time>
      </trkpt>
      <trkpt lat="37.078823" lon="-79.613717">
        <ele>248.715097</ele>
        <time>2025-04-04T16:46:52.000Z</time>
      </trkpt>
      <trkpt lat="37.078692" lon="-79.613367">
        <ele>248.452915</ele>
        <time>2025-04-04T16:46:55.000Z</time>
      </trkpt>
      <trkpt lat="37.078585" lon="-79.613031">
        <ele>248.195213</ele>
        <time>2025-04-04T16:46:58.000Z</time>
      </trkpt>
      <trkpt lat="37.078474" lon="-79.612634">
        <ele>247.782788</ele>
        <time>2025-04-04T16:47:02.000Z</time>
      </trkpt>
      <trkpt lat="37.07847" lon="-79.612438">
        <ele>247.594343</ele>
        <time>2025-04-04T16:47:04.000Z</time>
      </trkpt>
      <trkpt lat="37.078535" lon="-79.612256">
        <ele>247.406804</ele>
        <time>2025-04-04T16:47:06.000Z</time>
      </trkpt>
      <trkpt lat="37.078581" lon="-79.612153">
        <ele>247.280615</ele>
        <time>2025-04-04T16:47:07.000Z</time>
      </trkpt>
      <trkpt lat="37.07867" lon="-79.612065">
        <ele>247.153554</ele>
        <time>2025-04-04T16:47:08.000Z</time>
      </trkpt>
      <trkpt lat="37.078769" lon="-79.611986">
        <ele>246.994463</ele>
        <time>2025-04-04T16:47:09.000Z</time>
      </trkpt>
      <trkpt lat="37.079162" lon="-79.611854">
        <ele>246.498146</ele>
        <time>2025-04-04T16:47:14.000Z</time>
      </trkpt>
      <trkpt lat="37.079366" lon="-79.61169">
        <ele>246.218023</ele>
        <time>2025-04-04T16:47:17.000Z</time>
      </trkpt>
      <trkpt lat="37.079455" lon="-79.611535">
        <ele>246.046842</ele>
        <time>2025-04-04T16:47:19.000Z</time>
      </trkpt>
      <trkpt lat="37.079537" lon="-79.611203">
        <ele>246.448909</ele>
        <time>2025-04-04T16:47:22.000Z</time>
      </trkpt>
      <trkpt lat="37.07965" lon="-79.610893">
        <ele>246.823846</ele>
        <time>2025-04-04T16:47:25.000Z</time>
      </trkpt>
      <trkpt lat="37.079732" lon="-79.610773">
        <ele>247.015905</ele>
        <time>2025-04-04T16:47:26.000Z</time>
      </trkpt>
      <trkpt lat="37.07999" lon="-79.610502">
        <ele>247.489327</ele>
        <time>2025-04-04T16:47:30.000Z</time>
      </trkpt>
      <trkpt lat="37.080022" lon="-79.610435">
        <ele>247.584625</ele>
        <time>2025-04-04T16:47:31.000Z</time>
      </trkpt>
      <trkpt lat="37.080062" lon="-79.610279">
        <ele>247.775632</ele>
        <time>2025-04-04T16:47:32.000Z</time>
      </trkpt>
      <trkpt lat="37.080033" lon="-79.609838">
        <ele>248.279</ele>
        <time>2025-04-04T16:47:36.000Z</time>
      </trkpt>
      <trkpt lat="37.080034" lon="-79.609663">
        <ele>248.487311</ele>
        <time>2025-04-04T16:47:38.000Z</time>
      </trkpt>
      <trkpt lat="37.080097" lon="-79.609434">
        <ele>249.055084</ele>
        <time>2025-04-04T16:47:40.000Z</time>
      </trkpt>
      <trkpt lat="37.080144" lon="-79.609343">
        <ele>249.481978</ele>
        <time>2025-04-04T16:47:41.000Z</time>
      </trkpt>
      <trkpt lat="37.080356" lon="-79.609072">
        <ele>250.86976</ele>
        <time>2025-04-04T16:47:44.000Z</time>
      </trkpt>
      <trkpt lat="37.080931" lon="-79.608513">
        <ele>254.241273</ele>
        <time>2025-04-04T16:47:52.000Z</time>
      </trkpt>
      <trkpt lat="37.081291" lon="-79.608196">
        <ele>256.31465</ele>
        <time>2025-04-04T16:47:57.000Z</time>
      </trkpt>
      <trkpt lat="37.081583" lon="-79.608029">
        <ele>257.104568</ele>
        <time>2025-04-04T16:48:01.000Z</time>
      </trkpt>
      <trkpt lat="37.082149" lon="-79.607812">
        <ele>257.621484</ele>
        <time>2025-04-04T16:48:08.000Z</time>
      </trkpt>
      <trkpt lat="37.082447" lon="-79.607629">
        <ele>257.908435</ele>
        <time>2025-04-04T16:48:12.000Z</time>
      </trkpt>
      <trkpt lat="37.082611" lon="-79.607472">
        <ele>258.092472</ele>
        <time>2025-04-04T16:48:14.000Z</time>
      </trkpt>
      <trkpt lat="37.082807" lon="-79.607141">
        <ele>258.3813</ele>
        <time>2025-04-04T16:48:18.000Z</time>
      </trkpt>
      <trkpt lat="37.082887" lon="-79.606951">
        <ele>258.523104</ele>
        <time>2025-04-04T16:48:20.000Z</time>
      </trkpt>
      <trkpt lat="37.082964" lon="-79.606604">
        <ele>258.620534</ele>
        <time>2025-04-04T16:48:23.000Z</time>
      </trkpt>
      <trkpt lat="37.083118" lon="-79.604705">
        <ele>259.146658</ele>
        <time>2025-04-04T16:48:40.000Z</time>
      </trkpt>
      <trkpt lat="37.083195" lon="-79.604423">
        <ele>259.211066</ele>
        <time>2025-04-04T16:48:43.000Z</time>
      </trkpt>
      <trkpt lat="37.083374" lon="-79.604114">
        <ele>259.29511</ele>
        <time>2025-04-04T16:48:46.000Z</time>
      </trkpt>
      <trkpt lat="37.08361" lon="-79.603823">
        <ele>259.385772</ele>
        <time>2025-04-04T16:48:50.000Z</time>
      </trkpt>
      <trkpt lat="37.083923" lon="-79.60364">
        <ele>259.479883</ele>
        <time>2025-04-04T16:48:54.000Z</time>
      </trkpt>
      <trkpt lat="37.085193" lon="-79.603173">
        <ele>259.568621</ele>
        <time>2025-04-04T16:49:09.000Z</time>
      </trkpt>
      <trkpt lat="37.085446" lon="-79.602967">
        <ele>259.543053</ele>
        <time>2025-04-04T16:49:12.000Z</time>
      </trkpt>
      <trkpt lat="37.085665" lon="-79.602703">
        <ele>259.516812</ele>
        <time>2025-04-04T16:49:15.000Z</time>
      </trkpt>
      <trkpt lat="37.085837" lon="-79.602458">
        <ele>259.49406</ele>
        <time>2025-04-04T16:49:18.000Z</time>
      </trkpt>
      <trkpt lat="37.086007" lon="-79.602011">
        <ele>259.853023</ele>
        <time>2025-04-04T16:49:22.000Z</time>
      </trkpt>
      <trkpt lat="37.086752" lon="-79.599705">
        <ele>263.244354</ele>
        <time>2025-04-04T16:49:44.000Z</time>
      </trkpt>
      <trkpt lat="37.086905" lon="-79.599374">
        <ele>263.828858</ele>
        <time>2025-04-04T16:49:47.000Z</time>
      </trkpt>
      <trkpt lat="37.086967" lon="-79.599264">
        <ele>264.041913</ele>
        <time>2025-04-04T16:49:48.000Z</time>
      </trkpt>
      <trkpt lat="37.087296" lon="-79.598938">
        <ele>264.830712</ele>
        <time>2025-04-04T16:49:53.000Z</time>
      </trkpt>
      <trkpt lat="37.087763" lon="-79.598595">
        <ele>265.859765</ele>
        <time>2025-04-04T16:49:59.000Z</time>
      </trkpt>
      <trkpt lat="37.088262" lon="-79.598206">
        <ele>268.076717</ele>
        <time>2025-04-04T16:50:06.000Z</time>
      </trkpt>
      <trkpt lat="37.088599" lon="-79.597888">
        <ele>269.656091</ele>
        <time>2025-04-04T16:50:11.000Z</time>
      </trkpt>
      <trkpt lat="37.08913" lon="-79.597124">
        <ele>272.698026</ele>
        <time>2025-04-04T16:50:20.000Z</time>
      </trkpt>
      <trkpt lat="37.089568" lon="-79.596374">
        <ele>274.646651</ele>
        <time>2025-04-04T16:50:28.000Z</time>
      </trkpt>
      <trkpt lat="37.08975" lon="-79.59607">
        <ele>275.438191</ele>
        <time>2025-04-04T16:50:31.000Z</time>
      </trkpt>
      <trkpt lat="37.089814" lon="-79.595918">
        <ele>275.795584</ele>
        <time>2025-04-04T16:50:33.000Z</time>
      </trkpt>
      <trkpt lat="37.090174" lon="-79.595309">
        <ele>277.390055</ele>
        <time>2025-04-04T16:50:40.000Z</time>
      </trkpt>
      <trkpt lat="37.091097" lon="-79.593639">
        <ele>277.626455</ele>
        <time>2025-04-04T16:50:58.000Z</time>
      </trkpt>
      <trkpt lat="37.091406" lon="-79.593148">
        <ele>277.1258</ele>
        <time>2025-04-04T16:51:04.000Z</time>
      </trkpt>
      <trkpt lat="37.091517" lon="-79.593429">
        <ele>276.711367</ele>
        <time>2025-04-04T16:51:07.000Z</time>
      </trkpt>
      <trkpt lat="37.092185" lon="-79.59528">
        <ele>273.878344</ele>
        <time>2025-04-04T16:51:25.000Z</time>
      </trkpt>
      <trkpt lat="37.093359" lon="-79.598666">
        <ele>266.755763</ele>
        <time>2025-04-04T16:51:58.000Z</time>
      </trkpt>
      <trkpt lat="37.093997" lon="-79.600386">
        <ele>261.489643</ele>
        <time>2025-04-04T16:52:15.000Z</time>
      </trkpt>
      <trkpt lat="37.0941" lon="-79.60067">
        <ele>260.574384</ele>
        <time>2025-04-04T16:52:18.000Z</time>
      </trkpt>
      <trkpt lat="37.094383" lon="-79.601481">
        <ele>258.759756</ele>
        <time>2025-04-04T16:52:26.000Z</time>
      </trkpt>
      <trkpt lat="37.094622" lon="-79.601888">
        <ele>258.069666</ele>
        <time>2025-04-04T16:52:30.000Z</time>
      </trkpt>
      <trkpt lat="37.094927" lon="-79.602208">
        <ele>257.371639</ele>
        <time>2025-04-04T16:52:34.000Z</time>
      </trkpt>
      <trkpt lat="37.095873" lon="-79.602944">
        <ele>255.449084</ele>
        <time>2025-04-04T16:52:46.000Z</time>
      </trkpt>
      <trkpt lat="37.096059" lon="-79.603137">
        <ele>255.024774</ele>
        <time>2025-04-04T16:52:49.000Z</time>
      </trkpt>
      <trkpt lat="37.096957" lon="-79.604266">
        <ele>252.934707</ele>
        <time>2025-04-04T16:53:03.000Z</time>
      </trkpt>
      <trkpt lat="37.097075" lon="-79.604438">
        <ele>252.70501</ele>
        <time>2025-04-04T16:53:05.000Z</time>
      </trkpt>
      <trkpt lat="37.097221" lon="-79.604776">
        <ele>252.310564</ele>
        <time>2025-04-04T16:53:08.000Z</time>
      </trkpt>
      <trkpt lat="37.097306" lon="-79.605104">
        <ele>251.95667</ele>
        <time>2025-04-04T16:53:11.000Z</time>
      </trkpt>
      <trkpt lat="37.09734" lon="-79.605487">
        <ele>251.582122</ele>
        <time>2025-04-04T16:53:14.000Z</time>
      </trkpt>
      <trkpt lat="37.097217" lon="-79.60793">
        <ele>252.216625</ele>
        <time>2025-04-04T16:53:36.000Z</time>
      </trkpt>
      <trkpt lat="37.097109" lon="-79.608397">
        <ele>252.551765</ele>
        <time>2025-04-04T16:53:40.000Z</time>
      </trkpt>
      <trkpt lat="37.097024" lon="-79.608614">
        <ele>252.738723</ele>
        <time>2025-04-04T16:53:42.000Z</time>
      </trkpt>
      <trkpt lat="37.096869" lon="-79.608861">
        <ele>252.967705</ele>
        <time>2025-04-04T16:53:45.000Z</time>
      </trkpt>
      <trkpt lat="37.096711" lon="-79.609011">
        <ele>253.154283</ele>
        <time>2025-04-04T16:53:47.000Z</time>
      </trkpt>
      <trkpt lat="37.096679" lon="-79.609031">
        <ele>253.190906</ele>
        <time>2025-04-04T16:53:47.000Z</time>
      </trkpt>
      <trkpt lat="37.096413" lon="-79.609224">
        <ele>253.467887</ele>
        <time>2025-04-04T16:53:50.000Z</time>
      </trkpt>
      <trkpt lat="37.096138" lon="-79.609398">
        <ele>253.751986</ele>
        <time>2025-04-04T16:53:53.000Z</time>
      </trkpt>
      <trkpt lat="37.096004" lon="-79.609489">
        <ele>253.898898</ele>
        <time>2025-04-04T16:53:55.000Z</time>
      </trkpt>
      <trkpt lat="37.095786" lon="-79.609871">
        <ele>254.173207</ele>
        <time>2025-04-04T16:53:59.000Z</time>
      </trkpt>
      <trkpt lat="37.095732" lon="-79.60993">
        <ele>254.173206</ele>
        <time>2025-04-04T16:54:00.000Z</time>
      </trkpt>
      <trkpt lat="37.095668" lon="-79.609945">
        <ele>254.173221</ele>
        <time>2025-04-04T16:54:01.000Z</time>
      </trkpt>
      <trkpt lat="37.095623" lon="-79.610062">
        <ele>254.173217</ele>
        <time>2025-04-04T16:54:02.000Z</time>
      </trkpt>
      <trkpt lat="37.095584" lon="-79.610097">
        <ele>254.173207</ele>
        <time>2025-04-04T16:54:03.000Z</time>
      </trkpt>
      <trkpt lat="37.095088" lon="-79.610384">
        <ele>254.17322</ele>
        <time>2025-04-04T16:54:09.000Z</time>
      </trkpt>
      <trkpt lat="37.095068" lon="-79.610376">
        <ele>254.173214</ele>
        <time>2025-04-04T16:54:09.000Z</time>
      </trkpt>
      <trkpt lat="37.09504" lon="-79.610376">
        <ele>254.173218</ele>
        <time>2025-04-04T16:54:09.000Z</time>
      </trkpt>
      <trkpt lat="37.094963" lon="-79.610328">
        <ele>254.173208</ele>
        <time>2025-04-04T16:54:10.000Z</time>
      </trkpt>
      <trkpt lat="37.094919" lon="-79.610183">
        <ele>254.173216</ele>
        <time>2025-04-04T16:54:11.000Z</time>
      </trkpt>
      <trkpt lat="37.095437" lon="-79.609879">
        <ele>254.173214</ele>
        <time>2025-04-04T16:54:17.000Z</time>
      </trkpt>
      <trkpt lat="37.095496" lon="-79.609846">
        <ele>253.764441</ele>
        <time>2025-04-04T16:54:18.000Z</time>
      </trkpt>
      <trkpt lat="37.095521" lon="-79.609819">
        <ele>253.76444</ele>
        <time>2025-04-04T16:54:18.000Z</time>
      </trkpt>
      <trkpt lat="37.095606" lon="-79.609827">
        <ele>253.764439</ele>
        <time>2025-04-04T16:54:19.000Z</time>
      </trkpt>
      <trkpt lat="37.095616" lon="-79.609773">
        <ele>253.764443</ele>
        <time>2025-04-04T16:54:19.000Z</time>
      </trkpt>
      <trkpt lat="37.095684" lon="-79.609691">
        <ele>253.764453</ele>
        <time>2025-04-04T16:54:20.000Z</time>
      </trkpt>
      <trkpt lat="37.096004" lon="-79.609499">
        <ele>253.764443</ele>
        <time>2025-04-04T16:54:24.000Z</time>
      </trkpt>
      <trkpt lat="37.096152" lon="-79.609399">
        <ele>253.764442</ele>
        <time>2025-04-04T16:54:26.000Z</time>
      </trkpt>
      <trkpt lat="37.096423" lon="-79.609229">
        <ele>253.57701</ele>
        <time>2025-04-04T16:54:29.000Z</time>
      </trkpt>
      <trkpt lat="37.096676" lon="-79.609025">
        <ele>253.258504</ele>
        <time>2025-04-04T16:54:32.000Z</time>
      </trkpt>
      <trkpt lat="37.096703" lon="-79.609006">
        <ele>253.216394</ele>
        <time>2025-04-04T16:54:32.000Z</time>
      </trkpt>
      <trkpt lat="37.096865" lon="-79.608859">
        <ele>253.001836</ele>
        <time>2025-04-04T16:54:34.000Z</time>
      </trkpt>
      <trkpt lat="37.097026" lon="-79.608619">
        <ele>252.738542</ele>
        <time>2025-04-04T16:54:37.000Z</time>
      </trkpt>
      <trkpt lat="37.097111" lon="-79.608394">
        <ele>252.523538</ele>
        <time>2025-04-04T16:54:39.000Z</time>
      </trkpt>
      <trkpt lat="37.09722" lon="-79.607926">
        <ele>252.10942</ele>
        <time>2025-04-04T16:54:43.000Z</time>
      </trkpt>
      <trkpt lat="37.097351" lon="-79.605479">
        <ele>251.212167</ele>
        <time>2025-04-04T16:55:05.000Z</time>
      </trkpt>
      <trkpt lat="37.097316" lon="-79.605104">
        <ele>251.532126</ele>
        <time>2025-04-04T16:55:08.000Z</time>
      </trkpt>
      <trkpt lat="37.097226" lon="-79.604777">
        <ele>252.028112</ele>
        <time>2025-04-04T16:55:11.000Z</time>
      </trkpt>
      <trkpt lat="37.097077" lon="-79.60443">
        <ele>252.580933</ele>
        <time>2025-04-04T16:55:14.000Z</time>
      </trkpt>
      <trkpt lat="37.096957" lon="-79.604261">
        <ele>252.902865</ele>
        <time>2025-04-04T16:55:16.000Z</time>
      </trkpt>
      <trkpt lat="37.096074" lon="-79.603131">
        <ele>255.079625</ele>
        <time>2025-04-04T16:55:30.000Z</time>
      </trkpt>
      <trkpt lat="37.095871" lon="-79.602933">
        <ele>255.472652</ele>
        <time>2025-04-04T16:55:33.000Z</time>
      </trkpt>
      <trkpt lat="37.09494" lon="-79.60222">
        <ele>257.255538</ele>
        <time>2025-04-04T16:55:45.000Z</time>
      </trkpt>
      <trkpt lat="37.094631" lon="-79.601903">
        <ele>258.144146</ele>
        <time>2025-04-04T16:55:49.000Z</time>
      </trkpt>
      <trkpt lat="37.09439" lon="-79.601486">
        <ele>259.025724</ele>
        <time>2025-04-04T16:55:54.000Z</time>
      </trkpt>
      <trkpt lat="37.094095" lon="-79.600678">
        <ele>260.614495</ele>
        <time>2025-04-04T16:56:02.000Z</time>
      </trkpt>
      <trkpt lat="37.093997" lon="-79.600379">
        <ele>261.168873</ele>
        <time>2025-04-04T16:56:05.000Z</time>
      </trkpt>
      <trkpt lat="37.093368" lon="-79.59867">
        <ele>266.773465</ele>
        <time>2025-04-04T16:56:22.000Z</time>
      </trkpt>
      <trkpt lat="37.092188" lon="-79.595266">
        <ele>273.86512</ele>
        <time>2025-04-04T16:56:55.000Z</time>
      </trkpt>
      <trkpt lat="37.091518" lon="-79.593433">
        <ele>276.617768</ele>
        <time>2025-04-04T16:57:13.000Z</time>
      </trkpt>
      <trkpt lat="37.091422" lon="-79.593145">
        <ele>276.88913</ele>
        <time>2025-04-04T16:57:16.000Z</time>
      </trkpt>
      <trkpt lat="37.091095" lon="-79.593642">
        <ele>277.43022</ele>
        <time>2025-04-04T16:57:22.000Z</time>
      </trkpt>
      <trkpt lat="37.090175" lon="-79.595297">
        <ele>276.958582</ele>
        <time>2025-04-04T16:57:40.000Z</time>
      </trkpt>
      <trkpt lat="37.089829" lon="-79.595934">
        <ele>276.432607</ele>
        <time>2025-04-04T16:57:47.000Z</time>
      </trkpt>
      <trkpt lat="37.089737" lon="-79.596063">
        <ele>275.954345</ele>
        <time>2025-04-04T16:57:49.000Z</time>
      </trkpt>
      <trkpt lat="37.089566" lon="-79.596381">
        <ele>274.895168</ele>
        <time>2025-04-04T16:57:52.000Z</time>
      </trkpt>
      <trkpt lat="37.089123" lon="-79.597132">
        <ele>272.287663</ele>
        <time>2025-04-04T16:58:00.000Z</time>
      </trkpt>
      <trkpt lat="37.088587" lon="-79.597887">
        <ele>269.55182</ele>
        <time>2025-04-04T16:58:09.000Z</time>
      </trkpt>
      <trkpt lat="37.088279" lon="-79.598218">
        <ele>268.241927</ele>
        <time>2025-04-04T16:58:14.000Z</time>
      </trkpt>
      <trkpt lat="37.08777" lon="-79.598611">
        <ele>266.390519</ele>
        <time>2025-04-04T16:58:21.000Z</time>
      </trkpt>
      <trkpt lat="37.087294" lon="-79.598925">
        <ele>264.686861</ele>
        <time>2025-04-04T16:58:27.000Z</time>
      </trkpt>
      <trkpt lat="37.086966" lon="-79.599251">
        <ele>263.894036</ele>
        <time>2025-04-04T16:58:32.000Z</time>
      </trkpt>
      <trkpt lat="37.08691" lon="-79.599366">
        <ele>263.691877</ele>
        <time>2025-04-04T16:58:33.000Z</time>
      </trkpt>
      <trkpt lat="37.086759" lon="-79.599721">
        <ele>263.137279</ele>
        <time>2025-04-04T16:58:37.000Z</time>
      </trkpt>
      <trkpt lat="37.08601" lon="-79.602014">
        <ele>260.16584</ele>
        <time>2025-04-04T16:58:59.000Z</time>
      </trkpt>
      <trkpt lat="37.085836" lon="-79.602458">
        <ele>259.700799</ele>
        <time>2025-04-04T16:59:03.000Z</time>
      </trkpt>
      <trkpt lat="37.085669" lon="-79.60272">
        <ele>259.385283</ele>
        <time>2025-04-04T16:59:06.000Z</time>
      </trkpt>
      <trkpt lat="37.085433" lon="-79.602974">
        <ele>259.251173</ele>
        <time>2025-04-04T16:59:09.000Z</time>
      </trkpt>
      <trkpt lat="37.085182" lon="-79.603171">
        <ele>259.344381</ele>
        <time>2025-04-04T16:59:12.000Z</time>
      </trkpt>
      <trkpt lat="37.083921" lon="-79.603634">
        <ele>259.759095</ele>
        <time>2025-04-04T16:59:27.000Z</time>
      </trkpt>
      <trkpt lat="37.083618" lon="-79.603835">
        <ele>259.56476</ele>
        <time>2025-04-04T16:59:31.000Z</time>
      </trkpt>
      <trkpt lat="37.083364" lon="-79.604117">
        <ele>259.357188</ele>
        <time>2025-04-04T16:59:35.000Z</time>
      </trkpt>
      <trkpt lat="37.083202" lon="-79.604421">
        <ele>259.164792</ele>
        <time>2025-04-04T16:59:38.000Z</time>
      </trkpt>
      <trkpt lat="37.083114" lon="-79.604709">
        <ele>259.017362</ele>
        <time>2025-04-04T16:59:41.000Z</time>
      </trkpt>
      <trkpt lat="37.082968" lon="-79.606605">
        <ele>258.72905</ele>
        <time>2025-04-04T16:59:58.000Z</time>
      </trkpt>
      <trkpt lat="37.082887" lon="-79.606956">
        <ele>258.758285</ele>
        <time>2025-04-04T17:00:01.000Z</time>
      </trkpt>
      <trkpt lat="37.082814" lon="-79.607144">
        <ele>258.775848</ele>
        <time>2025-04-04T17:00:03.000Z</time>
      </trkpt>
      <trkpt lat="37.082607" lon="-79.607469">
        <ele>258.810195</ele>
        <time>2025-04-04T17:00:07.000Z</time>
      </trkpt>
      <trkpt lat="37.082453" lon="-79.607637">
        <ele>258.519657</ele>
        <time>2025-04-04T17:00:09.000Z</time>
      </trkpt>
      <trkpt lat="37.082148" lon="-79.607803">
        <ele>257.683892</ele>
        <time>2025-04-04T17:00:13.000Z</time>
      </trkpt>
      <trkpt lat="37.081573" lon="-79.608034">
        <ele>256.178355</ele>
        <time>2025-04-04T17:00:20.000Z</time>
      </trkpt>
      <trkpt lat="37.081307" lon="-79.608201">
        <ele>255.390757</ele>
        <time>2025-04-04T17:00:23.000Z</time>
      </trkpt>
      <trkpt lat="37.080936" lon="-79.608513">
        <ele>254.256329</ele>
        <time>2025-04-04T17:00:28.000Z</time>
      </trkpt>
      <trkpt lat="37.080352" lon="-79.609084">
        <ele>251.354345</ele>
        <time>2025-04-04T17:00:36.000Z</time>
      </trkpt>
      <trkpt lat="37.080153" lon="-79.609336">
        <ele>250.15984</ele>
        <time>2025-04-04T17:00:39.000Z</time>
      </trkpt>
      <trkpt lat="37.080092" lon="-79.609435">
        <ele>249.792387</ele>
        <time>2025-04-04T17:00:40.000Z</time>
      </trkpt>
      <trkpt lat="37.080026" lon="-79.609654">
        <ele>249.068378</ele>
        <time>2025-04-04T17:00:42.000Z</time>
      </trkpt>
      <trkpt lat="37.080015" lon="-79.609844">
        <ele>248.487176</ele>
        <time>2025-04-04T17:00:44.000Z</time>
      </trkpt>
      <trkpt lat="37.080055" lon="-79.61027">
        <ele>247.082733</ele>
        <time>2025-04-04T17:00:48.000Z</time>
      </trkpt>
      <trkpt lat="37.080018" lon="-79.610442">
        <ele>247.025912</ele>
        <time>2025-04-04T17:00:50.000Z</time>
      </trkpt>
      <trkpt lat="37.07999" lon="-79.610518">
        <ele>246.999478</ele>
        <time>2025-04-04T17:00:51.000Z</time>
      </trkpt>
      <trkpt lat="37.079727" lon="-79.610762">
        <ele>246.868136</ele>
        <time>2025-04-04T17:00:55.000Z</time>
      </trkpt>
      <trkpt lat="37.079637" lon="-79.610894">
        <ele>246.814841</ele>
        <time>2025-04-04T17:00:57.000Z</time>
      </trkpt>
      <trkpt lat="37.079531" lon="-79.611203">
        <ele>246.710813</ele>
        <time>2025-04-04T17:01:00.000Z</time>
      </trkpt>
      <trkpt lat="37.079459" lon="-79.611528">
        <ele>246.59926</ele>
        <time>2025-04-04T17:01:03.000Z</time>
      </trkpt>
      <trkpt lat="37.079355" lon="-79.611688">
        <ele>246.536543</ele>
        <time>2025-04-04T17:01:05.000Z</time>
      </trkpt>
      <trkpt lat="37.079171" lon="-79.611846">
        <ele>246.445664</ele>
        <time>2025-04-04T17:01:07.000Z</time>
      </trkpt>
      <trkpt lat="37.078775" lon="-79.611983">
        <ele>246.664007</ele>
        <time>2025-04-04T17:01:12.000Z</time>
      </trkpt>
      <trkpt lat="37.078666" lon="-79.612061">
        <ele>246.858287</ele>
        <time>2025-04-04T17:01:13.000Z</time>
      </trkpt>
      <trkpt lat="37.078586" lon="-79.612143">
        <ele>247.01347</ele>
        <time>2025-04-04T17:01:14.000Z</time>
      </trkpt>
      <trkpt lat="37.07853" lon="-79.612244">
        <ele>247.16758</ele>
        <time>2025-04-04T17:01:15.000Z</time>
      </trkpt>
      <trkpt lat="37.078478" lon="-79.61243">
        <ele>247.396604</ele>
        <time>2025-04-04T17:01:17.000Z</time>
      </trkpt>
      <trkpt lat="37.078471" lon="-79.61263">
        <ele>247.626737</ele>
        <time>2025-04-04T17:01:19.000Z</time>
      </trkpt>
      <trkpt lat="37.078582" lon="-79.613027">
        <ele>248.130414</ele>
        <time>2025-04-04T17:01:23.000Z</time>
      </trkpt>
      <trkpt lat="37.078686" lon="-79.613356">
        <ele>248.559582</ele>
        <time>2025-04-04T17:01:26.000Z</time>
      </trkpt>
      <trkpt lat="37.078822" lon="-79.613717">
        <ele>249.018188</ele>
        <time>2025-04-04T17:01:30.000Z</time>
      </trkpt>
      <trkpt lat="37.079066" lon="-79.61411">
        <ele>249.206657</ele>
        <time>2025-04-04T17:01:34.000Z</time>
      </trkpt>
      <trkpt lat="37.079211" lon="-79.614454">
        <ele>249.329317</ele>
        <time>2025-04-04T17:01:37.000Z</time>
      </trkpt>
      <trkpt lat="37.079282" lon="-79.614827">
        <ele>249.45023</ele>
        <time>2025-04-04T17:01:40.000Z</time>
      </trkpt>
      <trkpt lat="37.079287" lon="-79.615077">
        <ele>249.529676</ele>
        <time>2025-04-04T17:01:42.000Z</time>
      </trkpt>
      <trkpt lat="37.079286" lon="-79.615245">
        <ele>249.58337</ele>
        <time>2025-04-04T17:01:43.000Z</time>
      </trkpt>
      <trkpt lat="37.079252" lon="-79.615394">
        <ele>249.636345</ele>
        <time>2025-04-04T17:01:44.000Z</time>
      </trkpt>
      <trkpt lat="37.079226" lon="-79.615456">
        <ele>249.656086</ele>
        <time>2025-04-04T17:01:45.000Z</time>
      </trkpt>
      <trkpt lat="37.079245" lon="-79.615392">
        <ele>249.675819</ele>
        <time>2025-04-04T17:01:46.000Z</time>
      </trkpt>
      <trkpt lat="37.079294" lon="-79.615249">
        <ele>249.72879</ele>
        <time>2025-04-04T17:01:47.000Z</time>
      </trkpt>
      <trkpt lat="37.079285" lon="-79.615076">
        <ele>249.752634</ele>
        <time>2025-04-04T17:01:49.000Z</time>
      </trkpt>
      <trkpt lat="37.079272" lon="-79.614832">
        <ele>249.5832</ele>
        <time>2025-04-04T17:01:51.000Z</time>
      </trkpt>
      <trkpt lat="37.079217" lon="-79.614462">
        <ele>249.3253</ele>
        <time>2025-04-04T17:01:54.000Z</time>
      </trkpt>
      <trkpt lat="37.079062" lon="-79.614122">
        <ele>249.063661</ele>
        <time>2025-04-04T17:01:57.000Z</time>
      </trkpt>
      <trkpt lat="37.07883" lon="-79.613712">
        <ele>248.715109</ele>
        <time>2025-04-04T17:02:01.000Z</time>
      </trkpt>
      <trkpt lat="37.078686" lon="-79.61336">
        <ele>248.452912</ele>
        <time>2025-04-04T17:02:05.000Z</time>
      </trkpt>
      <trkpt lat="37.078573" lon="-79.613034">
        <ele>248.195215</ele>
        <time>2025-04-04T17:02:08.000Z</time>
      </trkpt>
      <trkpt lat="37.078478" lon="-79.61262">
        <ele>247.78279</ele>
        <time>2025-04-04T17:02:12.000Z</time>
      </trkpt>
      <trkpt lat="37.078485" lon="-79.612434">
        <ele>247.594349</ele>
        <time>2025-04-04T17:02:14.000Z</time>
      </trkpt>
      <trkpt lat="37.078524" lon="-79.612261">
        <ele>247.406799</ele>
        <time>2025-04-04T17:02:16.000Z</time>
      </trkpt>
      <trkpt lat="37.078592" lon="-79.612148">
        <ele>247.280613</ele>
        <time>2025-04-04T17:02:17.000Z</time>
      </trkpt>
      <trkpt lat="37.078663" lon="-79.612059">
        <ele>247.153557</ele>
        <time>2025-04-04T17:02:18.000Z</time>
      </trkpt>
      <trkpt lat="37.078783" lon="-79.611984">
        <ele>246.994473</ele>
        <time>2025-04-04T17:02:19.000Z</time>
      </trkpt>
      <trkpt lat="37.079163" lon="-79.611854">
        <ele>246.498149</ele>
        <time>2025-04-04T17:02:23.000Z</time>
      </trkpt>
      <trkpt lat="37.079353" lon="-79.611699">
        <ele>246.218032</ele>
        <time>2025-04-04T17:02:26.000Z</time>
      </trkpt>
      <trkpt lat="37.079447" lon="-79.611539">
        <ele>246.046847</ele>
        <time>2025-04-04T17:02:28.000Z</time>
      </trkpt>
      <trkpt lat="37.079537" lon="-79.611192">
        <ele>246.448896</ele>
        <time>2025-04-04T17:02:31.000Z</time>
      </trkpt>
      <trkpt lat="37.079637" lon="-79.610891">
        <ele>246.823846</ele>
        <time>2025-04-04T17:02:34.000Z</time>
      </trkpt>
      <trkpt lat="37.079736" lon="-79.610768">
        <ele>247.015916</ele>
        <time>2025-04-04T17:02:36.000Z</time>
      </trkpt>
      <trkpt lat="37.079991" lon="-79.610513">
        <ele>247.489326</ele>
        <time>2025-04-04T17:02:40.000Z</time>
      </trkpt>
      <trkpt lat="37.080023" lon="-79.610434">
        <ele>247.584634</ele>
        <time>2025-04-04T17:02:41.000Z</time>
      </trkpt>
      <trkpt lat="37.080051" lon="-79.610274">
        <ele>247.775633</ele>
        <time>2025-04-04T17:02:42.000Z</time>
      </trkpt>
      <trkpt lat="37.080019" lon="-79.609833">
        <ele>248.279002</ele>
        <time>2025-04-04T17:02:46.000Z</time>
      </trkpt>
      <trkpt lat="37.080038" lon="-79.609652">
        <ele>248.487316</ele>
        <time>2025-04-04T17:02:48.000Z</time>
      </trkpt>
      <trkpt lat="37.080093" lon="-79.609446">
        <ele>249.055079</ele>
        <time>2025-04-04T17:02:50.000Z</time>
      </trkpt>
      <trkpt lat="37.080154" lon="-79.609347">
        <ele>249.481978</ele>
        <time>2025-04-04T17:02:51.000Z</time>
      </trkpt>
      <trkpt lat="37.08036" lon="-79.609076">
        <ele>250.869754</ele>
        <time>2025-04-04T17:02:54.000Z</time>
      </trkpt>
      <trkpt lat="37.080937" lon="-79.608519">
        <ele>254.241277</ele>
        <time>2025-04-04T17:03:02.000Z</time>
      </trkpt>
      <trkpt lat="37.081305" lon="-79.608198">
        <ele>256.314645</ele>
        <time>2025-04-04T17:03:07.000Z</time>
      </trkpt>
      <trkpt lat="37.081575" lon="-79.60803">
        <ele>257.10458</ele>
        <time>2025-04-04T17:03:10.000Z</time>
      </trkpt>
      <trkpt lat="37.082137" lon="-79.607797">
        <ele>257.621489</ele>
        <time>2025-04-04T17:03:17.000Z</time>
      </trkpt>
      <trkpt lat="37.082439" lon="-79.607636">
        <ele>257.908442</ele>
        <time>2025-04-04T17:03:21.000Z</time>
      </trkpt>
      <trkpt lat="37.082617" lon="-79.607469">
        <ele>258.092477</ele>
        <time>2025-04-04T17:03:23.000Z</time>
      </trkpt>
      <trkpt lat="37.082809" lon="-79.607147">
        <ele>258.381309</ele>
        <time>2025-04-04T17:03:27.000Z</time>
      </trkpt>
      <trkpt lat="37.082889" lon="-79.606955">
        <ele>258.523113</ele>
        <time>2025-04-04T17:03:29.000Z</time>
      </trkpt>
      <trkpt lat="37.082961" lon="-79.60662">
        <ele>258.620535</ele>
        <time>2025-04-04T17:03:32.000Z</time>
      </trkpt>
      <trkpt lat="37.083105" lon="-79.604708">
        <ele>259.146656</ele>
        <time>2025-04-04T17:03:49.000Z</time>
      </trkpt>
      <trkpt lat="37.083196" lon="-79.604424">
        <ele>259.211069</ele>
        <time>2025-04-04T17:03:52.000Z</time>
      </trkpt>
      <trkpt lat="37.083379" lon="-79.60412">
        <ele>259.295106</ele>
        <time>2025-04-04T17:03:55.000Z</time>
      </trkpt>
      <trkpt lat="37.08361" lon="-79.603822">
        <ele>259.385784</ele>
        <time>2025-04-04T17:03:59.000Z</time>
      </trkpt>
      <trkpt lat="37.083915" lon="-79.603641">
        <ele>259.479897</ele>
        <time>2025-04-04T17:04:03.000Z</time>
      </trkpt>
      <trkpt lat="37.085192" lon="-79.603166">
        <ele>259.56862</ele>
        <time>2025-04-04T17:04:18.000Z</time>
      </trkpt>
      <trkpt lat="37.085434" lon="-79.602976">
        <ele>259.543058</ele>
        <time>2025-04-04T17:04:21.000Z</time>
      </trkpt>
      <trkpt lat="37.085673" lon="-79.602704">
        <ele>259.516812</ele>
        <time>2025-04-04T17:04:25.000Z</time>
      </trkpt>
      <trkpt lat="37.085821" lon="-79.602441">
        <ele>259.494064</ele>
        <time>2025-04-04T17:04:28.000Z</time>
      </trkpt>
      <trkpt lat="37.08602" lon="-79.602024">
        <ele>259.853031</ele>
        <time>2025-04-04T17:04:32.000Z</time>
      </trkpt>
      <trkpt lat="37.086766" lon="-79.599704">
        <ele>263.244343</ele>
        <time>2025-04-04T17:04:54.000Z</time>
      </trkpt>
      <trkpt lat="37.086901" lon="-79.599373">
        <ele>263.828859</ele>
        <time>2025-04-04T17:04:57.000Z</time>
      </trkpt>
      <trkpt lat="37.086973" lon="-79.599257">
        <ele>264.041915</ele>
        <time>2025-04-04T17:04:58.000Z</time>
      </trkpt>
      <trkpt lat="37.087292" lon="-79.598931">
        <ele>264.83071</ele>
        <time>2025-04-04T17:05:03.000Z</time>
      </trkpt>
      <trkpt lat="37.087761" lon="-79.598597">
        <ele>265.859761</ele>
        <time>2025-04-04T17:05:09.000Z</time>
      </trkpt>
      <trkpt lat="37.088267" lon="-79.598221">
        <ele>268.076719</ele>
        <time>2025-04-04T17:05:16.000Z</time>
      </trkpt>
      <trkpt lat="37.088587" lon="-79.597895">
        <ele>269.656091</ele>
        <time>2025-04-04T17:05:21.000Z</time>
      </trkpt>
      <trkpt lat="37.089133" lon="-79.597123">
        <ele>272.698029</ele>
        <time>2025-04-04T17:05:30.000Z</time>
      </trkpt>
      <trkpt lat="37.089564" lon="-79.596375">
        <ele>274.646642</ele>
        <time>2025-04-04T17:05:38.000Z</time>
      </trkpt>
      <trkpt lat="37.089735" lon="-79.59606">
        <ele>275.43819</ele>
        <time>2025-04-04T17:05:41.000Z</time>
      </trkpt>
      <trkpt lat="37.089829" lon="-79.595918">
        <ele>275.795596</ele>
        <time>2025-04-04T17:05:43.000Z</time>
      </trkpt>
      <trkpt lat="37.09017" lon="-79.595299">
        <ele>277.39005</ele>
        <time>2025-04-04T17:05:50.000Z</time>
      </trkpt>
      <trkpt lat="37.091108" lon="-79.593646">
        <ele>277.626453</ele>
        <time>2025-04-04T17:06:08.000Z</time>
      </trkpt>
      <trkpt lat="37.091414" lon="-79.593145">
        <ele>277.125804</ele>
        <time>2025-04-04T17:06:14.000Z</time>
      </trkpt>
      <trkpt lat="37.091517" lon="-79.593439">
        <ele>276.711363</ele>
        <time>2025-04-04T17:06:17.000Z</time>
      </trkpt>
      <trkpt lat="37.092193" lon="-79.595274">
        <ele>273.87834</ele>
        <time>2025-04-04T17:06:35.000Z</time>
      </trkpt>
      <trkpt lat="37.093366" lon="-79.598659">
        <ele>266.755768</ele>
        <time>2025-04-04T17:07:08.000Z</time>
      </trkpt>
      <trkpt lat="37.093993" lon="-79.600378">
        <ele>261.48964</ele>
        <time>2025-04-04T17:07:25.000Z</time>
      </trkpt>
      <trkpt lat="37.094088" lon="-79.600678">
        <ele>260.574384</ele>
        <time>2025-04-04T17:07:28.000Z</time>
      </trkpt>
      <trkpt lat="37.094392" lon="-79.601485">
        <ele>258.759761</ele>
        <time>2025-04-04T17:07:36.000Z</time>
      </trkpt>
      <trkpt lat="37.094617" lon="-79.60189">
        <ele>258.069671</ele>
        <time>2025-04-04T17:07:40.000Z</time>
      </trkpt>
      <trkpt lat="37.094932" lon="-79.602208">
        <ele>257.371633</ele>
        <time>2025-04-04T17:07:44.000Z</time>
      </trkpt>
      <trkpt lat="37.09588" lon="-79.602947">
        <ele>255.449082</ele>
        <time>2025-04-04T17:07:56.000Z</time>
      </trkpt>
      <trkpt lat="37.096063" lon="-79.603139">
        <ele>255.024777</ele>
        <time>2025-04-04T17:07:59.000Z</time>
      </trkpt>
      <trkpt lat="37.09696" lon="-79.604258">
        <ele>252.934714</ele>
        <time>2025-04-04T17:08:13.000Z</time>
      </trkpt>
      <trkpt lat="37.097078" lon="-79.604443">
        <ele>252.704996</ele>
        <time>2025-04-04T17:08:15.000Z</time>
      </trkpt>
      <trkpt lat="37.097229" lon="-79.604774">
        <ele>252.310556</ele>
        <time>2025-04-04T17:08:18.000Z</time>
      </trkpt>
      <trkpt lat="37.097305" lon="-79.605104">
        <ele>251.956659</ele>
        <time>2025-04-04T17:08:21.000Z</time>
      </trkpt>
      <trkpt lat="37.097345" lon="-79.605481">
        <ele>251.582123</ele>
        <time>2025-04-04T17:08:24.000Z</time>
      </trkpt>
      <trkpt lat="37.097218" lon="-79.607931">
        <ele>252.216623</ele>
        <time>2025-04-04T17:08:46.000Z</time>
      </trkpt>
      <trkpt lat="37.09711" lon="-79.608392">
        <ele>252.551752</ele>
        <time>2025-04-04T17:08:50.000Z</time>
      </trkpt>
      <trkpt lat="37.097029" lon="-79.608627">
        <ele>252.738722</ele>
        <time>2025-04-04T17:08:52.000Z</time>
      </trkpt>
      <trkpt lat="37.096859" lon="-79.608851">
        <ele>252.967705</ele>
        <time>2025-04-04T17:08:55.000Z</time>
      </trkpt>
      <trkpt lat="37.096711" lon="-79.609015">
        <ele>253.154278</ele>
        <time>2025-04-04T17:08:57.000Z</time>
      </trkpt>
      <trkpt lat="37.096666" lon="-79.609028">
        <ele>253.190916</ele>
        <time>2025-04-04T17:08:58.000Z</time>
      </trkpt>
      <trkpt lat="37.096406" lon="-79.609214">
        <ele>253.467882</ele>
        <time>2025-04-04T17:09:01.000Z</time>
      </trkpt>
      <trkpt lat="37.096149" lon="-79.609412">
        <ele>253.751984</ele>
        <time>2025-04-04T17:09:04.000Z</time>
      </trkpt>
      <trkpt lat="37.095996" lon="-79.609497">
        <ele>253.898886</ele>
        <time>2025-04-04T17:09:06.000Z</time>
      </trkpt>
      <trkpt lat="37.095784" lon="-79.609864">
        <ele>254.173209</ele>
        <time>2025-04-04T17:09:10.000Z</time>
      </trkpt>
      <trkpt lat="37.095731" lon="-79.609927">
        <ele>254.173216</ele>
        <time>2025-04-04T17:09:11.000Z</time>
      </trkpt>
      <trkpt lat="37.095671" lon="-79.609934">
        <ele>254.173209</ele>
        <time>2025-04-04T17:09:12.000Z</time>
      </trkpt>
      <trkpt lat="37.095627" lon="-79.610064">
        <ele>254.173215</ele>
        <time>2025-04-04T17:09:13.000Z</time>
      </trkpt>
      <trkpt lat="37.095581" lon="-79.610105">
        <ele>254.173219</ele>
        <time>2025-04-04T17:09:14.000Z</time>
      </trkpt>
      <trkpt lat="37.095074" lon="-79.61037">
        <ele>254.173213</ele>
        <time>2025-04-04T17:09:20.000Z</time>
      </trkpt>
      <trkpt lat="37.095077" lon="-79.610386">
        <ele>254.173212</ele>
        <time>2025-04-04T17:09:20.000Z</time>
      </trkpt>
      <trkpt lat="37.095044" lon="-79.610379">
        <ele>254.173211</ele>
        <time>2025-04-04T17:09:20.000Z</time>
      </trkpt>
      <trkpt lat="37.094975" lon="-79.610333">
        <ele>254.17321</ele>
        <time>2025-04-04T17:09:21.000Z</time>
      </trkpt>
      <trkpt lat="37.094913" lon="-79.610182">
        <ele>254.173209</ele>
        <time>2025-04-04T17:09:23.000Z</time>
      </trkpt>
      <trkpt lat="37.095437" lon="-79.609878">
        <ele>254.173204</ele>
        <time>2025-04-04T17:09:29.000Z</time>
      </trkpt>
      <trkpt lat="37.095494" lon="-79.609839">
        <ele>253.764441</ele>
        <time>2025-04-04T17:09:30.000Z</time>
      </trkpt>
      <trkpt lat="37.09553" lon="-79.60983">
        <ele>253.764442</ele>
        <time>2025-04-04T17:09:30.000Z</time>
      </trkpt>
      <trkpt lat="37.095601" lon="-79.609824">
        <ele>253.764445</ele>
        <time>2025-04-04T17:09:31.000Z</time>
      </trkpt>
      <trkpt lat="37.095612" lon="-79.60977">
        <ele>253.764439</ele>
        <time>2025-04-04T17:09:31.000Z</time>
      </trkpt>
      <trkpt lat="37.095677" lon="-79.609708">
        <ele>253.764447</ele>
        <time>2025-04-04T17:09:32.000Z</time>
      </trkpt>
      <trkpt lat="37.096009" lon="-79.609499">
        <ele>253.764441</ele>
        <time>2025-04-04T17:09:36.000Z</time>
      </trkpt>
      <trkpt lat="37.096154" lon="-79.609408">
        <ele>253.764456</ele>
        <time>2025-04-04T17:09:38.000Z</time>
      </trkpt>
      <trkpt lat="37.096406" lon="-79.609217">
        <ele>253.577012</ele>
        <time>2025-04-04T17:09:41.000Z</time>
      </trkpt>
      <trkpt lat="37.096677" lon="-79.609033">
        <ele>253.258522</ele>
        <time>2025-04-04T17:09:44.000Z</time>
      </trkpt>
      <trkpt lat="37.096706" lon="-79.609007">
        <ele>253.216395</ele>
        <time>2025-04-04T17:09:44.000Z</time>
      </trkpt>
      <trkpt lat="37.096867" lon="-79.608848">
        <ele>253.001834</ele>
        <time>2025-04-04T17:09:46.000Z</time>
      </trkpt>
      <trkpt lat="37.097028" lon="-79.608628">
        <ele>252.738535</ele>
        <time>2025-04-04T17:09:49.000Z</time>
      </trkpt>
      <trkpt lat="37.097107" lon="-79.608401">
        <ele>252.52354</ele>
        <time>2025-04-04T17:09:51.000Z</time>
      </trkpt>
      <trkpt lat="37.097218" lon="-79.607918">
        <ele>252.109426</ele>
        <time>2025-04-04T17:09:55.000Z</time>
      </trkpt>
      <trkpt lat="37.097338" lon="-79.605478">
        <ele>251.212168</ele>
        <time>2025-04-04T17:10:17.000Z</time>
      </trkpt>
      <trkpt lat="37.097306" lon="-79.605117">
        <ele>251.532115</ele>
        <time>2025-04-04T17:10:20.000Z</time>
      </trkpt>
      <trkpt lat="37.097226" lon="-79.604775">
        <ele>252.02812</ele>
        <time>2025-04-04T17:10:23.000Z</time>
      </trkpt>
      <trkpt lat="37.09707" lon="-79.604429">
        <ele>252.58093</ele>
        <time>2025-04-04T17:10:27.000Z</time>
      </trkpt>
      <trkpt lat="37.096961" lon="-79.604263">
        <ele>252.902863</ele>
        <time>2025-04-04T17:10:29.000Z</time>
      </trkpt>
      <trkpt lat="37.096063" lon="-79.603132">
        <ele>255.079637</ele>
        <time>2025-04-04T17:10:43.000Z</time>
      </trkpt>
      <trkpt lat="37.095877" lon="-79.602933">
        <ele>255.472658</ele>
        <time>2025-04-04T17:10:46.000Z</time>
      </trkpt>
      <trkpt lat="37.09494" lon="-79.602203">
        <ele>257.25554</ele>
        <time>2025-04-04T17:10:58.000Z</time>
      </trkpt>
      <trkpt lat="37.094613" lon="-79.601893">
        <ele>258.144156</ele>
        <time>2025-04-04T17:11:03.000Z</time>
      </trkpt>
      <trkpt lat="37.094399" lon="-79.601485">
        <ele>259.02573</ele>
        <time>2025-04-04T17:11:07.000Z</time>
      </trkpt>
      <trkpt lat="37.094085" lon="-79.600679">
        <ele>260.614508</ele>
        <time>2025-04-04T17:11:15.000Z</time>
      </trkpt>
      <trkpt lat="37.093989" lon="-79.600392">
        <ele>261.168879</ele>
        <time>2025-04-04T17:11:18.000Z</time>
      </trkpt>
      <trkpt lat="37.093356" lon="-79.598668">
        <ele>266.773455</ele>
        <time>2025-04-04T17:11:35.000Z</time>
      </trkpt>
      <trkpt lat="37.092194" lon="-79.595266">
        <ele>273.865114</ele>
        <time>2025-04-04T17:12:08.000Z</time>
      </trkpt>
      <trkpt lat="37.091511" lon="-79.593429">
        <ele>276.617763</ele>
        <time>2025-04-04T17:12:26.000Z</time>
      </trkpt>
      <trkpt lat="37.091415" lon="-79.593136">
        <ele>276.889135</ele>
        <time>2025-04-04T17:12:29.000Z</time>
      </trkpt>
      <trkpt lat="37.091096" lon="-79.593641">
        <ele>277.430211</ele>
        <time>2025-04-04T17:12:35.000Z</time>
      </trkpt>
      <trkpt lat="37.090183" lon="-79.595292">
        <ele>276.958587</ele>
        <time>2025-04-04T17:12:53.000Z</time>
      </trkpt>
      <trkpt lat="37.089819" lon="-79.595926">
        <ele>276.432606</ele>
        <time>2025-04-04T17:13:00.000Z</time>
      </trkpt>
      <trkpt lat="37.089749" lon="-79.596069">
        <ele>275.954351</ele>
        <time>2025-04-04T17:13:01.000Z</time>
      </trkpt>
      <trkpt lat="37.089569" lon="-79.596376">
        <ele>274.895167</ele>
        <time>2025-04-04T17:13:04.000Z</time>
      </trkpt>
      <trkpt lat="37.089137" lon="-79.597135">
        <ele>272.287664</ele>
        <time>2025-04-04T17:13:12.000Z</time>
      </trkpt>
      <trkpt lat="37.088588" lon="-79.597887">
        <ele>269.551808</ele>
        <time>2025-04-04T17:13:21.000Z</time>
      </trkpt>
      <trkpt lat="37.088263" lon="-79.598218">
        <ele>268.241918</ele>
        <time>2025-04-04T17:13:26.000Z</time>
      </trkpt>
      <trkpt lat="37.087767" lon="-79.598594">
        <ele>266.39051</ele>
        <time>2025-04-04T17:13:32.000Z</time>
      </trkpt>
      <trkpt lat="37.087286" lon="-79.598925">
        <ele>264.686857</ele>
        <time>2025-04-04T17:13:38.000Z</time>
      </trkpt>
      <trkpt lat="37.086967" lon="-79.599258">
        <ele>263.894037</ele>
        <time>2025-04-04T17:13:43.000Z</time>
      </trkpt>
      <trkpt lat="37.086903" lon="-79.599373">
        <ele>263.691887</ele>
        <time>2025-04-04T17:13:44.000Z</time>
      </trkpt>
      <trkpt lat="37.086765" lon="-79.599705">
        <ele>263.137284</ele>
        <time>2025-04-04T17:13:47.000Z</time>
      </trkpt>
      <trkpt lat="37.086006" lon="-79.602018">
        <ele>260.165854</ele>
        <time>2025-04-04T17:14:09.000Z</time>
      </trkpt>
      <trkpt lat="37.085827" lon="-79.602448">
        <ele>259.700805</ele>
        <time>2025-04-04T17:14:13.000Z</time>
      </trkpt>
      <trkpt lat="37.085664" lon="-79.602714">
        <ele>259.385281</ele>
        <time>2025-04-04T17:14:16.000Z</time>
      </trkpt>
      <trkpt lat="37.085445" lon="-79.602979">
        <ele>259.251176</ele>
        <time>2025-04-04T17:14:19.000Z</time>
      </trkpt>
      <trkpt lat="37.085194" lon="-79.603164">
        <ele>259.344378</ele>
        <time>2025-04-04T17:14:22.000Z</time>
      </trkpt>
      <trkpt lat="37.08392" lon="-79.603635">
        <ele>259.759103</ele>
        <time>2025-04-04T17:14:37.000Z</time>
      </trkpt>
      <trkpt lat="37.0836" lon="-79.603827">
        <ele>259.564762</ele>
        <time>2025-04-04T17:14:41.000Z</time>
      </trkpt>
      <trkpt lat="37.083371" lon="-79.604119">
        <ele>259.357191</ele>
        <time>2025-04-04T17:14:45.000Z</time>
      </trkpt>
      <trkpt lat="37.083191" lon="-79.60442">
        <ele>259.164793</ele>
        <time>2025-04-04T17:14:48.000Z</time>
      </trkpt>
      <trkpt lat="37.083118" lon="-79.604695">
        <ele>259.017355</ele>
        <time>2025-04-04T17:14:51.000Z</time>
      </trkpt>
      <trkpt lat="37.082973" lon="-79.606605">
        <ele>258.729036</ele>
        <time>2025-04-04T17:15:08.000Z</time>
      </trkpt>
      <trkpt lat="37.082887" lon="-79.606945">
        <ele>258.758279</ele>
        <time>2025-04-04T17:15:11.000Z</time>
      </trkpt>
      <trkpt lat="37.082805" lon="-79.607141">
        <ele>258.775848</ele>
        <time>2025-04-04T17:15:13.000Z</time>
      </trkpt>
      <trkpt lat="37.082615" lon="-79.607474">
        <ele>258.810187</ele>
        <time>2025-04-04T17:15:17.000Z</time>
      </trkpt>
      <trkpt lat="37.082448" lon="-79.607637">
        <ele>258.51966</ele>
        <time>2025-04-04T17:15:19.000Z</time>
      </trkpt>
      <trkpt lat="37.082149" lon="-79.607803">
        <ele>257.683884</ele>
        <time>2025-04-04T17:15:23.000Z</time>
      </trkpt>
      <trkpt lat="37.081576" lon="-79.608023">
        <ele>256.178352</ele>
        <time>2025-04-04T17:15:30.000Z</time>
      </trkpt>
      <trkpt lat="37.081302" lon="-79.608205">
        <ele>255.390745</ele>
        <time>2025-04-04T17:15:33.000Z</time>
      </trkpt>
      <trkpt lat="37.080923" lon="-79.608528">
        <ele>254.256319</ele>
        <time>2025-04-04T17:15:38.000Z</time>
      </trkpt>
      <trkpt lat="37.080363" lon="-79.609082">
        <ele>251.354338</ele>
        <time>2025-04-04T17:15:46.000Z</time>
      </trkpt>
      <trkpt lat="37.080141" lon="-79.609347">
        <ele>250.159841</ele>
        <time>2025-04-04T17:15:49.000Z</time>
      </trkpt>
      <trkpt lat="37.080094" lon="-79.609446">
        <ele>249.792372</ele>
        <time>2025-04-04T17:15:50.000Z</time>
      </trkpt>
      <trkpt lat="37.080028" lon="-79.609645">
        <ele>249.068384</ele>
        <time>2025-04-04T17:15:52.000Z</time>
      </trkpt>
      <trkpt lat="37.080029" lon="-79.60983">
        <ele>248.487176</ele>
        <time>2025-04-04T17:15:54.000Z</time>
      </trkpt>
      <trkpt lat="37.080058" lon="-79.610273">
        <ele>247.082742</ele>
        <time>2025-04-04T17:15:58.000Z</time>
      </trkpt>
      <trkpt lat="37.08002" lon="-79.610436">
        <ele>247.02591</ele>
        <time>2025-04-04T17:16:00.000Z</time>
      </trkpt>
      <trkpt lat="37.079999" lon="-79.610515">
        <ele>246.999481</ele>
        <time>2025-04-04T17:16:01.000Z</time>
      </trkpt>
      <trkpt lat="37.079728" lon="-79.610778">
        <ele>246.868123</ele>
        <time>2025-04-04T17:16:05.000Z</time>
      </trkpt>
      <trkpt lat="37.079639" lon="-79.610896">
        <ele>246.814839</ele>
        <time>2025-04-04T17:16:06.000Z</time>
      </trkpt>
      <trkpt lat="37.079531" lon="-79.6112">
        <ele>246.710821</ele>
        <time>2025-04-04T17:16:09.000Z</time>
      </trkpt>
      <trkpt lat="37.079456" lon="-79.611525">
        <ele>246.59926</ele>
        <time>2025-04-04T17:16:12.000Z</time>
      </trkpt>
      <trkpt lat="37.079359" lon="-79.611689">
        <ele>246.536547</ele>
        <time>2025-04-04T17:16:14.000Z</time>
      </trkpt>
      <trkpt lat="37.079177" lon="-79.611845">
        <ele>246.445663</ele>
        <time>2025-04-04T17:16:16.000Z</time>
      </trkpt>
      <trkpt lat="37.078777" lon="-79.611992">
        <ele>246.664016</ele>
        <time>2025-04-04T17:16:21.000Z</time>
      </trkpt>
      <trkpt lat="37.07866" lon="-79.612054">
        <ele>246.858281</ele>
        <time>2025-04-04T17:16:22.000Z</time>
      </trkpt>
      <trkpt lat="37.078592" lon="-79.612141">
        <ele>247.013463</ele>
        <time>2025-04-04T17:16:23.000Z</time>
      </trkpt>
      <trkpt lat="37.078528" lon="-79.612257">
        <ele>247.167578</ele>
        <time>2025-04-04T17:16:24.000Z</time>
      </trkpt>
      <trkpt lat="37.078476" lon="-79.612432">
        <ele>247.396601</ele>
        <time>2025-04-04T17:16:26.000Z</time>
      </trkpt>
      <trkpt lat="37.078483" lon="-79.612626">
        <ele>247.626729</ele>
        <time>2025-04-04T17:16:28.000Z</time>
      </trkpt>
      <trkpt lat="37.078577" lon="-79.613039">
        <ele>248.130407</ele>
        <time>2025-04-04T17:16:32.000Z</time>
      </trkpt>
      <trkpt lat="37.07868" lon="-79.613355">
        <ele>248.559585</ele>
        <time>2025-04-04T17:16:35.000Z</time>
      </trkpt>
      <trkpt lat="37.07882" lon="-79.613715">
        <ele>249.018172</ele>
        <time>2025-04-04T17:16:39.000Z</time>
      </trkpt>
      <trkpt lat="37.079062" lon="-79.614109">
        <ele>249.206652</ele>
        <time>2025-04-04T17:16:43.000Z</time>
      </trkpt>
      <trkpt lat="37.079204" lon="-79.614461">
        <ele>249.32932</ele>
        <time>2025-04-04T17:16:46.000Z</time>
      </trkpt>
      <trkpt lat="37.079285" lon="-79.614834">
        <ele>249.450237</ele>
        <time>2025-04-04T17:16:49.000Z</time>
      </trkpt>
      <trkpt lat="37.079294" lon="-79.615074">
        <ele>249.529671</ele>
        <time>2025-04-04T17:16:51.000Z</time>
      </trkpt>
      <trkpt lat="37.079292" lon="-79.615243">
        <ele>249.58337</ele>
        <time>2025-04-04T17:16:52.000Z</time>
      </trkpt>
      <trkpt lat="37.079247" lon="-79.615408">
        <ele>249.636349</ele>
        <time>2025-04-04T17:16:54.000Z</time>
      </trkpt>
      <trkpt lat="37.079228" lon="-79.615451">
        <ele>249.656083</ele>
        <time>2025-04-04T17:16:54.000Z</time>
      </trkpt>
      <trkpt lat="37.079246" lon="-79.615398">
        <ele>249.67582</ele>
        <time>2025-04-04T17:16:55.000Z</time>
      </trkpt>
      <trkpt lat="37.079297" lon="-79.615249">
        <ele>249.728801</ele>
        <time>2025-04-04T17:16:56.000Z</time>
      </trkpt>
      <trkpt lat="37.079284" lon="-79.615076">
        <ele>249.752621</ele>
        <time>2025-04-04T17:16:58.000Z</time>
      </trkpt>
      <trkpt lat="37.07928" lon="-79.614819">
        <ele>249.583195</ele>
        <time>2025-04-04T17:17:00.000Z</time>
      </trkpt>
      <trkpt lat="37.079201" lon="-79.614452">
        <ele>249.325302</ele>
        <time>2025-04-04T17:17:03.000Z</time>
      </trkpt>
      <trkpt lat="37.07908" lon="-79.61412">
        <ele>249.063662</ele>
        <time>2025-04-04T17:17:06.000Z</time>
      </trkpt>
      <trkpt lat="37.078829" lon="-79.613706">
        <ele>248.715103</ele>
        <time>2025-04-04T17:17:11.000Z</time>
      </trkpt>
      <trkpt lat="37.078684" lon="-79.613359">
        <ele>248.45292</ele>
        <time>2025-04-04T17:17:14.000Z</time>
      </trkpt>
      <trkpt lat="37.07858" lon="-79.61304">
        <ele>248.195212</ele>
        <time>2025-04-04T17:17:17.000Z</time>
      </trkpt>
      <trkpt lat="37.07848" lon="-79.61262">
        <ele>247.782779</ele>
        <time>2025-04-04T17:17:21.000Z</time>
      </trkpt>
      <trkpt lat="37.078484" lon="-79.612434">
        <ele>247.594341</ele>
        <time>2025-04-04T17:17:23.000Z</time>
      </trkpt>
      <trkpt lat="37.078526" lon="-79.612247">
        <ele>247.406799</ele>
        <time>2025-04-04T17:17:25.000Z</time>
      </trkpt>
      <trkpt lat="37.078578" lon="-79.612143">
        <ele>247.280616</ele>
        <time>2025-04-04T17:17:26.000Z</time>
      </trkpt>
      <trkpt lat="37.078666" lon="-79.61206">
        <ele>247.153559</ele>
        <time>2025-04-04T17:17:27.000Z</time>
      </trkpt>
      <trkpt lat="37.078781" lon="-79.611979">
        <ele>246.994469</ele>
        <time>2025-04-04T17:17:28.000Z</time>
      </trkpt>
      <trkpt lat="37.079167" lon="-79.611847">
        <ele>246.498154</ele>
        <time>2025-04-04T17:17:32.000Z</time>
      </trkpt>
      <trkpt lat="37.079363" lon="-79.611686">
        <ele>246.218022</ele>
        <time>2025-04-04T17:17:35.000Z</time>
      </trkpt>
      <trkpt lat="37.079461" lon="-79.611531">
        <ele>246.046844</ele>
        <time>2025-04-04T17:17:37.000Z</time>
      </trkpt>
      <trkpt lat="37.079539" lon="-79.6112">
        <ele>246.448907</ele>
        <time>2025-04-04T17:17:40.000Z</time>
      </trkpt>
      <trkpt lat="37.079646" lon="-79.610902">
        <ele>246.823835</ele>
        <time>2025-04-04T17:17:43.000Z</time>
      </trkpt>
      <trkpt lat="37.079728" lon="-79.610779">
        <ele>247.01592</ele>
        <time>2025-04-04T17:17:44.000Z</time>
      </trkpt>
      <trkpt lat="37.079999" lon="-79.6105">
        <ele>247.489333</ele>
        <time>2025-04-04T17:17:48.000Z</time>
      </trkpt>
      <trkpt lat="37.080033" lon="-79.610431">
        <ele>247.584622</ele>
        <time>2025-04-04T17:17:49.000Z</time>
      </trkpt>
      <trkpt lat="37.080051" lon="-79.610277">
        <ele>247.775641</ele>
        <time>2025-04-04T17:17:50.000Z</time>
      </trkpt>
      <trkpt lat="37.080033" lon="-79.609837">
        <ele>248.279013</ele>
        <time>2025-04-04T17:17:54.000Z</time>
      </trkpt>
      <trkpt lat="37.080032" lon="-79.609661">
        <ele>248.48731</ele>
        <time>2025-04-04T17:17:56.000Z</time>
      </trkpt>
      <trkpt lat="37.080093" lon="-79.609431">
        <ele>249.055071</ele>
        <time>2025-04-04T17:17:58.000Z</time>
      </trkpt>
      <trkpt lat="37.080143" lon="-79.609344">
        <ele>249.481981</ele>
        <time>2025-04-04T17:17:59.000Z</time>
      </trkpt>
      <trkpt lat="37.080362" lon="-79.609075">
        <ele>250.869754</ele>
        <time>2025-04-04T17:18:02.000Z</time>
      </trkpt>
      <trkpt lat="37.080934" lon="-79.60852">
        <ele>254.241264</ele>
        <time>2025-04-04T17:18:10.000Z</time>
      </trkpt>
      <trkpt lat="37.081309" lon="-79.608211">
        <ele>256.314637</ele>
        <time>2025-04-04T17:18:15.000Z</time>
      </trkpt>
      <trkpt lat="37.081572" lon="-79.608033">
        <ele>257.10457</ele>
        <time>2025-04-04T17:18:18.000Z</time>
      </trkpt>
      <trkpt lat="37.082143" lon="-79.607807">
        <ele>257.62148</ele>
        <time>2025-04-04T17:18:25.000Z</time>
      </trkpt>
      <trkpt lat="37.082447" lon="-79.607632">
        <ele>257.908439</ele>
        <time>2025-04-04T17:18:29.000Z</time>
      </trkpt>
      <trkpt lat="37.082619" lon="-79.607467">
        <ele>258.092472</ele>
        <time>2025-04-04T17:18:31.000Z</time>
      </trkpt>
      <trkpt lat="37.08282" lon="-79.607146">
        <ele>258.3813</ele>
        <time>2025-04-04T17:18:35.000Z</time>
      </trkpt>
      <trkpt lat="37.082884" lon="-79.606957">
        <ele>258.523105</ele>
        <time>2025-04-04T17:18:37.000Z</time>
      </trkpt>
      <trkpt lat="37.082973" lon="-79.606617">
        <ele>258.620527</ele>
        <time>2025-04-04T17:18:40.000Z</time>
      </trkpt>
      <trkpt lat="37.083115" lon="-79.604694">
        <ele>259.146655</ele>
        <time>2025-04-04T17:18:57.000Z</time>
      </trkpt>
      <trkpt lat="37.083187" lon="-79.604418">
        <ele>259.211069</ele>
        <time>2025-04-04T17:19:00.000Z</time>
      </trkpt>
      <trkpt lat="37.08337" lon="-79.604108">
        <ele>259.295094</ele>
        <time>2025-04-04T17:19:03.000Z</time>
      </trkpt>
      <trkpt lat="37.083608" lon="-79.603835">
        <ele>259.385777</ele>
        <time>2025-04-04T17:19:07.000Z</time>
      </trkpt>
      <trkpt lat="37.083909" lon="-79.603643">
        <ele>259.479895</ele>
        <time>2025-04-04T17:19:11.000Z</time>
      </trkpt>
      <trkpt lat="37.085194" lon="-79.603159">
        <ele>259.568612</ele>
        <time>2025-04-04T17:19:26.000Z</time>
      </trkpt>
      <trkpt lat="37.085444" lon="-79.602978">
        <ele>259.54305</ele>
        <time>2025-04-04T17:19:29.000Z</time>
      </trkpt>
      <trkpt lat="37.085669" lon="-79.602709">
        <ele>259.516802</ele>
        <time>2025-04-04T17:19:32.000Z</time>
      </trkpt>
      <trkpt lat="37.085837" lon="-79.60245">
        <ele>259.494066</ele>
        <time>2025-04-04T17:19:35.000Z</time>
      </trkpt>
      <trkpt lat="37.086003" lon="-79.602023">
        <ele>259.853016</ele>
        <time>2025-04-04T17:19:39.000Z</time>
      </trkpt>
      <trkpt lat="37.086752" lon="-79.599707">
        <ele>263.244346</ele>
        <time>2025-04-04T17:20:01.000Z</time>
      </trkpt>
      <trkpt lat="37.086907" lon="-79.599364">
        <ele>263.828857</ele>
        <time>2025-04-04T17:20:04.000Z</time>
      </trkpt>
      <trkpt lat="37.086976" lon="-79.599251">
        <ele>264.041923</ele>
        <time>2025-04-04T17:20:05.000Z</time>
      </trkpt>
      <trkpt lat="37.087295" lon="-79.598936">
        <ele>264.830706</ele>
        <time>2025-04-04T17:20:10.000Z</time>
      </trkpt>
      <trkpt lat="37.087769" lon="-79.598597">
        <ele>265.859767</ele>
        <time>2025-04-04T17:20:16.000Z</time>
      </trkpt>
      <trkpt lat="37.088272" lon="-79.598207">
        <ele>268.076709</ele>
        <time>2025-04-04T17:20:23.000Z</time>
      </trkpt>
      <trkpt lat="37.088603" lon="-79.597877">
        <ele>269.656086</ele>
        <time>2025-04-04T17:20:28.000Z</time>
      </trkpt>
      <trkpt lat="37.089125" lon="-79.597131">
        <ele>272.698024</ele>
        <time>2025-04-04T17:20:37.000Z</time>
      </trkpt>
      <trkpt lat="37.089567" lon="-79.596368">
        <ele>274.646654</ele>
        <time>2025-04-04T17:20:45.000Z</time>
      </trkpt>
      <trkpt lat="37.089735" lon="-79.596073">
        <ele>275.43818</ele>
        <time>2025-04-04T17:20:48.000Z</time>
      </trkpt>
      <trkpt lat="37.089815" lon="-79.595932">
        <ele>275.795599</ele>
        <time>2025-04-04T17:20:50.000Z</time>
      </trkpt>
      <trkpt lat="37.090167" lon="-79.595293">
        <ele>277.390061</ele>
        <time>2025-04-04T17:20:57.000Z</time>
      </trkpt>
      <trkpt lat="37.091099" lon="-79.593646">
        <ele>277.626462</ele>
        <time>2025-04-04T17:21:15.000Z</time>
      </trkpt>
      <trkpt lat="37.091416" lon="-79.59315">
        <ele>277.125797</ele>
        <time>2025-04-04T17:21:21.000Z</time>
      </trkpt>
      <trkpt lat="37.091513" lon="-79.593428">
        <ele>276.711367</ele>
        <time>2025-04-04T17:21:24.000Z</time>
      </trkpt>
      <trkpt lat="37.092194" lon="-79.595274">
        <ele>273.878343</ele>
        <time>2025-04-04T17:21:42.000Z</time>
      </trkpt>
      <trkpt lat="37.093353" lon="-79.598668">
        <ele>266.75577</ele>
        <time>2025-04-04T17:22:15.000Z</time>
      </trkpt>
      <trkpt lat="37.093994" lon="-79.600378">
        <ele>261.489638</ele>
        <time>2025-04-04T17:22:32.000Z</time>
      </trkpt>
      <trkpt lat="37.094093" lon="-79.600676">
        <ele>260.574384</ele>
        <time>2025-04-04T17:22:35.000Z</time>
      </trkpt>
      <trkpt lat="37.094392" lon="-79.601497">
        <ele>258.75976</ele>
        <time>2025-04-04T17:22:43.000Z</time>
      </trkpt>
      <trkpt lat="37.094621" lon="-79.601887">
        <ele>258.069677</ele>
        <time>2025-04-04T17:22:47.000Z</time>
      </trkpt>
      <trkpt lat="37.094941" lon="-79.60221">
        <ele>257.37164</ele>
        <time>2025-04-04T17:22:52.000Z</time>
      </trkpt>
      <trkpt lat="37.095881" lon="-79.602939">
        <ele>255.449087</ele>
        <time>2025-04-04T17:23:04.000Z</time>
      </trkpt>
      <trkpt lat="37.096064" lon="-79.603132">
        <ele>255.024779</ele>
        <time>2025-04-04T17:23:07.000Z</time>
      </trkpt>
      <trkpt lat="37.096967" lon="-79.60425">
        <ele>252.934697</ele>
        <time>2025-04-04T17:23:21.000Z</time>
      </trkpt>
      <trkpt lat="37.097067" lon="-79.604438">
        <ele>252.705006</ele>
        <time>2025-04-04T17:23:23.000Z</time>
      </trkpt>
      <trkpt lat="37.097235" lon="-79.604786">
        <ele>252.310568</ele>
        <time>2025-04-04T17:23:27.000Z</time>
      </trkpt>
      <trkpt lat="37.097311" lon="-79.605118">
        <ele>251.956669</ele>
        <time>2025-04-04T17:23:30.000Z</time>
      </trkpt>
      <trkpt lat="37.09735" lon="-79.605473">
        <ele>251.582122</ele>
        <time>2025-04-04T17:23:33.000Z</time>
      </trkpt>
      <trkpt lat="37.09721" lon="-79.607914">
        <ele>252.21662</ele>
        <time>2025-04-04T17:23:55.000Z</time>
      </trkpt>
      <trkpt lat="37.097117" lon="-79.608393">
        <ele>252.551756</ele>
        <time>2025-04-04T17:23:59.000Z</time>
      </trkpt>
      <trkpt lat="37.097018" lon="-79.608624">
        <ele>252.738719</ele>
        <time>2025-04-04T17:24:01.000Z</time>
      </trkpt>
      <trkpt lat="37.096857" lon="-79.608851">
        <ele>252.967709</ele>
        <time>2025-04-04T17:24:04.000Z</time>
      </trkpt>
      <trkpt lat="37.096711" lon="-79.609012">
        <ele>253.154283</ele>
        <time>2025-04-04T17:24:06.000Z</time>
      </trkpt>
      <trkpt lat="37.09667" lon="-79.609031">
        <ele>253.190919</ele>
        <time>2025-04-04T17:24:06.000Z</time>
      </trkpt>
      <trkpt lat="37.096408" lon="-79.609222">
        <ele>253.467894</ele>
        <time>2025-04-04T17:24:09.000Z</time>
      </trkpt>
      <trkpt lat="37.096143" lon="-79.609405">
        <ele>253.751987</ele>
        <time>2025-04-04T17:24:12.000Z</time>
      </trkpt>
      <trkpt lat="37.09601" lon="-79.609501">
        <ele>253.898892</ele>
        <time>2025-04-04T17:24:14.000Z</time>
      </trkpt>
      <trkpt lat="37.095785" lon="-79.609864">
        <ele>254.173205</ele>
        <time>2025-04-04T17:24:18.000Z</time>
      </trkpt>
      <trkpt lat="37.095742" lon="-79.609919">
        <ele>254.17322</ele>
        <time>2025-04-04T17:24:19.000Z</time>
      </trkpt>
      <trkpt lat="37.095679" lon="-79.609933">
        <ele>254.173209</ele>
        <time>2025-04-04T17:24:20.000Z</time>
      </trkpt>
      <trkpt lat="37.095632" lon="-79.610053">
        <ele>254.17321</ele>
        <time>2025-04-04T17:24:21.000Z</time>
      </trkpt>
      <trkpt lat="37.095588" lon="-79.610093">
        <ele>254.17322</ele>
        <time>2025-04-04T17:24:22.000Z</time>
      </trkpt>
      <trkpt lat="37.095074" lon="-79.610386">
        <ele>254.173214</ele>
        <time>2025-04-04T17:24:28.000Z</time>
      </trkpt>
      <trkpt lat="37.095066" lon="-79.610375">
        <ele>254.17321</ele>
        <time>2025-04-04T17:24:28.000Z</time>
      </trkpt>
      <trkpt lat="37.09503" lon="-79.610389">
        <ele>254.173217</ele>
        <time>2025-04-04T17:24:28.000Z</time>
      </trkpt>
      <trkpt lat="37.094965" lon="-79.610344">
        <ele>254.173211</ele>
        <time>2025-04-04T17:24:29.000Z</time>
      </trkpt>
      <trkpt lat="37.094913" lon="-79.610186">
        <ele>254.173209</ele>
        <time>2025-04-04T17:24:31.000Z</time>
      </trkpt>
      <trkpt lat="37.095443" lon="-79.609871">
        <ele>254.173209</ele>
        <time>2025-04-04T17:24:38.000Z</time>
      </trkpt>
      <trkpt lat="37.09548" lon="-79.609839">
        <ele>253.764454</ele>
        <time>2025-04-04T17:24:39.000Z</time>
      </trkpt>
      <trkpt lat="37.095526" lon="-79.609824">
        <ele>253.764449</ele>
        <time>2025-04-04T17:24:40.000Z</time>
      </trkpt>
      <trkpt lat="37.095608" lon="-79.609825">
        <ele>253.764452</ele>
        <time>2025-04-04T17:24:41.000Z</time>
      </trkpt>
      <trkpt lat="37.095607" lon="-79.609776">
        <ele>253.764451</ele>
        <time>2025-04-04T17:24:41.000Z</time>
      </trkpt>
      <trkpt lat="37.095689" lon="-79.6097">
        <ele>253.764445</ele>
        <time>2025-04-04T17:24:42.000Z</time>
      </trkpt>
      <trkpt lat="37.095999" lon="-79.609486">
        <ele>253.764454</ele>
        <time>2025-04-04T17:24:46.000Z</time>
      </trkpt>
      <trkpt lat="37.096137" lon="-79.609406">
        <ele>253.764441</ele>
        <time>2025-04-04T17:24:48.000Z</time>
      </trkpt>
      <trkpt lat="37.096409" lon="-79.609226">
        <ele>253.577015</ele>
        <time>2025-04-04T17:24:51.000Z</time>
      </trkpt>
      <trkpt lat="37.096681" lon="-79.609032">
        <ele>253.258511</ele>
        <time>2025-04-04T17:24:54.000Z</time>
      </trkpt>
      <trkpt lat="37.096698" lon="-79.609003">
        <ele>253.216384</ele>
        <time>2025-04-04T17:24:54.000Z</time>
      </trkpt>
      <trkpt lat="37.096866" lon="-79.608851">
        <ele>253.001837</ele>
        <time>2025-04-04T17:24:56.000Z</time>
      </trkpt>
      <trkpt lat="37.09702" lon="-79.608612">
        <ele>252.738544</ele>
        <time>2025-04-04T17:24:59.000Z</time>
      </trkpt>
      <trkpt lat="37.097119" lon="-79.608399">
        <ele>252.523536</ele>
        <time>2025-04-04T17:25:01.000Z</time>
      </trkpt>
      <trkpt lat="37.097214" lon="-79.60793">
        <ele>252.109426</ele>
        <time>2025-04-04T17:25:05.000Z</time>
      </trkpt>
      <trkpt lat="37.097344" lon="-79.605485">
        <ele>251.212156</ele>
        <time>2025-04-04T17:25:27.000Z</time>
      </trkpt>
      <trkpt lat="37.097313" lon="-79.605112">
        <ele>251.532112</ele>
        <time>2025-04-04T17:25:30.000Z</time>
      </trkpt>
      <trkpt lat="37.097227" lon="-79.604769">
        <ele>252.02812</ele>
        <time>2025-04-04T17:25:33.000Z</time>
      </trkpt>
      <trkpt lat="37.097074" lon="-79.604444">
        <ele>252.580942</ele>
        <time>2025-04-04T17:25:36.000Z</time>
      </trkpt>
      <trkpt lat="37.096969" lon="-79.604263">
        <ele>252.902858</ele>
        <time>2025-04-04T17:25:38.000Z</time>
      </trkpt>
      <trkpt lat="37.096062" lon="-79.603132">
        <ele>255.079634</ele>
        <time>2025-04-04T17:25:52.000Z</time>
      </trkpt>
      <trkpt lat="37.095873" lon="-79.602948">
        <ele>255.472661</ele>
        <time>2025-04-04T17:25:55.000Z</time>
      </trkpt>
      <trkpt lat="37.094938" lon="-79.602204">
        <ele>257.255547</ele>
        <time>2025-04-04T17:26:07.000Z</time>
      </trkpt>
      <trkpt lat="37.094617" lon="-79.6019">
        <ele>258.14414</ele>
        <time>2025-04-04T17:26:11.000Z</time>
      </trkpt>
      <trkpt lat="37.094396" lon="-79.601482">
        <ele>259.025725</ele>
        <time>2025-04-04T17:26:15.000Z</time>
      </trkpt>
      <trkpt lat="37.094101" lon="-79.600665">
        <ele>260.614497</ele>
        <time>2025-04-04T17:26:23.000Z</time>
      </trkpt>
      <trkpt lat="37.093999" lon="-79.600375">
        <ele>261.168886</ele>
        <time>2025-04-04T17:26:26.000Z</time>
      </trkpt>
      <trkpt lat="37.093352" lon="-79.598671">
        <ele>266.773459</ele>
        <time>2025-04-04T17:26:43.000Z</time>
      </trkpt>
      <trkpt lat="37.092188" lon="-79.595275">
        <ele>273.865126</ele>
        <time>2025-04-04T17:27:16.000Z</time>
      </trkpt>
      <trkpt lat="37.091526" lon="-79.593441">
        <ele>276.61777</ele>
        <time>2025-04-04T17:27:34.000Z</time>
      </trkpt>
      <trkpt lat="37.091423" lon="-79.593147">
        <ele>276.889139</ele>
        <time>2025-04-04T17:27:37.000Z</time>
      </trkpt>
      <trkpt lat="37.091096" lon="-79.593649">
        <ele>277.430214</ele>
        <time>2025-04-04T17:27:43.000Z</time>
      </trkpt>
      <trkpt lat="37.090179" lon="-79.595297">
        <ele>276.958579</ele>
        <time>2025-04-04T17:28:01.000Z</time>
      </trkpt>
      <trkpt lat="37.089816" lon="-79.595922">
        <ele>276.432598</ele>
        <time>2025-04-04T17:28:08.000Z</time>
      </trkpt>
      <trkpt lat="37.089734" lon="-79.596069">
        <ele>275.954346</ele>
        <time>2025-04-04T17:28:10.000Z</time>
      </trkpt>
      <trkpt lat="37.089571" lon="-79.596372">
        <ele>274.895175</ele>
        <time>2025-04-04T17:28:13.000Z</time>
      </trkpt>
      <trkpt lat="37.089122" lon="-79.597123">
        <ele>272.28765</ele>
        <time>2025-04-04T17:28:21.000Z</time>
      </trkpt>
      <trkpt lat="37.088602" lon="-79.597893">
        <ele>269.551818</ele>
        <time>2025-04-04T17:28:30.000Z</time>
      </trkpt>
      <trkpt lat="37.088267" lon="-79.598221">
        <ele>268.241913</ele>
        <time>2025-04-04T17:28:35.000Z</time>
      </trkpt>
      <trkpt lat="37.087777" lon="-79.598605">
        <ele>266.390505</ele>
        <time>2025-04-04T17:28:41.000Z</time>
      </trkpt>
      <trkpt lat="37.0873" lon="-79.598936">
        <ele>264.686864</ele>
        <time>2025-04-04T17:28:47.000Z</time>
      </trkpt>
      <trkpt lat="37.086969" lon="-79.599256">
        <ele>263.894043</ele>
        <time>2025-04-04T17:28:52.000Z</time>
      </trkpt>
      <trkpt lat="37.0869" lon="-79.599369">
        <ele>263.691875</ele>
        <time>2025-04-04T17:28:53.000Z</time>
      </trkpt>
      <trkpt lat="37.086753" lon="-79.599709">
        <ele>263.137271</ele>
        <time>2025-04-04T17:28:56.000Z</time>
      </trkpt>
      <trkpt lat="37.086012" lon="-79.602021">
        <ele>260.165841</ele>
        <time>2025-04-04T17:29:18.000Z</time>
      </trkpt>
      <trkpt lat="37.085832" lon="-79.602455">
        <ele>259.7008</ele>
        <time>2025-04-04T17:29:22.000Z</time>
      </trkpt>
      <trkpt lat="37.085664" lon="-79.602714">
        <ele>259.385272</ele>
        <time>2025-04-04T17:29:25.000Z</time>
      </trkpt>
      <trkpt lat="37.085432" lon="-79.602965">
        <ele>259.251183</ele>
        <time>2025-04-04T17:29:28.000Z</time>
      </trkpt>
      <trkpt lat="37.08518" lon="-79.603174">
        <ele>259.344376</ele>
        <time>2025-04-04T17:29:31.000Z</time>
      </trkpt>
      <trkpt lat="37.083912" lon="-79.603629">
        <ele>259.759099</ele>
        <time>2025-04-04T17:29:46.000Z</time>
      </trkpt>
      <trkpt lat="37.083616" lon="-79.603826">
        <ele>259.564755</ele>
        <time>2025-04-04T17:29:50.000Z</time>
      </trkpt>
      <trkpt lat="37.083376" lon="-79.604117">
        <ele>259.357188</ele>
        <time>2025-04-04T17:29:54.000Z</time>
      </trkpt>
      <trkpt lat="37.0832" lon="-79.604432">
        <ele>259.164794</ele>
        <time>2025-04-04T17:29:57.000Z</time>
      </trkpt>
      <trkpt lat="37.083105" lon="-79.604694">
        <ele>259.017357</ele>
        <time>2025-04-04T17:30:00.000Z</time>
      </trkpt>
      <trkpt lat="37.08296" lon="-79.606606">
        <ele>258.729041</ele>
        <time>2025-04-04T17:30:17.000Z</time>
      </trkpt>
      <trkpt lat="37.08289" lon="-79.60695">
        <ele>258.758274</ele>
        <time>2025-04-04T17:30:20.000Z</time>
      </trkpt>
      <trkpt lat="37.082816" lon="-79.607134">
        <ele>258.775847</ele>
        <time>2025-04-04T17:30:22.000Z</time>
      </trkpt>
      <trkpt lat="37.082621" lon="-79.607484">
        <ele>258.810195</ele>
        <time>2025-04-04T17:30:26.000Z</time>
      </trkpt>
      <trkpt lat="37.082437" lon="-79.60764">
        <ele>258.51966</ele>
        <time>2025-04-04T17:30:28.000Z</time>
      </trkpt>
      <trkpt lat="37.082137" lon="-79.607808">
        <ele>257.683878</ele>
        <time>2025-04-04T17:30:32.000Z</time>
      </trkpt>
      <trkpt lat="37.081575" lon="-79.60803">
        <ele>256.178351</ele>
        <time>2025-04-04T17:30:39.000Z</time>
      </trkpt>
      <trkpt lat="37.081309" lon="-79.608196">
        <ele>255.390742</ele>
        <time>2025-04-04T17:30:42.000Z</time>
      </trkpt>
      <trkpt lat="37.08094" lon="-79.608518">
        <ele>254.256321</ele>
        <time>2025-04-04T17:30:47.000Z</time>
      </trkpt>
      <trkpt lat="37.080361" lon="-79.609078">
        <ele>251.354338</ele>
        <time>2025-04-04T17:30:55.000Z</time>
      </trkpt>
      <trkpt lat="37.080145" lon="-79.609337">
        <ele>250.159839</ele>
        <time>2025-04-04T17:30:58.000Z</time>
      </trkpt>
      <trkpt lat="37.080095" lon="-79.609445">
        <ele>249.792382</ele>
        <time>2025-04-04T17:30:59.000Z</time>
      </trkpt>
      <trkpt lat="37.080027" lon="-79.609649">
        <ele>249.068378</ele>
        <time>2025-04-04T17:31:01.000Z</time>
      </trkpt>
      <trkpt lat="37.080023" lon="-79.609831">
        <ele>248.487177</ele>
        <time>2025-04-04T17:31:03.000Z</time>
      </trkpt>
      <trkpt lat="37.080065" lon="-79.610282">
        <ele>247.08273</ele>
        <time>2025-04-04T17:31:07.000Z</time>
      </trkpt>
      <trkpt lat="37.080031" lon="-79.610432">
        <ele>247.025921</ele>
        <time>2025-04-04T17:31:08.000Z</time>
      </trkpt>
      <trkpt lat="37.079984" lon="-79.610507">
        <ele>246.999482</ele>
        <time>2025-04-04T17:31:09.000Z</time>
      </trkpt>
      <trkpt lat="37.079727" lon="-79.61077">
        <ele>246.868132</ele>
        <time>2025-04-04T17:31:13.000Z</time>
      </trkpt>
      <trkpt lat="37.079642" lon="-79.610899">
        <ele>246.814841</ele>
        <time>2025-04-04T17:31:14.000Z</time>
      </trkpt>
      <trkpt lat="37.079536" lon="-79.611186">
        <ele>246.710822</ele>
        <time>2025-04-04T17:31:17.000Z</time>
      </trkpt>
      <trkpt lat="37.079444" lon="-79.611523">
        <ele>246.599264</ele>
        <time>2025-04-04T17:31:20.000Z</time>
      </trkpt>
      <trkpt lat="37.079353" lon="-79.611682">
        <ele>246.536558</ele>
        <time>2025-04-04T17:31:22.000Z</time>
      </trkpt>
      <trkpt lat="37.079161" lon="-79.611843">
        <ele>246.445655</ele>
        <time>2025-04-04T17:31:25.000Z</time>
      </trkpt>
      <trkpt lat="37.078781" lon="-79.611984">
        <ele>246.664017</ele>
        <time>2025-04-04T17:31:29.000Z</time>
      </trkpt>
      <trkpt lat="37.078669" lon="-79.612066">
        <ele>246.858285</ele>
        <time>2025-04-04T17:31:30.000Z</time>
      </trkpt>
      <trkpt lat="37.078583" lon="-79.612145">
        <ele>247.01347</ele>
        <time>2025-04-04T17:31:31.000Z</time>
      </trkpt>
      <trkpt lat="37.078518" lon="-79.612246">
        <ele>247.167565</ele>
        <time>2025-04-04T17:31:32.000Z</time>
      </trkpt>
      <trkpt lat="37.078482" lon="-79.61243">
        <ele>247.396602</ele>
        <time>2025-04-04T17:31:34.000Z</time>
      </trkpt>
      <trkpt lat="37.078478" lon="-79.612622">
        <ele>247.626731</ele>
        <time>2025-04-04T17:31:36.000Z</time>
      </trkpt>
      <trkpt lat="37.078579" lon="-79.613026">
        <ele>248.13041</ele>
        <time>2025-04-04T17:31:40.000Z</time>
      </trkpt>
      <trkpt lat="37.078683" lon="-79.613363">
        <ele>248.559579</ele>
        <time>2025-04-04T17:31:43.000Z</time>
      </trkpt>
      <trkpt lat="37.07882" lon="-79.613709">
        <ele>249.018188</ele>
        <time>2025-04-04T17:31:46.000Z</time>
      </trkpt>
      <trkpt lat="37.079073" lon="-79.614124">
        <ele>249.206658</ele>
        <time>2025-04-04T17:31:51.000Z</time>
      </trkpt>
      <trkpt lat="37.079215" lon="-79.614461">
        <ele>249.329315</ele>
        <time>2025-04-04T17:31:54.000Z</time>
      </trkpt>
      <trkpt lat="37.079282" lon="-79.614818">
        <ele>249.450238</ele>
        <time>2025-04-04T17:31:57.000Z</time>
      </trkpt>
      <trkpt lat="37.07929" lon="-79.615078">
        <ele>249.529669</ele>
        <time>2025-04-04T17:31:59.000Z</time>
      </trkpt>
      <trkpt lat="37.079288" lon="-79.615245">
        <ele>249.583369</ele>
        <time>2025-04-04T17:32:00.000Z</time>
      </trkpt>
      <trkpt lat="37.079261" lon="-79.615408">
        <ele>249.636346</ele>
        <time>2025-04-04T17:32:01.000Z</time>
      </trkpt>
      <trkpt lat="37.079224" lon="-79.615454">
        <ele>249.65609</ele>
        <time>2025-04-04T17:32:02.000Z</time>
      </trkpt>
      <trkpt lat="37.07925" lon="-79.615396">
        <ele>249.675825</ele>
        <time>2025-04-04T17:32:03.000Z</time>
      </trkpt>
      <trkpt lat="37.079295" lon="-79.615245">
        <ele>249.728796</ele>
        <time>2025-04-04T17:32:04.000Z</time>
      </trkpt>
      <trkpt lat="37.079293" lon="-79.615077">
        <ele>249.752631</ele>
        <time>2025-04-04T17:32:05.000Z</time>
      </trkpt>
      <trkpt lat="37.079286" lon="-79.614833">
        <ele>249.583209</ele>
        <time>2025-04-04T17:32:07.000Z</time>
      </trkpt>
      <trkpt lat="37.079209" lon="-79.614463">
        <ele>249.325313</ele>
        <time>2025-04-04T17:32:10.000Z</time>
      </trkpt>
      <trkpt lat="37.079077" lon="-79.614111">
        <ele>249.063669</ele>
        <time>2025-04-04T17:32:13.000Z</time>
      </trkpt>
      <trkpt lat="37.078817" lon="-79.613707">
        <ele>248.71511</ele>
        <time>2025-04-04T17:32:18.000Z</time>
      </trkpt>
      <trkpt lat="37.07869" lon="-79.613358">
        <ele>248.452925</ele>
        <time>2025-04-04T17:32:21.000Z</time>
      </trkpt>
      <trkpt lat="37.078577" lon="-79.613036">
        <ele>248.195215</ele>
        <time>2025-04-04T17:32:24.000Z</time>
      </trkpt>
      <trkpt lat="37.078477" lon="-79.612629">
        <ele>247.782778</ele>
        <time>2025-04-04T17:32:28.000Z</time>
      </trkpt>
      <trkpt lat="37.078486" lon="-79.612426">
        <ele>247.594356</ele>
        <time>2025-04-04T17:32:30.000Z</time>
      </trkpt>
      <trkpt lat="37.078528" lon="-79.612262">
        <ele>247.406806</ele>
        <time>2025-04-04T17:32:32.000Z</time>
      </trkpt>
      <trkpt lat="37.078583" lon="-79.612146">
        <ele>247.280609</ele>
        <time>2025-04-04T17:32:33.000Z</time>
      </trkpt>
      <trkpt lat="37.078669" lon="-79.612056">
        <ele>247.153547</ele>
        <time>2025-04-04T17:32:34.000Z</time>
      </trkpt>
      <trkpt lat="37.078777" lon="-79.611991">
        <ele>246.994475</ele>
        <time>2025-04-04T17:32:35.000Z</time>
      </trkpt>
      <trkpt lat="37.079162" lon="-79.611848">
        <ele>246.498143</ele>
        <time>2025-04-04T17:32:39.000Z</time>
      </trkpt>
      <trkpt lat="37.079359" lon="-79.611683">
        <ele>246.218027</ele>
        <time>2025-04-04T17:32:42.000Z</time>
      </trkpt>
      <trkpt lat="37.079443" lon="-79.611524">
        <ele>246.046846</ele>
        <time>2025-04-04T17:32:44.000Z</time>
      </trkpt>
      <trkpt lat="37.079536" lon="-79.611187">
        <ele>246.448909</ele>
        <time>2025-04-04T17:32:47.000Z</time>
      </trkpt>
      <trkpt lat="37.079651" lon="-79.610901">
        <ele>246.823831</ele>
        <time>2025-04-04T17:32:50.000Z</time>
      </trkpt>
      <trkpt lat="37.079735" lon="-79.610772">
        <ele>247.015908</ele>
        <time>2025-04-04T17:32:51.000Z</time>
      </trkpt>
      <trkpt lat="37.079999" lon="-79.610504">
        <ele>247.48933</ele>
        <time>2025-04-04T17:32:55.000Z</time>
      </trkpt>
      <trkpt lat="37.080027" lon="-79.610443">
        <ele>247.584634</ele>
        <time>2025-04-04T17:32:56.000Z</time>
      </trkpt>
      <trkpt lat="37.080052" lon="-79.610266">
        <ele>247.775642</ele>
        <time>2025-04-04T17:32:58.000Z</time>
      </trkpt>
      <trkpt lat="37.080032" lon="-79.609834">
        <ele>248.279002</ele>
        <time>2025-04-04T17:33:02.000Z</time>
      </trkpt>
      <trkpt lat="37.080032" lon="-79.609647">
        <ele>248.487318</ele>
        <time>2025-04-04T17:33:04.000Z</time>
      </trkpt>
      <trkpt lat="37.080099" lon="-79.609437">
        <ele>249.055084</ele>
        <time>2025-04-04T17:33:06.000Z</time>
      </trkpt>
      <trkpt lat="37.080139" lon="-79.609342">
        <ele>249.481977</ele>
        <time>2025-04-04T17:33:07.000Z</time>
      </trkpt>
      <trkpt lat="37.08035" lon="-79.609077">
        <ele>250.869751</ele>
        <time>2025-04-04T17:33:10.000Z</time>
      </trkpt>
      <trkpt lat="37.080926" lon="-79.608521">
        <ele>254.241279</ele>
        <time>2025-04-04T17:33:18.000Z</time>
      </trkpt>
      <trkpt lat="37.081306" lon="-79.608211">
        <ele>256.314646</ele>
        <time>2025-04-04T17:33:23.000Z</time>
      </trkpt>
      <trkpt lat="37.081567" lon="-79.60803">
        <ele>257.104577</ele>
        <time>2025-04-04T17:33:26.000Z</time>
      </trkpt>
      <trkpt lat="37.08215" lon="-79.607802">
        <ele>257.621486</ele>
        <time>2025-04-04T17:33:33.000Z</time>
      </trkpt>
      <trkpt lat="37.082451" lon="-79.607628">
        <ele>257.908442</ele>
        <time>2025-04-04T17:33:37.000Z</time>
      </trkpt>
      <trkpt lat="37.082619" lon="-79.607468">
        <ele>258.092469</ele>
        <time>2025-04-04T17:33:39.000Z</time>
      </trkpt>
      <trkpt lat="37.082815" lon="-79.607139">
        <ele>258.381314</ele>
        <time>2025-04-04T17:33:43.000Z</time>
      </trkpt>
      <trkpt lat="37.082887" lon="-79.606942">
        <ele>258.523119</ele>
        <time>2025-04-04T17:33:45.000Z</time>
      </trkpt>
      <trkpt lat="37.082956" lon="-79.606614">
        <ele>258.620537</ele>
        <time>2025-04-04T17:33:48.000Z</time>
      </trkpt>
      <trkpt lat="37.083116" lon="-79.6047">
        <ele>259.146671</ele>
        <time>2025-04-04T17:34:05.000Z</time>
      </trkpt>
      <trkpt lat="37.083197" lon="-79.604422">
        <ele>259.211057</ele>
        <time>2025-04-04T17:34:08.000Z</time>
      </trkpt>
      <trkpt lat="37.083371" lon="-79.604121">
        <ele>259.295109</ele>
        <time>2025-04-04T17:34:11.000Z</time>
      </trkpt>
      <trkpt lat="37.0836" lon="-79.603833">
        <ele>259.385778</ele>
        <time>2025-04-04T17:34:15.000Z</time>
      </trkpt>
      <trkpt lat="37.083906" lon="-79.603641">
        <ele>259.479879</ele>
        <time>2025-04-04T17:34:19.000Z</time>
      </trkpt>
      <trkpt lat="37.085194" lon="-79.603168">
        <ele>259.568614</ele>
        <time>2025-04-04T17:34:34.000Z</time>
      </trkpt>
      <trkpt lat="37.085433" lon="-79.602966">
        <ele>259.543043</ele>
        <time>2025-04-04T17:34:37.000Z</time>
      </trkpt>
      <trkpt lat="37.085665" lon="-79.60272">
        <ele>259.5168</ele>
        <time>2025-04-04T17:34:40.000Z</time>
      </trkpt>
      <trkpt lat="37.085835" lon="-79.602452">
        <ele>259.49406</ele>
        <time>2025-04-04T17:34:43.000Z</time>
      </trkpt>
      <trkpt lat="37.086016" lon="-79.602022">
        <ele>259.853015</ele>
        <time>2025-04-04T17:34:47.000Z</time>
      </trkpt>
      <trkpt lat="37.086767" lon="-79.599714">
        <ele>263.24435</ele>
        <time>2025-04-04T17:35:09.000Z</time>
      </trkpt>
      <trkpt lat="37.086903" lon="-79.599376">
        <ele>263.828862</ele>
        <time>2025-04-04T17:35:12.000Z</time>
      </trkpt>
      <trkpt lat="37.086978" lon="-79.59926">
        <ele>264.041911</ele>
        <time>2025-04-04T17:35:13.000Z</time>
      </trkpt>
      <trkpt lat="37.087295" lon="-79.598926">
        <ele>264.830697</ele>
        <time>2025-04-04T17:35:18.000Z</time>
      </trkpt>
      <trkpt lat="37.087778" lon="-79.598596">
        <ele>265.859757</ele>
        <time>2025-04-04T17:35:24.000Z</time>
      </trkpt>
      <trkpt lat="37.088266" lon="-79.598221">
        <ele>268.076717</ele>
        <time>2025-04-04T17:35:30.000Z</time>
      </trkpt>
      <trkpt lat="37.088595" lon="-79.597879">
        <ele>269.656082</ele>
        <time>2025-04-04T17:35:35.000Z</time>
      </trkpt>
      <trkpt lat="37.089133" lon="-79.597131">
        <ele>272.698029</ele>
        <time>2025-04-04T17:35:44.000Z</time>
      </trkpt>
      <trkpt lat="37.089572" lon="-79.596381">
        <ele>274.646638</ele>
        <time>2025-04-04T17:35:52.000Z</time>
      </trkpt>
      <trkpt lat="37.089743" lon="-79.596066">
        <ele>275.438186</ele>
        <time>2025-04-04T17:35:55.000Z</time>
      </trkpt>
      <trkpt lat="37.08982" lon="-79.595933">
        <ele>275.795585</ele>
        <time>2025-04-04T17:35:56.000Z</time>
      </trkpt>
      <trkpt lat="37.090181" lon="-79.595293">
        <ele>277.390063</ele>
        <time>2025-04-04T17:36:03.000Z</time>
      </trkpt>
      <trkpt lat="37.091105" lon="-79.593648">
        <ele>277.62645</ele>
        <time>2025-04-04T17:36:21.000Z</time>
      </trkpt>
      <trkpt lat="37.091422" lon="-79.593151">
        <ele>277.125801</ele>
        <time>2025-04-04T17:36:27.000Z</time>
      </trkpt>
      <trkpt lat="37.091525" lon="-79.593444">
        <ele>276.711367</ele>
        <time>2025-04-04T17:36:30.000Z</time>
      </trkpt>
      <trkpt lat="37.092182" lon="-79.595279">
        <ele>273.878347</ele>
        <time>2025-04-04T17:36:48.000Z</time>
      </trkpt>
      <trkpt lat="37.093355" lon="-79.598673">
        <ele>266.755764</ele>
        <time>2025-04-04T17:37:21.000Z</time>
      </trkpt>
      <trkpt lat="37.09399" lon="-79.60039">
        <ele>261.489629</ele>
        <time>2025-04-04T17:37:38.000Z</time>
      </trkpt>
      <trkpt lat="37.094099" lon="-79.600665">
        <ele>260.574384</ele>
        <time>2025-04-04T17:37:41.000Z</time>
      </trkpt>
      <trkpt lat="37.094391" lon="-79.601494">
        <ele>258.759756</ele>
        <time>2025-04-04T17:37:49.000Z</time>
      </trkpt>
      <trkpt lat="37.094627" lon="-79.601901">
        <ele>258.069667</ele>
        <time>2025-04-04T17:37:53.000Z</time>
      </trkpt>
      <trkpt lat="37.094929" lon="-79.602215">
        <ele>257.371634</ele>
        <time>2025-04-04T17:37:57.000Z</time>
      </trkpt>
      <trkpt lat="37.095871" lon="-79.60293">
        <ele>255.449088</ele>
        <time>2025-04-04T17:38:09.000Z</time>
      </trkpt>
      <trkpt lat="37.096059" lon="-79.603136">
        <ele>255.02477</ele>
        <time>2025-04-04T17:38:12.000Z</time>
      </trkpt>
      <trkpt lat="37.096959" lon="-79.604256">
        <ele>252.934699</ele>
        <time>2025-04-04T17:38:26.000Z</time>
      </trkpt>
      <trkpt lat="37.097068" lon="-79.604447">
        <ele>252.705</ele>
        <time>2025-04-04T17:38:28.000Z</time>
      </trkpt>
      <trkpt lat="37.097234" lon="-79.604778">
        <ele>252.31056</ele>
        <time>2025-04-04T17:38:31.000Z</time>
      </trkpt>
      <trkpt lat="37.097318" lon="-79.605112">
        <ele>251.956659</ele>
        <time>2025-04-04T17:38:34.000Z</time>
      </trkpt>
      <trkpt lat="37.097349" lon="-79.605474">
        <ele>251.582108</ele>
        <time>2025-04-04T17:38:37.000Z</time>
      </trkpt>
      <trkpt lat="37.097205" lon="-79.607918">
        <ele>252.216619</ele>
        <time>2025-04-04T17:38:59.000Z</time>
      </trkpt>
      <trkpt lat="37.097102" lon="-79.608388">
        <ele>252.55175</ele>
        <time>2025-04-04T17:39:03.000Z</time>
      </trkpt>
      <trkpt lat="37.097032" lon="-79.608629">
        <ele>252.738724</ele>
        <time>2025-04-04T17:39:05.000Z</time>
      </trkpt>
      <trkpt lat="37.096869" lon="-79.608864">
        <ele>252.967713</ele>
        <time>2025-04-04T17:39:08.000Z</time>
      </trkpt>
      <trkpt lat="37.096698" lon="-79.609007">
        <ele>253.154277</ele>
        <time>2025-04-04T17:39:10.000Z</time>
      </trkpt>
      <trkpt lat="37.096664" lon="-79.609035">
        <ele>253.190918</ele>
        <time>2025-04-04T17:39:10.000Z</time>
      </trkpt>
      <trkpt lat="37.096405" lon="-79.609229">
        <ele>253.467887</ele>
        <time>2025-04-04T17:39:13.000Z</time>
      </trkpt>
      <trkpt lat="37.096142" lon="-79.609395">
        <ele>253.75199</ele>
        <time>2025-04-04T17:39:16.000Z</time>
      </trkpt>
      <trkpt lat="37.096008" lon="-79.609493">
        <ele>253.898902</ele>
        <time>2025-04-04T17:39:18.000Z</time>
      </trkpt>
      <trkpt lat="37.095792" lon="-79.609859">
        <ele>254.173203</ele>
        <time>2025-04-04T17:39:22.000Z</time>
      </trkpt>
      <trkpt lat="37.095736" lon="-79.609921">
        <ele>254.173207</ele>
        <time>2025-04-04T17:39:23.000Z</time>
      </trkpt>
      <trkpt lat="37.095669" lon="-79.609941">
        <ele>254.173208</ele>
        <time>2025-04-04T17:39:24.000Z</time>
      </trkpt>
      <trkpt lat="37.095619" lon="-79.610064">
        <ele>254.17321</ele>
        <time>2025-04-04T17:39:25.000Z</time>
      </trkpt>
      <trkpt lat="37.095593" lon="-79.610093">
        <ele>254.173212</ele>
        <time>2025-04-04T17:39:25.000Z</time>
      </trkpt>
      <trkpt lat="37.095076" lon="-79.610375">
        <ele>254.173217</ele>
        <time>2025-04-04T17:39:31.000Z</time>
      </trkpt>
      <trkpt lat="37.095075" lon="-79.610383">
        <ele>254.173214</ele>
        <time>2025-04-04T17:39:31.000Z</time>
      </trkpt>
      <trkpt lat="37.095042" lon="-79.610388">
        <ele>254.173216</ele>
        <time>2025-04-04T17:39:31.000Z</time>
      </trkpt>
      <trkpt lat="37.094969" lon="-79.610331">
        <ele>254.173204</ele>
        <time>2025-04-04T17:39:32.000Z</time>
      </trkpt>
      <trkpt lat="37.094917" lon="-79.610189">
        <ele>254.173207</ele>
        <time>2025-04-04T17:39:33.000Z</time>
      </trkpt>
      <trkpt lat="37.095437" lon="-79.609879">
        <ele>254.173221</ele>
        <time>2025-04-04T17:39:39.000Z</time>
      </trkpt>
      <trkpt lat="37.095493" lon="-79.60984">
        <ele>253.764441</ele>
        <time>2025-04-04T17:39:40.000Z</time>
      </trkpt>
      <trkpt lat="37.095513" lon="-79.609824">
        <ele>253.764457</ele>
        <time>2025-04-04T17:39:40.000Z</time>
      </trkpt>
      <trkpt lat="37.095606" lon="-79.609814">
        <ele>253.764451</ele>
        <time>2025-04-04T17:39:41.000Z</time>
      </trkpt>
      <trkpt lat="37.095603" lon="-79.609781">
        <ele>253.764456</ele>
        <time>2025-04-04T17:39:41.000Z</time>
      </trkpt>
      <trkpt lat="37.09569" lon="-79.609697">
        <ele>253.764439</ele>
        <time>2025-04-04T17:39:42.000Z</time>
      </trkpt>
      <trkpt lat="37.095999" lon="-79.609498">
        <ele>253.764442</ele>
        <time>2025-04-04T17:39:46.000Z</time>
      </trkpt>
      <trkpt lat="37.096151" lon="-79.609402">
        <ele>253.764451</ele>
        <time>2025-04-04T17:39:48.000Z</time>
      </trkpt>
      <trkpt lat="37.096421" lon="-79.609227">
        <ele>253.577013</ele>
        <time>2025-04-04T17:39:51.000Z</time>
      </trkpt>
      <trkpt lat="37.09667" lon="-79.60904">
        <ele>253.258511</ele>
        <time>2025-04-04T17:39:54.000Z</time>
      </trkpt>
      <trkpt lat="37.096708" lon="-79.609011">
        <ele>253.216388</ele>
        <time>2025-04-04T17:39:54.000Z</time>
      </trkpt>
      <trkpt lat="37.096863" lon="-79.608856">
        <ele>253.00184</ele>
        <time>2025-04-04T17:39:56.000Z</time>
      </trkpt>
      <trkpt lat="37.097027" lon="-79.608617">
        <ele>252.738542</ele>
        <time>2025-04-04T17:39:59.000Z</time>
      </trkpt>
      <trkpt lat="37.097118" lon="-79.608389">
        <ele>252.523544</ele>
        <time>2025-04-04T17:40:01.000Z</time>
      </trkpt>
      <trkpt lat="37.097219" lon="-79.607927">
        <ele>252.109436</ele>
        <time>2025-04-04T17:40:05.000Z</time>
      </trkpt>
      <trkpt lat="37.097347" lon="-79.605473">
        <ele>251.212164</ele>
        <time>2025-04-04T17:40:27.000Z</time>
      </trkpt>
      <trkpt lat="37.097321" lon="-79.605112">
        <ele>251.532122</ele>
        <time>2025-04-04T17:40:30.000Z</time>
      </trkpt>
      <trkpt lat="37.097234" lon="-79.604778">
        <ele>252.028126</ele>
        <time>2025-04-04T17:40:33.000Z</time>
      </trkpt>
      <trkpt lat="37.097071" lon="-79.604438">
        <ele>252.580925</ele>
        <time>2025-04-04T17:40:37.000Z</time>
      </trkpt>
      <trkpt lat="37.09697" lon="-79.604264">
        <ele>252.90286</ele>
        <time>2025-04-04T17:40:39.000Z</time>
      </trkpt>
      <trkpt lat="37.09606" lon="-79.603135">
        <ele>255.079632</ele>
        <time>2025-04-04T17:40:53.000Z</time>
      </trkpt>
      <trkpt lat="37.095879" lon="-79.602945">
        <ele>255.472657</ele>
        <time>2025-04-04T17:40:56.000Z</time>
      </trkpt>
      <trkpt lat="37.094936" lon="-79.602212">
        <ele>257.25553</ele>
        <time>2025-04-04T17:41:08.000Z</time>
      </trkpt>
      <trkpt lat="37.09462" lon="-79.601903">
        <ele>258.144139</ele>
        <time>2025-04-04T17:41:12.000Z</time>
      </trkpt>
      <trkpt lat="37.094387" lon="-79.601494">
        <ele>259.02573</ele>
        <time>2025-04-04T17:41:16.000Z</time>
      </trkpt>
      <trkpt lat="37.094098" lon="-79.600676">
        <ele>260.614503</ele>
        <time>2025-04-04T17:41:24.000Z</time>
      </trkpt>
      <trkpt lat="37.093991" lon="-79.600389">
        <ele>261.168886</ele>
        <time>2025-04-04T17:41:27.000Z</time>
      </trkpt>
      <trkpt lat="37.093352" lon="-79.598668">
        <ele>266.773469</ele>
        <time>2025-04-04T17:41:44.000Z</time>
      </trkpt>
      <trkpt lat="37.092186" lon="-79.595272">
        <ele>273.865129</ele>
        <time>2025-04-04T17:42:17.000Z</time>
      </trkpt>
      <trkpt lat="37.091525" lon="-79.593427">
        <ele>276.617756</ele>
        <time>2025-04-04T17:42:35.000Z</time>
      </trkpt>
      <trkpt lat="37.09142" lon="-79.593146">
        <ele>276.889129</ele>
        <time>2025-04-04T17:42:38.000Z</time>
      </trkpt>
      <trkpt lat="37.091105" lon="-79.593651">
        <ele>277.430217</ele>
        <time>2025-04-04T17:42:44.000Z</time>
      </trkpt>
      <trkpt lat="37.090177" lon="-79.595297">
        <ele>276.958584</ele>
        <time>2025-04-04T17:43:02.000Z</time>
      </trkpt>
      <trkpt lat="37.089814" lon="-79.595926">
        <ele>276.432606</ele>
        <time>2025-04-04T17:43:09.000Z</time>
      </trkpt>
      <trkpt lat="37.089738" lon="-79.596066">
        <ele>275.954356</ele>
        <time>2025-04-04T17:43:11.000Z</time>
      </trkpt>
      <trkpt lat="37.089558" lon="-79.596367">
        <ele>274.895173</ele>
        <time>2025-04-04T17:43:14.000Z</time>
      </trkpt>
      <trkpt lat="37.089125" lon="-79.597129">
        <ele>272.287649</ele>
        <time>2025-04-04T17:43:22.000Z</time>
      </trkpt>
      <trkpt lat="37.088595" lon="-79.597881">
        <ele>269.551818</ele>
        <time>2025-04-04T17:43:31.000Z</time>
      </trkpt>
      <trkpt lat="37.088273" lon="-79.598223">
        <ele>268.241916</ele>
        <time>2025-04-04T17:43:36.000Z</time>
      </trkpt>
      <trkpt lat="37.087765" lon="-79.598596">
        <ele>266.390519</ele>
        <time>2025-04-04T17:43:43.000Z</time>
      </trkpt>
      <trkpt lat="37.087285" lon="-79.598921">
        <ele>264.686861</ele>
        <time>2025-04-04T17:43:49.000Z</time>
      </trkpt>
      <trkpt lat="37.08697" lon="-79.599253">
        <ele>263.894046</ele>
        <time>2025-04-04T17:43:54.000Z</time>
      </trkpt>
      <trkpt lat="37.086902" lon="-79.599375">
        <ele>263.691886</ele>
        <time>2025-04-04T17:43:55.000Z</time>
      </trkpt>
      <trkpt lat="37.086758" lon="-79.599711">
        <ele>263.13727</ele>
        <time>2025-04-04T17:43:58.000Z</time>
      </trkpt>
      <trkpt lat="37.086007" lon="-79.602027">
        <ele>260.165848</ele>
        <time>2025-04-04T17:44:20.000Z</time>
      </trkpt>
      <trkpt lat="37.085837" lon="-79.602446">
        <ele>259.700804</ele>
        <time>2025-04-04T17:44:24.000Z</time>
      </trkpt>
      <trkpt lat="37.08567" lon="-79.602721">
        <ele>259.385272</ele>
        <time>2025-04-04T17:44:27.000Z</time>
      </trkpt>
      <trkpt lat="37.085435" lon="-79.602971">
        <ele>259.251174</ele>
        <time>2025-04-04T17:44:30.000Z</time>
      </trkpt>
      <trkpt lat="37.085189" lon="-79.603171">
        <ele>259.344367</ele>
        <time>2025-04-04T17:44:33.000Z</time>
      </trkpt>
      <trkpt lat="37.083923" lon="-79.603637">
        <ele>259.759085</ele>
        <time>2025-04-04T17:44:48.000Z</time>
      </trkpt>
      <trkpt lat="37.083611" lon="-79.603823">
        <ele>259.56475</ele>
        <time>2025-04-04T17:44:52.000Z</time>
      </trkpt>
      <trkpt lat="37.083372" lon="-79.604109">
        <ele>259.357181</ele>
        <time>2025-04-04T17:44:56.000Z</time>
      </trkpt>
      <trkpt lat="37.083203" lon="-79.604436">
        <ele>259.164791</ele>
        <time>2025-04-04T17:44:59.000Z</time>
      </trkpt>
      <trkpt lat="37.083119" lon="-79.604704">
        <ele>259.017365</ele>
        <time>2025-04-04T17:45:02.000Z</time>
      </trkpt>
      <trkpt lat="37.08296" lon="-79.606614">
        <ele>258.729046</ele>
        <time>2025-04-04T17:45:19.000Z</time>
      </trkpt>
      <trkpt lat="37.082876" lon="-79.606954">
        <ele>258.758284</ele>
        <time>2025-04-04T17:45:22.000Z</time>
      </trkpt>
      <trkpt lat="37.082807" lon="-79.607141">
        <ele>258.775848</ele>
        <time>2025-04-04T17:45:24.000Z</time>
      </trkpt>
      <trkpt lat="37.082621" lon="-79.607482">
        <ele>258.8102</ele>
        <time>2025-04-04T17:45:28.000Z</time>
      </trkpt>
      <trkpt lat="37.082447" lon="-79.607637">
        <ele>258.519655</ele>
        <time>2025-04-04T17:45:30.000Z</time>
      </trkpt>
      <trkpt lat="37.082147" lon="-79.607807">
        <ele>257.683892</ele>
        <time>2025-04-04T17:45:34.000Z</time>
      </trkpt>
      <trkpt lat="37.081569" lon="-79.608023">
        <ele>256.178347</ele>
        <time>2025-04-04T17:45:41.000Z</time>
      </trkpt>
      <trkpt lat="37.081308" lon="-79.608206">
        <ele>255.390751</ele>
        <time>2025-04-04T17:45:44.000Z</time>
      </trkpt>
      <trkpt lat="37.080928" lon="-79.608522">
        <ele>254.256319</ele>
        <time>2025-04-04T17:45:49.000Z</time>
      </trkpt>
      <trkpt lat="37.08036" lon="-79.609074">
        <ele>251.354346</ele>
        <time>2025-04-04T17:45:57.000Z</time>
      </trkpt>
      <trkpt lat="37.080137" lon="-79.609345">
        <ele>250.159833</ele>
        <time>2025-04-04T17:46:00.000Z</time>
      </trkpt>
      <trkpt lat="37.080086" lon="-79.609445">
        <ele>249.792385</ele>
        <time>2025-04-04T17:46:01.000Z</time>
      </trkpt>
      <trkpt lat="37.080043" lon="-79.609652">
        <ele>249.068384</ele>
        <time>2025-04-04T17:46:03.000Z</time>
      </trkpt>
      <trkpt lat="37.080024" lon="-79.609833">
        <ele>248.487182</ele>
        <time>2025-04-04T17:46:05.000Z</time>
      </trkpt>
      <trkpt lat="37.080064" lon="-79.610275">
        <ele>247.082741</ele>
        <time>2025-04-04T17:46:09.000Z</time>
      </trkpt>
      <trkpt lat="37.080028" lon="-79.610438">
        <ele>247.025913</ele>
        <time>2025-04-04T17:46:11.000Z</time>
      </trkpt>
      <trkpt lat="37.079995" lon="-79.610501">
        <ele>246.999477</ele>
        <time>2025-04-04T17:46:12.000Z</time>
      </trkpt>
      <trkpt lat="37.079738" lon="-79.610764">
        <ele>246.868123</ele>
        <time>2025-04-04T17:46:16.000Z</time>
      </trkpt>
      <trkpt lat="37.079653" lon="-79.610888">
        <ele>246.81484</ele>
        <time>2025-04-04T17:46:17.000Z</time>
      </trkpt>
      <trkpt lat="37.079532" lon="-79.611189">
        <ele>246.71082</ele>
        <time>2025-04-04T17:46:20.000Z</time>
      </trkpt>
      <trkpt lat="37.079459" lon="-79.611536">
        <ele>246.599265</ele>
        <time>2025-04-04T17:46:23.000Z</time>
      </trkpt>
      <trkpt lat="37.079362" lon="-79.611695">
        <ele>246.536555</ele>
        <time>2025-04-04T17:46:25.000Z</time>
      </trkpt>
      <trkpt lat="37.07917" lon="-79.61186">
        <ele>246.445657</ele>
        <time>2025-04-04T17:46:28.000Z</time>
      </trkpt>
      <trkpt lat="37.078769" lon="-79.611994">
        <ele>246.664</ele>
        <time>2025-04-04T17:46:33.000Z</time>
      </trkpt>
      <trkpt lat="37.078666" lon="-79.612055">
        <ele>246.858282</ele>
        <time>2025-04-04T17:46:34.000Z</time>
      </trkpt>
      <trkpt lat="37.078579" lon="-79.61215">
        <ele>247.013459</ele>
        <time>2025-04-04T17:46:35.000Z</time>
      </trkpt>
      <trkpt lat="37.078534" lon="-79.612244">
        <ele>247.167571</ele>
        <time>2025-04-04T17:46:36.000Z</time>
      </trkpt>
      <trkpt lat="37.078473" lon="-79.612428">
        <ele>247.396606</ele>
        <time>2025-04-04T17:46:38.000Z</time>
      </trkpt>
      <trkpt lat="37.078473" lon="-79.612624">
        <ele>247.626739</ele>
        <time>2025-04-04T17:46:40.000Z</time>
      </trkpt>
      <trkpt lat="37.07858" lon="-79.613036">
        <ele>248.13041</ele>
        <time>2025-04-04T17:46:44.000Z</time>
      </trkpt>
      <trkpt lat="37.078679" lon="-79.613362">
        <ele>248.559579</ele>
        <time>2025-04-04T17:46:47.000Z</time>
      </trkpt>
      <trkpt lat="37.078823" lon="-79.613704">
        <ele>249.018182</ele>
        <time>2025-04-04T17:46:50.000Z</time>
      </trkpt>
      <trkpt lat="37.07908" lon="-79.614123">
        <ele>249.20665</ele>
        <time>2025-04-04T17:46:55.000Z</time>
      </trkpt>
      <trkpt lat="37.079203" lon="-79.61445">
        <ele>249.32932</ele>
        <time>2025-04-04T17:46:58.000Z</time>
      </trkpt>
      <trkpt lat="37.079278" lon="-79.614832">
        <ele>249.450243</ele>
        <time>2025-04-04T17:47:01.000Z</time>
      </trkpt>
      <trkpt lat="37.0793" lon="-79.615079">
        <ele>249.529671</ele>
        <time>2025-04-04T17:47:03.000Z</time>
      </trkpt>
      <trkpt lat="37.079289" lon="-79.615245">
        <ele>249.583359</ele>
        <time>2025-04-04T17:47:04.000Z</time>
      </trkpt>
      <trkpt lat="37.079245" lon="-79.615405">
        <ele>249.63635</ele>
        <time>2025-04-04T17:47:06.000Z</time>
      </trkpt>
      <trkpt lat="37.079227" lon="-79.615447">
        <ele>249.656089</ele>
        <time>2025-04-04T17:47:06.000Z</time>
      </trkpt>
      <trkpt lat="37.079246" lon="-79.615395">
        <ele>249.675829</ele>
        <time>2025-04-04T17:47:07.000Z</time>
      </trkpt>
      <trkpt lat="37.079286" lon="-79.615236">
        <ele>249.728796</ele>
        <time>2025-04-04T17:47:08.000Z</time>
      </trkpt>
      <trkpt lat="37.0793" lon="-79.615064">
        <ele>249.75263</ele>
        <time>2025-04-04T17:47:10.000Z</time>
      </trkpt>
      <trkpt lat="37.079288" lon="-79.614821">
        <ele>249.583209</ele>
        <time>2025-04-04T17:47:12.000Z</time>
      </trkpt>
      <trkpt lat="37.07921" lon="-79.614463">
        <ele>249.32531</ele>
        <time>2025-04-04T17:47:15.000Z</time>
      </trkpt>
      <trkpt lat="37.079065" lon="-79.61411">
        <ele>249.063664</ele>
        <time>2025-04-04T17:47:19.000Z</time>
      </trkpt>
      <trkpt lat="37.078831" lon="-79.613705">
        <ele>248.715114</ele>
        <time>2025-04-04T17:47:23.000Z</time>
      </trkpt>
      <trkpt lat="37.078696" lon="-79.613363">
        <ele>248.452921</ele>
        <time>2025-04-04T17:47:26.000Z</time>
      </trkpt>
      <trkpt lat="37.078586" lon="-79.613036">
        <ele>248.195208</ele>
        <time>2025-04-04T17:47:29.000Z</time>
      </trkpt>
      <trkpt lat="37.078485" lon="-79.612626">
        <ele>247.782793</ele>
        <time>2025-04-04T17:47:33.000Z</time>
      </trkpt>
      <trkpt lat="37.078486" lon="-79.612433">
        <ele>247.594348</ele>
        <time>2025-04-04T17:47:35.000Z</time>
      </trkpt>
      <trkpt lat="37.078526" lon="-79.612252">
        <ele>247.406814</ele>
        <time>2025-04-04T17:47:37.000Z</time>
      </trkpt>
      <trkpt lat="37.07858" lon="-79.612145">
        <ele>247.280622</ele>
        <time>2025-04-04T17:47:38.000Z</time>
      </trkpt>
      <trkpt lat="37.078658" lon="-79.612062">
        <ele>247.153557</ele>
        <time>2025-04-04T17:47:39.000Z</time>
      </trkpt>
      <trkpt lat="37.078777" lon="-79.611989">
        <ele>246.994473</ele>
        <time>2025-04-04T17:47:40.000Z</time>
      </trkpt>
      <trkpt lat="37.07917" lon="-79.611852">
        <ele>246.498145</ele>
        <time>2025-04-04T17:47:45.000Z</time>
      </trkpt>
      <trkpt lat="37.079368" lon="-79.6117">
        <ele>246.218026</ele>
        <time>2025-04-04T17:47:48.000Z</time>
      </trkpt>
      <trkpt lat="37.079452" lon="-79.611532">
        <ele>246.046837</ele>
        <time>2025-04-04T17:47:50.000Z</time>
      </trkpt>
      <trkpt lat="37.079532" lon="-79.611194">
        <ele>246.448913</ele>
        <time>2025-04-04T17:47:53.000Z</time>
      </trkpt>
      <trkpt lat="37.07965" lon="-79.610892">
        <ele>246.823833</ele>
        <time>2025-04-04T17:47:56.000Z</time>
      </trkpt>
      <trkpt lat="37.079728" lon="-79.610766">
        <ele>247.015918</ele>
        <time>2025-04-04T17:47:57.000Z</time>
      </trkpt>
      <trkpt lat="37.079983" lon="-79.610517">
        <ele>247.489339</ele>
        <time>2025-04-04T17:48:01.000Z</time>
      </trkpt>
      <trkpt lat="37.080022" lon="-79.610439">
        <ele>247.584625</ele>
        <time>2025-04-04T17:48:02.000Z</time>
      </trkpt>
      <trkpt lat="37.08006" lon="-79.610269">
        <ele>247.775645</ele>
        <time>2025-04-04T17:48:04.000Z</time>
      </trkpt>
      <trkpt lat="37.080032" lon="-79.60984">
        <ele>248.279012</ele>
        <time>2025-04-04T17:48:08.000Z</time>
      </trkpt>
      <trkpt lat="37.08004" lon="-79.609647">
        <ele>248.487314</ele>
        <time>2025-04-04T17:48:10.000Z</time>
      </trkpt>
      <trkpt lat="37.080088" lon="-79.60944">
        <ele>249.055073</ele>
        <time>2025-04-04T17:48:12.000Z</time>
      </trkpt>
      <trkpt lat="37.080152" lon="-79.609353">
        <ele>249.481985</ele>
        <time>2025-04-04T17:48:13.000Z</time>
      </trkpt>
      <trkpt lat="37.080359" lon="-79.609076">
        <ele>250.869763</ele>
        <time>2025-04-04T17:48:16.000Z</time>
      </trkpt>
      <trkpt lat="37.080927" lon="-79.608511">
        <ele>254.241267</ele>
        <time>2025-04-04T17:48:24.000Z</time>
      </trkpt>
      <trkpt lat="37.081293" lon="-79.608195">
        <ele>256.314637</ele>
        <time>2025-04-04T17:48:29.000Z</time>
      </trkpt>
      <trkpt lat="37.081581" lon="-79.608022">
        <ele>257.104573</ele>
        <time>2025-04-04T17:48:33.000Z</time>
      </trkpt>
      <trkpt lat="37.082141" lon="-79.60781">
        <ele>257.621478</ele>
        <time>2025-04-04T17:48:40.000Z</time>
      </trkpt>
      <trkpt lat="37.082447" lon="-79.607628">
        <ele>257.908441</ele>
        <time>2025-04-04T17:48:44.000Z</time>
      </trkpt>
      <trkpt lat="37.082614" lon="-79.607484">
        <ele>258.092472</ele>
        <time>2025-04-04T17:48:46.000Z</time>
      </trkpt>
      <trkpt lat="37.082819" lon="-79.607135">
        <ele>258.381311</ele>
        <time>2025-04-04T17:48:50.000Z</time>
      </trkpt>
      <trkpt lat="37.082884" lon="-79.606946">
        <ele>258.523114</ele>
        <time>2025-04-04T17:48:52.000Z</time>
      </trkpt>
      <trkpt lat="37.082959" lon="-79.606611">
        <ele>258.620538</ele>
        <time>2025-04-04T17:48:55.000Z</time>
      </trkpt>
      <trkpt lat="37.083104" lon="-79.604704">
        <ele>259.146671</ele>
        <time>2025-04-04T17:49:12.000Z</time>
      </trkpt>
      <trkpt lat="37.083196" lon="-79.604424">
        <ele>259.211056</ele>
        <time>2025-04-04T17:49:15.000Z</time>
      </trkpt>
      <trkpt lat="37.083363" lon="-79.604121">
        <ele>259.295101</ele>
        <time>2025-04-04T17:49:18.000Z</time>
      </trkpt>
      <trkpt lat="37.083613" lon="-79.603819">
        <ele>259.385769</ele>
        <time>2025-04-04T17:49:22.000Z</time>
      </trkpt>
      <trkpt lat="37.083915" lon="-79.603626">
        <ele>259.479888</ele>
        <time>2025-04-04T17:49:26.000Z</time>
      </trkpt>
      <trkpt lat="37.085178" lon="-79.60316">
        <ele>259.568606</ele>
        <time>2025-04-04T17:49:41.000Z</time>
      </trkpt>
      <trkpt lat="37.085434" lon="-79.602978">
        <ele>259.543043</ele>
        <time>2025-04-04T17:49:44.000Z</time>
      </trkpt>
      <trkpt lat="37.085661" lon="-79.602706">
        <ele>259.516809</ele>
        <time>2025-04-04T17:49:47.000Z</time>
      </trkpt>
      <trkpt lat="37.085821" lon="-79.602453">
        <ele>259.494065</ele>
        <time>2025-04-04T17:49:50.000Z</time>
      </trkpt>
      <trkpt lat="37.086018" lon="-79.60202">
        <ele>259.853028</ele>
        <time>2025-04-04T17:49:54.000Z</time>
      </trkpt>
      <trkpt lat="37.086764" lon="-79.599721">
        <ele>263.24434</ele>
        <time>2025-04-04T17:50:16.000Z</time>
      </trkpt>
      <trkpt lat="37.086907" lon="-79.599378">
        <ele>263.828863</ele>
        <time>2025-04-04T17:50:19.000Z</time>
      </trkpt>
      <trkpt lat="37.086973" lon="-79.599258">
        <ele>264.041908</ele>
        <time>2025-04-04T17:50:20.000Z</time>
      </trkpt>
      <trkpt lat="37.08729" lon="-79.598937">
        <ele>264.830712</ele>
        <time>2025-04-04T17:50:25.000Z</time>
      </trkpt>
      <trkpt lat="37.087765" lon="-79.598593">
        <ele>265.859768</ele>
        <time>2025-04-04T17:50:31.000Z</time>
      </trkpt>
      <trkpt lat="37.088274" lon="-79.598219">
        <ele>268.076724</ele>
        <time>2025-04-04T17:50:38.000Z</time>
      </trkpt>
      <trkpt lat="37.088592" lon="-79.59789">
        <ele>269.656093</ele>
        <time>2025-04-04T17:50:43.000Z</time>
      </trkpt>
      <trkpt lat="37.089124" lon="-79.59713">
        <ele>272.698017</ele>
        <time>2025-04-04T17:50:52.000Z</time>
      </trkpt>
      <trkpt lat="37.089556" lon="-79.596371">
        <ele>274.646642</ele>
        <time>2025-04-04T17:51:00.000Z</time>
      </trkpt>
      <trkpt lat="37.089736" lon="-79.59607">
        <ele>275.438185</ele>
        <time>2025-04-04T17:51:03.000Z</time>
      </trkpt>
      <trkpt lat="37.089812" lon="-79.595933">
        <ele>275.79559</ele>
        <time>2025-04-04T17:51:04.000Z</time>
      </trkpt>
      <trkpt lat="37.090177" lon="-79.595304">
        <ele>277.390065</ele>
        <time>2025-04-04T17:51:11.000Z</time>
      </trkpt>
      <trkpt lat="37.091101" lon="-79.593644">
        <ele>277.626462</ele>
        <time>2025-04-04T17:51:29.000Z</time>
      </trkpt>
      <trkpt lat="37.091415" lon="-79.593145">
        <ele>277.125809</ele>
        <time>2025-04-04T17:51:35.000Z</time>
      </trkpt>
      <trkpt lat="37.091516" lon="-79.593435">
        <ele>276.71137</ele>
        <time>2025-04-04T17:51:38.000Z</time>
      </trkpt>
      <trkpt lat="37.092186" lon="-79.595275">
        <ele>273.878349</ele>
        <time>2025-04-04T17:51:56.000Z</time>
      </trkpt>
      <trkpt lat="37.093369" lon="-79.598662">
        <ele>266.75577</ele>
        <time>2025-04-04T17:52:29.000Z</time>
      </trkpt>
      <trkpt lat="37.094001" lon="-79.600383">
        <ele>261.489638</ele>
        <time>2025-04-04T17:52:46.000Z</time>
      </trkpt>
      <trkpt lat="37.094088" lon="-79.600663">
        <ele>260.574394</ele>
        <time>2025-04-04T17:52:49.000Z</time>
      </trkpt>
      <trkpt lat="37.094382" lon="-79.601488">
        <ele>258.759771</ele>
        <time>2025-04-04T17:52:57.000Z</time>
      </trkpt>
      <trkpt lat="37.094622" lon="-79.601891">
        <ele>258.069675</ele>
        <time>2025-04-04T17:53:01.000Z</time>
      </trkpt>
      <trkpt lat="37.094938" lon="-79.602215">
        <ele>257.37164</ele>
        <time>2025-04-04T17:53:06.000Z</time>
      </trkpt>
      <trkpt lat="37.09588" lon="-79.602934">
        <ele>255.449084</ele>
        <time>2025-04-04T17:53:18.000Z</time>
      </trkpt>
      <trkpt lat="37.096073" lon="-79.603122">
        <ele>255.024781</ele>
        <time>2025-04-04T17:53:21.000Z</time>
      </trkpt>
      <trkpt lat="37.096968" lon="-79.604261">
        <ele>252.934698</ele>
        <time>2025-04-04T17:53:35.000Z</time>
      </trkpt>
      <trkpt lat="37.097074" lon="-79.604433">
        <ele>252.705</ele>
        <time>2025-04-04T17:53:37.000Z</time>
      </trkpt>
      <trkpt lat="37.097235" lon="-79.604781">
        <ele>252.310552</ele>
        <time>2025-04-04T17:53:41.000Z</time>
      </trkpt>
      <trkpt lat="37.097315" lon="-79.605105">
        <ele>251.956663</ele>
        <time>2025-04-04T17:53:44.000Z</time>
      </trkpt>
      <trkpt lat="37.097342" lon="-79.605489">
        <ele>251.582118</ele>
        <time>2025-04-04T17:53:47.000Z</time>
      </trkpt>
      <trkpt lat="37.097216" lon="-79.607925">
        <ele>252.216626</ele>
        <time>2025-04-04T17:54:09.000Z</time>
      </trkpt>
      <trkpt lat="37.097102" lon="-79.608399">
        <ele>252.551767</ele>
        <time>2025-04-04T17:54:13.000Z</time>
      </trkpt>
      <trkpt lat="37.097023" lon="-79.608621">
        <ele>252.738723</ele>
        <time>2025-04-04T17:54:15.000Z</time>
      </trkpt>
      <trkpt lat="37.096867" lon="-79.608859">
        <ele>252.967707</ele>
        <time>2025-04-04T17:54:18.000Z</time>
      </trkpt>
      <trkpt lat="37.096709" lon="-79.609009">
        <ele>253.154278</ele>
        <time>2025-04-04T17:54:20.000Z</time>
      </trkpt>
      <trkpt lat="37.096678" lon="-79.609025">
        <ele>253.190918</ele>
        <time>2025-04-04T17:54:20.000Z</time>
      </trkpt>
      <trkpt lat="37.09642" lon="-79.609225">
        <ele>253.467889</ele>
        <time>2025-04-04T17:54:23.000Z</time>
      </trkpt>
      <trkpt lat="37.096142" lon="-79.609394">
        <ele>253.751991</ele>
        <time>2025-04-04T17:54:26.000Z</time>
      </trkpt>
      <trkpt lat="37.096011" lon="-79.609502">
        <ele>253.898898</ele>
        <time>2025-04-04T17:54:28.000Z</time>
      </trkpt>
      <trkpt lat="37.095787" lon="-79.609869">
        <ele>254.173207</ele>
        <time>2025-04-04T17:54:32.000Z</time>
      </trkpt>
      <trkpt lat="37.095728" lon="-79.609919">
        <ele>254.17321</ele>
        <time>2025-04-04T17:54:33.000Z</time>
      </trkpt>
      <trkpt lat="37.095675" lon="-79.609946">
        <ele>254.173215</ele>
        <time>2025-04-04T17:54:34.000Z</time>
      </trkpt>
      <trkpt lat="37.095635" lon="-79.610049">
        <ele>254.173207</ele>
        <time>2025-04-04T17:54:35.000Z</time>
      </trkpt>
      <trkpt lat="37.095589" lon="-79.610103">
        <ele>254.173215</ele>
        <time>2025-04-04T17:54:36.000Z</time>
      </trkpt>
      <trkpt lat="37.095079" lon="-79.610383">
        <ele>254.17321</ele>
        <time>2025-04-04T17:54:42.000Z</time>
      </trkpt>
      <trkpt lat="37.095078" lon="-79.610381">
        <ele>254.173218</ele>
        <time>2025-04-04T17:54:42.000Z</time>
      </trkpt>
      <trkpt lat="37.095038" lon="-79.610381">
        <ele>254.173209</ele>
        <time>2025-04-04T17:54:42.000Z</time>
      </trkpt>
      <trkpt lat="37.094968" lon="-79.610339">
        <ele>254.173221</ele>
        <time>2025-04-04T17:54:43.000Z</time>
      </trkpt>
      <trkpt lat="37.094913" lon="-79.610183">
        <ele>254.173221</ele>
        <time>2025-04-04T17:54:45.000Z</time>
      </trkpt>
      <trkpt lat="37.095455" lon="-79.609866">
        <ele>254.173221</ele>
        <time>2025-04-04T17:54:52.000Z</time>
      </trkpt>
      <trkpt lat="37.09548" lon="-79.609844">
        <ele>253.764443</ele>
        <time>2025-04-04T17:54:52.000Z</time>
      </trkpt>
      <trkpt lat="37.095525" lon="-79.609829">
        <ele>253.764456</ele>
        <time>2025-04-04T17:54:53.000Z</time>
      </trkpt>
      <trkpt lat="37.095606" lon="-79.609822">
        <ele>253.764447</ele>
        <time>2025-04-04T17:54:54.000Z</time>
      </trkpt>
      <trkpt lat="37.095608" lon="-79.60978">
        <ele>253.764443</ele>
        <time>2025-04-04T17:54:54.000Z</time>
      </trkpt>
      <trkpt lat="37.09569" lon="-79.609698">
        <ele>253.764449</ele>
        <time>2025-04-04T17:54:55.000Z</time>
      </trkpt>
      <trkpt lat="37.095997" lon="-79.609495">
        <ele>253.764451</ele>
        <time>2025-04-04T17:54:59.000Z</time>
      </trkpt>
      <trkpt lat="37.096145" lon="-79.609408">
        <ele>253.764455</ele>
        <time>2025-04-04T17:55:01.000Z</time>
      </trkpt>
      <trkpt lat="37.096413" lon="-79.609228">
        <ele>253.577007</ele>
        <time>2025-04-04T17:55:04.000Z</time>
      </trkpt>
      <trkpt lat="37.096666" lon="-79.609043">
        <ele>253.258518</ele>
        <time>2025-04-04T17:55:07.000Z</time>
      </trkpt>
      <trkpt lat="37.096714" lon="-79.609017">
        <ele>253.216395</ele>
        <time>2025-04-04T17:55:08.000Z</time>
      </trkpt>
      <trkpt lat="37.096865" lon="-79.608855">
        <ele>253.001839</ele>
        <time>2025-04-04T17:55:10.000Z</time>
      </trkpt>
      <trkpt lat="37.097023" lon="-79.608626">
        <ele>252.738535</ele>
        <time>2025-04-04T17:55:13.000Z</time>
      </trkpt>
      <trkpt lat="37.097115" lon="-79.608385">
        <ele>252.523544</ele>
        <time>2025-04-04T17:55:15.000Z</time>
      </trkpt>
      <trkpt lat="37.097208" lon="-79.607924">
        <ele>252.109426</ele>
        <time>2025-04-04T17:55:19.000Z</time>
      </trkpt>
      <trkpt lat="37.097342" lon="-79.605474">
        <ele>251.212159</ele>
        <time>2025-04-04T17:55:41.000Z</time>
      </trkpt>
      <trkpt lat="37.097314" lon="-79.605111">
        <ele>251.53211</ele>
        <time>2025-04-04T17:55:44.000Z</time>
      </trkpt>
      <trkpt lat="37.097234" lon="-79.604768">
        <ele>252.028111</ele>
        <time>2025-04-04T17:55:47.000Z</time>
      </trkpt>
      <trkpt lat="37.097078" lon="-79.604438">
        <ele>252.58093</ele>
        <time>2025-04-04T17:55:50.000Z</time>
      </trkpt>
      <trkpt lat="37.096971" lon="-79.604265">
        <ele>252.902862</ele>
        <time>2025-04-04T17:55:52.000Z</time>
      </trkpt>
      <trkpt lat="37.096073" lon="-79.60314">
        <ele>255.079639</ele>
        <time>2025-04-04T17:56:06.000Z</time>
      </trkpt>
      <trkpt lat="37.095871" lon="-79.602937">
        <ele>255.472655</ele>
        <time>2025-04-04T17:56:09.000Z</time>
      </trkpt>
      <trkpt lat="37.094926" lon="-79.602203">
        <ele>257.255545</ele>
        <time>2025-04-04T17:56:21.000Z</time>
      </trkpt>
      <trkpt lat="37.094626" lon="-79.601891">
        <ele>258.14415</ele>
        <time>2025-04-04T17:56:25.000Z</time>
      </trkpt>
      <trkpt lat="37.094387" lon="-79.601485">
        <ele>259.025728</ele>
        <time>2025-04-04T17:56:29.000Z</time>
      </trkpt>
      <trkpt lat="37.094096" lon="-79.600665">
        <ele>260.614512</ele>
        <time>2025-04-04T17:56:37.000Z</time>
      </trkpt>
      <trkpt lat="37.093996" lon="-79.600386">
        <ele>261.16888</ele>
        <time>2025-04-04T17:56:40.000Z</time>
      </trkpt>
      <trkpt lat="37.09336" lon="-79.598671">
        <ele>266.773462</ele>
        <time>2025-04-04T17:56:57.000Z</time>
      </trkpt>
      <trkpt lat="37.092179" lon="-79.595281">
        <ele>273.865121</ele>
        <time>2025-04-04T17:57:30.000Z</time>
      </trkpt>
      <trkpt lat="37.091519" lon="-79.593439">
        <ele>276.617771</ele>
        <time>2025-04-04T17:57:48.000Z</time>
      </trkpt>
      <trkpt lat="37.091413" lon="-79.593138">
        <ele>276.889139</ele>
        <time>2025-04-04T17:57:51.000Z</time>
      </trkpt>
      <trkpt lat="37.091093" lon="-79.59365">
        <ele>277.430227</ele>
        <time>2025-04-04T17:57:57.000Z</time>
      </trkpt>
      <trkpt lat="37.090169" lon="-79.595294">
        <ele>276.958573</ele>
        <time>2025-04-04T17:58:15.000Z</time>
      </trkpt>
      <trkpt lat="37.089827" lon="-79.595921">
        <ele>276.432608</ele>
        <time>2025-04-04T17:58:22.000Z</time>
      </trkpt>
      <trkpt lat="37.089736" lon="-79.596065">
        <ele>275.954344</ele>
        <time>2025-04-04T17:58:24.000Z</time>
      </trkpt>
      <trkpt lat="37.089572" lon="-79.596364">
        <ele>274.895162</ele>
        <time>2025-04-04T17:58:27.000Z</time>
      </trkpt>
      <trkpt lat="37.089127" lon="-79.597139">
        <ele>272.287654</ele>
        <time>2025-04-04T17:58:35.000Z</time>
      </trkpt>
      <trkpt lat="37.088587" lon="-79.597891">
        <ele>269.551819</ele>
        <time>2025-04-04T17:58:44.000Z</time>
      </trkpt>
      <trkpt lat="37.088278" lon="-79.598219">
        <ele>268.241928</ele>
        <time>2025-04-04T17:58:49.000Z</time>
      </trkpt>
      <trkpt lat="37.08777" lon="-79.598599">
        <ele>266.390512</ele>
        <time>2025-04-04T17:58:56.000Z</time>
      </trkpt>
      <trkpt lat="37.087295" lon="-79.598934">
        <ele>264.686855</ele>
        <time>2025-04-04T17:59:02.000Z</time>
      </trkpt>
      <trkpt lat="37.086976" lon="-79.599262">
        <ele>263.894039</ele>
        <time>2025-04-04T17:59:07.000Z</time>
      </trkpt>
      <trkpt lat="37.086899" lon="-79.599376">
        <ele>263.691873</ele>
        <time>2025-04-04T17:59:08.000Z</time>
      </trkpt>
      <trkpt lat="37.086757" lon="-79.599715">
        <ele>263.137275</ele>
        <time>2025-04-04T17:59:11.000Z</time>
      </trkpt>
      <trkpt lat="37.086006" lon="-79.602022">
        <ele>260.165841</ele>
        <time>2025-04-04T17:59:33.000Z</time>
      </trkpt>
      <trkpt lat="37.085826" lon="-79.602443">
        <ele>259.700793</ele>
        <time>2025-04-04T17:59:37.000Z</time>
      </trkpt>
      <trkpt lat="37.085671" lon="-79.602716">
        <ele>259.385273</ele>
        <time>2025-04-04T17:59:40.000Z</time>
      </trkpt>
      <trkpt lat="37.085435" lon="-79.602966">
        <ele>259.251173</ele>
        <time>2025-04-04T17:59:43.000Z</time>
      </trkpt>
      <trkpt lat="37.085192" lon="-79.603167">
        <ele>259.344381</ele>
        <time>2025-04-04T17:59:46.000Z</time>
      </trkpt>
      <trkpt lat="37.083918" lon="-79.603633">
        <ele>259.75909</ele>
        <time>2025-04-04T18:00:01.000Z</time>
      </trkpt>
      <trkpt lat="37.083616" lon="-79.603827">
        <ele>259.56476</ele>
        <time>2025-04-04T18:00:05.000Z</time>
      </trkpt>
      <trkpt lat="37.08337" lon="-79.604105">
        <ele>259.357177</ele>
        <time>2025-04-04T18:00:09.000Z</time>
      </trkpt>
      <trkpt lat="37.083188" lon="-79.604436">
        <ele>259.164793</ele>
        <time>2025-04-04T18:00:13.000Z</time>
      </trkpt>
      <trkpt lat="37.083108" lon="-79.604694">
        <ele>259.017354</ele>
        <time>2025-04-04T18:00:15.000Z</time>
      </trkpt>
      <trkpt lat="37.082955" lon="-79.606604">
        <ele>258.729043</ele>
        <time>2025-04-04T18:00:32.000Z</time>
      </trkpt>
      <trkpt lat="37.082893" lon="-79.606948">
        <ele>258.75829</ele>
        <time>2025-04-04T18:00:35.000Z</time>
      </trkpt>
      <trkpt lat="37.082803" lon="-79.607149">
        <ele>258.775839</ele>
        <time>2025-04-04T18:00:37.000Z</time>
      </trkpt>
      <trkpt lat="37.082605" lon="-79.607483">
        <ele>258.810201</ele>
        <time>2025-04-04T18:00:41.000Z</time>
      </trkpt>
      <trkpt lat="37.082447" lon="-79.607642">
        <ele>258.519657</ele>
        <time>2025-04-04T18:00:43.000Z</time>
      </trkpt>
      <trkpt lat="37.08214" lon="-79.6078">
        <ele>257.683886</ele>
        <time>2025-04-04T18:00:47.000Z</time>
      </trkpt>
      <trkpt lat="37.08157" lon="-79.608021">
        <ele>256.17836</ele>
        <time>2025-04-04T18:00:54.000Z</time>
      </trkpt>
      <trkpt lat="37.081301" lon="-79.608209">
        <ele>255.390745</ele>
        <time>2025-04-04T18:00:57.000Z</time>
      </trkpt>
      <trkpt lat="37.080938" lon="-79.608515">
        <ele>254.256317</ele>
        <time>2025-04-04T18:01:02.000Z</time>
      </trkpt>
      <trkpt lat="37.080351" lon="-79.609078">
        <ele>251.354342</ele>
        <time>2025-04-04T18:01:10.000Z</time>
      </trkpt>
      <trkpt lat="37.080138" lon="-79.609344">
        <ele>250.159841</ele>
        <time>2025-04-04T18:01:13.000Z</time>
      </trkpt>
      <trkpt lat="37.080092" lon="-79.609438">
        <ele>249.792386</ele>
        <time>2025-04-04T18:01:14.000Z</time>
      </trkpt>
      <trkpt lat="37.080043" lon="-79.609653">
        <ele>249.068382</ele>
        <time>2025-04-04T18:01:16.000Z</time>
      </trkpt>
      <trkpt lat="37.080023" lon="-79.609834">
        <ele>248.487177</ele>
        <time>2025-04-04T18:01:18.000Z</time>
      </trkpt>
      <trkpt lat="37.080048" lon="-79.610267">
        <ele>247.082743</ele>
        <time>2025-04-04T18:01:22.000Z</time>
      </trkpt>
      <trkpt lat="37.080018" lon="-79.610435">
        <ele>247.025919</ele>
        <time>2025-04-04T18:01:24.000Z</time>
      </trkpt>
      <trkpt lat="37.079994" lon="-79.610517">
        <ele>246.999483</ele>
        <time>2025-04-04T18:01:25.000Z</time>
      </trkpt>
      <trkpt lat="37.079742" lon="-79.610761">
        <ele>246.868134</ele>
        <time>2025-04-04T18:01:29.000Z</time>
      </trkpt>
      <trkpt lat="37.079649" lon="-79.610897">
        <ele>246.814839</ele>
        <time>2025-04-04T18:01:31.000Z</time>
      </trkpt>
      <trkpt lat="37.079533" lon="-79.611189">
        <ele>246.710821</ele>
        <time>2025-04-04T18:01:34.000Z</time>
      </trkpt>
      <trkpt lat="37.079453" lon="-79.611525">
        <ele>246.599273</ele>
        <time>2025-04-04T18:01:37.000Z</time>
      </trkpt>
      <trkpt lat="37.079359" lon="-79.611694">
        <ele>246.536559</ele>
        <time>2025-04-04T18:01:39.000Z</time>
      </trkpt>
      <trkpt lat="37.079176" lon="-79.611858">
        <ele>246.445662</ele>
        <time>2025-04-04T18:01:42.000Z</time>
      </trkpt>
      <trkpt lat="37.078786" lon="-79.611978">
        <ele>246.664015</ele>
        <time>2025-04-04T18:01:46.000Z</time>
      </trkpt>
      <trkpt lat="37.078662" lon="-79.612063">
        <ele>246.858285</ele>
        <time>2025-04-04T18:01:48.000Z</time>
      </trkpt>
      <trkpt lat="37.078579" lon="-79.612138">
        <ele>247.013455</ele>
        <time>2025-04-04T18:01:49.000Z</time>
      </trkpt>
      <trkpt lat="37.078525" lon="-79.612261">
        <ele>247.167576</ele>
        <time>2025-04-04T18:01:50.000Z</time>
      </trkpt>
      <trkpt lat="37.078481" lon="-79.612438">
        <ele>247.396604</ele>
        <time>2025-04-04T18:01:52.000Z</time>
      </trkpt>
      <trkpt lat="37.078479" lon="-79.612628">
        <ele>247.62673</ele>
        <time>2025-04-04T18:01:54.000Z</time>
      </trkpt>
      <trkpt lat="37.078571" lon="-79.613035">
        <ele>248.130409</ele>
        <time>2025-04-04T18:01:58.000Z</time>
      </trkpt>
      <trkpt lat="37.078682" lon="-79.613356">
        <ele>248.559583</ele>
        <time>2025-04-04T18:02:01.000Z</time>
      </trkpt>
      <trkpt lat="37.07883" lon="-79.613719">
        <ele>249.018182</ele>
        <time>2025-04-04T18:02:05.000Z</time>
      </trkpt>
      <trkpt lat="37.079074" lon="-79.614108">
        <ele>249.206645</ele>
        <time>2025-04-04T18:02:09.000Z</time>
      </trkpt>
      <trkpt lat="37.079209" lon="-79.614463">
        <ele>249.329327</ele>
        <time>2025-04-04T18:02:12.000Z</time>
      </trkpt>
      <trkpt lat="37.079274" lon="-79.61482">
        <ele>249.450228</ele>
        <time>2025-04-04T18:02:15.000Z</time>
      </trkpt>
      <trkpt lat="37.079295" lon="-79.615065">
        <ele>249.529675</ele>
        <time>2025-04-04T18:02:17.000Z</time>
      </trkpt>
      <trkpt lat="37.0793" lon="-79.615247">
        <ele>249.583365</ele>
        <time>2025-04-04T18:02:19.000Z</time>
      </trkpt>
      <trkpt lat="37.079246" lon="-79.615391">
        <ele>249.63635</ele>
        <time>2025-04-04T18:02:20.000Z</time>
      </trkpt>
      <trkpt lat="37.079225" lon="-79.61544">
        <ele>249.656076</ele>
        <time>2025-04-04T18:02:20.000Z</time>
      </trkpt>
      <trkpt lat="37.07926" lon="-79.615397">
        <ele>249.675824</ele>
        <time>2025-04-04T18:02:21.000Z</time>
      </trkpt>
      <trkpt lat="37.079287" lon="-79.61525">
        <ele>249.728799</ele>
        <time>2025-04-04T18:02:22.000Z</time>
      </trkpt>
      <trkpt lat="37.079285" lon="-79.615068">
        <ele>249.752625</ele>
        <time>2025-04-04T18:02:24.000Z</time>
      </trkpt>
      <trkpt lat="37.079284" lon="-79.614831">
        <ele>249.583198</ele>
        <time>2025-04-04T18:02:26.000Z</time>
      </trkpt>
      <trkpt lat="37.079219" lon="-79.614452">
        <ele>249.32531</ele>
        <time>2025-04-04T18:02:29.000Z</time>
      </trkpt>
      <trkpt lat="37.079073" lon="-79.614111">
        <ele>249.063663</ele>
        <time>2025-04-04T18:02:32.000Z</time>
      </trkpt>
      <trkpt lat="37.078828" lon="-79.613712">
        <ele>248.715099</ele>
        <time>2025-04-04T18:02:36.000Z</time>
      </trkpt>
      <trkpt lat="37.078683" lon="-79.613369">
        <ele>248.452924</ele>
        <time>2025-04-04T18:02:39.000Z</time>
      </trkpt>
      <trkpt lat="37.078587" lon="-79.613037">
        <ele>248.195206</ele>
        <time>2025-04-04T18:02:42.000Z</time>
      </trkpt>
      <trkpt lat="37.078486" lon="-79.612635">
        <ele>247.782784</ele>
        <time>2025-04-04T18:02:46.000Z</time>
      </trkpt>
      <trkpt lat="37.078482" lon="-79.612437">
        <ele>247.594344</ele>
        <time>2025-04-04T18:02:48.000Z</time>
      </trkpt>
      <trkpt lat="37.078529" lon="-79.61225">
        <ele>247.406804</ele>
        <time>2025-04-04T18:02:50.000Z</time>
      </trkpt>
      <trkpt lat="37.078589" lon="-79.612156">
        <ele>247.280622</ele>
        <time>2025-04-04T18:02:51.000Z</time>
      </trkpt>
      <trkpt lat="37.078664" lon="-79.612066">
        <ele>247.153547</ele>
        <time>2025-04-04T18:02:52.000Z</time>
      </trkpt>
      <trkpt lat="37.078786" lon="-79.611977">
        <ele>246.994462</ele>
        <time>2025-04-04T18:02:54.000Z</time>
      </trkpt>
      <trkpt lat="37.079164" lon="-79.611851">
        <ele>246.498155</ele>
        <time>2025-04-04T18:02:58.000Z</time>
      </trkpt>
      <trkpt lat="37.079365" lon="-79.611684">
        <ele>246.218024</ele>
        <time>2025-04-04T18:03:01.000Z</time>
      </trkpt>
      <trkpt lat="37.079459" lon="-79.611535">
        <ele>246.046848</ele>
        <time>2025-04-04T18:03:03.000Z</time>
      </trkpt>
      <trkpt lat="37.079545" lon="-79.611192">
        <ele>246.448896</ele>
        <time>2025-04-04T18:03:06.000Z</time>
      </trkpt>
      <trkpt lat="37.079653" lon="-79.61089">
        <ele>246.823835</ele>
        <time>2025-04-04T18:03:09.000Z</time>
      </trkpt>
      <trkpt lat="37.079731" lon="-79.610776">
        <ele>247.015906</ele>
        <time>2025-04-04T18:03:10.000Z</time>
      </trkpt>
      <trkpt lat="37.079997" lon="-79.610501">
        <ele>247.489323</ele>
        <time>2025-04-04T18:03:14.000Z</time>
      </trkpt>
      <trkpt lat="37.080035" lon="-79.610439">
        <ele>247.584624</ele>
        <time>2025-04-04T18:03:15.000Z</time>
      </trkpt>
      <trkpt lat="37.080059" lon="-79.610274">
        <ele>247.77564</ele>
        <time>2025-04-04T18:03:16.000Z</time>
      </trkpt>
      <trkpt lat="37.080015" lon="-79.609836">
        <ele>248.278997</ele>
        <time>2025-04-04T18:03:20.000Z</time>
      </trkpt>
      <trkpt lat="37.080033" lon="-79.609651">
        <ele>248.487309</ele>
        <time>2025-04-04T18:03:22.000Z</time>
      </trkpt>
      <trkpt lat="37.080097" lon="-79.609441">
        <ele>249.055084</ele>
        <time>2025-04-04T18:03:24.000Z</time>
      </trkpt>
      <trkpt lat="37.080155" lon="-79.609338">
        <ele>249.481976</ele>
        <time>2025-04-04T18:03:25.000Z</time>
      </trkpt>
      <trkpt lat="37.080356" lon="-79.609083">
        <ele>250.869759</ele>
        <time>2025-04-04T18:03:28.000Z</time>
      </trkpt>
      <trkpt lat="37.080935" lon="-79.608523">
        <ele>254.241264</ele>
        <time>2025-04-04T18:03:36.000Z</time>
      </trkpt>
      <trkpt lat="37.0813" lon="-79.608201">
        <ele>256.314646</ele>
        <time>2025-04-04T18:03:41.000Z</time>
      </trkpt>
      <trkpt lat="37.081573" lon="-79.60802">
        <ele>257.104568</ele>
        <time>2025-04-04T18:03:44.000Z</time>
      </trkpt>
      <trkpt lat="37.08215" lon="-79.607799">
        <ele>257.621477</ele>
        <time>2025-04-04T18:03:51.000Z</time>
      </trkpt>
      <trkpt lat="37.082447" lon="-79.607639">
        <ele>257.908441</ele>
        <time>2025-04-04T18:03:55.000Z</time>
      </trkpt>
      <trkpt lat="37.082604" lon="-79.607479">
        <ele>258.092477</ele>
        <time>2025-04-04T18:03:57.000Z</time>
      </trkpt>
      <trkpt lat="37.082817" lon="-79.607137">
        <ele>258.381314</ele>
        <time>2025-04-04T18:04:01.000Z</time>
      </trkpt>
      <trkpt lat="37.082881" lon="-79.606951">
        <ele>258.523115</ele>
        <time>2025-04-04T18:04:03.000Z</time>
      </trkpt>
      <trkpt lat="37.082961" lon="-79.606613">
        <ele>258.620531</ele>
        <time>2025-04-04T18:04:06.000Z</time>
      </trkpt>
      <trkpt lat="37.083118" lon="-79.604692">
        <ele>259.146666</ele>
        <time>2025-04-04T18:04:23.000Z</time>
      </trkpt>
      <trkpt lat="37.083187" lon="-79.604431">
        <ele>259.211071</ele>
        <time>2025-04-04T18:04:25.000Z</time>
      </trkpt>
      <trkpt lat="37.083375" lon="-79.604108">
        <ele>259.29511</ele>
        <time>2025-04-04T18:04:29.000Z</time>
      </trkpt>
      <trkpt lat="37.083613" lon="-79.603834">
        <ele>259.385783</ele>
        <time>2025-04-04T18:04:33.000Z</time>
      </trkpt>
      <trkpt lat="37.083906" lon="-79.603633">
        <ele>259.479888</ele>
        <time>2025-04-04T18:04:37.000Z</time>
      </trkpt>
      <trkpt lat="37.085195" lon="-79.603162">
        <ele>259.568609</ele>
        <time>2025-04-04T18:04:52.000Z</time>
      </trkpt>
      <trkpt lat="37.085448" lon="-79.602973">
        <ele>259.543043</ele>
        <time>2025-04-04T18:04:55.000Z</time>
      </trkpt>
      <trkpt lat="37.085662" lon="-79.60271">
        <ele>259.516806</ele>
        <time>2025-04-04T18:04:58.000Z</time>
      </trkpt>
      <trkpt lat="37.08583" lon="-79.602455">
        <ele>259.494055</ele>
        <time>2025-04-04T18:05:01.000Z</time>
      </trkpt>
      <trkpt lat="37.086017" lon="-79.602011">
        <ele>259.853023</ele>
        <time>2025-04-04T18:05:05.000Z</time>
      </trkpt>
      <trkpt lat="37.086753" lon="-79.599717">
        <ele>263.244349</ele>
        <time>2025-04-04T18:05:27.000Z</time>
      </trkpt>
      <trkpt lat="37.086897" lon="-79.599372">
        <ele>263.828854</ele>
        <time>2025-04-04T18:05:30.000Z</time>
      </trkpt>
      <trkpt lat="37.086966" lon="-79.599251">
        <ele>264.041908</ele>
        <time>2025-04-04T18:05:31.000Z</time>
      </trkpt>
      <trkpt lat="37.087301" lon="-79.598938">
        <ele>264.830698</ele>
        <time>2025-04-04T18:05:36.000Z</time>
      </trkpt>
      <trkpt lat="37.087768" lon="-79.598602">
        <ele>265.859756</ele>
        <time>2025-04-04T18:05:42.000Z</time>
      </trkpt>
      <trkpt lat="37.088266" lon="-79.598213">
        <ele>268.076718</ele>
        <time>2025-04-04T18:05:49.000Z</time>
      </trkpt>
      <trkpt lat="37.088592" lon="-79.597878">
        <ele>269.656088</ele>
        <time>2025-04-04T18:05:54.000Z</time>
      </trkpt>
      <trkpt lat="37.089127" lon="-79.597139">
        <ele>272.698026</ele>
        <time>2025-04-04T18:06:03.000Z</time>
      </trkpt>
      <trkpt lat="37.08956" lon="-79.596381">
        <ele>274.646649</ele>
        <time>2025-04-04T18:06:11.000Z</time>
      </trkpt>
      <trkpt lat="37.089744" lon="-79.596067">
        <ele>275.438177</ele>
        <time>2025-04-04T18:06:14.000Z</time>
      </trkpt>
      <trkpt lat="37.089828" lon="-79.595926">
        <ele>275.795581</ele>
        <time>2025-04-04T18:06:16.000Z</time>
      </trkpt>
      <trkpt lat="37.090173" lon="-79.595301">
        <ele>277.39005</ele>
        <time>2025-04-04T18:06:23.000Z</time>
      </trkpt>
      <trkpt lat="37.091093" lon="-79.593648">
        <ele>277.626449</ele>
        <time>2025-04-04T18:06:41.000Z</time>
      </trkpt>
      <trkpt lat="37.091408" lon="-79.593149">
        <ele>277.125801</ele>
        <time>2025-04-04T18:06:47.000Z</time>
      </trkpt>
      <trkpt lat="37.091515" lon="-79.593445">
        <ele>276.711373</ele>
        <time>2025-04-04T18:06:50.000Z</time>
      </trkpt>
      <trkpt lat="37.092194" lon="-79.595275">
        <ele>273.878354</ele>
        <time>2025-04-04T18:07:08.000Z</time>
      </trkpt>
      <trkpt lat="37.093362" lon="-79.598668">
        <ele>266.755765</ele>
        <time>2025-04-04T18:07:41.000Z</time>
      </trkpt>
      <trkpt lat="37.093986" lon="-79.600382">
        <ele>261.489642</ele>
        <time>2025-04-04T18:07:58.000Z</time>
      </trkpt>
      <trkpt lat="37.094099" lon="-79.600665">
        <ele>260.574383</ele>
        <time>2025-04-04T18:08:01.000Z</time>
      </trkpt>
      <trkpt lat="37.094382" lon="-79.601484">
        <ele>258.759774</ele>
        <time>2025-04-04T18:08:09.000Z</time>
      </trkpt>
      <trkpt lat="37.094619" lon="-79.601891">
        <ele>258.069677</ele>
        <time>2025-04-04T18:08:13.000Z</time>
      </trkpt>
      <trkpt lat="37.09494" lon="-79.602214">
        <ele>257.371632</ele>
        <time>2025-04-04T18:08:18.000Z</time>
      </trkpt>
      <trkpt lat="37.095879" lon="-79.60293">
        <ele>255.449092</ele>
        <time>2025-04-04T18:08:30.000Z</time>
      </trkpt>
      <trkpt lat="37.096059" lon="-79.603134">
        <ele>255.024767</ele>
        <time>2025-04-04T18:08:33.000Z</time>
      </trkpt>
      <trkpt lat="37.096958" lon="-79.604259">
        <ele>252.934707</ele>
        <time>2025-04-04T18:08:47.000Z</time>
      </trkpt>
      <trkpt lat="37.097072" lon="-79.604429">
        <ele>252.705</ele>
        <time>2025-04-04T18:08:49.000Z</time>
      </trkpt>
      <trkpt lat="37.097222" lon="-79.604781">
        <ele>252.310557</ele>
        <time>2025-04-04T18:08:53.000Z</time>
      </trkpt>
      <trkpt lat="37.097309" lon="-79.605103">
        <ele>251.956663</ele>
        <time>2025-04-04T18:08:56.000Z</time>
      </trkpt>
      <trkpt lat="37.097343" lon="-79.605477">
        <ele>251.58212</ele>
        <time>2025-04-04T18:08:59.000Z</time>
      </trkpt>
      <trkpt lat="37.097207" lon="-79.607919">
        <ele>252.216624</ele>
        <time>2025-04-04T18:09:21.000Z</time>
      </trkpt>
      <trkpt lat="37.097107" lon="-79.608391">
        <ele>252.551756</ele>
        <time>2025-04-04T18:09:25.000Z</time>
      </trkpt>
      <trkpt lat="37.097026" lon="-79.608614">
        <ele>252.738731</ele>
        <time>2025-04-04T18:09:27.000Z</time>
      </trkpt>
      <trkpt lat="37.096873" lon="-79.608855">
        <ele>252.96771</ele>
        <time>2025-04-04T18:09:30.000Z</time>
      </trkpt>
      <trkpt lat="37.0967" lon="-79.609014">
        <ele>253.15428</ele>
        <time>2025-04-04T18:09:32.000Z</time>
      </trkpt>
      <trkpt lat="37.096663" lon="-79.609041">
        <ele>253.190912</ele>
        <time>2025-04-04T18:09:32.000Z</time>
      </trkpt>
      <trkpt lat="37.09641" lon="-79.60923">
        <ele>253.467899</ele>
        <time>2025-04-04T18:09:35.000Z</time>
      </trkpt>
      <trkpt lat="37.096153" lon="-79.609409">
        <ele>253.751981</ele>
        <time>2025-04-04T18:09:38.000Z</time>
      </trkpt>
      <trkpt lat="37.096013" lon="-79.609491">
        <ele>253.898904</ele>
        <time>2025-04-04T18:09:40.000Z</time>
      </trkpt>
      <trkpt lat="37.095792" lon="-79.609868">
        <ele>254.173219</ele>
        <time>2025-04-04T18:09:44.000Z</time>
      </trkpt>
      <trkpt lat="37.095737" lon="-79.609933">
        <ele>254.17322</ele>
        <time>2025-04-04T18:09:45.000Z</time>
      </trkpt>
      <trkpt lat="37.095679" lon="-79.609941">
        <ele>254.173206</ele>
        <time>2025-04-04T18:09:46.000Z</time>
      </trkpt>
      <trkpt lat="37.095624" lon="-79.610062">
        <ele>254.173214</ele>
        <time>2025-04-04T18:09:47.000Z</time>
      </trkpt>
      <trkpt lat="37.095594" lon="-79.610103">
        <ele>254.173204</ele>
        <time>2025-04-04T18:09:47.000Z</time>
      </trkpt>
      <trkpt lat="37.095087" lon="-79.610377">
        <ele>254.17321</ele>
        <time>2025-04-04T18:09:53.000Z</time>
      </trkpt>
      <trkpt lat="37.095065" lon="-79.610375">
        <ele>254.173212</ele>
        <time>2025-04-04T18:09:53.000Z</time>
      </trkpt>
      <trkpt lat="37.095031" lon="-79.610385">
        <ele>254.173214</ele>
        <time>2025-04-04T18:09:53.000Z</time>
      </trkpt>
      <trkpt lat="37.094974" lon="-79.610328">
        <ele>254.173216</ele>
        <time>2025-04-04T18:09:54.000Z</time>
      </trkpt>
      <trkpt lat="37.094909" lon="-79.610187">
        <ele>254.17321</ele>
        <time>2025-04-04T18:09:55.000Z</time>
      </trkpt>
      <trkpt lat="37.095441" lon="-79.609866">
        <ele>254.173221</ele>
        <time>2025-04-04T18:10:02.000Z</time>
      </trkpt>
      <trkpt lat="37.095481" lon="-79.609841">
        <ele>253.764448</ele>
        <time>2025-04-04T18:10:02.000Z</time>
      </trkpt>
      <trkpt lat="37.09553" lon="-79.609831">
        <ele>253.764451</ele>
        <time>2025-04-04T18:10:03.000Z</time>
      </trkpt>
      <trkpt lat="37.095596" lon="-79.609831">
        <ele>253.76444</ele>
        <time>2025-04-04T18:10:04.000Z</time>
      </trkpt>
      <trkpt lat="37.095613" lon="-79.609767">
        <ele>253.764449</ele>
        <time>2025-04-04T18:10:05.000Z</time>
      </trkpt>
      <trkpt lat="37.095682" lon="-79.609694">
        <ele>253.764446</ele>
        <time>2025-04-04T18:10:06.000Z</time>
      </trkpt>
      <trkpt lat="37.095998" lon="-79.609486">
        <ele>253.764444</ele>
        <time>2025-04-04T18:10:10.000Z</time>
      </trkpt>
      <trkpt lat="37.096154" lon="-79.609398">
        <ele>253.764448</ele>
        <time>2025-04-04T18:10:12.000Z</time>
      </trkpt>
      <trkpt lat="37.096406" lon="-79.609213">
        <ele>253.57702</ele>
        <time>2025-04-04T18:10:15.000Z</time>
      </trkpt>
      <trkpt lat="37.096665" lon="-79.609039">
        <ele>253.25852</ele>
        <time>2025-04-04T18:10:18.000Z</time>
      </trkpt>
      <trkpt lat="37.096701" lon="-79.609013">
        <ele>253.216381</ele>
        <time>2025-04-04T18:10:18.000Z</time>
      </trkpt>
      <trkpt lat="37.096868" lon="-79.608848">
        <ele>253.001846</ele>
        <time>2025-04-04T18:10:20.000Z</time>
      </trkpt>
      <trkpt lat="37.097019" lon="-79.608618">
        <ele>252.738535</ele>
        <time>2025-04-04T18:10:23.000Z</time>
      </trkpt>
      <trkpt lat="37.097111" lon="-79.608386">
        <ele>252.523531</ele>
        <time>2025-04-04T18:10:25.000Z</time>
      </trkpt>
      <trkpt lat="37.097215" lon="-79.607928">
        <ele>252.10943</ele>
        <time>2025-04-04T18:10:29.000Z</time>
      </trkpt>
      <trkpt lat="37.097348" lon="-79.605477">
        <ele>251.212171</ele>
        <time>2025-04-04T18:10:51.000Z</time>
      </trkpt>
      <trkpt lat="37.097311" lon="-79.605102">
        <ele>251.532123</ele>
        <time>2025-04-04T18:10:54.000Z</time>
      </trkpt>
      <trkpt lat="37.097232" lon="-79.604773">
        <ele>252.028123</ele>
        <time>2025-04-04T18:10:57.000Z</time>
      </trkpt>
      <trkpt lat="37.097079" lon="-79.604444">
        <ele>252.580929</ele>
        <time>2025-04-04T18:11:00.000Z</time>
      </trkpt>
      <trkpt lat="37.09696" lon="-79.604248">
        <ele>252.902858</ele>
        <time>2025-04-04T18:11:02.000Z</time>
      </trkpt>
      <trkpt lat="37.096069" lon="-79.60314">
        <ele>255.079641</ele>
        <time>2025-04-04T18:11:16.000Z</time>
      </trkpt>
      <trkpt lat="37.095885" lon="-79.602932">
        <ele>255.472656</ele>
        <time>2025-04-04T18:11:19.000Z</time>
      </trkpt>
      <trkpt lat="37.094931" lon="-79.602209">
        <ele>257.255543</ele>
        <time>2025-04-04T18:11:31.000Z</time>
      </trkpt>
      <trkpt lat="37.09462" lon="-79.601898">
        <ele>258.144152</ele>
        <time>2025-04-04T18:11:35.000Z</time>
      </trkpt>
      <trkpt lat="37.094389" lon="-79.601487">
        <ele>259.025737</ele>
        <time>2025-04-04T18:11:39.000Z</time>
      </trkpt>
      <trkpt lat="37.094103" lon="-79.600675">
        <ele>260.614497</ele>
        <time>2025-04-04T18:11:47.000Z</time>
      </trkpt>
      <trkpt lat="37.093986" lon="-79.600374">
        <ele>261.16888</ele>
        <time>2025-04-04T18:11:50.000Z</time>
      </trkpt>
      <trkpt lat="37.093368" lon="-79.598674">
        <ele>266.773462</ele>
        <time>2025-04-04T18:12:07.000Z</time>
      </trkpt>
      <trkpt lat="37.092179" lon="-79.595281">
        <ele>273.865128</ele>
        <time>2025-04-04T18:12:40.000Z</time>
      </trkpt>
      <trkpt lat="37.091525" lon="-79.593431">
        <ele>276.617761</ele>
        <time>2025-04-04T18:12:58.000Z</time>
      </trkpt>
      <trkpt lat="37.091405" lon="-79.59314">
        <ele>276.889123</ele>
        <time>2025-04-04T18:13:01.000Z</time>
      </trkpt>
      <trkpt lat="37.091095" lon="-79.593641">
        <ele>277.430213</ele>
        <time>2025-04-04T18:13:07.000Z</time>
      </trkpt>
      <trkpt lat="37.090179" lon="-79.595294">
        <ele>276.95857</ele>
        <time>2025-04-04T18:13:25.000Z</time>
      </trkpt>
      <trkpt lat="37.089812" lon="-79.595925">
        <ele>276.432604</ele>
        <time>2025-04-04T18:13:32.000Z</time>
      </trkpt>
      <trkpt lat="37.089746" lon="-79.596074">
        <ele>275.954357</ele>
        <time>2025-04-04T18:13:34.000Z</time>
      </trkpt>
      <trkpt lat="37.089567" lon="-79.596375">
        <ele>274.895159</ele>
        <time>2025-04-04T18:13:37.000Z</time>
      </trkpt>
      <trkpt lat="37.089135" lon="-79.597126">
        <ele>272.287661</ele>
        <time>2025-04-04T18:13:45.000Z</time>
      </trkpt>
      <trkpt lat="37.088586" lon="-79.597889">
        <ele>269.551815</ele>
        <time>2025-04-04T18:13:54.000Z</time>
      </trkpt>
      <trkpt lat="37.088263" lon="-79.59821">
        <ele>268.241926</ele>
        <time>2025-04-04T18:13:59.000Z</time>
      </trkpt>
      <trkpt lat="37.087773" lon="-79.598605">
        <ele>266.390516</ele>
        <time>2025-04-04T18:14:05.000Z</time>
      </trkpt>
      <trkpt lat="37.087298" lon="-79.598934">
        <ele>264.686864</ele>
        <time>2025-04-04T18:14:11.000Z</time>
      </trkpt>
      <trkpt lat="37.086965" lon="-79.599258">
        <ele>263.894043</ele>
        <time>2025-04-04T18:14:16.000Z</time>
      </trkpt>
      <trkpt lat="37.086895" lon="-79.599367">
        <ele>263.69188</ele>
        <time>2025-04-04T18:14:17.000Z</time>
      </trkpt>
      <trkpt lat="37.086763" lon="-79.599707">
        <ele>263.137271</ele>
        <time>2025-04-04T18:14:20.000Z</time>
      </trkpt>
      <trkpt lat="37.086015" lon="-79.602013">
        <ele>260.165853</ele>
        <time>2025-04-04T18:14:42.000Z</time>
      </trkpt>
      <trkpt lat="37.085822" lon="-79.60245">
        <ele>259.700797</ele>
        <time>2025-04-04T18:14:46.000Z</time>
      </trkpt>
      <trkpt lat="37.085656" lon="-79.602715">
        <ele>259.38529</ele>
        <time>2025-04-04T18:14:49.000Z</time>
      </trkpt>
      <trkpt lat="37.085445" lon="-79.602973">
        <ele>259.25117</ele>
        <time>2025-04-04T18:14:52.000Z</time>
      </trkpt>
      <trkpt lat="37.085194" lon="-79.603162">
        <ele>259.344374</ele>
        <time>2025-04-04T18:14:55.000Z</time>
      </trkpt>
      <trkpt lat="37.083923" lon="-79.603632">
        <ele>259.759099</ele>
        <time>2025-04-04T18:15:10.000Z</time>
      </trkpt>
      <trkpt lat="37.083608" lon="-79.603823">
        <ele>259.564762</ele>
        <time>2025-04-04T18:15:14.000Z</time>
      </trkpt>
      <trkpt lat="37.083379" lon="-79.604115">
        <ele>259.357188</ele>
        <time>2025-04-04T18:15:18.000Z</time>
      </trkpt>
      <trkpt lat="37.083201" lon="-79.60442">
        <ele>259.164786</ele>
        <time>2025-04-04T18:15:21.000Z</time>
      </trkpt>
      <trkpt lat="37.083116" lon="-79.604696">
        <ele>259.017355</ele>
        <time>2025-04-04T18:15:24.000Z</time>
      </trkpt>
      <trkpt lat="37.082972" lon="-79.606607">
        <ele>258.729042</ele>
        <time>2025-04-04T18:15:41.000Z</time>
      </trkpt>
      <trkpt lat="37.082878" lon="-79.606956">
        <ele>258.758283</ele>
        <time>2025-04-04T18:15:44.000Z</time>
      </trkpt>
      <trkpt lat="37.082811" lon="-79.607143">
        <ele>258.775844</ele>
        <time>2025-04-04T18:15:46.000Z</time>
      </trkpt>
      <trkpt lat="37.082617" lon="-79.607482">
        <ele>258.810202</ele>
        <time>2025-04-04T18:15:50.000Z</time>
      </trkpt>
      <trkpt lat="37.082441" lon="-79.607637">
        <ele>258.519663</ele>
        <time>2025-04-04T18:15:52.000Z</time>
      </trkpt>
      <trkpt lat="37.082142" lon="-79.607805">
        <ele>257.683887</ele>
        <time>2025-04-04T18:15:56.000Z</time>
      </trkpt>
      <trkpt lat="37.08157" lon="-79.60803">
        <ele>256.178355</ele>
        <time>2025-04-04T18:16:03.000Z</time>
      </trkpt>
      <trkpt lat="37.081295" lon="-79.608197">
        <ele>255.390743</ele>
        <time>2025-04-04T18:16:06.000Z</time>
      </trkpt>
      <trkpt lat="37.080925" lon="-79.608514">
        <ele>254.256327</ele>
        <time>2025-04-04T18:16:11.000Z</time>
      </trkpt>
      <trkpt lat="37.080364" lon="-79.609079">
        <ele>251.354338</ele>
        <time>2025-04-04T18:16:19.000Z</time>
      </trkpt>
      <trkpt lat="37.080138" lon="-79.609339">
        <ele>250.159825</ele>
        <time>2025-04-04T18:16:22.000Z</time>
      </trkpt>
      <trkpt lat="37.080087" lon="-79.609441">
        <ele>249.792386</ele>
        <time>2025-04-04T18:16:23.000Z</time>
      </trkpt>
      <trkpt lat="37.080027" lon="-79.609647">
        <ele>249.068387</ele>
        <time>2025-04-04T18:16:25.000Z</time>
      </trkpt>
      <trkpt lat="37.080029" lon="-79.60984">
        <ele>248.487172</ele>
        <time>2025-04-04T18:16:27.000Z</time>
      </trkpt>
      <trkpt lat="37.080059" lon="-79.610283">
        <ele>247.082736</ele>
        <time>2025-04-04T18:16:31.000Z</time>
      </trkpt>
      <trkpt lat="37.080023" lon="-79.610447">
        <ele>247.025907</ele>
        <time>2025-04-04T18:16:33.000Z</time>
      </trkpt>
      <trkpt lat="37.079984" lon="-79.610518">
        <ele>246.999476</ele>
        <time>2025-04-04T18:16:34.000Z</time>
      </trkpt>
      <trkpt lat="37.079725" lon="-79.610773">
        <ele>246.86813</ele>
        <time>2025-04-04T18:16:38.000Z</time>
      </trkpt>
      <trkpt lat="37.079646" lon="-79.610888">
        <ele>246.814844</ele>
        <time>2025-04-04T18:16:39.000Z</time>
      </trkpt>
      <trkpt lat="37.079536" lon="-79.611186">
        <ele>246.710813</ele>
        <time>2025-04-04T18:16:42.000Z</time>
      </trkpt>
      <trkpt lat="37.079459" lon="-79.611535">
        <ele>246.599275</ele>
        <time>2025-04-04T18:16:45.000Z</time>
      </trkpt>
      <trkpt lat="37.079351" lon="-79.61169">
        <ele>246.53655</ele>
        <time>2025-04-04T18:16:47.000Z</time>
      </trkpt>
      <trkpt lat="37.079164" lon="-79.611856">
        <ele>246.445651</ele>
        <time>2025-04-04T18:16:50.000Z</time>
      </trkpt>
      <trkpt lat="37.078769" lon="-79.611982">
        <ele>246.663999</ele>
        <time>2025-04-04T18:16:55.000Z</time>
      </trkpt>
      <trkpt lat="37.078654" lon="-79.612053">
        <ele>246.858291</ele>
        <time>2025-04-04T18:16:56.000Z</time>
      </trkpt>
      <trkpt lat="37.078589" lon="-79.612151">
        <ele>247.013456</ele>
        <time>2025-04-04T18:16:57.000Z</time>
      </trkpt>
      <trkpt lat="37.078531" lon="-79.612261">
        <ele>247.167572</ele>
        <time>2025-04-04T18:16:58.000Z</time>
      </trkpt>
      <trkpt lat="37.078471" lon="-79.612432">
        <ele>247.396607</ele>
        <time>2025-04-04T18:17:00.000Z</time>
      </trkpt>
      <trkpt lat="37.078486" lon="-79.612631">
        <ele>247.626725</ele>
        <time>2025-04-04T18:17:02.000Z</time>
      </trkpt>
      <trkpt lat="37.078578" lon="-79.613038">
        <ele>248.130411</ele>
        <time>2025-04-04T18:17:06.000Z</time>
      </trkpt>
      <trkpt lat="37.078685" lon="-79.613358">
        <ele>248.559583</ele>
        <time>2025-04-04T18:17:09.000Z</time>
      </trkpt>
      <trkpt lat="37.078815" lon="-79.613715">
        <ele>249.018178</ele>
        <time>2025-04-04T18:17:12.000Z</time>
      </trkpt>
      <trkpt lat="37.07907" lon="-79.614121">
        <ele>249.206646</ele>
        <time>2025-04-04T18:17:17.000Z</time>
      </trkpt>
      <trkpt lat="37.079213" lon="-79.614451">
        <ele>249.329317</ele>
        <time>2025-04-04T18:17:20.000Z</time>
      </trkpt>
      <trkpt lat="37.079282" lon="-79.614834">
        <ele>249.450237</ele>
        <time>2025-04-04T18:17:23.000Z</time>
      </trkpt>
      <trkpt lat="37.079296" lon="-79.615069">
        <ele>249.52967</ele>
        <time>2025-04-04T18:17:25.000Z</time>
      </trkpt>
      <trkpt lat="37.079299" lon="-79.615242">
        <ele>249.583362</ele>
        <time>2025-04-04T18:17:27.000Z</time>
      </trkpt>
      <trkpt lat="37.079256" lon="-79.61539">
        <ele>249.636342</ele>
        <time>2025-04-04T18:17:28.000Z</time>
      </trkpt>
      <trkpt lat="37.079218" lon="-79.615447">
        <ele>249.656078</ele>
        <time>2025-04-04T18:17:29.000Z</time>
      </trkpt>
      <trkpt lat="37.079261" lon="-79.615401">
        <ele>249.675819</ele>
        <time>2025-04-04T18:17:30.000Z</time>
      </trkpt>
      <trkpt lat="37.079298" lon="-79.615242">
        <ele>249.728808</ele>
        <time>2025-04-04T18:17:31.000Z</time>
      </trkpt>
      <trkpt lat="37.079298" lon="-79.615064">
        <ele>249.752625</ele>
        <time>2025-04-04T18:17:33.000Z</time>
      </trkpt>
      <trkpt lat="37.079273" lon="-79.614828">
        <ele>249.583211</ele>
        <time>2025-04-04T18:17:35.000Z</time>
      </trkpt>
      <trkpt lat="37.079205" lon="-79.614463">
        <ele>249.325317</ele>
        <time>2025-04-04T18:17:38.000Z</time>
      </trkpt>
      <trkpt lat="37.079077" lon="-79.61412">
        <ele>249.063667</ele>
        <time>2025-04-04T18:17:41.000Z</time>
      </trkpt>
      <trkpt lat="37.078813" lon="-79.613704">
        <ele>248.715105</ele>
        <time>2025-04-04T18:17:46.000Z</time>
      </trkpt>
      <trkpt lat="37.078694" lon="-79.613369">
        <ele>248.452908</ele>
        <time>2025-04-04T18:17:49.000Z</time>
      </trkpt>
      <trkpt lat="37.07858" lon="-79.613032">
        <ele>248.195214</ele>
        <time>2025-04-04T18:17:52.000Z</time>
      </trkpt>
      <trkpt lat="37.078478" lon="-79.612637">
        <ele>247.782791</ele>
        <time>2025-04-04T18:17:56.000Z</time>
      </trkpt>
      <trkpt lat="37.07847" lon="-79.612442">
        <ele>247.594349</ele>
        <time>2025-04-04T18:17:58.000Z</time>
      </trkpt>
      <trkpt lat="37.078535" lon="-79.612253">
        <ele>247.406803</ele>
        <time>2025-04-04T18:18:00.000Z</time>
      </trkpt>
      <trkpt lat="37.078579" lon="-79.612138">
        <ele>247.280622</ele>
        <time>2025-04-04T18:18:01.000Z</time>
      </trkpt>
      <trkpt lat="37.07867" lon="-79.612049">
        <ele>247.153553</ele>
        <time>2025-04-04T18:18:02.000Z</time>
      </trkpt>
      <trkpt lat="37.078773" lon="-79.611981">
        <ele>246.994461</ele>
        <time>2025-04-04T18:18:03.000Z</time>
      </trkpt>
      <trkpt lat="37.07916" lon="-79.611858">
        <ele>246.498143</ele>
        <time>2025-04-04T18:18:07.000Z</time>
      </trkpt>
      <trkpt lat="37.079368" lon="-79.611692">
        <ele>246.218023</ele>
        <time>2025-04-04T18:18:10.000Z</time>
      </trkpt>
      <trkpt lat="37.079451" lon="-79.611523">
        <ele>246.046848</ele>
        <time>2025-04-04T18:18:12.000Z</time>
      </trkpt>
      <trkpt lat="37.079539" lon="-79.611193">
        <ele>246.448906</ele>
        <time>2025-04-04T18:18:15.000Z</time>
      </trkpt>
      <trkpt lat="37.079647" lon="-79.6109">
        <ele>246.823839</ele>
        <time>2025-04-04T18:18:18.000Z</time>
      </trkpt>
      <trkpt lat="37.079743" lon="-79.610778">
        <ele>247.015921</ele>
        <time>2025-04-04T18:18:20.000Z</time>
      </trkpt>
      <trkpt lat="37.08" lon="-79.610517">
        <ele>247.489337</ele>
        <time>2025-04-04T18:18:24.000Z</time>
      </trkpt>
      <trkpt lat="37.080034" lon="-79.610442">
        <ele>247.584638</ele>
        <time>2025-04-04T18:18:25.000Z</time>
      </trkpt>
      <trkpt lat="37.080062" lon="-79.61027">
        <ele>247.775636</ele>
        <time>2025-04-04T18:18:27.000Z</time>
      </trkpt>
      <trkpt lat="37.080021" lon="-79.609835">
        <ele>248.278998</ele>
        <time>2025-04-04T18:18:31.000Z</time>
      </trkpt>
      <trkpt lat="37.08004" lon="-79.609655">
        <ele>248.487312</ele>
        <time>2025-04-04T18:18:33.000Z</time>
      </trkpt>
      <trkpt lat="37.080099" lon="-79.609445">
        <ele>249.055084</ele>
        <time>2025-04-04T18:18:35.000Z</time>
      </trkpt>
      <trkpt lat="37.080142" lon="-79.609335">
        <ele>249.48198</ele>
        <time>2025-04-04T18:18:36.000Z</time>
      </trkpt>
      <trkpt lat="37.080356" lon="-79.609079">
        <ele>250.869752</ele>
        <time>2025-04-04T18:18:39.000Z</time>
      </trkpt>
      <trkpt lat="37.080937" lon="-79.608525">
        <ele>254.241279</ele>
        <time>2025-04-04T18:18:47.000Z</time>
      </trkpt>
      <trkpt lat="37.081309" lon="-79.608199">
        <ele>256.314649</ele>
        <time>2025-04-04T18:18:52.000Z</time>
      </trkpt>
      <trkpt lat="37.081583" lon="-79.608026">
        <ele>257.104564</ele>
        <time>2025-04-04T18:18:55.000Z</time>
      </trkpt>
      <trkpt lat="37.082145" lon="-79.607796">
        <ele>257.621481</ele>
        <time>2025-04-04T18:19:02.000Z</time>
      </trkpt>
      <trkpt lat="37.082446" lon="-79.607628">
        <ele>257.908444</ele>
        <time>2025-04-04T18:19:06.000Z</time>
      </trkpt>
      <trkpt lat="37.082605" lon="-79.607481">
        <ele>258.092472</ele>
        <time>2025-04-04T18:19:08.000Z</time>
      </trkpt>
      <trkpt lat="37.082817" lon="-79.607145">
        <ele>258.381311</ele>
        <time>2025-04-04T18:19:12.000Z</time>
      </trkpt>
      <trkpt lat="37.082891" lon="-79.606951">
        <ele>258.523115</ele>
        <time>2025-04-04T18:19:14.000Z</time>
      </trkpt>
      <trkpt lat="37.082968" lon="-79.606618">
        <ele>258.620532</ele>
        <time>2025-04-04T18:19:17.000Z</time>
      </trkpt>
      <trkpt lat="37.08311" lon="-79.604709">
        <ele>259.14666</ele>
        <time>2025-04-04T18:19:34.000Z</time>
      </trkpt>
      <trkpt lat="37.083203" lon="-79.604419">
        <ele>259.211073</ele>
        <time>2025-04-04T18:19:37.000Z</time>
      </trkpt>
      <trkpt lat="37.08337" lon="-79.604108">
        <ele>259.2951</ele>
        <time>2025-04-04T18:19:40.000Z</time>
      </trkpt>
      <trkpt lat="37.083608" lon="-79.603833">
        <ele>259.385775</ele>
        <time>2025-04-04T18:19:44.000Z</time>
      </trkpt>
      <trkpt lat="37.083906" lon="-79.603629">
        <ele>259.479882</ele>
        <time>2025-04-04T18:19:48.000Z</time>
      </trkpt>
      <trkpt lat="37.085191" lon="-79.60317">
        <ele>259.568614</ele>
        <time>2025-04-04T18:20:03.000Z</time>
      </trkpt>
      <trkpt lat="37.085444" lon="-79.602975">
        <ele>259.543052</ele>
        <time>2025-04-04T18:20:06.000Z</time>
      </trkpt>
      <trkpt lat="37.085661" lon="-79.602713">
        <ele>259.516806</ele>
        <time>2025-04-04T18:20:09.000Z</time>
      </trkpt>
      <trkpt lat="37.08582" lon="-79.602456">
        <ele>259.494059</ele>
        <time>2025-04-04T18:20:12.000Z</time>
      </trkpt>
      <trkpt lat="37.086014" lon="-79.602014">
        <ele>259.853027</ele>
        <time>2025-04-04T18:20:16.000Z</time>
      </trkpt>
      <trkpt lat="37.086753" lon="-79.599708">
        <ele>263.244344</ele>
        <time>2025-04-04T18:20:38.000Z</time>
      </trkpt>
      <trkpt lat="37.086898" lon="-79.599376">
        <ele>263.828849</ele>
        <time>2025-04-04T18:20:41.000Z</time>
      </trkpt>
      <trkpt lat="37.086968" lon="-79.599256">
        <ele>264.041919</ele>
        <time>2025-04-04T18:20:42.000Z</time>
      </trkpt>
      <trkpt lat="37.0873" lon="-79.598935">
        <ele>264.830711</ele>
        <time>2025-04-04T18:20:47.000Z</time>
      </trkpt>
      <trkpt lat="37.087776" lon="-79.598606">
        <ele>265.859765</ele>
        <time>2025-04-04T18:20:53.000Z</time>
      </trkpt>
      <trkpt lat="37.088278" lon="-79.598222">
        <ele>268.076719</ele>
        <time>2025-04-04T18:21:00.000Z</time>
      </trkpt>
      <trkpt lat="37.088587" lon="-79.597891">
        <ele>269.656082</ele>
        <time>2025-04-04T18:21:05.000Z</time>
      </trkpt>
      <trkpt lat="37.089133" lon="-79.597125">
        <ele>272.698023</ele>
        <time>2025-04-04T18:21:14.000Z</time>
      </trkpt>
      <trkpt lat="37.089566" lon="-79.596375">
        <ele>274.646637</ele>
        <time>2025-04-04T18:21:22.000Z</time>
      </trkpt>
      <trkpt lat="37.089732" lon="-79.596071">
        <ele>275.438195</ele>
        <time>2025-04-04T18:21:25.000Z</time>
      </trkpt>
      <trkpt lat="37.089819" lon="-79.595931">
        <ele>275.795583</ele>
        <time>2025-04-04T18:21:27.000Z</time>
      </trkpt>
      <trkpt lat="37.090181" lon="-79.595301">
        <ele>277.390064</ele>
        <time>2025-04-04T18:21:34.000Z</time>
      </trkpt>
      <trkpt lat="37.091093" lon="-79.593645">
        <ele>277.626452</ele>
        <time>2025-04-04T18:21:52.000Z</time>
      </trkpt>
      <trkpt lat="37.091422" lon="-79.59314">
        <ele>277.125814</ele>
        <time>2025-04-04T18:21:58.000Z</time>
      </trkpt>
      <trkpt lat="37.091515" lon="-79.593436">
        <ele>276.711379</ele>
        <time>2025-04-04T18:22:01.000Z</time>
      </trkpt>
      <trkpt lat="37.092182" lon="-79.595278">
        <ele>273.878351</ele>
        <time>2025-04-04T18:22:19.000Z</time>
      </trkpt>
      <trkpt lat="37.093356" lon="-79.598656">
        <ele>266.755759</ele>
        <time>2025-04-04T18:22:52.000Z</time>
      </trkpt>
      <trkpt lat="37.093995" lon="-79.600381">
        <ele>261.489634</ele>
        <time>2025-04-04T18:23:09.000Z</time>
      </trkpt>
      <trkpt lat="37.094091" lon="-79.600668">
        <ele>260.574382</ele>
        <time>2025-04-04T18:23:12.000Z</time>
      </trkpt>
      <trkpt lat="37.094399" lon="-79.601489">
        <ele>258.759774</ele>
        <time>2025-04-04T18:23:20.000Z</time>
      </trkpt>
      <trkpt lat="37.094617" lon="-79.601903">
        <ele>258.069673</ele>
        <time>2025-04-04T18:23:24.000Z</time>
      </trkpt>
      <trkpt lat="37.094928" lon="-79.602219">
        <ele>257.371632</ele>
        <time>2025-04-04T18:23:28.000Z</time>
      </trkpt>
      <trkpt lat="37.095882" lon="-79.602939">
        <ele>255.449075</ele>
        <time>2025-04-04T18:23:40.000Z</time>
      </trkpt>
      <trkpt lat="37.096063" lon="-79.603125">
        <ele>255.024771</ele>
        <time>2025-04-04T18:23:43.000Z</time>
      </trkpt>
      <trkpt lat="37.096965" lon="-79.604265">
        <ele>252.934708</ele>
        <time>2025-04-04T18:23:57.000Z</time>
      </trkpt>
      <trkpt lat="37.097068" lon="-79.604431">
        <ele>252.705003</ele>
        <time>2025-04-04T18:23:59.000Z</time>
      </trkpt>
      <trkpt lat="37.097228" lon="-79.604776">
        <ele>252.31056</ele>
        <time>2025-04-04T18:24:03.000Z</time>
      </trkpt>
      <trkpt lat="37.097321" lon="-79.605115">
        <ele>251.956652</ele>
        <time>2025-04-04T18:24:06.000Z</time>
      </trkpt>
      <trkpt lat="37.097353" lon="-79.605481">
        <ele>251.582116</ele>
        <time>2025-04-04T18:24:09.000Z</time>
      </trkpt>
      <trkpt lat="37.097211" lon="-79.607915">
        <ele>252.216616</ele>
        <time>2025-04-04T18:24:31.000Z</time>
      </trkpt>
      <trkpt lat="37.097115" lon="-79.60839">
        <ele>252.551755</ele>
        <time>2025-04-04T18:24:35.000Z</time>
      </trkpt>
      <trkpt lat="37.097025" lon="-79.608613">
        <ele>252.738732</ele>
        <time>2025-04-04T18:24:37.000Z</time>
      </trkpt>
      <trkpt lat="37.096864" lon="-79.60885">
        <ele>252.967708</ele>
        <time>2025-04-04T18:24:40.000Z</time>
      </trkpt>
      <trkpt lat="37.096714" lon="-79.609012">
        <ele>253.154288</ele>
        <time>2025-04-04T18:24:42.000Z</time>
      </trkpt>
      <trkpt lat="37.096678" lon="-79.609028">
        <ele>253.190906</ele>
        <time>2025-04-04T18:24:42.000Z</time>
      </trkpt>
      <trkpt lat="37.096413" lon="-79.609215">
        <ele>253.467889</ele>
        <time>2025-04-04T18:24:45.000Z</time>
      </trkpt>
      <trkpt lat="37.096149" lon="-79.609407">
        <ele>253.751981</ele>
        <time>2025-04-04T18:24:48.000Z</time>
      </trkpt>
      <trkpt lat="37.096002" lon="-79.609489">
        <ele>253.898886</ele>
        <time>2025-04-04T18:24:50.000Z</time>
      </trkpt>
      <trkpt lat="37.095795" lon="-79.609871">
        <ele>254.173211</ele>
        <time>2025-04-04T18:24:54.000Z</time>
      </trkpt>
      <trkpt lat="37.095742" lon="-79.60993">
        <ele>254.17321</ele>
        <time>2025-04-04T18:24:55.000Z</time>
      </trkpt>
      <trkpt lat="37.095666" lon="-79.609938">
        <ele>254.173217</ele>
        <time>2025-04-04T18:24:56.000Z</time>
      </trkpt>
      <trkpt lat="37.095629" lon="-79.610063">
        <ele>254.173207</ele>
        <time>2025-04-04T18:24:57.000Z</time>
      </trkpt>
      <trkpt lat="37.095582" lon="-79.610093">
        <ele>254.173212</ele>
        <time>2025-04-04T18:24:58.000Z</time>
      </trkpt>
      <trkpt lat="37.095076" lon="-79.610384">
        <ele>254.173208</ele>
        <time>2025-04-04T18:25:04.000Z</time>
      </trkpt>
      <trkpt lat="37.095064" lon="-79.610382">
        <ele>254.173219</ele>
        <time>2025-04-04T18:25:04.000Z</time>
      </trkpt>
      <trkpt lat="37.095046" lon="-79.61039">
        <ele>254.173205</ele>
        <time>2025-04-04T18:25:04.000Z</time>
      </trkpt>
      <trkpt lat="37.094981" lon="-79.610338">
        <ele>254.173219</ele>
        <time>2025-04-04T18:25:05.000Z</time>
      </trkpt>
      <trkpt lat="37.094917" lon="-79.610189">
        <ele>254.173221</ele>
        <time>2025-04-04T18:25:07.000Z</time>
      </trkpt>
      <trkpt lat="37.09545" lon="-79.609879">
        <ele>254.173204</ele>
        <time>2025-04-04T18:25:14.000Z</time>
      </trkpt>
      <trkpt lat="37.095486" lon="-79.60985">
        <ele>253.764457</ele>
        <time>2025-04-04T18:25:14.000Z</time>
      </trkpt>
      <trkpt lat="37.095519" lon="-79.609823">
        <ele>253.764441</ele>
        <time>2025-04-04T18:25:14.000Z</time>
      </trkpt>
      <trkpt lat="37.095599" lon="-79.609813">
        <ele>253.764453</ele>
        <time>2025-04-04T18:25:15.000Z</time>
      </trkpt>
      <trkpt lat="37.095619" lon="-79.609784">
        <ele>253.764457</ele>
        <time>2025-04-04T18:25:15.000Z</time>
      </trkpt>
      <trkpt lat="37.095679" lon="-79.60969">
        <ele>253.764439</ele>
        <time>2025-04-04T18:25:16.000Z</time>
      </trkpt>
      <trkpt lat="37.096001" lon="-79.609496">
        <ele>253.764454</ele>
        <time>2025-04-04T18:25:20.000Z</time>
      </trkpt>
      <trkpt lat="37.096141" lon="-79.609407">
        <ele>253.764442</ele>
        <time>2025-04-04T18:25:22.000Z</time>
      </trkpt>
      <trkpt lat="37.096418" lon="-79.609229">
        <ele>253.577017</ele>
        <time>2025-04-04T18:25:25.000Z</time>
      </trkpt>
      <trkpt lat="37.096677" lon="-79.609035">
        <ele>253.25851</ele>
        <time>2025-04-04T18:25:28.000Z</time>
      </trkpt>
      <trkpt lat="37.096704" lon="-79.609009">
        <ele>253.216378</ele>
        <time>2025-04-04T18:25:28.000Z</time>
      </trkpt>
      <trkpt lat="37.096868" lon="-79.608849">
        <ele>253.001846</ele>
        <time>2025-04-04T18:25:30.000Z</time>
      </trkpt>
      <trkpt lat="37.097031" lon="-79.60862">
        <ele>252.738544</ele>
        <time>2025-04-04T18:25:33.000Z</time>
      </trkpt>
      <trkpt lat="37.097117" lon="-79.608396">
        <ele>252.52354</ele>
        <time>2025-04-04T18:25:35.000Z</time>
      </trkpt>
      <trkpt lat="37.097213" lon="-79.607924">
        <ele>252.109422</ele>
        <time>2025-04-04T18:25:39.000Z</time>
      </trkpt>
      <trkpt lat="37.097353" lon="-79.605482">
        <ele>251.212162</ele>
        <time>2025-04-04T18:26:01.000Z</time>
      </trkpt>
      <trkpt lat="37.097308" lon="-79.605115">
        <ele>251.532118</ele>
        <time>2025-04-04T18:26:04.000Z</time>
      </trkpt>
      <trkpt lat="37.097237" lon="-79.604779">
        <ele>252.028125</ele>
        <time>2025-04-04T18:26:07.000Z</time>
      </trkpt>
      <trkpt lat="37.097075" lon="-79.604442">
        <ele>252.580943</ele>
        <time>2025-04-04T18:26:10.000Z</time>
      </trkpt>
      <trkpt lat="37.096964" lon="-79.604257">
        <ele>252.902868</ele>
        <time>2025-04-04T18:26:12.000Z</time>
      </trkpt>
      <trkpt lat="37.096064" lon="-79.603136">
        <ele>255.079626</ele>
        <time>2025-04-04T18:26:26.000Z</time>
      </trkpt>
      <trkpt lat="37.095884" lon="-79.602932">
        <ele>255.472657</ele>
        <time>2025-04-04T18:26:29.000Z</time>
      </trkpt>
      <trkpt lat="37.094938" lon="-79.602213">
        <ele>257.255539</ele>
        <time>2025-04-04T18:26:41.000Z</time>
      </trkpt>
      <trkpt lat="37.094629" lon="-79.601896">
        <ele>258.144152</ele>
        <time>2025-04-04T18:26:45.000Z</time>
      </trkpt>
      <trkpt lat="37.094398" lon="-79.601482">
        <ele>259.02572</ele>
        <time>2025-04-04T18:26:49.000Z</time>
      </trkpt>
      <trkpt lat="37.094091" lon="-79.600678">
        <ele>260.614496</ele>
        <time>2025-04-04T18:26:57.000Z</time>
      </trkpt>
      <trkpt lat="37.093997" lon="-79.600374">
        <ele>261.168883</ele>
        <time>2025-04-04T18:27:00.000Z</time>
      </trkpt>
      <trkpt lat="37.093369" lon="-79.59866">
        <ele>266.773461</ele>
        <time>2025-04-04T18:27:17.000Z</time>
      </trkpt>
      <trkpt lat="37.092184" lon="-79.595268">
        <ele>273.865131</ele>
        <time>2025-04-04T18:27:50.000Z</time>
      </trkpt>
      <trkpt lat="37.091509" lon="-79.593439">
        <ele>276.617754</ele>
        <time>2025-04-04T18:28:08.000Z</time>
      </trkpt>
      <trkpt lat="37.091415" lon="-79.593144">
        <ele>276.88914</ele>
        <time>2025-04-04T18:28:11.000Z</time>
      </trkpt>
      <trkpt lat="37.091094" lon="-79.593638">
        <ele>277.430225</ele>
        <time>2025-04-04T18:28:17.000Z</time>
      </trkpt>
      <trkpt lat="37.090181" lon="-79.595299">
        <ele>276.958585</ele>
        <time>2025-04-04T18:28:35.000Z</time>
      </trkpt>
      <trkpt lat="37.089812" lon="-79.595928">
        <ele>276.43261</ele>
        <time>2025-04-04T18:28:42.000Z</time>
      </trkpt>
      <trkpt lat="37.089732" lon="-79.59606">
        <ele>275.954354</ele>
        <time>2025-04-04T18:28:43.000Z</time>
      </trkpt>
      <trkpt lat="37.089558" lon="-79.596364">
        <ele>274.895175</ele>
        <time>2025-04-04T18:28:46.000Z</time>
      </trkpt>
      <trkpt lat="37.08913" lon="-79.597135">
        <ele>272.287649</ele>
        <time>2025-04-04T18:28:54.000Z</time>
      </trkpt>
      <trkpt lat="37.088604" lon="-79.59789">
        <ele>269.551818</ele>
        <time>2025-04-04T18:29:03.000Z</time>
      </trkpt>
      <trkpt lat="37.088276" lon="-79.598215">
        <ele>268.241927</ele>
        <time>2025-04-04T18:29:08.000Z</time>
      </trkpt>
      <trkpt lat="37.08776" lon="-79.5986">
        <ele>266.390516</ele>
        <time>2025-04-04T18:29:15.000Z</time>
      </trkpt>
      <trkpt lat="37.087289" lon="-79.598926">
        <ele>264.686849</ele>
        <time>2025-04-04T18:29:21.000Z</time>
      </trkpt>
      <trkpt lat="37.086964" lon="-79.599257">
        <ele>263.894037</ele>
        <time>2025-04-04T18:29:26.000Z</time>
      </trkpt>
      <trkpt lat="37.0869" lon="-79.599378">
        <ele>263.691876</ele>
        <time>2025-04-04T18:29:27.000Z</time>
      </trkpt>
      <trkpt lat="37.086765" lon="-79.599706">
        <ele>263.137269</ele>
        <time>2025-04-04T18:29:30.000Z</time>
      </trkpt>
      <trkpt lat="37.086003" lon="-79.602009">
        <ele>260.165853</ele>
        <time>2025-04-04T18:29:52.000Z</time>
      </trkpt>
      <trkpt lat="37.085821" lon="-79.602441">
        <ele>259.700795</ele>
        <time>2025-04-04T18:29:56.000Z</time>
      </trkpt>
      <trkpt lat="37.085659" lon="-79.602719">
        <ele>259.385286</ele>
        <time>2025-04-04T18:29:59.000Z</time>
      </trkpt>
      <trkpt lat="37.085438" lon="-79.60297">
        <ele>259.251171</ele>
        <time>2025-04-04T18:30:02.000Z</time>
      </trkpt>
      <trkpt lat="37.085193" lon="-79.603167">
        <ele>259.344368</ele>
        <time>2025-04-04T18:30:05.000Z</time>
      </trkpt>
      <trkpt lat="37.083922" lon="-79.603636">
        <ele>259.759099</ele>
        <time>2025-04-04T18:30:20.000Z</time>
      </trkpt>
      <trkpt lat="37.083615" lon="-79.603818">
        <ele>259.564768</ele>
        <time>2025-04-04T18:30:24.000Z</time>
      </trkpt>
      <trkpt lat="37.083364" lon="-79.604108">
        <ele>259.35719</ele>
        <time>2025-04-04T18:30:28.000Z</time>
      </trkpt>
      <trkpt lat="37.0832" lon="-79.604429">
        <ele>259.164787</ele>
        <time>2025-04-04T18:30:31.000Z</time>
      </trkpt>
      <trkpt lat="37.083105" lon="-79.604699">
        <ele>259.017357</ele>
        <time>2025-04-04T18:30:34.000Z</time>
      </trkpt>
      <trkpt lat="37.082964" lon="-79.606602">
        <ele>258.729037</ele>
        <time>2025-04-04T18:30:51.000Z</time>
      </trkpt>
      <trkpt lat="37.082887" lon="-79.606953">
        <ele>258.758274</ele>
        <time>2025-04-04T18:30:54.000Z</time>
      </trkpt>
      <trkpt lat="37.08282" lon="-79.607151">
        <ele>258.775835</ele>
        <time>2025-04-04T18:30:56.000Z</time>
      </trkpt>
      <trkpt lat="37.082612" lon="-79.607484">
        <ele>258.810194</ele>
        <time>2025-04-04T18:31:00.000Z</time>
      </trkpt>
      <trkpt lat="37.08244" lon="-79.607642">
        <ele>258.51966</ele>
        <time>2025-04-04T18:31:02.000Z</time>
      </trkpt>
      <trkpt lat="37.08214" lon="-79.607795">
        <ele>257.68388</ele>
        <time>2025-04-04T18:31:06.000Z</time>
      </trkpt>
      <trkpt lat="37.081585" lon="-79.608022">
        <ele>256.178346</ele>
        <time>2025-04-04T18:31:12.000Z</time>
      </trkpt>
      <trkpt lat="37.081307" lon="-79.608204">
        <ele>255.390746</ele>
        <time>2025-04-04T18:31:15.000Z</time>
      </trkpt>
      <trkpt lat="37.080935" lon="-79.608528">
        <ele>254.256325</ele>
        <time>2025-04-04T18:31:20.000Z</time>
      </trkpt>
      <trkpt lat="37.080363" lon="-79.609081">
        <ele>251.354347</ele>
        <time>2025-04-04T18:31:28.000Z</time>
      </trkpt>
      <trkpt lat="37.080151" lon="-79.609353">
        <ele>250.159829</ele>
        <time>2025-04-04T18:31:31.000Z</time>
      </trkpt>
      <trkpt lat="37.080104" lon="-79.609438">
        <ele>249.792376</ele>
        <time>2025-04-04T18:31:32.000Z</time>
      </trkpt>
      <trkpt lat="37.080043" lon="-79.60965">
        <ele>249.068389</ele>
        <time>2025-04-04T18:31:34.000Z</time>
      </trkpt>
      <trkpt lat="37.080026" lon="-79.609835">
        <ele>248.48718</ele>
        <time>2025-04-04T18:31:36.000Z</time>
      </trkpt>
      <trkpt lat="37.080061" lon="-79.610269">
        <ele>247.082736</ele>
        <time>2025-04-04T18:31:40.000Z</time>
      </trkpt>
      <trkpt lat="37.080022" lon="-79.610436">
        <ele>247.025923</ele>
        <time>2025-04-04T18:31:42.000Z</time>
      </trkpt>
      <trkpt lat="37.079993" lon="-79.610509">
        <ele>246.999482</ele>
        <time>2025-04-04T18:31:43.000Z</time>
      </trkpt>
      <trkpt lat="37.079737" lon="-79.610777">
        <ele>246.868135</ele>
        <time>2025-04-04T18:31:47.000Z</time>
      </trkpt>
      <trkpt lat="37.079649" lon="-79.610902">
        <ele>246.814847</ele>
        <time>2025-04-04T18:31:48.000Z</time>
      </trkpt>
      <trkpt lat="37.079533" lon="-79.6112">
        <ele>246.710815</ele>
        <time>2025-04-04T18:31:51.000Z</time>
      </trkpt>
      <trkpt lat="37.079444" lon="-79.611537">
        <ele>246.599266</ele>
        <time>2025-04-04T18:31:54.000Z</time>
      </trkpt>
      <trkpt lat="37.079354" lon="-79.611684">
        <ele>246.536544</ele>
        <time>2025-04-04T18:31:56.000Z</time>
      </trkpt>
      <trkpt lat="37.079173" lon="-79.611856">
        <ele>246.445663</ele>
        <time>2025-04-04T18:31:59.000Z</time>
      </trkpt>
      <trkpt lat="37.078774" lon="-79.61199">
        <ele>246.664003</ele>
        <time>2025-04-04T18:32:04.000Z</time>
      </trkpt>
      <trkpt lat="37.07866" lon="-79.612049">
        <ele>246.858294</ele>
        <time>2025-04-04T18:32:05.000Z</time>
      </trkpt>
      <trkpt lat="37.078589" lon="-79.612148">
        <ele>247.013455</ele>
        <time>2025-04-04T18:32:06.000Z</time>
      </trkpt>
      <trkpt lat="37.07853" lon="-79.612248">
        <ele>247.16757</ele>
        <time>2025-04-04T18:32:07.000Z</time>
      </trkpt>
      <trkpt lat="37.078476" lon="-79.612441">
        <ele>247.396603</ele>
        <time>2025-04-04T18:32:09.000Z</time>
      </trkpt>
      <trkpt lat="37.07848" lon="-79.612628">
        <ele>247.626739</ele>
        <time>2025-04-04T18:32:11.000Z</time>
      </trkpt>
      <trkpt lat="37.078586" lon="-79.613031">
        <ele>248.130401</ele>
        <time>2025-04-04T18:32:15.000Z</time>
      </trkpt>
      <trkpt lat="37.07869" lon="-79.613361">
        <ele>248.559582</ele>
        <time>2025-04-04T18:32:18.000Z</time>
      </trkpt>
      <trkpt lat="37.078818" lon="-79.613712">
        <ele>249.018171</ele>
        <time>2025-04-04T18:32:21.000Z</time>
      </trkpt>
      <trkpt lat="37.079075" lon="-79.61411">
        <ele>249.206646</ele>
        <time>2025-04-04T18:32:26.000Z</time>
      </trkpt>
      <trkpt lat="37.079217" lon="-79.61445">
        <ele>249.32932</ele>
        <time>2025-04-04T18:32:29.000Z</time>
      </trkpt>
      <trkpt lat="37.079283" lon="-79.614832">
        <ele>249.450239</ele>
        <time>2025-04-04T18:32:32.000Z</time>
      </trkpt>
      <trkpt lat="37.0793" lon="-79.615073">
        <ele>249.529664</ele>
        <time>2025-04-04T18:32:34.000Z</time>
      </trkpt>
      <trkpt lat="37.079298" lon="-79.615246">
        <ele>249.583361</ele>
        <time>2025-04-04T18:32:36.000Z</time>
      </trkpt>
      <trkpt lat="37.079247" lon="-79.615391">
        <ele>249.636343</ele>
        <time>2025-04-04T18:32:37.000Z</time>
      </trkpt>
      <trkpt lat="37.079221" lon="-79.615448">
        <ele>249.656089</ele>
        <time>2025-04-04T18:32:38.000Z</time>
      </trkpt>
      <trkpt lat="37.079245" lon="-79.615408">
        <ele>249.675819</ele>
        <time>2025-04-04T18:32:38.000Z</time>
      </trkpt>
      <trkpt lat="37.079298" lon="-79.615235">
        <ele>249.728806</ele>
        <time>2025-04-04T18:32:40.000Z</time>
      </trkpt>
      <trkpt lat="37.079292" lon="-79.61507">
        <ele>249.752629</ele>
        <time>2025-04-04T18:32:41.000Z</time>
      </trkpt>
      <trkpt lat="37.079274" lon="-79.614828">
        <ele>249.583201</ele>
        <time>2025-04-04T18:32:43.000Z</time>
      </trkpt>
      <trkpt lat="37.079205" lon="-79.614452">
        <ele>249.325318</ele>
        <time>2025-04-04T18:32:46.000Z</time>
      </trkpt>
      <trkpt lat="37.079065" lon="-79.61411">
        <ele>249.063652</ele>
        <time>2025-04-04T18:32:49.000Z</time>
      </trkpt>
      <trkpt lat="37.078815" lon="-79.613718">
        <ele>248.715114</ele>
        <time>2025-04-04T18:32:53.000Z</time>
      </trkpt>
      <trkpt lat="37.07868" lon="-79.613366">
        <ele>248.452922</ele>
        <time>2025-04-04T18:32:56.000Z</time>
      </trkpt>
      <trkpt lat="37.078577" lon="-79.613025">
        <ele>248.195211</ele>
        <time>2025-04-04T18:32:59.000Z</time>
      </trkpt>
      <trkpt lat="37.078469" lon="-79.61263">
        <ele>247.782787</ele>
        <time>2025-04-04T18:33:03.000Z</time>
      </trkpt>
      <trkpt lat="37.07847" lon="-79.612434">
        <ele>247.594357</ele>
        <time>2025-04-04T18:33:05.000Z</time>
      </trkpt>
      <trkpt lat="37.078527" lon="-79.612258">
        <ele>247.4068</ele>
        <time>2025-04-04T18:33:07.000Z</time>
      </trkpt>
      <trkpt lat="37.078586" lon="-79.612152">
        <ele>247.280625</ele>
        <time>2025-04-04T18:33:08.000Z</time>
      </trkpt>
      <trkpt lat="37.078668" lon="-79.612052">
        <ele>247.153556</ele>
        <time>2025-04-04T18:33:09.000Z</time>
      </trkpt>
      <trkpt lat="37.078775" lon="-79.611987">
        <ele>246.994464</ele>
        <time>2025-04-04T18:33:10.000Z</time>
      </trkpt>
      <trkpt lat="37.079171" lon="-79.611859">
        <ele>246.498146</ele>
        <time>2025-04-04T18:33:15.000Z</time>
      </trkpt>
      <trkpt lat="37.079353" lon="-79.611698">
        <ele>246.218023</ele>
        <time>2025-04-04T18:33:17.000Z</time>
      </trkpt>
      <trkpt lat="37.079452" lon="-79.611537">
        <ele>246.04684</ele>
        <time>2025-04-04T18:33:19.000Z</time>
      </trkpt>
      <trkpt lat="37.079529" lon="-79.611189">
        <ele>246.4489</ele>
        <time>2025-04-04T18:33:22.000Z</time>
      </trkpt>
      <trkpt lat="37.079653" lon="-79.610891">
        <ele>246.823841</ele>
        <time>2025-04-04T18:33:25.000Z</time>
      </trkpt>
      <trkpt lat="37.079737" lon="-79.610777">
        <ele>247.015918</ele>
        <time>2025-04-04T18:33:26.000Z</time>
      </trkpt>
      <trkpt lat="37.079987" lon="-79.610501">
        <ele>247.48933</ele>
        <time>2025-04-04T18:33:30.000Z</time>
      </trkpt>
      <trkpt lat="37.080027" lon="-79.610442">
        <ele>247.584627</ele>
        <time>2025-04-04T18:33:31.000Z</time>
      </trkpt>
      <trkpt lat="37.080055" lon="-79.61028">
        <ele>247.775643</ele>
        <time>2025-04-04T18:33:32.000Z</time>
      </trkpt>
      <trkpt lat="37.080032" lon="-79.609827">
        <ele>248.279001</ele>
        <time>2025-04-04T18:33:36.000Z</time>
      </trkpt>
      <trkpt lat="37.080036" lon="-79.609658">
        <ele>248.487316</ele>
        <time>2025-04-04T18:33:38.000Z</time>
      </trkpt>
      <trkpt lat="37.080086" lon="-79.609445">
        <ele>249.055085</ele>
        <time>2025-04-04T18:33:40.000Z</time>
      </trkpt>
      <trkpt lat="37.080155" lon="-79.609351">
        <ele>249.481984</ele>
        <time>2025-04-04T18:33:41.000Z</time>
      </trkpt>
      <trkpt lat="37.080364" lon="-79.609075">
        <ele>250.86975</ele>
        <time>2025-04-04T18:33:44.000Z</time>
      </trkpt>
      <trkpt lat="37.080924" lon="-79.608521">
        <ele>254.241262</ele>
        <time>2025-04-04T18:33:52.000Z</time>
      </trkpt>
      <trkpt lat="37.081294" lon="-79.608199">
        <ele>256.314646</ele>
        <time>2025-04-04T18:33:57.000Z</time>
      </trkpt>
      <trkpt lat="37.081575" lon="-79.608033">
        <ele>257.104573</ele>
        <time>2025-04-04T18:34:00.000Z</time>
      </trkpt>
      <trkpt lat="37.08215" lon="-79.607804">
        <ele>257.621485</ele>
        <time>2025-04-04T18:34:07.000Z</time>
      </trkpt>
      <trkpt lat="37.082453" lon="-79.607645">
        <ele>257.908452</ele>
        <time>2025-04-04T18:34:11.000Z</time>
      </trkpt>
      <trkpt lat="37.082616" lon="-79.607485">
        <ele>258.092473</ele>
        <time>2025-04-04T18:34:13.000Z</time>
      </trkpt>
      <trkpt lat="37.082807" lon="-79.60715">
        <ele>258.381301</ele>
        <time>2025-04-04T18:34:17.000Z</time>
      </trkpt>
      <trkpt lat="37.082883" lon="-79.606946">
        <ele>258.523114</ele>
        <time>2025-04-04T18:34:19.000Z</time>
      </trkpt>
      <trkpt lat="37.08296" lon="-79.606618">
        <ele>258.620532</ele>
        <time>2025-04-04T18:34:22.000Z</time>
      </trkpt>
      <trkpt lat="37.083108" lon="-79.604704">
        <ele>259.146655</ele>
        <time>2025-04-04T18:34:39.000Z</time>
      </trkpt>
      <trkpt lat="37.083196" lon="-79.604427">
        <ele>259.211055</ele>
        <time>2025-04-04T18:34:42.000Z</time>
      </trkpt>
      <trkpt lat="37.08337" lon="-79.604117">
        <ele>259.295109</ele>
        <time>2025-04-04T18:34:45.000Z</time>
      </trkpt>
      <trkpt lat="37.083617" lon="-79.603832">
        <ele>259.385768</ele>
        <time>2025-04-04T18:34:49.000Z</time>
      </trkpt>
      <trkpt lat="37.083924" lon="-79.603629">
        <ele>259.479896</ele>
        <time>2025-04-04T18:34:53.000Z</time>
      </trkpt>
      <trkpt lat="37.085182" lon="-79.603174">
        <ele>259.568616</ele>
        <time>2025-04-04T18:35:08.000Z</time>
      </trkpt>
      <trkpt lat="37.085444" lon="-79.602977">
        <ele>259.543044</ele>
        <time>2025-04-04T18:35:11.000Z</time>
      </trkpt>
      <trkpt lat="37.085667" lon="-79.60272">
        <ele>259.51681</ele>
        <time>2025-04-04T18:35:14.000Z</time>
      </trkpt>
      <trkpt lat="37.085819" lon="-79.602454">
        <ele>259.494054</ele>
        <time>2025-04-04T18:35:17.000Z</time>
      </trkpt>
      <trkpt lat="37.086018" lon="-79.602022">
        <ele>259.85302</ele>
        <time>2025-04-04T18:35:21.000Z</time>
      </trkpt>
      <trkpt lat="37.086761" lon="-79.599713">
        <ele>263.244348</ele>
        <time>2025-04-04T18:35:43.000Z</time>
      </trkpt>
      <trkpt lat="37.0869" lon="-79.599368">
        <ele>263.82886</ele>
        <time>2025-04-04T18:35:46.000Z</time>
      </trkpt>
      <trkpt lat="37.086962" lon="-79.599256">
        <ele>264.041917</ele>
        <time>2025-04-04T18:35:47.000Z</time>
      </trkpt>
      <trkpt lat="37.087295" lon="-79.598936">
        <ele>264.830705</ele>
        <time>2025-04-04T18:35:52.000Z</time>
      </trkpt>
      <trkpt lat="37.087762" lon="-79.598595">
        <ele>265.859761</ele>
        <time>2025-04-04T18:35:58.000Z</time>
      </trkpt>
      <trkpt lat="37.08827" lon="-79.598217">
        <ele>268.076711</ele>
        <time>2025-04-04T18:36:05.000Z</time>
      </trkpt>
      <trkpt lat="37.088599" lon="-79.597881">
        <ele>269.6561</ele>
        <time>2025-04-04T18:36:10.000Z</time>
      </trkpt>
      <trkpt lat="37.089133" lon="-79.59713">
        <ele>272.69802</ele>
        <time>2025-04-04T18:36:19.000Z</time>
      </trkpt>
      <trkpt lat="37.089571" lon="-79.59637">
        <ele>274.646653</ele>
        <time>2025-04-04T18:36:27.000Z</time>
      </trkpt>
      <trkpt lat="37.089748" lon="-79.596069">
        <ele>275.43819</ele>
        <time>2025-04-04T18:36:30.000Z</time>
      </trkpt>
      <trkpt lat="37.089821" lon="-79.595921">
        <ele>275.795596</ele>
        <time>2025-04-04T18:36:32.000Z</time>
      </trkpt>
      <trkpt lat="37.090167" lon="-79.595301">
        <ele>277.39005</ele>
        <time>2025-04-04T18:36:39.000Z</time>
      </trkpt>
      <trkpt lat="37.091097" lon="-79.593635">
        <ele>277.626461</ele>
        <time>2025-04-04T18:36:57.000Z</time>
      </trkpt>
      <trkpt lat="37.091413" lon="-79.593138">
        <ele>277.125803</ele>
        <time>2025-04-04T18:37:03.000Z</time>
      </trkpt>
      <trkpt lat="37.091521" lon="-79.593429">
        <ele>276.711369</ele>
        <time>2025-04-04T18:37:06.000Z</time>
      </trkpt>
      <trkpt lat="37.09218" lon="-79.595281">
        <ele>273.878354</ele>
        <time>2025-04-04T18:37:24.000Z</time>
      </trkpt>
      <trkpt lat="37.093354" lon="-79.598658">
        <ele>266.75577</ele>
        <time>2025-04-04T18:37:57.000Z</time>
      </trkpt>
      <trkpt lat="37.093988" lon="-79.600384">
        <ele>261.48963</ele>
        <time>2025-04-04T18:38:14.000Z</time>
      </trkpt>
      <trkpt lat="37.094094" lon="-79.600678">
        <ele>260.574386</ele>
        <time>2025-04-04T18:38:17.000Z</time>
      </trkpt>
      <trkpt lat="37.0944" lon="-79.601483">
        <ele>258.759767</ele>
        <time>2025-04-04T18:38:25.000Z</time>
      </trkpt>
      <trkpt lat="37.094628" lon="-79.601902">
        <ele>258.069682</ele>
        <time>2025-04-04T18:38:29.000Z</time>
      </trkpt>
      <trkpt lat="37.094931" lon="-79.602209">
        <ele>257.371641</ele>
        <time>2025-04-04T18:38:33.000Z</time>
      </trkpt>
      <trkpt lat="37.095886" lon="-79.602945">
        <ele>255.449075</ele>
        <time>2025-04-04T18:38:45.000Z</time>
      </trkpt>
      <trkpt lat="37.096075" lon="-79.603136">
        <ele>255.024776</ele>
        <time>2025-04-04T18:38:48.000Z</time>
      </trkpt>
      <trkpt lat="37.096971" lon="-79.604248">
        <ele>252.934702</ele>
        <time>2025-04-04T18:39:02.000Z</time>
      </trkpt>
      <trkpt lat="37.097076" lon="-79.604447">
        <ele>252.705003</ele>
        <time>2025-04-04T18:39:04.000Z</time>
      </trkpt>
      <trkpt lat="37.097228" lon="-79.604786">
        <ele>252.310562</ele>
        <time>2025-04-04T18:39:07.000Z</time>
      </trkpt>
      <trkpt lat="37.097304" lon="-79.605108">
        <ele>251.956654</ele>
        <time>2025-04-04T18:39:10.000Z</time>
      </trkpt>
      <trkpt lat="37.09734" lon="-79.605483">
        <ele>251.58212</ele>
        <time>2025-04-04T18:39:13.000Z</time>
      </trkpt>
      <trkpt lat="37.097212" lon="-79.607932">
        <ele>252.216629</ele>
        <time>2025-04-04T18:39:35.000Z</time>
      </trkpt>
      <trkpt lat="37.097103" lon="-79.608385">
        <ele>252.551757</ele>
        <time>2025-04-04T18:39:39.000Z</time>
      </trkpt>
      <trkpt lat="37.097028" lon="-79.608624">
        <ele>252.738719</ele>
        <time>2025-04-04T18:39:41.000Z</time>
      </trkpt>
      <trkpt lat="37.096872" lon="-79.608856">
        <ele>252.967698</ele>
        <time>2025-04-04T18:39:44.000Z</time>
      </trkpt>
      <trkpt lat="37.096705" lon="-79.609005">
        <ele>253.154282</ele>
        <time>2025-04-04T18:39:46.000Z</time>
      </trkpt>
      <trkpt lat="37.096667" lon="-79.609032">
        <ele>253.190918</ele>
        <time>2025-04-04T18:39:46.000Z</time>
      </trkpt>
      <trkpt lat="37.096407" lon="-79.609217">
        <ele>253.467885</ele>
        <time>2025-04-04T18:39:49.000Z</time>
      </trkpt>
      <trkpt lat="37.096154" lon="-79.609412">
        <ele>253.751986</ele>
        <time>2025-04-04T18:39:52.000Z</time>
      </trkpt>
      <trkpt lat="37.096006" lon="-79.609498">
        <ele>253.898892</ele>
        <time>2025-04-04T18:39:54.000Z</time>
      </trkpt>
      <trkpt lat="37.095778" lon="-79.609874">
        <ele>254.173219</ele>
        <time>2025-04-04T18:39:58.000Z</time>
      </trkpt>
      <trkpt lat="37.095744" lon="-79.609928">
        <ele>254.173207</ele>
        <time>2025-04-04T18:39:59.000Z</time>
      </trkpt>
      <trkpt lat="37.095666" lon="-79.609934">
        <ele>254.173219</ele>
        <time>2025-04-04T18:40:00.000Z</time>
      </trkpt>
      <trkpt lat="37.095624" lon="-79.610063">
        <ele>254.173203</ele>
        <time>2025-04-04T18:40:01.000Z</time>
      </trkpt>
      <trkpt lat="37.095586" lon="-79.610099">
        <ele>254.173203</ele>
        <time>2025-04-04T18:40:02.000Z</time>
      </trkpt>
      <trkpt lat="37.095091" lon="-79.610369">
        <ele>254.173211</ele>
        <time>2025-04-04T18:40:08.000Z</time>
      </trkpt>
      <trkpt lat="37.095074" lon="-79.610371">
        <ele>254.173206</ele>
        <time>2025-04-04T18:40:08.000Z</time>
      </trkpt>
      <trkpt lat="37.095033" lon="-79.610384">
        <ele>254.173207</ele>
        <time>2025-04-04T18:40:08.000Z</time>
      </trkpt>
      <trkpt lat="37.094963" lon="-79.610345">
        <ele>254.173219</ele>
        <time>2025-04-04T18:40:09.000Z</time>
      </trkpt>
      <trkpt lat="37.094904" lon="-79.610184">
        <ele>254.173214</ele>
        <time>2025-04-04T18:40:11.000Z</time>
      </trkpt>
      <trkpt lat="37.095455" lon="-79.609867">
        <ele>254.173211</ele>
        <time>2025-04-04T18:40:18.000Z</time>
      </trkpt>
      <trkpt lat="37.09549" lon="-79.60984">
        <ele>253.764439</ele>
        <time>2025-04-04T18:40:18.000Z</time>
      </trkpt>
      <trkpt lat="37.095529" lon="-79.609822">
        <ele>253.764444</ele>
        <time>2025-04-04T18:40:18.000Z</time>
      </trkpt>
      <trkpt lat="37.095609" lon="-79.609825">
        <ele>253.764455</ele>
        <time>2025-04-04T18:40:19.000Z</time>
      </trkpt>
      <trkpt lat="37.095619" lon="-79.609779">
        <ele>253.76444</ele>
        <time>2025-04-04T18:40:19.000Z</time>
      </trkpt>
      <trkpt lat="37.095678" lon="-79.609703">
        <ele>253.76445</ele>
        <time>2025-04-04T18:40:20.000Z</time>
      </trkpt>
      <trkpt lat="37.095996" lon="-79.609499">
        <ele>253.764457</ele>
        <time>2025-04-04T18:40:24.000Z</time>
      </trkpt>
      <trkpt lat="37.096148" lon="-79.609395">
        <ele>253.764448</ele>
        <time>2025-04-04T18:40:26.000Z</time>
      </trkpt>
      <trkpt lat="37.096421" lon="-79.609218">
        <ele>253.577014</ele>
        <time>2025-04-04T18:40:29.000Z</time>
      </trkpt>
      <trkpt lat="37.09667" lon="-79.609041">
        <ele>253.258517</ele>
        <time>2025-04-04T18:40:32.000Z</time>
      </trkpt>
      <trkpt lat="37.096699" lon="-79.609018">
        <ele>253.216379</ele>
        <time>2025-04-04T18:40:32.000Z</time>
      </trkpt>
      <trkpt lat="37.096875" lon="-79.608866">
        <ele>253.001841</ele>
        <time>2025-04-04T18:40:34.000Z</time>
      </trkpt>
      <trkpt lat="37.097021" lon="-79.608615">
        <ele>252.73853</ele>
        <time>2025-04-04T18:40:37.000Z</time>
      </trkpt>
      <trkpt lat="37.097105" lon="-79.608388">
        <ele>252.523545</ele>
        <time>2025-04-04T18:40:39.000Z</time>
      </trkpt>
      <trkpt lat="37.097207" lon="-79.607915">
        <ele>252.109421</ele>
        <time>2025-04-04T18:40:43.000Z</time>
      </trkpt>
      <trkpt lat="37.097341" lon="-79.605482">
        <ele>251.212171</ele>
        <time>2025-04-04T18:41:05.000Z</time>
      </trkpt>
      <trkpt lat="37.097315" lon="-79.605107">
        <ele>251.53211</ele>
        <time>2025-04-04T18:41:08.000Z</time>
      </trkpt>
      <trkpt lat="37.097225" lon="-79.604774">
        <ele>252.028114</ele>
        <time>2025-04-04T18:41:11.000Z</time>
      </trkpt>
      <trkpt lat="37.097074" lon="-79.604436">
        <ele>252.580926</ele>
        <time>2025-04-04T18:41:14.000Z</time>
      </trkpt>
      <trkpt lat="37.09697" lon="-79.604263">
        <ele>252.902875</ele>
        <time>2025-04-04T18:41:16.000Z</time>
      </trkpt>
      <trkpt lat="37.096071" lon="-79.603139">
        <ele>255.079632</ele>
        <time>2025-04-04T18:41:30.000Z</time>
      </trkpt>
      <trkpt lat="37.095887" lon="-79.60293">
        <ele>255.472651</ele>
        <time>2025-04-04T18:41:33.000Z</time>
      </trkpt>
      <trkpt lat="37.094927" lon="-79.602209">
        <ele>257.255536</ele>
        <time>2025-04-04T18:41:45.000Z</time>
      </trkpt>
      <trkpt lat="37.094614" lon="-79.601891">
        <ele>258.144142</ele>
        <time>2025-04-04T18:41:49.000Z</time>
      </trkpt>
      <trkpt lat="37.094394" lon="-79.60149">
        <ele>259.025729</ele>
        <time>2025-04-04T18:41:53.000Z</time>
      </trkpt>
      <trkpt lat="37.094099" lon="-79.600671">
        <ele>260.614502</ele>
        <time>2025-04-04T18:42:01.000Z</time>
      </trkpt>
      <trkpt lat="37.093993" lon="-79.600392">
        <ele>261.168873</ele>
        <time>2025-04-04T18:42:04.000Z</time>
      </trkpt>
      <trkpt lat="37.093365" lon="-79.598662">
        <ele>266.773457</ele>
        <time>2025-04-04T18:42:21.000Z</time>
      </trkpt>
      <trkpt lat="37.092188" lon="-79.595276">
        <ele>273.865124</ele>
        <time>2025-04-04T18:42:54.000Z</time>
      </trkpt>
      <trkpt lat="37.091521" lon="-79.593435">
        <ele>276.617767</ele>
        <time>2025-04-04T18:43:12.000Z</time>
      </trkpt>
      <trkpt lat="37.091412" lon="-79.593146">
        <ele>276.88913</ele>
        <time>2025-04-04T18:43:15.000Z</time>
      </trkpt>
      <trkpt lat="37.091107" lon="-79.593643">
        <ele>277.430221</ele>
        <time>2025-04-04T18:43:21.000Z</time>
      </trkpt>
      <trkpt lat="37.090165" lon="-79.595301">
        <ele>276.958574</ele>
        <time>2025-04-04T18:43:39.000Z</time>
      </trkpt>
      <trkpt lat="37.089829" lon="-79.595932">
        <ele>276.432607</ele>
        <time>2025-04-04T18:43:46.000Z</time>
      </trkpt>
      <trkpt lat="37.08975" lon="-79.596068">
        <ele>275.954345</ele>
        <time>2025-04-04T18:43:47.000Z</time>
      </trkpt>
      <trkpt lat="37.089565" lon="-79.596375">
        <ele>274.895175</ele>
        <time>2025-04-04T18:43:50.000Z</time>
      </trkpt>
      <trkpt lat="37.089129" lon="-79.597129">
        <ele>272.287654</ele>
        <time>2025-04-04T18:43:58.000Z</time>
      </trkpt>
      <trkpt lat="37.088597" lon="-79.597879">
        <ele>269.551816</ele>
        <time>2025-04-04T18:44:07.000Z</time>
      </trkpt>
      <trkpt lat="37.088264" lon="-79.598217">
        <ele>268.241924</ele>
        <time>2025-04-04T18:44:12.000Z</time>
      </trkpt>
      <trkpt lat="37.087768" lon="-79.598598">
        <ele>266.390506</ele>
        <time>2025-04-04T18:44:18.000Z</time>
      </trkpt>
      <trkpt lat="37.087294" lon="-79.598936">
        <ele>264.68686</ele>
        <time>2025-04-04T18:44:24.000Z</time>
      </trkpt>
      <trkpt lat="37.08698" lon="-79.599263">
        <ele>263.894032</ele>
        <time>2025-04-04T18:44:29.000Z</time>
      </trkpt>
      <trkpt lat="37.086904" lon="-79.599361">
        <ele>263.691878</ele>
        <time>2025-04-04T18:44:30.000Z</time>
      </trkpt>
      <trkpt lat="37.086767" lon="-79.599706">
        <ele>263.137275</ele>
        <time>2025-04-04T18:44:33.000Z</time>
      </trkpt>
      <trkpt lat="37.086003" lon="-79.602013">
        <ele>260.165849</ele>
        <time>2025-04-04T18:44:55.000Z</time>
      </trkpt>
      <trkpt lat="37.085827" lon="-79.602458">
        <ele>259.700805</ele>
        <time>2025-04-04T18:44:59.000Z</time>
      </trkpt>
      <trkpt lat="37.085667" lon="-79.602711">
        <ele>259.385277</ele>
        <time>2025-04-04T18:45:02.000Z</time>
      </trkpt>
      <trkpt lat="37.085444" lon="-79.602979">
        <ele>259.251173</ele>
        <time>2025-04-04T18:45:05.000Z</time>
      </trkpt>
      <trkpt lat="37.085187" lon="-79.603171">
        <ele>259.344369</ele>
        <time>2025-04-04T18:45:08.000Z</time>
      </trkpt>
      <trkpt lat="37.083912" lon="-79.603631">
        <ele>259.7591</ele>
        <time>2025-04-04T18:45:23.000Z</time>
      </trkpt>
      <trkpt lat="37.083601" lon="-79.603819">
        <ele>259.564752</ele>
        <time>2025-04-04T18:45:27.000Z</time>
      </trkpt>
      <trkpt lat="37.083378" lon="-79.604113">
        <ele>259.357186</ele>
        <time>2025-04-04T18:45:31.000Z</time>
      </trkpt>
      <trkpt lat="37.083193" lon="-79.604426">
        <ele>259.164786</ele>
        <time>2025-04-04T18:45:34.000Z</time>
      </trkpt>
      <trkpt lat="37.083108" lon="-79.604708">
        <ele>259.017362</ele>
        <time>2025-04-04T18:45:37.000Z</time>
      </trkpt>
      <trkpt lat="37.082957" lon="-79.606614">
        <ele>258.729043</ele>
        <time>2025-04-04T18:45:54.000Z</time>
      </trkpt>
      <trkpt lat="37.082879" lon="-79.606943">
        <ele>258.758287</ele>
        <time>2025-04-04T18:45:57.000Z</time>
      </trkpt>
      <trkpt lat="37.082819" lon="-79.607137">
        <ele>258.775845</ele>
        <time>2025-04-04T18:45:59.000Z</time>
      </trkpt>
      <trkpt lat="37.082619" lon="-79.607468">
        <ele>258.810191</ele>
        <time>2025-04-04T18:46:03.000Z</time>
      </trkpt>
      <trkpt lat="37.082453" lon="-79.607638">
        <ele>258.519654</ele>
        <time>2025-04-04T18:46:05.000Z</time>
      </trkpt>
      <trkpt lat="37.082138" lon="-79.607808">
        <ele>257.683875</ele>
        <time>2025-04-04T18:46:09.000Z</time>
      </trkpt>
      <trkpt lat="37.081572" lon="-79.60802">
        <ele>256.178348</ele>
        <time>2025-04-04T18:46:16.000Z</time>
      </trkpt>
      <trkpt lat="37.081292" lon="-79.6082">
        <ele>255.390754</ele>
        <time>2025-04-04T18:46:19.000Z</time>
      </trkpt>
      <trkpt lat="37.080939" lon="-79.608512">
        <ele>254.256331</ele>
        <time>2025-04-04T18:46:24.000Z</time>
      </trkpt>
      <trkpt lat="37.080349" lon="-79.609077">
        <ele>251.354345</ele>
        <time>2025-04-04T18:46:32.000Z</time>
      </trkpt>
      <trkpt lat="37.080147" lon="-79.609344">
        <ele>250.159834</ele>
        <time>2025-04-04T18:46:35.000Z</time>
      </trkpt>
      <trkpt lat="37.080089" lon="-79.609446">
        <ele>249.792376</ele>
        <time>2025-04-04T18:46:36.000Z</time>
      </trkpt>
      <trkpt lat="37.080026" lon="-79.609658">
        <ele>249.068389</ele>
        <time>2025-04-04T18:46:38.000Z</time>
      </trkpt>
      <trkpt lat="37.080019" lon="-79.609833">
        <ele>248.487181</ele>
        <time>2025-04-04T18:46:40.000Z</time>
      </trkpt>
      <trkpt lat="37.08005" lon="-79.610278">
        <ele>247.082742</ele>
        <time>2025-04-04T18:46:44.000Z</time>
      </trkpt>
      <trkpt lat="37.080022" lon="-79.61043">
        <ele>247.025911</ele>
        <time>2025-04-04T18:46:45.000Z</time>
      </trkpt>
      <trkpt lat="37.079991" lon="-79.610517">
        <ele>246.999478</ele>
        <time>2025-04-04T18:46:46.000Z</time>
      </trkpt>
      <trkpt lat="37.079738" lon="-79.610776">
        <ele>246.868127</ele>
        <time>2025-04-04T18:46:50.000Z</time>
      </trkpt>
      <trkpt lat="37.079638" lon="-79.610889">
        <ele>246.814832</ele>
        <time>2025-04-04T18:46:51.000Z</time>
      </trkpt>
      <trkpt lat="37.079537" lon="-79.611191">
        <ele>246.710806</ele>
        <time>2025-04-04T18:46:54.000Z</time>
      </trkpt>
      <trkpt lat="37.079458" lon="-79.611528">
        <ele>246.599269</ele>
        <time>2025-04-04T18:46:57.000Z</time>
      </trkpt>
      <trkpt lat="37.079359" lon="-79.611682">
        <ele>246.53656</ele>
        <time>2025-04-04T18:46:59.000Z</time>
      </trkpt>
      <trkpt lat="37.079164" lon="-79.61185">
        <ele>246.445666</ele>
        <time>2025-04-04T18:47:02.000Z</time>
      </trkpt>
      <trkpt lat="37.078775" lon="-79.611987">
        <ele>246.664</ele>
        <time>2025-04-04T18:47:06.000Z</time>
      </trkpt>
      <trkpt lat="37.078659" lon="-79.612053">
        <ele>246.858287</ele>
        <time>2025-04-04T18:47:07.000Z</time>
      </trkpt>
      <trkpt lat="37.078591" lon="-79.612146">
        <ele>247.013454</ele>
        <time>2025-04-04T18:47:08.000Z</time>
      </trkpt>
      <trkpt lat="37.078534" lon="-79.612246">
        <ele>247.16758</ele>
        <time>2025-04-04T18:47:09.000Z</time>
      </trkpt>
      <trkpt lat="37.078486" lon="-79.612426">
        <ele>247.396608</ele>
        <time>2025-04-04T18:47:11.000Z</time>
      </trkpt>
      <trkpt lat="37.078476" lon="-79.612635">
        <ele>247.62673</ele>
        <time>2025-04-04T18:47:13.000Z</time>
      </trkpt>
      <trkpt lat="37.078587" lon="-79.613024">
        <ele>248.130415</ele>
        <time>2025-04-04T18:47:17.000Z</time>
      </trkpt>
      <trkpt lat="37.078685" lon="-79.613368">
        <ele>248.559576</ele>
        <time>2025-04-04T18:47:20.000Z</time>
      </trkpt>
      <trkpt lat="37.078824" lon="-79.613709">
        <ele>249.018177</ele>
        <time>2025-04-04T18:47:23.000Z</time>
      </trkpt>
      <trkpt lat="37.079072" lon="-79.614118">
        <ele>249.20665</ele>
        <time>2025-04-04T18:47:28.000Z</time>
      </trkpt>
      <trkpt lat="37.079216" lon="-79.614456">
        <ele>249.329331</ele>
        <time>2025-04-04T18:47:31.000Z</time>
      </trkpt>
      <trkpt lat="37.079278" lon="-79.614826">
        <ele>249.450229</ele>
        <time>2025-04-04T18:47:34.000Z</time>
      </trkpt>
      <trkpt lat="37.079285" lon="-79.615069">
        <ele>249.529669</ele>
        <time>2025-04-04T18:47:36.000Z</time>
      </trkpt>
      <trkpt lat="37.079293" lon="-79.615245">
        <ele>249.58336</ele>
        <time>2025-04-04T18:47:38.000Z</time>
      </trkpt>
      <trkpt lat="37.079246" lon="-79.615403">
        <ele>249.636345</ele>
        <time>2025-04-04T18:47:39.000Z</time>
      </trkpt>
      <trkpt lat="37.079229" lon="-79.615447">
        <ele>249.656091</ele>
        <time>2025-04-04T18:47:39.000Z</time>
      </trkpt>
      <trkpt lat="37.079243" lon="-79.615391">
        <ele>249.675813</ele>
        <time>2025-04-04T18:47:40.000Z</time>
      </trkpt>
      <trkpt lat="37.079287" lon="-79.61525">
        <ele>249.728806</ele>
        <time>2025-04-04T18:47:41.000Z</time>
      </trkpt>
      <trkpt lat="37.079298" lon="-79.615066">
        <ele>249.752635</ele>
        <time>2025-04-04T18:47:43.000Z</time>
      </trkpt>
      <trkpt lat="37.07928" lon="-79.614818">
        <ele>249.5832</ele>
        <time>2025-04-04T18:47:45.000Z</time>
      </trkpt>
      <trkpt lat="37.079209" lon="-79.614463">
        <ele>249.325317</ele>
        <time>2025-04-04T18:47:48.000Z</time>
      </trkpt>
      <trkpt lat="37.079066" lon="-79.614118">
        <ele>249.063668</ele>
        <time>2025-04-04T18:47:51.000Z</time>
      </trkpt>
      <trkpt lat="37.078813" lon="-79.613717">
        <ele>248.715101</ele>
        <time>2025-04-04T18:47:56.000Z</time>
      </trkpt>
      <trkpt lat="37.078684" lon="-79.613358">
        <ele>248.452916</ele>
        <time>2025-04-04T18:47:59.000Z</time>
      </trkpt>
      <trkpt lat="37.078587" lon="-79.613025">
        <ele>248.195216</ele>
        <time>2025-04-04T18:48:02.000Z</time>
      </trkpt>
      <trkpt lat="37.078485" lon="-79.61263">
        <ele>247.782784</ele>
        <time>2025-04-04T18:48:06.000Z</time>
      </trkpt>
      <trkpt lat="37.078487" lon="-79.612435">
        <ele>247.594343</ele>
        <time>2025-04-04T18:48:08.000Z</time>
      </trkpt>
      <trkpt lat="37.078523" lon="-79.612262">
        <ele>247.40681</ele>
        <time>2025-04-04T18:48:10.000Z</time>
      </trkpt>
      <trkpt lat="37.078593" lon="-79.612145">
        <ele>247.280611</ele>
        <time>2025-04-04T18:48:11.000Z</time>
      </trkpt>
      <trkpt lat="37.078663" lon="-79.612049">
        <ele>247.153558</ele>
        <time>2025-04-04T18:48:12.000Z</time>
      </trkpt>
      <trkpt lat="37.078777" lon="-79.611978">
        <ele>246.994465</ele>
        <time>2025-04-04T18:48:13.000Z</time>
      </trkpt>
      <trkpt lat="37.079174" lon="-79.611845">
        <ele>246.498152</ele>
        <time>2025-04-04T18:48:18.000Z</time>
      </trkpt>
      <trkpt lat="37.079354" lon="-79.611689">
        <ele>246.218027</ele>
        <time>2025-04-04T18:48:20.000Z</time>
      </trkpt>
      <trkpt lat="37.079448" lon="-79.61153">
        <ele>246.046835</ele>
        <time>2025-04-04T18:48:22.000Z</time>
      </trkpt>
      <trkpt lat="37.079543" lon="-79.611194">
        <ele>246.448912</ele>
        <time>2025-04-04T18:48:25.000Z</time>
      </trkpt>
      <trkpt lat="37.079646" lon="-79.610903">
        <ele>246.823833</ele>
        <time>2025-04-04T18:48:28.000Z</time>
      </trkpt>
      <trkpt lat="37.079743" lon="-79.610761">
        <ele>247.015907</ele>
        <time>2025-04-04T18:48:30.000Z</time>
      </trkpt>
      <trkpt lat="37.079986" lon="-79.610517">
        <ele>247.489328</ele>
        <time>2025-04-04T18:48:33.000Z</time>
      </trkpt>
      <trkpt lat="37.080019" lon="-79.610445">
        <ele>247.584626</ele>
        <time>2025-04-04T18:48:34.000Z</time>
      </trkpt>
      <trkpt lat="37.08006" lon="-79.610267">
        <ele>247.775641</ele>
        <time>2025-04-04T18:48:36.000Z</time>
      </trkpt>
      <trkpt lat="37.080019" lon="-79.609843">
        <ele>248.279005</ele>
        <time>2025-04-04T18:48:40.000Z</time>
      </trkpt>
      <trkpt lat="37.080039" lon="-79.609657">
        <ele>248.487306</ele>
        <time>2025-04-04T18:48:42.000Z</time>
      </trkpt>
      <trkpt lat="37.0801" lon="-79.609431">
        <ele>249.05507</ele>
        <time>2025-04-04T18:48:44.000Z</time>
      </trkpt>
      <trkpt lat="37.080148" lon="-79.609335">
        <ele>249.481972</ele>
        <time>2025-04-04T18:48:45.000Z</time>
      </trkpt>
      <trkpt lat="37.080353" lon="-79.609072">
        <ele>250.869757</ele>
        <time>2025-04-04T18:48:48.000Z</time>
      </trkpt>
      <trkpt lat="37.080925" lon="-79.608511">
        <ele>254.241268</ele>
        <time>2025-04-04T18:48:56.000Z</time>
      </trkpt>
      <trkpt lat="37.081297" lon="-79.608204">
        <ele>256.314652</ele>
        <time>2025-04-04T18:49:01.000Z</time>
      </trkpt>
      <trkpt lat="37.081585" lon="-79.608028">
        <ele>257.104567</ele>
        <time>2025-04-04T18:49:05.000Z</time>
      </trkpt>
      <trkpt lat="37.082137" lon="-79.607806">
        <ele>257.621489</ele>
        <time>2025-04-04T18:49:11.000Z</time>
      </trkpt>
      <trkpt lat="37.08245" lon="-79.607633">
        <ele>257.908445</ele>
        <time>2025-04-04T18:49:15.000Z</time>
      </trkpt>
      <trkpt lat="37.082617" lon="-79.607476">
        <ele>258.092462</ele>
        <time>2025-04-04T18:49:17.000Z</time>
      </trkpt>
      <trkpt lat="37.082813" lon="-79.607144">
        <ele>258.381318</ele>
        <time>2025-04-04T18:49:21.000Z</time>
      </trkpt>
      <trkpt lat="37.082887" lon="-79.606945">
        <ele>258.52312</ele>
        <time>2025-04-04T18:49:23.000Z</time>
      </trkpt>
      <trkpt lat="37.082961" lon="-79.606614">
        <ele>258.620533</ele>
        <time>2025-04-04T18:49:26.000Z</time>
      </trkpt>
      <trkpt lat="37.083109" lon="-79.6047">
        <ele>259.146667</ele>
        <time>2025-04-04T18:49:43.000Z</time>
      </trkpt>
      <trkpt lat="37.0832" lon="-79.604419">
        <ele>259.211065</ele>
        <time>2025-04-04T18:49:46.000Z</time>
      </trkpt>
      <trkpt lat="37.083363" lon="-79.604107">
        <ele>259.295103</ele>
        <time>2025-04-04T18:49:49.000Z</time>
      </trkpt>
      <trkpt lat="37.083605" lon="-79.603834">
        <ele>259.385768</ele>
        <time>2025-04-04T18:49:53.000Z</time>
      </trkpt>
      <trkpt lat="37.083911" lon="-79.603628">
        <ele>259.479893</ele>
        <time>2025-04-04T18:49:57.000Z</time>
      </trkpt>
      <trkpt lat="37.085189" lon="-79.60317">
        <ele>259.568614</ele>
        <time>2025-04-04T18:50:12.000Z</time>
      </trkpt>
      <trkpt lat="37.085435" lon="-79.602976">
        <ele>259.543059</ele>
        <time>2025-04-04T18:50:15.000Z</time>
      </trkpt>
      <trkpt lat="37.085658" lon="-79.602717">
        <ele>259.516805</ele>
        <time>2025-04-04T18:50:18.000Z</time>
      </trkpt>
      <trkpt lat="37.08582" lon="-79.602452">
        <ele>259.494064</ele>
        <time>2025-04-04T18:50:21.000Z</time>
      </trkpt>
      <trkpt lat="37.08601" lon="-79.602021">
        <ele>259.853019</ele>
        <time>2025-04-04T18:50:25.000Z</time>
      </trkpt>
      <trkpt lat="37.086765" lon="-79.59972">
        <ele>263.244355</ele>
        <time>2025-04-04T18:50:47.000Z</time>
      </trkpt>
      <trkpt lat="37.086912" lon="-79.599361">
        <ele>263.828864</ele>
        <time>2025-04-04T18:50:51.000Z</time>
      </trkpt>
      <trkpt lat="37.08698" lon="-79.599253">
        <ele>264.04191</ele>
        <time>2025-04-04T18:50:52.000Z</time>
      </trkpt>
      <trkpt lat="37.087293" lon="-79.598937">
        <ele>264.830713</ele>
        <time>2025-04-04T18:50:56.000Z</time>
      </trkpt>
      <trkpt lat="37.087771" lon="-79.598596">
        <ele>265.859769</ele>
        <time>2025-04-04T18:51:02.000Z</time>
      </trkpt>
      <trkpt lat="37.088266" lon="-79.598208">
        <ele>268.076715</ele>
        <time>2025-04-04T18:51:08.000Z</time>
      </trkpt>
      <trkpt lat="37.0886" lon="-79.597888">
        <ele>269.656098</ele>
        <time>2025-04-04T18:51:13.000Z</time>
      </trkpt>
      <trkpt lat="37.089123" lon="-79.597122">
        <ele>272.698014</ele>
        <time>2025-04-04T18:51:22.000Z</time>
      </trkpt>
      <trkpt lat="37.089556" lon="-79.596367">
        <ele>274.646646</ele>
        <time>2025-04-04T18:51:30.000Z</time>
      </trkpt>
      <trkpt lat="37.089735" lon="-79.596068">
        <ele>275.438182</ele>
        <time>2025-04-04T18:51:33.000Z</time>
      </trkpt>
      <trkpt lat="37.089825" lon="-79.595926">
        <ele>275.795597</ele>
        <time>2025-04-04T18:51:35.000Z</time>
      </trkpt>
      <trkpt lat="37.090179" lon="-79.595295">
        <ele>277.390052</ele>
        <time>2025-04-04T18:51:42.000Z</time>
      </trkpt>
      <trkpt lat="37.091093" lon="-79.593643">
        <ele>277.626444</ele>
        <time>2025-04-04T18:52:00.000Z</time>
      </trkpt>
      <trkpt lat="37.091413" lon="-79.593151">
        <ele>277.125803</ele>
        <time>2025-04-04T18:52:06.000Z</time>
      </trkpt>
      <trkpt lat="37.091512" lon="-79.593433">
        <ele>276.711374</ele>
        <time>2025-04-04T18:52:09.000Z</time>
      </trkpt>
      <trkpt lat="37.09218" lon="-79.595272">
        <ele>273.878349</ele>
        <time>2025-04-04T18:52:27.000Z</time>
      </trkpt>
      <trkpt lat="37.093369" lon="-79.598664">
        <ele>266.755763</ele>
        <time>2025-04-04T18:53:00.000Z</time>
      </trkpt>
      <trkpt lat="37.093995" lon="-79.600375">
        <ele>261.489647</ele>
        <time>2025-04-04T18:53:17.000Z</time>
      </trkpt>
      <trkpt lat="37.094103" lon="-79.600673">
        <ele>260.574379</ele>
        <time>2025-04-04T18:53:20.000Z</time>
      </trkpt>
      <trkpt lat="37.094383" lon="-79.601487">
        <ele>258.759758</ele>
        <time>2025-04-04T18:53:28.000Z</time>
      </trkpt>
      <trkpt lat="37.094623" lon="-79.601901">
        <ele>258.069672</ele>
        <time>2025-04-04T18:53:33.000Z</time>
      </trkpt>
      <trkpt lat="37.094938" lon="-79.602204">
        <ele>257.371626</ele>
        <time>2025-04-04T18:53:37.000Z</time>
      </trkpt>
      <trkpt lat="37.095884" lon="-79.602943">
        <ele>255.449078</ele>
        <time>2025-04-04T18:53:49.000Z</time>
      </trkpt>
      <trkpt lat="37.096063" lon="-79.603125">
        <ele>255.024772</ele>
        <time>2025-04-04T18:53:52.000Z</time>
      </trkpt>
      <trkpt lat="37.09696" lon="-79.604257">
        <ele>252.934706</ele>
        <time>2025-04-04T18:54:06.000Z</time>
      </trkpt>
      <trkpt lat="37.097068" lon="-79.60444">
        <ele>252.705011</ele>
        <time>2025-04-04T18:54:08.000Z</time>
      </trkpt>
      <trkpt lat="37.097232" lon="-79.60478">
        <ele>252.310558</ele>
        <time>2025-04-04T18:54:12.000Z</time>
      </trkpt>
      <trkpt lat="37.097308" lon="-79.605116">
        <ele>251.956654</ele>
        <time>2025-04-04T18:54:15.000Z</time>
      </trkpt>
      <trkpt lat="37.097348" lon="-79.605486">
        <ele>251.582122</ele>
        <time>2025-04-04T18:54:18.000Z</time>
      </trkpt>
      <trkpt lat="37.097204" lon="-79.607915">
        <ele>252.216629</ele>
        <time>2025-04-04T18:54:40.000Z</time>
      </trkpt>
      <trkpt lat="37.097106" lon="-79.608397">
        <ele>252.551754</ele>
        <time>2025-04-04T18:54:44.000Z</time>
      </trkpt>
      <trkpt lat="37.097018" lon="-79.608625">
        <ele>252.738731</ele>
        <time>2025-04-04T18:54:46.000Z</time>
      </trkpt>
      <trkpt lat="37.09686" lon="-79.608848">
        <ele>252.967703</ele>
        <time>2025-04-04T18:54:49.000Z</time>
      </trkpt>
      <trkpt lat="37.096712" lon="-79.60901">
        <ele>253.154284</ele>
        <time>2025-04-04T18:54:51.000Z</time>
      </trkpt>
      <trkpt lat="37.096673" lon="-79.609037">
        <ele>253.190923</ele>
        <time>2025-04-04T18:54:51.000Z</time>
      </trkpt>
      <trkpt lat="37.096411" lon="-79.609213">
        <ele>253.467896</ele>
        <time>2025-04-04T18:54:54.000Z</time>
      </trkpt>
      <trkpt lat="37.096142" lon="-79.609409">
        <ele>253.751982</ele>
        <time>2025-04-04T18:54:57.000Z</time>
      </trkpt>
      <trkpt lat="37.095998" lon="-79.609491">
        <ele>253.898893</ele>
        <time>2025-04-04T18:54:59.000Z</time>
      </trkpt>
      <trkpt lat="37.095786" lon="-79.609859">
        <ele>254.173213</ele>
        <time>2025-04-04T18:55:03.000Z</time>
      </trkpt>
      <trkpt lat="37.09573" lon="-79.609919">
        <ele>254.173207</ele>
        <time>2025-04-04T18:55:04.000Z</time>
      </trkpt>
      <trkpt lat="37.095666" lon="-79.60994">
        <ele>254.173216</ele>
        <time>2025-04-04T18:55:05.000Z</time>
      </trkpt>
      <trkpt lat="37.095637" lon="-79.61006">
        <ele>254.173215</ele>
        <time>2025-04-04T18:55:06.000Z</time>
      </trkpt>
      <trkpt lat="37.095591" lon="-79.610089">
        <ele>254.173209</ele>
        <time>2025-04-04T18:55:07.000Z</time>
      </trkpt>
      <trkpt lat="37.095075" lon="-79.610374">
        <ele>254.173217</ele>
        <time>2025-04-04T18:55:13.000Z</time>
      </trkpt>
      <trkpt lat="37.095067" lon="-79.610371">
        <ele>254.17322</ele>
        <time>2025-04-04T18:55:13.000Z</time>
      </trkpt>
      <trkpt lat="37.095035" lon="-79.610387">
        <ele>254.173219</ele>
        <time>2025-04-04T18:55:13.000Z</time>
      </trkpt>
      <trkpt lat="37.094967" lon="-79.610332">
        <ele>254.173206</ele>
        <time>2025-04-04T18:55:14.000Z</time>
      </trkpt>
      <trkpt lat="37.09491" lon="-79.610188">
        <ele>254.173211</ele>
        <time>2025-04-04T18:55:15.000Z</time>
      </trkpt>
      <trkpt lat="37.095441" lon="-79.60987">
        <ele>254.17321</ele>
        <time>2025-04-04T18:55:22.000Z</time>
      </trkpt>
      <trkpt lat="37.095486" lon="-79.609847">
        <ele>253.764447</ele>
        <time>2025-04-04T18:55:23.000Z</time>
      </trkpt>
      <trkpt lat="37.09553" lon="-79.609818">
        <ele>253.764442</ele>
        <time>2025-04-04T18:55:24.000Z</time>
      </trkpt>
      <trkpt lat="37.0956" lon="-79.609813">
        <ele>253.764449</ele>
        <time>2025-04-04T18:55:25.000Z</time>
      </trkpt>
      <trkpt lat="37.09562" lon="-79.609777">
        <ele>253.764457</ele>
        <time>2025-04-04T18:55:25.000Z</time>
      </trkpt>
      <trkpt lat="37.095688" lon="-79.609696">
        <ele>253.76444</ele>
        <time>2025-04-04T18:55:26.000Z</time>
      </trkpt>
      <trkpt lat="37.096007" lon="-79.609489">
        <ele>253.764451</ele>
        <time>2025-04-04T18:55:30.000Z</time>
      </trkpt>
      <trkpt lat="37.096138" lon="-79.609398">
        <ele>253.764453</ele>
        <time>2025-04-04T18:55:32.000Z</time>
      </trkpt>
      <trkpt lat="37.096409" lon="-79.609217">
        <ele>253.577005</ele>
        <time>2025-04-04T18:55:35.000Z</time>
      </trkpt>
      <trkpt lat="37.096665" lon="-79.609037">
        <ele>253.258514</ele>
        <time>2025-04-04T18:55:38.000Z</time>
      </trkpt>
      <trkpt lat="37.096702" lon="-79.609011">
        <ele>253.216392</ele>
        <time>2025-04-04T18:55:38.000Z</time>
      </trkpt>
      <trkpt lat="37.096862" lon="-79.608865">
        <ele>253.001838</ele>
        <time>2025-04-04T18:55:40.000Z</time>
      </trkpt>
      <trkpt lat="37.09703" lon="-79.608629">
        <ele>252.738536</ele>
        <time>2025-04-04T18:55:43.000Z</time>
      </trkpt>
      <trkpt lat="37.097108" lon="-79.60839">
        <ele>252.523543</ele>
        <time>2025-04-04T18:55:45.000Z</time>
      </trkpt>
      <trkpt lat="37.097206" lon="-79.607925">
        <ele>252.109418</ele>
        <time>2025-04-04T18:55:49.000Z</time>
      </trkpt>
      <trkpt lat="37.097342" lon="-79.605484">
        <ele>251.212172</ele>
        <time>2025-04-04T18:56:11.000Z</time>
      </trkpt>
      <trkpt lat="37.097319" lon="-79.605104">
        <ele>251.532124</ele>
        <time>2025-04-04T18:56:14.000Z</time>
      </trkpt>
      <trkpt lat="37.09723" lon="-79.60478">
        <ele>252.028111</ele>
        <time>2025-04-04T18:56:17.000Z</time>
      </trkpt>
      <trkpt lat="37.097078" lon="-79.604439">
        <ele>252.580935</ele>
        <time>2025-04-04T18:56:20.000Z</time>
      </trkpt>
      <trkpt lat="37.096965" lon="-79.604263">
        <ele>252.902867</ele>
        <time>2025-04-04T18:56:22.000Z</time>
      </trkpt>
      <trkpt lat="37.096062" lon="-79.603137">
        <ele>255.07963</ele>
        <time>2025-04-04T18:56:36.000Z</time>
      </trkpt>
      <trkpt lat="37.09588" lon="-79.60293">
        <ele>255.472657</ele>
        <time>2025-04-04T18:56:39.000Z</time>
      </trkpt>
      <trkpt lat="37.094943" lon="-79.602215">
        <ele>257.255542</ele>
        <time>2025-04-04T18:56:51.000Z</time>
      </trkpt>
      <trkpt lat="37.094614" lon="-79.601896">
        <ele>258.144142</ele>
        <time>2025-04-04T18:56:56.000Z</time>
      </trkpt>
      <trkpt lat="37.094387" lon="-79.601484">
        <ele>259.025734</ele>
        <time>2025-04-04T18:57:00.000Z</time>
      </trkpt>
      <trkpt lat="37.0941" lon="-79.600668">
        <ele>260.614512</ele>
        <time>2025-04-04T18:57:08.000Z</time>
      </trkpt>
      <trkpt lat="37.094002" lon="-79.600382">
        <ele>261.168873</ele>
        <time>2025-04-04T18:57:11.000Z</time>
      </trkpt>
      <trkpt lat="37.093356" lon="-79.59866">
        <ele>266.773468</ele>
        <time>2025-04-04T18:57:28.000Z</time>
      </trkpt>
      <trkpt lat="37.092192" lon="-79.59528">
        <ele>273.86512</ele>
        <time>2025-04-04T18:58:01.000Z</time>
      </trkpt>
      <trkpt lat="37.091514" lon="-79.593439">
        <ele>276.617756</ele>
        <time>2025-04-04T18:58:19.000Z</time>
      </trkpt>
      <trkpt lat="37.091411" lon="-79.593149">
        <ele>276.889134</ele>
        <time>2025-04-04T18:58:22.000Z</time>
      </trkpt>
      <trkpt lat="37.091095" lon="-79.593652">
        <ele>277.430221</ele>
        <time>2025-04-04T18:58:28.000Z</time>
      </trkpt>
      <trkpt lat="37.090174" lon="-79.595304">
        <ele>276.958577</ele>
        <time>2025-04-04T18:58:46.000Z</time>
      </trkpt>
      <trkpt lat="37.089816" lon="-79.595921">
        <ele>276.432599</ele>
        <time>2025-04-04T18:58:53.000Z</time>
      </trkpt>
      <trkpt lat="37.089733" lon="-79.596056">
        <ele>275.954343</ele>
        <time>2025-04-04T18:58:55.000Z</time>
      </trkpt>
      <trkpt lat="37.089565" lon="-79.59638">
        <ele>274.89516</ele>
        <time>2025-04-04T18:58:58.000Z</time>
      </trkpt>
      <trkpt lat="37.089129" lon="-79.59713">
        <ele>272.287652</ele>
        <time>2025-04-04T18:59:06.000Z</time>
      </trkpt>
      <trkpt lat="37.088599" lon="-79.597895">
        <ele>269.551804</ele>
        <time>2025-04-04T18:59:15.000Z</time>
      </trkpt>
      <trkpt lat="37.088279" lon="-79.598217">
        <ele>268.241917</ele>
        <time>2025-04-04T18:59:20.000Z</time>
      </trkpt>
      <trkpt lat="37.087771" lon="-79.598601">
        <ele>266.390505</ele>
        <time>2025-04-04T18:59:27.000Z</time>
      </trkpt>
      <trkpt lat="37.087294" lon="-79.598938">
        <ele>264.686865</ele>
        <time>2025-04-04T18:59:33.000Z</time>
      </trkpt>
      <trkpt lat="37.086975" lon="-79.599265">
        <ele>263.89403</ele>
        <time>2025-04-04T18:59:38.000Z</time>
      </trkpt>
      <trkpt lat="37.086903" lon="-79.599361">
        <ele>263.69187</ele>
        <time>2025-04-04T18:59:39.000Z</time>
      </trkpt>
      <trkpt lat="37.086766" lon="-79.599712">
        <ele>263.137278</ele>
        <time>2025-04-04T18:59:42.000Z</time>
      </trkpt>
      <trkpt lat="37.086008" lon="-79.602013">
        <ele>260.165844</ele>
        <time>2025-04-04T19:00:04.000Z</time>
      </trkpt>
      <trkpt lat="37.085835" lon="-79.602446">
        <ele>259.700806</ele>
        <time>2025-04-04T19:00:08.000Z</time>
      </trkpt>
      <trkpt lat="37.085668" lon="-79.602716">
        <ele>259.38529</ele>
        <time>2025-04-04T19:00:11.000Z</time>
      </trkpt>
      <trkpt lat="37.085448" lon="-79.602982">
        <ele>259.251171</ele>
        <time>2025-04-04T19:00:14.000Z</time>
      </trkpt>
      <trkpt lat="37.085191" lon="-79.603177">
        <ele>259.344377</ele>
        <time>2025-04-04T19:00:17.000Z</time>
      </trkpt>
      <trkpt lat="37.083923" lon="-79.603631">
        <ele>259.7591</ele>
        <time>2025-04-04T19:00:32.000Z</time>
      </trkpt>
      <trkpt lat="37.083617" lon="-79.60382">
        <ele>259.564762</ele>
        <time>2025-04-04T19:00:36.000Z</time>
      </trkpt>
      <trkpt lat="37.083362" lon="-79.604119">
        <ele>259.357186</ele>
        <time>2025-04-04T19:00:40.000Z</time>
      </trkpt>
      <trkpt lat="37.083199" lon="-79.604428">
        <ele>259.164797</ele>
        <time>2025-04-04T19:00:43.000Z</time>
      </trkpt>
      <trkpt lat="37.083112" lon="-79.604709">
        <ele>259.017354</ele>
        <time>2025-04-04T19:00:46.000Z</time>
      </trkpt>
      <trkpt lat="37.082957" lon="-79.606608">
        <ele>258.729051</ele>
        <time>2025-04-04T19:01:03.000Z</time>
      </trkpt>
      <trkpt lat="37.082878" lon="-79.606958">
        <ele>258.758281</ele>
        <time>2025-04-04T19:01:06.000Z</time>
      </trkpt>
      <trkpt lat="37.082811" lon="-79.607144">
        <ele>258.775843</ele>
        <time>2025-04-04T19:01:08.000Z</time>
      </trkpt>
      <trkpt lat="37.082604" lon="-79.607476">
        <ele>258.810198</ele>
        <time>2025-04-04T19:01:12.000Z</time>
      </trkpt>
      <trkpt lat="37.08245" lon="-79.607633">
        <ele>258.519652</ele>
        <time>2025-04-04T19:01:14.000Z</time>
      </trkpt>
      <trkpt lat="37.082145" lon="-79.607802">
        <ele>257.683886</ele>
        <time>2025-04-04T19:01:18.000Z</time>
      </trkpt>
      <trkpt lat="37.081572" lon="-79.608024">
        <ele>256.178346</ele>
        <time>2025-04-04T19:01:25.000Z</time>
      </trkpt>
      <trkpt lat="37.081298" lon="-79.608211">
        <ele>255.390743</ele>
        <time>2025-04-04T19:01:28.000Z</time>
      </trkpt>
      <trkpt lat="37.080935" lon="-79.608515">
        <ele>254.256326</ele>
        <time>2025-04-04T19:01:33.000Z</time>
      </trkpt>
      <trkpt lat="37.080361" lon="-79.609068">
        <ele>251.354336</ele>
        <time>2025-04-04T19:01:41.000Z</time>
      </trkpt>
      <trkpt lat="37.080151" lon="-79.609344">
        <ele>250.159833</ele>
        <time>2025-04-04T19:01:44.000Z</time>
      </trkpt>
      <trkpt lat="37.080099" lon="-79.609435">
        <ele>249.792383</ele>
        <time>2025-04-04T19:01:45.000Z</time>
      </trkpt>
      <trkpt lat="37.080033" lon="-79.609651">
        <ele>249.068391</ele>
        <time>2025-04-04T19:01:47.000Z</time>
      </trkpt>
      <trkpt lat="37.080031" lon="-79.609837">
        <ele>248.487178</ele>
        <time>2025-04-04T19:01:49.000Z</time>
      </trkpt>
      <trkpt lat="37.080051" lon="-79.610275">
        <ele>247.082738</ele>
        <time>2025-04-04T19:01:53.000Z</time>
      </trkpt>
      <trkpt lat="37.080019" lon="-79.610442">
        <ele>247.025906</ele>
        <time>2025-04-04T19:01:55.000Z</time>
      </trkpt>
      <trkpt lat="37.079986" lon="-79.610516">
        <ele>246.999474</ele>
        <time>2025-04-04T19:01:56.000Z</time>
      </trkpt>
      <trkpt lat="37.079739" lon="-79.610771">
        <ele>246.868134</ele>
        <time>2025-04-04T19:02:00.000Z</time>
      </trkpt>
      <trkpt lat="37.07964" lon="-79.610903">
        <ele>246.814832</ele>
        <time>2025-04-04T19:02:02.000Z</time>
      </trkpt>
      <trkpt lat="37.079543" lon="-79.611186">
        <ele>246.710813</ele>
        <time>2025-04-04T19:02:05.000Z</time>
      </trkpt>
      <trkpt lat="37.079459" lon="-79.611537">
        <ele>246.599263</ele>
        <time>2025-04-04T19:02:08.000Z</time>
      </trkpt>
      <trkpt lat="37.079355" lon="-79.611683">
        <ele>246.53656</ele>
        <time>2025-04-04T19:02:10.000Z</time>
      </trkpt>
      <trkpt lat="37.079173" lon="-79.611854">
        <ele>246.44565</ele>
        <time>2025-04-04T19:02:13.000Z</time>
      </trkpt>
      <trkpt lat="37.078781" lon="-79.611977">
        <ele>246.664014</ele>
        <time>2025-04-04T19:02:17.000Z</time>
      </trkpt>
      <trkpt lat="37.078668" lon="-79.612059">
        <ele>246.858292</ele>
        <time>2025-04-04T19:02:18.000Z</time>
      </trkpt>
      <trkpt lat="37.078581" lon="-79.612141">
        <ele>247.01347</ele>
        <time>2025-04-04T19:02:19.000Z</time>
      </trkpt>
      <trkpt lat="37.078536" lon="-79.61226">
        <ele>247.167583</ele>
        <time>2025-04-04T19:02:20.000Z</time>
      </trkpt>
      <trkpt lat="37.078474" lon="-79.612426">
        <ele>247.3966</ele>
        <time>2025-04-04T19:02:22.000Z</time>
      </trkpt>
      <trkpt lat="37.078479" lon="-79.612621">
        <ele>247.626742</ele>
        <time>2025-04-04T19:02:24.000Z</time>
      </trkpt>
      <trkpt lat="37.078573" lon="-79.61304">
        <ele>248.130405</ele>
        <time>2025-04-04T19:02:28.000Z</time>
      </trkpt>
      <trkpt lat="37.078692" lon="-79.61337">
        <ele>248.559579</ele>
        <time>2025-04-04T19:02:31.000Z</time>
      </trkpt>
      <trkpt lat="37.078815" lon="-79.613709">
        <ele>249.018189</ele>
        <time>2025-04-04T19:02:34.000Z</time>
      </trkpt>
      <trkpt lat="37.079067" lon="-79.614111">
        <ele>249.206649</ele>
        <time>2025-04-04T19:02:39.000Z</time>
      </trkpt>
      <trkpt lat="37.079202" lon="-79.614466">
        <ele>249.32932</ele>
        <time>2025-04-04T19:02:42.000Z</time>
      </trkpt>
      <trkpt lat="37.079285" lon="-79.614819">
        <ele>249.450241</ele>
        <time>2025-04-04T19:02:45.000Z</time>
      </trkpt>
      <trkpt lat="37.079295" lon="-79.61508">
        <ele>249.529675</ele>
        <time>2025-04-04T19:02:47.000Z</time>
      </trkpt>
      <trkpt lat="37.079299" lon="-79.615245">
        <ele>249.583356</ele>
        <time>2025-04-04T19:02:48.000Z</time>
      </trkpt>
      <trkpt lat="37.079245" lon="-79.615391">
        <ele>249.636336</ele>
        <time>2025-04-04T19:02:49.000Z</time>
      </trkpt>
      <trkpt lat="37.079227" lon="-79.615445">
        <ele>249.656078</ele>
        <time>2025-04-04T19:02:50.000Z</time>
      </trkpt>
      <trkpt lat="37.079255" lon="-79.615402">
        <ele>249.675825</ele>
        <time>2025-04-04T19:02:50.000Z</time>
      </trkpt>
      <trkpt lat="37.079284" lon="-79.615247">
        <ele>249.728796</ele>
        <time>2025-04-04T19:02:51.000Z</time>
      </trkpt>
      <trkpt lat="37.079287" lon="-79.615065">
        <ele>249.752634</ele>
        <time>2025-04-04T19:02:53.000Z</time>
      </trkpt>
      <trkpt lat="37.079283" lon="-79.614819">
        <ele>249.583201</ele>
        <time>2025-04-04T19:02:55.000Z</time>
      </trkpt>
      <trkpt lat="37.079219" lon="-79.614459">
        <ele>249.325317</ele>
        <time>2025-04-04T19:02:58.000Z</time>
      </trkpt>
      <trkpt lat="37.07908" lon="-79.614116">
        <ele>249.063658</ele>
        <time>2025-04-04T19:03:01.000Z</time>
      </trkpt>
      <trkpt lat="37.078823" lon="-79.613711">
        <ele>248.715104</ele>
        <time>2025-04-04T19:03:06.000Z</time>
      </trkpt>
      <trkpt lat="37.078679" lon="-79.613367">
        <ele>248.452918</ele>
        <time>2025-04-04T19:03:09.000Z</time>
      </trkpt>
      <trkpt lat="37.078578" lon="-79.613035">
        <ele>248.195217</ele>
        <time>2025-04-04T19:03:12.000Z</time>
      </trkpt>
      <trkpt lat="37.078471" lon="-79.612619">
        <ele>247.782779</ele>
        <time>2025-04-04T19:03:16.000Z</time>
      </trkpt>
      <trkpt lat="37.078483" lon="-79.612437">
        <ele>247.594358</ele>
        <time>2025-04-04T19:03:18.000Z</time>
      </trkpt>
      <trkpt lat="37.078534" lon="-79.612245">
        <ele>247.406815</ele>
        <time>2025-04-04T19:03:20.000Z</time>
      </trkpt>
      <trkpt lat="37.078578" lon="-79.612142">
        <ele>247.280613</ele>
        <time>2025-04-04T19:03:21.000Z</time>
      </trkpt>
      <trkpt lat="37.078667" lon="-79.612057">
        <ele>247.153543</ele>
        <time>2025-04-04T19:03:22.000Z</time>
      </trkpt>
      <trkpt lat="37.078774" lon="-79.611995">
        <ele>246.994461</ele>
        <time>2025-04-04T19:03:23.000Z</time>
      </trkpt>
      <trkpt lat="37.079162" lon="-79.611851">
        <ele>246.498156</ele>
        <time>2025-04-04T19:03:27.000Z</time>
      </trkpt>
      <trkpt lat="37.079361" lon="-79.611696">
        <ele>246.218017</ele>
        <time>2025-04-04T19:03:30.000Z</time>
      </trkpt>
      <trkpt lat="37.07946" lon="-79.611534">
        <ele>246.046846</ele>
        <time>2025-04-04T19:03:32.000Z</time>
      </trkpt>
      <trkpt lat="37.079527" lon="-79.611188">
        <ele>246.448902</ele>
        <time>2025-04-04T19:03:35.000Z</time>
      </trkpt>
      <trkpt lat="37.079647" lon="-79.610897">
        <ele>246.82383</ele>
        <time>2025-04-04T19:03:38.000Z</time>
      </trkpt>
      <trkpt lat="37.079727" lon="-79.610771">
        <ele>247.01592</ele>
        <time>2025-04-04T19:03:39.000Z</time>
      </trkpt>
      <trkpt lat="37.079984" lon="-79.610517">
        <ele>247.489339</ele>
        <time>2025-04-04T19:03:43.000Z</time>
      </trkpt>
      <trkpt lat="37.080017" lon="-79.61043">
        <ele>247.584621</ele>
        <time>2025-04-04T19:03:44.000Z</time>
      </trkpt>
      <trkpt lat="37.080058" lon="-79.610267">
        <ele>247.775645</ele>
        <time>2025-04-04T19:03:46.000Z</time>
      </trkpt>
      <trkpt lat="37.080022" lon="-79.609828">
        <ele>248.278995</ele>
        <time>2025-04-04T19:03:50.000Z</time>
      </trkpt>
      <trkpt lat="37.080028" lon="-79.609659">
        <ele>248.487311</ele>
        <time>2025-04-04T19:03:52.000Z</time>
      </trkpt>
      <trkpt lat="37.080096" lon="-79.609432">
        <ele>249.055074</ele>
        <time>2025-04-04T19:03:54.000Z</time>
      </trkpt>
      <trkpt lat="37.080137" lon="-79.609346">
        <ele>249.481982</ele>
        <time>2025-04-04T19:03:55.000Z</time>
      </trkpt>
      <trkpt lat="37.080353" lon="-79.609075">
        <ele>250.86976</ele>
        <time>2025-04-04T19:03:58.000Z</time>
      </trkpt>
      <trkpt lat="37.080938" lon="-79.608516">
        <ele>254.241261</ele>
        <time>2025-04-04T19:04:06.000Z</time>
      </trkpt>
      <trkpt lat="37.0813" lon="-79.6082">
        <ele>256.314647</ele>
        <time>2025-04-04T19:04:11.000Z</time>
      </trkpt>
      <trkpt lat="37.081575" lon="-79.608034">
        <ele>257.104582</ele>
        <time>2025-04-04T19:04:14.000Z</time>
      </trkpt>
      <trkpt lat="37.082134" lon="-79.607806">
        <ele>257.621483</ele>
        <time>2025-04-04T19:04:21.000Z</time>
      </trkpt>
      <trkpt lat="37.082438" lon="-79.607631">
        <ele>257.908439</ele>
        <time>2025-04-04T19:04:25.000Z</time>
      </trkpt>
      <trkpt lat="37.08261" lon="-79.607467">
        <ele>258.092469</ele>
        <time>2025-04-04T19:04:27.000Z</time>
      </trkpt>
      <trkpt lat="37.082819" lon="-79.607152">
        <ele>258.381305</ele>
        <time>2025-04-04T19:04:31.000Z</time>
      </trkpt>
      <trkpt lat="37.082892" lon="-79.606957">
        <ele>258.523111</ele>
        <time>2025-04-04T19:04:33.000Z</time>
      </trkpt>
      <trkpt lat="37.082968" lon="-79.606608">
        <ele>258.62053</ele>
        <time>2025-04-04T19:04:36.000Z</time>
      </trkpt>
      <trkpt lat="37.083103" lon="-79.604703">
        <ele>259.146664</ele>
        <time>2025-04-04T19:04:53.000Z</time>
      </trkpt>
      <trkpt lat="37.083198" lon="-79.604423">
        <ele>259.21106</ele>
        <time>2025-04-04T19:04:56.000Z</time>
      </trkpt>
      <trkpt lat="37.083375" lon="-79.604116">
        <ele>259.29511</ele>
        <time>2025-04-04T19:04:59.000Z</time>
      </trkpt>
      <trkpt lat="37.08361" lon="-79.603827">
        <ele>259.385769</ele>
        <time>2025-04-04T19:05:03.000Z</time>
      </trkpt>
      <trkpt lat="37.083912" lon="-79.60364">
        <ele>259.479884</ele>
        <time>2025-04-04T19:05:07.000Z</time>
      </trkpt>
      <trkpt lat="37.085187" lon="-79.603165">
        <ele>259.568606</ele>
        <time>2025-04-04T19:05:22.000Z</time>
      </trkpt>
      <trkpt lat="37.085442" lon="-79.602972">
        <ele>259.543058</ele>
        <time>2025-04-04T19:05:25.000Z</time>
      </trkpt>
      <trkpt lat="37.085659" lon="-79.602704">
        <ele>259.516804</ele>
        <time>2025-04-04T19:05:28.000Z</time>
      </trkpt>
      <trkpt lat="37.085819" lon="-79.602451">
        <ele>259.494057</ele>
        <time>2025-04-04T19:05:31.000Z</time>
      </trkpt>
      <trkpt lat="37.086005" lon="-79.60201">
        <ele>259.853016</ele>
        <time>2025-04-04T19:05:35.000Z</time>
      </trkpt>
      <trkpt lat="37.086755" lon="-79.599705">
        <ele>263.244341</ele>
        <time>2025-04-04T19:05:57.000Z</time>
      </trkpt>
      <trkpt lat="37.086903" lon="-79.599373">
        <ele>263.828854</ele>
        <time>2025-04-04T19:06:00.000Z</time>
      </trkpt>
      <trkpt lat="37.086967" lon="-79.599266">
        <ele>264.04191</ele>
        <time>2025-04-04T19:06:01.000Z</time>
      </trkpt>
      <trkpt lat="37.087302" lon="-79.598927">
        <ele>264.830701</ele>
        <time>2025-04-04T19:06:06.000Z</time>
      </trkpt>
      <trkpt lat="37.087771" lon="-79.598594">
        <ele>265.859765</ele>
        <time>2025-04-04T19:06:12.000Z</time>
      </trkpt>
      <trkpt lat="37.088274" lon="-79.598224">
        <ele>268.076719</ele>
        <time>2025-04-04T19:06:18.000Z</time>
      </trkpt>
      <trkpt lat="37.088604" lon="-79.59788">
        <ele>269.656086</ele>
        <time>2025-04-04T19:06:23.000Z</time>
      </trkpt>
      <trkpt lat="37.08913" lon="-79.597132">
        <ele>272.698023</ele>
        <time>2025-04-04T19:06:32.000Z</time>
      </trkpt>
      <trkpt lat="37.089571" lon="-79.596375">
        <ele>274.646654</ele>
        <time>2025-04-04T19:06:40.000Z</time>
      </trkpt>
      <trkpt lat="37.089743" lon="-79.596065">
        <ele>275.438178</ele>
        <time>2025-04-04T19:06:43.000Z</time>
      </trkpt>
      <trkpt lat="37.089814" lon="-79.595935">
        <ele>275.795584</ele>
        <time>2025-04-04T19:06:44.000Z</time>
      </trkpt>
      <trkpt lat="37.090183" lon="-79.595302">
        <ele>277.390064</ele>
        <time>2025-04-04T19:06:51.000Z</time>
      </trkpt>
      <trkpt lat="37.091103" lon="-79.593647">
        <ele>277.626452</ele>
        <time>2025-04-04T19:07:09.000Z</time>
      </trkpt>
      <trkpt lat="37.091415" lon="-79.593148">
        <ele>277.1258</ele>
        <time>2025-04-04T19:07:15.000Z</time>
      </trkpt>
      <trkpt lat="37.091508" lon="-79.593438">
        <ele>276.71137</ele>
        <time>2025-04-04T19:07:18.000Z</time>
      </trkpt>
      <trkpt lat="37.092179" lon="-79.595273">
        <ele>273.878351</ele>
        <time>2025-04-04T19:07:36.000Z</time>
      </trkpt>
      <trkpt lat="37.093354" lon="-79.59866">
        <ele>266.755755</ele>
        <time>2025-04-04T19:08:09.000Z</time>
      </trkpt>
      <trkpt lat="37.093996" lon="-79.600376">
        <ele>261.489643</ele>
        <time>2025-04-04T19:08:26.000Z</time>
      </trkpt>
      <trkpt lat="37.094097" lon="-79.600673">
        <ele>260.574394</ele>
        <time>2025-04-04T19:08:29.000Z</time>
      </trkpt>
      <trkpt lat="37.094392" lon="-79.601488">
        <ele>258.759762</ele>
        <time>2025-04-04T19:08:37.000Z</time>
      </trkpt>
      <trkpt lat="37.09462" lon="-79.60189">
        <ele>258.069681</ele>
        <time>2025-04-04T19:08:41.000Z</time>
      </trkpt>
      <trkpt lat="37.094927" lon="-79.602209">
        <ele>257.371638</ele>
        <time>2025-04-04T19:08:45.000Z</time>
      </trkpt>
      <trkpt lat="37.095869" lon="-79.602935">
        <ele>255.449091</ele>
        <time>2025-04-04T19:08:57.000Z</time>
      </trkpt>
      <trkpt lat="37.096076" lon="-79.603133">
        <ele>255.024766</ele>
        <time>2025-04-04T19:09:00.000Z</time>
      </trkpt>
      <trkpt lat="37.096955" lon="-79.604265">
        <ele>252.934707</ele>
        <time>2025-04-04T19:09:14.000Z</time>
      </trkpt>
      <trkpt lat="37.097064" lon="-79.604437">
        <ele>252.705009</ele>
        <time>2025-04-04T19:09:16.000Z</time>
      </trkpt>
      <trkpt lat="37.097233" lon="-79.604781">
        <ele>252.310553</ele>
        <time>2025-04-04T19:09:20.000Z</time>
      </trkpt>
      <trkpt lat="37.097314" lon="-79.605107">
        <ele>251.956666</ele>
        <time>2025-04-04T19:09:23.000Z</time>
      </trkpt>
      <trkpt lat="37.097343" lon="-79.605487">
        <ele>251.582113</ele>
        <time>2025-04-04T19:09:26.000Z</time>
      </trkpt>
      <trkpt lat="37.097211" lon="-79.607916">
        <ele>252.216616</ele>
        <time>2025-04-04T19:09:48.000Z</time>
      </trkpt>
      <trkpt lat="37.097101" lon="-79.608388">
        <ele>252.551766</ele>
        <time>2025-04-04T19:09:52.000Z</time>
      </trkpt>
      <trkpt lat="37.097017" lon="-79.608623">
        <ele>252.738718</ele>
        <time>2025-04-04T19:09:54.000Z</time>
      </trkpt>
      <trkpt lat="37.09687" lon="-79.608852">
        <ele>252.967701</ele>
        <time>2025-04-04T19:09:57.000Z</time>
      </trkpt>
      <trkpt lat="37.096709" lon="-79.609015">
        <ele>253.154283</ele>
        <time>2025-04-04T19:09:59.000Z</time>
      </trkpt>
      <trkpt lat="37.096677" lon="-79.60904">
        <ele>253.19091</ele>
        <time>2025-04-04T19:09:59.000Z</time>
      </trkpt>
      <trkpt lat="37.096406" lon="-79.609217">
        <ele>253.467891</ele>
        <time>2025-04-04T19:10:02.000Z</time>
      </trkpt>
      <trkpt lat="37.096138" lon="-79.609396">
        <ele>253.751986</ele>
        <time>2025-04-04T19:10:05.000Z</time>
      </trkpt>
      <trkpt lat="37.096003" lon="-79.609486">
        <ele>253.8989</ele>
        <time>2025-04-04T19:10:07.000Z</time>
      </trkpt>
      <trkpt lat="37.09579" lon="-79.609858">
        <ele>254.173214</ele>
        <time>2025-04-04T19:10:11.000Z</time>
      </trkpt>
      <trkpt lat="37.095729" lon="-79.609925">
        <ele>254.173211</ele>
        <time>2025-04-04T19:10:12.000Z</time>
      </trkpt>
      <trkpt lat="37.095675" lon="-79.60994">
        <ele>254.173208</ele>
        <time>2025-04-04T19:10:13.000Z</time>
      </trkpt>
      <trkpt lat="37.095628" lon="-79.610058">
        <ele>254.173211</ele>
        <time>2025-04-04T19:10:14.000Z</time>
      </trkpt>
      <trkpt lat="37.095578" lon="-79.610097">
        <ele>254.173205</ele>
        <time>2025-04-04T19:10:15.000Z</time>
      </trkpt>
      <trkpt lat="37.095074" lon="-79.610373">
        <ele>254.173204</ele>
        <time>2025-04-04T19:10:21.000Z</time>
      </trkpt>
      <trkpt lat="37.095067" lon="-79.610381">
        <ele>254.173207</ele>
        <time>2025-04-04T19:10:21.000Z</time>
      </trkpt>
      <trkpt lat="37.095032" lon="-79.610384">
        <ele>254.173217</ele>
        <time>2025-04-04T19:10:21.000Z</time>
      </trkpt>
      <trkpt lat="37.094981" lon="-79.610331">
        <ele>254.173217</ele>
        <time>2025-04-04T19:10:22.000Z</time>
      </trkpt>
      <trkpt lat="37.094907" lon="-79.610189">
        <ele>254.173217</ele>
        <time>2025-04-04T19:10:24.000Z</time>
      </trkpt>
      <trkpt lat="37.095454" lon="-79.609878">
        <ele>254.173209</ele>
        <time>2025-04-04T19:10:31.000Z</time>
      </trkpt>
      <trkpt lat="37.095479" lon="-79.609853">
        <ele>253.764444</ele>
        <time>2025-04-04T19:10:31.000Z</time>
      </trkpt>
      <trkpt lat="37.095516" lon="-79.609822">
        <ele>253.764444</ele>
        <time>2025-04-04T19:10:31.000Z</time>
      </trkpt>
      <trkpt lat="37.095593" lon="-79.609824">
        <ele>253.764457</ele>
        <time>2025-04-04T19:10:32.000Z</time>
      </trkpt>
      <trkpt lat="37.095609" lon="-79.60978">
        <ele>253.764441</ele>
        <time>2025-04-04T19:10:32.000Z</time>
      </trkpt>
      <trkpt lat="37.095683" lon="-79.609694">
        <ele>253.764456</ele>
        <time>2025-04-04T19:10:33.000Z</time>
      </trkpt>
      <trkpt lat="37.096011" lon="-79.609495">
        <ele>253.764445</ele>
        <time>2025-04-04T19:10:37.000Z</time>
      </trkpt>
      <trkpt lat="37.096151" lon="-79.609401">
        <ele>253.764446</ele>
        <time>2025-04-04T19:10:39.000Z</time>
      </trkpt>
      <trkpt lat="37.096411" lon="-79.609215">
        <ele>253.577011</ele>
        <time>2025-04-04T19:10:42.000Z</time>
      </trkpt>
      <trkpt lat="37.096675" lon="-79.609041">
        <ele>253.25851</ele>
        <time>2025-04-04T19:10:45.000Z</time>
      </trkpt>
      <trkpt lat="37.096704" lon="-79.609006">
        <ele>253.21638</ele>
        <time>2025-04-04T19:10:45.000Z</time>
      </trkpt>
      <trkpt lat="37.096873" lon="-79.608852">
        <ele>253.001847</ele>
        <time>2025-04-04T19:10:47.000Z</time>
      </trkpt>
      <trkpt lat="37.097015" lon="-79.60862">
        <ele>252.73854</ele>
        <time>2025-04-04T19:10:50.000Z</time>
      </trkpt>
      <trkpt lat="37.097114" lon="-79.608388">
        <ele>252.52354</ele>
        <time>2025-04-04T19:10:52.000Z</time>
      </trkpt>
      <trkpt lat="37.097202" lon="-79.607915">
        <ele>252.109431</ele>
        <time>2025-04-04T19:10:56.000Z</time>
      </trkpt>
      <trkpt lat="37.097339" lon="-79.605482">
        <ele>251.212163</ele>
        <time>2025-04-04T19:11:18.000Z</time>
      </trkpt>
      <trkpt lat="37.097309" lon="-79.605117">
        <ele>251.532114</ele>
        <time>2025-04-04T19:11:21.000Z</time>
      </trkpt>
      <trkpt lat="37.097222" lon="-79.604778">
        <ele>252.028123</ele>
        <time>2025-04-04T19:11:24.000Z</time>
      </trkpt>
      <trkpt lat="37.09708" lon="-79.60444">
        <ele>252.580932</ele>
        <time>2025-04-04T19:11:27.000Z</time>
      </trkpt>
      <trkpt lat="37.09697" lon="-79.604253">
        <ele>252.902872</ele>
        <time>2025-04-04T19:11:29.000Z</time>
      </trkpt>
      <trkpt lat="37.096062" lon="-79.603138">
        <ele>255.079627</ele>
        <time>2025-04-04T19:11:43.000Z</time>
      </trkpt>
      <trkpt lat="37.095885" lon="-79.602948">
        <ele>255.472652</ele>
        <time>2025-04-04T19:11:46.000Z</time>
      </trkpt>
      <trkpt lat="37.094933" lon="-79.602206">
        <ele>257.255542</ele>
        <time>2025-04-04T19:11:58.000Z</time>
      </trkpt>
      <trkpt lat="37.094624" lon="-79.601903">
        <ele>258.144146</ele>
        <time>2025-04-04T19:12:02.000Z</time>
      </trkpt>
      <trkpt lat="37.094384" lon="-79.60148">
        <ele>259.025724</ele>
        <time>2025-04-04T19:12:07.000Z</time>
      </trkpt>
      <trkpt lat="37.094088" lon="-79.600665">
        <ele>260.614508</ele>
        <time>2025-04-04T19:12:15.000Z</time>
      </trkpt>
      <trkpt lat="37.093998" lon="-79.600391">
        <ele>261.168876</ele>
        <time>2025-04-04T19:12:18.000Z</time>
      </trkpt>
      <trkpt lat="37.093353" lon="-79.59867">
        <ele>266.773467</ele>
        <time>2025-04-04T19:12:35.000Z</time>
      </trkpt>
      <trkpt lat="37.092184" lon="-79.595283">
        <ele>273.865128</ele>
        <time>2025-04-04T19:13:08.000Z</time>
      </trkpt>
      <trkpt lat="37.091515" lon="-79.593434">
        <ele>276.617759</ele>
        <time>2025-04-04T19:13:26.000Z</time>
      </trkpt>
      <trkpt lat="37.091412" lon="-79.593149">
        <ele>276.889131</ele>
        <time>2025-04-04T19:13:29.000Z</time>
      </trkpt>
      <trkpt lat="37.091107" lon="-79.593651">
        <ele>277.430228</ele>
        <time>2025-04-04T19:13:35.000Z</time>
      </trkpt>
      <trkpt lat="37.090168" lon="-79.595303">
        <ele>276.958584</ele>
        <time>2025-04-04T19:13:53.000Z</time>
      </trkpt>
      <trkpt lat="37.089823" lon="-79.595934">
        <ele>276.432604</ele>
        <time>2025-04-04T19:14:00.000Z</time>
      </trkpt>
      <trkpt lat="37.089733" lon="-79.596068">
        <ele>275.954356</ele>
        <time>2025-04-04T19:14:02.000Z</time>
      </trkpt>
      <trkpt lat="37.08956" lon="-79.596379">
        <ele>274.895164</ele>
        <time>2025-04-04T19:14:05.000Z</time>
      </trkpt>
      <trkpt lat="37.089123" lon="-79.597133">
        <ele>272.28765</ele>
        <time>2025-04-04T19:14:13.000Z</time>
      </trkpt>
      <trkpt lat="37.088602" lon="-79.597884">
        <ele>269.551815</ele>
        <time>2025-04-04T19:14:22.000Z</time>
      </trkpt>
      <trkpt lat="37.08827" lon="-79.598223">
        <ele>268.241922</ele>
        <time>2025-04-04T19:14:27.000Z</time>
      </trkpt>
      <trkpt lat="37.087775" lon="-79.598598">
        <ele>266.390503</ele>
        <time>2025-04-04T19:14:33.000Z</time>
      </trkpt>
      <trkpt lat="37.087293" lon="-79.598932">
        <ele>264.686864</ele>
        <time>2025-04-04T19:14:39.000Z</time>
      </trkpt>
      <trkpt lat="37.086968" lon="-79.599266">
        <ele>263.894045</ele>
        <time>2025-04-04T19:14:44.000Z</time>
      </trkpt>
      <trkpt lat="37.086896" lon="-79.599379">
        <ele>263.691881</ele>
        <time>2025-04-04T19:14:45.000Z</time>
      </trkpt>
      <trkpt lat="37.086759" lon="-79.59972">
        <ele>263.137272</ele>
        <time>2025-04-04T19:14:48.000Z</time>
      </trkpt>
      <trkpt lat="37.086017" lon="-79.602025">
        <ele>260.165841</ele>
        <time>2025-04-04T19:15:10.000Z</time>
      </trkpt>
      <trkpt lat="37.085831" lon="-79.602452">
        <ele>259.700803</ele>
        <time>2025-04-04T19:15:14.000Z</time>
      </trkpt>
      <trkpt lat="37.085674" lon="-79.602712">
        <ele>259.385289</ele>
        <time>2025-04-04T19:15:17.000Z</time>
      </trkpt>
      <trkpt lat="37.085448" lon="-79.60298">
        <ele>259.251178</ele>
        <time>2025-04-04T19:15:20.000Z</time>
      </trkpt>
      <trkpt lat="37.085189" lon="-79.603162">
        <ele>259.344373</ele>
        <time>2025-04-04T19:15:23.000Z</time>
      </trkpt>
      <trkpt lat="37.083924" lon="-79.603632">
        <ele>259.759085</ele>
        <time>2025-04-04T19:15:38.000Z</time>
      </trkpt>
      <trkpt lat="37.083606" lon="-79.603819">
        <ele>259.564753</ele>
        <time>2025-04-04T19:15:42.000Z</time>
      </trkpt>
      <trkpt lat="37.083369" lon="-79.60411">
        <ele>259.357184</ele>
        <time>2025-04-04T19:15:46.000Z</time>
      </trkpt>
      <trkpt lat="37.083199" lon="-79.604432">
        <ele>259.16479</ele>
        <time>2025-04-04T19:15:49.000Z</time>
      </trkpt>
      <trkpt lat="37.083115" lon="-79.604694">
        <ele>259.017367</ele>
        <time>2025-04-04T19:15:52.000Z</time>
      </trkpt>
      <trkpt lat="37.082965" lon="-79.606617">
        <ele>258.729044</ele>
        <time>2025-04-04T19:16:09.000Z</time>
      </trkpt>
      <trkpt lat="37.082886" lon="-79.606958">
        <ele>258.758282</ele>
        <time>2025-04-04T19:16:12.000Z</time>
      </trkpt>
      <trkpt lat="37.082815" lon="-79.607152">
        <ele>258.775833</ele>
        <time>2025-04-04T19:16:14.000Z</time>
      </trkpt>
      <trkpt lat="37.082616" lon="-79.607478">
        <ele>258.810184</ele>
        <time>2025-04-04T19:16:18.000Z</time>
      </trkpt>
      <trkpt lat="37.082443" lon="-79.607631">
        <ele>258.519651</ele>
        <time>2025-04-04T19:16:20.000Z</time>
      </trkpt>
      <trkpt lat="37.082135" lon="-79.607797">
        <ele>257.683879</ele>
        <time>2025-04-04T19:16:24.000Z</time>
      </trkpt>
      <trkpt lat="37.081585" lon="-79.60803">
        <ele>256.17836</ele>
        <time>2025-04-04T19:16:30.000Z</time>
      </trkpt>
      <trkpt lat="37.081295" lon="-79.608198">
        <ele>255.390756</ele>
        <time>2025-04-04T19:16:34.000Z</time>
      </trkpt>
      <trkpt lat="37.080934" lon="-79.608513">
        <ele>254.256321</ele>
        <time>2025-04-04T19:16:39.000Z</time>
      </trkpt>
      <trkpt lat="37.080347" lon="-79.609083">
        <ele>251.354339</ele>
        <time>2025-04-04T19:16:47.000Z</time>
      </trkpt>
      <trkpt lat="37.080147" lon="-79.609338">
        <ele>250.159841</ele>
        <time>2025-04-04T19:16:50.000Z</time>
      </trkpt>
      <trkpt lat="37.080103" lon="-79.609442">
        <ele>249.792386</ele>
        <time>2025-04-04T19:16:51.000Z</time>
      </trkpt>
      <trkpt lat="37.080027" lon="-79.609652">
        <ele>249.068384</ele>
        <time>2025-04-04T19:16:53.000Z</time>
      </trkpt>
      <trkpt lat="37.080022" lon="-79.609835">
        <ele>248.487169</ele>
        <time>2025-04-04T19:16:55.000Z</time>
      </trkpt>
      <trkpt lat="37.080063" lon="-79.610283">
        <ele>247.082736</ele>
        <time>2025-04-04T19:16:59.000Z</time>
      </trkpt>
      <trkpt lat="37.080027" lon="-79.610438">
        <ele>247.025919</ele>
        <time>2025-04-04T19:17:00.000Z</time>
      </trkpt>
      <trkpt lat="37.079982" lon="-79.6105">
        <ele>246.999472</ele>
        <time>2025-04-04T19:17:01.000Z</time>
      </trkpt>
      <trkpt lat="37.079727" lon="-79.610776">
        <ele>246.868122</ele>
        <time>2025-04-04T19:17:05.000Z</time>
      </trkpt>
      <trkpt lat="37.079647" lon="-79.610906">
        <ele>246.814842</ele>
        <time>2025-04-04T19:17:06.000Z</time>
      </trkpt>
      <trkpt lat="37.079541" lon="-79.611201">
        <ele>246.710806</ele>
        <time>2025-04-04T19:17:09.000Z</time>
      </trkpt>
      <trkpt lat="37.079443" lon="-79.611534">
        <ele>246.599261</ele>
        <time>2025-04-04T19:17:12.000Z</time>
      </trkpt>
      <trkpt lat="37.079359" lon="-79.611694">
        <ele>246.536545</ele>
        <time>2025-04-04T19:17:14.000Z</time>
      </trkpt>
      <trkpt lat="37.079169" lon="-79.611845">
        <ele>246.445663</ele>
        <time>2025-04-04T19:17:17.000Z</time>
      </trkpt>
      <trkpt lat="37.078776" lon="-79.611993">
        <ele>246.664001</ele>
        <time>2025-04-04T19:17:22.000Z</time>
      </trkpt>
      <trkpt lat="37.078653" lon="-79.612061">
        <ele>246.858288</ele>
        <time>2025-04-04T19:17:23.000Z</time>
      </trkpt>
      <trkpt lat="37.078579" lon="-79.612144">
        <ele>247.013472</ele>
        <time>2025-04-04T19:17:24.000Z</time>
      </trkpt>
      <trkpt lat="37.078522" lon="-79.612256">
        <ele>247.167574</ele>
        <time>2025-04-04T19:17:25.000Z</time>
      </trkpt>
      <trkpt lat="37.078481" lon="-79.612434">
        <ele>247.396605</ele>
        <time>2025-04-04T19:17:27.000Z</time>
      </trkpt>
      <trkpt lat="37.078481" lon="-79.612621">
        <ele>247.626732</ele>
        <time>2025-04-04T19:17:29.000Z</time>
      </trkpt>
      <trkpt lat="37.078575" lon="-79.613039">
        <ele>248.130409</ele>
        <time>2025-04-04T19:17:33.000Z</time>
      </trkpt>
      <trkpt lat="37.078693" lon="-79.613364">
        <ele>248.559589</ele>
        <time>2025-04-04T19:17:36.000Z</time>
      </trkpt>
      <trkpt lat="37.078831" lon="-79.613708">
        <ele>249.018184</ele>
        <time>2025-04-04T19:17:39.000Z</time>
      </trkpt>
      <trkpt lat="37.079073" lon="-79.614112">
        <ele>249.206658</ele>
        <time>2025-04-04T19:17:43.000Z</time>
      </trkpt>
      <trkpt lat="37.079203" lon="-79.614457">
        <ele>249.329326</ele>
        <time>2025-04-04T19:17:46.000Z</time>
      </trkpt>
      <trkpt lat="37.079289" lon="-79.61483">
        <ele>249.450243</ele>
        <time>2025-04-04T19:17:49.000Z</time>
      </trkpt>
      <trkpt lat="37.079294" lon="-79.615071">
        <ele>249.529664</ele>
        <time>2025-04-04T19:17:51.000Z</time>
      </trkpt>
      <trkpt lat="37.079297" lon="-79.615238">
        <ele>249.583356</ele>
        <time>2025-04-04T19:17:52.000Z</time>
      </trkpt>
      <trkpt lat="37.079258" lon="-79.615407">
        <ele>249.636353</ele>
        <time>2025-04-04T19:17:54.000Z</time>
      </trkpt>
      <trkpt lat="37.079217" lon="-79.615442">
        <ele>249.65609</ele>
        <time>2025-04-04T19:17:55.000Z</time>
      </trkpt>
      <trkpt lat="37.07926" lon="-79.615396">
        <ele>249.675816</ele>
        <time>2025-04-04T19:17:56.000Z</time>
      </trkpt>
      <trkpt lat="37.079288" lon="-79.615237">
        <ele>249.728799</ele>
        <time>2025-04-04T19:17:57.000Z</time>
      </trkpt>
      <trkpt lat="37.0793" lon="-79.615077">
        <ele>249.752636</ele>
        <time>2025-04-04T19:17:58.000Z</time>
      </trkpt>
      <trkpt lat="37.079278" lon="-79.614828">
        <ele>249.583201</ele>
        <time>2025-04-04T19:18:00.000Z</time>
      </trkpt>
      <trkpt lat="37.079215" lon="-79.614458">
        <ele>249.325305</ele>
        <time>2025-04-04T19:18:03.000Z</time>
      </trkpt>
      <trkpt lat="37.07908" lon="-79.614116">
        <ele>249.063655</ele>
        <time>2025-04-04T19:18:06.000Z</time>
      </trkpt>
      <trkpt lat="37.078821" lon="-79.613714">
        <ele>248.71511</ele>
        <time>2025-04-04T19:18:11.000Z</time>
      </trkpt>
      <trkpt lat="37.078681" lon="-79.613358">
        <ele>248.452918</ele>
        <time>2025-04-04T19:18:15.000Z</time>
      </trkpt>
      <trkpt lat="37.078571" lon="-79.613038">
        <ele>248.195217</ele>
        <time>2025-04-04T19:18:18.000Z</time>
      </trkpt>
      <trkpt lat="37.078475" lon="-79.612619">
        <ele>247.782778</ele>
        <time>2025-04-04T19:18:22.000Z</time>
      </trkpt>
      <trkpt lat="37.07848" lon="-79.612437">
        <ele>247.594356</ele>
        <time>2025-04-04T19:18:24.000Z</time>
      </trkpt>
      <trkpt lat="37.078521" lon="-79.612253">
        <ele>247.40681</ele>
        <time>2025-04-04T19:18:26.000Z</time>
      </trkpt>
      <trkpt lat="37.078593" lon="-79.61215">
        <ele>247.280625</ele>
        <time>2025-04-04T19:18:27.000Z</time>
      </trkpt>
      <trkpt lat="37.078656" lon="-79.612061">
        <ele>247.15356</ele>
        <time>2025-04-04T19:18:28.000Z</time>
      </trkpt>
      <trkpt lat="37.07878" lon="-79.611995">
        <ele>246.994472</ele>
        <time>2025-04-04T19:18:29.000Z</time>
      </trkpt>
      <trkpt lat="37.079172" lon="-79.611852">
        <ele>246.49815</ele>
        <time>2025-04-04T19:18:34.000Z</time>
      </trkpt>
      <trkpt lat="37.079355" lon="-79.611693">
        <ele>246.218026</ele>
        <time>2025-04-04T19:18:36.000Z</time>
      </trkpt>
      <trkpt lat="37.079447" lon="-79.611533">
        <ele>246.046836</ele>
        <time>2025-04-04T19:18:38.000Z</time>
      </trkpt>
      <trkpt lat="37.079538" lon="-79.611201">
        <ele>246.448907</ele>
        <time>2025-04-04T19:18:41.000Z</time>
      </trkpt>
      <trkpt lat="37.079655" lon="-79.610891">
        <ele>246.823843</ele>
        <time>2025-04-04T19:18:44.000Z</time>
      </trkpt>
      <trkpt lat="37.079729" lon="-79.610779">
        <ele>247.015906</ele>
        <time>2025-04-04T19:18:45.000Z</time>
      </trkpt>
      <trkpt lat="37.079992" lon="-79.610508">
        <ele>247.489328</ele>
        <time>2025-04-04T19:18:49.000Z</time>
      </trkpt>
      <trkpt lat="37.080021" lon="-79.61044">
        <ele>247.584635</ele>
        <time>2025-04-04T19:18:50.000Z</time>
      </trkpt>
      <trkpt lat="37.080055" lon="-79.610268">
        <ele>247.775641</ele>
        <time>2025-04-04T19:18:52.000Z</time>
      </trkpt>
      <trkpt lat="37.080032" lon="-79.609834">
        <ele>248.278997</ele>
        <time>2025-04-04T19:18:56.000Z</time>
      </trkpt>
      <trkpt lat="37.080041" lon="-79.609659">
        <ele>248.487318</ele>
        <time>2025-04-04T19:18:58.000Z</time>
      </trkpt>
      <trkpt lat="37.080094" lon="-79.609441">
        <ele>249.055077</ele>
        <time>2025-04-04T19:19:00.000Z</time>
      </trkpt>
      <trkpt lat="37.080145" lon="-79.609352">
        <ele>249.481973</ele>
        <time>2025-04-04T19:19:01.000Z</time>
      </trkpt>
      <trkpt lat="37.080365" lon="-79.609071">
        <ele>250.869765</ele>
        <time>2025-04-04T19:19:04.000Z</time>
      </trkpt>
      <trkpt lat="37.080932" lon="-79.608528">
        <ele>254.241268</ele>
        <time>2025-04-04T19:19:12.000Z</time>
      </trkpt>
      <trkpt lat="37.081307" lon="-79.608213">
        <ele>256.314646</ele>
        <time>2025-04-04T19:19:17.000Z</time>
      </trkpt>
      <trkpt lat="37.081577" lon="-79.608019">
        <ele>257.10458</ele>
        <time>2025-04-04T19:19:20.000Z</time>
      </trkpt>
      <trkpt lat="37.082137" lon="-79.607801">
        <ele>257.621482</ele>
        <time>2025-04-04T19:19:27.000Z</time>
      </trkpt>
      <trkpt lat="37.082437" lon="-79.607629">
        <ele>257.908435</ele>
        <time>2025-04-04T19:19:31.000Z</time>
      </trkpt>
      <trkpt lat="37.082609" lon="-79.607482">
        <ele>258.092464</ele>
        <time>2025-04-04T19:19:33.000Z</time>
      </trkpt>
      <trkpt lat="37.082813" lon="-79.607136">
        <ele>258.381313</ele>
        <time>2025-04-04T19:19:37.000Z</time>
      </trkpt>
      <trkpt lat="37.082877" lon="-79.606957">
        <ele>258.523107</ele>
        <time>2025-04-04T19:19:39.000Z</time>
      </trkpt>
      <trkpt lat="37.082969" lon="-79.606607">
        <ele>258.620538</ele>
        <time>2025-04-04T19:19:42.000Z</time>
      </trkpt>
      <trkpt lat="37.083111" lon="-79.6047">
        <ele>259.146664</ele>
        <time>2025-04-04T19:19:59.000Z</time>
      </trkpt>
      <trkpt lat="37.083201" lon="-79.604433">
        <ele>259.211072</ele>
        <time>2025-04-04T19:20:02.000Z</time>
      </trkpt>
      <trkpt lat="37.083375" lon="-79.604118">
        <ele>259.295109</ele>
        <time>2025-04-04T19:20:05.000Z</time>
      </trkpt>
      <trkpt lat="37.083612" lon="-79.603833">
        <ele>259.385772</ele>
        <time>2025-04-04T19:20:09.000Z</time>
      </trkpt>
      <trkpt lat="37.083917" lon="-79.603636">
        <ele>259.479893</ele>
        <time>2025-04-04T19:20:13.000Z</time>
      </trkpt>
      <trkpt lat="37.085183" lon="-79.603173">
        <ele>259.568608</ele>
        <time>2025-04-04T19:20:28.000Z</time>
      </trkpt>
      <trkpt lat="37.085447" lon="-79.602979">
        <ele>259.543041</ele>
        <time>2025-04-04T19:20:31.000Z</time>
      </trkpt>
      <trkpt lat="37.08566" lon="-79.602717">
        <ele>259.516811</ele>
        <time>2025-04-04T19:20:34.000Z</time>
      </trkpt>
      <trkpt lat="37.085821" lon="-79.602446">
        <ele>259.494063</ele>
        <time>2025-04-04T19:20:37.000Z</time>
      </trkpt>
      <trkpt lat="37.08602" lon="-79.602021">
        <ele>259.853027</ele>
        <time>2025-04-04T19:20:41.000Z</time>
      </trkpt>
      <trkpt lat="37.086762" lon="-79.599704">
        <ele>263.244339</ele>
        <time>2025-04-04T19:21:03.000Z</time>
      </trkpt>
      <trkpt lat="37.086904" lon="-79.599376">
        <ele>263.828861</ele>
        <time>2025-04-04T19:21:06.000Z</time>
      </trkpt>
      <trkpt lat="37.086978" lon="-79.599256">
        <ele>264.041915</ele>
        <time>2025-04-04T19:21:07.000Z</time>
      </trkpt>
      <trkpt lat="37.087295" lon="-79.598935">
        <ele>264.83071</ele>
        <time>2025-04-04T19:21:12.000Z</time>
      </trkpt>
      <trkpt lat="37.08777" lon="-79.59861">
        <ele>265.859762</ele>
        <time>2025-04-04T19:21:18.000Z</time>
      </trkpt>
      <trkpt lat="37.088268" lon="-79.598213">
        <ele>268.076713</ele>
        <time>2025-04-04T19:21:25.000Z</time>
      </trkpt>
      <trkpt lat="37.088599" lon="-79.597885">
        <ele>269.656095</ele>
        <time>2025-04-04T19:21:30.000Z</time>
      </trkpt>
      <trkpt lat="37.089132" lon="-79.597138">
        <ele>272.698031</ele>
        <time>2025-04-04T19:21:39.000Z</time>
      </trkpt>
      <trkpt lat="37.089571" lon="-79.596368">
        <ele>274.646653</ele>
        <time>2025-04-04T19:21:47.000Z</time>
      </trkpt>
      <trkpt lat="37.089749" lon="-79.596066">
        <ele>275.438195</ele>
        <time>2025-04-04T19:21:50.000Z</time>
      </trkpt>
      <trkpt lat="37.089816" lon="-79.595921">
        <ele>275.795594</ele>
        <time>2025-04-04T19:21:51.000Z</time>
      </trkpt>
      <trkpt lat="37.090173" lon="-79.595305">
        <ele>277.390053</ele>
        <time>2025-04-04T19:21:58.000Z</time>
      </trkpt>
      <trkpt lat="37.091102" lon="-79.59364">
        <ele>277.626446</ele>
        <time>2025-04-04T19:22:16.000Z</time>
      </trkpt>
      <trkpt lat="37.091414" lon="-79.593136">
        <ele>277.125807</ele>
        <time>2025-04-04T19:22:22.000Z</time>
      </trkpt>
      <trkpt lat="37.091512" lon="-79.593435">
        <ele>276.71137</ele>
        <time>2025-04-04T19:22:25.000Z</time>
      </trkpt>
      <trkpt lat="37.092185" lon="-79.595266">
        <ele>273.878356</ele>
        <time>2025-04-04T19:22:43.000Z</time>
      </trkpt>
      <trkpt lat="37.093363" lon="-79.598669">
        <ele>266.755754</ele>
        <time>2025-04-04T19:23:16.000Z</time>
      </trkpt>
      <trkpt lat="37.09399" lon="-79.600379">
        <ele>261.489642</ele>
        <time>2025-04-04T19:23:33.000Z</time>
      </trkpt>
      <trkpt lat="37.094094" lon="-79.600679">
        <ele>260.574387</ele>
        <time>2025-04-04T19:23:36.000Z</time>
      </trkpt>
      <trkpt lat="37.094394" lon="-79.601482">
        <ele>258.759756</ele>
        <time>2025-04-04T19:23:44.000Z</time>
      </trkpt>
      <trkpt lat="37.094615" lon="-79.601899">
        <ele>258.069669</ele>
        <time>2025-04-04T19:23:48.000Z</time>
      </trkpt>
      <trkpt lat="37.094938" lon="-79.602213">
        <ele>257.371635</ele>
        <time>2025-04-04T19:23:53.000Z</time>
      </trkpt>
      <trkpt lat="37.095884" lon="-79.602946">
        <ele>255.449091</ele>
        <time>2025-04-04T19:24:05.000Z</time>
      </trkpt>
      <trkpt lat="37.09607" lon="-79.603128">
        <ele>255.024772</ele>
        <time>2025-04-04T19:24:08.000Z</time>
      </trkpt>
      <trkpt lat="37.096958" lon="-79.604253">
        <ele>252.934697</ele>
        <time>2025-04-04T19:24:22.000Z</time>
      </trkpt>
      <trkpt lat="37.097067" lon="-79.604445">
        <ele>252.704997</ele>
        <time>2025-04-04T19:24:24.000Z</time>
      </trkpt>
      <trkpt lat="37.097235" lon="-79.60477">
        <ele>252.31056</ele>
        <time>2025-04-04T19:24:27.000Z</time>
      </trkpt>
      <trkpt lat="37.097321" lon="-79.60511">
        <ele>251.956658</ele>
        <time>2025-04-04T19:24:30.000Z</time>
      </trkpt>
      <trkpt lat="37.097349" lon="-79.605478">
        <ele>251.582108</ele>
        <time>2025-04-04T19:24:33.000Z</time>
      </trkpt>
      <trkpt lat="37.097209" lon="-79.607917">
        <ele>252.216631</ele>
        <time>2025-04-04T19:24:55.000Z</time>
      </trkpt>
      <trkpt lat="37.097111" lon="-79.608399">
        <ele>252.551753</ele>
        <time>2025-04-04T19:24:59.000Z</time>
      </trkpt>
      <trkpt lat="37.097025" lon="-79.608626">
        <ele>252.73872</ele>
        <time>2025-04-04T19:25:01.000Z</time>
      </trkpt>
      <trkpt lat="37.096869" lon="-79.608861">
        <ele>252.967698</ele>
        <time>2025-04-04T19:25:04.000Z</time>
      </trkpt>
      <trkpt lat="37.096709" lon="-79.609017">
        <ele>253.154274</ele>
        <time>2025-04-04T19:25:06.000Z</time>
      </trkpt>
      <trkpt lat="37.09667" lon="-79.609042">
        <ele>253.190921</ele>
        <time>2025-04-04T19:25:06.000Z</time>
      </trkpt>
      <trkpt lat="37.096421" lon="-79.60923">
        <ele>253.467887</ele>
        <time>2025-04-04T19:25:09.000Z</time>
      </trkpt>
      <trkpt lat="37.09615" lon="-79.609406">
        <ele>253.751995</ele>
        <time>2025-04-04T19:25:12.000Z</time>
      </trkpt>
      <trkpt lat="37.096009" lon="-79.609486">
        <ele>253.8989</ele>
        <time>2025-04-04T19:25:14.000Z</time>
      </trkpt>
      <trkpt lat="37.095796" lon="-79.609858">
        <ele>254.173215</ele>
        <time>2025-04-04T19:25:18.000Z</time>
      </trkpt>
      <trkpt lat="37.095744" lon="-79.609923">
        <ele>254.173221</ele>
        <time>2025-04-04T19:25:19.000Z</time>
      </trkpt>
      <trkpt lat="37.095668" lon="-79.609947">
        <ele>254.173207</ele>
        <time>2025-04-04T19:25:20.000Z</time>
      </trkpt>
      <trkpt lat="37.095628" lon="-79.610052">
        <ele>254.173205</ele>
        <time>2025-04-04T19:25:21.000Z</time>
      </trkpt>
      <trkpt lat="37.095592" lon="-79.610093">
        <ele>254.17321</ele>
        <time>2025-04-04T19:25:22.000Z</time>
      </trkpt>
      <trkpt lat="37.095083" lon="-79.610375">
        <ele>254.173205</ele>
        <time>2025-04-04T19:25:28.000Z</time>
      </trkpt>
      <trkpt lat="37.095069" lon="-79.610374">
        <ele>254.173203</ele>
        <time>2025-04-04T19:25:28.000Z</time>
      </trkpt>
      <trkpt lat="37.095029" lon="-79.610385">
        <ele>254.173213</ele>
        <time>2025-04-04T19:25:28.000Z</time>
      </trkpt>
      <trkpt lat="37.094975" lon="-79.610333">
        <ele>254.173204</ele>
        <time>2025-04-04T19:25:29.000Z</time>
      </trkpt>
      <trkpt lat="37.094915" lon="-79.610188">
        <ele>254.173204</ele>
        <time>2025-04-04T19:25:30.000Z</time>
      </trkpt>
      <trkpt lat="37.09545" lon="-79.609867">
        <ele>254.173208</ele>
        <time>2025-04-04T19:25:37.000Z</time>
      </trkpt>
      <trkpt lat="37.095496" lon="-79.609852">
        <ele>253.764442</ele>
        <time>2025-04-04T19:25:38.000Z</time>
      </trkpt>
      <trkpt lat="37.095522" lon="-79.609828">
        <ele>253.764442</ele>
        <time>2025-04-04T19:25:38.000Z</time>
      </trkpt>
      <trkpt lat="37.0956" lon="-79.609817">
        <ele>253.764447</ele>
        <time>2025-04-04T19:25:39.000Z</time>
      </trkpt>
      <trkpt lat="37.095605" lon="-79.609779">
        <ele>253.764453</ele>
        <time>2025-04-04T19:25:39.000Z</time>
      </trkpt>
      <trkpt lat="37.095686" lon="-79.609693">
        <ele>253.764445</ele>
        <time>2025-04-04T19:25:40.000Z</time>
      </trkpt>
      <trkpt lat="37.096006" lon="-79.60949">
        <ele>253.764455</ele>
        <time>2025-04-04T19:25:44.000Z</time>
      </trkpt>
      <trkpt lat="37.096153" lon="-79.609396">
        <ele>253.764457</ele>
        <time>2025-04-04T19:25:46.000Z</time>
      </trkpt>
      <trkpt lat="37.096419" lon="-79.609225">
        <ele>253.577003</ele>
        <time>2025-04-04T19:25:49.000Z</time>
      </trkpt>
      <trkpt lat="37.096674" lon="-79.609034">
        <ele>253.25851</ele>
        <time>2025-04-04T19:25:52.000Z</time>
      </trkpt>
      <trkpt lat="37.096703" lon="-79.609011">
        <ele>253.21639</ele>
        <time>2025-04-04T19:25:52.000Z</time>
      </trkpt>
      <trkpt lat="37.096864" lon="-79.608856">
        <ele>253.001833</ele>
        <time>2025-04-04T19:25:54.000Z</time>
      </trkpt>
      <trkpt lat="37.09702" lon="-79.608612">
        <ele>252.738537</ele>
        <time>2025-04-04T19:25:57.000Z</time>
      </trkpt>
      <trkpt lat="37.097119" lon="-79.608397">
        <ele>252.523543</ele>
        <time>2025-04-04T19:25:59.000Z</time>
      </trkpt>
      <trkpt lat="37.097215" lon="-79.607924">
        <ele>252.109419</ele>
        <time>2025-04-04T19:26:03.000Z</time>
      </trkpt>
      <trkpt lat="37.097352" lon="-79.605481">
        <ele>251.212155</ele>
        <time>2025-04-04T19:26:25.000Z</time>
      </trkpt>
      <trkpt lat="37.097321" lon="-79.605107">
        <ele>251.532112</ele>
        <time>2025-04-04T19:26:28.000Z</time>
      </trkpt>
      <trkpt lat="37.097236" lon="-79.604784">
        <ele>252.028115</ele>
        <time>2025-04-04T19:26:31.000Z</time>
      </trkpt>
      <trkpt lat="37.097067" lon="-79.604438">
        <ele>252.58094</ele>
        <time>2025-04-04T19:26:35.000Z</time>
      </trkpt>
      <trkpt lat="37.096954" lon="-79.604256">
        <ele>252.902862</ele>
        <time>2025-04-04T19:26:37.000Z</time>
      </trkpt>
      <trkpt lat="37.096059" lon="-79.603134">
        <ele>255.07964</ele>
        <time>2025-04-04T19:26:51.000Z</time>
      </trkpt>
      <trkpt lat="37.095881" lon="-79.602944">
        <ele>255.472663</ele>
        <time>2025-04-04T19:26:54.000Z</time>
      </trkpt>
      <trkpt lat="37.094929" lon="-79.602215">
        <ele>257.255533</ele>
        <time>2025-04-04T19:27:06.000Z</time>
      </trkpt>
      <trkpt lat="37.094614" lon="-79.601886">
        <ele>258.14414</ele>
        <time>2025-04-04T19:27:11.000Z</time>
      </trkpt>
      <trkpt lat="37.094397" lon="-79.601489">
        <ele>259.025732</ele>
        <time>2025-04-04T19:27:15.000Z</time>
      </trkpt>
      <trkpt lat="37.094098" lon="-79.600666">
        <ele>260.614494</ele>
        <time>2025-04-04T19:27:23.000Z</time>
      </trkpt>
      <trkpt lat="37.093992" lon="-79.600387">
        <ele>261.168877</ele>
        <time>2025-04-04T19:27:26.000Z</time>
      </trkpt>
      <trkpt lat="37.093352" lon="-79.59866">
        <ele>266.773462</ele>
        <time>2025-04-04T19:27:43.000Z</time>
      </trkpt>
      <trkpt lat="37.092189" lon="-79.595267">
        <ele>273.86513</ele>
        <time>2025-04-04T19:28:16.000Z</time>
      </trkpt>
      <trkpt lat="37.091521" lon="-79.593444">
        <ele>276.617763</ele>
        <time>2025-04-04T19:28:34.000Z</time>
      </trkpt>
      <trkpt lat="37.09142" lon="-79.593137">
        <ele>276.889124</ele>
        <time>2025-04-04T19:28:37.000Z</time>
      </trkpt>
      <trkpt lat="37.091109" lon="-79.59364">
        <ele>277.430221</ele>
        <time>2025-04-04T19:28:43.000Z</time>
      </trkpt>
      <trkpt lat="37.090169" lon="-79.595298">
        <ele>276.958582</ele>
        <time>2025-04-04T19:29:01.000Z</time>
      </trkpt>
      <trkpt lat="37.089819" lon="-79.595931">
        <ele>276.432594</ele>
        <time>2025-04-04T19:29:08.000Z</time>
      </trkpt>
      <trkpt lat="37.089749" lon="-79.596059">
        <ele>275.954353</ele>
        <time>2025-04-04T19:29:09.000Z</time>
      </trkpt>
      <trkpt lat="37.089568" lon="-79.596364">
        <ele>274.895157</ele>
        <time>2025-04-04T19:29:12.000Z</time>
      </trkpt>
      <trkpt lat="37.089121" lon="-79.597127">
        <ele>272.287657</ele>
        <time>2025-04-04T19:29:20.000Z</time>
      </trkpt>
      <trkpt lat="37.088592" lon="-79.597882">
        <ele>269.551818</ele>
        <time>2025-04-04T19:29:29.000Z</time>
      </trkpt>
      <trkpt lat="37.088269" lon="-79.598219">
        <ele>268.241924</ele>
        <time>2025-04-04T19:29:34.000Z</time>
      </trkpt>
      <trkpt lat="37.087764" lon="-79.598595">
        <ele>266.390503</ele>
        <time>2025-04-04T19:29:41.000Z</time>
      </trkpt>
      <trkpt lat="37.087299" lon="-79.598926">
        <ele>264.686852</ele>
        <time>2025-04-04T19:29:47.000Z</time>
      </trkpt>
      <trkpt lat="37.086967" lon="-79.599258">
        <ele>263.894034</ele>
        <time>2025-04-04T19:29:52.000Z</time>
      </trkpt>
      <trkpt lat="37.086909" lon="-79.599375">
        <ele>263.691872</ele>
        <time>2025-04-04T19:29:53.000Z</time>
      </trkpt>
      <trkpt lat="37.086764" lon="-79.599713">
        <ele>263.137273</ele>
        <time>2025-04-04T19:29:56.000Z</time>
      </trkpt>
      <trkpt lat="37.086008" lon="-79.602014">
        <ele>260.165853</ele>
        <time>2025-04-04T19:30:18.000Z</time>
      </trkpt>
      <trkpt lat="37.085833" lon="-79.602458">
        <ele>259.700798</ele>
        <time>2025-04-04T19:30:22.000Z</time>
      </trkpt>
      <trkpt lat="37.085661" lon="-79.602714">
        <ele>259.385277</ele>
        <time>2025-04-04T19:30:25.000Z</time>
      </trkpt>
      <trkpt lat="37.085449" lon="-79.602965">
        <ele>259.251184</ele>
        <time>2025-04-04T19:30:28.000Z</time>
      </trkpt>
      <trkpt lat="37.085182" lon="-79.603177">
        <ele>259.344365</ele>
        <time>2025-04-04T19:30:32.000Z</time>
      </trkpt>
      <trkpt lat="37.083918" lon="-79.603642">
        <ele>259.75909</ele>
        <time>2025-04-04T19:30:47.000Z</time>
      </trkpt>
      <trkpt lat="37.083614" lon="-79.603835">
        <ele>259.564765</ele>
        <time>2025-04-04T19:30:51.000Z</time>
      </trkpt>
      <trkpt lat="37.083372" lon="-79.604113">
        <ele>259.357183</ele>
        <time>2025-04-04T19:30:55.000Z</time>
      </trkpt>
      <trkpt lat="37.083192" lon="-79.604425">
        <ele>259.164803</ele>
        <time>2025-04-04T19:30:58.000Z</time>
      </trkpt>
      <trkpt lat="37.083112" lon="-79.60471">
        <ele>259.017367</ele>
        <time>2025-04-04T19:31:01.000Z</time>
      </trkpt>
      <trkpt lat="37.082973" lon="-79.606617">
        <ele>258.729038</ele>
        <time>2025-04-04T19:31:18.000Z</time>
      </trkpt>
      <trkpt lat="37.082881" lon="-79.606959">
        <ele>258.758287</ele>
        <time>2025-04-04T19:31:21.000Z</time>
      </trkpt>
      <trkpt lat="37.082816" lon="-79.60714">
        <ele>258.775842</ele>
        <time>2025-04-04T19:31:23.000Z</time>
      </trkpt>
      <trkpt lat="37.082606" lon="-79.607485">
        <ele>258.810191</ele>
        <time>2025-04-04T19:31:27.000Z</time>
      </trkpt>
      <trkpt lat="37.082438" lon="-79.607643">
        <ele>258.519653</ele>
        <time>2025-04-04T19:31:29.000Z</time>
      </trkpt>
      <trkpt lat="37.082149" lon="-79.607799">
        <ele>257.68389</ele>
        <time>2025-04-04T19:31:32.000Z</time>
      </trkpt>
      <trkpt lat="37.081578" lon="-79.608016">
        <ele>256.178356</ele>
        <time>2025-04-04T19:31:39.000Z</time>
      </trkpt>
      <trkpt lat="37.081298" lon="-79.608205">
        <ele>255.39075</ele>
        <time>2025-04-04T19:31:43.000Z</time>
      </trkpt>
      <trkpt lat="37.080936" lon="-79.608526">
        <ele>254.256323</ele>
        <time>2025-04-04T19:31:48.000Z</time>
      </trkpt>
      <trkpt lat="37.080353" lon="-79.609069">
        <ele>251.354332</ele>
        <time>2025-04-04T19:31:56.000Z</time>
      </trkpt>
      <trkpt lat="37.080142" lon="-79.60934">
        <ele>250.159824</ele>
        <time>2025-04-04T19:31:59.000Z</time>
      </trkpt>
      <trkpt lat="37.080103" lon="-79.609447">
        <ele>249.792383</ele>
        <time>2025-04-04T19:32:00.000Z</time>
      </trkpt>
      <trkpt lat="37.080037" lon="-79.609646">
        <ele>249.068391</ele>
        <time>2025-04-04T19:32:02.000Z</time>
      </trkpt>
      <trkpt lat="37.080019" lon="-79.609837">
        <ele>248.487168</ele>
        <time>2025-04-04T19:32:04.000Z</time>
      </trkpt>
      <trkpt lat="37.08006" lon="-79.610281">
        <ele>247.082732</ele>
        <time>2025-04-04T19:32:08.000Z</time>
      </trkpt>
      <trkpt lat="37.080031" lon="-79.610443">
        <ele>247.025911</ele>
        <time>2025-04-04T19:32:09.000Z</time>
      </trkpt>
      <trkpt lat="37.079998" lon="-79.610508">
        <ele>246.999477</ele>
        <time>2025-04-04T19:32:10.000Z</time>
      </trkpt>
      <trkpt lat="37.079727" lon="-79.610777">
        <ele>246.868125</ele>
        <time>2025-04-04T19:32:14.000Z</time>
      </trkpt>
      <trkpt lat="37.079644" lon="-79.610895">
        <ele>246.814833</ele>
        <time>2025-04-04T19:32:15.000Z</time>
      </trkpt>
      <trkpt lat="37.079544" lon="-79.611199">
        <ele>246.710822</ele>
        <time>2025-04-04T19:32:18.000Z</time>
      </trkpt>
      <trkpt lat="37.079447" lon="-79.611524">
        <ele>246.599275</ele>
        <time>2025-04-04T19:32:21.000Z</time>
      </trkpt>
      <trkpt lat="37.079367" lon="-79.611698">
        <ele>246.536547</ele>
        <time>2025-04-04T19:32:23.000Z</time>
      </trkpt>
      <trkpt lat="37.079165" lon="-79.611846">
        <ele>246.445654</ele>
        <time>2025-04-04T19:32:26.000Z</time>
      </trkpt>
      <trkpt lat="37.078769" lon="-79.611985">
        <ele>246.664002</ele>
        <time>2025-04-04T19:32:31.000Z</time>
      </trkpt>
      <trkpt lat="37.078666" lon="-79.612065">
        <ele>246.858281</ele>
        <time>2025-04-04T19:32:32.000Z</time>
      </trkpt>
      <trkpt lat="37.078593" lon="-79.612152">
        <ele>247.013454</ele>
        <time>2025-04-04T19:32:33.000Z</time>
      </trkpt>
      <trkpt lat="37.078524" lon="-79.612257">
        <ele>247.16757</ele>
        <time>2025-04-04T19:32:34.000Z</time>
      </trkpt>
      <trkpt lat="37.078469" lon="-79.612426">
        <ele>247.396601</ele>
        <time>2025-04-04T19:32:36.000Z</time>
      </trkpt>
      <trkpt lat="37.078469" lon="-79.612629">
        <ele>247.626739</ele>
        <time>2025-04-04T19:32:38.000Z</time>
      </trkpt>
      <trkpt lat="37.078579" lon="-79.613029">
        <ele>248.13041</ele>
        <time>2025-04-04T19:32:42.000Z</time>
      </trkpt>
      <trkpt lat="37.078687" lon="-79.61336">
        <ele>248.559575</ele>
        <time>2025-04-04T19:32:45.000Z</time>
      </trkpt>
      <trkpt lat="37.078815" lon="-79.613708">
        <ele>249.018171</ele>
        <time>2025-04-04T19:32:48.000Z</time>
      </trkpt>
      <trkpt lat="37.079069" lon="-79.614114">
        <ele>249.206645</ele>
        <time>2025-04-04T19:32:53.000Z</time>
      </trkpt>
      <trkpt lat="37.079205" lon="-79.614456">
        <ele>249.329321</ele>
        <time>2025-04-04T19:32:56.000Z</time>
      </trkpt>
      <trkpt lat="37.079275" lon="-79.614826">
        <ele>249.450239</ele>
        <time>2025-04-04T19:32:59.000Z</time>
      </trkpt>
      <trkpt lat="37.079292" lon="-79.615071">
        <ele>249.529674</ele>
        <time>2025-04-04T19:33:01.000Z</time>
      </trkpt>
      <trkpt lat="37.0793" lon="-79.615233">
        <ele>249.583365</ele>
        <time>2025-04-04T19:33:02.000Z</time>
      </trkpt>
      <trkpt lat="37.079253" lon="-79.615403">
        <ele>249.636339</ele>
        <time>2025-04-04T19:33:04.000Z</time>
      </trkpt>
      <trkpt lat="37.079224" lon="-79.615455">
        <ele>249.656083</ele>
        <time>2025-04-04T19:33:05.000Z</time>
      </trkpt>
      <trkpt lat="37.079257" lon="-79.615392">
        <ele>249.675825</ele>
        <time>2025-04-04T19:33:06.000Z</time>
      </trkpt>
      <trkpt lat="37.079288" lon="-79.615238">
        <ele>249.728794</ele>
        <time>2025-04-04T19:33:07.000Z</time>
      </trkpt>
      <trkpt lat="37.079302" lon="-79.615065">
        <ele>249.752626</ele>
        <time>2025-04-04T19:33:09.000Z</time>
      </trkpt>
      <trkpt lat="37.079273" lon="-79.614832">
        <ele>249.583194</ele>
        <time>2025-04-04T19:33:11.000Z</time>
      </trkpt>
      <trkpt lat="37.079215" lon="-79.614454">
        <ele>249.325314</ele>
        <time>2025-04-04T19:33:14.000Z</time>
      </trkpt>
      <trkpt lat="37.079069" lon="-79.614108">
        <ele>249.063669</ele>
        <time>2025-04-04T19:33:17.000Z</time>
      </trkpt>
      <trkpt lat="37.07883" lon="-79.613701">
        <ele>248.715097</ele>
        <time>2025-04-04T19:33:21.000Z</time>
      </trkpt>
      <trkpt lat="37.078694" lon="-79.613362">
        <ele>248.452926</ele>
        <time>2025-04-04T19:33:24.000Z</time>
      </trkpt>
      <trkpt lat="37.078575" lon="-79.613028">
        <ele>248.195216</ele>
        <time>2025-04-04T19:33:27.000Z</time>
      </trkpt>
      <trkpt lat="37.078486" lon="-79.612624">
        <ele>247.782781</ele>
        <time>2025-04-04T19:33:31.000Z</time>
      </trkpt>
      <trkpt lat="37.078481" lon="-79.612436">
        <ele>247.594343</ele>
        <time>2025-04-04T19:33:33.000Z</time>
      </trkpt>
      <trkpt lat="37.078518" lon="-79.612254">
        <ele>247.406802</ele>
        <time>2025-04-04T19:33:35.000Z</time>
      </trkpt>
      <trkpt lat="37.078582" lon="-79.612138">
        <ele>247.28062</ele>
        <time>2025-04-04T19:33:36.000Z</time>
      </trkpt>
      <trkpt lat="37.078665" lon="-79.612062">
        <ele>247.153551</ele>
        <time>2025-04-04T19:33:37.000Z</time>
      </trkpt>
      <trkpt lat="37.078774" lon="-79.61199">
        <ele>246.994476</ele>
        <time>2025-04-04T19:33:38.000Z</time>
      </trkpt>
      <trkpt lat="37.079161" lon="-79.61185">
        <ele>246.498145</ele>
        <time>2025-04-04T19:33:42.000Z</time>
      </trkpt>
      <trkpt lat="37.079361" lon="-79.611695">
        <ele>246.218017</ele>
        <time>2025-04-04T19:33:45.000Z</time>
      </trkpt>
      <trkpt lat="37.079448" lon="-79.61154">
        <ele>246.046836</ele>
        <time>2025-04-04T19:33:47.000Z</time>
      </trkpt>
      <trkpt lat="37.079533" lon="-79.611197">
        <ele>246.448914</ele>
        <time>2025-04-04T19:33:50.000Z</time>
      </trkpt>
      <trkpt lat="37.079653" lon="-79.610895">
        <ele>246.823843</ele>
        <time>2025-04-04T19:33:53.000Z</time>
      </trkpt>
      <trkpt lat="37.07973" lon="-79.610774">
        <ele>247.015905</ele>
        <time>2025-04-04T19:33:54.000Z</time>
      </trkpt>
      <trkpt lat="37.07999" lon="-79.610516">
        <ele>247.489321</ele>
        <time>2025-04-04T19:33:58.000Z</time>
      </trkpt>
      <trkpt lat="37.080032" lon="-79.610429">
        <ele>247.584626</ele>
        <time>2025-04-04T19:33:59.000Z</time>
      </trkpt>
      <trkpt lat="37.080048" lon="-79.610272">
        <ele>247.775641</ele>
        <time>2025-04-04T19:34:00.000Z</time>
      </trkpt>
      <trkpt lat="37.080019" lon="-79.609843">
        <ele>248.279009</ele>
        <time>2025-04-04T19:34:04.000Z</time>
      </trkpt>
      <trkpt lat="37.080036" lon="-79.609656">
        <ele>248.487323</ele>
        <time>2025-04-04T19:34:06.000Z</time>
      </trkpt>
      <trkpt lat="37.080095" lon="-79.60944">
        <ele>249.055078</ele>
        <time>2025-04-04T19:34:08.000Z</time>
      </trkpt>
      <trkpt lat="37.080137" lon="-79.60935">
        <ele>249.481973</ele>
        <time>2025-04-04T19:34:09.000Z</time>
      </trkpt>
      <trkpt lat="37.08036" lon="-79.609076">
        <ele>250.86975</ele>
        <time>2025-04-04T19:34:12.000Z</time>
      </trkpt>
      <trkpt lat="37.080933" lon="-79.608528">
        <ele>254.241268</ele>
        <time>2025-04-04T19:34:20.000Z</time>
      </trkpt>
      <trkpt lat="37.081297" lon="-79.608204">
        <ele>256.314644</ele>
        <time>2025-04-04T19:34:25.000Z</time>
      </trkpt>
      <trkpt lat="37.081572" lon="-79.608024">
        <ele>257.104578</ele>
        <time>2025-04-04T19:34:28.000Z</time>
      </trkpt>
      <trkpt lat="37.08214" lon="-79.607806">
        <ele>257.621489</ele>
        <time>2025-04-04T19:34:35.000Z</time>
      </trkpt>
      <trkpt lat="37.082447" lon="-79.607637">
        <ele>257.90845</ele>
        <time>2025-04-04T19:34:39.000Z</time>
      </trkpt>
      <trkpt lat="37.082615" lon="-79.607479">
        <ele>258.092466</ele>
        <time>2025-04-04T19:34:41.000Z</time>
      </trkpt>
      <trkpt lat="37.082821" lon="-79.607149">
        <ele>258.381316</ele>
        <time>2025-04-04T19:34:45.000Z</time>
      </trkpt>
      <trkpt lat="37.082877" lon="-79.606951">
        <ele>258.523104</ele>
        <time>2025-04-04T19:34:47.000Z</time>
      </trkpt>
      <trkpt lat="37.082968" lon="-79.606609">
        <ele>258.620531</ele>
        <time>2025-04-04T19:34:50.000Z</time>
      </trkpt>
      <trkpt lat="37.083109" lon="-79.604698">
        <ele>259.146667</ele>
        <time>2025-04-04T19:35:07.000Z</time>
      </trkpt>
      <trkpt lat="37.083197" lon="-79.604436">
        <ele>259.211061</ele>
        <time>2025-04-04T19:35:10.000Z</time>
      </trkpt>
      <trkpt lat="37.08337" lon="-79.604119">
        <ele>259.295112</ele>
        <time>2025-04-04T19:35:13.000Z</time>
      </trkpt>
      <trkpt lat="37.083616" lon="-79.603824">
        <ele>259.385773</ele>
        <time>2025-04-04T19:35:17.000Z</time>
      </trkpt>
      <trkpt lat="37.08392" lon="-79.603628">
        <ele>259.479879</ele>
        <time>2025-04-04T19:35:21.000Z</time>
      </trkpt>
      <trkpt lat="37.085191" lon="-79.603177">
        <ele>259.56862</ele>
        <time>2025-04-04T19:35:36.000Z</time>
      </trkpt>
      <trkpt lat="37.085449" lon="-79.602981">
        <ele>259.543048</ele>
        <time>2025-04-04T19:35:39.000Z</time>
      </trkpt>
      <trkpt lat="37.08566" lon="-79.602718">
        <ele>259.516807</ele>
        <time>2025-04-04T19:35:42.000Z</time>
      </trkpt>
      <trkpt lat="37.085828" lon="-79.602459">
        <ele>259.494061</ele>
        <time>2025-04-04T19:35:45.000Z</time>
      </trkpt>
      <trkpt lat="37.08602" lon="-79.602027">
        <ele>259.853031</ele>
        <time>2025-04-04T19:35:49.000Z</time>
      </trkpt>
      <trkpt lat="37.086761" lon="-79.599718">
        <ele>263.244353</ele>
        <time>2025-04-04T19:36:11.000Z</time>
      </trkpt>
      <trkpt lat="37.086897" lon="-79.599365">
        <ele>263.828863</ele>
        <time>2025-04-04T19:36:14.000Z</time>
      </trkpt>
      <trkpt lat="37.086978" lon="-79.599256">
        <ele>264.041905</ele>
        <time>2025-04-04T19:36:15.000Z</time>
      </trkpt>
      <trkpt lat="37.087285" lon="-79.598937">
        <ele>264.830704</ele>
        <time>2025-04-04T19:36:19.000Z</time>
      </trkpt>
      <trkpt lat="37.087762" lon="-79.598604">
        <ele>265.859762</ele>
        <time>2025-04-04T19:36:25.000Z</time>
      </trkpt>
      <trkpt lat="37.088278" lon="-79.59822">
        <ele>268.076721</ele>
        <time>2025-04-04T19:36:32.000Z</time>
      </trkpt>
      <trkpt lat="37.088586" lon="-79.597887">
        <ele>269.656096</ele>
        <time>2025-04-04T19:36:37.000Z</time>
      </trkpt>
      <trkpt lat="37.089134" lon="-79.597129">
        <ele>272.698025</ele>
        <time>2025-04-04T19:36:46.000Z</time>
      </trkpt>
      <trkpt lat="37.089564" lon="-79.596368">
        <ele>274.646646</ele>
        <time>2025-04-04T19:36:54.000Z</time>
      </trkpt>
      <trkpt lat="37.089745" lon="-79.596067">
        <ele>275.438182</ele>
        <time>2025-04-04T19:36:57.000Z</time>
      </trkpt>
      <trkpt lat="37.089829" lon="-79.595932">
        <ele>275.79559</ele>
        <time>2025-04-04T19:36:59.000Z</time>
      </trkpt>
      <trkpt lat="37.09018" lon="-79.595294">
        <ele>277.390054</ele>
        <time>2025-04-04T19:37:06.000Z</time>
      </trkpt>
      <trkpt lat="37.091098" lon="-79.593643">
        <ele>277.626444</ele>
        <time>2025-04-04T19:37:24.000Z</time>
      </trkpt>
      <trkpt lat="37.091413" lon="-79.59314">
        <ele>277.12581</ele>
        <time>2025-04-04T19:37:30.000Z</time>
      </trkpt>
      <trkpt lat="37.091512" lon="-79.593437">
        <ele>276.711362</ele>
        <time>2025-04-04T19:37:33.000Z</time>
      </trkpt>
      <trkpt lat="37.092177" lon="-79.595274">
        <ele>273.878357</ele>
        <time>2025-04-04T19:37:51.000Z</time>
      </trkpt>
      <trkpt lat="37.093364" lon="-79.598664">
        <ele>266.755765</ele>
        <time>2025-04-04T19:38:24.000Z</time>
      </trkpt>
      <trkpt lat="37.093999" lon="-79.600382">
        <ele>261.489647</ele>
        <time>2025-04-04T19:38:41.000Z</time>
      </trkpt>
      <trkpt lat="37.094087" lon="-79.600667">
        <ele>260.574387</ele>
        <time>2025-04-04T19:38:44.000Z</time>
      </trkpt>
      <trkpt lat="37.094393" lon="-79.601496">
        <ele>258.759758</ele>
        <time>2025-04-04T19:38:52.000Z</time>
      </trkpt>
      <trkpt lat="37.094626" lon="-79.601887">
        <ele>258.069672</ele>
        <time>2025-04-04T19:38:56.000Z</time>
      </trkpt>
      <trkpt lat="37.094942" lon="-79.602219">
        <ele>257.371629</ele>
        <time>2025-04-04T19:39:01.000Z</time>
      </trkpt>
      <trkpt lat="37.095879" lon="-79.602932">
        <ele>255.449086</ele>
        <time>2025-04-04T19:39:13.000Z</time>
      </trkpt>
      <trkpt lat="37.096074" lon="-79.603129">
        <ele>255.02477</ele>
        <time>2025-04-04T19:39:16.000Z</time>
      </trkpt>
      <trkpt lat="37.096961" lon="-79.604255">
        <ele>252.934715</ele>
        <time>2025-04-04T19:39:30.000Z</time>
      </trkpt>
      <trkpt lat="37.097071" lon="-79.604433">
        <ele>252.704993</ele>
        <time>2025-04-04T19:39:32.000Z</time>
      </trkpt>
      <trkpt lat="37.097219" lon="-79.604774">
        <ele>252.310565</ele>
        <time>2025-04-04T19:39:35.000Z</time>
      </trkpt>
      <trkpt lat="37.097315" lon="-79.605118">
        <ele>251.956654</ele>
        <time>2025-04-04T19:39:38.000Z</time>
      </trkpt>
      <trkpt lat="37.09734" lon="-79.605476">
        <ele>251.582122</ele>
        <time>2025-04-04T19:39:41.000Z</time>
      </trkpt>
      <trkpt lat="37.097204" lon="-79.60793">
        <ele>252.216626</ele>
        <time>2025-04-04T19:40:03.000Z</time>
      </trkpt>
      <trkpt lat="37.097102" lon="-79.608396">
        <ele>252.551765</ele>
        <time>2025-04-04T19:40:07.000Z</time>
      </trkpt>
      <trkpt lat="37.097028" lon="-79.608621">
        <ele>252.738726</ele>
        <time>2025-04-04T19:40:09.000Z</time>
      </trkpt>
      <trkpt lat="37.096866" lon="-79.608861">
        <ele>252.967698</ele>
        <time>2025-04-04T19:40:12.000Z</time>
      </trkpt>
      <trkpt lat="37.096715" lon="-79.609014">
        <ele>253.154279</ele>
        <time>2025-04-04T19:40:14.000Z</time>
      </trkpt>
      <trkpt lat="37.096672" lon="-79.609029">
        <ele>253.190922</ele>
        <time>2025-04-04T19:40:14.000Z</time>
      </trkpt>
      <trkpt lat="37.096423" lon="-79.609228">
        <ele>253.467898</ele>
        <time>2025-04-04T19:40:17.000Z</time>
      </trkpt>
      <trkpt lat="37.096144" lon="-79.60941">
        <ele>253.751995</ele>
        <time>2025-04-04T19:40:20.000Z</time>
      </trkpt>
      <trkpt lat="37.096014" lon="-79.609492">
        <ele>253.898894</ele>
        <time>2025-04-04T19:40:22.000Z</time>
      </trkpt>
      <trkpt lat="37.095794" lon="-79.609864">
        <ele>254.20106491</ele>
        <time>2025-04-04T19:40:26.000Z</time>
      </trkpt>
      <trkpt lat="37.095739" lon="-79.609927">
        <ele>254.262008955</ele>
        <time>2025-04-04T19:40:27.000Z</time>
      </trkpt>
      <trkpt lat="37.095682" lon="-79.609941">
        <ele>254.30952421</ele>
        <time>2025-04-04T19:40:28.000Z</time>
      </trkpt>
      <trkpt lat="37.095633" lon="-79.610064">
        <ele>254.399235153</ele>
        <time>2025-04-04T19:40:29.000Z</time>
      </trkpt>
      <trkpt lat="37.095581" lon="-79.6101">
        <ele>254.447828531</ele>
        <time>2025-04-04T19:40:30.000Z</time>
      </trkpt>
      <trkpt lat="37.095085" lon="-79.610375">
        <ele>254.891487916</ele>
        <time>2025-04-04T19:40:36.000Z</time>
      </trkpt>
      <trkpt lat="37.095077" lon="-79.61037">
        <ele>254.89880046</ele>
        <time>2025-04-04T19:40:36.000Z</time>
      </trkpt>
      <trkpt lat="37.095045" lon="-79.610375">
        <ele>254.925180591</ele>
        <time>2025-04-04T19:40:36.000Z</time>
      </trkpt>
      <trkpt lat="37.09497" lon="-79.610341">
        <ele>254.990422216</ele>
        <time>2025-04-04T19:40:37.000Z</time>
      </trkpt>
      <trkpt lat="37.09491" lon="-79.610186">
        <ele>255.102841814</ele>
        <time>2025-04-04T19:40:39.000Z</time>
      </trkpt>
      <trkpt lat="37.095447" lon="-79.609878">
        <ele>255.585923515</ele>
        <time>2025-04-04T19:40:46.000Z</time>
      </trkpt>
    </trkseg>
  </trk>
</gpx>

<!--
Performance optimized by W3 Total Cache. Learn more: https://www.boldgrid.com/w3-total-cache/?utm_source=w3tc&utm_medium=footer_comment&utm_campaign=free_plugin

Page Caching using Disk: Enhanced{w3tc_pagecache_reject_reason} 

Served from: www.aquabike.world @ 2026-05-10 11:59:37 by W3 Total Cache
-->